﻿<?xml version="1.0" encoding="UTF-8"?>
<gpx version="v1.1.5" creator="iTravel Tech Inc. - http://www.itravel-tech.com" xmlns:xsi="http://www.w3.org/2001/XMLSchema-instance" xmlns="http://www.topografix.com/GPX/1/1" xsi:schemaLocation="http://www.topografix.com/GPX/1/1 http://www.topografix.com/GPX/1/1/gpx.xsd http://www.topografix.com/GPX/gpx_overlay/0/3 http://www.topografix.com/GPX/gpx_overlay/0/3/gpx_overlay.xsd http://www.topografix.com/GPX/gpx_modified/0/1 http://www.topografix.com/GPX/gpx_modified/0/1/gpx_modified.xsd">
<trk>
<name>Holux2011/10/10_10:22</name>
<trkseg>
<trkpt lat="44.727032" lon="33.840244">
<ele>119.032288</ele>
<time>2011-10-10T07:22:37Z</time>
<desc>lat.=44.727032, lon.=33.840244, Alt.=119.032288m. Speed=3.096000m/h.</desc>
<speed>0.860000</speed>
</trkpt>
<trkpt lat="44.727066" lon="33.840328">
<ele>118.997131</ele>
<time>2011-10-10T07:22:42Z</time>
<desc>lat.=44.727066, lon.=33.840328, Alt.=118.997131m. Speed=5.652000m/h.</desc>
<speed>1.570000</speed>
</trkpt>
<trkpt lat="44.727139" lon="33.840420">
<ele>118.729553</ele>
<time>2011-10-10T07:22:47Z</time>
<desc>lat.=44.727139, lon.=33.840420, Alt.=118.729553m. Speed=8.100000m/h.</desc>
<speed>2.250000</speed>
</trkpt>
<trkpt lat="44.727245" lon="33.840530">
<ele>118.405334</ele>
<time>2011-10-10T07:22:52Z</time>
<desc>lat.=44.727245, lon.=33.840530, Alt.=118.405334m. Speed=9.792000m/h.</desc>
<speed>2.720000</speed>
</trkpt>
<trkpt lat="44.727345" lon="33.840633">
<ele>117.965881</ele>
<time>2011-10-10T07:22:57Z</time>
<desc>lat.=44.727345, lon.=33.840633, Alt.=117.965881m. Speed=9.432000m/h.</desc>
<speed>2.620000</speed>
</trkpt>
<trkpt lat="44.727474" lon="33.840630">
<ele>92.172913</ele>
<time>2011-10-10T07:23:02Z</time>
<desc>lat.=44.727474, lon.=33.840630, Alt.=92.172913m. Speed=4.644000m/h.</desc>
<speed>1.290000</speed>
</trkpt>
<trkpt lat="44.727467" lon="33.840595">
<ele>94.161194</ele>
<time>2011-10-10T07:23:07Z</time>
<desc>lat.=44.727467, lon.=33.840595, Alt.=94.161194m. Speed=2.916000m/h.</desc>
<speed>0.810000</speed>
</trkpt>
<trkpt lat="44.727406" lon="33.840519">
<ele>97.364319</ele>
<time>2011-10-10T07:23:12Z</time>
<desc>lat.=44.727406, lon.=33.840519, Alt.=97.364319m. Speed=10.584000m/h.</desc>
<speed>2.940000</speed>
</trkpt>
<trkpt lat="44.727303" lon="33.840389">
<ele>99.688538</ele>
<time>2011-10-10T07:23:17Z</time>
<desc>lat.=44.727303, lon.=33.840389, Alt.=99.688538m. Speed=11.916000m/h.</desc>
<speed>3.310000</speed>
</trkpt>
<trkpt lat="44.727192" lon="33.840248">
<ele>100.735413</ele>
<time>2011-10-10T07:23:22Z</time>
<desc>lat.=44.727192, lon.=33.840248, Alt.=100.735413m. Speed=11.196000m/h.</desc>
<speed>3.110000</speed>
</trkpt>
<trkpt lat="44.727146" lon="33.840103">
<ele>102.516663</ele>
<time>2011-10-10T07:23:27Z</time>
<desc>lat.=44.727146, lon.=33.840103, Alt.=102.516663m. Speed=8.676000m/h.</desc>
<speed>2.410000</speed>
</trkpt>
<trkpt lat="44.727135" lon="33.840080">
<ele>103.141663</ele>
<time>2011-10-10T07:23:32Z</time>
<desc>lat.=44.727135, lon.=33.840080, Alt.=103.141663m. Speed=0.360000m/h.</desc>
<speed>0.100000</speed>
</trkpt>
<trkpt lat="44.727135" lon="33.840076">
<ele>103.590881</ele>
<time>2011-10-10T07:23:37Z</time>
<desc>lat.=44.727135, lon.=33.840076, Alt.=103.590881m. Speed=0.108000m/h.</desc>
<speed>0.030000</speed>
</trkpt>
<trkpt lat="44.727135" lon="33.840076">
<ele>103.813538</ele>
<time>2011-10-10T07:23:42Z</time>
<desc>lat.=44.727135, lon.=33.840076, Alt.=103.813538m. Speed=0.108000m/h.</desc>
<speed>0.030000</speed>
</trkpt>
<trkpt lat="44.727135" lon="33.840080">
<ele>103.905334</ele>
<time>2011-10-10T07:23:47Z</time>
<desc>lat.=44.727135, lon.=33.840080, Alt.=103.905334m. Speed=0.288000m/h.</desc>
<speed>0.080000</speed>
</trkpt>
<trkpt lat="44.727135" lon="33.840084">
<ele>103.993225</ele>
<time>2011-10-10T07:23:52Z</time>
<desc>lat.=44.727135, lon.=33.840084, Alt.=103.993225m. Speed=0.036000m/h.</desc>
<speed>0.010000</speed>
</trkpt>
<trkpt lat="44.727139" lon="33.840084">
<ele>104.147522</ele>
<time>2011-10-10T07:23:57Z</time>
<desc>lat.=44.727139, lon.=33.840084, Alt.=104.147522m. Speed=0.000000m/h.</desc>
<speed>0.000000</speed>
</trkpt>
<trkpt lat="44.727139" lon="33.840084">
<ele>104.295959</ele>
<time>2011-10-10T07:24:02Z</time>
<desc>lat.=44.727139, lon.=33.840084, Alt.=104.295959m. Speed=0.000000m/h.</desc>
<speed>0.000000</speed>
</trkpt>
<trkpt lat="44.727139" lon="33.840084">
<ele>104.434631</ele>
<time>2011-10-10T07:24:07Z</time>
<desc>lat.=44.727139, lon.=33.840084, Alt.=104.434631m. Speed=0.000000m/h.</desc>
<speed>0.000000</speed>
</trkpt>
<trkpt lat="44.727139" lon="33.840088">
<ele>104.499084</ele>
<time>2011-10-10T07:24:12Z</time>
<desc>lat.=44.727139, lon.=33.840088, Alt.=104.499084m. Speed=0.000000m/h.</desc>
<speed>0.000000</speed>
</trkpt>
<trkpt lat="44.727139" lon="33.840088">
<ele>104.567444</ele>
<time>2011-10-10T07:24:17Z</time>
<desc>lat.=44.727139, lon.=33.840088, Alt.=104.567444m. Speed=0.108000m/h.</desc>
<speed>0.030000</speed>
</trkpt>
<trkpt lat="44.727139" lon="33.840088">
<ele>104.622131</ele>
<time>2011-10-10T07:24:22Z</time>
<desc>lat.=44.727139, lon.=33.840088, Alt.=104.622131m. Speed=0.036000m/h.</desc>
<speed>0.010000</speed>
</trkpt>
<trkpt lat="44.727139" lon="33.840088">
<ele>104.663147</ele>
<time>2011-10-10T07:24:27Z</time>
<desc>lat.=44.727139, lon.=33.840088, Alt.=104.663147m. Speed=0.000000m/h.</desc>
<speed>0.000000</speed>
</trkpt>
<trkpt lat="44.727139" lon="33.840088">
<ele>104.706116</ele>
<time>2011-10-10T07:24:32Z</time>
<desc>lat.=44.727139, lon.=33.840088, Alt.=104.706116m. Speed=0.000000m/h.</desc>
<speed>0.000000</speed>
</trkpt>
<trkpt lat="44.727139" lon="33.840088">
<ele>104.751038</ele>
<time>2011-10-10T07:24:37Z</time>
<desc>lat.=44.727139, lon.=33.840088, Alt.=104.751038m. Speed=0.000000m/h.</desc>
<speed>0.000000</speed>
</trkpt>
<trkpt lat="44.727139" lon="33.840088">
<ele>104.792053</ele>
<time>2011-10-10T07:24:42Z</time>
<desc>lat.=44.727139, lon.=33.840088, Alt.=104.792053m. Speed=0.000000m/h.</desc>
<speed>0.000000</speed>
</trkpt>
<trkpt lat="44.727139" lon="33.840088">
<ele>104.835022</ele>
<time>2011-10-10T07:24:47Z</time>
<desc>lat.=44.727139, lon.=33.840088, Alt.=104.835022m. Speed=0.000000m/h.</desc>
<speed>0.000000</speed>
</trkpt>
<trkpt lat="44.727139" lon="33.840088">
<ele>104.881897</ele>
<time>2011-10-10T07:24:52Z</time>
<desc>lat.=44.727139, lon.=33.840088, Alt.=104.881897m. Speed=0.000000m/h.</desc>
<speed>0.000000</speed>
</trkpt>
<trkpt lat="44.727139" lon="33.840088">
<ele>104.932678</ele>
<time>2011-10-10T07:24:57Z</time>
<desc>lat.=44.727139, lon.=33.840088, Alt.=104.932678m. Speed=0.000000m/h.</desc>
<speed>0.000000</speed>
</trkpt>
<trkpt lat="44.727139" lon="33.840088">
<ele>104.960022</ele>
<time>2011-10-10T07:25:02Z</time>
<desc>lat.=44.727139, lon.=33.840088, Alt.=104.960022m. Speed=3.132000m/h.</desc>
<speed>0.870000</speed>
</trkpt>
<trkpt lat="44.727161" lon="33.840076">
<ele>105.225647</ele>
<time>2011-10-10T07:25:07Z</time>
<desc>lat.=44.727161, lon.=33.840076, Alt.=105.225647m. Speed=0.180000m/h.</desc>
<speed>0.050000</speed>
</trkpt>
<trkpt lat="44.727161" lon="33.840076">
<ele>105.208069</ele>
<time>2011-10-10T07:25:12Z</time>
<desc>lat.=44.727161, lon.=33.840076, Alt.=105.208069m. Speed=0.036000m/h.</desc>
<speed>0.010000</speed>
</trkpt>
<trkpt lat="44.727161" lon="33.840076">
<ele>105.141663</ele>
<time>2011-10-10T07:25:17Z</time>
<desc>lat.=44.727161, lon.=33.840076, Alt.=105.141663m. Speed=0.000000m/h.</desc>
<speed>0.000000</speed>
</trkpt>
<trkpt lat="44.727161" lon="33.840076">
<ele>105.106506</ele>
<time>2011-10-10T07:25:22Z</time>
<desc>lat.=44.727161, lon.=33.840076, Alt.=105.106506m. Speed=0.000000m/h.</desc>
<speed>0.000000</speed>
</trkpt>
<trkpt lat="44.727161" lon="33.840080">
<ele>105.092834</ele>
<time>2011-10-10T07:25:27Z</time>
<desc>lat.=44.727161, lon.=33.840080, Alt.=105.092834m. Speed=0.000000m/h.</desc>
<speed>0.000000</speed>
</trkpt>
<trkpt lat="44.727161" lon="33.840080">
<ele>105.086975</ele>
<time>2011-10-10T07:25:32Z</time>
<desc>lat.=44.727161, lon.=33.840080, Alt.=105.086975m. Speed=0.000000m/h.</desc>
<speed>0.000000</speed>
</trkpt>
<trkpt lat="44.727161" lon="33.840080">
<ele>105.090881</ele>
<time>2011-10-10T07:25:37Z</time>
<desc>lat.=44.727161, lon.=33.840080, Alt.=105.090881m. Speed=0.000000m/h.</desc>
<speed>0.000000</speed>
</trkpt>
<trkpt lat="44.727161" lon="33.840080">
<ele>105.094788</ele>
<time>2011-10-10T07:25:42Z</time>
<desc>lat.=44.727161, lon.=33.840080, Alt.=105.094788m. Speed=0.000000m/h.</desc>
<speed>0.000000</speed>
</trkpt>
<trkpt lat="44.727161" lon="33.840080">
<ele>105.073303</ele>
<time>2011-10-10T07:25:47Z</time>
<desc>lat.=44.727161, lon.=33.840080, Alt.=105.073303m. Speed=0.000000m/h.</desc>
<speed>0.000000</speed>
</trkpt>
<trkpt lat="44.727161" lon="33.840080">
<ele>105.049866</ele>
<time>2011-10-10T07:25:52Z</time>
<desc>lat.=44.727161, lon.=33.840080, Alt.=105.049866m. Speed=0.540000m/h.</desc>
<speed>0.150000</speed>
</trkpt>
<trkpt lat="44.727139" lon="33.840099">
<ele>104.585022</ele>
<time>2011-10-10T07:25:57Z</time>
<desc>lat.=44.727139, lon.=33.840099, Alt.=104.585022m. Speed=2.052000m/h.</desc>
<speed>0.570000</speed>
</trkpt>
<trkpt lat="44.727131" lon="33.840118">
<ele>106.741272</ele>
<time>2011-10-10T07:26:02Z</time>
<desc>lat.=44.727131, lon.=33.840118, Alt.=106.741272m. Speed=0.072000m/h.</desc>
<speed>0.020000</speed>
</trkpt>
<trkpt lat="44.727131" lon="33.840118">
<ele>106.792053</ele>
<time>2011-10-10T07:26:07Z</time>
<desc>lat.=44.727131, lon.=33.840118, Alt.=106.792053m. Speed=0.072000m/h.</desc>
<speed>0.020000</speed>
</trkpt>
<trkpt lat="44.727131" lon="33.840122">
<ele>106.782288</ele>
<time>2011-10-10T07:26:12Z</time>
<desc>lat.=44.727131, lon.=33.840122, Alt.=106.782288m. Speed=0.072000m/h.</desc>
<speed>0.020000</speed>
</trkpt>
<trkpt lat="44.727131" lon="33.840122">
<ele>106.794006</ele>
<time>2011-10-10T07:26:17Z</time>
<desc>lat.=44.727131, lon.=33.840122, Alt.=106.794006m. Speed=0.000000m/h.</desc>
<speed>0.000000</speed>
</trkpt>
<trkpt lat="44.727131" lon="33.840122">
<ele>106.805725</ele>
<time>2011-10-10T07:26:22Z</time>
<desc>lat.=44.727131, lon.=33.840122, Alt.=106.805725m. Speed=0.036000m/h.</desc>
<speed>0.010000</speed>
</trkpt>
<trkpt lat="44.727131" lon="33.840122">
<ele>106.852600</ele>
<time>2011-10-10T07:26:27Z</time>
<desc>lat.=44.727131, lon.=33.840122, Alt.=106.852600m. Speed=0.000000m/h.</desc>
<speed>0.000000</speed>
</trkpt>
<trkpt lat="44.727131" lon="33.840122">
<ele>106.881897</ele>
<time>2011-10-10T07:26:32Z</time>
<desc>lat.=44.727131, lon.=33.840122, Alt.=106.881897m. Speed=0.000000m/h.</desc>
<speed>0.000000</speed>
</trkpt>
<trkpt lat="44.727131" lon="33.840122">
<ele>106.905334</ele>
<time>2011-10-10T07:26:37Z</time>
<desc>lat.=44.727131, lon.=33.840122, Alt.=106.905334m. Speed=0.000000m/h.</desc>
<speed>0.000000</speed>
</trkpt>
<trkpt lat="44.727131" lon="33.840122">
<ele>106.944397</ele>
<time>2011-10-10T07:26:42Z</time>
<desc>lat.=44.727131, lon.=33.840122, Alt.=106.944397m. Speed=0.072000m/h.</desc>
<speed>0.020000</speed>
</trkpt>
<trkpt lat="44.727131" lon="33.840122">
<ele>106.977600</ele>
<time>2011-10-10T07:26:47Z</time>
<desc>lat.=44.727131, lon.=33.840122, Alt.=106.977600m. Speed=0.036000m/h.</desc>
<speed>0.010000</speed>
</trkpt>
<trkpt lat="44.727131" lon="33.840122">
<ele>107.012756</ele>
<time>2011-10-10T07:26:52Z</time>
<desc>lat.=44.727131, lon.=33.840122, Alt.=107.012756m. Speed=0.036000m/h.</desc>
<speed>0.010000</speed>
</trkpt>
<trkpt lat="44.727131" lon="33.840126">
<ele>107.051819</ele>
<time>2011-10-10T07:26:57Z</time>
<desc>lat.=44.727131, lon.=33.840126, Alt.=107.051819m. Speed=0.000000m/h.</desc>
<speed>0.000000</speed>
</trkpt>
<trkpt lat="44.727131" lon="33.840126">
<ele>107.086975</ele>
<time>2011-10-10T07:27:02Z</time>
<desc>lat.=44.727131, lon.=33.840126, Alt.=107.086975m. Speed=0.036000m/h.</desc>
<speed>0.010000</speed>
</trkpt>
<trkpt lat="44.727131" lon="33.840126">
<ele>107.112366</ele>
<time>2011-10-10T07:27:07Z</time>
<desc>lat.=44.727131, lon.=33.840126, Alt.=107.112366m. Speed=0.036000m/h.</desc>
<speed>0.010000</speed>
</trkpt>
<trkpt lat="44.727131" lon="33.840126">
<ele>107.145569</ele>
<time>2011-10-10T07:27:12Z</time>
<desc>lat.=44.727131, lon.=33.840126, Alt.=107.145569m. Speed=0.036000m/h.</desc>
<speed>0.010000</speed>
</trkpt>
<trkpt lat="44.727131" lon="33.840126">
<ele>107.176819</ele>
<time>2011-10-10T07:27:17Z</time>
<desc>lat.=44.727131, lon.=33.840126, Alt.=107.176819m. Speed=0.144000m/h.</desc>
<speed>0.040000</speed>
</trkpt>
<trkpt lat="44.727127" lon="33.840126">
<ele>107.206116</ele>
<time>2011-10-10T07:27:22Z</time>
<desc>lat.=44.727127, lon.=33.840126, Alt.=107.206116m. Speed=0.036000m/h.</desc>
<speed>0.010000</speed>
</trkpt>
<trkpt lat="44.727127" lon="33.840126">
<ele>107.239319</ele>
<time>2011-10-10T07:27:27Z</time>
<desc>lat.=44.727127, lon.=33.840126, Alt.=107.239319m. Speed=0.072000m/h.</desc>
<speed>0.020000</speed>
</trkpt>
<trkpt lat="44.727127" lon="33.840126">
<ele>107.276428</ele>
<time>2011-10-10T07:27:32Z</time>
<desc>lat.=44.727127, lon.=33.840126, Alt.=107.276428m. Speed=0.036000m/h.</desc>
<speed>0.010000</speed>
</trkpt>
<trkpt lat="44.727127" lon="33.840126">
<ele>107.311584</ele>
<time>2011-10-10T07:27:37Z</time>
<desc>lat.=44.727127, lon.=33.840126, Alt.=107.311584m. Speed=0.036000m/h.</desc>
<speed>0.010000</speed>
</trkpt>
<trkpt lat="44.727127" lon="33.840126">
<ele>107.348694</ele>
<time>2011-10-10T07:27:42Z</time>
<desc>lat.=44.727127, lon.=33.840126, Alt.=107.348694m. Speed=0.000000m/h.</desc>
<speed>0.000000</speed>
</trkpt>
<trkpt lat="44.727127" lon="33.840126">
<ele>107.383850</ele>
<time>2011-10-10T07:27:47Z</time>
<desc>lat.=44.727127, lon.=33.840126, Alt.=107.383850m. Speed=0.036000m/h.</desc>
<speed>0.010000</speed>
</trkpt>
<trkpt lat="44.727127" lon="33.840126">
<ele>107.417053</ele>
<time>2011-10-10T07:27:52Z</time>
<desc>lat.=44.727127, lon.=33.840126, Alt.=107.417053m. Speed=0.036000m/h.</desc>
<speed>0.010000</speed>
</trkpt>
<trkpt lat="44.727127" lon="33.840126">
<ele>107.448303</ele>
<time>2011-10-10T07:27:57Z</time>
<desc>lat.=44.727127, lon.=33.840126, Alt.=107.448303m. Speed=0.036000m/h.</desc>
<speed>0.010000</speed>
</trkpt>
<trkpt lat="44.727127" lon="33.840126">
<ele>107.473694</ele>
<time>2011-10-10T07:28:02Z</time>
<desc>lat.=44.727127, lon.=33.840126, Alt.=107.473694m. Speed=0.036000m/h.</desc>
<speed>0.010000</speed>
</trkpt>
<trkpt lat="44.727127" lon="33.840126">
<ele>107.502991</ele>
<time>2011-10-10T07:28:07Z</time>
<desc>lat.=44.727127, lon.=33.840126, Alt.=107.502991m. Speed=0.036000m/h.</desc>
<speed>0.010000</speed>
</trkpt>
<trkpt lat="44.727127" lon="33.840126">
<ele>107.536194</ele>
<time>2011-10-10T07:28:12Z</time>
<desc>lat.=44.727127, lon.=33.840126, Alt.=107.536194m. Speed=0.036000m/h.</desc>
<speed>0.010000</speed>
</trkpt>
<trkpt lat="44.727127" lon="33.840126">
<ele>107.571350</ele>
<time>2011-10-10T07:28:17Z</time>
<desc>lat.=44.727127, lon.=33.840126, Alt.=107.571350m. Speed=0.000000m/h.</desc>
<speed>0.000000</speed>
</trkpt>
<trkpt lat="44.727127" lon="33.840126">
<ele>107.612366</ele>
<time>2011-10-10T07:28:22Z</time>
<desc>lat.=44.727127, lon.=33.840126, Alt.=107.612366m. Speed=0.000000m/h.</desc>
<speed>0.000000</speed>
</trkpt>
<trkpt lat="44.727127" lon="33.840130">
<ele>107.643616</ele>
<time>2011-10-10T07:28:27Z</time>
<desc>lat.=44.727127, lon.=33.840130, Alt.=107.643616m. Speed=0.000000m/h.</desc>
<speed>0.000000</speed>
</trkpt>
<trkpt lat="44.727127" lon="33.840130">
<ele>107.674866</ele>
<time>2011-10-10T07:28:32Z</time>
<desc>lat.=44.727127, lon.=33.840130, Alt.=107.674866m. Speed=0.000000m/h.</desc>
<speed>0.000000</speed>
</trkpt>
<trkpt lat="44.727127" lon="33.840130">
<ele>107.706116</ele>
<time>2011-10-10T07:28:37Z</time>
<desc>lat.=44.727127, lon.=33.840130, Alt.=107.706116m. Speed=0.036000m/h.</desc>
<speed>0.010000</speed>
</trkpt>
<trkpt lat="44.727127" lon="33.840130">
<ele>107.735413</ele>
<time>2011-10-10T07:28:42Z</time>
<desc>lat.=44.727127, lon.=33.840130, Alt.=107.735413m. Speed=0.072000m/h.</desc>
<speed>0.020000</speed>
</trkpt>
<trkpt lat="44.727123" lon="33.840130">
<ele>107.778381</ele>
<time>2011-10-10T07:28:47Z</time>
<desc>lat.=44.727123, lon.=33.840130, Alt.=107.778381m. Speed=0.000000m/h.</desc>
<speed>0.000000</speed>
</trkpt>
<trkpt lat="44.727123" lon="33.840130">
<ele>107.803772</ele>
<time>2011-10-10T07:28:52Z</time>
<desc>lat.=44.727123, lon.=33.840130, Alt.=107.803772m. Speed=0.576000m/h.</desc>
<speed>0.160000</speed>
</trkpt>
<trkpt lat="44.727119" lon="33.840137">
<ele>109.417053</ele>
<time>2011-10-10T07:28:57Z</time>
<desc>lat.=44.727119, lon.=33.840137, Alt.=109.417053m. Speed=0.252000m/h.</desc>
<speed>0.070000</speed>
</trkpt>
<trkpt lat="44.727119" lon="33.840137">
<ele>109.991272</ele>
<time>2011-10-10T07:29:02Z</time>
<desc>lat.=44.727119, lon.=33.840137, Alt.=109.991272m. Speed=0.000000m/h.</desc>
<speed>0.000000</speed>
</trkpt>
<trkpt lat="44.727119" lon="33.840137">
<ele>109.963928</ele>
<time>2011-10-10T07:29:07Z</time>
<desc>lat.=44.727119, lon.=33.840137, Alt.=109.963928m. Speed=0.036000m/h.</desc>
<speed>0.010000</speed>
</trkpt>
<trkpt lat="44.727119" lon="33.840137">
<ele>110.002991</ele>
<time>2011-10-10T07:29:12Z</time>
<desc>lat.=44.727119, lon.=33.840137, Alt.=110.002991m. Speed=0.000000m/h.</desc>
<speed>0.000000</speed>
</trkpt>
<trkpt lat="44.727119" lon="33.840137">
<ele>110.028381</ele>
<time>2011-10-10T07:29:17Z</time>
<desc>lat.=44.727119, lon.=33.840137, Alt.=110.028381m. Speed=0.036000m/h.</desc>
<speed>0.010000</speed>
</trkpt>
<trkpt lat="44.727119" lon="33.840137">
<ele>110.053772</ele>
<time>2011-10-10T07:29:22Z</time>
<desc>lat.=44.727119, lon.=33.840137, Alt.=110.053772m. Speed=0.000000m/h.</desc>
<speed>0.000000</speed>
</trkpt>
<trkpt lat="44.727119" lon="33.840137">
<ele>110.085022</ele>
<time>2011-10-10T07:29:27Z</time>
<desc>lat.=44.727119, lon.=33.840137, Alt.=110.085022m. Speed=0.000000m/h.</desc>
<speed>0.000000</speed>
</trkpt>
<trkpt lat="44.727119" lon="33.840141">
<ele>110.114319</ele>
<time>2011-10-10T07:29:32Z</time>
<desc>lat.=44.727119, lon.=33.840141, Alt.=110.114319m. Speed=0.000000m/h.</desc>
<speed>0.000000</speed>
</trkpt>
<trkpt lat="44.727119" lon="33.840141">
<ele>110.145569</ele>
<time>2011-10-10T07:29:37Z</time>
<desc>lat.=44.727119, lon.=33.840141, Alt.=110.145569m. Speed=0.000000m/h.</desc>
<speed>0.000000</speed>
</trkpt>
<trkpt lat="44.727119" lon="33.840141">
<ele>110.174866</ele>
<time>2011-10-10T07:29:42Z</time>
<desc>lat.=44.727119, lon.=33.840141, Alt.=110.174866m. Speed=0.036000m/h.</desc>
<speed>0.010000</speed>
</trkpt>
<trkpt lat="44.727119" lon="33.840141">
<ele>110.206116</ele>
<time>2011-10-10T07:29:47Z</time>
<desc>lat.=44.727119, lon.=33.840141, Alt.=110.206116m. Speed=0.000000m/h.</desc>
<speed>0.000000</speed>
</trkpt>
<trkpt lat="44.727119" lon="33.840141">
<ele>110.231506</ele>
<time>2011-10-10T07:29:52Z</time>
<desc>lat.=44.727119, lon.=33.840141, Alt.=110.231506m. Speed=0.036000m/h.</desc>
<speed>0.010000</speed>
</trkpt>
<trkpt lat="44.727119" lon="33.840141">
<ele>110.258850</ele>
<time>2011-10-10T07:29:57Z</time>
<desc>lat.=44.727119, lon.=33.840141, Alt.=110.258850m. Speed=0.036000m/h.</desc>
<speed>0.010000</speed>
</trkpt>
<trkpt lat="44.727119" lon="33.840141">
<ele>110.288147</ele>
<time>2011-10-10T07:30:02Z</time>
<desc>lat.=44.727119, lon.=33.840141, Alt.=110.288147m. Speed=0.000000m/h.</desc>
<speed>0.000000</speed>
</trkpt>
<trkpt lat="44.727119" lon="33.840141">
<ele>110.319397</ele>
<time>2011-10-10T07:30:07Z</time>
<desc>lat.=44.727119, lon.=33.840141, Alt.=110.319397m. Speed=0.000000m/h.</desc>
<speed>0.000000</speed>
</trkpt>
<trkpt lat="44.727119" lon="33.840141">
<ele>110.346741</ele>
<time>2011-10-10T07:30:12Z</time>
<desc>lat.=44.727119, lon.=33.840141, Alt.=110.346741m. Speed=0.000000m/h.</desc>
<speed>0.000000</speed>
</trkpt>
<trkpt lat="44.727119" lon="33.840141">
<ele>110.376038</ele>
<time>2011-10-10T07:30:17Z</time>
<desc>lat.=44.727119, lon.=33.840141, Alt.=110.376038m. Speed=0.000000m/h.</desc>
<speed>0.000000</speed>
</trkpt>
<trkpt lat="44.727119" lon="33.840141">
<ele>110.405334</ele>
<time>2011-10-10T07:30:22Z</time>
<desc>lat.=44.727119, lon.=33.840141, Alt.=110.405334m. Speed=0.036000m/h.</desc>
<speed>0.010000</speed>
</trkpt>
<trkpt lat="44.727116" lon="33.840141">
<ele>110.426819</ele>
<time>2011-10-10T07:30:27Z</time>
<desc>lat.=44.727116, lon.=33.840141, Alt.=110.426819m. Speed=0.036000m/h.</desc>
<speed>0.010000</speed>
</trkpt>
<trkpt lat="44.727116" lon="33.840141">
<ele>110.442444</ele>
<time>2011-10-10T07:30:32Z</time>
<desc>lat.=44.727116, lon.=33.840141, Alt.=110.442444m. Speed=0.000000m/h.</desc>
<speed>0.000000</speed>
</trkpt>
<trkpt lat="44.727116" lon="33.840141">
<ele>110.458069</ele>
<time>2011-10-10T07:30:37Z</time>
<desc>lat.=44.727116, lon.=33.840141, Alt.=110.458069m. Speed=0.036000m/h.</desc>
<speed>0.010000</speed>
</trkpt>
<trkpt lat="44.727116" lon="33.840141">
<ele>110.467834</ele>
<time>2011-10-10T07:30:42Z</time>
<desc>lat.=44.727116, lon.=33.840141, Alt.=110.467834m. Speed=0.072000m/h.</desc>
<speed>0.020000</speed>
</trkpt>
<trkpt lat="44.727116" lon="33.840141">
<ele>110.479553</ele>
<time>2011-10-10T07:30:47Z</time>
<desc>lat.=44.727116, lon.=33.840141, Alt.=110.479553m. Speed=0.036000m/h.</desc>
<speed>0.010000</speed>
</trkpt>
<trkpt lat="44.727116" lon="33.840141">
<ele>110.497131</ele>
<time>2011-10-10T07:30:52Z</time>
<desc>lat.=44.727116, lon.=33.840141, Alt.=110.497131m. Speed=0.000000m/h.</desc>
<speed>0.000000</speed>
</trkpt>
<trkpt lat="44.727116" lon="33.840141">
<ele>110.510803</ele>
<time>2011-10-10T07:30:57Z</time>
<desc>lat.=44.727116, lon.=33.840141, Alt.=110.510803m. Speed=0.036000m/h.</desc>
<speed>0.010000</speed>
</trkpt>
<trkpt lat="44.727116" lon="33.840141">
<ele>110.528381</ele>
<time>2011-10-10T07:31:02Z</time>
<desc>lat.=44.727116, lon.=33.840141, Alt.=110.528381m. Speed=0.000000m/h.</desc>
<speed>0.000000</speed>
</trkpt>
<trkpt lat="44.727116" lon="33.840141">
<ele>110.547913</ele>
<time>2011-10-10T07:31:07Z</time>
<desc>lat.=44.727116, lon.=33.840141, Alt.=110.547913m. Speed=0.072000m/h.</desc>
<speed>0.020000</speed>
</trkpt>
<trkpt lat="44.727116" lon="33.840145">
<ele>110.567444</ele>
<time>2011-10-10T07:31:12Z</time>
<desc>lat.=44.727116, lon.=33.840145, Alt.=110.567444m. Speed=0.036000m/h.</desc>
<speed>0.010000</speed>
</trkpt>
<trkpt lat="44.727116" lon="33.840145">
<ele>110.600647</ele>
<time>2011-10-10T07:31:17Z</time>
<desc>lat.=44.727116, lon.=33.840145, Alt.=110.600647m. Speed=0.000000m/h.</desc>
<speed>0.000000</speed>
</trkpt>
<trkpt lat="44.727116" lon="33.840145">
<ele>110.637756</ele>
<time>2011-10-10T07:31:22Z</time>
<desc>lat.=44.727116, lon.=33.840145, Alt.=110.637756m. Speed=0.144000m/h.</desc>
<speed>0.040000</speed>
</trkpt>
<trkpt lat="44.727116" lon="33.840145">
<ele>110.663147</ele>
<time>2011-10-10T07:31:27Z</time>
<desc>lat.=44.727116, lon.=33.840145, Alt.=110.663147m. Speed=0.000000m/h.</desc>
<speed>0.000000</speed>
</trkpt>
<trkpt lat="44.727116" lon="33.840145">
<ele>110.676819</ele>
<time>2011-10-10T07:31:32Z</time>
<desc>lat.=44.727116, lon.=33.840145, Alt.=110.676819m. Speed=0.180000m/h.</desc>
<speed>0.050000</speed>
</trkpt>
<trkpt lat="44.727116" lon="33.840145">
<ele>110.688538</ele>
<time>2011-10-10T07:31:37Z</time>
<desc>lat.=44.727116, lon.=33.840145, Alt.=110.688538m. Speed=0.216000m/h.</desc>
<speed>0.060000</speed>
</trkpt>
<trkpt lat="44.727116" lon="33.840145">
<ele>110.717834</ele>
<time>2011-10-10T07:31:42Z</time>
<desc>lat.=44.727116, lon.=33.840145, Alt.=110.717834m. Speed=0.180000m/h.</desc>
<speed>0.050000</speed>
</trkpt>
<trkpt lat="44.727116" lon="33.840145">
<ele>110.745178</ele>
<time>2011-10-10T07:31:47Z</time>
<desc>lat.=44.727116, lon.=33.840145, Alt.=110.745178m. Speed=0.072000m/h.</desc>
<speed>0.020000</speed>
</trkpt>
<trkpt lat="44.727116" lon="33.840145">
<ele>110.768616</ele>
<time>2011-10-10T07:31:52Z</time>
<desc>lat.=44.727116, lon.=33.840145, Alt.=110.768616m. Speed=0.072000m/h.</desc>
<speed>0.020000</speed>
</trkpt>
<trkpt lat="44.727116" lon="33.840145">
<ele>110.788147</ele>
<time>2011-10-10T07:31:57Z</time>
<desc>lat.=44.727116, lon.=33.840145, Alt.=110.788147m. Speed=0.000000m/h.</desc>
<speed>0.000000</speed>
</trkpt>
<trkpt lat="44.727116" lon="33.840145">
<ele>110.815491</ele>
<time>2011-10-10T07:32:02Z</time>
<desc>lat.=44.727116, lon.=33.840145, Alt.=110.815491m. Speed=0.036000m/h.</desc>
<speed>0.010000</speed>
</trkpt>
<trkpt lat="44.727116" lon="33.840149">
<ele>110.844788</ele>
<time>2011-10-10T07:32:07Z</time>
<desc>lat.=44.727116, lon.=33.840149, Alt.=110.844788m. Speed=0.180000m/h.</desc>
<speed>0.050000</speed>
</trkpt>
<trkpt lat="44.727116" lon="33.840149">
<ele>110.872131</ele>
<time>2011-10-10T07:32:12Z</time>
<desc>lat.=44.727116, lon.=33.840149, Alt.=110.872131m. Speed=0.000000m/h.</desc>
<speed>0.000000</speed>
</trkpt>
<trkpt lat="44.727116" lon="33.840149">
<ele>110.895569</ele>
<time>2011-10-10T07:32:17Z</time>
<desc>lat.=44.727116, lon.=33.840149, Alt.=110.895569m. Speed=0.036000m/h.</desc>
<speed>0.010000</speed>
</trkpt>
<trkpt lat="44.727112" lon="33.840164">
<ele>111.971741</ele>
<time>2011-10-10T07:32:22Z</time>
<desc>lat.=44.727112, lon.=33.840164, Alt.=111.971741m. Speed=0.000000m/h.</desc>
<speed>0.000000</speed>
</trkpt>
<trkpt lat="44.727112" lon="33.840179">
<ele>112.975647</ele>
<time>2011-10-10T07:32:27Z</time>
<desc>lat.=44.727112, lon.=33.840179, Alt.=112.975647m. Speed=0.072000m/h.</desc>
<speed>0.020000</speed>
</trkpt>
<trkpt lat="44.727116" lon="33.840199">
<ele>114.229553</ele>
<time>2011-10-10T07:32:32Z</time>
<desc>lat.=44.727116, lon.=33.840199, Alt.=114.229553m. Speed=0.000000m/h.</desc>
<speed>0.000000</speed>
</trkpt>
<trkpt lat="44.727119" lon="33.840202">
<ele>114.795959</ele>
<time>2011-10-10T07:32:37Z</time>
<desc>lat.=44.727119, lon.=33.840202, Alt.=114.795959m. Speed=0.000000m/h.</desc>
<speed>0.000000</speed>
</trkpt>
<trkpt lat="44.727119" lon="33.840199">
<ele>114.913147</ele>
<time>2011-10-10T07:32:42Z</time>
<desc>lat.=44.727119, lon.=33.840199, Alt.=114.913147m. Speed=0.000000m/h.</desc>
<speed>0.000000</speed>
</trkpt>
<trkpt lat="44.727119" lon="33.840199">
<ele>114.999084</ele>
<time>2011-10-10T07:32:47Z</time>
<desc>lat.=44.727119, lon.=33.840199, Alt.=114.999084m. Speed=0.000000m/h.</desc>
<speed>0.000000</speed>
</trkpt>
<trkpt lat="44.727108" lon="33.840214">
<ele>115.585022</ele>
<time>2011-10-10T07:32:52Z</time>
<desc>lat.=44.727108, lon.=33.840214, Alt.=115.585022m. Speed=0.000000m/h.</desc>
<speed>0.000000</speed>
</trkpt>
<trkpt lat="44.727104" lon="33.840225">
<ele>116.124084</ele>
<time>2011-10-10T07:32:57Z</time>
<desc>lat.=44.727104, lon.=33.840225, Alt.=116.124084m. Speed=0.000000m/h.</desc>
<speed>0.000000</speed>
</trkpt>
<trkpt lat="44.727104" lon="33.840229">
<ele>116.204163</ele>
<time>2011-10-10T07:33:02Z</time>
<desc>lat.=44.727104, lon.=33.840229, Alt.=116.204163m. Speed=0.036000m/h.</desc>
<speed>0.010000</speed>
</trkpt>
<trkpt lat="44.727104" lon="33.840229">
<ele>116.217834</ele>
<time>2011-10-10T07:33:07Z</time>
<desc>lat.=44.727104, lon.=33.840229, Alt.=116.217834m. Speed=0.000000m/h.</desc>
<speed>0.000000</speed>
</trkpt>
<trkpt lat="44.727104" lon="33.840229">
<ele>116.274475</ele>
<time>2011-10-10T07:33:12Z</time>
<desc>lat.=44.727104, lon.=33.840229, Alt.=116.274475m. Speed=0.324000m/h.</desc>
<speed>0.090000</speed>
</trkpt>
<trkpt lat="44.727108" lon="33.840233">
<ele>117.266663</ele>
<time>2011-10-10T07:33:17Z</time>
<desc>lat.=44.727108, lon.=33.840233, Alt.=117.266663m. Speed=0.000000m/h.</desc>
<speed>0.000000</speed>
</trkpt>
<trkpt lat="44.727108" lon="33.840233">
<ele>117.258850</ele>
<time>2011-10-10T07:33:22Z</time>
<desc>lat.=44.727108, lon.=33.840233, Alt.=117.258850m. Speed=0.288000m/h.</desc>
<speed>0.080000</speed>
</trkpt>
<trkpt lat="44.727108" lon="33.840233">
<ele>117.307678</ele>
<time>2011-10-10T07:33:27Z</time>
<desc>lat.=44.727108, lon.=33.840233, Alt.=117.307678m. Speed=0.036000m/h.</desc>
<speed>0.010000</speed>
</trkpt>
<trkpt lat="44.727108" lon="33.840233">
<ele>117.335022</ele>
<time>2011-10-10T07:33:32Z</time>
<desc>lat.=44.727108, lon.=33.840233, Alt.=117.335022m. Speed=0.108000m/h.</desc>
<speed>0.030000</speed>
</trkpt>
<trkpt lat="44.727108" lon="33.840233">
<ele>117.370178</ele>
<time>2011-10-10T07:33:37Z</time>
<desc>lat.=44.727108, lon.=33.840233, Alt.=117.370178m. Speed=0.576000m/h.</desc>
<speed>0.160000</speed>
</trkpt>
<trkpt lat="44.727108" lon="33.840237">
<ele>117.301819</ele>
<time>2011-10-10T07:33:42Z</time>
<desc>lat.=44.727108, lon.=33.840237, Alt.=117.301819m. Speed=0.036000m/h.</desc>
<speed>0.010000</speed>
</trkpt>
<trkpt lat="44.727108" lon="33.840233">
<ele>117.325256</ele>
<time>2011-10-10T07:33:47Z</time>
<desc>lat.=44.727108, lon.=33.840233, Alt.=117.325256m. Speed=0.036000m/h.</desc>
<speed>0.010000</speed>
</trkpt>
<trkpt lat="44.727108" lon="33.840233">
<ele>117.342834</ele>
<time>2011-10-10T07:33:52Z</time>
<desc>lat.=44.727108, lon.=33.840233, Alt.=117.342834m. Speed=0.504000m/h.</desc>
<speed>0.140000</speed>
</trkpt>
<trkpt lat="44.727108" lon="33.840221">
<ele>117.358459</ele>
<time>2011-10-10T07:33:57Z</time>
<desc>lat.=44.727108, lon.=33.840221, Alt.=117.358459m. Speed=0.072000m/h.</desc>
<speed>0.020000</speed>
</trkpt>
<trkpt lat="44.727108" lon="33.840221">
<ele>117.360413</ele>
<time>2011-10-10T07:34:02Z</time>
<desc>lat.=44.727108, lon.=33.840221, Alt.=117.360413m. Speed=0.036000m/h.</desc>
<speed>0.010000</speed>
</trkpt>
<trkpt lat="44.727108" lon="33.840221">
<ele>117.362366</ele>
<time>2011-10-10T07:34:07Z</time>
<desc>lat.=44.727108, lon.=33.840221, Alt.=117.362366m. Speed=0.000000m/h.</desc>
<speed>0.000000</speed>
</trkpt>
<trkpt lat="44.727108" lon="33.840221">
<ele>117.372131</ele>
<time>2011-10-10T07:34:12Z</time>
<desc>lat.=44.727108, lon.=33.840221, Alt.=117.372131m. Speed=0.000000m/h.</desc>
<speed>0.000000</speed>
</trkpt>
<trkpt lat="44.727108" lon="33.840221">
<ele>117.377991</ele>
<time>2011-10-10T07:34:17Z</time>
<desc>lat.=44.727108, lon.=33.840221, Alt.=117.377991m. Speed=0.036000m/h.</desc>
<speed>0.010000</speed>
</trkpt>
<trkpt lat="44.727108" lon="33.840221">
<ele>117.379944</ele>
<time>2011-10-10T07:34:22Z</time>
<desc>lat.=44.727108, lon.=33.840221, Alt.=117.379944m. Speed=0.000000m/h.</desc>
<speed>0.000000</speed>
</trkpt>
<trkpt lat="44.727108" lon="33.840221">
<ele>117.395569</ele>
<time>2011-10-10T07:34:27Z</time>
<desc>lat.=44.727108, lon.=33.840221, Alt.=117.395569m. Speed=0.000000m/h.</desc>
<speed>0.000000</speed>
</trkpt>
<trkpt lat="44.727108" lon="33.840221">
<ele>117.411194</ele>
<time>2011-10-10T07:34:32Z</time>
<desc>lat.=44.727108, lon.=33.840221, Alt.=117.411194m. Speed=0.180000m/h.</desc>
<speed>0.050000</speed>
</trkpt>
<trkpt lat="44.727108" lon="33.840221">
<ele>117.417053</ele>
<time>2011-10-10T07:34:37Z</time>
<desc>lat.=44.727108, lon.=33.840221, Alt.=117.417053m. Speed=0.036000m/h.</desc>
<speed>0.010000</speed>
</trkpt>
<trkpt lat="44.727108" lon="33.840221">
<ele>117.420959</ele>
<time>2011-10-10T07:34:42Z</time>
<desc>lat.=44.727108, lon.=33.840221, Alt.=117.420959m. Speed=0.036000m/h.</desc>
<speed>0.010000</speed>
</trkpt>
<trkpt lat="44.727108" lon="33.840221">
<ele>117.434631</ele>
<time>2011-10-10T07:34:47Z</time>
<desc>lat.=44.727108, lon.=33.840221, Alt.=117.434631m. Speed=0.000000m/h.</desc>
<speed>0.000000</speed>
</trkpt>
<trkpt lat="44.727108" lon="33.840221">
<ele>117.442444</ele>
<time>2011-10-10T07:34:52Z</time>
<desc>lat.=44.727108, lon.=33.840221, Alt.=117.442444m. Speed=0.180000m/h.</desc>
<speed>0.050000</speed>
</trkpt>
<trkpt lat="44.727108" lon="33.840221">
<ele>117.460022</ele>
<time>2011-10-10T07:34:57Z</time>
<desc>lat.=44.727108, lon.=33.840221, Alt.=117.460022m. Speed=0.072000m/h.</desc>
<speed>0.020000</speed>
</trkpt>
<trkpt lat="44.727108" lon="33.840221">
<ele>117.487366</ele>
<time>2011-10-10T07:35:02Z</time>
<desc>lat.=44.727108, lon.=33.840221, Alt.=117.487366m. Speed=0.072000m/h.</desc>
<speed>0.020000</speed>
</trkpt>
<trkpt lat="44.727108" lon="33.840221">
<ele>117.522522</ele>
<time>2011-10-10T07:35:07Z</time>
<desc>lat.=44.727108, lon.=33.840221, Alt.=117.522522m. Speed=0.036000m/h.</desc>
<speed>0.010000</speed>
</trkpt>
<trkpt lat="44.727108" lon="33.840221">
<ele>117.544006</ele>
<time>2011-10-10T07:35:12Z</time>
<desc>lat.=44.727108, lon.=33.840221, Alt.=117.544006m. Speed=0.036000m/h.</desc>
<speed>0.010000</speed>
</trkpt>
<trkpt lat="44.727108" lon="33.840221">
<ele>117.563538</ele>
<time>2011-10-10T07:35:17Z</time>
<desc>lat.=44.727108, lon.=33.840221, Alt.=117.563538m. Speed=0.036000m/h.</desc>
<speed>0.010000</speed>
</trkpt>
<trkpt lat="44.727108" lon="33.840225">
<ele>117.622131</ele>
<time>2011-10-10T07:35:22Z</time>
<desc>lat.=44.727108, lon.=33.840225, Alt.=117.622131m. Speed=0.000000m/h.</desc>
<speed>0.000000</speed>
</trkpt>
<trkpt lat="44.727108" lon="33.840225">
<ele>117.639709</ele>
<time>2011-10-10T07:35:27Z</time>
<desc>lat.=44.727108, lon.=33.840225, Alt.=117.639709m. Speed=0.000000m/h.</desc>
<speed>0.000000</speed>
</trkpt>
<trkpt lat="44.727108" lon="33.840221">
<ele>117.663147</ele>
<time>2011-10-10T07:35:32Z</time>
<desc>lat.=44.727108, lon.=33.840221, Alt.=117.663147m. Speed=0.072000m/h.</desc>
<speed>0.020000</speed>
</trkpt>
<trkpt lat="44.727108" lon="33.840221">
<ele>117.676819</ele>
<time>2011-10-10T07:35:37Z</time>
<desc>lat.=44.727108, lon.=33.840221, Alt.=117.676819m. Speed=0.036000m/h.</desc>
<speed>0.010000</speed>
</trkpt>
<trkpt lat="44.727108" lon="33.840221">
<ele>117.702209</ele>
<time>2011-10-10T07:35:42Z</time>
<desc>lat.=44.727108, lon.=33.840221, Alt.=117.702209m. Speed=0.036000m/h.</desc>
<speed>0.010000</speed>
</trkpt>
<trkpt lat="44.727108" lon="33.840221">
<ele>117.737366</ele>
<time>2011-10-10T07:35:47Z</time>
<desc>lat.=44.727108, lon.=33.840221, Alt.=117.737366m. Speed=0.036000m/h.</desc>
<speed>0.010000</speed>
</trkpt>
<trkpt lat="44.727108" lon="33.840221">
<ele>117.817444</ele>
<time>2011-10-10T07:35:52Z</time>
<desc>lat.=44.727108, lon.=33.840221, Alt.=117.817444m. Speed=0.144000m/h.</desc>
<speed>0.040000</speed>
</trkpt>
<trkpt lat="44.727112" lon="33.840221">
<ele>117.717834</ele>
<time>2011-10-10T07:35:57Z</time>
<desc>lat.=44.727112, lon.=33.840221, Alt.=117.717834m. Speed=0.252000m/h.</desc>
<speed>0.070000</speed>
</trkpt>
<trkpt lat="44.727112" lon="33.840221">
<ele>117.719788</ele>
<time>2011-10-10T07:36:02Z</time>
<desc>lat.=44.727112, lon.=33.840221, Alt.=117.719788m. Speed=0.000000m/h.</desc>
<speed>0.000000</speed>
</trkpt>
<trkpt lat="44.727112" lon="33.840221">
<ele>117.729553</ele>
<time>2011-10-10T07:36:07Z</time>
<desc>lat.=44.727112, lon.=33.840221, Alt.=117.729553m. Speed=0.072000m/h.</desc>
<speed>0.020000</speed>
</trkpt>
<trkpt lat="44.727112" lon="33.840221">
<ele>117.741272</ele>
<time>2011-10-10T07:36:12Z</time>
<desc>lat.=44.727112, lon.=33.840221, Alt.=117.741272m. Speed=0.756000m/h.</desc>
<speed>0.210000</speed>
</trkpt>
<trkpt lat="44.727116" lon="33.840252">
<ele>117.643616</ele>
<time>2011-10-10T07:36:17Z</time>
<desc>lat.=44.727116, lon.=33.840252, Alt.=117.643616m. Speed=2.160000m/h.</desc>
<speed>0.600000</speed>
</trkpt>
<trkpt lat="44.727108" lon="33.840263">
<ele>117.004944</ele>
<time>2011-10-10T07:36:22Z</time>
<desc>lat.=44.727108, lon.=33.840263, Alt.=117.004944m. Speed=0.144000m/h.</desc>
<speed>0.040000</speed>
</trkpt>
<trkpt lat="44.727108" lon="33.840263">
<ele>116.661194</ele>
<time>2011-10-10T07:36:27Z</time>
<desc>lat.=44.727108, lon.=33.840263, Alt.=116.661194m. Speed=0.036000m/h.</desc>
<speed>0.010000</speed>
</trkpt>
<trkpt lat="44.727108" lon="33.840263">
<ele>116.616272</ele>
<time>2011-10-10T07:36:32Z</time>
<desc>lat.=44.727108, lon.=33.840263, Alt.=116.616272m. Speed=0.036000m/h.</desc>
<speed>0.010000</speed>
</trkpt>
<trkpt lat="44.727108" lon="33.840263">
<ele>116.608459</ele>
<time>2011-10-10T07:36:37Z</time>
<desc>lat.=44.727108, lon.=33.840263, Alt.=116.608459m. Speed=0.036000m/h.</desc>
<speed>0.010000</speed>
</trkpt>
<trkpt lat="44.727108" lon="33.840267">
<ele>116.622131</ele>
<time>2011-10-10T07:36:42Z</time>
<desc>lat.=44.727108, lon.=33.840267, Alt.=116.622131m. Speed=0.072000m/h.</desc>
<speed>0.020000</speed>
</trkpt>
<trkpt lat="44.727108" lon="33.840267">
<ele>116.629944</ele>
<time>2011-10-10T07:36:47Z</time>
<desc>lat.=44.727108, lon.=33.840267, Alt.=116.629944m. Speed=0.072000m/h.</desc>
<speed>0.020000</speed>
</trkpt>
<trkpt lat="44.727108" lon="33.840267">
<ele>116.631897</ele>
<time>2011-10-10T07:36:52Z</time>
<desc>lat.=44.727108, lon.=33.840267, Alt.=116.631897m. Speed=0.072000m/h.</desc>
<speed>0.020000</speed>
</trkpt>
<trkpt lat="44.727108" lon="33.840267">
<ele>116.624084</ele>
<time>2011-10-10T07:36:57Z</time>
<desc>lat.=44.727108, lon.=33.840267, Alt.=116.624084m. Speed=0.000000m/h.</desc>
<speed>0.000000</speed>
</trkpt>
<trkpt lat="44.727108" lon="33.840267">
<ele>116.620178</ele>
<time>2011-10-10T07:37:02Z</time>
<desc>lat.=44.727108, lon.=33.840267, Alt.=116.620178m. Speed=0.036000m/h.</desc>
<speed>0.010000</speed>
</trkpt>
<trkpt lat="44.727108" lon="33.840267">
<ele>116.606506</ele>
<time>2011-10-10T07:37:07Z</time>
<desc>lat.=44.727108, lon.=33.840267, Alt.=116.606506m. Speed=0.036000m/h.</desc>
<speed>0.010000</speed>
</trkpt>
<trkpt lat="44.727108" lon="33.840267">
<ele>116.585022</ele>
<time>2011-10-10T07:37:12Z</time>
<desc>lat.=44.727108, lon.=33.840267, Alt.=116.585022m. Speed=0.036000m/h.</desc>
<speed>0.010000</speed>
</trkpt>
<trkpt lat="44.727108" lon="33.840267">
<ele>116.569397</ele>
<time>2011-10-10T07:37:17Z</time>
<desc>lat.=44.727108, lon.=33.840267, Alt.=116.569397m. Speed=0.036000m/h.</desc>
<speed>0.010000</speed>
</trkpt>
<trkpt lat="44.727108" lon="33.840267">
<ele>116.575256</ele>
<time>2011-10-10T07:37:22Z</time>
<desc>lat.=44.727108, lon.=33.840267, Alt.=116.575256m. Speed=0.000000m/h.</desc>
<speed>0.000000</speed>
</trkpt>
<trkpt lat="44.727108" lon="33.840267">
<ele>116.575256</ele>
<time>2011-10-10T07:37:27Z</time>
<desc>lat.=44.727108, lon.=33.840267, Alt.=116.575256m. Speed=0.000000m/h.</desc>
<speed>0.000000</speed>
</trkpt>
<trkpt lat="44.727108" lon="33.840267">
<ele>116.608459</ele>
<time>2011-10-10T07:37:32Z</time>
<desc>lat.=44.727108, lon.=33.840267, Alt.=116.608459m. Speed=0.000000m/h.</desc>
<speed>0.000000</speed>
</trkpt>
<trkpt lat="44.727104" lon="33.840267">
<ele>116.637756</ele>
<time>2011-10-10T07:37:37Z</time>
<desc>lat.=44.727104, lon.=33.840267, Alt.=116.637756m. Speed=0.000000m/h.</desc>
<speed>0.000000</speed>
</trkpt>
<trkpt lat="44.727104" lon="33.840267">
<ele>116.647522</ele>
<time>2011-10-10T07:37:42Z</time>
<desc>lat.=44.727104, lon.=33.840267, Alt.=116.647522m. Speed=0.036000m/h.</desc>
<speed>0.010000</speed>
</trkpt>
<trkpt lat="44.727104" lon="33.840267">
<ele>116.657288</ele>
<time>2011-10-10T07:37:47Z</time>
<desc>lat.=44.727104, lon.=33.840267, Alt.=116.657288m. Speed=0.000000m/h.</desc>
<speed>0.000000</speed>
</trkpt>
<trkpt lat="44.727104" lon="33.840267">
<ele>116.669006</ele>
<time>2011-10-10T07:37:52Z</time>
<desc>lat.=44.727104, lon.=33.840267, Alt.=116.669006m. Speed=0.072000m/h.</desc>
<speed>0.020000</speed>
</trkpt>
<trkpt lat="44.727104" lon="33.840267">
<ele>116.690491</ele>
<time>2011-10-10T07:37:57Z</time>
<desc>lat.=44.727104, lon.=33.840267, Alt.=116.690491m. Speed=0.036000m/h.</desc>
<speed>0.010000</speed>
</trkpt>
<trkpt lat="44.727104" lon="33.840271">
<ele>116.719788</ele>
<time>2011-10-10T07:38:02Z</time>
<desc>lat.=44.727104, lon.=33.840271, Alt.=116.719788m. Speed=0.000000m/h.</desc>
<speed>0.000000</speed>
</trkpt>
<trkpt lat="44.727104" lon="33.840271">
<ele>116.729553</ele>
<time>2011-10-10T07:38:07Z</time>
<desc>lat.=44.727104, lon.=33.840271, Alt.=116.729553m. Speed=0.036000m/h.</desc>
<speed>0.010000</speed>
</trkpt>
<trkpt lat="44.727104" lon="33.840271">
<ele>116.754944</ele>
<time>2011-10-10T07:38:12Z</time>
<desc>lat.=44.727104, lon.=33.840271, Alt.=116.754944m. Speed=0.072000m/h.</desc>
<speed>0.020000</speed>
</trkpt>
<trkpt lat="44.727104" lon="33.840271">
<ele>116.768616</ele>
<time>2011-10-10T07:38:17Z</time>
<desc>lat.=44.727104, lon.=33.840271, Alt.=116.768616m. Speed=0.000000m/h.</desc>
<speed>0.000000</speed>
</trkpt>
<trkpt lat="44.727104" lon="33.840271">
<ele>116.788147</ele>
<time>2011-10-10T07:38:22Z</time>
<desc>lat.=44.727104, lon.=33.840271, Alt.=116.788147m. Speed=0.000000m/h.</desc>
<speed>0.000000</speed>
</trkpt>
<trkpt lat="44.727104" lon="33.840271">
<ele>116.805725</ele>
<time>2011-10-10T07:38:27Z</time>
<desc>lat.=44.727104, lon.=33.840271, Alt.=116.805725m. Speed=0.036000m/h.</desc>
<speed>0.010000</speed>
</trkpt>
<trkpt lat="44.727104" lon="33.840271">
<ele>116.819397</ele>
<time>2011-10-10T07:38:32Z</time>
<desc>lat.=44.727104, lon.=33.840271, Alt.=116.819397m. Speed=0.000000m/h.</desc>
<speed>0.000000</speed>
</trkpt>
<trkpt lat="44.727104" lon="33.840271">
<ele>116.846741</ele>
<time>2011-10-10T07:38:37Z</time>
<desc>lat.=44.727104, lon.=33.840271, Alt.=116.846741m. Speed=0.000000m/h.</desc>
<speed>0.000000</speed>
</trkpt>
<trkpt lat="44.727104" lon="33.840271">
<ele>116.864319</ele>
<time>2011-10-10T07:38:42Z</time>
<desc>lat.=44.727104, lon.=33.840271, Alt.=116.864319m. Speed=0.036000m/h.</desc>
<speed>0.010000</speed>
</trkpt>
<trkpt lat="44.727104" lon="33.840271">
<ele>116.883850</ele>
<time>2011-10-10T07:38:47Z</time>
<desc>lat.=44.727104, lon.=33.840271, Alt.=116.883850m. Speed=0.036000m/h.</desc>
<speed>0.010000</speed>
</trkpt>
<trkpt lat="44.727104" lon="33.840271">
<ele>116.936584</ele>
<time>2011-10-10T07:38:52Z</time>
<desc>lat.=44.727104, lon.=33.840271, Alt.=116.936584m. Speed=0.108000m/h.</desc>
<speed>0.030000</speed>
</trkpt>
<trkpt lat="44.727104" lon="33.840271">
<ele>116.995178</ele>
<time>2011-10-10T07:38:57Z</time>
<desc>lat.=44.727104, lon.=33.840271, Alt.=116.995178m. Speed=0.072000m/h.</desc>
<speed>0.020000</speed>
</trkpt>
<trkpt lat="44.727104" lon="33.840271">
<ele>117.026428</ele>
<time>2011-10-10T07:39:02Z</time>
<desc>lat.=44.727104, lon.=33.840271, Alt.=117.026428m. Speed=0.072000m/h.</desc>
<speed>0.020000</speed>
</trkpt>
<trkpt lat="44.727104" lon="33.840271">
<ele>117.073303</ele>
<time>2011-10-10T07:39:07Z</time>
<desc>lat.=44.727104, lon.=33.840271, Alt.=117.073303m. Speed=0.036000m/h.</desc>
<speed>0.010000</speed>
</trkpt>
<trkpt lat="44.727104" lon="33.840271">
<ele>117.069397</ele>
<time>2011-10-10T07:39:12Z</time>
<desc>lat.=44.727104, lon.=33.840271, Alt.=117.069397m. Speed=0.072000m/h.</desc>
<speed>0.020000</speed>
</trkpt>
<trkpt lat="44.727104" lon="33.840271">
<ele>117.086975</ele>
<time>2011-10-10T07:39:17Z</time>
<desc>lat.=44.727104, lon.=33.840271, Alt.=117.086975m. Speed=0.036000m/h.</desc>
<speed>0.010000</speed>
</trkpt>
<trkpt lat="44.727104" lon="33.840271">
<ele>117.149475</ele>
<time>2011-10-10T07:39:22Z</time>
<desc>lat.=44.727104, lon.=33.840271, Alt.=117.149475m. Speed=0.000000m/h.</desc>
<speed>0.000000</speed>
</trkpt>
<trkpt lat="44.727104" lon="33.840271">
<ele>117.137756</ele>
<time>2011-10-10T07:39:27Z</time>
<desc>lat.=44.727104, lon.=33.840271, Alt.=117.137756m. Speed=0.036000m/h.</desc>
<speed>0.010000</speed>
</trkpt>
<trkpt lat="44.727104" lon="33.840271">
<ele>117.143616</ele>
<time>2011-10-10T07:39:32Z</time>
<desc>lat.=44.727104, lon.=33.840271, Alt.=117.143616m. Speed=0.432000m/h.</desc>
<speed>0.120000</speed>
</trkpt>
<trkpt lat="44.727119" lon="33.840328">
<ele>117.963928</ele>
<time>2011-10-10T07:39:37Z</time>
<desc>lat.=44.727119, lon.=33.840328, Alt.=117.963928m. Speed=7.164000m/h.</desc>
<speed>1.990000</speed>
</trkpt>
<trkpt lat="44.727165" lon="33.840420">
<ele>118.731506</ele>
<time>2011-10-10T07:39:42Z</time>
<desc>lat.=44.727165, lon.=33.840420, Alt.=118.731506m. Speed=4.248000m/h.</desc>
<speed>1.180000</speed>
</trkpt>
<trkpt lat="44.727226" lon="33.840466">
<ele>118.504944</ele>
<time>2011-10-10T07:39:47Z</time>
<desc>lat.=44.727226, lon.=33.840466, Alt.=118.504944m. Speed=8.136000m/h.</desc>
<speed>2.260000</speed>
</trkpt>
<trkpt lat="44.727318" lon="33.840576">
<ele>118.895569</ele>
<time>2011-10-10T07:39:52Z</time>
<desc>lat.=44.727318, lon.=33.840576, Alt.=118.895569m. Speed=9.864000m/h.</desc>
<speed>2.740000</speed>
</trkpt>
<trkpt lat="44.727421" lon="33.840721">
<ele>118.540100</ele>
<time>2011-10-10T07:39:57Z</time>
<desc>lat.=44.727421, lon.=33.840721, Alt.=118.540100m. Speed=11.952000m/h.</desc>
<speed>3.320000</speed>
</trkpt>
<trkpt lat="44.727524" lon="33.840862">
<ele>117.333069</ele>
<time>2011-10-10T07:40:02Z</time>
<desc>lat.=44.727524, lon.=33.840862, Alt.=117.333069m. Speed=11.880000m/h.</desc>
<speed>3.300000</speed>
</trkpt>
<trkpt lat="44.727654" lon="33.841007">
<ele>117.608459</ele>
<time>2011-10-10T07:40:07Z</time>
<desc>lat.=44.727654, lon.=33.841007, Alt.=117.608459m. Speed=12.960000m/h.</desc>
<speed>3.600000</speed>
</trkpt>
<trkpt lat="44.727768" lon="33.841164">
<ele>117.920959</ele>
<time>2011-10-10T07:40:12Z</time>
<desc>lat.=44.727768, lon.=33.841164, Alt.=117.920959m. Speed=11.124000m/h.</desc>
<speed>3.090000</speed>
</trkpt>
<trkpt lat="44.727856" lon="33.841293">
<ele>115.247131</ele>
<time>2011-10-10T07:40:17Z</time>
<desc>lat.=44.727856, lon.=33.841293, Alt.=115.247131m. Speed=10.368000m/h.</desc>
<speed>2.880000</speed>
</trkpt>
<trkpt lat="44.727962" lon="33.841404">
<ele>114.727600</ele>
<time>2011-10-10T07:40:22Z</time>
<desc>lat.=44.727962, lon.=33.841404, Alt.=114.727600m. Speed=10.800000m/h.</desc>
<speed>3.000000</speed>
</trkpt>
<trkpt lat="44.728020" lon="33.841545">
<ele>117.688538</ele>
<time>2011-10-10T07:40:27Z</time>
<desc>lat.=44.728020, lon.=33.841545, Alt.=117.688538m. Speed=9.432000m/h.</desc>
<speed>2.620000</speed>
</trkpt>
<trkpt lat="44.728031" lon="33.841743">
<ele>119.155334</ele>
<time>2011-10-10T07:40:32Z</time>
<desc>lat.=44.728031, lon.=33.841743, Alt.=119.155334m. Speed=11.988000m/h.</desc>
<speed>3.330000</speed>
</trkpt>
<trkpt lat="44.728085" lon="33.841976">
<ele>122.051819</ele>
<time>2011-10-10T07:40:37Z</time>
<desc>lat.=44.728085, lon.=33.841976, Alt.=122.051819m. Speed=13.716000m/h.</desc>
<speed>3.810000</speed>
</trkpt>
<trkpt lat="44.728100" lon="33.842300">
<ele>121.376038</ele>
<time>2011-10-10T07:40:42Z</time>
<desc>lat.=44.728100, lon.=33.842300, Alt.=121.376038m. Speed=12.636000m/h.</desc>
<speed>3.510000</speed>
</trkpt>
<trkpt lat="44.728142" lon="33.842522">
<ele>121.303772</ele>
<time>2011-10-10T07:40:47Z</time>
<desc>lat.=44.728142, lon.=33.842522, Alt.=121.303772m. Speed=11.412000m/h.</desc>
<speed>3.170000</speed>
</trkpt>
<trkpt lat="44.728252" lon="33.842686">
<ele>124.913147</ele>
<time>2011-10-10T07:40:52Z</time>
<desc>lat.=44.728252, lon.=33.842686, Alt.=124.913147m. Speed=11.196000m/h.</desc>
<speed>3.110000</speed>
</trkpt>
<trkpt lat="44.728329" lon="33.842884">
<ele>125.290100</ele>
<time>2011-10-10T07:40:57Z</time>
<desc>lat.=44.728329, lon.=33.842884, Alt.=125.290100m. Speed=11.592000m/h.</desc>
<speed>3.220000</speed>
</trkpt>
<trkpt lat="44.728367" lon="33.843098">
<ele>126.063538</ele>
<time>2011-10-10T07:41:02Z</time>
<desc>lat.=44.728367, lon.=33.843098, Alt.=126.063538m. Speed=12.204000m/h.</desc>
<speed>3.390000</speed>
</trkpt>
<trkpt lat="44.728363" lon="33.843311">
<ele>127.624084</ele>
<time>2011-10-10T07:41:07Z</time>
<desc>lat.=44.728363, lon.=33.843311, Alt.=127.624084m. Speed=11.952000m/h.</desc>
<speed>3.320000</speed>
</trkpt>
<trkpt lat="44.728382" lon="33.843529">
<ele>125.833069</ele>
<time>2011-10-10T07:41:12Z</time>
<desc>lat.=44.728382, lon.=33.843529, Alt.=125.833069m. Speed=11.700000m/h.</desc>
<speed>3.250000</speed>
</trkpt>
<trkpt lat="44.728420" lon="33.843746">
<ele>126.004944</ele>
<time>2011-10-10T07:41:17Z</time>
<desc>lat.=44.728420, lon.=33.843746, Alt.=126.004944m. Speed=13.104000m/h.</desc>
<speed>3.640000</speed>
</trkpt>
<trkpt lat="44.728455" lon="33.843960">
<ele>126.485413</ele>
<time>2011-10-10T07:41:22Z</time>
<desc>lat.=44.728455, lon.=33.843960, Alt.=126.485413m. Speed=12.528000m/h.</desc>
<speed>3.480000</speed>
</trkpt>
<trkpt lat="44.728485" lon="33.844181">
<ele>127.606506</ele>
<time>2011-10-10T07:41:27Z</time>
<desc>lat.=44.728485, lon.=33.844181, Alt.=127.606506m. Speed=12.240000m/h.</desc>
<speed>3.400000</speed>
</trkpt>
<trkpt lat="44.728516" lon="33.844402">
<ele>129.912231</ele>
<time>2011-10-10T07:41:32Z</time>
<desc>lat.=44.728516, lon.=33.844402, Alt.=129.912231m. Speed=11.484000m/h.</desc>
<speed>3.190000</speed>
</trkpt>
<trkpt lat="44.728527" lon="33.844627">
<ele>131.115356</ele>
<time>2011-10-10T07:41:37Z</time>
<desc>lat.=44.728527, lon.=33.844627, Alt.=131.115356m. Speed=13.248000m/h.</desc>
<speed>3.680000</speed>
</trkpt>
<trkpt lat="44.728508" lon="33.844845">
<ele>131.029419</ele>
<time>2011-10-10T07:41:42Z</time>
<desc>lat.=44.728508, lon.=33.844845, Alt.=131.029419m. Speed=13.140000m/h.</desc>
<speed>3.650000</speed>
</trkpt>
<trkpt lat="44.728462" lon="33.845074">
<ele>130.545044</ele>
<time>2011-10-10T07:41:47Z</time>
<desc>lat.=44.728462, lon.=33.845074, Alt.=130.545044m. Speed=12.708000m/h.</desc>
<speed>3.530000</speed>
</trkpt>
<trkpt lat="44.728413" lon="33.845291">
<ele>130.724731</ele>
<time>2011-10-10T07:41:52Z</time>
<desc>lat.=44.728413, lon.=33.845291, Alt.=130.724731m. Speed=12.672000m/h.</desc>
<speed>3.520000</speed>
</trkpt>
<trkpt lat="44.728363" lon="33.845486">
<ele>130.927856</ele>
<time>2011-10-10T07:41:57Z</time>
<desc>lat.=44.728363, lon.=33.845486, Alt.=130.927856m. Speed=10.728000m/h.</desc>
<speed>2.980000</speed>
</trkpt>
<trkpt lat="44.728321" lon="33.845688">
<ele>131.611450</ele>
<time>2011-10-10T07:42:02Z</time>
<desc>lat.=44.728321, lon.=33.845688, Alt.=131.611450m. Speed=14.508000m/h.</desc>
<speed>4.030000</speed>
</trkpt>
<trkpt lat="44.728344" lon="33.845921">
<ele>132.884888</ele>
<time>2011-10-10T07:42:07Z</time>
<desc>lat.=44.728344, lon.=33.845921, Alt.=132.884888m. Speed=12.384000m/h.</desc>
<speed>3.440000</speed>
</trkpt>
<trkpt lat="44.728371" lon="33.846142">
<ele>132.943481</ele>
<time>2011-10-10T07:42:12Z</time>
<desc>lat.=44.728371, lon.=33.846142, Alt.=132.943481m. Speed=12.096000m/h.</desc>
<speed>3.360000</speed>
</trkpt>
<trkpt lat="44.728416" lon="33.846344">
<ele>131.693481</ele>
<time>2011-10-10T07:42:17Z</time>
<desc>lat.=44.728416, lon.=33.846344, Alt.=131.693481m. Speed=12.240000m/h.</desc>
<speed>3.400000</speed>
</trkpt>
<trkpt lat="44.728474" lon="33.846527">
<ele>131.064575</ele>
<time>2011-10-10T07:42:22Z</time>
<desc>lat.=44.728474, lon.=33.846527, Alt.=131.064575m. Speed=9.900000m/h.</desc>
<speed>2.750000</speed>
</trkpt>
<trkpt lat="44.728519" lon="33.846680">
<ele>131.220825</ele>
<time>2011-10-10T07:42:27Z</time>
<desc>lat.=44.728519, lon.=33.846680, Alt.=131.220825m. Speed=10.332000m/h.</desc>
<speed>2.870000</speed>
</trkpt>
<trkpt lat="44.728577" lon="33.846798">
<ele>132.142700</ele>
<time>2011-10-10T07:42:32Z</time>
<desc>lat.=44.728577, lon.=33.846798, Alt.=132.142700m. Speed=5.544000m/h.</desc>
<speed>1.540000</speed>
</trkpt>
<trkpt lat="44.728672" lon="33.846859">
<ele>133.220825</ele>
<time>2011-10-10T07:42:37Z</time>
<desc>lat.=44.728672, lon.=33.846859, Alt.=133.220825m. Speed=10.008000m/h.</desc>
<speed>2.780000</speed>
</trkpt>
<trkpt lat="44.728790" lon="33.846905">
<ele>133.298950</ele>
<time>2011-10-10T07:42:42Z</time>
<desc>lat.=44.728790, lon.=33.846905, Alt.=133.298950m. Speed=10.152000m/h.</desc>
<speed>2.820000</speed>
</trkpt>
<trkpt lat="44.728916" lon="33.846920">
<ele>134.982544</ele>
<time>2011-10-10T07:42:47Z</time>
<desc>lat.=44.728916, lon.=33.846920, Alt.=134.982544m. Speed=8.352000m/h.</desc>
<speed>2.320000</speed>
</trkpt>
<trkpt lat="44.729023" lon="33.846928">
<ele>136.283325</ele>
<time>2011-10-10T07:42:52Z</time>
<desc>lat.=44.729023, lon.=33.846928, Alt.=136.283325m. Speed=10.116000m/h.</desc>
<speed>2.810000</speed>
</trkpt>
<trkpt lat="44.729149" lon="33.846931">
<ele>136.298950</ele>
<time>2011-10-10T07:42:57Z</time>
<desc>lat.=44.729149, lon.=33.846931, Alt.=136.298950m. Speed=10.296000m/h.</desc>
<speed>2.860000</speed>
</trkpt>
<trkpt lat="44.729305" lon="33.846947">
<ele>136.498169</ele>
<time>2011-10-10T07:43:02Z</time>
<desc>lat.=44.729305, lon.=33.846947, Alt.=136.498169m. Speed=12.888000m/h.</desc>
<speed>3.580000</speed>
</trkpt>
<trkpt lat="44.729454" lon="33.846966">
<ele>136.670044</ele>
<time>2011-10-10T07:43:07Z</time>
<desc>lat.=44.729454, lon.=33.846966, Alt.=136.670044m. Speed=7.776000m/h.</desc>
<speed>2.160000</speed>
</trkpt>
<trkpt lat="44.729542" lon="33.846977">
<ele>136.548950</ele>
<time>2011-10-10T07:43:12Z</time>
<desc>lat.=44.729542, lon.=33.846977, Alt.=136.548950m. Speed=7.668000m/h.</desc>
<speed>2.130000</speed>
</trkpt>
<trkpt lat="44.729637" lon="33.847008">
<ele>136.365356</ele>
<time>2011-10-10T07:43:17Z</time>
<desc>lat.=44.729637, lon.=33.847008, Alt.=136.365356m. Speed=8.316000m/h.</desc>
<speed>2.310000</speed>
</trkpt>
<trkpt lat="44.729759" lon="33.847027">
<ele>136.045044</ele>
<time>2011-10-10T07:43:22Z</time>
<desc>lat.=44.729759, lon.=33.847027, Alt.=136.045044m. Speed=10.800000m/h.</desc>
<speed>3.000000</speed>
</trkpt>
<trkpt lat="44.729885" lon="33.847031">
<ele>135.224731</ele>
<time>2011-10-10T07:43:27Z</time>
<desc>lat.=44.729885, lon.=33.847031, Alt.=135.224731m. Speed=10.584000m/h.</desc>
<speed>2.940000</speed>
</trkpt>
<trkpt lat="44.730026" lon="33.847042">
<ele>134.892700</ele>
<time>2011-10-10T07:43:32Z</time>
<desc>lat.=44.730026, lon.=33.847042, Alt.=134.892700m. Speed=10.692000m/h.</desc>
<speed>2.970000</speed>
</trkpt>
<trkpt lat="44.730122" lon="33.847061">
<ele>134.447388</ele>
<time>2011-10-10T07:43:37Z</time>
<desc>lat.=44.730122, lon.=33.847061, Alt.=134.447388m. Speed=7.020000m/h.</desc>
<speed>1.950000</speed>
</trkpt>
<trkpt lat="44.730232" lon="33.847069">
<ele>134.420044</ele>
<time>2011-10-10T07:43:42Z</time>
<desc>lat.=44.730232, lon.=33.847069, Alt.=134.420044m. Speed=10.476000m/h.</desc>
<speed>2.910000</speed>
</trkpt>
<trkpt lat="44.730293" lon="33.847092">
<ele>134.123169</ele>
<time>2011-10-10T07:43:47Z</time>
<desc>lat.=44.730293, lon.=33.847092, Alt.=134.123169m. Speed=0.216000m/h.</desc>
<speed>0.060000</speed>
</trkpt>
<trkpt lat="44.730293" lon="33.847095">
<ele>134.045044</ele>
<time>2011-10-10T07:43:52Z</time>
<desc>lat.=44.730293, lon.=33.847095, Alt.=134.045044m. Speed=0.216000m/h.</desc>
<speed>0.060000</speed>
</trkpt>
<trkpt lat="44.730293" lon="33.847095">
<ele>134.068481</ele>
<time>2011-10-10T07:43:57Z</time>
<desc>lat.=44.730293, lon.=33.847095, Alt.=134.068481m. Speed=0.108000m/h.</desc>
<speed>0.030000</speed>
</trkpt>
<trkpt lat="44.730293" lon="33.847095">
<ele>134.013794</ele>
<time>2011-10-10T07:44:02Z</time>
<desc>lat.=44.730293, lon.=33.847095, Alt.=134.013794m. Speed=0.540000m/h.</desc>
<speed>0.150000</speed>
</trkpt>
<trkpt lat="44.730293" lon="33.847095">
<ele>134.013794</ele>
<time>2011-10-10T07:44:07Z</time>
<desc>lat.=44.730293, lon.=33.847095, Alt.=134.013794m. Speed=0.108000m/h.</desc>
<speed>0.030000</speed>
</trkpt>
<trkpt lat="44.730293" lon="33.847099">
<ele>133.986450</ele>
<time>2011-10-10T07:44:12Z</time>
<desc>lat.=44.730293, lon.=33.847099, Alt.=133.986450m. Speed=0.000000m/h.</desc>
<speed>0.000000</speed>
</trkpt>
<trkpt lat="44.730293" lon="33.847099">
<ele>133.974731</ele>
<time>2011-10-10T07:44:17Z</time>
<desc>lat.=44.730293, lon.=33.847099, Alt.=133.974731m. Speed=0.000000m/h.</desc>
<speed>0.000000</speed>
</trkpt>
<trkpt lat="44.730293" lon="33.847099">
<ele>134.021606</ele>
<time>2011-10-10T07:44:22Z</time>
<desc>lat.=44.730293, lon.=33.847099, Alt.=134.021606m. Speed=0.000000m/h.</desc>
<speed>0.000000</speed>
</trkpt>
<trkpt lat="44.730293" lon="33.847099">
<ele>134.025513</ele>
<time>2011-10-10T07:44:27Z</time>
<desc>lat.=44.730293, lon.=33.847099, Alt.=134.025513m. Speed=0.036000m/h.</desc>
<speed>0.010000</speed>
</trkpt>
<trkpt lat="44.730293" lon="33.847099">
<ele>134.017700</ele>
<time>2011-10-10T07:44:32Z</time>
<desc>lat.=44.730293, lon.=33.847099, Alt.=134.017700m. Speed=0.036000m/h.</desc>
<speed>0.010000</speed>
</trkpt>
<trkpt lat="44.730293" lon="33.847099">
<ele>134.025513</ele>
<time>2011-10-10T07:44:37Z</time>
<desc>lat.=44.730293, lon.=33.847099, Alt.=134.025513m. Speed=0.324000m/h.</desc>
<speed>0.090000</speed>
</trkpt>
<trkpt lat="44.730293" lon="33.847103">
<ele>134.177856</ele>
<time>2011-10-10T07:44:42Z</time>
<desc>lat.=44.730293, lon.=33.847103, Alt.=134.177856m. Speed=0.072000m/h.</desc>
<speed>0.020000</speed>
</trkpt>
<trkpt lat="44.730293" lon="33.847103">
<ele>134.170044</ele>
<time>2011-10-10T07:44:47Z</time>
<desc>lat.=44.730293, lon.=33.847103, Alt.=134.170044m. Speed=0.000000m/h.</desc>
<speed>0.000000</speed>
</trkpt>
<trkpt lat="44.730293" lon="33.847103">
<ele>134.170044</ele>
<time>2011-10-10T07:44:52Z</time>
<desc>lat.=44.730293, lon.=33.847103, Alt.=134.170044m. Speed=0.216000m/h.</desc>
<speed>0.060000</speed>
</trkpt>
<trkpt lat="44.730293" lon="33.847103">
<ele>134.162231</ele>
<time>2011-10-10T07:44:57Z</time>
<desc>lat.=44.730293, lon.=33.847103, Alt.=134.162231m. Speed=0.072000m/h.</desc>
<speed>0.020000</speed>
</trkpt>
<trkpt lat="44.730293" lon="33.847099">
<ele>134.154419</ele>
<time>2011-10-10T07:45:02Z</time>
<desc>lat.=44.730293, lon.=33.847099, Alt.=134.154419m. Speed=0.144000m/h.</desc>
<speed>0.040000</speed>
</trkpt>
<trkpt lat="44.730293" lon="33.847103">
<ele>134.138794</ele>
<time>2011-10-10T07:45:07Z</time>
<desc>lat.=44.730293, lon.=33.847103, Alt.=134.138794m. Speed=0.216000m/h.</desc>
<speed>0.060000</speed>
</trkpt>
<trkpt lat="44.730293" lon="33.847103">
<ele>134.107544</ele>
<time>2011-10-10T07:45:12Z</time>
<desc>lat.=44.730293, lon.=33.847103, Alt.=134.107544m. Speed=0.072000m/h.</desc>
<speed>0.020000</speed>
</trkpt>
<trkpt lat="44.730293" lon="33.847103">
<ele>134.095825</ele>
<time>2011-10-10T07:45:17Z</time>
<desc>lat.=44.730293, lon.=33.847103, Alt.=134.095825m. Speed=0.036000m/h.</desc>
<speed>0.010000</speed>
</trkpt>
<trkpt lat="44.730293" lon="33.847103">
<ele>134.142700</ele>
<time>2011-10-10T07:45:22Z</time>
<desc>lat.=44.730293, lon.=33.847103, Alt.=134.142700m. Speed=0.108000m/h.</desc>
<speed>0.030000</speed>
</trkpt>
<trkpt lat="44.730293" lon="33.847103">
<ele>134.154419</ele>
<time>2011-10-10T07:45:27Z</time>
<desc>lat.=44.730293, lon.=33.847103, Alt.=134.154419m. Speed=0.072000m/h.</desc>
<speed>0.020000</speed>
</trkpt>
<trkpt lat="44.730293" lon="33.847103">
<ele>134.158325</ele>
<time>2011-10-10T07:45:32Z</time>
<desc>lat.=44.730293, lon.=33.847103, Alt.=134.158325m. Speed=0.072000m/h.</desc>
<speed>0.020000</speed>
</trkpt>
<trkpt lat="44.730293" lon="33.847103">
<ele>134.162231</ele>
<time>2011-10-10T07:45:37Z</time>
<desc>lat.=44.730293, lon.=33.847103, Alt.=134.162231m. Speed=0.000000m/h.</desc>
<speed>0.000000</speed>
</trkpt>
<trkpt lat="44.730293" lon="33.847103">
<ele>134.162231</ele>
<time>2011-10-10T07:45:42Z</time>
<desc>lat.=44.730293, lon.=33.847103, Alt.=134.162231m. Speed=0.000000m/h.</desc>
<speed>0.000000</speed>
</trkpt>
<trkpt lat="44.730293" lon="33.847103">
<ele>134.173950</ele>
<time>2011-10-10T07:45:47Z</time>
<desc>lat.=44.730293, lon.=33.847103, Alt.=134.173950m. Speed=0.036000m/h.</desc>
<speed>0.010000</speed>
</trkpt>
<trkpt lat="44.730297" lon="33.847103">
<ele>134.173950</ele>
<time>2011-10-10T07:45:52Z</time>
<desc>lat.=44.730297, lon.=33.847103, Alt.=134.173950m. Speed=2.772000m/h.</desc>
<speed>0.770000</speed>
</trkpt>
<trkpt lat="44.730301" lon="33.847065">
<ele>134.228638</ele>
<time>2011-10-10T07:45:57Z</time>
<desc>lat.=44.730301, lon.=33.847065, Alt.=134.228638m. Speed=11.664000m/h.</desc>
<speed>3.240000</speed>
</trkpt>
<trkpt lat="44.730160" lon="33.847019">
<ele>134.869263</ele>
<time>2011-10-10T07:46:02Z</time>
<desc>lat.=44.730160, lon.=33.847019, Alt.=134.869263m. Speed=13.320000m/h.</desc>
<speed>3.700000</speed>
</trkpt>
<trkpt lat="44.729961" lon="33.846973">
<ele>135.091919</ele>
<time>2011-10-10T07:46:07Z</time>
<desc>lat.=44.729961, lon.=33.846973, Alt.=135.091919m. Speed=13.896000m/h.</desc>
<speed>3.860000</speed>
</trkpt>
<trkpt lat="44.729786" lon="33.846943">
<ele>135.775513</ele>
<time>2011-10-10T07:46:12Z</time>
<desc>lat.=44.729786, lon.=33.846943, Alt.=135.775513m. Speed=14.076000m/h.</desc>
<speed>3.910000</speed>
</trkpt>
<trkpt lat="44.729603" lon="33.846916">
<ele>135.259888</ele>
<time>2011-10-10T07:46:17Z</time>
<desc>lat.=44.729603, lon.=33.846916, Alt.=135.259888m. Speed=14.616000m/h.</desc>
<speed>4.060000</speed>
</trkpt>
<trkpt lat="44.729431" lon="33.846897">
<ele>134.181763</ele>
<time>2011-10-10T07:46:22Z</time>
<desc>lat.=44.729431, lon.=33.846897, Alt.=134.181763m. Speed=12.204000m/h.</desc>
<speed>3.390000</speed>
</trkpt>
<trkpt lat="44.729275" lon="33.846870">
<ele>132.970825</ele>
<time>2011-10-10T07:46:27Z</time>
<desc>lat.=44.729275, lon.=33.846870, Alt.=132.970825m. Speed=12.456000m/h.</desc>
<speed>3.460000</speed>
</trkpt>
<trkpt lat="44.729130" lon="33.846817">
<ele>131.787231</ele>
<time>2011-10-10T07:46:32Z</time>
<desc>lat.=44.729130, lon.=33.846817, Alt.=131.787231m. Speed=9.792000m/h.</desc>
<speed>2.720000</speed>
</trkpt>
<trkpt lat="44.729046" lon="33.846832">
<ele>131.537231</ele>
<time>2011-10-10T07:46:37Z</time>
<desc>lat.=44.729046, lon.=33.846832, Alt.=131.537231m. Speed=4.752000m/h.</desc>
<speed>1.320000</speed>
</trkpt>
<trkpt lat="44.729046" lon="33.846909">
<ele>131.052856</ele>
<time>2011-10-10T07:46:42Z</time>
<desc>lat.=44.729046, lon.=33.846909, Alt.=131.052856m. Speed=1.404000m/h.</desc>
<speed>0.390000</speed>
</trkpt>
<trkpt lat="44.729042" lon="33.846897">
<ele>130.728638</ele>
<time>2011-10-10T07:46:47Z</time>
<desc>lat.=44.729042, lon.=33.846897, Alt.=130.728638m. Speed=1.692000m/h.</desc>
<speed>0.470000</speed>
</trkpt>
<trkpt lat="44.729031" lon="33.846909">
<ele>130.205200</ele>
<time>2011-10-10T07:46:52Z</time>
<desc>lat.=44.729031, lon.=33.846909, Alt.=130.205200m. Speed=0.108000m/h.</desc>
<speed>0.030000</speed>
</trkpt>
<trkpt lat="44.729031" lon="33.846912">
<ele>130.162231</ele>
<time>2011-10-10T07:46:57Z</time>
<desc>lat.=44.729031, lon.=33.846912, Alt.=130.162231m. Speed=0.216000m/h.</desc>
<speed>0.060000</speed>
</trkpt>
<trkpt lat="44.729034" lon="33.846905">
<ele>130.142700</ele>
<time>2011-10-10T07:47:02Z</time>
<desc>lat.=44.729034, lon.=33.846905, Alt.=130.142700m. Speed=0.360000m/h.</desc>
<speed>0.100000</speed>
</trkpt>
<trkpt lat="44.729034" lon="33.846901">
<ele>130.134888</ele>
<time>2011-10-10T07:47:07Z</time>
<desc>lat.=44.729034, lon.=33.846901, Alt.=130.134888m. Speed=0.504000m/h.</desc>
<speed>0.140000</speed>
</trkpt>
<trkpt lat="44.729034" lon="33.846897">
<ele>130.130981</ele>
<time>2011-10-10T07:47:12Z</time>
<desc>lat.=44.729034, lon.=33.846897, Alt.=130.130981m. Speed=0.072000m/h.</desc>
<speed>0.020000</speed>
</trkpt>
<trkpt lat="44.729034" lon="33.846893">
<ele>130.142700</ele>
<time>2011-10-10T07:47:17Z</time>
<desc>lat.=44.729034, lon.=33.846893, Alt.=130.142700m. Speed=0.144000m/h.</desc>
<speed>0.040000</speed>
</trkpt>
<trkpt lat="44.729034" lon="33.846897">
<ele>130.127075</ele>
<time>2011-10-10T07:47:22Z</time>
<desc>lat.=44.729034, lon.=33.846897, Alt.=130.127075m. Speed=0.144000m/h.</desc>
<speed>0.040000</speed>
</trkpt>
<trkpt lat="44.729034" lon="33.846901">
<ele>130.111450</ele>
<time>2011-10-10T07:47:27Z</time>
<desc>lat.=44.729034, lon.=33.846901, Alt.=130.111450m. Speed=0.612000m/h.</desc>
<speed>0.170000</speed>
</trkpt>
<trkpt lat="44.729034" lon="33.846909">
<ele>130.072388</ele>
<time>2011-10-10T07:47:32Z</time>
<desc>lat.=44.729034, lon.=33.846909, Alt.=130.072388m. Speed=0.000000m/h.</desc>
<speed>0.000000</speed>
</trkpt>
<trkpt lat="44.729034" lon="33.846909">
<ele>130.080200</ele>
<time>2011-10-10T07:47:37Z</time>
<desc>lat.=44.729034, lon.=33.846909, Alt.=130.080200m. Speed=0.036000m/h.</desc>
<speed>0.010000</speed>
</trkpt>
<trkpt lat="44.729034" lon="33.846909">
<ele>130.080200</ele>
<time>2011-10-10T07:47:42Z</time>
<desc>lat.=44.729034, lon.=33.846909, Alt.=130.080200m. Speed=0.000000m/h.</desc>
<speed>0.000000</speed>
</trkpt>
<trkpt lat="44.729034" lon="33.846909">
<ele>130.084106</ele>
<time>2011-10-10T07:47:47Z</time>
<desc>lat.=44.729034, lon.=33.846909, Alt.=130.084106m. Speed=0.000000m/h.</desc>
<speed>0.000000</speed>
</trkpt>
<trkpt lat="44.729034" lon="33.846909">
<ele>130.091919</ele>
<time>2011-10-10T07:47:52Z</time>
<desc>lat.=44.729034, lon.=33.846909, Alt.=130.091919m. Speed=0.036000m/h.</desc>
<speed>0.010000</speed>
</trkpt>
<trkpt lat="44.729034" lon="33.846909">
<ele>130.095825</ele>
<time>2011-10-10T07:47:57Z</time>
<desc>lat.=44.729034, lon.=33.846909, Alt.=130.095825m. Speed=0.000000m/h.</desc>
<speed>0.000000</speed>
</trkpt>
<trkpt lat="44.729034" lon="33.846912">
<ele>130.095825</ele>
<time>2011-10-10T07:48:02Z</time>
<desc>lat.=44.729034, lon.=33.846912, Alt.=130.095825m. Speed=0.072000m/h.</desc>
<speed>0.020000</speed>
</trkpt>
<trkpt lat="44.729034" lon="33.846912">
<ele>130.099731</ele>
<time>2011-10-10T07:48:07Z</time>
<desc>lat.=44.729034, lon.=33.846912, Alt.=130.099731m. Speed=0.036000m/h.</desc>
<speed>0.010000</speed>
</trkpt>
<trkpt lat="44.729034" lon="33.846912">
<ele>130.103638</ele>
<time>2011-10-10T07:48:12Z</time>
<desc>lat.=44.729034, lon.=33.846912, Alt.=130.103638m. Speed=0.252000m/h.</desc>
<speed>0.070000</speed>
</trkpt>
<trkpt lat="44.729076" lon="33.846905">
<ele>129.884888</ele>
<time>2011-10-10T07:48:17Z</time>
<desc>lat.=44.729076, lon.=33.846905, Alt.=129.884888m. Speed=7.992000m/h.</desc>
<speed>2.220000</speed>
</trkpt>
<trkpt lat="44.729240" lon="33.846931">
<ele>130.263794</ele>
<time>2011-10-10T07:48:22Z</time>
<desc>lat.=44.729240, lon.=33.846931, Alt.=130.263794m. Speed=14.976000m/h.</desc>
<speed>4.160000</speed>
</trkpt>
<trkpt lat="44.729427" lon="33.846958">
<ele>130.341919</ele>
<time>2011-10-10T07:48:27Z</time>
<desc>lat.=44.729427, lon.=33.846958, Alt.=130.341919m. Speed=15.012000m/h.</desc>
<speed>4.170000</speed>
</trkpt>
<trkpt lat="44.729622" lon="33.846985">
<ele>130.638794</ele>
<time>2011-10-10T07:48:32Z</time>
<desc>lat.=44.729622, lon.=33.846985, Alt.=130.638794m. Speed=15.768000m/h.</desc>
<speed>4.380000</speed>
</trkpt>
<trkpt lat="44.729851" lon="33.847023">
<ele>131.435669</ele>
<time>2011-10-10T07:48:37Z</time>
<desc>lat.=44.729851, lon.=33.847023, Alt.=131.435669m. Speed=18.396000m/h.</desc>
<speed>5.110000</speed>
</trkpt>
<trkpt lat="44.730110" lon="33.847065">
<ele>131.349731</ele>
<time>2011-10-10T07:48:42Z</time>
<desc>lat.=44.730110, lon.=33.847065, Alt.=131.349731m. Speed=22.427999m/h.</desc>
<speed>6.230000</speed>
</trkpt>
<trkpt lat="44.730396" lon="33.847088">
<ele>130.951294</ele>
<time>2011-10-10T07:48:47Z</time>
<desc>lat.=44.730396, lon.=33.847088, Alt.=130.951294m. Speed=23.436001m/h.</desc>
<speed>6.510000</speed>
</trkpt>
<trkpt lat="44.730682" lon="33.847126">
<ele>130.662231</ele>
<time>2011-10-10T07:48:52Z</time>
<desc>lat.=44.730682, lon.=33.847126, Alt.=130.662231m. Speed=22.608000m/h.</desc>
<speed>6.280000</speed>
</trkpt>
<trkpt lat="44.730923" lon="33.847153">
<ele>132.033325</ele>
<time>2011-10-10T07:48:57Z</time>
<desc>lat.=44.730923, lon.=33.847153, Alt.=132.033325m. Speed=16.848000m/h.</desc>
<speed>4.680000</speed>
</trkpt>
<trkpt lat="44.731159" lon="33.847198">
<ele>132.420044</ele>
<time>2011-10-10T07:49:02Z</time>
<desc>lat.=44.731159, lon.=33.847198, Alt.=132.420044m. Speed=21.204000m/h.</desc>
<speed>5.890000</speed>
</trkpt>
<trkpt lat="44.731468" lon="33.847240">
<ele>131.560669</ele>
<time>2011-10-10T07:49:07Z</time>
<desc>lat.=44.731468, lon.=33.847240, Alt.=131.560669m. Speed=24.372000m/h.</desc>
<speed>6.770000</speed>
</trkpt>
<trkpt lat="44.731766" lon="33.847290">
<ele>132.892700</ele>
<time>2011-10-10T07:49:12Z</time>
<desc>lat.=44.731766, lon.=33.847290, Alt.=132.892700m. Speed=20.844000m/h.</desc>
<speed>5.790000</speed>
</trkpt>
<trkpt lat="44.732052" lon="33.847324">
<ele>133.173950</ele>
<time>2011-10-10T07:49:17Z</time>
<desc>lat.=44.732052, lon.=33.847324, Alt.=133.173950m. Speed=23.760000m/h.</desc>
<speed>6.600000</speed>
</trkpt>
<trkpt lat="44.732319" lon="33.847378">
<ele>133.427856</ele>
<time>2011-10-10T07:49:22Z</time>
<desc>lat.=44.732319, lon.=33.847378, Alt.=133.427856m. Speed=19.224001m/h.</desc>
<speed>5.340000</speed>
</trkpt>
<trkpt lat="44.732635" lon="33.847393">
<ele>136.240356</ele>
<time>2011-10-10T07:49:27Z</time>
<desc>lat.=44.732635, lon.=33.847393, Alt.=136.240356m. Speed=19.872000m/h.</desc>
<speed>5.520000</speed>
</trkpt>
<trkpt lat="44.732910" lon="33.847412">
<ele>138.318481</ele>
<time>2011-10-10T07:49:32Z</time>
<desc>lat.=44.732910, lon.=33.847412, Alt.=138.318481m. Speed=21.851999m/h.</desc>
<speed>6.070000</speed>
</trkpt>
<trkpt lat="44.733181" lon="33.847446">
<ele>138.091919</ele>
<time>2011-10-10T07:49:37Z</time>
<desc>lat.=44.733181, lon.=33.847446, Alt.=138.091919m. Speed=17.028000m/h.</desc>
<speed>4.730000</speed>
</trkpt>
<trkpt lat="44.733479" lon="33.847492">
<ele>138.127075</ele>
<time>2011-10-10T07:49:42Z</time>
<desc>lat.=44.733479, lon.=33.847492, Alt.=138.127075m. Speed=20.700001m/h.</desc>
<speed>5.750000</speed>
</trkpt>
<trkpt lat="44.733738" lon="33.847519">
<ele>138.209106</ele>
<time>2011-10-10T07:49:47Z</time>
<desc>lat.=44.733738, lon.=33.847519, Alt.=138.209106m. Speed=21.780001m/h.</desc>
<speed>6.050000</speed>
</trkpt>
<trkpt lat="44.733967" lon="33.847542">
<ele>139.037231</ele>
<time>2011-10-10T07:49:52Z</time>
<desc>lat.=44.733967, lon.=33.847542, Alt.=139.037231m. Speed=18.252001m/h.</desc>
<speed>5.070000</speed>
</trkpt>
<trkpt lat="44.734222" lon="33.847591">
<ele>138.752075</ele>
<time>2011-10-10T07:49:57Z</time>
<desc>lat.=44.734222, lon.=33.847591, Alt.=138.752075m. Speed=17.208000m/h.</desc>
<speed>4.780000</speed>
</trkpt>
<trkpt lat="44.734390" lon="33.847599">
<ele>138.681763</ele>
<time>2011-10-10T07:50:02Z</time>
<desc>lat.=44.734390, lon.=33.847599, Alt.=138.681763m. Speed=10.080000m/h.</desc>
<speed>2.800000</speed>
</trkpt>
<trkpt lat="44.734589" lon="33.847492">
<ele>139.509888</ele>
<time>2011-10-10T07:50:07Z</time>
<desc>lat.=44.734589, lon.=33.847492, Alt.=139.509888m. Speed=21.528000m/h.</desc>
<speed>5.980000</speed>
</trkpt>
<trkpt lat="44.734665" lon="33.847164">
<ele>136.154419</ele>
<time>2011-10-10T07:50:12Z</time>
<desc>lat.=44.734665, lon.=33.847164, Alt.=136.154419m. Speed=21.132000m/h.</desc>
<speed>5.870000</speed>
</trkpt>
<trkpt lat="44.734634" lon="33.846764">
<ele>134.670044</ele>
<time>2011-10-10T07:50:17Z</time>
<desc>lat.=44.734634, lon.=33.846764, Alt.=134.670044m. Speed=21.275999m/h.</desc>
<speed>5.910000</speed>
</trkpt>
<trkpt lat="44.734695" lon="33.846458">
<ele>133.912231</ele>
<time>2011-10-10T07:50:22Z</time>
<desc>lat.=44.734695, lon.=33.846458, Alt.=133.912231m. Speed=14.004000m/h.</desc>
<speed>3.890000</speed>
</trkpt>
<trkpt lat="44.734806" lon="33.846218">
<ele>133.287231</ele>
<time>2011-10-10T07:50:27Z</time>
<desc>lat.=44.734806, lon.=33.846218, Alt.=133.287231m. Speed=17.316000m/h.</desc>
<speed>4.810000</speed>
</trkpt>
<trkpt lat="44.734913" lon="33.845959">
<ele>133.498169</ele>
<time>2011-10-10T07:50:32Z</time>
<desc>lat.=44.734913, lon.=33.845959, Alt.=133.498169m. Speed=16.344000m/h.</desc>
<speed>4.540000</speed>
</trkpt>
<trkpt lat="44.735020" lon="33.845707">
<ele>133.037231</ele>
<time>2011-10-10T07:50:37Z</time>
<desc>lat.=44.735020, lon.=33.845707, Alt.=133.037231m. Speed=17.532000m/h.</desc>
<speed>4.870000</speed>
</trkpt>
<trkpt lat="44.735100" lon="33.845474">
<ele>132.943481</ele>
<time>2011-10-10T07:50:42Z</time>
<desc>lat.=44.735100, lon.=33.845474, Alt.=132.943481m. Speed=16.020000m/h.</desc>
<speed>4.450000</speed>
</trkpt>
<trkpt lat="44.735199" lon="33.845196">
<ele>133.064575</ele>
<time>2011-10-10T07:50:47Z</time>
<desc>lat.=44.735199, lon.=33.845196, Alt.=133.064575m. Speed=19.044001m/h.</desc>
<speed>5.290000</speed>
</trkpt>
<trkpt lat="44.735298" lon="33.844875">
<ele>133.002075</ele>
<time>2011-10-10T07:50:52Z</time>
<desc>lat.=44.735298, lon.=33.844875, Alt.=133.002075m. Speed=19.260000m/h.</desc>
<speed>5.350000</speed>
</trkpt>
<trkpt lat="44.735409" lon="33.844543">
<ele>132.822388</ele>
<time>2011-10-10T07:50:57Z</time>
<desc>lat.=44.735409, lon.=33.844543, Alt.=132.822388m. Speed=21.636000m/h.</desc>
<speed>6.010000</speed>
</trkpt>
<trkpt lat="44.735535" lon="33.844196">
<ele>132.463013</ele>
<time>2011-10-10T07:51:02Z</time>
<desc>lat.=44.735535, lon.=33.844196, Alt.=132.463013m. Speed=21.600000m/h.</desc>
<speed>6.000000</speed>
</trkpt>
<trkpt lat="44.735664" lon="33.843857">
<ele>132.439575</ele>
<time>2011-10-10T07:51:07Z</time>
<desc>lat.=44.735664, lon.=33.843857, Alt.=132.439575m. Speed=22.535999m/h.</desc>
<speed>6.260000</speed>
</trkpt>
<trkpt lat="44.735798" lon="33.843479">
<ele>132.228638</ele>
<time>2011-10-10T07:51:12Z</time>
<desc>lat.=44.735798, lon.=33.843479, Alt.=132.228638m. Speed=24.048000m/h.</desc>
<speed>6.680000</speed>
</trkpt>
<trkpt lat="44.735909" lon="33.843094">
<ele>133.752075</ele>
<time>2011-10-10T07:51:17Z</time>
<desc>lat.=44.735909, lon.=33.843094, Alt.=133.752075m. Speed=23.796000m/h.</desc>
<speed>6.610000</speed>
</trkpt>
<trkpt lat="44.736042" lon="33.842678">
<ele>131.599731</ele>
<time>2011-10-10T07:51:22Z</time>
<desc>lat.=44.736042, lon.=33.842678, Alt.=131.599731m. Speed=24.732000m/h.</desc>
<speed>6.870000</speed>
</trkpt>
<trkpt lat="44.736179" lon="33.842289">
<ele>131.369263</ele>
<time>2011-10-10T07:51:27Z</time>
<desc>lat.=44.736179, lon.=33.842289, Alt.=131.369263m. Speed=23.580000m/h.</desc>
<speed>6.550000</speed>
</trkpt>
<trkpt lat="44.736320" lon="33.841885">
<ele>131.568481</ele>
<time>2011-10-10T07:51:32Z</time>
<desc>lat.=44.736320, lon.=33.841885, Alt.=131.568481m. Speed=25.812000m/h.</desc>
<speed>7.170000</speed>
</trkpt>
<trkpt lat="44.736454" lon="33.841518">
<ele>131.009888</ele>
<time>2011-10-10T07:51:37Z</time>
<desc>lat.=44.736454, lon.=33.841518, Alt.=131.009888m. Speed=21.672001m/h.</desc>
<speed>6.020000</speed>
</trkpt>
<trkpt lat="44.736568" lon="33.841148">
<ele>130.939575</ele>
<time>2011-10-10T07:51:42Z</time>
<desc>lat.=44.736568, lon.=33.841148, Alt.=130.939575m. Speed=22.608000m/h.</desc>
<speed>6.280000</speed>
</trkpt>
<trkpt lat="44.736694" lon="33.840752">
<ele>131.638794</ele>
<time>2011-10-10T07:51:47Z</time>
<desc>lat.=44.736694, lon.=33.840752, Alt.=131.638794m. Speed=25.848000m/h.</desc>
<speed>7.180000</speed>
</trkpt>
<trkpt lat="44.736820" lon="33.840343">
<ele>129.865356</ele>
<time>2011-10-10T07:51:52Z</time>
<desc>lat.=44.736820, lon.=33.840343, Alt.=129.865356m. Speed=25.632000m/h.</desc>
<speed>7.120000</speed>
</trkpt>
<trkpt lat="44.736946" lon="33.839947">
<ele>128.591919</ele>
<time>2011-10-10T07:51:57Z</time>
<desc>lat.=44.736946, lon.=33.839947, Alt.=128.591919m. Speed=25.812000m/h.</desc>
<speed>7.170000</speed>
</trkpt>
<trkpt lat="44.737083" lon="33.839523">
<ele>128.154419</ele>
<time>2011-10-10T07:52:02Z</time>
<desc>lat.=44.737083, lon.=33.839523, Alt.=128.154419m. Speed=27.180000m/h.</desc>
<speed>7.550000</speed>
</trkpt>
<trkpt lat="44.737225" lon="33.839092">
<ele>128.463013</ele>
<time>2011-10-10T07:52:07Z</time>
<desc>lat.=44.737225, lon.=33.839092, Alt.=128.463013m. Speed=26.712000m/h.</desc>
<speed>7.420000</speed>
</trkpt>
<trkpt lat="44.737362" lon="33.838692">
<ele>126.813538</ele>
<time>2011-10-10T07:52:12Z</time>
<desc>lat.=44.737362, lon.=33.838692, Alt.=126.813538m. Speed=25.740000m/h.</desc>
<speed>7.150000</speed>
</trkpt>
<trkpt lat="44.737495" lon="33.838276">
<ele>126.208069</ele>
<time>2011-10-10T07:52:17Z</time>
<desc>lat.=44.737495, lon.=33.838276, Alt.=126.208069m. Speed=25.848000m/h.</desc>
<speed>7.180000</speed>
</trkpt>
<trkpt lat="44.737637" lon="33.837849">
<ele>126.950256</ele>
<time>2011-10-10T07:52:22Z</time>
<desc>lat.=44.737637, lon.=33.837849, Alt.=126.950256m. Speed=27.108000m/h.</desc>
<speed>7.530000</speed>
</trkpt>
<trkpt lat="44.737785" lon="33.837406">
<ele>126.627991</ele>
<time>2011-10-10T07:52:27Z</time>
<desc>lat.=44.737785, lon.=33.837406, Alt.=126.627991m. Speed=27.827999m/h.</desc>
<speed>7.730000</speed>
</trkpt>
<trkpt lat="44.737915" lon="33.836971">
<ele>126.735413</ele>
<time>2011-10-10T07:52:32Z</time>
<desc>lat.=44.737915, lon.=33.836971, Alt.=126.735413m. Speed=21.672001m/h.</desc>
<speed>6.020000</speed>
</trkpt>
<trkpt lat="44.738026" lon="33.836693">
<ele>126.370178</ele>
<time>2011-10-10T07:52:37Z</time>
<desc>lat.=44.738026, lon.=33.836693, Alt.=126.370178m. Speed=17.388000m/h.</desc>
<speed>4.830000</speed>
</trkpt>
<trkpt lat="44.738091" lon="33.836548">
<ele>126.104553</ele>
<time>2011-10-10T07:52:42Z</time>
<desc>lat.=44.738091, lon.=33.836548, Alt.=126.104553m. Speed=0.288000m/h.</desc>
<speed>0.080000</speed>
</trkpt>
<trkpt lat="44.738091" lon="33.836536">
<ele>125.571350</ele>
<time>2011-10-10T07:52:47Z</time>
<desc>lat.=44.738091, lon.=33.836536, Alt.=125.571350m. Speed=4.104000m/h.</desc>
<speed>1.140000</speed>
</trkpt>
<trkpt lat="44.738037" lon="33.836292">
<ele>124.737366</ele>
<time>2011-10-10T07:52:52Z</time>
<desc>lat.=44.738037, lon.=33.836292, Alt.=124.737366m. Speed=19.584000m/h.</desc>
<speed>5.440000</speed>
</trkpt>
<trkpt lat="44.737858" lon="33.835979">
<ele>124.401428</ele>
<time>2011-10-10T07:52:57Z</time>
<desc>lat.=44.737858, lon.=33.835979, Alt.=124.401428m. Speed=25.056000m/h.</desc>
<speed>6.960000</speed>
</trkpt>
<trkpt lat="44.737640" lon="33.835613">
<ele>122.481506</ele>
<time>2011-10-10T07:53:02Z</time>
<desc>lat.=44.737640, lon.=33.835613, Alt.=122.481506m. Speed=27.972000m/h.</desc>
<speed>7.770000</speed>
</trkpt>
<trkpt lat="44.737419" lon="33.835220">
<ele>120.362366</ele>
<time>2011-10-10T07:53:07Z</time>
<desc>lat.=44.737419, lon.=33.835220, Alt.=120.362366m. Speed=29.879999m/h.</desc>
<speed>8.300000</speed>
</trkpt>
<trkpt lat="44.737179" lon="33.834801">
<ele>117.229553</ele>
<time>2011-10-10T07:53:12Z</time>
<desc>lat.=44.737179, lon.=33.834801, Alt.=117.229553m. Speed=30.096001m/h.</desc>
<speed>8.360000</speed>
</trkpt>
<trkpt lat="44.736942" lon="33.834389">
<ele>115.821350</ele>
<time>2011-10-10T07:53:17Z</time>
<desc>lat.=44.736942, lon.=33.834389, Alt.=115.821350m. Speed=30.492001m/h.</desc>
<speed>8.470000</speed>
</trkpt>
<trkpt lat="44.736706" lon="33.833969">
<ele>116.377991</ele>
<time>2011-10-10T07:53:22Z</time>
<desc>lat.=44.736706, lon.=33.833969, Alt.=116.377991m. Speed=29.700001m/h.</desc>
<speed>8.250000</speed>
</trkpt>
<trkpt lat="44.736477" lon="33.833569">
<ele>117.989319</ele>
<time>2011-10-10T07:53:27Z</time>
<desc>lat.=44.736477, lon.=33.833569, Alt.=117.989319m. Speed=28.656000m/h.</desc>
<speed>7.960000</speed>
</trkpt>
<trkpt lat="44.736252" lon="33.833172">
<ele>118.629944</ele>
<time>2011-10-10T07:53:32Z</time>
<desc>lat.=44.736252, lon.=33.833172, Alt.=118.629944m. Speed=28.764000m/h.</desc>
<speed>7.990000</speed>
</trkpt>
<trkpt lat="44.736027" lon="33.832783">
<ele>119.278381</ele>
<time>2011-10-10T07:53:37Z</time>
<desc>lat.=44.736027, lon.=33.832783, Alt.=119.278381m. Speed=28.980000m/h.</desc>
<speed>8.050000</speed>
</trkpt>
<trkpt lat="44.735802" lon="33.832390">
<ele>118.182678</ele>
<time>2011-10-10T07:53:42Z</time>
<desc>lat.=44.735802, lon.=33.832390, Alt.=118.182678m. Speed=28.080000m/h.</desc>
<speed>7.800000</speed>
</trkpt>
<trkpt lat="44.735588" lon="33.832005">
<ele>118.768616</ele>
<time>2011-10-10T07:53:47Z</time>
<desc>lat.=44.735588, lon.=33.832005, Alt.=118.768616m. Speed=27.719999m/h.</desc>
<speed>7.700000</speed>
</trkpt>
<trkpt lat="44.735371" lon="33.831619">
<ele>117.335022</ele>
<time>2011-10-10T07:53:52Z</time>
<desc>lat.=44.735371, lon.=33.831619, Alt.=117.335022m. Speed=28.296000m/h.</desc>
<speed>7.860000</speed>
</trkpt>
<trkpt lat="44.735157" lon="33.831226">
<ele>116.700256</ele>
<time>2011-10-10T07:53:57Z</time>
<desc>lat.=44.735157, lon.=33.831226, Alt.=116.700256m. Speed=27.612000m/h.</desc>
<speed>7.670000</speed>
</trkpt>
<trkpt lat="44.734936" lon="33.830845">
<ele>114.950256</ele>
<time>2011-10-10T07:54:02Z</time>
<desc>lat.=44.734936, lon.=33.830845, Alt.=114.950256m. Speed=28.332001m/h.</desc>
<speed>7.870000</speed>
</trkpt>
<trkpt lat="44.734707" lon="33.830452">
<ele>115.645569</ele>
<time>2011-10-10T07:54:07Z</time>
<desc>lat.=44.734707, lon.=33.830452, Alt.=115.645569m. Speed=29.268000m/h.</desc>
<speed>8.130000</speed>
</trkpt>
<trkpt lat="44.734474" lon="33.830055">
<ele>115.700256</ele>
<time>2011-10-10T07:54:12Z</time>
<desc>lat.=44.734474, lon.=33.830055, Alt.=115.700256m. Speed=29.483999m/h.</desc>
<speed>8.190000</speed>
</trkpt>
<trkpt lat="44.734230" lon="33.829620">
<ele>113.061584</ele>
<time>2011-10-10T07:54:17Z</time>
<desc>lat.=44.734230, lon.=33.829620, Alt.=113.061584m. Speed=33.264000m/h.</desc>
<speed>9.240000</speed>
</trkpt>
<trkpt lat="44.733959" lon="33.829155">
<ele>111.106506</ele>
<time>2011-10-10T07:54:22Z</time>
<desc>lat.=44.733959, lon.=33.829155, Alt.=111.106506m. Speed=34.919998m/h.</desc>
<speed>9.699999</speed>
</trkpt>
<trkpt lat="44.733685" lon="33.828678">
<ele>110.346741</ele>
<time>2011-10-10T07:54:27Z</time>
<desc>lat.=44.733685, lon.=33.828678, Alt.=110.346741m. Speed=34.020000m/h.</desc>
<speed>9.450000</speed>
</trkpt>
<trkpt lat="44.733452" lon="33.828251">
<ele>109.127991</ele>
<time>2011-10-10T07:54:32Z</time>
<desc>lat.=44.733452, lon.=33.828251, Alt.=109.127991m. Speed=29.844000m/h.</desc>
<speed>8.290000</speed>
</trkpt>
<trkpt lat="44.733215" lon="33.827831">
<ele>109.465881</ele>
<time>2011-10-10T07:54:37Z</time>
<desc>lat.=44.733215, lon.=33.827831, Alt.=109.465881m. Speed=31.356001m/h.</desc>
<speed>8.710000</speed>
</trkpt>
<trkpt lat="44.732967" lon="33.827400">
<ele>109.497131</ele>
<time>2011-10-10T07:54:42Z</time>
<desc>lat.=44.732967, lon.=33.827400, Alt.=109.497131m. Speed=31.788000m/h.</desc>
<speed>8.830000</speed>
</trkpt>
<trkpt lat="44.732723" lon="33.827007">
<ele>110.376038</ele>
<time>2011-10-10T07:54:47Z</time>
<desc>lat.=44.732723, lon.=33.827007, Alt.=110.376038m. Speed=27.468000m/h.</desc>
<speed>7.630000</speed>
</trkpt>
<trkpt lat="44.732506" lon="33.826611">
<ele>111.081116</ele>
<time>2011-10-10T07:54:52Z</time>
<desc>lat.=44.732506, lon.=33.826611, Alt.=111.081116m. Speed=28.188000m/h.</desc>
<speed>7.830000</speed>
</trkpt>
<trkpt lat="44.732273" lon="33.826214">
<ele>112.387756</ele>
<time>2011-10-10T07:54:57Z</time>
<desc>lat.=44.732273, lon.=33.826214, Alt.=112.387756m. Speed=28.944000m/h.</desc>
<speed>8.040000</speed>
</trkpt>
<trkpt lat="44.732063" lon="33.825817">
<ele>113.090881</ele>
<time>2011-10-10T07:55:02Z</time>
<desc>lat.=44.732063, lon.=33.825817, Alt.=113.090881m. Speed=27.180000m/h.</desc>
<speed>7.550000</speed>
</trkpt>
<trkpt lat="44.731831" lon="33.825417">
<ele>112.835022</ele>
<time>2011-10-10T07:55:07Z</time>
<desc>lat.=44.731831, lon.=33.825417, Alt.=112.835022m. Speed=29.340000m/h.</desc>
<speed>8.150000</speed>
</trkpt>
<trkpt lat="44.731621" lon="33.825027">
<ele>112.850647</ele>
<time>2011-10-10T07:55:12Z</time>
<desc>lat.=44.731621, lon.=33.825027, Alt.=112.850647m. Speed=27.180000m/h.</desc>
<speed>7.550000</speed>
</trkpt>
<trkpt lat="44.731430" lon="33.824673">
<ele>113.356506</ele>
<time>2011-10-10T07:55:17Z</time>
<desc>lat.=44.731430, lon.=33.824673, Alt.=113.356506m. Speed=24.120001m/h.</desc>
<speed>6.700000</speed>
</trkpt>
<trkpt lat="44.731255" lon="33.824352">
<ele>115.659241</ele>
<time>2011-10-10T07:55:22Z</time>
<desc>lat.=44.731255, lon.=33.824352, Alt.=115.659241m. Speed=23.004000m/h.</desc>
<speed>6.390000</speed>
</trkpt>
<trkpt lat="44.731102" lon="33.824047">
<ele>115.061584</ele>
<time>2011-10-10T07:55:27Z</time>
<desc>lat.=44.731102, lon.=33.824047, Alt.=115.061584m. Speed=21.600000m/h.</desc>
<speed>6.000000</speed>
</trkpt>
<trkpt lat="44.730930" lon="33.823769">
<ele>116.747131</ele>
<time>2011-10-10T07:55:32Z</time>
<desc>lat.=44.730930, lon.=33.823769, Alt.=116.747131m. Speed=20.700001m/h.</desc>
<speed>5.750000</speed>
</trkpt>
<trkpt lat="44.730747" lon="33.823475">
<ele>119.215881</ele>
<time>2011-10-10T07:55:37Z</time>
<desc>lat.=44.730747, lon.=33.823475, Alt.=119.215881m. Speed=22.752001m/h.</desc>
<speed>6.320000</speed>
</trkpt>
<trkpt lat="44.730576" lon="33.823177">
<ele>120.098694</ele>
<time>2011-10-10T07:55:42Z</time>
<desc>lat.=44.730576, lon.=33.823177, Alt.=120.098694m. Speed=20.591999m/h.</desc>
<speed>5.720000</speed>
</trkpt>
<trkpt lat="44.730408" lon="33.822910">
<ele>118.407288</ele>
<time>2011-10-10T07:55:47Z</time>
<desc>lat.=44.730408, lon.=33.822910, Alt.=118.407288m. Speed=20.988001m/h.</desc>
<speed>5.830000</speed>
</trkpt>
<trkpt lat="44.730225" lon="33.822632">
<ele>117.352600</ele>
<time>2011-10-10T07:55:52Z</time>
<desc>lat.=44.730225, lon.=33.822632, Alt.=117.352600m. Speed=21.563999m/h.</desc>
<speed>5.990000</speed>
</trkpt>
<trkpt lat="44.730019" lon="33.822357">
<ele>117.729553</ele>
<time>2011-10-10T07:55:57Z</time>
<desc>lat.=44.730019, lon.=33.822357, Alt.=117.729553m. Speed=21.024000m/h.</desc>
<speed>5.840000</speed>
</trkpt>
<trkpt lat="44.729858" lon="33.822124">
<ele>117.502991</ele>
<time>2011-10-10T07:56:02Z</time>
<desc>lat.=44.729858, lon.=33.822124, Alt.=117.502991m. Speed=18.216000m/h.</desc>
<speed>5.060000</speed>
</trkpt>
<trkpt lat="44.729668" lon="33.821869">
<ele>115.624084</ele>
<time>2011-10-10T07:56:07Z</time>
<desc>lat.=44.729668, lon.=33.821869, Alt.=115.624084m. Speed=23.040001m/h.</desc>
<speed>6.400000</speed>
</trkpt>
<trkpt lat="44.729435" lon="33.821560">
<ele>116.790100</ele>
<time>2011-10-10T07:56:12Z</time>
<desc>lat.=44.729435, lon.=33.821560, Alt.=116.790100m. Speed=25.740000m/h.</desc>
<speed>7.150000</speed>
</trkpt>
<trkpt lat="44.729195" lon="33.821205">
<ele>114.278381</ele>
<time>2011-10-10T07:56:17Z</time>
<desc>lat.=44.729195, lon.=33.821205, Alt.=114.278381m. Speed=27.900000m/h.</desc>
<speed>7.750000</speed>
</trkpt>
<trkpt lat="44.728928" lon="33.820839">
<ele>113.467834</ele>
<time>2011-10-10T07:56:22Z</time>
<desc>lat.=44.728928, lon.=33.820839, Alt.=113.467834m. Speed=29.952000m/h.</desc>
<speed>8.320000</speed>
</trkpt>
<trkpt lat="44.728672" lon="33.820496">
<ele>112.252991</ele>
<time>2011-10-10T07:56:27Z</time>
<desc>lat.=44.728672, lon.=33.820496, Alt.=112.252991m. Speed=27.612000m/h.</desc>
<speed>7.670000</speed>
</trkpt>
<trkpt lat="44.728432" lon="33.820160">
<ele>111.627991</ele>
<time>2011-10-10T07:56:32Z</time>
<desc>lat.=44.728432, lon.=33.820160, Alt.=111.627991m. Speed=27.431999m/h.</desc>
<speed>7.620000</speed>
</trkpt>
<trkpt lat="44.728180" lon="33.819805">
<ele>111.469788</ele>
<time>2011-10-10T07:56:37Z</time>
<desc>lat.=44.728180, lon.=33.819805, Alt.=111.469788m. Speed=28.620001m/h.</desc>
<speed>7.950000</speed>
</trkpt>
<trkpt lat="44.727940" lon="33.819458">
<ele>109.489319</ele>
<time>2011-10-10T07:56:42Z</time>
<desc>lat.=44.727940, lon.=33.819458, Alt.=109.489319m. Speed=26.424000m/h.</desc>
<speed>7.340000</speed>
</trkpt>
<trkpt lat="44.727703" lon="33.819126">
<ele>107.905334</ele>
<time>2011-10-10T07:56:47Z</time>
<desc>lat.=44.727703, lon.=33.819126, Alt.=107.905334m. Speed=27.684000m/h.</desc>
<speed>7.690000</speed>
</trkpt>
<trkpt lat="44.727394" lon="33.818741">
<ele>107.360413</ele>
<time>2011-10-10T07:56:52Z</time>
<desc>lat.=44.727394, lon.=33.818741, Alt.=107.360413m. Speed=33.155998m/h.</desc>
<speed>9.210000</speed>
</trkpt>
<trkpt lat="44.727139" lon="33.818352">
<ele>106.786194</ele>
<time>2011-10-10T07:56:57Z</time>
<desc>lat.=44.727139, lon.=33.818352, Alt.=106.786194m. Speed=27.180000m/h.</desc>
<speed>7.550000</speed>
</trkpt>
<trkpt lat="44.726891" lon="33.817989">
<ele>107.147522</ele>
<time>2011-10-10T07:57:02Z</time>
<desc>lat.=44.726891, lon.=33.817989, Alt.=107.147522m. Speed=29.771999m/h.</desc>
<speed>8.270000</speed>
</trkpt>
<trkpt lat="44.726604" lon="33.817612">
<ele>108.434631</ele>
<time>2011-10-10T07:57:07Z</time>
<desc>lat.=44.726604, lon.=33.817612, Alt.=108.434631m. Speed=31.284000m/h.</desc>
<speed>8.690000</speed>
</trkpt>
<trkpt lat="44.726318" lon="33.817211">
<ele>110.014709</ele>
<time>2011-10-10T07:57:12Z</time>
<desc>lat.=44.726318, lon.=33.817211, Alt.=110.014709m. Speed=32.363998m/h.</desc>
<speed>8.990000</speed>
</trkpt>
<trkpt lat="44.726036" lon="33.816795">
<ele>110.909241</ele>
<time>2011-10-10T07:57:17Z</time>
<desc>lat.=44.726036, lon.=33.816795, Alt.=110.909241m. Speed=31.500000m/h.</desc>
<speed>8.750000</speed>
</trkpt>
<trkpt lat="44.725754" lon="33.816391">
<ele>106.493225</ele>
<time>2011-10-10T07:57:22Z</time>
<desc>lat.=44.725754, lon.=33.816391, Alt.=106.493225m. Speed=30.959999m/h.</desc>
<speed>8.600000</speed>
</trkpt>
<trkpt lat="44.725487" lon="33.816002">
<ele>105.145569</ele>
<time>2011-10-10T07:57:27Z</time>
<desc>lat.=44.725487, lon.=33.816002, Alt.=105.145569m. Speed=29.591999m/h.</desc>
<speed>8.220000</speed>
</trkpt>
<trkpt lat="44.725235" lon="33.815624">
<ele>102.768616</ele>
<time>2011-10-10T07:57:32Z</time>
<desc>lat.=44.725235, lon.=33.815624, Alt.=102.768616m. Speed=29.340000m/h.</desc>
<speed>8.150000</speed>
</trkpt>
<trkpt lat="44.724972" lon="33.815262">
<ele>100.885803</ele>
<time>2011-10-10T07:57:37Z</time>
<desc>lat.=44.724972, lon.=33.815262, Alt.=100.885803m. Speed=29.160000m/h.</desc>
<speed>8.100000</speed>
</trkpt>
<trkpt lat="44.724709" lon="33.814899">
<ele>99.008850</ele>
<time>2011-10-10T07:57:42Z</time>
<desc>lat.=44.724709, lon.=33.814899, Alt.=99.008850m. Speed=29.304001m/h.</desc>
<speed>8.140000</speed>
</trkpt>
<trkpt lat="44.724442" lon="33.814526">
<ele>98.274475</ele>
<time>2011-10-10T07:57:47Z</time>
<desc>lat.=44.724442, lon.=33.814526, Alt.=98.274475m. Speed=30.312000m/h.</desc>
<speed>8.420000</speed>
</trkpt>
<trkpt lat="44.724152" lon="33.814171">
<ele>96.950256</ele>
<time>2011-10-10T07:57:52Z</time>
<desc>lat.=44.724152, lon.=33.814171, Alt.=96.950256m. Speed=29.916000m/h.</desc>
<speed>8.310000</speed>
</trkpt>
<trkpt lat="44.723923" lon="33.813831">
<ele>95.678772</ele>
<time>2011-10-10T07:57:57Z</time>
<desc>lat.=44.723923, lon.=33.813831, Alt.=95.678772m. Speed=26.172001m/h.</desc>
<speed>7.270000</speed>
</trkpt>
<trkpt lat="44.723629" lon="33.813435">
<ele>93.934631</ele>
<time>2011-10-10T07:58:02Z</time>
<desc>lat.=44.723629, lon.=33.813435, Alt.=93.934631m. Speed=30.600000m/h.</desc>
<speed>8.500000</speed>
</trkpt>
<trkpt lat="44.723354" lon="33.813049">
<ele>92.524475</ele>
<time>2011-10-10T07:58:07Z</time>
<desc>lat.=44.723354, lon.=33.813049, Alt.=92.524475m. Speed=28.620001m/h.</desc>
<speed>7.950000</speed>
</trkpt>
<trkpt lat="44.723095" lon="33.812675">
<ele>90.862366</ele>
<time>2011-10-10T07:58:12Z</time>
<desc>lat.=44.723095, lon.=33.812675, Alt.=90.862366m. Speed=29.483999m/h.</desc>
<speed>8.190000</speed>
</trkpt>
<trkpt lat="44.722839" lon="33.812305">
<ele>90.018616</ele>
<time>2011-10-10T07:58:17Z</time>
<desc>lat.=44.722839, lon.=33.812305, Alt.=90.018616m. Speed=29.412001m/h.</desc>
<speed>8.170000</speed>
</trkpt>
<trkpt lat="44.722572" lon="33.811939">
<ele>89.862366</ele>
<time>2011-10-10T07:58:22Z</time>
<desc>lat.=44.722572, lon.=33.811939, Alt.=89.862366m. Speed=30.240000m/h.</desc>
<speed>8.400000</speed>
</trkpt>
<trkpt lat="44.722298" lon="33.811550">
<ele>90.868225</ele>
<time>2011-10-10T07:58:27Z</time>
<desc>lat.=44.722298, lon.=33.811550, Alt.=90.868225m. Speed=29.844000m/h.</desc>
<speed>8.290000</speed>
</trkpt>
<trkpt lat="44.722038" lon="33.811195">
<ele>89.399475</ele>
<time>2011-10-10T07:58:32Z</time>
<desc>lat.=44.722038, lon.=33.811195, Alt.=89.399475m. Speed=28.115999m/h.</desc>
<speed>7.810000</speed>
</trkpt>
<trkpt lat="44.721802" lon="33.810867">
<ele>89.670959</ele>
<time>2011-10-10T07:58:37Z</time>
<desc>lat.=44.721802, lon.=33.810867, Alt.=89.670959m. Speed=25.667999m/h.</desc>
<speed>7.130000</speed>
</trkpt>
<trkpt lat="44.721550" lon="33.810532">
<ele>91.141663</ele>
<time>2011-10-10T07:58:42Z</time>
<desc>lat.=44.721550, lon.=33.810532, Alt.=91.141663m. Speed=27.252001m/h.</desc>
<speed>7.570000</speed>
</trkpt>
<trkpt lat="44.721321" lon="33.810192">
<ele>92.772522</ele>
<time>2011-10-10T07:58:47Z</time>
<desc>lat.=44.721321, lon.=33.810192, Alt.=92.772522m. Speed=26.208000m/h.</desc>
<speed>7.280000</speed>
</trkpt>
<trkpt lat="44.721092" lon="33.809875">
<ele>92.680725</ele>
<time>2011-10-10T07:58:52Z</time>
<desc>lat.=44.721092, lon.=33.809875, Alt.=92.680725m. Speed=25.379999m/h.</desc>
<speed>7.050000</speed>
</trkpt>
<trkpt lat="44.720863" lon="33.809555">
<ele>95.811584</ele>
<time>2011-10-10T07:58:57Z</time>
<desc>lat.=44.720863, lon.=33.809555, Alt.=95.811584m. Speed=24.660000m/h.</desc>
<speed>6.850000</speed>
</trkpt>
<trkpt lat="44.720657" lon="33.809231">
<ele>94.973694</ele>
<time>2011-10-10T07:59:02Z</time>
<desc>lat.=44.720657, lon.=33.809231, Alt.=94.973694m. Speed=24.660000m/h.</desc>
<speed>6.850000</speed>
</trkpt>
<trkpt lat="44.720467" lon="33.808960">
<ele>95.153381</ele>
<time>2011-10-10T07:59:07Z</time>
<desc>lat.=44.720467, lon.=33.808960, Alt.=95.153381m. Speed=19.476000m/h.</desc>
<speed>5.410000</speed>
</trkpt>
<trkpt lat="44.720299" lon="33.808723">
<ele>95.678772</ele>
<time>2011-10-10T07:59:12Z</time>
<desc>lat.=44.720299, lon.=33.808723, Alt.=95.678772m. Speed=18.396000m/h.</desc>
<speed>5.110000</speed>
</trkpt>
<trkpt lat="44.720131" lon="33.808498">
<ele>95.829163</ele>
<time>2011-10-10T07:59:17Z</time>
<desc>lat.=44.720131, lon.=33.808498, Alt.=95.829163m. Speed=19.296000m/h.</desc>
<speed>5.360000</speed>
</trkpt>
<trkpt lat="44.719959" lon="33.808296">
<ele>95.850647</ele>
<time>2011-10-10T07:59:22Z</time>
<desc>lat.=44.719959, lon.=33.808296, Alt.=95.850647m. Speed=15.768000m/h.</desc>
<speed>4.380000</speed>
</trkpt>
<trkpt lat="44.719795" lon="33.808144">
<ele>95.979553</ele>
<time>2011-10-10T07:59:27Z</time>
<desc>lat.=44.719795, lon.=33.808144, Alt.=95.979553m. Speed=13.356000m/h.</desc>
<speed>3.710000</speed>
</trkpt>
<trkpt lat="44.719681" lon="33.808025">
<ele>97.403381</ele>
<time>2011-10-10T07:59:32Z</time>
<desc>lat.=44.719681, lon.=33.808025, Alt.=97.403381m. Speed=8.820000m/h.</desc>
<speed>2.450000</speed>
</trkpt>
<trkpt lat="44.719597" lon="33.807972">
<ele>98.297913</ele>
<time>2011-10-10T07:59:37Z</time>
<desc>lat.=44.719597, lon.=33.807972, Alt.=98.297913m. Speed=7.560000m/h.</desc>
<speed>2.100000</speed>
</trkpt>
<trkpt lat="44.719490" lon="33.807919">
<ele>98.577209</ele>
<time>2011-10-10T07:59:42Z</time>
<desc>lat.=44.719490, lon.=33.807919, Alt.=98.577209m. Speed=11.232000m/h.</desc>
<speed>3.120000</speed>
</trkpt>
<trkpt lat="44.719349" lon="33.807835">
<ele>97.901428</ele>
<time>2011-10-10T07:59:47Z</time>
<desc>lat.=44.719349, lon.=33.807835, Alt.=97.901428m. Speed=12.960000m/h.</desc>
<speed>3.600000</speed>
</trkpt>
<trkpt lat="44.719185" lon="33.807758">
<ele>96.963928</ele>
<time>2011-10-10T07:59:52Z</time>
<desc>lat.=44.719185, lon.=33.807758, Alt.=96.963928m. Speed=13.320000m/h.</desc>
<speed>3.700000</speed>
</trkpt>
<trkpt lat="44.719028" lon="33.807671">
<ele>96.420959</ele>
<time>2011-10-10T07:59:57Z</time>
<desc>lat.=44.719028, lon.=33.807671, Alt.=96.420959m. Speed=14.184000m/h.</desc>
<speed>3.940000</speed>
</trkpt>
<trkpt lat="44.718861" lon="33.807560">
<ele>97.163147</ele>
<time>2011-10-10T08:00:02Z</time>
<desc>lat.=44.718861, lon.=33.807560, Alt.=97.163147m. Speed=15.372000m/h.</desc>
<speed>4.270000</speed>
</trkpt>
<trkpt lat="44.718681" lon="33.807446">
<ele>96.899475</ele>
<time>2011-10-10T08:00:07Z</time>
<desc>lat.=44.718681, lon.=33.807446, Alt.=96.899475m. Speed=16.164000m/h.</desc>
<speed>4.490000</speed>
</trkpt>
<trkpt lat="44.718487" lon="33.807339">
<ele>96.706116</ele>
<time>2011-10-10T08:00:12Z</time>
<desc>lat.=44.718487, lon.=33.807339, Alt.=96.706116m. Speed=16.632000m/h.</desc>
<speed>4.620000</speed>
</trkpt>
<trkpt lat="44.718296" lon="33.807228">
<ele>96.848694</ele>
<time>2011-10-10T08:00:17Z</time>
<desc>lat.=44.718296, lon.=33.807228, Alt.=96.848694m. Speed=16.056000m/h.</desc>
<speed>4.460000</speed>
</trkpt>
<trkpt lat="44.718117" lon="33.807133">
<ele>97.930725</ele>
<time>2011-10-10T08:00:22Z</time>
<desc>lat.=44.718117, lon.=33.807133, Alt.=97.930725m. Speed=15.624000m/h.</desc>
<speed>4.340000</speed>
</trkpt>
<trkpt lat="44.717937" lon="33.807022">
<ele>98.182678</ele>
<time>2011-10-10T08:00:27Z</time>
<desc>lat.=44.717937, lon.=33.807022, Alt.=98.182678m. Speed=16.344000m/h.</desc>
<speed>4.540000</speed>
</trkpt>
<trkpt lat="44.717724" lon="33.806908">
<ele>96.737366</ele>
<time>2011-10-10T08:00:32Z</time>
<desc>lat.=44.717724, lon.=33.806908, Alt.=96.737366m. Speed=20.016001m/h.</desc>
<speed>5.560000</speed>
</trkpt>
<trkpt lat="44.717464" lon="33.806763">
<ele>95.114319</ele>
<time>2011-10-10T08:00:37Z</time>
<desc>lat.=44.717464, lon.=33.806763, Alt.=95.114319m. Speed=22.752001m/h.</desc>
<speed>6.320000</speed>
</trkpt>
<trkpt lat="44.717224" lon="33.806622">
<ele>96.653381</ele>
<time>2011-10-10T08:00:42Z</time>
<desc>lat.=44.717224, lon.=33.806622, Alt.=96.653381m. Speed=20.052000m/h.</desc>
<speed>5.570000</speed>
</trkpt>
<trkpt lat="44.717007" lon="33.806492">
<ele>95.639709</ele>
<time>2011-10-10T08:00:47Z</time>
<desc>lat.=44.717007, lon.=33.806492, Alt.=95.639709m. Speed=20.124001m/h.</desc>
<speed>5.590000</speed>
</trkpt>
<trkpt lat="44.716747" lon="33.806355">
<ele>95.563538</ele>
<time>2011-10-10T08:00:52Z</time>
<desc>lat.=44.716747, lon.=33.806355, Alt.=95.563538m. Speed=23.472000m/h.</desc>
<speed>6.520000</speed>
</trkpt>
<trkpt lat="44.716461" lon="33.806179">
<ele>96.325256</ele>
<time>2011-10-10T08:00:57Z</time>
<desc>lat.=44.716461, lon.=33.806179, Alt.=96.325256m. Speed=27.035999m/h.</desc>
<speed>7.510000</speed>
</trkpt>
<trkpt lat="44.716137" lon="33.805984">
<ele>96.672913</ele>
<time>2011-10-10T08:01:02Z</time>
<desc>lat.=44.716137, lon.=33.805984, Alt.=96.672913m. Speed=28.548000m/h.</desc>
<speed>7.930000</speed>
</trkpt>
<trkpt lat="44.715801" lon="33.805794">
<ele>95.917053</ele>
<time>2011-10-10T08:01:07Z</time>
<desc>lat.=44.715801, lon.=33.805794, Alt.=95.917053m. Speed=28.260000m/h.</desc>
<speed>7.850000</speed>
</trkpt>
<trkpt lat="44.715492" lon="33.805622">
<ele>96.169006</ele>
<time>2011-10-10T08:01:12Z</time>
<desc>lat.=44.715492, lon.=33.805622, Alt.=96.169006m. Speed=25.308001m/h.</desc>
<speed>7.030000</speed>
</trkpt>
<trkpt lat="44.715195" lon="33.805439">
<ele>95.999084</ele>
<time>2011-10-10T08:01:17Z</time>
<desc>lat.=44.715195, lon.=33.805439, Alt.=95.999084m. Speed=25.056000m/h.</desc>
<speed>6.960000</speed>
</trkpt>
<trkpt lat="44.714924" lon="33.805290">
<ele>96.479553</ele>
<time>2011-10-10T08:01:22Z</time>
<desc>lat.=44.714924, lon.=33.805290, Alt.=96.479553m. Speed=20.591999m/h.</desc>
<speed>5.720000</speed>
</trkpt>
<trkpt lat="44.714722" lon="33.805199">
<ele>97.727600</ele>
<time>2011-10-10T08:01:27Z</time>
<desc>lat.=44.714722, lon.=33.805199, Alt.=97.727600m. Speed=15.624000m/h.</desc>
<speed>4.340000</speed>
</trkpt>
<trkpt lat="44.714527" lon="33.805286">
<ele>96.784241</ele>
<time>2011-10-10T08:01:32Z</time>
<desc>lat.=44.714527, lon.=33.805286, Alt.=96.784241m. Speed=19.908001m/h.</desc>
<speed>5.530000</speed>
</trkpt>
<trkpt lat="44.714268" lon="33.805317">
<ele>97.835022</ele>
<time>2011-10-10T08:01:37Z</time>
<desc>lat.=44.714268, lon.=33.805317, Alt.=97.835022m. Speed=21.455999m/h.</desc>
<speed>5.960000</speed>
</trkpt>
<trkpt lat="44.714016" lon="33.805202">
<ele>99.559631</ele>
<time>2011-10-10T08:01:42Z</time>
<desc>lat.=44.714016, lon.=33.805202, Alt.=99.559631m. Speed=20.052000m/h.</desc>
<speed>5.570000</speed>
</trkpt>
<trkpt lat="44.713776" lon="33.805073">
<ele>99.741272</ele>
<time>2011-10-10T08:01:47Z</time>
<desc>lat.=44.713776, lon.=33.805073, Alt.=99.741272m. Speed=20.448000m/h.</desc>
<speed>5.680000</speed>
</trkpt>
<trkpt lat="44.713520" lon="33.804916">
<ele>100.645569</ele>
<time>2011-10-10T08:01:52Z</time>
<desc>lat.=44.713520, lon.=33.804916, Alt.=100.645569m. Speed=23.832001m/h.</desc>
<speed>6.620000</speed>
</trkpt>
<trkpt lat="44.713249" lon="33.804768">
<ele>102.581116</ele>
<time>2011-10-10T08:01:57Z</time>
<desc>lat.=44.713249, lon.=33.804768, Alt.=102.581116m. Speed=22.823999m/h.</desc>
<speed>6.340000</speed>
</trkpt>
<trkpt lat="44.712978" lon="33.804626">
<ele>102.704163</ele>
<time>2011-10-10T08:02:02Z</time>
<desc>lat.=44.712978, lon.=33.804626, Alt.=102.704163m. Speed=23.148001m/h.</desc>
<speed>6.430000</speed>
</trkpt>
<trkpt lat="44.712715" lon="33.804482">
<ele>103.665100</ele>
<time>2011-10-10T08:02:07Z</time>
<desc>lat.=44.712715, lon.=33.804482, Alt.=103.665100m. Speed=22.139999m/h.</desc>
<speed>6.150000</speed>
</trkpt>
<trkpt lat="44.712429" lon="33.804329">
<ele>104.157288</ele>
<time>2011-10-10T08:02:12Z</time>
<desc>lat.=44.712429, lon.=33.804329, Alt.=104.157288m. Speed=25.236000m/h.</desc>
<speed>7.010000</speed>
</trkpt>
<trkpt lat="44.712132" lon="33.804165">
<ele>105.047913</ele>
<time>2011-10-10T08:02:17Z</time>
<desc>lat.=44.712132, lon.=33.804165, Alt.=105.047913m. Speed=26.172001m/h.</desc>
<speed>7.270000</speed>
</trkpt>
<trkpt lat="44.711819" lon="33.804001">
<ele>104.516663</ele>
<time>2011-10-10T08:02:22Z</time>
<desc>lat.=44.711819, lon.=33.804001, Alt.=104.516663m. Speed=26.532000m/h.</desc>
<speed>7.370000</speed>
</trkpt>
<trkpt lat="44.711506" lon="33.803814">
<ele>105.223694</ele>
<time>2011-10-10T08:02:27Z</time>
<desc>lat.=44.711506, lon.=33.803814, Alt.=105.223694m. Speed=27.684000m/h.</desc>
<speed>7.690000</speed>
</trkpt>
<trkpt lat="44.711189" lon="33.803623">
<ele>105.967834</ele>
<time>2011-10-10T08:02:32Z</time>
<desc>lat.=44.711189, lon.=33.803623, Alt.=105.967834m. Speed=27.035999m/h.</desc>
<speed>7.510000</speed>
</trkpt>
<trkpt lat="44.710884" lon="33.803448">
<ele>106.928772</ele>
<time>2011-10-10T08:02:37Z</time>
<desc>lat.=44.710884, lon.=33.803448, Alt.=106.928772m. Speed=25.632000m/h.</desc>
<speed>7.120000</speed>
</trkpt>
<trkpt lat="44.710587" lon="33.803284">
<ele>107.674866</ele>
<time>2011-10-10T08:02:42Z</time>
<desc>lat.=44.710587, lon.=33.803284, Alt.=107.674866m. Speed=25.091999m/h.</desc>
<speed>6.970000</speed>
</trkpt>
<trkpt lat="44.710316" lon="33.803123">
<ele>108.335022</ele>
<time>2011-10-10T08:02:47Z</time>
<desc>lat.=44.710316, lon.=33.803123, Alt.=108.335022m. Speed=21.240000m/h.</desc>
<speed>5.900000</speed>
</trkpt>
<trkpt lat="44.710091" lon="33.802998">
<ele>109.366272</ele>
<time>2011-10-10T08:02:52Z</time>
<desc>lat.=44.710091, lon.=33.802998, Alt.=109.366272m. Speed=18.576000m/h.</desc>
<speed>5.160000</speed>
</trkpt>
<trkpt lat="44.709835" lon="33.802860">
<ele>108.692444</ele>
<time>2011-10-10T08:02:57Z</time>
<desc>lat.=44.709835, lon.=33.802860, Alt.=108.692444m. Speed=24.336000m/h.</desc>
<speed>6.760000</speed>
</trkpt>
<trkpt lat="44.709549" lon="33.802692">
<ele>108.389709</ele>
<time>2011-10-10T08:03:02Z</time>
<desc>lat.=44.709549, lon.=33.802692, Alt.=108.389709m. Speed=24.120001m/h.</desc>
<speed>6.700000</speed>
</trkpt>
<trkpt lat="44.709312" lon="33.802551">
<ele>109.336975</ele>
<time>2011-10-10T08:03:07Z</time>
<desc>lat.=44.709312, lon.=33.802551, Alt.=109.336975m. Speed=15.804000m/h.</desc>
<speed>4.390000</speed>
</trkpt>
<trkpt lat="44.709114" lon="33.802433">
<ele>109.532288</ele>
<time>2011-10-10T08:03:12Z</time>
<desc>lat.=44.709114, lon.=33.802433, Alt.=109.532288m. Speed=17.172001m/h.</desc>
<speed>4.770000</speed>
</trkpt>
<trkpt lat="44.708908" lon="33.802311">
<ele>110.385803</ele>
<time>2011-10-10T08:03:17Z</time>
<desc>lat.=44.708908, lon.=33.802311, Alt.=110.385803m. Speed=18.035999m/h.</desc>
<speed>5.010000</speed>
</trkpt>
<trkpt lat="44.708683" lon="33.802158">
<ele>109.856506</ele>
<time>2011-10-10T08:03:22Z</time>
<desc>lat.=44.708683, lon.=33.802158, Alt.=109.856506m. Speed=19.980000m/h.</desc>
<speed>5.550000</speed>
</trkpt>
<trkpt lat="44.708439" lon="33.802021">
<ele>110.395569</ele>
<time>2011-10-10T08:03:27Z</time>
<desc>lat.=44.708439, lon.=33.802021, Alt.=110.395569m. Speed=22.284000m/h.</desc>
<speed>6.190000</speed>
</trkpt>
<trkpt lat="44.708179" lon="33.801872">
<ele>110.995178</ele>
<time>2011-10-10T08:03:32Z</time>
<desc>lat.=44.708179, lon.=33.801872, Alt.=110.995178m. Speed=22.535999m/h.</desc>
<speed>6.260000</speed>
</trkpt>
<trkpt lat="44.707909" lon="33.801704">
<ele>110.958069</ele>
<time>2011-10-10T08:03:37Z</time>
<desc>lat.=44.707909, lon.=33.801704, Alt.=110.958069m. Speed=24.804001m/h.</desc>
<speed>6.890000</speed>
</trkpt>
<trkpt lat="44.707619" lon="33.801537">
<ele>111.245178</ele>
<time>2011-10-10T08:03:42Z</time>
<desc>lat.=44.707619, lon.=33.801537, Alt.=111.245178m. Speed=25.488001m/h.</desc>
<speed>7.080000</speed>
</trkpt>
<trkpt lat="44.707340" lon="33.801373">
<ele>111.881897</ele>
<time>2011-10-10T08:03:47Z</time>
<desc>lat.=44.707340, lon.=33.801373, Alt.=111.881897m. Speed=20.988001m/h.</desc>
<speed>5.830000</speed>
</trkpt>
<trkpt lat="44.707100" lon="33.801239">
<ele>112.073303</ele>
<time>2011-10-10T08:03:52Z</time>
<desc>lat.=44.707100, lon.=33.801239, Alt.=112.073303m. Speed=21.275999m/h.</desc>
<speed>5.910000</speed>
</trkpt>
<trkpt lat="44.706844" lon="33.801094">
<ele>112.059631</ele>
<time>2011-10-10T08:03:57Z</time>
<desc>lat.=44.706844, lon.=33.801094, Alt.=112.059631m. Speed=22.427999m/h.</desc>
<speed>6.230000</speed>
</trkpt>
<trkpt lat="44.706585" lon="33.800938">
<ele>111.874084</ele>
<time>2011-10-10T08:04:02Z</time>
<desc>lat.=44.706585, lon.=33.800938, Alt.=111.874084m. Speed=20.879999m/h.</desc>
<speed>5.800000</speed>
</trkpt>
<trkpt lat="44.706341" lon="33.800797">
<ele>111.766663</ele>
<time>2011-10-10T08:04:07Z</time>
<desc>lat.=44.706341, lon.=33.800797, Alt.=111.766663m. Speed=21.888000m/h.</desc>
<speed>6.080000</speed>
</trkpt>
<trkpt lat="44.706085" lon="33.800671">
<ele>112.016663</ele>
<time>2011-10-10T08:04:12Z</time>
<desc>lat.=44.706085, lon.=33.800671, Alt.=112.016663m. Speed=20.771999m/h.</desc>
<speed>5.770000</speed>
</trkpt>
<trkpt lat="44.705845" lon="33.800591">
<ele>112.202209</ele>
<time>2011-10-10T08:04:17Z</time>
<desc>lat.=44.705845, lon.=33.800591, Alt.=112.202209m. Speed=18.540001m/h.</desc>
<speed>5.150000</speed>
</trkpt>
<trkpt lat="44.705624" lon="33.800549">
<ele>112.002991</ele>
<time>2011-10-10T08:04:22Z</time>
<desc>lat.=44.705624, lon.=33.800549, Alt.=112.002991m. Speed=16.992001m/h.</desc>
<speed>4.720000</speed>
</trkpt>
<trkpt lat="44.705402" lon="33.800510">
<ele>112.502991</ele>
<time>2011-10-10T08:04:27Z</time>
<desc>lat.=44.705402, lon.=33.800510, Alt.=112.502991m. Speed=18.827999m/h.</desc>
<speed>5.230000</speed>
</trkpt>
<trkpt lat="44.705162" lon="33.800442">
<ele>113.231506</ele>
<time>2011-10-10T08:04:32Z</time>
<desc>lat.=44.705162, lon.=33.800442, Alt.=113.231506m. Speed=18.827999m/h.</desc>
<speed>5.230000</speed>
</trkpt>
<trkpt lat="44.704922" lon="33.800354">
<ele>113.698303</ele>
<time>2011-10-10T08:04:37Z</time>
<desc>lat.=44.704922, lon.=33.800354, Alt.=113.698303m. Speed=20.483999m/h.</desc>
<speed>5.690000</speed>
</trkpt>
<trkpt lat="44.704685" lon="33.800194">
<ele>114.294006</ele>
<time>2011-10-10T08:04:42Z</time>
<desc>lat.=44.704685, lon.=33.800194, Alt.=114.294006m. Speed=21.492001m/h.</desc>
<speed>5.970000</speed>
</trkpt>
<trkpt lat="44.704464" lon="33.799957">
<ele>114.704163</ele>
<time>2011-10-10T08:04:47Z</time>
<desc>lat.=44.704464, lon.=33.799957, Alt.=114.704163m. Speed=22.680000m/h.</desc>
<speed>6.300000</speed>
</trkpt>
<trkpt lat="44.704254" lon="33.799717">
<ele>115.092834</ele>
<time>2011-10-10T08:04:52Z</time>
<desc>lat.=44.704254, lon.=33.799717, Alt.=115.092834m. Speed=21.959999m/h.</desc>
<speed>6.100000</speed>
</trkpt>
<trkpt lat="44.704021" lon="33.799492">
<ele>114.743225</ele>
<time>2011-10-10T08:04:57Z</time>
<desc>lat.=44.704021, lon.=33.799492, Alt.=114.743225m. Speed=22.212000m/h.</desc>
<speed>6.170000</speed>
</trkpt>
<trkpt lat="44.703777" lon="33.799332">
<ele>114.682678</ele>
<time>2011-10-10T08:05:02Z</time>
<desc>lat.=44.703777, lon.=33.799332, Alt.=114.682678m. Speed=22.535999m/h.</desc>
<speed>6.260000</speed>
</trkpt>
<trkpt lat="44.703552" lon="33.799129">
<ele>115.678772</ele>
<time>2011-10-10T08:05:07Z</time>
<desc>lat.=44.703552, lon.=33.799129, Alt.=115.678772m. Speed=20.304001m/h.</desc>
<speed>5.640000</speed>
</trkpt>
<trkpt lat="44.703350" lon="33.798931">
<ele>116.475647</ele>
<time>2011-10-10T08:05:12Z</time>
<desc>lat.=44.703350, lon.=33.798931, Alt.=116.475647m. Speed=20.124001m/h.</desc>
<speed>5.590000</speed>
</trkpt>
<trkpt lat="44.703136" lon="33.798698">
<ele>116.913147</ele>
<time>2011-10-10T08:05:17Z</time>
<desc>lat.=44.703136, lon.=33.798698, Alt.=116.913147m. Speed=24.444000m/h.</desc>
<speed>6.790000</speed>
</trkpt>
<trkpt lat="44.702896" lon="33.798439">
<ele>117.225647</ele>
<time>2011-10-10T08:05:22Z</time>
<desc>lat.=44.702896, lon.=33.798439, Alt.=117.225647m. Speed=24.552000m/h.</desc>
<speed>6.820000</speed>
</trkpt>
<trkpt lat="44.702652" lon="33.798172">
<ele>118.172913</ele>
<time>2011-10-10T08:05:27Z</time>
<desc>lat.=44.702652, lon.=33.798172, Alt.=118.172913m. Speed=25.308001m/h.</desc>
<speed>7.030000</speed>
</trkpt>
<trkpt lat="44.702415" lon="33.797897">
<ele>118.592834</ele>
<time>2011-10-10T08:05:32Z</time>
<desc>lat.=44.702415, lon.=33.797897, Alt.=118.592834m. Speed=24.299999m/h.</desc>
<speed>6.750000</speed>
</trkpt>
<trkpt lat="44.702179" lon="33.797615">
<ele>118.739319</ele>
<time>2011-10-10T08:05:37Z</time>
<desc>lat.=44.702179, lon.=33.797615, Alt.=118.739319m. Speed=24.191999m/h.</desc>
<speed>6.720000</speed>
</trkpt>
<trkpt lat="44.701965" lon="33.797363">
<ele>118.745178</ele>
<time>2011-10-10T08:05:42Z</time>
<desc>lat.=44.701965, lon.=33.797363, Alt.=118.745178m. Speed=21.959999m/h.</desc>
<speed>6.100000</speed>
</trkpt>
<trkpt lat="44.701756" lon="33.797127">
<ele>119.184631</ele>
<time>2011-10-10T08:05:47Z</time>
<desc>lat.=44.701756, lon.=33.797127, Alt.=119.184631m. Speed=20.160000m/h.</desc>
<speed>5.600000</speed>
</trkpt>
<trkpt lat="44.701561" lon="33.796894">
<ele>118.770569</ele>
<time>2011-10-10T08:05:52Z</time>
<desc>lat.=44.701561, lon.=33.796894, Alt.=118.770569m. Speed=19.980000m/h.</desc>
<speed>5.550000</speed>
</trkpt>
<trkpt lat="44.701382" lon="33.796707">
<ele>118.368225</ele>
<time>2011-10-10T08:05:57Z</time>
<desc>lat.=44.701382, lon.=33.796707, Alt.=118.368225m. Speed=17.316000m/h.</desc>
<speed>4.810000</speed>
</trkpt>
<trkpt lat="44.701214" lon="33.796520">
<ele>117.336975</ele>
<time>2011-10-10T08:06:02Z</time>
<desc>lat.=44.701214, lon.=33.796520, Alt.=117.336975m. Speed=16.596001m/h.</desc>
<speed>4.610000</speed>
</trkpt>
<trkpt lat="44.701012" lon="33.796284">
<ele>114.618225</ele>
<time>2011-10-10T08:06:07Z</time>
<desc>lat.=44.701012, lon.=33.796284, Alt.=114.618225m. Speed=23.615999m/h.</desc>
<speed>6.560000</speed>
</trkpt>
<trkpt lat="44.700768" lon="33.795975">
<ele>113.077209</ele>
<time>2011-10-10T08:06:12Z</time>
<desc>lat.=44.700768, lon.=33.795975, Alt.=113.077209m. Speed=27.719999m/h.</desc>
<speed>7.700000</speed>
</trkpt>
<trkpt lat="44.700500" lon="33.795643">
<ele>111.215881</ele>
<time>2011-10-10T08:06:17Z</time>
<desc>lat.=44.700500, lon.=33.795643, Alt.=111.215881m. Speed=29.232000m/h.</desc>
<speed>8.120000</speed>
</trkpt>
<trkpt lat="44.700218" lon="33.795269">
<ele>108.002991</ele>
<time>2011-10-10T08:06:22Z</time>
<desc>lat.=44.700218, lon.=33.795269, Alt.=108.002991m. Speed=32.220001m/h.</desc>
<speed>8.950000</speed>
</trkpt>
<trkpt lat="44.699997" lon="33.794788">
<ele>106.434631</ele>
<time>2011-10-10T08:06:27Z</time>
<desc>lat.=44.699997, lon.=33.794788, Alt.=106.434631m. Speed=32.400002m/h.</desc>
<speed>9.000000</speed>
</trkpt>
<trkpt lat="44.699924" lon="33.794258">
<ele>104.807678</ele>
<time>2011-10-10T08:06:32Z</time>
<desc>lat.=44.699924, lon.=33.794258, Alt.=104.807678m. Speed=27.900000m/h.</desc>
<speed>7.750000</speed>
</trkpt>
<trkpt lat="44.699829" lon="33.793819">
<ele>102.704163</ele>
<time>2011-10-10T08:06:37Z</time>
<desc>lat.=44.699829, lon.=33.793819, Alt.=102.704163m. Speed=27.719999m/h.</desc>
<speed>7.700000</speed>
</trkpt>
<trkpt lat="44.699539" lon="33.793476">
<ele>103.815491</ele>
<time>2011-10-10T08:06:42Z</time>
<desc>lat.=44.699539, lon.=33.793476, Alt.=103.815491m. Speed=29.736000m/h.</desc>
<speed>8.260000</speed>
</trkpt>
<trkpt lat="44.699234" lon="33.793144">
<ele>104.075256</ele>
<time>2011-10-10T08:06:47Z</time>
<desc>lat.=44.699234, lon.=33.793144, Alt.=104.075256m. Speed=30.888000m/h.</desc>
<speed>8.580000</speed>
</trkpt>
<trkpt lat="44.698936" lon="33.792816">
<ele>103.760803</ele>
<time>2011-10-10T08:06:52Z</time>
<desc>lat.=44.698936, lon.=33.792816, Alt.=103.760803m. Speed=29.195999m/h.</desc>
<speed>8.110000</speed>
</trkpt>
<trkpt lat="44.698662" lon="33.792515">
<ele>103.211975</ele>
<time>2011-10-10T08:06:57Z</time>
<desc>lat.=44.698662, lon.=33.792515, Alt.=103.211975m. Speed=27.792000m/h.</desc>
<speed>7.720000</speed>
</trkpt>
<trkpt lat="44.698380" lon="33.792191">
<ele>103.090881</ele>
<time>2011-10-10T08:07:02Z</time>
<desc>lat.=44.698380, lon.=33.792191, Alt.=103.090881m. Speed=29.195999m/h.</desc>
<speed>8.110000</speed>
</trkpt>
<trkpt lat="44.698086" lon="33.791874">
<ele>103.889709</ele>
<time>2011-10-10T08:07:07Z</time>
<desc>lat.=44.698086, lon.=33.791874, Alt.=103.889709m. Speed=29.628000m/h.</desc>
<speed>8.230000</speed>
</trkpt>
<trkpt lat="44.697792" lon="33.791557">
<ele>104.213928</ele>
<time>2011-10-10T08:07:12Z</time>
<desc>lat.=44.697792, lon.=33.791557, Alt.=104.213928m. Speed=28.188000m/h.</desc>
<speed>7.830000</speed>
</trkpt>
<trkpt lat="44.697529" lon="33.791279">
<ele>104.745178</ele>
<time>2011-10-10T08:07:17Z</time>
<desc>lat.=44.697529, lon.=33.791279, Alt.=104.745178m. Speed=25.559999m/h.</desc>
<speed>7.100000</speed>
</trkpt>
<trkpt lat="44.697266" lon="33.791004">
<ele>104.376038</ele>
<time>2011-10-10T08:07:22Z</time>
<desc>lat.=44.697266, lon.=33.791004, Alt.=104.376038m. Speed=24.912001m/h.</desc>
<speed>6.920000</speed>
</trkpt>
<trkpt lat="44.697079" lon="33.790691">
<ele>104.405334</ele>
<time>2011-10-10T08:07:27Z</time>
<desc>lat.=44.697079, lon.=33.790691, Alt.=104.405334m. Speed=20.879999m/h.</desc>
<speed>5.800000</speed>
</trkpt>
<trkpt lat="44.696945" lon="33.790470">
<ele>104.651428</ele>
<time>2011-10-10T08:07:32Z</time>
<desc>lat.=44.696945, lon.=33.790470, Alt.=104.651428m. Speed=15.264000m/h.</desc>
<speed>4.240000</speed>
</trkpt>
<trkpt lat="44.696789" lon="33.790436">
<ele>104.417053</ele>
<time>2011-10-10T08:07:37Z</time>
<desc>lat.=44.696789, lon.=33.790436, Alt.=104.417053m. Speed=7.992000m/h.</desc>
<speed>2.220000</speed>
</trkpt>
<trkpt lat="44.696732" lon="33.790436">
<ele>104.143616</ele>
<time>2011-10-10T08:07:42Z</time>
<desc>lat.=44.696732, lon.=33.790436, Alt.=104.143616m. Speed=6.552000m/h.</desc>
<speed>1.820000</speed>
</trkpt>
<trkpt lat="44.696690" lon="33.790436">
<ele>103.735413</ele>
<time>2011-10-10T08:07:47Z</time>
<desc>lat.=44.696690, lon.=33.790436, Alt.=103.735413m. Speed=0.288000m/h.</desc>
<speed>0.080000</speed>
</trkpt>
<trkpt lat="44.696690" lon="33.790440">
<ele>103.585022</ele>
<time>2011-10-10T08:07:52Z</time>
<desc>lat.=44.696690, lon.=33.790440, Alt.=103.585022m. Speed=0.072000m/h.</desc>
<speed>0.020000</speed>
</trkpt>
<trkpt lat="44.696690" lon="33.790443">
<ele>103.538147</ele>
<time>2011-10-10T08:07:57Z</time>
<desc>lat.=44.696690, lon.=33.790443, Alt.=103.538147m. Speed=0.000000m/h.</desc>
<speed>0.000000</speed>
</trkpt>
<trkpt lat="44.696693" lon="33.790443">
<ele>103.540100</ele>
<time>2011-10-10T08:08:02Z</time>
<desc>lat.=44.696693, lon.=33.790443, Alt.=103.540100m. Speed=0.432000m/h.</desc>
<speed>0.120000</speed>
</trkpt>
<trkpt lat="44.696693" lon="33.790443">
<ele>103.594788</ele>
<time>2011-10-10T08:08:07Z</time>
<desc>lat.=44.696693, lon.=33.790443, Alt.=103.594788m. Speed=0.000000m/h.</desc>
<speed>0.000000</speed>
</trkpt>
<trkpt lat="44.696693" lon="33.790443">
<ele>103.629944</ele>
<time>2011-10-10T08:08:12Z</time>
<desc>lat.=44.696693, lon.=33.790443, Alt.=103.629944m. Speed=0.036000m/h.</desc>
<speed>0.010000</speed>
</trkpt>
<trkpt lat="44.696693" lon="33.790443">
<ele>103.651428</ele>
<time>2011-10-10T08:08:17Z</time>
<desc>lat.=44.696693, lon.=33.790443, Alt.=103.651428m. Speed=0.036000m/h.</desc>
<speed>0.010000</speed>
</trkpt>
<trkpt lat="44.696693" lon="33.790443">
<ele>103.678772</ele>
<time>2011-10-10T08:08:22Z</time>
<desc>lat.=44.696693, lon.=33.790443, Alt.=103.678772m. Speed=0.000000m/h.</desc>
<speed>0.000000</speed>
</trkpt>
<trkpt lat="44.696693" lon="33.790443">
<ele>103.696350</ele>
<time>2011-10-10T08:08:27Z</time>
<desc>lat.=44.696693, lon.=33.790443, Alt.=103.696350m. Speed=0.000000m/h.</desc>
<speed>0.000000</speed>
</trkpt>
<trkpt lat="44.696693" lon="33.790447">
<ele>104.612366</ele>
<time>2011-10-10T08:08:32Z</time>
<desc>lat.=44.696693, lon.=33.790447, Alt.=104.612366m. Speed=0.036000m/h.</desc>
<speed>0.010000</speed>
</trkpt>
<trkpt lat="44.696686" lon="33.790447">
<ele>105.286194</ele>
<time>2011-10-10T08:08:37Z</time>
<desc>lat.=44.696686, lon.=33.790447, Alt.=105.286194m. Speed=0.720000m/h.</desc>
<speed>0.200000</speed>
</trkpt>
<trkpt lat="44.696686" lon="33.790451">
<ele>105.376038</ele>
<time>2011-10-10T08:08:42Z</time>
<desc>lat.=44.696686, lon.=33.790451, Alt.=105.376038m. Speed=0.108000m/h.</desc>
<speed>0.030000</speed>
</trkpt>
<trkpt lat="44.696690" lon="33.790455">
<ele>105.596741</ele>
<time>2011-10-10T08:08:47Z</time>
<desc>lat.=44.696690, lon.=33.790455, Alt.=105.596741m. Speed=0.468000m/h.</desc>
<speed>0.130000</speed>
</trkpt>
<trkpt lat="44.696690" lon="33.790462">
<ele>105.754944</ele>
<time>2011-10-10T08:08:52Z</time>
<desc>lat.=44.696690, lon.=33.790462, Alt.=105.754944m. Speed=0.036000m/h.</desc>
<speed>0.010000</speed>
</trkpt>
<trkpt lat="44.696690" lon="33.790462">
<ele>106.631897</ele>
<time>2011-10-10T08:08:57Z</time>
<desc>lat.=44.696690, lon.=33.790462, Alt.=106.631897m. Speed=0.072000m/h.</desc>
<speed>0.020000</speed>
</trkpt>
<trkpt lat="44.696690" lon="33.790459">
<ele>107.432678</ele>
<time>2011-10-10T08:09:02Z</time>
<desc>lat.=44.696690, lon.=33.790459, Alt.=107.432678m. Speed=0.108000m/h.</desc>
<speed>0.030000</speed>
</trkpt>
<trkpt lat="44.696690" lon="33.790459">
<ele>107.627991</ele>
<time>2011-10-10T08:09:07Z</time>
<desc>lat.=44.696690, lon.=33.790459, Alt.=107.627991m. Speed=0.036000m/h.</desc>
<speed>0.010000</speed>
</trkpt>
<trkpt lat="44.696686" lon="33.790459">
<ele>108.397522</ele>
<time>2011-10-10T08:09:12Z</time>
<desc>lat.=44.696686, lon.=33.790459, Alt.=108.397522m. Speed=0.000000m/h.</desc>
<speed>0.000000</speed>
</trkpt>
<trkpt lat="44.696686" lon="33.790455">
<ele>108.532288</ele>
<time>2011-10-10T08:09:17Z</time>
<desc>lat.=44.696686, lon.=33.790455, Alt.=108.532288m. Speed=0.108000m/h.</desc>
<speed>0.030000</speed>
</trkpt>
<trkpt lat="44.696682" lon="33.790451">
<ele>108.717834</ele>
<time>2011-10-10T08:09:22Z</time>
<desc>lat.=44.696682, lon.=33.790451, Alt.=108.717834m. Speed=0.000000m/h.</desc>
<speed>0.000000</speed>
</trkpt>
<trkpt lat="44.696682" lon="33.790459">
<ele>109.633850</ele>
<time>2011-10-10T08:09:27Z</time>
<desc>lat.=44.696682, lon.=33.790459, Alt.=109.633850m. Speed=0.036000m/h.</desc>
<speed>0.010000</speed>
</trkpt>
<trkpt lat="44.696686" lon="33.790455">
<ele>109.995178</ele>
<time>2011-10-10T08:09:32Z</time>
<desc>lat.=44.696686, lon.=33.790455, Alt.=109.995178m. Speed=0.216000m/h.</desc>
<speed>0.060000</speed>
</trkpt>
<trkpt lat="44.696682" lon="33.790459">
<ele>110.456116</ele>
<time>2011-10-10T08:09:37Z</time>
<desc>lat.=44.696682, lon.=33.790459, Alt.=110.456116m. Speed=0.036000m/h.</desc>
<speed>0.010000</speed>
</trkpt>
<trkpt lat="44.696686" lon="33.790451">
<ele>110.520569</ele>
<time>2011-10-10T08:09:42Z</time>
<desc>lat.=44.696686, lon.=33.790451, Alt.=110.520569m. Speed=0.000000m/h.</desc>
<speed>0.000000</speed>
</trkpt>
<trkpt lat="44.696682" lon="33.790451">
<ele>110.946350</ele>
<time>2011-10-10T08:09:47Z</time>
<desc>lat.=44.696682, lon.=33.790451, Alt.=110.946350m. Speed=0.000000m/h.</desc>
<speed>0.000000</speed>
</trkpt>
<trkpt lat="44.696682" lon="33.790451">
<ele>110.946350</ele>
<time>2011-10-10T08:09:52Z</time>
<desc>lat.=44.696682, lon.=33.790451, Alt.=110.946350m. Speed=0.000000m/h.</desc>
<speed>0.000000</speed>
</trkpt>
<trkpt lat="44.696682" lon="33.790451">
<ele>110.948303</ele>
<time>2011-10-10T08:09:57Z</time>
<desc>lat.=44.696682, lon.=33.790451, Alt.=110.948303m. Speed=0.072000m/h.</desc>
<speed>0.020000</speed>
</trkpt>
<trkpt lat="44.696682" lon="33.790451">
<ele>110.956116</ele>
<time>2011-10-10T08:10:02Z</time>
<desc>lat.=44.696682, lon.=33.790451, Alt.=110.956116m. Speed=0.000000m/h.</desc>
<speed>0.000000</speed>
</trkpt>
<trkpt lat="44.696682" lon="33.790451">
<ele>110.965881</ele>
<time>2011-10-10T08:10:07Z</time>
<desc>lat.=44.696682, lon.=33.790451, Alt.=110.965881m. Speed=0.000000m/h.</desc>
<speed>0.000000</speed>
</trkpt>
<trkpt lat="44.696682" lon="33.790451">
<ele>110.971741</ele>
<time>2011-10-10T08:10:12Z</time>
<desc>lat.=44.696682, lon.=33.790451, Alt.=110.971741m. Speed=0.000000m/h.</desc>
<speed>0.000000</speed>
</trkpt>
<trkpt lat="44.696682" lon="33.790455">
<ele>111.143616</ele>
<time>2011-10-10T08:10:17Z</time>
<desc>lat.=44.696682, lon.=33.790455, Alt.=111.143616m. Speed=0.000000m/h.</desc>
<speed>0.000000</speed>
</trkpt>
<trkpt lat="44.696686" lon="33.790455">
<ele>111.348694</ele>
<time>2011-10-10T08:10:22Z</time>
<desc>lat.=44.696686, lon.=33.790455, Alt.=111.348694m. Speed=0.000000m/h.</desc>
<speed>0.000000</speed>
</trkpt>
<trkpt lat="44.696686" lon="33.790455">
<ele>111.803772</ele>
<time>2011-10-10T08:10:27Z</time>
<desc>lat.=44.696686, lon.=33.790455, Alt.=111.803772m. Speed=0.000000m/h.</desc>
<speed>0.000000</speed>
</trkpt>
<trkpt lat="44.696686" lon="33.790455">
<ele>112.129944</ele>
<time>2011-10-10T08:10:32Z</time>
<desc>lat.=44.696686, lon.=33.790455, Alt.=112.129944m. Speed=0.000000m/h.</desc>
<speed>0.000000</speed>
</trkpt>
<trkpt lat="44.696686" lon="33.790451">
<ele>112.288147</ele>
<time>2011-10-10T08:10:37Z</time>
<desc>lat.=44.696686, lon.=33.790451, Alt.=112.288147m. Speed=0.000000m/h.</desc>
<speed>0.000000</speed>
</trkpt>
<trkpt lat="44.696690" lon="33.790443">
<ele>111.954163</ele>
<time>2011-10-10T08:10:42Z</time>
<desc>lat.=44.696690, lon.=33.790443, Alt.=111.954163m. Speed=0.072000m/h.</desc>
<speed>0.020000</speed>
</trkpt>
<trkpt lat="44.696693" lon="33.790440">
<ele>111.751038</ele>
<time>2011-10-10T08:10:47Z</time>
<desc>lat.=44.696693, lon.=33.790440, Alt.=111.751038m. Speed=0.000000m/h.</desc>
<speed>0.000000</speed>
</trkpt>
<trkpt lat="44.696690" lon="33.790440">
<ele>111.893616</ele>
<time>2011-10-10T08:10:52Z</time>
<desc>lat.=44.696690, lon.=33.790440, Alt.=111.893616m. Speed=0.000000m/h.</desc>
<speed>0.000000</speed>
</trkpt>
<trkpt lat="44.696690" lon="33.790443">
<ele>111.948303</ele>
<time>2011-10-10T08:10:57Z</time>
<desc>lat.=44.696690, lon.=33.790443, Alt.=111.948303m. Speed=0.036000m/h.</desc>
<speed>0.010000</speed>
</trkpt>
<trkpt lat="44.696671" lon="33.790455">
<ele>111.961975</ele>
<time>2011-10-10T08:11:02Z</time>
<desc>lat.=44.696671, lon.=33.790455, Alt.=111.961975m. Speed=4.932000m/h.</desc>
<speed>1.370000</speed>
</trkpt>
<trkpt lat="44.696613" lon="33.790462">
<ele>110.620178</ele>
<time>2011-10-10T08:11:07Z</time>
<desc>lat.=44.696613, lon.=33.790462, Alt.=110.620178m. Speed=6.516000m/h.</desc>
<speed>1.810000</speed>
</trkpt>
<trkpt lat="44.696503" lon="33.790497">
<ele>110.915100</ele>
<time>2011-10-10T08:11:12Z</time>
<desc>lat.=44.696503, lon.=33.790497, Alt.=110.915100m. Speed=10.872000m/h.</desc>
<speed>3.020000</speed>
</trkpt>
<trkpt lat="44.696316" lon="33.790554">
<ele>110.137756</ele>
<time>2011-10-10T08:11:17Z</time>
<desc>lat.=44.696316, lon.=33.790554, Alt.=110.137756m. Speed=19.764000m/h.</desc>
<speed>5.490000</speed>
</trkpt>
<trkpt lat="44.696064" lon="33.790607">
<ele>110.063538</ele>
<time>2011-10-10T08:11:22Z</time>
<desc>lat.=44.696064, lon.=33.790607, Alt.=110.063538m. Speed=19.944000m/h.</desc>
<speed>5.540000</speed>
</trkpt>
<trkpt lat="44.695820" lon="33.790649">
<ele>110.008850</ele>
<time>2011-10-10T08:11:27Z</time>
<desc>lat.=44.695820, lon.=33.790649, Alt.=110.008850m. Speed=20.375999m/h.</desc>
<speed>5.660000</speed>
</trkpt>
<trkpt lat="44.695572" lon="33.790699">
<ele>109.833069</ele>
<time>2011-10-10T08:11:32Z</time>
<desc>lat.=44.695572, lon.=33.790699, Alt.=109.833069m. Speed=20.628000m/h.</desc>
<speed>5.730000</speed>
</trkpt>
<trkpt lat="44.695293" lon="33.790752">
<ele>109.641663</ele>
<time>2011-10-10T08:11:37Z</time>
<desc>lat.=44.695293, lon.=33.790752, Alt.=109.641663m. Speed=23.256001m/h.</desc>
<speed>6.460000</speed>
</trkpt>
<trkpt lat="44.695007" lon="33.790798">
<ele>110.208069</ele>
<time>2011-10-10T08:11:42Z</time>
<desc>lat.=44.695007, lon.=33.790798, Alt.=110.208069m. Speed=21.096001m/h.</desc>
<speed>5.860000</speed>
</trkpt>
<trkpt lat="44.694763" lon="33.790852">
<ele>109.251038</ele>
<time>2011-10-10T08:11:47Z</time>
<desc>lat.=44.694763, lon.=33.790852, Alt.=109.251038m. Speed=19.224001m/h.</desc>
<speed>5.340000</speed>
</trkpt>
<trkpt lat="44.694489" lon="33.790913">
<ele>109.518616</ele>
<time>2011-10-10T08:11:52Z</time>
<desc>lat.=44.694489, lon.=33.790913, Alt.=109.518616m. Speed=22.968000m/h.</desc>
<speed>6.380000</speed>
</trkpt>
<trkpt lat="44.694199" lon="33.790974">
<ele>109.856506</ele>
<time>2011-10-10T08:11:57Z</time>
<desc>lat.=44.694199, lon.=33.790974, Alt.=109.856506m. Speed=22.788000m/h.</desc>
<speed>6.330000</speed>
</trkpt>
<trkpt lat="44.693928" lon="33.791023">
<ele>109.891663</ele>
<time>2011-10-10T08:12:02Z</time>
<desc>lat.=44.693928, lon.=33.791023, Alt.=109.891663m. Speed=22.068001m/h.</desc>
<speed>6.130000</speed>
</trkpt>
<trkpt lat="44.693657" lon="33.791077">
<ele>109.710022</ele>
<time>2011-10-10T08:12:07Z</time>
<desc>lat.=44.693657, lon.=33.791077, Alt.=109.710022m. Speed=21.384001m/h.</desc>
<speed>5.940000</speed>
</trkpt>
<trkpt lat="44.693386" lon="33.791138">
<ele>108.936584</ele>
<time>2011-10-10T08:12:12Z</time>
<desc>lat.=44.693386, lon.=33.791138, Alt.=108.936584m. Speed=22.032000m/h.</desc>
<speed>6.120000</speed>
</trkpt>
<trkpt lat="44.693111" lon="33.791187">
<ele>108.852600</ele>
<time>2011-10-10T08:12:17Z</time>
<desc>lat.=44.693111, lon.=33.791187, Alt.=108.852600m. Speed=22.752001m/h.</desc>
<speed>6.320000</speed>
</trkpt>
<trkpt lat="44.692825" lon="33.791241">
<ele>108.674866</ele>
<time>2011-10-10T08:12:22Z</time>
<desc>lat.=44.692825, lon.=33.791241, Alt.=108.674866m. Speed=23.760000m/h.</desc>
<speed>6.600000</speed>
</trkpt>
<trkpt lat="44.692532" lon="33.791298">
<ele>107.887756</ele>
<time>2011-10-10T08:12:27Z</time>
<desc>lat.=44.692532, lon.=33.791298, Alt.=107.887756m. Speed=24.516001m/h.</desc>
<speed>6.810000</speed>
</trkpt>
<trkpt lat="44.692204" lon="33.791355">
<ele>107.872131</ele>
<time>2011-10-10T08:12:32Z</time>
<desc>lat.=44.692204, lon.=33.791355, Alt.=107.872131m. Speed=27.540001m/h.</desc>
<speed>7.650000</speed>
</trkpt>
<trkpt lat="44.691860" lon="33.791428">
<ele>107.772522</ele>
<time>2011-10-10T08:12:37Z</time>
<desc>lat.=44.691860, lon.=33.791428, Alt.=107.772522m. Speed=27.504000m/h.</desc>
<speed>7.640000</speed>
</trkpt>
<trkpt lat="44.691517" lon="33.791485">
<ele>108.657288</ele>
<time>2011-10-10T08:12:42Z</time>
<desc>lat.=44.691517, lon.=33.791485, Alt.=108.657288m. Speed=28.728001m/h.</desc>
<speed>7.980000</speed>
</trkpt>
<trkpt lat="44.691151" lon="33.791569">
<ele>107.784241</ele>
<time>2011-10-10T08:12:47Z</time>
<desc>lat.=44.691151, lon.=33.791569, Alt.=107.784241m. Speed=28.620001m/h.</desc>
<speed>7.950000</speed>
</trkpt>
<trkpt lat="44.690804" lon="33.791641">
<ele>107.901428</ele>
<time>2011-10-10T08:12:52Z</time>
<desc>lat.=44.690804, lon.=33.791641, Alt.=107.901428m. Speed=27.072001m/h.</desc>
<speed>7.520000</speed>
</trkpt>
<trkpt lat="44.690453" lon="33.791714">
<ele>106.946350</ele>
<time>2011-10-10T08:12:57Z</time>
<desc>lat.=44.690453, lon.=33.791714, Alt.=106.946350m. Speed=27.468000m/h.</desc>
<speed>7.630000</speed>
</trkpt>
<trkpt lat="44.690125" lon="33.791782">
<ele>105.458069</ele>
<time>2011-10-10T08:13:02Z</time>
<desc>lat.=44.690125, lon.=33.791782, Alt.=105.458069m. Speed=25.920000m/h.</desc>
<speed>7.200000</speed>
</trkpt>
<trkpt lat="44.689800" lon="33.791847">
<ele>105.112366</ele>
<time>2011-10-10T08:13:07Z</time>
<desc>lat.=44.689800, lon.=33.791847, Alt.=105.112366m. Speed=26.028000m/h.</desc>
<speed>7.230000</speed>
</trkpt>
<trkpt lat="44.689476" lon="33.791927">
<ele>104.754944</ele>
<time>2011-10-10T08:13:12Z</time>
<desc>lat.=44.689476, lon.=33.791927, Alt.=104.754944m. Speed=26.100000m/h.</desc>
<speed>7.250000</speed>
</trkpt>
<trkpt lat="44.689156" lon="33.791985">
<ele>103.811584</ele>
<time>2011-10-10T08:13:17Z</time>
<desc>lat.=44.689156, lon.=33.791985, Alt.=103.811584m. Speed=24.695999m/h.</desc>
<speed>6.860000</speed>
</trkpt>
<trkpt lat="44.688858" lon="33.792042">
<ele>103.602600</ele>
<time>2011-10-10T08:13:22Z</time>
<desc>lat.=44.688858, lon.=33.792042, Alt.=103.602600m. Speed=23.219999m/h.</desc>
<speed>6.450000</speed>
</trkpt>
<trkpt lat="44.688557" lon="33.792103">
<ele>103.360413</ele>
<time>2011-10-10T08:13:27Z</time>
<desc>lat.=44.688557, lon.=33.792103, Alt.=103.360413m. Speed=25.271999m/h.</desc>
<speed>7.020000</speed>
</trkpt>
<trkpt lat="44.688240" lon="33.792164">
<ele>103.659241</ele>
<time>2011-10-10T08:13:32Z</time>
<desc>lat.=44.688240, lon.=33.792164, Alt.=103.659241m. Speed=25.271999m/h.</desc>
<speed>7.020000</speed>
</trkpt>
<trkpt lat="44.687927" lon="33.792221">
<ele>103.747131</ele>
<time>2011-10-10T08:13:37Z</time>
<desc>lat.=44.687927, lon.=33.792221, Alt.=103.747131m. Speed=25.667999m/h.</desc>
<speed>7.130000</speed>
</trkpt>
<trkpt lat="44.687611" lon="33.792290">
<ele>104.434631</ele>
<time>2011-10-10T08:13:42Z</time>
<desc>lat.=44.687611, lon.=33.792290, Alt.=104.434631m. Speed=25.848000m/h.</desc>
<speed>7.180000</speed>
</trkpt>
<trkpt lat="44.687294" lon="33.792351">
<ele>104.797913</ele>
<time>2011-10-10T08:13:47Z</time>
<desc>lat.=44.687294, lon.=33.792351, Alt.=104.797913m. Speed=25.091999m/h.</desc>
<speed>6.970000</speed>
</trkpt>
<trkpt lat="44.686985" lon="33.792412">
<ele>105.044006</ele>
<time>2011-10-10T08:13:52Z</time>
<desc>lat.=44.686985, lon.=33.792412, Alt.=105.044006m. Speed=24.444000m/h.</desc>
<speed>6.790000</speed>
</trkpt>
<trkpt lat="44.686676" lon="33.792450">
<ele>104.940491</ele>
<time>2011-10-10T08:13:57Z</time>
<desc>lat.=44.686676, lon.=33.792450, Alt.=104.940491m. Speed=24.299999m/h.</desc>
<speed>6.750000</speed>
</trkpt>
<trkpt lat="44.686378" lon="33.792458">
<ele>105.188538</ele>
<time>2011-10-10T08:14:02Z</time>
<desc>lat.=44.686378, lon.=33.792458, Alt.=105.188538m. Speed=23.004000m/h.</desc>
<speed>6.390000</speed>
</trkpt>
<trkpt lat="44.686108" lon="33.792461">
<ele>105.838928</ele>
<time>2011-10-10T08:14:07Z</time>
<desc>lat.=44.686108, lon.=33.792461, Alt.=105.838928m. Speed=21.312000m/h.</desc>
<speed>5.920000</speed>
</trkpt>
<trkpt lat="44.685852" lon="33.792442">
<ele>106.385803</ele>
<time>2011-10-10T08:14:12Z</time>
<desc>lat.=44.685852, lon.=33.792442, Alt.=106.385803m. Speed=20.016001m/h.</desc>
<speed>5.560000</speed>
</trkpt>
<trkpt lat="44.685593" lon="33.792431">
<ele>106.797913</ele>
<time>2011-10-10T08:14:17Z</time>
<desc>lat.=44.685593, lon.=33.792431, Alt.=106.797913m. Speed=21.024000m/h.</desc>
<speed>5.840000</speed>
</trkpt>
<trkpt lat="44.685341" lon="33.792423">
<ele>107.473694</ele>
<time>2011-10-10T08:14:22Z</time>
<desc>lat.=44.685341, lon.=33.792423, Alt.=107.473694m. Speed=20.448000m/h.</desc>
<speed>5.680000</speed>
</trkpt>
<trkpt lat="44.685081" lon="33.792408">
<ele>108.045959</ele>
<time>2011-10-10T08:14:27Z</time>
<desc>lat.=44.685081, lon.=33.792408, Alt.=108.045959m. Speed=21.924000m/h.</desc>
<speed>6.090000</speed>
</trkpt>
<trkpt lat="44.684803" lon="33.792389">
<ele>108.325256</ele>
<time>2011-10-10T08:14:32Z</time>
<desc>lat.=44.684803, lon.=33.792389, Alt.=108.325256m. Speed=22.752001m/h.</desc>
<speed>6.320000</speed>
</trkpt>
<trkpt lat="44.684521" lon="33.792381">
<ele>108.508850</ele>
<time>2011-10-10T08:14:37Z</time>
<desc>lat.=44.684521, lon.=33.792381, Alt.=108.508850m. Speed=21.816000m/h.</desc>
<speed>6.060000</speed>
</trkpt>
<trkpt lat="44.684250" lon="33.792370">
<ele>109.288147</ele>
<time>2011-10-10T08:14:42Z</time>
<desc>lat.=44.684250, lon.=33.792370, Alt.=109.288147m. Speed=21.996000m/h.</desc>
<speed>6.110000</speed>
</trkpt>
<trkpt lat="44.683979" lon="33.792355">
<ele>109.588928</ele>
<time>2011-10-10T08:14:47Z</time>
<desc>lat.=44.683979, lon.=33.792355, Alt.=109.588928m. Speed=21.455999m/h.</desc>
<speed>5.960000</speed>
</trkpt>
<trkpt lat="44.683716" lon="33.792336">
<ele>109.981506</ele>
<time>2011-10-10T08:14:52Z</time>
<desc>lat.=44.683716, lon.=33.792336, Alt.=109.981506m. Speed=20.412001m/h.</desc>
<speed>5.670000</speed>
</trkpt>
<trkpt lat="44.683468" lon="33.792328">
<ele>109.635803</ele>
<time>2011-10-10T08:14:57Z</time>
<desc>lat.=44.683468, lon.=33.792328, Alt.=109.635803m. Speed=19.872000m/h.</desc>
<speed>5.520000</speed>
</trkpt>
<trkpt lat="44.683220" lon="33.792320">
<ele>109.284241</ele>
<time>2011-10-10T08:15:02Z</time>
<desc>lat.=44.683220, lon.=33.792320, Alt.=109.284241m. Speed=19.872000m/h.</desc>
<speed>5.520000</speed>
</trkpt>
<trkpt lat="44.682968" lon="33.792305">
<ele>108.710022</ele>
<time>2011-10-10T08:15:07Z</time>
<desc>lat.=44.682968, lon.=33.792305, Alt.=108.710022m. Speed=21.059999m/h.</desc>
<speed>5.850000</speed>
</trkpt>
<trkpt lat="44.682701" lon="33.792290">
<ele>108.196350</ele>
<time>2011-10-10T08:15:12Z</time>
<desc>lat.=44.682701, lon.=33.792290, Alt.=108.196350m. Speed=22.643999m/h.</desc>
<speed>6.290000</speed>
</trkpt>
<trkpt lat="44.682411" lon="33.792278">
<ele>107.963928</ele>
<time>2011-10-10T08:15:17Z</time>
<desc>lat.=44.682411, lon.=33.792278, Alt.=107.963928m. Speed=23.219999m/h.</desc>
<speed>6.450000</speed>
</trkpt>
<trkpt lat="44.682110" lon="33.792267">
<ele>107.368225</ele>
<time>2011-10-10T08:15:22Z</time>
<desc>lat.=44.682110, lon.=33.792267, Alt.=107.368225m. Speed=23.976000m/h.</desc>
<speed>6.660000</speed>
</trkpt>
<trkpt lat="44.681793" lon="33.792255">
<ele>106.391663</ele>
<time>2011-10-10T08:15:27Z</time>
<desc>lat.=44.681793, lon.=33.792255, Alt.=106.391663m. Speed=27.576000m/h.</desc>
<speed>7.660000</speed>
</trkpt>
<trkpt lat="44.681419" lon="33.792233">
<ele>104.907288</ele>
<time>2011-10-10T08:15:32Z</time>
<desc>lat.=44.681419, lon.=33.792233, Alt.=104.907288m. Speed=30.851999m/h.</desc>
<speed>8.570000</speed>
</trkpt>
<trkpt lat="44.681042" lon="33.792213">
<ele>104.661194</ele>
<time>2011-10-10T08:15:37Z</time>
<desc>lat.=44.681042, lon.=33.792213, Alt.=104.661194m. Speed=28.799999m/h.</desc>
<speed>8.000000</speed>
</trkpt>
<trkpt lat="44.680676" lon="33.792194">
<ele>105.415100</ele>
<time>2011-10-10T08:15:42Z</time>
<desc>lat.=44.680676, lon.=33.792194, Alt.=105.415100m. Speed=29.304001m/h.</desc>
<speed>8.140000</speed>
</trkpt>
<trkpt lat="44.680321" lon="33.792175">
<ele>106.467834</ele>
<time>2011-10-10T08:15:47Z</time>
<desc>lat.=44.680321, lon.=33.792175, Alt.=106.467834m. Speed=27.396000m/h.</desc>
<speed>7.610000</speed>
</trkpt>
<trkpt lat="44.679977" lon="33.792156">
<ele>107.274475</ele>
<time>2011-10-10T08:15:52Z</time>
<desc>lat.=44.679977, lon.=33.792156, Alt.=107.274475m. Speed=28.115999m/h.</desc>
<speed>7.810000</speed>
</trkpt>
<trkpt lat="44.679623" lon="33.792137">
<ele>108.022522</ele>
<time>2011-10-10T08:15:57Z</time>
<desc>lat.=44.679623, lon.=33.792137, Alt.=108.022522m. Speed=29.052000m/h.</desc>
<speed>8.070000</speed>
</trkpt>
<trkpt lat="44.679264" lon="33.792126">
<ele>107.585022</ele>
<time>2011-10-10T08:16:02Z</time>
<desc>lat.=44.679264, lon.=33.792126, Alt.=107.585022m. Speed=29.483999m/h.</desc>
<speed>8.190000</speed>
</trkpt>
<trkpt lat="44.678886" lon="33.792103">
<ele>107.206116</ele>
<time>2011-10-10T08:16:07Z</time>
<desc>lat.=44.678886, lon.=33.792103, Alt.=107.206116m. Speed=30.851999m/h.</desc>
<speed>8.570000</speed>
</trkpt>
<trkpt lat="44.678509" lon="33.792095">
<ele>107.102600</ele>
<time>2011-10-10T08:16:12Z</time>
<desc>lat.=44.678509, lon.=33.792095, Alt.=107.102600m. Speed=28.115999m/h.</desc>
<speed>7.810000</speed>
</trkpt>
<trkpt lat="44.678173" lon="33.792084">
<ele>106.436584</ele>
<time>2011-10-10T08:16:17Z</time>
<desc>lat.=44.678173, lon.=33.792084, Alt.=106.436584m. Speed=27.323999m/h.</desc>
<speed>7.590000</speed>
</trkpt>
<trkpt lat="44.677841" lon="33.792065">
<ele>107.012756</ele>
<time>2011-10-10T08:16:22Z</time>
<desc>lat.=44.677841, lon.=33.792065, Alt.=107.012756m. Speed=26.028000m/h.</desc>
<speed>7.230000</speed>
</trkpt>
<trkpt lat="44.677513" lon="33.792046">
<ele>107.243225</ele>
<time>2011-10-10T08:16:27Z</time>
<desc>lat.=44.677513, lon.=33.792046, Alt.=107.243225m. Speed=26.063999m/h.</desc>
<speed>7.240000</speed>
</trkpt>
<trkpt lat="44.677208" lon="33.792023">
<ele>107.883850</ele>
<time>2011-10-10T08:16:32Z</time>
<desc>lat.=44.677208, lon.=33.792023, Alt.=107.883850m. Speed=24.011999m/h.</desc>
<speed>6.670000</speed>
</trkpt>
<trkpt lat="44.676926" lon="33.792007">
<ele>108.481506</ele>
<time>2011-10-10T08:16:37Z</time>
<desc>lat.=44.676926, lon.=33.792007, Alt.=108.481506m. Speed=20.700001m/h.</desc>
<speed>5.750000</speed>
</trkpt>
<trkpt lat="44.676655" lon="33.791992">
<ele>109.014709</ele>
<time>2011-10-10T08:16:42Z</time>
<desc>lat.=44.676655, lon.=33.791992, Alt.=109.014709m. Speed=23.364000m/h.</desc>
<speed>6.490000</speed>
</trkpt>
<trkpt lat="44.676373" lon="33.791977">
<ele>109.954163</ele>
<time>2011-10-10T08:16:47Z</time>
<desc>lat.=44.676373, lon.=33.791977, Alt.=109.954163m. Speed=21.384001m/h.</desc>
<speed>5.940000</speed>
</trkpt>
<trkpt lat="44.676109" lon="33.791962">
<ele>110.114319</ele>
<time>2011-10-10T08:16:52Z</time>
<desc>lat.=44.676109, lon.=33.791962, Alt.=110.114319m. Speed=20.160000m/h.</desc>
<speed>5.600000</speed>
</trkpt>
<trkpt lat="44.675850" lon="33.791950">
<ele>110.903381</ele>
<time>2011-10-10T08:16:57Z</time>
<desc>lat.=44.675850, lon.=33.791950, Alt.=110.903381m. Speed=22.464001m/h.</desc>
<speed>6.240000</speed>
</trkpt>
<trkpt lat="44.675571" lon="33.791935">
<ele>111.809631</ele>
<time>2011-10-10T08:17:02Z</time>
<desc>lat.=44.675571, lon.=33.791935, Alt.=111.809631m. Speed=20.304001m/h.</desc>
<speed>5.640000</speed>
</trkpt>
<trkpt lat="44.675327" lon="33.791924">
<ele>112.905334</ele>
<time>2011-10-10T08:17:07Z</time>
<desc>lat.=44.675327, lon.=33.791924, Alt.=112.905334m. Speed=20.556000m/h.</desc>
<speed>5.710000</speed>
</trkpt>
<trkpt lat="44.675072" lon="33.791908">
<ele>114.085022</ele>
<time>2011-10-10T08:17:12Z</time>
<desc>lat.=44.675072, lon.=33.791908, Alt.=114.085022m. Speed=19.980000m/h.</desc>
<speed>5.550000</speed>
</trkpt>
<trkpt lat="44.674828" lon="33.791885">
<ele>114.811584</ele>
<time>2011-10-10T08:17:17Z</time>
<desc>lat.=44.674828, lon.=33.791885, Alt.=114.811584m. Speed=20.412001m/h.</desc>
<speed>5.670000</speed>
</trkpt>
<trkpt lat="44.674580" lon="33.791866">
<ele>114.762756</ele>
<time>2011-10-10T08:17:22Z</time>
<desc>lat.=44.674580, lon.=33.791866, Alt.=114.762756m. Speed=18.792000m/h.</desc>
<speed>5.220000</speed>
</trkpt>
<trkpt lat="44.674339" lon="33.791851">
<ele>114.366272</ele>
<time>2011-10-10T08:17:27Z</time>
<desc>lat.=44.674339, lon.=33.791851, Alt.=114.366272m. Speed=19.728001m/h.</desc>
<speed>5.480000</speed>
</trkpt>
<trkpt lat="44.674095" lon="33.791843">
<ele>114.805725</ele>
<time>2011-10-10T08:17:32Z</time>
<desc>lat.=44.674095, lon.=33.791843, Alt.=114.805725m. Speed=19.080000m/h.</desc>
<speed>5.300000</speed>
</trkpt>
<trkpt lat="44.673866" lon="33.791840">
<ele>116.180725</ele>
<time>2011-10-10T08:17:37Z</time>
<desc>lat.=44.673866, lon.=33.791840, Alt.=116.180725m. Speed=18.180000m/h.</desc>
<speed>5.050000</speed>
</trkpt>
<trkpt lat="44.673649" lon="33.791836">
<ele>117.059631</ele>
<time>2011-10-10T08:17:42Z</time>
<desc>lat.=44.673649, lon.=33.791836, Alt.=117.059631m. Speed=16.848000m/h.</desc>
<speed>4.680000</speed>
</trkpt>
<trkpt lat="44.673416" lon="33.791813">
<ele>117.653381</ele>
<time>2011-10-10T08:17:47Z</time>
<desc>lat.=44.673416, lon.=33.791813, Alt.=117.653381m. Speed=18.972000m/h.</desc>
<speed>5.270000</speed>
</trkpt>
<trkpt lat="44.673164" lon="33.791801">
<ele>117.616272</ele>
<time>2011-10-10T08:17:52Z</time>
<desc>lat.=44.673164, lon.=33.791801, Alt.=117.616272m. Speed=20.160000m/h.</desc>
<speed>5.600000</speed>
</trkpt>
<trkpt lat="44.672932" lon="33.791790">
<ele>118.038147</ele>
<time>2011-10-10T08:17:57Z</time>
<desc>lat.=44.672932, lon.=33.791790, Alt.=118.038147m. Speed=17.063999m/h.</desc>
<speed>4.740000</speed>
</trkpt>
<trkpt lat="44.672714" lon="33.791779">
<ele>118.807678</ele>
<time>2011-10-10T08:18:02Z</time>
<desc>lat.=44.672714, lon.=33.791779, Alt.=118.807678m. Speed=17.316000m/h.</desc>
<speed>4.810000</speed>
</trkpt>
<trkpt lat="44.672508" lon="33.791775">
<ele>119.958069</ele>
<time>2011-10-10T08:18:07Z</time>
<desc>lat.=44.672508, lon.=33.791775, Alt.=119.958069m. Speed=17.100000m/h.</desc>
<speed>4.750000</speed>
</trkpt>
<trkpt lat="44.672291" lon="33.791767">
<ele>120.588928</ele>
<time>2011-10-10T08:18:12Z</time>
<desc>lat.=44.672291, lon.=33.791767, Alt.=120.588928m. Speed=18.719999m/h.</desc>
<speed>5.200000</speed>
</trkpt>
<trkpt lat="44.672070" lon="33.791752">
<ele>121.963928</ele>
<time>2011-10-10T08:18:17Z</time>
<desc>lat.=44.672070, lon.=33.791752, Alt.=121.963928m. Speed=18.396000m/h.</desc>
<speed>5.110000</speed>
</trkpt>
<trkpt lat="44.671841" lon="33.791733">
<ele>122.133850</ele>
<time>2011-10-10T08:18:22Z</time>
<desc>lat.=44.671841, lon.=33.791733, Alt.=122.133850m. Speed=18.972000m/h.</desc>
<speed>5.270000</speed>
</trkpt>
<trkpt lat="44.671600" lon="33.791718">
<ele>122.585022</ele>
<time>2011-10-10T08:18:27Z</time>
<desc>lat.=44.671600, lon.=33.791718, Alt.=122.585022m. Speed=19.728001m/h.</desc>
<speed>5.480000</speed>
</trkpt>
<trkpt lat="44.671345" lon="33.791710">
<ele>122.225647</ele>
<time>2011-10-10T08:18:32Z</time>
<desc>lat.=44.671345, lon.=33.791710, Alt.=122.225647m. Speed=21.096001m/h.</desc>
<speed>5.860000</speed>
</trkpt>
<trkpt lat="44.671097" lon="33.791698">
<ele>122.594788</ele>
<time>2011-10-10T08:18:37Z</time>
<desc>lat.=44.671097, lon.=33.791698, Alt.=122.594788m. Speed=19.836000m/h.</desc>
<speed>5.510000</speed>
</trkpt>
<trkpt lat="44.670856" lon="33.791687">
<ele>122.719788</ele>
<time>2011-10-10T08:18:42Z</time>
<desc>lat.=44.670856, lon.=33.791687, Alt.=122.719788m. Speed=19.224001m/h.</desc>
<speed>5.340000</speed>
</trkpt>
<trkpt lat="44.670609" lon="33.791664">
<ele>122.975647</ele>
<time>2011-10-10T08:18:47Z</time>
<desc>lat.=44.670609, lon.=33.791664, Alt.=122.975647m. Speed=21.348000m/h.</desc>
<speed>5.930000</speed>
</trkpt>
<trkpt lat="44.670338" lon="33.791645">
<ele>122.872131</ele>
<time>2011-10-10T08:18:52Z</time>
<desc>lat.=44.670338, lon.=33.791645, Alt.=122.872131m. Speed=21.384001m/h.</desc>
<speed>5.940000</speed>
</trkpt>
<trkpt lat="44.670078" lon="33.791634">
<ele>123.491272</ele>
<time>2011-10-10T08:18:57Z</time>
<desc>lat.=44.670078, lon.=33.791634, Alt.=123.491272m. Speed=20.736000m/h.</desc>
<speed>5.760000</speed>
</trkpt>
<trkpt lat="44.669830" lon="33.791622">
<ele>123.917053</ele>
<time>2011-10-10T08:19:02Z</time>
<desc>lat.=44.669830, lon.=33.791622, Alt.=123.917053m. Speed=20.268000m/h.</desc>
<speed>5.630000</speed>
</trkpt>
<trkpt lat="44.669594" lon="33.791615">
<ele>124.260803</ele>
<time>2011-10-10T08:19:07Z</time>
<desc>lat.=44.669594, lon.=33.791615, Alt.=124.260803m. Speed=15.084000m/h.</desc>
<speed>4.190000</speed>
</trkpt>
<trkpt lat="44.669403" lon="33.791595">
<ele>124.282288</ele>
<time>2011-10-10T08:19:12Z</time>
<desc>lat.=44.669403, lon.=33.791595, Alt.=124.282288m. Speed=17.676001m/h.</desc>
<speed>4.910000</speed>
</trkpt>
<trkpt lat="44.669174" lon="33.791580">
<ele>124.815491</ele>
<time>2011-10-10T08:19:17Z</time>
<desc>lat.=44.669174, lon.=33.791580, Alt.=124.815491m. Speed=16.992001m/h.</desc>
<speed>4.720000</speed>
</trkpt>
<trkpt lat="44.668991" lon="33.791569">
<ele>125.786194</ele>
<time>2011-10-10T08:19:22Z</time>
<desc>lat.=44.668991, lon.=33.791569, Alt.=125.786194m. Speed=13.212000m/h.</desc>
<speed>3.670000</speed>
</trkpt>
<trkpt lat="44.668861" lon="33.791561">
<ele>125.936584</ele>
<time>2011-10-10T08:19:27Z</time>
<desc>lat.=44.668861, lon.=33.791561, Alt.=125.936584m. Speed=9.108000m/h.</desc>
<speed>2.530000</speed>
</trkpt>
<trkpt lat="44.668762" lon="33.791534">
<ele>126.553772</ele>
<time>2011-10-10T08:19:32Z</time>
<desc>lat.=44.668762, lon.=33.791534, Alt.=126.553772m. Speed=6.660000m/h.</desc>
<speed>1.850000</speed>
</trkpt>
<trkpt lat="44.668720" lon="33.791515">
<ele>126.319397</ele>
<time>2011-10-10T08:19:37Z</time>
<desc>lat.=44.668720, lon.=33.791515, Alt.=126.319397m. Speed=0.756000m/h.</desc>
<speed>0.210000</speed>
</trkpt>
<trkpt lat="44.668720" lon="33.791512">
<ele>126.096741</ele>
<time>2011-10-10T08:19:42Z</time>
<desc>lat.=44.668720, lon.=33.791512, Alt.=126.096741m. Speed=0.036000m/h.</desc>
<speed>0.010000</speed>
</trkpt>
<trkpt lat="44.668720" lon="33.791512">
<ele>126.042053</ele>
<time>2011-10-10T08:19:47Z</time>
<desc>lat.=44.668720, lon.=33.791512, Alt.=126.042053m. Speed=0.036000m/h.</desc>
<speed>0.010000</speed>
</trkpt>
<trkpt lat="44.668720" lon="33.791515">
<ele>126.042053</ele>
<time>2011-10-10T08:19:52Z</time>
<desc>lat.=44.668720, lon.=33.791515, Alt.=126.042053m. Speed=0.036000m/h.</desc>
<speed>0.010000</speed>
</trkpt>
<trkpt lat="44.668720" lon="33.791515">
<ele>126.026428</ele>
<time>2011-10-10T08:19:57Z</time>
<desc>lat.=44.668720, lon.=33.791515, Alt.=126.026428m. Speed=0.000000m/h.</desc>
<speed>0.000000</speed>
</trkpt>
<trkpt lat="44.668720" lon="33.791515">
<ele>126.028381</ele>
<time>2011-10-10T08:20:02Z</time>
<desc>lat.=44.668720, lon.=33.791515, Alt.=126.028381m. Speed=0.000000m/h.</desc>
<speed>0.000000</speed>
</trkpt>
<trkpt lat="44.668720" lon="33.791515">
<ele>126.026428</ele>
<time>2011-10-10T08:20:07Z</time>
<desc>lat.=44.668720, lon.=33.791515, Alt.=126.026428m. Speed=0.036000m/h.</desc>
<speed>0.010000</speed>
</trkpt>
<trkpt lat="44.668720" lon="33.791515">
<ele>126.016663</ele>
<time>2011-10-10T08:20:12Z</time>
<desc>lat.=44.668720, lon.=33.791515, Alt.=126.016663m. Speed=0.000000m/h.</desc>
<speed>0.000000</speed>
</trkpt>
<trkpt lat="44.668720" lon="33.791515">
<ele>126.010803</ele>
<time>2011-10-10T08:20:17Z</time>
<desc>lat.=44.668720, lon.=33.791515, Alt.=126.010803m. Speed=0.000000m/h.</desc>
<speed>0.000000</speed>
</trkpt>
<trkpt lat="44.668720" lon="33.791515">
<ele>125.991272</ele>
<time>2011-10-10T08:20:22Z</time>
<desc>lat.=44.668720, lon.=33.791515, Alt.=125.991272m. Speed=0.000000m/h.</desc>
<speed>0.000000</speed>
</trkpt>
<trkpt lat="44.668720" lon="33.791515">
<ele>125.973694</ele>
<time>2011-10-10T08:20:27Z</time>
<desc>lat.=44.668720, lon.=33.791515, Alt.=125.973694m. Speed=0.000000m/h.</desc>
<speed>0.000000</speed>
</trkpt>
<trkpt lat="44.668720" lon="33.791515">
<ele>125.960022</ele>
<time>2011-10-10T08:20:32Z</time>
<desc>lat.=44.668720, lon.=33.791515, Alt.=125.960022m. Speed=0.000000m/h.</desc>
<speed>0.000000</speed>
</trkpt>
<trkpt lat="44.668720" lon="33.791515">
<ele>125.938538</ele>
<time>2011-10-10T08:20:37Z</time>
<desc>lat.=44.668720, lon.=33.791515, Alt.=125.938538m. Speed=0.000000m/h.</desc>
<speed>0.000000</speed>
</trkpt>
<trkpt lat="44.668720" lon="33.791515">
<ele>125.897522</ele>
<time>2011-10-10T08:20:42Z</time>
<desc>lat.=44.668720, lon.=33.791515, Alt.=125.897522m. Speed=0.000000m/h.</desc>
<speed>0.000000</speed>
</trkpt>
<trkpt lat="44.668720" lon="33.791515">
<ele>125.876038</ele>
<time>2011-10-10T08:20:47Z</time>
<desc>lat.=44.668720, lon.=33.791515, Alt.=125.876038m. Speed=0.396000m/h.</desc>
<speed>0.110000</speed>
</trkpt>
<trkpt lat="44.668720" lon="33.791512">
<ele>125.905334</ele>
<time>2011-10-10T08:20:52Z</time>
<desc>lat.=44.668720, lon.=33.791512, Alt.=125.905334m. Speed=0.036000m/h.</desc>
<speed>0.010000</speed>
</trkpt>
<trkpt lat="44.668701" lon="33.791519">
<ele>125.977600</ele>
<time>2011-10-10T08:20:57Z</time>
<desc>lat.=44.668701, lon.=33.791519, Alt.=125.977600m. Speed=3.960000m/h.</desc>
<speed>1.100000</speed>
</trkpt>
<trkpt lat="44.668617" lon="33.791519">
<ele>126.243225</ele>
<time>2011-10-10T08:21:02Z</time>
<desc>lat.=44.668617, lon.=33.791519, Alt.=126.243225m. Speed=8.532000m/h.</desc>
<speed>2.370000</speed>
</trkpt>
<trkpt lat="44.668472" lon="33.791515">
<ele>126.085022</ele>
<time>2011-10-10T08:21:07Z</time>
<desc>lat.=44.668472, lon.=33.791515, Alt.=126.085022m. Speed=13.860000m/h.</desc>
<speed>3.850000</speed>
</trkpt>
<trkpt lat="44.668316" lon="33.791492">
<ele>125.973694</ele>
<time>2011-10-10T08:21:12Z</time>
<desc>lat.=44.668316, lon.=33.791492, Alt.=125.973694m. Speed=14.004000m/h.</desc>
<speed>3.890000</speed>
</trkpt>
<trkpt lat="44.668118" lon="33.791458">
<ele>126.690491</ele>
<time>2011-10-10T08:21:17Z</time>
<desc>lat.=44.668118, lon.=33.791458, Alt.=126.690491m. Speed=17.243999m/h.</desc>
<speed>4.790000</speed>
</trkpt>
<trkpt lat="44.667912" lon="33.791416">
<ele>126.958069</ele>
<time>2011-10-10T08:21:22Z</time>
<desc>lat.=44.667912, lon.=33.791416, Alt.=126.958069m. Speed=16.955999m/h.</desc>
<speed>4.710000</speed>
</trkpt>
<trkpt lat="44.667671" lon="33.791359">
<ele>127.309631</ele>
<time>2011-10-10T08:21:27Z</time>
<desc>lat.=44.667671, lon.=33.791359, Alt.=127.309631m. Speed=20.988001m/h.</desc>
<speed>5.830000</speed>
</trkpt>
<trkpt lat="44.667400" lon="33.791294">
<ele>127.973694</ele>
<time>2011-10-10T08:21:32Z</time>
<desc>lat.=44.667400, lon.=33.791294, Alt.=127.973694m. Speed=22.176001m/h.</desc>
<speed>6.160000</speed>
</trkpt>
<trkpt lat="44.667133" lon="33.791229">
<ele>128.494263</ele>
<time>2011-10-10T08:21:37Z</time>
<desc>lat.=44.667133, lon.=33.791229, Alt.=128.494263m. Speed=20.160000m/h.</desc>
<speed>5.600000</speed>
</trkpt>
<trkpt lat="44.666885" lon="33.791161">
<ele>128.580200</ele>
<time>2011-10-10T08:21:42Z</time>
<desc>lat.=44.666885, lon.=33.791161, Alt.=128.580200m. Speed=20.700001m/h.</desc>
<speed>5.750000</speed>
</trkpt>
<trkpt lat="44.666622" lon="33.791096">
<ele>129.490356</ele>
<time>2011-10-10T08:21:47Z</time>
<desc>lat.=44.666622, lon.=33.791096, Alt.=129.490356m. Speed=20.988001m/h.</desc>
<speed>5.830000</speed>
</trkpt>
<trkpt lat="44.666370" lon="33.791031">
<ele>129.810669</ele>
<time>2011-10-10T08:21:52Z</time>
<desc>lat.=44.666370, lon.=33.791031, Alt.=129.810669m. Speed=19.080000m/h.</desc>
<speed>5.300000</speed>
</trkpt>
<trkpt lat="44.666157" lon="33.790977">
<ele>130.017700</ele>
<time>2011-10-10T08:21:57Z</time>
<desc>lat.=44.666157, lon.=33.790977, Alt.=130.017700m. Speed=17.208000m/h.</desc>
<speed>4.780000</speed>
</trkpt>
<trkpt lat="44.665951" lon="33.790901">
<ele>129.869263</ele>
<time>2011-10-10T08:22:02Z</time>
<desc>lat.=44.665951, lon.=33.790901, Alt.=129.869263m. Speed=14.976000m/h.</desc>
<speed>4.160000</speed>
</trkpt>
<trkpt lat="44.665878" lon="33.790890">
<ele>129.232544</ele>
<time>2011-10-10T08:22:07Z</time>
<desc>lat.=44.665878, lon.=33.790890, Alt.=129.232544m. Speed=1.080000m/h.</desc>
<speed>0.300000</speed>
</trkpt>
<trkpt lat="44.665874" lon="33.790890">
<ele>129.197388</ele>
<time>2011-10-10T08:22:12Z</time>
<desc>lat.=44.665874, lon.=33.790890, Alt.=129.197388m. Speed=0.108000m/h.</desc>
<speed>0.030000</speed>
</trkpt>
<trkpt lat="44.665871" lon="33.790890">
<ele>129.177856</ele>
<time>2011-10-10T08:22:17Z</time>
<desc>lat.=44.665871, lon.=33.790890, Alt.=129.177856m. Speed=0.144000m/h.</desc>
<speed>0.040000</speed>
</trkpt>
<trkpt lat="44.665813" lon="33.790897">
<ele>129.525513</ele>
<time>2011-10-10T08:22:22Z</time>
<desc>lat.=44.665813, lon.=33.790897, Alt.=129.525513m. Speed=11.376000m/h.</desc>
<speed>3.160000</speed>
</trkpt>
<trkpt lat="44.665588" lon="33.790825">
<ele>128.748169</ele>
<time>2011-10-10T08:22:27Z</time>
<desc>lat.=44.665588, lon.=33.790825, Alt.=128.748169m. Speed=21.096001m/h.</desc>
<speed>5.860000</speed>
</trkpt>
<trkpt lat="44.665314" lon="33.790756">
<ele>128.025513</ele>
<time>2011-10-10T08:22:32Z</time>
<desc>lat.=44.665314, lon.=33.790756, Alt.=128.025513m. Speed=21.132000m/h.</desc>
<speed>5.870000</speed>
</trkpt>
<trkpt lat="44.665054" lon="33.790680">
<ele>127.704163</ele>
<time>2011-10-10T08:22:37Z</time>
<desc>lat.=44.665054, lon.=33.790680, Alt.=127.704163m. Speed=21.563999m/h.</desc>
<speed>5.990000</speed>
</trkpt>
<trkpt lat="44.664780" lon="33.790600">
<ele>127.458069</ele>
<time>2011-10-10T08:22:42Z</time>
<desc>lat.=44.664780, lon.=33.790600, Alt.=127.458069m. Speed=22.752001m/h.</desc>
<speed>6.320000</speed>
</trkpt>
<trkpt lat="44.664490" lon="33.790531">
<ele>126.835022</ele>
<time>2011-10-10T08:22:47Z</time>
<desc>lat.=44.664490, lon.=33.790531, Alt.=126.835022m. Speed=24.516001m/h.</desc>
<speed>6.810000</speed>
</trkpt>
<trkpt lat="44.664185" lon="33.790485">
<ele>126.372131</ele>
<time>2011-10-10T08:22:52Z</time>
<desc>lat.=44.664185, lon.=33.790485, Alt.=126.372131m. Speed=25.379999m/h.</desc>
<speed>7.050000</speed>
</trkpt>
<trkpt lat="44.663860" lon="33.790470">
<ele>125.676819</ele>
<time>2011-10-10T08:22:57Z</time>
<desc>lat.=44.663860, lon.=33.790470, Alt.=125.676819m. Speed=25.775999m/h.</desc>
<speed>7.160000</speed>
</trkpt>
<trkpt lat="44.663544" lon="33.790489">
<ele>125.137756</ele>
<time>2011-10-10T08:23:02Z</time>
<desc>lat.=44.663544, lon.=33.790489, Alt.=125.137756m. Speed=24.912001m/h.</desc>
<speed>6.920000</speed>
</trkpt>
<trkpt lat="44.663235" lon="33.790596">
<ele>124.669006</ele>
<time>2011-10-10T08:23:07Z</time>
<desc>lat.=44.663235, lon.=33.790596, Alt.=124.669006m. Speed=25.271999m/h.</desc>
<speed>7.020000</speed>
</trkpt>
<trkpt lat="44.662952" lon="33.790829">
<ele>123.739319</ele>
<time>2011-10-10T08:23:12Z</time>
<desc>lat.=44.662952, lon.=33.790829, Alt.=123.739319m. Speed=27.576000m/h.</desc>
<speed>7.660000</speed>
</trkpt>
<trkpt lat="44.662704" lon="33.791191">
<ele>122.090881</ele>
<time>2011-10-10T08:23:17Z</time>
<desc>lat.=44.662704, lon.=33.791191, Alt.=122.090881m. Speed=30.600000m/h.</desc>
<speed>8.500000</speed>
</trkpt>
<trkpt lat="44.662525" lon="33.791710">
<ele>119.991272</ele>
<time>2011-10-10T08:23:22Z</time>
<desc>lat.=44.662525, lon.=33.791710, Alt.=119.991272m. Speed=34.740002m/h.</desc>
<speed>9.650000</speed>
</trkpt>
<trkpt lat="44.662457" lon="33.792374">
<ele>117.440491</ele>
<time>2011-10-10T08:23:27Z</time>
<desc>lat.=44.662457, lon.=33.792374, Alt.=117.440491m. Speed=41.903999m/h.</desc>
<speed>11.640000</speed>
</trkpt>
<trkpt lat="44.662422" lon="33.793175">
<ele>115.483459</ele>
<time>2011-10-10T08:23:32Z</time>
<desc>lat.=44.662422, lon.=33.793175, Alt.=115.483459m. Speed=48.060001m/h.</desc>
<speed>13.350000</speed>
</trkpt>
<trkpt lat="44.662342" lon="33.794041">
<ele>113.278381</ele>
<time>2011-10-10T08:23:37Z</time>
<desc>lat.=44.662342, lon.=33.794041, Alt.=113.278381m. Speed=50.759998m/h.</desc>
<speed>14.100000</speed>
</trkpt>
<trkpt lat="44.662022" lon="33.794842">
<ele>109.919006</ele>
<time>2011-10-10T08:23:42Z</time>
<desc>lat.=44.662022, lon.=33.794842, Alt.=109.919006m. Speed=53.495998m/h.</desc>
<speed>14.860000</speed>
</trkpt>
<trkpt lat="44.661636" lon="33.795483">
<ele>107.708069</ele>
<time>2011-10-10T08:23:47Z</time>
<desc>lat.=44.661636, lon.=33.795483, Alt.=107.708069m. Speed=41.256001m/h.</desc>
<speed>11.460000</speed>
</trkpt>
<trkpt lat="44.661388" lon="33.795891">
<ele>107.405334</ele>
<time>2011-10-10T08:23:52Z</time>
<desc>lat.=44.661388, lon.=33.795891, Alt.=107.405334m. Speed=22.247999m/h.</desc>
<speed>6.180000</speed>
</trkpt>
<trkpt lat="44.661293" lon="33.795990">
<ele>106.106506</ele>
<time>2011-10-10T08:23:57Z</time>
<desc>lat.=44.661293, lon.=33.795990, Alt.=106.106506m. Speed=0.504000m/h.</desc>
<speed>0.140000</speed>
</trkpt>
<trkpt lat="44.661293" lon="33.795975">
<ele>106.143616</ele>
<time>2011-10-10T08:24:02Z</time>
<desc>lat.=44.661293, lon.=33.795975, Alt.=106.143616m. Speed=0.072000m/h.</desc>
<speed>0.020000</speed>
</trkpt>
<trkpt lat="44.661293" lon="33.795975">
<ele>106.575256</ele>
<time>2011-10-10T08:24:07Z</time>
<desc>lat.=44.661293, lon.=33.795975, Alt.=106.575256m. Speed=0.036000m/h.</desc>
<speed>0.010000</speed>
</trkpt>
<trkpt lat="44.661293" lon="33.795975">
<ele>106.651428</ele>
<time>2011-10-10T08:24:12Z</time>
<desc>lat.=44.661293, lon.=33.795975, Alt.=106.651428m. Speed=0.036000m/h.</desc>
<speed>0.010000</speed>
</trkpt>
<trkpt lat="44.661293" lon="33.795975">
<ele>106.680725</ele>
<time>2011-10-10T08:24:17Z</time>
<desc>lat.=44.661293, lon.=33.795975, Alt.=106.680725m. Speed=0.216000m/h.</desc>
<speed>0.060000</speed>
</trkpt>
<trkpt lat="44.661293" lon="33.795975">
<ele>106.700256</ele>
<time>2011-10-10T08:24:22Z</time>
<desc>lat.=44.661293, lon.=33.795975, Alt.=106.700256m. Speed=0.000000m/h.</desc>
<speed>0.000000</speed>
</trkpt>
<trkpt lat="44.661297" lon="33.795975">
<ele>106.733459</ele>
<time>2011-10-10T08:24:27Z</time>
<desc>lat.=44.661297, lon.=33.795975, Alt.=106.733459m. Speed=0.036000m/h.</desc>
<speed>0.010000</speed>
</trkpt>
<trkpt lat="44.661293" lon="33.795979">
<ele>106.688538</ele>
<time>2011-10-10T08:24:32Z</time>
<desc>lat.=44.661293, lon.=33.795979, Alt.=106.688538m. Speed=2.124000m/h.</desc>
<speed>0.590000</speed>
</trkpt>
<trkpt lat="44.661198" lon="33.795929">
<ele>106.110413</ele>
<time>2011-10-10T08:24:37Z</time>
<desc>lat.=44.661198, lon.=33.795929, Alt.=106.110413m. Speed=11.448000m/h.</desc>
<speed>3.180000</speed>
</trkpt>
<trkpt lat="44.661175" lon="33.795677">
<ele>106.278381</ele>
<time>2011-10-10T08:24:42Z</time>
<desc>lat.=44.661175, lon.=33.795677, Alt.=106.278381m. Speed=14.976000m/h.</desc>
<speed>4.160000</speed>
</trkpt>
<trkpt lat="44.661175" lon="33.795345">
<ele>107.237366</ele>
<time>2011-10-10T08:24:47Z</time>
<desc>lat.=44.661175, lon.=33.795345, Alt.=107.237366m. Speed=20.375999m/h.</desc>
<speed>5.660000</speed>
</trkpt>
<trkpt lat="44.661190" lon="33.794975">
<ele>106.866272</ele>
<time>2011-10-10T08:24:52Z</time>
<desc>lat.=44.661190, lon.=33.794975, Alt.=106.866272m. Speed=20.700001m/h.</desc>
<speed>5.750000</speed>
</trkpt>
<trkpt lat="44.661217" lon="33.794571">
<ele>106.499084</ele>
<time>2011-10-10T08:24:57Z</time>
<desc>lat.=44.661217, lon.=33.794571, Alt.=106.499084m. Speed=23.364000m/h.</desc>
<speed>6.490000</speed>
</trkpt>
<trkpt lat="44.661274" lon="33.794144">
<ele>106.090881</ele>
<time>2011-10-10T08:25:02Z</time>
<desc>lat.=44.661274, lon.=33.794144, Alt.=106.090881m. Speed=25.056000m/h.</desc>
<speed>6.960000</speed>
</trkpt>
<trkpt lat="44.661339" lon="33.793701">
<ele>106.110413</ele>
<time>2011-10-10T08:25:07Z</time>
<desc>lat.=44.661339, lon.=33.793701, Alt.=106.110413m. Speed=23.688000m/h.</desc>
<speed>6.580000</speed>
</trkpt>
<trkpt lat="44.661388" lon="33.793350">
<ele>106.077209</ele>
<time>2011-10-10T08:25:12Z</time>
<desc>lat.=44.661388, lon.=33.793350, Alt.=106.077209m. Speed=18.936001m/h.</desc>
<speed>5.260000</speed>
</trkpt>
<trkpt lat="44.661434" lon="33.793037">
<ele>104.874084</ele>
<time>2011-10-10T08:25:17Z</time>
<desc>lat.=44.661434, lon.=33.793037, Alt.=104.874084m. Speed=18.072001m/h.</desc>
<speed>5.020000</speed>
</trkpt>
<trkpt lat="44.661491" lon="33.792725">
<ele>104.151428</ele>
<time>2011-10-10T08:25:22Z</time>
<desc>lat.=44.661491, lon.=33.792725, Alt.=104.151428m. Speed=17.820000m/h.</desc>
<speed>4.950000</speed>
</trkpt>
<trkpt lat="44.661526" lon="33.792538">
<ele>103.458069</ele>
<time>2011-10-10T08:25:27Z</time>
<desc>lat.=44.661526, lon.=33.792538, Alt.=103.458069m. Speed=11.268000m/h.</desc>
<speed>3.130000</speed>
</trkpt>
<trkpt lat="44.661491" lon="33.792397">
<ele>102.495178</ele>
<time>2011-10-10T08:25:32Z</time>
<desc>lat.=44.661491, lon.=33.792397, Alt.=102.495178m. Speed=6.588000m/h.</desc>
<speed>1.830000</speed>
</trkpt>
<trkpt lat="44.661324" lon="33.792240">
<ele>100.042053</ele>
<time>2011-10-10T08:25:37Z</time>
<desc>lat.=44.661324, lon.=33.792240, Alt.=100.042053m. Speed=24.552000m/h.</desc>
<speed>6.820000</speed>
</trkpt>
<trkpt lat="44.661007" lon="33.792088">
<ele>97.876038</ele>
<time>2011-10-10T08:25:42Z</time>
<desc>lat.=44.661007, lon.=33.792088, Alt.=97.876038m. Speed=27.900000m/h.</desc>
<speed>7.750000</speed>
</trkpt>
<trkpt lat="44.660637" lon="33.791935">
<ele>94.717834</ele>
<time>2011-10-10T08:25:47Z</time>
<desc>lat.=44.660637, lon.=33.791935, Alt.=94.717834m. Speed=34.056000m/h.</desc>
<speed>9.460000</speed>
</trkpt>
<trkpt lat="44.660282" lon="33.791775">
<ele>92.731506</ele>
<time>2011-10-10T08:25:52Z</time>
<desc>lat.=44.660282, lon.=33.791775, Alt.=92.731506m. Speed=18.648001m/h.</desc>
<speed>5.180000</speed>
</trkpt>
<trkpt lat="44.660187" lon="33.791927">
<ele>92.512756</ele>
<time>2011-10-10T08:25:57Z</time>
<desc>lat.=44.660187, lon.=33.791927, Alt.=92.512756m. Speed=10.044000m/h.</desc>
<speed>2.790000</speed>
</trkpt>
<trkpt lat="44.660145" lon="33.792126">
<ele>92.805725</ele>
<time>2011-10-10T08:26:02Z</time>
<desc>lat.=44.660145, lon.=33.792126, Alt.=92.805725m. Speed=13.500000m/h.</desc>
<speed>3.750000</speed>
</trkpt>
<trkpt lat="44.660057" lon="33.792313">
<ele>93.032288</ele>
<time>2011-10-10T08:26:07Z</time>
<desc>lat.=44.660057, lon.=33.792313, Alt.=93.032288m. Speed=12.420000m/h.</desc>
<speed>3.450000</speed>
</trkpt>
<trkpt lat="44.659916" lon="33.792313">
<ele>92.532288</ele>
<time>2011-10-10T08:26:12Z</time>
<desc>lat.=44.659916, lon.=33.792313, Alt.=92.532288m. Speed=12.528000m/h.</desc>
<speed>3.480000</speed>
</trkpt>
<trkpt lat="44.659748" lon="33.792217">
<ele>91.585022</ele>
<time>2011-10-10T08:26:17Z</time>
<desc>lat.=44.659748, lon.=33.792217, Alt.=91.585022m. Speed=15.948000m/h.</desc>
<speed>4.430000</speed>
</trkpt>
<trkpt lat="44.659542" lon="33.792103">
<ele>90.708069</ele>
<time>2011-10-10T08:26:22Z</time>
<desc>lat.=44.659542, lon.=33.792103, Alt.=90.708069m. Speed=17.856001m/h.</desc>
<speed>4.960000</speed>
</trkpt>
<trkpt lat="44.659340" lon="33.792015">
<ele>89.891663</ele>
<time>2011-10-10T08:26:27Z</time>
<desc>lat.=44.659340, lon.=33.792015, Alt.=89.891663m. Speed=14.832000m/h.</desc>
<speed>4.120000</speed>
</trkpt>
<trkpt lat="44.659191" lon="33.791935">
<ele>89.647522</ele>
<time>2011-10-10T08:26:32Z</time>
<desc>lat.=44.659191, lon.=33.791935, Alt.=89.647522m. Speed=10.764000m/h.</desc>
<speed>2.990000</speed>
</trkpt>
<trkpt lat="44.659069" lon="33.791847">
<ele>89.169006</ele>
<time>2011-10-10T08:26:37Z</time>
<desc>lat.=44.659069, lon.=33.791847, Alt.=89.169006m. Speed=13.392000m/h.</desc>
<speed>3.720000</speed>
</trkpt>
<trkpt lat="44.658897" lon="33.791756">
<ele>88.989319</ele>
<time>2011-10-10T08:26:42Z</time>
<desc>lat.=44.658897, lon.=33.791756, Alt.=88.989319m. Speed=16.236000m/h.</desc>
<speed>4.510000</speed>
</trkpt>
<trkpt lat="44.658726" lon="33.791653">
<ele>88.436584</ele>
<time>2011-10-10T08:26:47Z</time>
<desc>lat.=44.658726, lon.=33.791653, Alt.=88.436584m. Speed=14.688000m/h.</desc>
<speed>4.080000</speed>
</trkpt>
<trkpt lat="44.658543" lon="33.791561">
<ele>87.903381</ele>
<time>2011-10-10T08:26:52Z</time>
<desc>lat.=44.658543, lon.=33.791561, Alt.=87.903381m. Speed=17.136000m/h.</desc>
<speed>4.760000</speed>
</trkpt>
<trkpt lat="44.658356" lon="33.791496">
<ele>87.141663</ele>
<time>2011-10-10T08:26:57Z</time>
<desc>lat.=44.658356, lon.=33.791496, Alt.=87.141663m. Speed=12.888000m/h.</desc>
<speed>3.580000</speed>
</trkpt>
<trkpt lat="44.658211" lon="33.791443">
<ele>86.657288</ele>
<time>2011-10-10T08:27:02Z</time>
<desc>lat.=44.658211, lon.=33.791443, Alt.=86.657288m. Speed=11.880000m/h.</desc>
<speed>3.300000</speed>
</trkpt>
<trkpt lat="44.658054" lon="33.791382">
<ele>86.237366</ele>
<time>2011-10-10T08:27:07Z</time>
<desc>lat.=44.658054, lon.=33.791382, Alt.=86.237366m. Speed=13.932000m/h.</desc>
<speed>3.870000</speed>
</trkpt>
<trkpt lat="44.657883" lon="33.791279">
<ele>85.819397</ele>
<time>2011-10-10T08:27:12Z</time>
<desc>lat.=44.657883, lon.=33.791279, Alt.=85.819397m. Speed=16.056000m/h.</desc>
<speed>4.460000</speed>
</trkpt>
<trkpt lat="44.657677" lon="33.791180">
<ele>85.573303</ele>
<time>2011-10-10T08:27:17Z</time>
<desc>lat.=44.657677, lon.=33.791180, Alt.=85.573303m. Speed=17.351999m/h.</desc>
<speed>4.820000</speed>
</trkpt>
<trkpt lat="44.657471" lon="33.791080">
<ele>85.561584</ele>
<time>2011-10-10T08:27:22Z</time>
<desc>lat.=44.657471, lon.=33.791080, Alt.=85.561584m. Speed=18.180000m/h.</desc>
<speed>5.050000</speed>
</trkpt>
<trkpt lat="44.657249" lon="33.791008">
<ele>85.657288</ele>
<time>2011-10-10T08:27:27Z</time>
<desc>lat.=44.657249, lon.=33.791008, Alt.=85.657288m. Speed=16.559999m/h.</desc>
<speed>4.600000</speed>
</trkpt>
<trkpt lat="44.657051" lon="33.791016">
<ele>85.573303</ele>
<time>2011-10-10T08:27:32Z</time>
<desc>lat.=44.657051, lon.=33.791016, Alt.=85.573303m. Speed=15.768000m/h.</desc>
<speed>4.380000</speed>
</trkpt>
<trkpt lat="44.656868" lon="33.791061">
<ele>85.483459</ele>
<time>2011-10-10T08:27:37Z</time>
<desc>lat.=44.656868, lon.=33.791061, Alt.=85.483459m. Speed=10.188000m/h.</desc>
<speed>2.830000</speed>
</trkpt>
<trkpt lat="44.656849" lon="33.791073">
<ele>85.338928</ele>
<time>2011-10-10T08:27:42Z</time>
<desc>lat.=44.656849, lon.=33.791073, Alt.=85.338928m. Speed=0.072000m/h.</desc>
<speed>0.020000</speed>
</trkpt>
<trkpt lat="44.656849" lon="33.791069">
<ele>85.305725</ele>
<time>2011-10-10T08:27:47Z</time>
<desc>lat.=44.656849, lon.=33.791069, Alt.=85.305725m. Speed=0.216000m/h.</desc>
<speed>0.060000</speed>
</trkpt>
<trkpt lat="44.656849" lon="33.791073">
<ele>85.176819</ele>
<time>2011-10-10T08:27:52Z</time>
<desc>lat.=44.656849, lon.=33.791073, Alt.=85.176819m. Speed=0.036000m/h.</desc>
<speed>0.010000</speed>
</trkpt>
<trkpt lat="44.656849" lon="33.791073">
<ele>85.127991</ele>
<time>2011-10-10T08:27:57Z</time>
<desc>lat.=44.656849, lon.=33.791073, Alt.=85.127991m. Speed=0.144000m/h.</desc>
<speed>0.040000</speed>
</trkpt>
<trkpt lat="44.656849" lon="33.791073">
<ele>85.147522</ele>
<time>2011-10-10T08:28:02Z</time>
<desc>lat.=44.656849, lon.=33.791073, Alt.=85.147522m. Speed=0.468000m/h.</desc>
<speed>0.130000</speed>
</trkpt>
<trkpt lat="44.656853" lon="33.791073">
<ele>85.135803</ele>
<time>2011-10-10T08:28:07Z</time>
<desc>lat.=44.656853, lon.=33.791073, Alt.=85.135803m. Speed=0.252000m/h.</desc>
<speed>0.070000</speed>
</trkpt>
<trkpt lat="44.656853" lon="33.791077">
<ele>85.153381</ele>
<time>2011-10-10T08:28:12Z</time>
<desc>lat.=44.656853, lon.=33.791077, Alt.=85.153381m. Speed=0.108000m/h.</desc>
<speed>0.030000</speed>
</trkpt>
<trkpt lat="44.656853" lon="33.791077">
<ele>85.178772</ele>
<time>2011-10-10T08:28:17Z</time>
<desc>lat.=44.656853, lon.=33.791077, Alt.=85.178772m. Speed=0.108000m/h.</desc>
<speed>0.030000</speed>
</trkpt>
<trkpt lat="44.656853" lon="33.791077">
<ele>85.198303</ele>
<time>2011-10-10T08:28:22Z</time>
<desc>lat.=44.656853, lon.=33.791077, Alt.=85.198303m. Speed=0.108000m/h.</desc>
<speed>0.030000</speed>
</trkpt>
<trkpt lat="44.656853" lon="33.791077">
<ele>85.190491</ele>
<time>2011-10-10T08:28:27Z</time>
<desc>lat.=44.656853, lon.=33.791077, Alt.=85.190491m. Speed=0.072000m/h.</desc>
<speed>0.020000</speed>
</trkpt>
<trkpt lat="44.656857" lon="33.791077">
<ele>85.178772</ele>
<time>2011-10-10T08:28:32Z</time>
<desc>lat.=44.656857, lon.=33.791077, Alt.=85.178772m. Speed=0.000000m/h.</desc>
<speed>0.000000</speed>
</trkpt>
<trkpt lat="44.656857" lon="33.791077">
<ele>85.182678</ele>
<time>2011-10-10T08:28:37Z</time>
<desc>lat.=44.656857, lon.=33.791077, Alt.=85.182678m. Speed=0.216000m/h.</desc>
<speed>0.060000</speed>
</trkpt>
<trkpt lat="44.656857" lon="33.791077">
<ele>85.213928</ele>
<time>2011-10-10T08:28:42Z</time>
<desc>lat.=44.656857, lon.=33.791077, Alt.=85.213928m. Speed=0.144000m/h.</desc>
<speed>0.040000</speed>
</trkpt>
<trkpt lat="44.656857" lon="33.791077">
<ele>85.229553</ele>
<time>2011-10-10T08:28:47Z</time>
<desc>lat.=44.656857, lon.=33.791077, Alt.=85.229553m. Speed=0.036000m/h.</desc>
<speed>0.010000</speed>
</trkpt>
<trkpt lat="44.656857" lon="33.791077">
<ele>85.251038</ele>
<time>2011-10-10T08:28:52Z</time>
<desc>lat.=44.656857, lon.=33.791077, Alt.=85.251038m. Speed=0.000000m/h.</desc>
<speed>0.000000</speed>
</trkpt>
<trkpt lat="44.656857" lon="33.791077">
<ele>85.256897</ele>
<time>2011-10-10T08:28:57Z</time>
<desc>lat.=44.656857, lon.=33.791077, Alt.=85.256897m. Speed=0.036000m/h.</desc>
<speed>0.010000</speed>
</trkpt>
<trkpt lat="44.656849" lon="33.791084">
<ele>85.286194</ele>
<time>2011-10-10T08:29:02Z</time>
<desc>lat.=44.656849, lon.=33.791084, Alt.=85.286194m. Speed=4.104000m/h.</desc>
<speed>1.140000</speed>
</trkpt>
<trkpt lat="44.656784" lon="33.791191">
<ele>86.637756</ele>
<time>2011-10-10T08:29:07Z</time>
<desc>lat.=44.656784, lon.=33.791191, Alt.=86.637756m. Speed=10.440000m/h.</desc>
<speed>2.900000</speed>
</trkpt>
<trkpt lat="44.656696" lon="33.791351">
<ele>87.790100</ele>
<time>2011-10-10T08:29:12Z</time>
<desc>lat.=44.656696, lon.=33.791351, Alt.=87.790100m. Speed=13.284000m/h.</desc>
<speed>3.690000</speed>
</trkpt>
<trkpt lat="44.656628" lon="33.791561">
<ele>88.309631</ele>
<time>2011-10-10T08:29:17Z</time>
<desc>lat.=44.656628, lon.=33.791561, Alt.=88.309631m. Speed=14.292000m/h.</desc>
<speed>3.970000</speed>
</trkpt>
<trkpt lat="44.656551" lon="33.791790">
<ele>89.210022</ele>
<time>2011-10-10T08:29:22Z</time>
<desc>lat.=44.656551, lon.=33.791790, Alt.=89.210022m. Speed=15.480000m/h.</desc>
<speed>4.300000</speed>
</trkpt>
<trkpt lat="44.656464" lon="33.792034">
<ele>89.254944</ele>
<time>2011-10-10T08:29:27Z</time>
<desc>lat.=44.656464, lon.=33.792034, Alt.=89.254944m. Speed=16.271999m/h.</desc>
<speed>4.520000</speed>
</trkpt>
<trkpt lat="44.656368" lon="33.792309">
<ele>89.354553</ele>
<time>2011-10-10T08:29:32Z</time>
<desc>lat.=44.656368, lon.=33.792309, Alt.=89.354553m. Speed=17.820000m/h.</desc>
<speed>4.950000</speed>
</trkpt>
<trkpt lat="44.656265" lon="33.792572">
<ele>89.571350</ele>
<time>2011-10-10T08:29:37Z</time>
<desc>lat.=44.656265, lon.=33.792572, Alt.=89.571350m. Speed=17.208000m/h.</desc>
<speed>4.780000</speed>
</trkpt>
<trkpt lat="44.656170" lon="33.792847">
<ele>89.467834</ele>
<time>2011-10-10T08:29:42Z</time>
<desc>lat.=44.656170, lon.=33.792847, Alt.=89.467834m. Speed=17.459999m/h.</desc>
<speed>4.850000</speed>
</trkpt>
<trkpt lat="44.656075" lon="33.793121">
<ele>89.510803</ele>
<time>2011-10-10T08:29:47Z</time>
<desc>lat.=44.656075, lon.=33.793121, Alt.=89.510803m. Speed=17.604000m/h.</desc>
<speed>4.890000</speed>
</trkpt>
<trkpt lat="44.655987" lon="33.793388">
<ele>89.821350</ele>
<time>2011-10-10T08:29:52Z</time>
<desc>lat.=44.655987, lon.=33.793388, Alt.=89.821350m. Speed=15.588000m/h.</desc>
<speed>4.330000</speed>
</trkpt>
<trkpt lat="44.655918" lon="33.793655">
<ele>89.866272</ele>
<time>2011-10-10T08:29:57Z</time>
<desc>lat.=44.655918, lon.=33.793655, Alt.=89.866272m. Speed=16.308001m/h.</desc>
<speed>4.530000</speed>
</trkpt>
<trkpt lat="44.655842" lon="33.793930">
<ele>90.122131</ele>
<time>2011-10-10T08:30:02Z</time>
<desc>lat.=44.655842, lon.=33.793930, Alt.=90.122131m. Speed=15.192000m/h.</desc>
<speed>4.220000</speed>
</trkpt>
<trkpt lat="44.655792" lon="33.794159">
<ele>90.079163</ele>
<time>2011-10-10T08:30:07Z</time>
<desc>lat.=44.655792, lon.=33.794159, Alt.=90.079163m. Speed=13.788000m/h.</desc>
<speed>3.830000</speed>
</trkpt>
<trkpt lat="44.655731" lon="33.794388">
<ele>90.100647</ele>
<time>2011-10-10T08:30:12Z</time>
<desc>lat.=44.655731, lon.=33.794388, Alt.=90.100647m. Speed=13.752000m/h.</desc>
<speed>3.820000</speed>
</trkpt>
<trkpt lat="44.655697" lon="33.794605">
<ele>90.387756</ele>
<time>2011-10-10T08:30:17Z</time>
<desc>lat.=44.655697, lon.=33.794605, Alt.=90.387756m. Speed=12.456000m/h.</desc>
<speed>3.460000</speed>
</trkpt>
<trkpt lat="44.655697" lon="33.794834">
<ele>90.399475</ele>
<time>2011-10-10T08:30:22Z</time>
<desc>lat.=44.655697, lon.=33.794834, Alt.=90.399475m. Speed=13.716000m/h.</desc>
<speed>3.810000</speed>
</trkpt>
<trkpt lat="44.655708" lon="33.795078">
<ele>89.860413</ele>
<time>2011-10-10T08:30:27Z</time>
<desc>lat.=44.655708, lon.=33.795078, Alt.=89.860413m. Speed=13.068000m/h.</desc>
<speed>3.630000</speed>
</trkpt>
<trkpt lat="44.655712" lon="33.795319">
<ele>89.360413</ele>
<time>2011-10-10T08:30:32Z</time>
<desc>lat.=44.655712, lon.=33.795319, Alt.=89.360413m. Speed=12.708000m/h.</desc>
<speed>3.530000</speed>
</trkpt>
<trkpt lat="44.655693" lon="33.795540">
<ele>89.098694</ele>
<time>2011-10-10T08:30:37Z</time>
<desc>lat.=44.655693, lon.=33.795540, Alt.=89.098694m. Speed=13.176000m/h.</desc>
<speed>3.660000</speed>
</trkpt>
<trkpt lat="44.655663" lon="33.795773">
<ele>89.692444</ele>
<time>2011-10-10T08:30:42Z</time>
<desc>lat.=44.655663, lon.=33.795773, Alt.=89.692444m. Speed=14.688000m/h.</desc>
<speed>4.080000</speed>
</trkpt>
<trkpt lat="44.655640" lon="33.796013">
<ele>89.284241</ele>
<time>2011-10-10T08:30:47Z</time>
<desc>lat.=44.655640, lon.=33.796013, Alt.=89.284241m. Speed=12.564000m/h.</desc>
<speed>3.490000</speed>
</trkpt>
<trkpt lat="44.655609" lon="33.796223">
<ele>89.321350</ele>
<time>2011-10-10T08:30:52Z</time>
<desc>lat.=44.655609, lon.=33.796223, Alt.=89.321350m. Speed=10.944000m/h.</desc>
<speed>3.040000</speed>
</trkpt>
<trkpt lat="44.655590" lon="33.796368">
<ele>89.497131</ele>
<time>2011-10-10T08:30:57Z</time>
<desc>lat.=44.655590, lon.=33.796368, Alt.=89.497131m. Speed=7.056000m/h.</desc>
<speed>1.960000</speed>
</trkpt>
<trkpt lat="44.655563" lon="33.796524">
<ele>89.690491</ele>
<time>2011-10-10T08:31:02Z</time>
<desc>lat.=44.655563, lon.=33.796524, Alt.=89.690491m. Speed=11.556000m/h.</desc>
<speed>3.210000</speed>
</trkpt>
<trkpt lat="44.655514" lon="33.796715">
<ele>90.536194</ele>
<time>2011-10-10T08:31:07Z</time>
<desc>lat.=44.655514, lon.=33.796715, Alt.=90.536194m. Speed=12.024000m/h.</desc>
<speed>3.340000</speed>
</trkpt>
<trkpt lat="44.655472" lon="33.796883">
<ele>90.590881</ele>
<time>2011-10-10T08:31:12Z</time>
<desc>lat.=44.655472, lon.=33.796883, Alt.=90.590881m. Speed=8.316000m/h.</desc>
<speed>2.310000</speed>
</trkpt>
<trkpt lat="44.655418" lon="33.796978">
<ele>90.917053</ele>
<time>2011-10-10T08:31:17Z</time>
<desc>lat.=44.655418, lon.=33.796978, Alt.=90.917053m. Speed=8.280000m/h.</desc>
<speed>2.300000</speed>
</trkpt>
<trkpt lat="44.655323" lon="33.797100">
<ele>90.901428</ele>
<time>2011-10-10T08:31:22Z</time>
<desc>lat.=44.655323, lon.=33.797100, Alt.=90.901428m. Speed=11.268000m/h.</desc>
<speed>3.130000</speed>
</trkpt>
<trkpt lat="44.655197" lon="33.797215">
<ele>91.366272</ele>
<time>2011-10-10T08:31:27Z</time>
<desc>lat.=44.655197, lon.=33.797215, Alt.=91.366272m. Speed=12.564000m/h.</desc>
<speed>3.490000</speed>
</trkpt>
<trkpt lat="44.655075" lon="33.797375">
<ele>91.542053</ele>
<time>2011-10-10T08:31:32Z</time>
<desc>lat.=44.655075, lon.=33.797375, Alt.=91.542053m. Speed=14.076000m/h.</desc>
<speed>3.910000</speed>
</trkpt>
<trkpt lat="44.654987" lon="33.797581">
<ele>91.788147</ele>
<time>2011-10-10T08:31:37Z</time>
<desc>lat.=44.654987, lon.=33.797581, Alt.=91.788147m. Speed=14.868000m/h.</desc>
<speed>4.130000</speed>
</trkpt>
<trkpt lat="44.654892" lon="33.797806">
<ele>92.147522</ele>
<time>2011-10-10T08:31:42Z</time>
<desc>lat.=44.654892, lon.=33.797806, Alt.=92.147522m. Speed=13.536000m/h.</desc>
<speed>3.760000</speed>
</trkpt>
<trkpt lat="44.654804" lon="33.798023">
<ele>91.710022</ele>
<time>2011-10-10T08:31:47Z</time>
<desc>lat.=44.654804, lon.=33.798023, Alt.=91.710022m. Speed=14.652000m/h.</desc>
<speed>4.070000</speed>
</trkpt>
<trkpt lat="44.654709" lon="33.798248">
<ele>92.065491</ele>
<time>2011-10-10T08:31:52Z</time>
<desc>lat.=44.654709, lon.=33.798248, Alt.=92.065491m. Speed=14.112000m/h.</desc>
<speed>3.920000</speed>
</trkpt>
<trkpt lat="44.654613" lon="33.798443">
<ele>92.629944</ele>
<time>2011-10-10T08:31:57Z</time>
<desc>lat.=44.654613, lon.=33.798443, Alt.=92.629944m. Speed=11.628000m/h.</desc>
<speed>3.230000</speed>
</trkpt>
<trkpt lat="44.654568" lon="33.798634">
<ele>92.647522</ele>
<time>2011-10-10T08:32:02Z</time>
<desc>lat.=44.654568, lon.=33.798634, Alt.=92.647522m. Speed=12.060000m/h.</desc>
<speed>3.350000</speed>
</trkpt>
<trkpt lat="44.654503" lon="33.798828">
<ele>93.362366</ele>
<time>2011-10-10T08:32:07Z</time>
<desc>lat.=44.654503, lon.=33.798828, Alt.=93.362366m. Speed=10.008000m/h.</desc>
<speed>2.780000</speed>
</trkpt>
<trkpt lat="44.654480" lon="33.798912">
<ele>93.473694</ele>
<time>2011-10-10T08:32:12Z</time>
<desc>lat.=44.654480, lon.=33.798912, Alt.=93.473694m. Speed=3.240000m/h.</desc>
<speed>0.900000</speed>
</trkpt>
<trkpt lat="44.654465" lon="33.798904">
<ele>93.448303</ele>
<time>2011-10-10T08:32:17Z</time>
<desc>lat.=44.654465, lon.=33.798904, Alt.=93.448303m. Speed=0.468000m/h.</desc>
<speed>0.130000</speed>
</trkpt>
<trkpt lat="44.654465" lon="33.798904">
<ele>93.331116</ele>
<time>2011-10-10T08:32:22Z</time>
<desc>lat.=44.654465, lon.=33.798904, Alt.=93.331116m. Speed=0.108000m/h.</desc>
<speed>0.030000</speed>
</trkpt>
<trkpt lat="44.654465" lon="33.798904">
<ele>93.389709</ele>
<time>2011-10-10T08:32:27Z</time>
<desc>lat.=44.654465, lon.=33.798904, Alt.=93.389709m. Speed=0.216000m/h.</desc>
<speed>0.060000</speed>
</trkpt>
<trkpt lat="44.654465" lon="33.798904">
<ele>93.362366</ele>
<time>2011-10-10T08:32:32Z</time>
<desc>lat.=44.654465, lon.=33.798904, Alt.=93.362366m. Speed=0.252000m/h.</desc>
<speed>0.070000</speed>
</trkpt>
<trkpt lat="44.654465" lon="33.798904">
<ele>93.379944</ele>
<time>2011-10-10T08:32:37Z</time>
<desc>lat.=44.654465, lon.=33.798904, Alt.=93.379944m. Speed=0.144000m/h.</desc>
<speed>0.040000</speed>
</trkpt>
<trkpt lat="44.654461" lon="33.798901">
<ele>93.366272</ele>
<time>2011-10-10T08:32:42Z</time>
<desc>lat.=44.654461, lon.=33.798901, Alt.=93.366272m. Speed=0.036000m/h.</desc>
<speed>0.010000</speed>
</trkpt>
<trkpt lat="44.654457" lon="33.798908">
<ele>93.422913</ele>
<time>2011-10-10T08:32:47Z</time>
<desc>lat.=44.654457, lon.=33.798908, Alt.=93.422913m. Speed=2.628000m/h.</desc>
<speed>0.730000</speed>
</trkpt>
<trkpt lat="44.654442" lon="33.798904">
<ele>93.411194</ele>
<time>2011-10-10T08:32:52Z</time>
<desc>lat.=44.654442, lon.=33.798904, Alt.=93.411194m. Speed=0.180000m/h.</desc>
<speed>0.050000</speed>
</trkpt>
<trkpt lat="44.654446" lon="33.798904">
<ele>93.413147</ele>
<time>2011-10-10T08:32:57Z</time>
<desc>lat.=44.654446, lon.=33.798904, Alt.=93.413147m. Speed=0.108000m/h.</desc>
<speed>0.030000</speed>
</trkpt>
<trkpt lat="44.654446" lon="33.798904">
<ele>93.362366</ele>
<time>2011-10-10T08:33:02Z</time>
<desc>lat.=44.654446, lon.=33.798904, Alt.=93.362366m. Speed=0.036000m/h.</desc>
<speed>0.010000</speed>
</trkpt>
<trkpt lat="44.654442" lon="33.798904">
<ele>93.106506</ele>
<time>2011-10-10T08:33:07Z</time>
<desc>lat.=44.654442, lon.=33.798904, Alt.=93.106506m. Speed=0.108000m/h.</desc>
<speed>0.030000</speed>
</trkpt>
<trkpt lat="44.654442" lon="33.798904">
<ele>93.022522</ele>
<time>2011-10-10T08:33:12Z</time>
<desc>lat.=44.654442, lon.=33.798904, Alt.=93.022522m. Speed=0.072000m/h.</desc>
<speed>0.020000</speed>
</trkpt>
<trkpt lat="44.654442" lon="33.798904">
<ele>93.004944</ele>
<time>2011-10-10T08:33:17Z</time>
<desc>lat.=44.654442, lon.=33.798904, Alt.=93.004944m. Speed=0.072000m/h.</desc>
<speed>0.020000</speed>
</trkpt>
<trkpt lat="44.654442" lon="33.798904">
<ele>92.995178</ele>
<time>2011-10-10T08:33:22Z</time>
<desc>lat.=44.654442, lon.=33.798904, Alt.=92.995178m. Speed=0.000000m/h.</desc>
<speed>0.000000</speed>
</trkpt>
<trkpt lat="44.654449" lon="33.798912">
<ele>93.002991</ele>
<time>2011-10-10T08:33:27Z</time>
<desc>lat.=44.654449, lon.=33.798912, Alt.=93.002991m. Speed=4.032000m/h.</desc>
<speed>1.120000</speed>
</trkpt>
<trkpt lat="44.654438" lon="33.798977">
<ele>92.803772</ele>
<time>2011-10-10T08:33:32Z</time>
<desc>lat.=44.654438, lon.=33.798977, Alt.=92.803772m. Speed=3.096000m/h.</desc>
<speed>0.860000</speed>
</trkpt>
<trkpt lat="44.654415" lon="33.798965">
<ele>92.667053</ele>
<time>2011-10-10T08:33:37Z</time>
<desc>lat.=44.654415, lon.=33.798965, Alt.=92.667053m. Speed=4.284000m/h.</desc>
<speed>1.190000</speed>
</trkpt>
<trkpt lat="44.654404" lon="33.798908">
<ele>92.977600</ele>
<time>2011-10-10T08:33:42Z</time>
<desc>lat.=44.654404, lon.=33.798908, Alt.=92.977600m. Speed=2.124000m/h.</desc>
<speed>0.590000</speed>
</trkpt>
<trkpt lat="44.654404" lon="33.798904">
<ele>93.411194</ele>
<time>2011-10-10T08:33:47Z</time>
<desc>lat.=44.654404, lon.=33.798904, Alt.=93.411194m. Speed=0.000000m/h.</desc>
<speed>0.000000</speed>
</trkpt>
<trkpt lat="44.654400" lon="33.798912">
<ele>93.745178</ele>
<time>2011-10-10T08:33:52Z</time>
<desc>lat.=44.654400, lon.=33.798912, Alt.=93.745178m. Speed=0.072000m/h.</desc>
<speed>0.020000</speed>
</trkpt>
<trkpt lat="44.654404" lon="33.798912">
<ele>93.776428</ele>
<time>2011-10-10T08:33:57Z</time>
<desc>lat.=44.654404, lon.=33.798912, Alt.=93.776428m. Speed=0.036000m/h.</desc>
<speed>0.010000</speed>
</trkpt>
<trkpt lat="44.654404" lon="33.798908">
<ele>93.643616</ele>
<time>2011-10-10T08:34:02Z</time>
<desc>lat.=44.654404, lon.=33.798908, Alt.=93.643616m. Speed=0.468000m/h.</desc>
<speed>0.130000</speed>
</trkpt>
<trkpt lat="44.654400" lon="33.798916">
<ele>93.647522</ele>
<time>2011-10-10T08:34:07Z</time>
<desc>lat.=44.654400, lon.=33.798916, Alt.=93.647522m. Speed=0.324000m/h.</desc>
<speed>0.090000</speed>
</trkpt>
<trkpt lat="44.654408" lon="33.798912">
<ele>93.817444</ele>
<time>2011-10-10T08:34:12Z</time>
<desc>lat.=44.654408, lon.=33.798912, Alt.=93.817444m. Speed=0.000000m/h.</desc>
<speed>0.000000</speed>
</trkpt>
<trkpt lat="44.654408" lon="33.798912">
<ele>94.008850</ele>
<time>2011-10-10T08:34:17Z</time>
<desc>lat.=44.654408, lon.=33.798912, Alt.=94.008850m. Speed=0.000000m/h.</desc>
<speed>0.000000</speed>
</trkpt>
<trkpt lat="44.654404" lon="33.798920">
<ele>93.897522</ele>
<time>2011-10-10T08:34:22Z</time>
<desc>lat.=44.654404, lon.=33.798920, Alt.=93.897522m. Speed=0.036000m/h.</desc>
<speed>0.010000</speed>
</trkpt>
<trkpt lat="44.654408" lon="33.798923">
<ele>93.854553</ele>
<time>2011-10-10T08:34:27Z</time>
<desc>lat.=44.654408, lon.=33.798923, Alt.=93.854553m. Speed=0.000000m/h.</desc>
<speed>0.000000</speed>
</trkpt>
<trkpt lat="44.654408" lon="33.798923">
<ele>93.862366</ele>
<time>2011-10-10T08:34:32Z</time>
<desc>lat.=44.654408, lon.=33.798923, Alt.=93.862366m. Speed=0.036000m/h.</desc>
<speed>0.010000</speed>
</trkpt>
<trkpt lat="44.654408" lon="33.798923">
<ele>93.870178</ele>
<time>2011-10-10T08:34:37Z</time>
<desc>lat.=44.654408, lon.=33.798923, Alt.=93.870178m. Speed=0.036000m/h.</desc>
<speed>0.010000</speed>
</trkpt>
<trkpt lat="44.654408" lon="33.798923">
<ele>93.876038</ele>
<time>2011-10-10T08:34:42Z</time>
<desc>lat.=44.654408, lon.=33.798923, Alt.=93.876038m. Speed=0.072000m/h.</desc>
<speed>0.020000</speed>
</trkpt>
<trkpt lat="44.654408" lon="33.798920">
<ele>93.872131</ele>
<time>2011-10-10T08:34:47Z</time>
<desc>lat.=44.654408, lon.=33.798920, Alt.=93.872131m. Speed=0.108000m/h.</desc>
<speed>0.030000</speed>
</trkpt>
<trkpt lat="44.654408" lon="33.798920">
<ele>93.846741</ele>
<time>2011-10-10T08:34:52Z</time>
<desc>lat.=44.654408, lon.=33.798920, Alt.=93.846741m. Speed=0.108000m/h.</desc>
<speed>0.030000</speed>
</trkpt>
<trkpt lat="44.654404" lon="33.798908">
<ele>93.780334</ele>
<time>2011-10-10T08:34:57Z</time>
<desc>lat.=44.654404, lon.=33.798908, Alt.=93.780334m. Speed=2.232000m/h.</desc>
<speed>0.620000</speed>
</trkpt>
<trkpt lat="44.654388" lon="33.798878">
<ele>93.342834</ele>
<time>2011-10-10T08:35:02Z</time>
<desc>lat.=44.654388, lon.=33.798878, Alt.=93.342834m. Speed=0.036000m/h.</desc>
<speed>0.010000</speed>
</trkpt>
<trkpt lat="44.654385" lon="33.798878">
<ele>93.376038</ele>
<time>2011-10-10T08:35:07Z</time>
<desc>lat.=44.654385, lon.=33.798878, Alt.=93.376038m. Speed=0.108000m/h.</desc>
<speed>0.030000</speed>
</trkpt>
<trkpt lat="44.654392" lon="33.798866">
<ele>93.590881</ele>
<time>2011-10-10T08:35:12Z</time>
<desc>lat.=44.654392, lon.=33.798866, Alt.=93.590881m. Speed=0.180000m/h.</desc>
<speed>0.050000</speed>
</trkpt>
<trkpt lat="44.654396" lon="33.798862">
<ele>93.514709</ele>
<time>2011-10-10T08:35:17Z</time>
<desc>lat.=44.654396, lon.=33.798862, Alt.=93.514709m. Speed=0.144000m/h.</desc>
<speed>0.040000</speed>
</trkpt>
<trkpt lat="44.654392" lon="33.798862">
<ele>93.702209</ele>
<time>2011-10-10T08:35:22Z</time>
<desc>lat.=44.654392, lon.=33.798862, Alt.=93.702209m. Speed=0.000000m/h.</desc>
<speed>0.000000</speed>
</trkpt>
<trkpt lat="44.654392" lon="33.798866">
<ele>93.711975</ele>
<time>2011-10-10T08:35:27Z</time>
<desc>lat.=44.654392, lon.=33.798866, Alt.=93.711975m. Speed=0.900000m/h.</desc>
<speed>0.250000</speed>
</trkpt>
<trkpt lat="44.654354" lon="33.798790">
<ele>92.811584</ele>
<time>2011-10-10T08:35:32Z</time>
<desc>lat.=44.654354, lon.=33.798790, Alt.=92.811584m. Speed=8.784000m/h.</desc>
<speed>2.440000</speed>
</trkpt>
<trkpt lat="44.654305" lon="33.798710">
<ele>91.426819</ele>
<time>2011-10-10T08:35:37Z</time>
<desc>lat.=44.654305, lon.=33.798710, Alt.=91.426819m. Speed=11.988000m/h.</desc>
<speed>3.330000</speed>
</trkpt>
<trkpt lat="44.654118" lon="33.798595">
<ele>90.077209</ele>
<time>2011-10-10T08:35:42Z</time>
<desc>lat.=44.654118, lon.=33.798595, Alt.=90.077209m. Speed=13.788000m/h.</desc>
<speed>3.830000</speed>
</trkpt>
<trkpt lat="44.654041" lon="33.798550">
<ele>89.647522</ele>
<time>2011-10-10T08:35:47Z</time>
<desc>lat.=44.654041, lon.=33.798550, Alt.=89.647522m. Speed=4.536000m/h.</desc>
<speed>1.260000</speed>
</trkpt>
<trkpt lat="44.654034" lon="33.798542">
<ele>89.725647</ele>
<time>2011-10-10T08:35:52Z</time>
<desc>lat.=44.654034, lon.=33.798542, Alt.=89.725647m. Speed=0.432000m/h.</desc>
<speed>0.120000</speed>
</trkpt>
<trkpt lat="44.654037" lon="33.798534">
<ele>90.850647</ele>
<time>2011-10-10T08:35:57Z</time>
<desc>lat.=44.654037, lon.=33.798534, Alt.=90.850647m. Speed=1.836000m/h.</desc>
<speed>0.510000</speed>
</trkpt>
<trkpt lat="44.654037" lon="33.798527">
<ele>91.823303</ele>
<time>2011-10-10T08:36:02Z</time>
<desc>lat.=44.654037, lon.=33.798527, Alt.=91.823303m. Speed=0.252000m/h.</desc>
<speed>0.070000</speed>
</trkpt>
<trkpt lat="44.654030" lon="33.798534">
<ele>91.829163</ele>
<time>2011-10-10T08:36:07Z</time>
<desc>lat.=44.654030, lon.=33.798534, Alt.=91.829163m. Speed=1.296000m/h.</desc>
<speed>0.360000</speed>
</trkpt>
<trkpt lat="44.654037" lon="33.798538">
<ele>91.819397</ele>
<time>2011-10-10T08:36:12Z</time>
<desc>lat.=44.654037, lon.=33.798538, Alt.=91.819397m. Speed=0.072000m/h.</desc>
<speed>0.020000</speed>
</trkpt>
<trkpt lat="44.654037" lon="33.798534">
<ele>92.100647</ele>
<time>2011-10-10T08:36:17Z</time>
<desc>lat.=44.654037, lon.=33.798534, Alt.=92.100647m. Speed=0.288000m/h.</desc>
<speed>0.080000</speed>
</trkpt>
<trkpt lat="44.654037" lon="33.798523">
<ele>92.774475</ele>
<time>2011-10-10T08:36:22Z</time>
<desc>lat.=44.654037, lon.=33.798523, Alt.=92.774475m. Speed=0.108000m/h.</desc>
<speed>0.030000</speed>
</trkpt>
<trkpt lat="44.654045" lon="33.798519">
<ele>92.983459</ele>
<time>2011-10-10T08:36:27Z</time>
<desc>lat.=44.654045, lon.=33.798519, Alt.=92.983459m. Speed=0.036000m/h.</desc>
<speed>0.010000</speed>
</trkpt>
<trkpt lat="44.654049" lon="33.798519">
<ele>93.196350</ele>
<time>2011-10-10T08:36:32Z</time>
<desc>lat.=44.654049, lon.=33.798519, Alt.=93.196350m. Speed=0.036000m/h.</desc>
<speed>0.010000</speed>
</trkpt>
<trkpt lat="44.654045" lon="33.798519">
<ele>92.924866</ele>
<time>2011-10-10T08:36:37Z</time>
<desc>lat.=44.654045, lon.=33.798519, Alt.=92.924866m. Speed=0.036000m/h.</desc>
<speed>0.010000</speed>
</trkpt>
<trkpt lat="44.654037" lon="33.798519">
<ele>92.575256</ele>
<time>2011-10-10T08:36:42Z</time>
<desc>lat.=44.654037, lon.=33.798519, Alt.=92.575256m. Speed=0.072000m/h.</desc>
<speed>0.020000</speed>
</trkpt>
<trkpt lat="44.654030" lon="33.798527">
<ele>92.272522</ele>
<time>2011-10-10T08:36:47Z</time>
<desc>lat.=44.654030, lon.=33.798527, Alt.=92.272522m. Speed=0.360000m/h.</desc>
<speed>0.100000</speed>
</trkpt>
<trkpt lat="44.654011" lon="33.798500">
<ele>92.557678</ele>
<time>2011-10-10T08:36:52Z</time>
<desc>lat.=44.654011, lon.=33.798500, Alt.=92.557678m. Speed=1.476000m/h.</desc>
<speed>0.410000</speed>
</trkpt>
<trkpt lat="44.654003" lon="33.798473">
<ele>93.819397</ele>
<time>2011-10-10T08:36:57Z</time>
<desc>lat.=44.654003, lon.=33.798473, Alt.=93.819397m. Speed=2.376000m/h.</desc>
<speed>0.660000</speed>
</trkpt>
<trkpt lat="44.654003" lon="33.798431">
<ele>94.963928</ele>
<time>2011-10-10T08:37:02Z</time>
<desc>lat.=44.654003, lon.=33.798431, Alt.=94.963928m. Speed=3.888000m/h.</desc>
<speed>1.080000</speed>
</trkpt>
<trkpt lat="44.653999" lon="33.798416">
<ele>95.686584</ele>
<time>2011-10-10T08:37:07Z</time>
<desc>lat.=44.653999, lon.=33.798416, Alt.=95.686584m. Speed=0.036000m/h.</desc>
<speed>0.010000</speed>
</trkpt>
<trkpt lat="44.653999" lon="33.798420">
<ele>95.868225</ele>
<time>2011-10-10T08:37:12Z</time>
<desc>lat.=44.653999, lon.=33.798420, Alt.=95.868225m. Speed=0.000000m/h.</desc>
<speed>0.000000</speed>
</trkpt>
<trkpt lat="44.653996" lon="33.798420">
<ele>96.399475</ele>
<time>2011-10-10T08:37:17Z</time>
<desc>lat.=44.653996, lon.=33.798420, Alt.=96.399475m. Speed=0.036000m/h.</desc>
<speed>0.010000</speed>
</trkpt>
<trkpt lat="44.653973" lon="33.798389">
<ele>97.264709</ele>
<time>2011-10-10T08:37:22Z</time>
<desc>lat.=44.653973, lon.=33.798389, Alt.=97.264709m. Speed=4.500000m/h.</desc>
<speed>1.250000</speed>
</trkpt>
<trkpt lat="44.653927" lon="33.798386">
<ele>97.442444</ele>
<time>2011-10-10T08:37:27Z</time>
<desc>lat.=44.653927, lon.=33.798386, Alt.=97.442444m. Speed=0.180000m/h.</desc>
<speed>0.050000</speed>
</trkpt>
<trkpt lat="44.653912" lon="33.798378">
<ele>97.256897</ele>
<time>2011-10-10T08:37:32Z</time>
<desc>lat.=44.653912, lon.=33.798378, Alt.=97.256897m. Speed=0.180000m/h.</desc>
<speed>0.050000</speed>
</trkpt>
<trkpt lat="44.653896" lon="33.798405">
<ele>97.081116</ele>
<time>2011-10-10T08:37:37Z</time>
<desc>lat.=44.653896, lon.=33.798405, Alt.=97.081116m. Speed=0.216000m/h.</desc>
<speed>0.060000</speed>
</trkpt>
<trkpt lat="44.653889" lon="33.798409">
<ele>96.506897</ele>
<time>2011-10-10T08:37:42Z</time>
<desc>lat.=44.653889, lon.=33.798409, Alt.=96.506897m. Speed=0.036000m/h.</desc>
<speed>0.010000</speed>
</trkpt>
<trkpt lat="44.653889" lon="33.798409">
<ele>96.069397</ele>
<time>2011-10-10T08:37:47Z</time>
<desc>lat.=44.653889, lon.=33.798409, Alt.=96.069397m. Speed=0.000000m/h.</desc>
<speed>0.000000</speed>
</trkpt>
<trkpt lat="44.653877" lon="33.798416">
<ele>95.747131</ele>
<time>2011-10-10T08:37:52Z</time>
<desc>lat.=44.653877, lon.=33.798416, Alt.=95.747131m. Speed=0.000000m/h.</desc>
<speed>0.000000</speed>
</trkpt>
<trkpt lat="44.653873" lon="33.798416">
<ele>95.569397</ele>
<time>2011-10-10T08:37:57Z</time>
<desc>lat.=44.653873, lon.=33.798416, Alt.=95.569397m. Speed=1.116000m/h.</desc>
<speed>0.310000</speed>
</trkpt>
<trkpt lat="44.653870" lon="33.798416">
<ele>95.836975</ele>
<time>2011-10-10T08:38:02Z</time>
<desc>lat.=44.653870, lon.=33.798416, Alt.=95.836975m. Speed=0.036000m/h.</desc>
<speed>0.010000</speed>
</trkpt>
<trkpt lat="44.653870" lon="33.798416">
<ele>95.838928</ele>
<time>2011-10-10T08:38:07Z</time>
<desc>lat.=44.653870, lon.=33.798416, Alt.=95.838928m. Speed=0.036000m/h.</desc>
<speed>0.010000</speed>
</trkpt>
<trkpt lat="44.653870" lon="33.798416">
<ele>95.838928</ele>
<time>2011-10-10T08:38:12Z</time>
<desc>lat.=44.653870, lon.=33.798416, Alt.=95.838928m. Speed=0.216000m/h.</desc>
<speed>0.060000</speed>
</trkpt>
<trkpt lat="44.653870" lon="33.798416">
<ele>95.596741</ele>
<time>2011-10-10T08:38:17Z</time>
<desc>lat.=44.653870, lon.=33.798416, Alt.=95.596741m. Speed=0.144000m/h.</desc>
<speed>0.040000</speed>
</trkpt>
<trkpt lat="44.653873" lon="33.798424">
<ele>95.202209</ele>
<time>2011-10-10T08:38:22Z</time>
<desc>lat.=44.653873, lon.=33.798424, Alt.=95.202209m. Speed=0.108000m/h.</desc>
<speed>0.030000</speed>
</trkpt>
<trkpt lat="44.653873" lon="33.798424">
<ele>95.204163</ele>
<time>2011-10-10T08:38:27Z</time>
<desc>lat.=44.653873, lon.=33.798424, Alt.=95.204163m. Speed=0.000000m/h.</desc>
<speed>0.000000</speed>
</trkpt>
<trkpt lat="44.653873" lon="33.798424">
<ele>95.210022</ele>
<time>2011-10-10T08:38:32Z</time>
<desc>lat.=44.653873, lon.=33.798424, Alt.=95.210022m. Speed=0.000000m/h.</desc>
<speed>0.000000</speed>
</trkpt>
<trkpt lat="44.653873" lon="33.798424">
<ele>95.215881</ele>
<time>2011-10-10T08:38:37Z</time>
<desc>lat.=44.653873, lon.=33.798424, Alt.=95.215881m. Speed=0.036000m/h.</desc>
<speed>0.010000</speed>
</trkpt>
<trkpt lat="44.653873" lon="33.798424">
<ele>95.223694</ele>
<time>2011-10-10T08:38:42Z</time>
<desc>lat.=44.653873, lon.=33.798424, Alt.=95.223694m. Speed=0.000000m/h.</desc>
<speed>0.000000</speed>
</trkpt>
<trkpt lat="44.653873" lon="33.798424">
<ele>95.231506</ele>
<time>2011-10-10T08:38:47Z</time>
<desc>lat.=44.653873, lon.=33.798424, Alt.=95.231506m. Speed=0.000000m/h.</desc>
<speed>0.000000</speed>
</trkpt>
<trkpt lat="44.653873" lon="33.798424">
<ele>95.235413</ele>
<time>2011-10-10T08:38:52Z</time>
<desc>lat.=44.653873, lon.=33.798424, Alt.=95.235413m. Speed=0.000000m/h.</desc>
<speed>0.000000</speed>
</trkpt>
<trkpt lat="44.653873" lon="33.798424">
<ele>95.241272</ele>
<time>2011-10-10T08:38:57Z</time>
<desc>lat.=44.653873, lon.=33.798424, Alt.=95.241272m. Speed=0.036000m/h.</desc>
<speed>0.010000</speed>
</trkpt>
<trkpt lat="44.653873" lon="33.798424">
<ele>95.245178</ele>
<time>2011-10-10T08:39:02Z</time>
<desc>lat.=44.653873, lon.=33.798424, Alt.=95.245178m. Speed=0.000000m/h.</desc>
<speed>0.000000</speed>
</trkpt>
<trkpt lat="44.653873" lon="33.798424">
<ele>95.251038</ele>
<time>2011-10-10T08:39:07Z</time>
<desc>lat.=44.653873, lon.=33.798424, Alt.=95.251038m. Speed=0.000000m/h.</desc>
<speed>0.000000</speed>
</trkpt>
<trkpt lat="44.653873" lon="33.798424">
<ele>95.268616</ele>
<time>2011-10-10T08:39:12Z</time>
<desc>lat.=44.653873, lon.=33.798424, Alt.=95.268616m. Speed=0.000000m/h.</desc>
<speed>0.000000</speed>
</trkpt>
<trkpt lat="44.653873" lon="33.798424">
<ele>95.282288</ele>
<time>2011-10-10T08:39:17Z</time>
<desc>lat.=44.653873, lon.=33.798424, Alt.=95.282288m. Speed=0.000000m/h.</desc>
<speed>0.000000</speed>
</trkpt>
<trkpt lat="44.653873" lon="33.798424">
<ele>95.295959</ele>
<time>2011-10-10T08:39:22Z</time>
<desc>lat.=44.653873, lon.=33.798424, Alt.=95.295959m. Speed=0.072000m/h.</desc>
<speed>0.020000</speed>
</trkpt>
<trkpt lat="44.653873" lon="33.798424">
<ele>95.301819</ele>
<time>2011-10-10T08:39:27Z</time>
<desc>lat.=44.653873, lon.=33.798424, Alt.=95.301819m. Speed=0.000000m/h.</desc>
<speed>0.000000</speed>
</trkpt>
<trkpt lat="44.653873" lon="33.798424">
<ele>95.307678</ele>
<time>2011-10-10T08:39:32Z</time>
<desc>lat.=44.653873, lon.=33.798424, Alt.=95.307678m. Speed=0.000000m/h.</desc>
<speed>0.000000</speed>
</trkpt>
<trkpt lat="44.653873" lon="33.798424">
<ele>95.307678</ele>
<time>2011-10-10T08:39:37Z</time>
<desc>lat.=44.653873, lon.=33.798424, Alt.=95.307678m. Speed=0.000000m/h.</desc>
<speed>0.000000</speed>
</trkpt>
<trkpt lat="44.653873" lon="33.798424">
<ele>95.295959</ele>
<time>2011-10-10T08:39:42Z</time>
<desc>lat.=44.653873, lon.=33.798424, Alt.=95.295959m. Speed=0.000000m/h.</desc>
<speed>0.000000</speed>
</trkpt>
<trkpt lat="44.653873" lon="33.798424">
<ele>95.284241</ele>
<time>2011-10-10T08:39:47Z</time>
<desc>lat.=44.653873, lon.=33.798424, Alt.=95.284241m. Speed=0.036000m/h.</desc>
<speed>0.010000</speed>
</trkpt>
<trkpt lat="44.653873" lon="33.798424">
<ele>95.278381</ele>
<time>2011-10-10T08:39:52Z</time>
<desc>lat.=44.653873, lon.=33.798424, Alt.=95.278381m. Speed=0.756000m/h.</desc>
<speed>0.210000</speed>
</trkpt>
<trkpt lat="44.653862" lon="33.798370">
<ele>95.282288</ele>
<time>2011-10-10T08:39:57Z</time>
<desc>lat.=44.653862, lon.=33.798370, Alt.=95.282288m. Speed=6.444000m/h.</desc>
<speed>1.790000</speed>
</trkpt>
<trkpt lat="44.653854" lon="33.798241">
<ele>95.711975</ele>
<time>2011-10-10T08:40:02Z</time>
<desc>lat.=44.653854, lon.=33.798241, Alt.=95.711975m. Speed=6.912000m/h.</desc>
<speed>1.920000</speed>
</trkpt>
<trkpt lat="44.653835" lon="33.798153">
<ele>96.159241</ele>
<time>2011-10-10T08:40:07Z</time>
<desc>lat.=44.653835, lon.=33.798153, Alt.=96.159241m. Speed=6.696000m/h.</desc>
<speed>1.860000</speed>
</trkpt>
<trkpt lat="44.653782" lon="33.798046">
<ele>97.241272</ele>
<time>2011-10-10T08:40:12Z</time>
<desc>lat.=44.653782, lon.=33.798046, Alt.=97.241272m. Speed=6.984000m/h.</desc>
<speed>1.940000</speed>
</trkpt>
<trkpt lat="44.653748" lon="33.797985">
<ele>99.370178</ele>
<time>2011-10-10T08:40:17Z</time>
<desc>lat.=44.653748, lon.=33.797985, Alt.=99.370178m. Speed=2.592000m/h.</desc>
<speed>0.720000</speed>
</trkpt>
<trkpt lat="44.653748" lon="33.798016">
<ele>99.795959</ele>
<time>2011-10-10T08:40:22Z</time>
<desc>lat.=44.653748, lon.=33.798016, Alt.=99.795959m. Speed=3.060000m/h.</desc>
<speed>0.850000</speed>
</trkpt>
<trkpt lat="44.653759" lon="33.798042">
<ele>100.081116</ele>
<time>2011-10-10T08:40:27Z</time>
<desc>lat.=44.653759, lon.=33.798042, Alt.=100.081116m. Speed=0.324000m/h.</desc>
<speed>0.090000</speed>
</trkpt>
<trkpt lat="44.653755" lon="33.798065">
<ele>100.420959</ele>
<time>2011-10-10T08:40:32Z</time>
<desc>lat.=44.653755, lon.=33.798065, Alt.=100.420959m. Speed=2.124000m/h.</desc>
<speed>0.590000</speed>
</trkpt>
<trkpt lat="44.653759" lon="33.798145">
<ele>101.358459</ele>
<time>2011-10-10T08:40:37Z</time>
<desc>lat.=44.653759, lon.=33.798145, Alt.=101.358459m. Speed=7.236000m/h.</desc>
<speed>2.010000</speed>
</trkpt>
<trkpt lat="44.653774" lon="33.798248">
<ele>102.301819</ele>
<time>2011-10-10T08:40:42Z</time>
<desc>lat.=44.653774, lon.=33.798248, Alt.=102.301819m. Speed=7.740000m/h.</desc>
<speed>2.150000</speed>
</trkpt>
<trkpt lat="44.653774" lon="33.798389">
<ele>102.676819</ele>
<time>2011-10-10T08:40:47Z</time>
<desc>lat.=44.653774, lon.=33.798389, Alt.=102.676819m. Speed=8.784000m/h.</desc>
<speed>2.440000</speed>
</trkpt>
<trkpt lat="44.653763" lon="33.798523">
<ele>103.372131</ele>
<time>2011-10-10T08:40:52Z</time>
<desc>lat.=44.653763, lon.=33.798523, Alt.=103.372131m. Speed=7.416000m/h.</desc>
<speed>2.060000</speed>
</trkpt>
<trkpt lat="44.653740" lon="33.798634">
<ele>104.669006</ele>
<time>2011-10-10T08:40:57Z</time>
<desc>lat.=44.653740, lon.=33.798634, Alt.=104.669006m. Speed=5.436000m/h.</desc>
<speed>1.510000</speed>
</trkpt>
<trkpt lat="44.653759" lon="33.798759">
<ele>104.385803</ele>
<time>2011-10-10T08:41:02Z</time>
<desc>lat.=44.653759, lon.=33.798759, Alt.=104.385803m. Speed=7.452000m/h.</desc>
<speed>2.070000</speed>
</trkpt>
<trkpt lat="44.653759" lon="33.798878">
<ele>104.547913</ele>
<time>2011-10-10T08:41:07Z</time>
<desc>lat.=44.653759, lon.=33.798878, Alt.=104.547913m. Speed=9.036000m/h.</desc>
<speed>2.510000</speed>
</trkpt>
<trkpt lat="44.653763" lon="33.799030">
<ele>105.178772</ele>
<time>2011-10-10T08:41:12Z</time>
<desc>lat.=44.653763, lon.=33.799030, Alt.=105.178772m. Speed=7.164000m/h.</desc>
<speed>1.990000</speed>
</trkpt>
<trkpt lat="44.653805" lon="33.799252">
<ele>107.079163</ele>
<time>2011-10-10T08:41:17Z</time>
<desc>lat.=44.653805, lon.=33.799252, Alt.=107.079163m. Speed=12.888000m/h.</desc>
<speed>3.580000</speed>
</trkpt>
<trkpt lat="44.653809" lon="33.799458">
<ele>109.544006</ele>
<time>2011-10-10T08:41:22Z</time>
<desc>lat.=44.653809, lon.=33.799458, Alt.=109.544006m. Speed=11.448000m/h.</desc>
<speed>3.180000</speed>
</trkpt>
<trkpt lat="44.653851" lon="33.799664">
<ele>110.538147</ele>
<time>2011-10-10T08:41:27Z</time>
<desc>lat.=44.653851, lon.=33.799664, Alt.=110.538147m. Speed=10.692000m/h.</desc>
<speed>2.970000</speed>
</trkpt>
<trkpt lat="44.653862" lon="33.799824">
<ele>112.676819</ele>
<time>2011-10-10T08:41:32Z</time>
<desc>lat.=44.653862, lon.=33.799824, Alt.=112.676819m. Speed=8.856000m/h.</desc>
<speed>2.460000</speed>
</trkpt>
<trkpt lat="44.653862" lon="33.799946">
<ele>113.547913</ele>
<time>2011-10-10T08:41:37Z</time>
<desc>lat.=44.653862, lon.=33.799946, Alt.=113.547913m. Speed=5.292000m/h.</desc>
<speed>1.470000</speed>
</trkpt>
<trkpt lat="44.653858" lon="33.800060">
<ele>113.876038</ele>
<time>2011-10-10T08:41:42Z</time>
<desc>lat.=44.653858, lon.=33.800060, Alt.=113.876038m. Speed=5.976000m/h.</desc>
<speed>1.660000</speed>
</trkpt>
<trkpt lat="44.653866" lon="33.800194">
<ele>115.147522</ele>
<time>2011-10-10T08:41:47Z</time>
<desc>lat.=44.653866, lon.=33.800194, Alt.=115.147522m. Speed=6.588000m/h.</desc>
<speed>1.830000</speed>
</trkpt>
<trkpt lat="44.653870" lon="33.800316">
<ele>115.967834</ele>
<time>2011-10-10T08:41:52Z</time>
<desc>lat.=44.653870, lon.=33.800316, Alt.=115.967834m. Speed=5.724000m/h.</desc>
<speed>1.590000</speed>
</trkpt>
<trkpt lat="44.653858" lon="33.800407">
<ele>116.252991</ele>
<time>2011-10-10T08:41:57Z</time>
<desc>lat.=44.653858, lon.=33.800407, Alt.=116.252991m. Speed=6.624000m/h.</desc>
<speed>1.840000</speed>
</trkpt>
<trkpt lat="44.653851" lon="33.800514">
<ele>117.389709</ele>
<time>2011-10-10T08:42:02Z</time>
<desc>lat.=44.653851, lon.=33.800514, Alt.=117.389709m. Speed=6.444000m/h.</desc>
<speed>1.790000</speed>
</trkpt>
<trkpt lat="44.653831" lon="33.800610">
<ele>119.157288</ele>
<time>2011-10-10T08:42:07Z</time>
<desc>lat.=44.653831, lon.=33.800610, Alt.=119.157288m. Speed=4.752000m/h.</desc>
<speed>1.320000</speed>
</trkpt>
<trkpt lat="44.653793" lon="33.800697">
<ele>121.102600</ele>
<time>2011-10-10T08:42:12Z</time>
<desc>lat.=44.653793, lon.=33.800697, Alt.=121.102600m. Speed=6.264000m/h.</desc>
<speed>1.740000</speed>
</trkpt>
<trkpt lat="44.653740" lon="33.800789">
<ele>121.708069</ele>
<time>2011-10-10T08:42:17Z</time>
<desc>lat.=44.653740, lon.=33.800789, Alt.=121.708069m. Speed=7.704000m/h.</desc>
<speed>2.140000</speed>
</trkpt>
<trkpt lat="44.653675" lon="33.800896">
<ele>122.042053</ele>
<time>2011-10-10T08:42:22Z</time>
<desc>lat.=44.653675, lon.=33.800896, Alt.=122.042053m. Speed=7.920000m/h.</desc>
<speed>2.200000</speed>
</trkpt>
<trkpt lat="44.653633" lon="33.800980">
<ele>122.784241</ele>
<time>2011-10-10T08:42:27Z</time>
<desc>lat.=44.653633, lon.=33.800980, Alt.=122.784241m. Speed=5.256000m/h.</desc>
<speed>1.460000</speed>
</trkpt>
<trkpt lat="44.653572" lon="33.801086">
<ele>122.971741</ele>
<time>2011-10-10T08:42:32Z</time>
<desc>lat.=44.653572, lon.=33.801086, Alt.=122.971741m. Speed=4.464000m/h.</desc>
<speed>1.240000</speed>
</trkpt>
<trkpt lat="44.653526" lon="33.801189">
<ele>124.581116</ele>
<time>2011-10-10T08:42:37Z</time>
<desc>lat.=44.653526, lon.=33.801189, Alt.=124.581116m. Speed=6.732000m/h.</desc>
<speed>1.870000</speed>
</trkpt>
<trkpt lat="44.653454" lon="33.801311">
<ele>125.426819</ele>
<time>2011-10-10T08:42:42Z</time>
<desc>lat.=44.653454, lon.=33.801311, Alt.=125.426819m. Speed=8.280000m/h.</desc>
<speed>2.300000</speed>
</trkpt>
<trkpt lat="44.653381" lon="33.801411">
<ele>127.071350</ele>
<time>2011-10-10T08:42:47Z</time>
<desc>lat.=44.653381, lon.=33.801411, Alt.=127.071350m. Speed=7.020000m/h.</desc>
<speed>1.950000</speed>
</trkpt>
<trkpt lat="44.653290" lon="33.801479">
<ele>129.271606</ele>
<time>2011-10-10T08:42:52Z</time>
<desc>lat.=44.653290, lon.=33.801479, Alt.=129.271606m. Speed=8.604000m/h.</desc>
<speed>2.390000</speed>
</trkpt>
<trkpt lat="44.653198" lon="33.801521">
<ele>129.755981</ele>
<time>2011-10-10T08:42:57Z</time>
<desc>lat.=44.653198, lon.=33.801521, Alt.=129.755981m. Speed=7.128000m/h.</desc>
<speed>1.980000</speed>
</trkpt>
<trkpt lat="44.653126" lon="33.801575">
<ele>129.502075</ele>
<time>2011-10-10T08:43:02Z</time>
<desc>lat.=44.653126, lon.=33.801575, Alt.=129.502075m. Speed=8.028000m/h.</desc>
<speed>2.230000</speed>
</trkpt>
<trkpt lat="44.653019" lon="33.801609">
<ele>130.490356</ele>
<time>2011-10-10T08:43:07Z</time>
<desc>lat.=44.653019, lon.=33.801609, Alt.=130.490356m. Speed=8.244000m/h.</desc>
<speed>2.290000</speed>
</trkpt>
<trkpt lat="44.652916" lon="33.801659">
<ele>132.189575</ele>
<time>2011-10-10T08:43:12Z</time>
<desc>lat.=44.652916, lon.=33.801659, Alt.=132.189575m. Speed=6.120000m/h.</desc>
<speed>1.700000</speed>
</trkpt>
<trkpt lat="44.652840" lon="33.801670">
<ele>132.072388</ele>
<time>2011-10-10T08:43:17Z</time>
<desc>lat.=44.652840, lon.=33.801670, Alt.=132.072388m. Speed=3.816000m/h.</desc>
<speed>1.060000</speed>
</trkpt>
<trkpt lat="44.652782" lon="33.801666">
<ele>132.888794</ele>
<time>2011-10-10T08:43:22Z</time>
<desc>lat.=44.652782, lon.=33.801666, Alt.=132.888794m. Speed=2.628000m/h.</desc>
<speed>0.730000</speed>
</trkpt>
<trkpt lat="44.652767" lon="33.801678">
<ele>133.630981</ele>
<time>2011-10-10T08:43:27Z</time>
<desc>lat.=44.652767, lon.=33.801678, Alt.=133.630981m. Speed=0.288000m/h.</desc>
<speed>0.080000</speed>
</trkpt>
<trkpt lat="44.652767" lon="33.801678">
<ele>133.755981</ele>
<time>2011-10-10T08:43:32Z</time>
<desc>lat.=44.652767, lon.=33.801678, Alt.=133.755981m. Speed=0.072000m/h.</desc>
<speed>0.020000</speed>
</trkpt>
<trkpt lat="44.652771" lon="33.801678">
<ele>133.673950</ele>
<time>2011-10-10T08:43:37Z</time>
<desc>lat.=44.652771, lon.=33.801678, Alt.=133.673950m. Speed=0.108000m/h.</desc>
<speed>0.030000</speed>
</trkpt>
<trkpt lat="44.652771" lon="33.801678">
<ele>133.670044</ele>
<time>2011-10-10T08:43:42Z</time>
<desc>lat.=44.652771, lon.=33.801678, Alt.=133.670044m. Speed=0.000000m/h.</desc>
<speed>0.000000</speed>
</trkpt>
<trkpt lat="44.652771" lon="33.801678">
<ele>133.666138</ele>
<time>2011-10-10T08:43:47Z</time>
<desc>lat.=44.652771, lon.=33.801678, Alt.=133.666138m. Speed=0.000000m/h.</desc>
<speed>0.000000</speed>
</trkpt>
<trkpt lat="44.652767" lon="33.801678">
<ele>133.666138</ele>
<time>2011-10-10T08:43:52Z</time>
<desc>lat.=44.652767, lon.=33.801678, Alt.=133.666138m. Speed=0.000000m/h.</desc>
<speed>0.000000</speed>
</trkpt>
<trkpt lat="44.652767" lon="33.801678">
<ele>133.662231</ele>
<time>2011-10-10T08:43:57Z</time>
<desc>lat.=44.652767, lon.=33.801678, Alt.=133.662231m. Speed=0.000000m/h.</desc>
<speed>0.000000</speed>
</trkpt>
<trkpt lat="44.652767" lon="33.801678">
<ele>133.650513</ele>
<time>2011-10-10T08:44:02Z</time>
<desc>lat.=44.652767, lon.=33.801678, Alt.=133.650513m. Speed=0.000000m/h.</desc>
<speed>0.000000</speed>
</trkpt>
<trkpt lat="44.652767" lon="33.801678">
<ele>133.634888</ele>
<time>2011-10-10T08:44:07Z</time>
<desc>lat.=44.652767, lon.=33.801678, Alt.=133.634888m. Speed=0.000000m/h.</desc>
<speed>0.000000</speed>
</trkpt>
<trkpt lat="44.652767" lon="33.801678">
<ele>133.627075</ele>
<time>2011-10-10T08:44:12Z</time>
<desc>lat.=44.652767, lon.=33.801678, Alt.=133.627075m. Speed=0.180000m/h.</desc>
<speed>0.050000</speed>
</trkpt>
<trkpt lat="44.652767" lon="33.801678">
<ele>133.627075</ele>
<time>2011-10-10T08:44:17Z</time>
<desc>lat.=44.652767, lon.=33.801678, Alt.=133.627075m. Speed=0.216000m/h.</desc>
<speed>0.060000</speed>
</trkpt>
<trkpt lat="44.652740" lon="33.801670">
<ele>133.552856</ele>
<time>2011-10-10T08:44:22Z</time>
<desc>lat.=44.652740, lon.=33.801670, Alt.=133.552856m. Speed=6.696000m/h.</desc>
<speed>1.860000</speed>
</trkpt>
<trkpt lat="44.652645" lon="33.801640">
<ele>133.744263</ele>
<time>2011-10-10T08:44:27Z</time>
<desc>lat.=44.652645, lon.=33.801640, Alt.=133.744263m. Speed=5.292000m/h.</desc>
<speed>1.470000</speed>
</trkpt>
<trkpt lat="44.652557" lon="33.801605">
<ele>133.420044</ele>
<time>2011-10-10T08:44:32Z</time>
<desc>lat.=44.652557, lon.=33.801605, Alt.=133.420044m. Speed=7.236000m/h.</desc>
<speed>2.010000</speed>
</trkpt>
<trkpt lat="44.652454" lon="33.801582">
<ele>134.228638</ele>
<time>2011-10-10T08:44:37Z</time>
<desc>lat.=44.652454, lon.=33.801582, Alt.=134.228638m. Speed=7.020000m/h.</desc>
<speed>1.950000</speed>
</trkpt>
<trkpt lat="44.652355" lon="33.801579">
<ele>137.056763</ele>
<time>2011-10-10T08:44:42Z</time>
<desc>lat.=44.652355, lon.=33.801579, Alt.=137.056763m. Speed=8.064000m/h.</desc>
<speed>2.240000</speed>
</trkpt>
<trkpt lat="44.652271" lon="33.801582">
<ele>137.994263</ele>
<time>2011-10-10T08:44:47Z</time>
<desc>lat.=44.652271, lon.=33.801582, Alt.=137.994263m. Speed=0.504000m/h.</desc>
<speed>0.140000</speed>
</trkpt>
<trkpt lat="44.652264" lon="33.801586">
<ele>137.619263</ele>
<time>2011-10-10T08:44:52Z</time>
<desc>lat.=44.652264, lon.=33.801586, Alt.=137.619263m. Speed=0.036000m/h.</desc>
<speed>0.010000</speed>
</trkpt>
<trkpt lat="44.652256" lon="33.801590">
<ele>137.920044</ele>
<time>2011-10-10T08:44:57Z</time>
<desc>lat.=44.652256, lon.=33.801590, Alt.=137.920044m. Speed=3.456000m/h.</desc>
<speed>0.960000</speed>
</trkpt>
<trkpt lat="44.652184" lon="33.801590">
<ele>139.384888</ele>
<time>2011-10-10T08:45:02Z</time>
<desc>lat.=44.652184, lon.=33.801590, Alt.=139.384888m. Speed=6.768000m/h.</desc>
<speed>1.880000</speed>
</trkpt>
<trkpt lat="44.652107" lon="33.801632">
<ele>140.084106</ele>
<time>2011-10-10T08:45:07Z</time>
<desc>lat.=44.652107, lon.=33.801632, Alt.=140.084106m. Speed=6.840000m/h.</desc>
<speed>1.900000</speed>
</trkpt>
<trkpt lat="44.652042" lon="33.801708">
<ele>140.267700</ele>
<time>2011-10-10T08:45:12Z</time>
<desc>lat.=44.652042, lon.=33.801708, Alt.=140.267700m. Speed=6.480000m/h.</desc>
<speed>1.800000</speed>
</trkpt>
<trkpt lat="44.651978" lon="33.801811">
<ele>139.970825</ele>
<time>2011-10-10T08:45:17Z</time>
<desc>lat.=44.651978, lon.=33.801811, Alt.=139.970825m. Speed=11.772000m/h.</desc>
<speed>3.270000</speed>
</trkpt>
<trkpt lat="44.651905" lon="33.801918">
<ele>139.892700</ele>
<time>2011-10-10T08:45:22Z</time>
<desc>lat.=44.651905, lon.=33.801918, Alt.=139.892700m. Speed=3.708000m/h.</desc>
<speed>1.030000</speed>
</trkpt>
<trkpt lat="44.651897" lon="33.801922">
<ele>139.681763</ele>
<time>2011-10-10T08:45:27Z</time>
<desc>lat.=44.651897, lon.=33.801922, Alt.=139.681763m. Speed=0.216000m/h.</desc>
<speed>0.060000</speed>
</trkpt>
<trkpt lat="44.651897" lon="33.801922">
<ele>139.880981</ele>
<time>2011-10-10T08:45:32Z</time>
<desc>lat.=44.651897, lon.=33.801922, Alt.=139.880981m. Speed=0.036000m/h.</desc>
<speed>0.010000</speed>
</trkpt>
<trkpt lat="44.651905" lon="33.801918">
<ele>140.877075</ele>
<time>2011-10-10T08:45:37Z</time>
<desc>lat.=44.651905, lon.=33.801918, Alt.=140.877075m. Speed=0.000000m/h.</desc>
<speed>0.000000</speed>
</trkpt>
<trkpt lat="44.651905" lon="33.801907">
<ele>141.634888</ele>
<time>2011-10-10T08:45:42Z</time>
<desc>lat.=44.651905, lon.=33.801907, Alt.=141.634888m. Speed=0.072000m/h.</desc>
<speed>0.020000</speed>
</trkpt>
<trkpt lat="44.651905" lon="33.801895">
<ele>141.884888</ele>
<time>2011-10-10T08:45:47Z</time>
<desc>lat.=44.651905, lon.=33.801895, Alt.=141.884888m. Speed=0.036000m/h.</desc>
<speed>0.010000</speed>
</trkpt>
<trkpt lat="44.651905" lon="33.801888">
<ele>141.818481</ele>
<time>2011-10-10T08:45:52Z</time>
<desc>lat.=44.651905, lon.=33.801888, Alt.=141.818481m. Speed=0.036000m/h.</desc>
<speed>0.010000</speed>
</trkpt>
<trkpt lat="44.651905" lon="33.801895">
<ele>141.572388</ele>
<time>2011-10-10T08:45:57Z</time>
<desc>lat.=44.651905, lon.=33.801895, Alt.=141.572388m. Speed=0.036000m/h.</desc>
<speed>0.010000</speed>
</trkpt>
<trkpt lat="44.651901" lon="33.801914">
<ele>141.459106</ele>
<time>2011-10-10T08:46:02Z</time>
<desc>lat.=44.651901, lon.=33.801914, Alt.=141.459106m. Speed=0.036000m/h.</desc>
<speed>0.010000</speed>
</trkpt>
<trkpt lat="44.651901" lon="33.801922">
<ele>141.271606</ele>
<time>2011-10-10T08:46:07Z</time>
<desc>lat.=44.651901, lon.=33.801922, Alt.=141.271606m. Speed=0.072000m/h.</desc>
<speed>0.020000</speed>
</trkpt>
<trkpt lat="44.651901" lon="33.801933">
<ele>141.209106</ele>
<time>2011-10-10T08:46:12Z</time>
<desc>lat.=44.651901, lon.=33.801933, Alt.=141.209106m. Speed=0.108000m/h.</desc>
<speed>0.030000</speed>
</trkpt>
<trkpt lat="44.651905" lon="33.801929">
<ele>141.162231</ele>
<time>2011-10-10T08:46:17Z</time>
<desc>lat.=44.651905, lon.=33.801929, Alt.=141.162231m. Speed=0.036000m/h.</desc>
<speed>0.010000</speed>
</trkpt>
<trkpt lat="44.651905" lon="33.801929">
<ele>140.990356</ele>
<time>2011-10-10T08:46:22Z</time>
<desc>lat.=44.651905, lon.=33.801929, Alt.=140.990356m. Speed=0.036000m/h.</desc>
<speed>0.010000</speed>
</trkpt>
<trkpt lat="44.651905" lon="33.801929">
<ele>140.740356</ele>
<time>2011-10-10T08:46:27Z</time>
<desc>lat.=44.651905, lon.=33.801929, Alt.=140.740356m. Speed=0.036000m/h.</desc>
<speed>0.010000</speed>
</trkpt>
<trkpt lat="44.651905" lon="33.801929">
<ele>140.267700</ele>
<time>2011-10-10T08:46:32Z</time>
<desc>lat.=44.651905, lon.=33.801929, Alt.=140.267700m. Speed=0.036000m/h.</desc>
<speed>0.010000</speed>
</trkpt>
<trkpt lat="44.651905" lon="33.801937">
<ele>139.947388</ele>
<time>2011-10-10T08:46:37Z</time>
<desc>lat.=44.651905, lon.=33.801937, Alt.=139.947388m. Speed=0.000000m/h.</desc>
<speed>0.000000</speed>
</trkpt>
<trkpt lat="44.651909" lon="33.801941">
<ele>139.884888</ele>
<time>2011-10-10T08:46:42Z</time>
<desc>lat.=44.651909, lon.=33.801941, Alt.=139.884888m. Speed=0.108000m/h.</desc>
<speed>0.030000</speed>
</trkpt>
<trkpt lat="44.651909" lon="33.801937">
<ele>139.892700</ele>
<time>2011-10-10T08:46:47Z</time>
<desc>lat.=44.651909, lon.=33.801937, Alt.=139.892700m. Speed=0.000000m/h.</desc>
<speed>0.000000</speed>
</trkpt>
<trkpt lat="44.651909" lon="33.801937">
<ele>140.173950</ele>
<time>2011-10-10T08:46:52Z</time>
<desc>lat.=44.651909, lon.=33.801937, Alt.=140.173950m. Speed=0.072000m/h.</desc>
<speed>0.020000</speed>
</trkpt>
<trkpt lat="44.651909" lon="33.801937">
<ele>140.341919</ele>
<time>2011-10-10T08:46:57Z</time>
<desc>lat.=44.651909, lon.=33.801937, Alt.=140.341919m. Speed=0.000000m/h.</desc>
<speed>0.000000</speed>
</trkpt>
<trkpt lat="44.651905" lon="33.801933">
<ele>140.463013</ele>
<time>2011-10-10T08:47:02Z</time>
<desc>lat.=44.651905, lon.=33.801933, Alt.=140.463013m. Speed=0.000000m/h.</desc>
<speed>0.000000</speed>
</trkpt>
<trkpt lat="44.651901" lon="33.801929">
<ele>140.439575</ele>
<time>2011-10-10T08:47:07Z</time>
<desc>lat.=44.651901, lon.=33.801929, Alt.=140.439575m. Speed=0.000000m/h.</desc>
<speed>0.000000</speed>
</trkpt>
<trkpt lat="44.651901" lon="33.801929">
<ele>140.443481</ele>
<time>2011-10-10T08:47:12Z</time>
<desc>lat.=44.651901, lon.=33.801929, Alt.=140.443481m. Speed=0.000000m/h.</desc>
<speed>0.000000</speed>
</trkpt>
<trkpt lat="44.651901" lon="33.801926">
<ele>140.447388</ele>
<time>2011-10-10T08:47:17Z</time>
<desc>lat.=44.651901, lon.=33.801926, Alt.=140.447388m. Speed=0.000000m/h.</desc>
<speed>0.000000</speed>
</trkpt>
<trkpt lat="44.651901" lon="33.801926">
<ele>140.447388</ele>
<time>2011-10-10T08:47:22Z</time>
<desc>lat.=44.651901, lon.=33.801926, Alt.=140.447388m. Speed=0.000000m/h.</desc>
<speed>0.000000</speed>
</trkpt>
<trkpt lat="44.651901" lon="33.801926">
<ele>140.447388</ele>
<time>2011-10-10T08:47:27Z</time>
<desc>lat.=44.651901, lon.=33.801926, Alt.=140.447388m. Speed=0.000000m/h.</desc>
<speed>0.000000</speed>
</trkpt>
<trkpt lat="44.651901" lon="33.801926">
<ele>140.443481</ele>
<time>2011-10-10T08:47:32Z</time>
<desc>lat.=44.651901, lon.=33.801926, Alt.=140.443481m. Speed=0.144000m/h.</desc>
<speed>0.040000</speed>
</trkpt>
<trkpt lat="44.651836" lon="33.801922">
<ele>139.244263</ele>
<time>2011-10-10T08:47:37Z</time>
<desc>lat.=44.651836, lon.=33.801922, Alt.=139.244263m. Speed=14.184000m/h.</desc>
<speed>3.940000</speed>
</trkpt>
<trkpt lat="44.651573" lon="33.801826">
<ele>136.978638</ele>
<time>2011-10-10T08:47:42Z</time>
<desc>lat.=44.651573, lon.=33.801826, Alt.=136.978638m. Speed=11.952000m/h.</desc>
<speed>3.320000</speed>
</trkpt>
<trkpt lat="44.651478" lon="33.801826">
<ele>138.107544</ele>
<time>2011-10-10T08:47:47Z</time>
<desc>lat.=44.651478, lon.=33.801826, Alt.=138.107544m. Speed=6.660000m/h.</desc>
<speed>1.850000</speed>
</trkpt>
<trkpt lat="44.651379" lon="33.801834">
<ele>139.326294</ele>
<time>2011-10-10T08:47:52Z</time>
<desc>lat.=44.651379, lon.=33.801834, Alt.=139.326294m. Speed=4.572000m/h.</desc>
<speed>1.270000</speed>
</trkpt>
<trkpt lat="44.651344" lon="33.801865">
<ele>141.841919</ele>
<time>2011-10-10T08:47:57Z</time>
<desc>lat.=44.651344, lon.=33.801865, Alt.=141.841919m. Speed=2.088000m/h.</desc>
<speed>0.580000</speed>
</trkpt>
<trkpt lat="44.651337" lon="33.801861">
<ele>142.228638</ele>
<time>2011-10-10T08:48:02Z</time>
<desc>lat.=44.651337, lon.=33.801861, Alt.=142.228638m. Speed=2.448000m/h.</desc>
<speed>0.680000</speed>
</trkpt>
<trkpt lat="44.651299" lon="33.801865">
<ele>141.728638</ele>
<time>2011-10-10T08:48:07Z</time>
<desc>lat.=44.651299, lon.=33.801865, Alt.=141.728638m. Speed=1.476000m/h.</desc>
<speed>0.410000</speed>
</trkpt>
<trkpt lat="44.651268" lon="33.801857">
<ele>141.146606</ele>
<time>2011-10-10T08:48:12Z</time>
<desc>lat.=44.651268, lon.=33.801857, Alt.=141.146606m. Speed=1.296000m/h.</desc>
<speed>0.360000</speed>
</trkpt>
<trkpt lat="44.651257" lon="33.801888">
<ele>141.474731</ele>
<time>2011-10-10T08:48:17Z</time>
<desc>lat.=44.651257, lon.=33.801888, Alt.=141.474731m. Speed=1.944000m/h.</desc>
<speed>0.540000</speed>
</trkpt>
<trkpt lat="44.651218" lon="33.801910">
<ele>141.439575</ele>
<time>2011-10-10T08:48:22Z</time>
<desc>lat.=44.651218, lon.=33.801910, Alt.=141.439575m. Speed=2.556000m/h.</desc>
<speed>0.710000</speed>
</trkpt>
<trkpt lat="44.651169" lon="33.801910">
<ele>141.584106</ele>
<time>2011-10-10T08:48:27Z</time>
<desc>lat.=44.651169, lon.=33.801910, Alt.=141.584106m. Speed=2.484000m/h.</desc>
<speed>0.690000</speed>
</trkpt>
<trkpt lat="44.651165" lon="33.801914">
<ele>141.920044</ele>
<time>2011-10-10T08:48:32Z</time>
<desc>lat.=44.651165, lon.=33.801914, Alt.=141.920044m. Speed=0.324000m/h.</desc>
<speed>0.090000</speed>
</trkpt>
<trkpt lat="44.651169" lon="33.801903">
<ele>141.818481</ele>
<time>2011-10-10T08:48:37Z</time>
<desc>lat.=44.651169, lon.=33.801903, Alt.=141.818481m. Speed=0.072000m/h.</desc>
<speed>0.020000</speed>
</trkpt>
<trkpt lat="44.651161" lon="33.801891">
<ele>142.326294</ele>
<time>2011-10-10T08:48:42Z</time>
<desc>lat.=44.651161, lon.=33.801891, Alt.=142.326294m. Speed=0.072000m/h.</desc>
<speed>0.020000</speed>
</trkpt>
<trkpt lat="44.651150" lon="33.801891">
<ele>142.685669</ele>
<time>2011-10-10T08:48:47Z</time>
<desc>lat.=44.651150, lon.=33.801891, Alt.=142.685669m. Speed=0.036000m/h.</desc>
<speed>0.010000</speed>
</trkpt>
<trkpt lat="44.651150" lon="33.801876">
<ele>143.709106</ele>
<time>2011-10-10T08:48:52Z</time>
<desc>lat.=44.651150, lon.=33.801876, Alt.=143.709106m. Speed=0.108000m/h.</desc>
<speed>0.030000</speed>
</trkpt>
<trkpt lat="44.651146" lon="33.801880">
<ele>143.892700</ele>
<time>2011-10-10T08:48:57Z</time>
<desc>lat.=44.651146, lon.=33.801880, Alt.=143.892700m. Speed=0.864000m/h.</desc>
<speed>0.240000</speed>
</trkpt>
<trkpt lat="44.651138" lon="33.801888">
<ele>143.181763</ele>
<time>2011-10-10T08:49:02Z</time>
<desc>lat.=44.651138, lon.=33.801888, Alt.=143.181763m. Speed=0.612000m/h.</desc>
<speed>0.170000</speed>
</trkpt>
<trkpt lat="44.651138" lon="33.801888">
<ele>143.564575</ele>
<time>2011-10-10T08:49:07Z</time>
<desc>lat.=44.651138, lon.=33.801888, Alt.=143.564575m. Speed=0.216000m/h.</desc>
<speed>0.060000</speed>
</trkpt>
<trkpt lat="44.651131" lon="33.801891">
<ele>144.693481</ele>
<time>2011-10-10T08:49:12Z</time>
<desc>lat.=44.651131, lon.=33.801891, Alt.=144.693481m. Speed=0.396000m/h.</desc>
<speed>0.110000</speed>
</trkpt>
<trkpt lat="44.651127" lon="33.801888">
<ele>145.287231</ele>
<time>2011-10-10T08:49:17Z</time>
<desc>lat.=44.651127, lon.=33.801888, Alt.=145.287231m. Speed=0.504000m/h.</desc>
<speed>0.140000</speed>
</trkpt>
<trkpt lat="44.651131" lon="33.801888">
<ele>145.091919</ele>
<time>2011-10-10T08:49:22Z</time>
<desc>lat.=44.651131, lon.=33.801888, Alt.=145.091919m. Speed=0.036000m/h.</desc>
<speed>0.010000</speed>
</trkpt>
<trkpt lat="44.651131" lon="33.801888">
<ele>145.099731</ele>
<time>2011-10-10T08:49:27Z</time>
<desc>lat.=44.651131, lon.=33.801888, Alt.=145.099731m. Speed=0.108000m/h.</desc>
<speed>0.030000</speed>
</trkpt>
<trkpt lat="44.651131" lon="33.801888">
<ele>145.095825</ele>
<time>2011-10-10T08:49:32Z</time>
<desc>lat.=44.651131, lon.=33.801888, Alt.=145.095825m. Speed=0.000000m/h.</desc>
<speed>0.000000</speed>
</trkpt>
<trkpt lat="44.651131" lon="33.801888">
<ele>145.103638</ele>
<time>2011-10-10T08:49:37Z</time>
<desc>lat.=44.651131, lon.=33.801888, Alt.=145.103638m. Speed=0.036000m/h.</desc>
<speed>0.010000</speed>
</trkpt>
<trkpt lat="44.651131" lon="33.801888">
<ele>145.123169</ele>
<time>2011-10-10T08:49:42Z</time>
<desc>lat.=44.651131, lon.=33.801888, Alt.=145.123169m. Speed=0.000000m/h.</desc>
<speed>0.000000</speed>
</trkpt>
<trkpt lat="44.651131" lon="33.801888">
<ele>145.115356</ele>
<time>2011-10-10T08:49:47Z</time>
<desc>lat.=44.651131, lon.=33.801888, Alt.=145.115356m. Speed=0.036000m/h.</desc>
<speed>0.010000</speed>
</trkpt>
<trkpt lat="44.651131" lon="33.801888">
<ele>145.119263</ele>
<time>2011-10-10T08:49:52Z</time>
<desc>lat.=44.651131, lon.=33.801888, Alt.=145.119263m. Speed=0.036000m/h.</desc>
<speed>0.010000</speed>
</trkpt>
<trkpt lat="44.651131" lon="33.801888">
<ele>145.123169</ele>
<time>2011-10-10T08:49:57Z</time>
<desc>lat.=44.651131, lon.=33.801888, Alt.=145.123169m. Speed=0.036000m/h.</desc>
<speed>0.010000</speed>
</trkpt>
<trkpt lat="44.651131" lon="33.801888">
<ele>145.127075</ele>
<time>2011-10-10T08:50:02Z</time>
<desc>lat.=44.651131, lon.=33.801888, Alt.=145.127075m. Speed=0.036000m/h.</desc>
<speed>0.010000</speed>
</trkpt>
<trkpt lat="44.651131" lon="33.801888">
<ele>145.134888</ele>
<time>2011-10-10T08:50:07Z</time>
<desc>lat.=44.651131, lon.=33.801888, Alt.=145.134888m. Speed=0.036000m/h.</desc>
<speed>0.010000</speed>
</trkpt>
<trkpt lat="44.651131" lon="33.801888">
<ele>145.154419</ele>
<time>2011-10-10T08:50:12Z</time>
<desc>lat.=44.651131, lon.=33.801888, Alt.=145.154419m. Speed=0.000000m/h.</desc>
<speed>0.000000</speed>
</trkpt>
<trkpt lat="44.651131" lon="33.801888">
<ele>145.158325</ele>
<time>2011-10-10T08:50:17Z</time>
<desc>lat.=44.651131, lon.=33.801888, Alt.=145.158325m. Speed=0.036000m/h.</desc>
<speed>0.010000</speed>
</trkpt>
<trkpt lat="44.651131" lon="33.801888">
<ele>145.154419</ele>
<time>2011-10-10T08:50:22Z</time>
<desc>lat.=44.651131, lon.=33.801888, Alt.=145.154419m. Speed=0.108000m/h.</desc>
<speed>0.030000</speed>
</trkpt>
<trkpt lat="44.651131" lon="33.801888">
<ele>145.150513</ele>
<time>2011-10-10T08:50:27Z</time>
<desc>lat.=44.651131, lon.=33.801888, Alt.=145.150513m. Speed=0.036000m/h.</desc>
<speed>0.010000</speed>
</trkpt>
<trkpt lat="44.651131" lon="33.801888">
<ele>145.142700</ele>
<time>2011-10-10T08:50:32Z</time>
<desc>lat.=44.651131, lon.=33.801888, Alt.=145.142700m. Speed=0.072000m/h.</desc>
<speed>0.020000</speed>
</trkpt>
<trkpt lat="44.651131" lon="33.801888">
<ele>145.142700</ele>
<time>2011-10-10T08:50:37Z</time>
<desc>lat.=44.651131, lon.=33.801888, Alt.=145.142700m. Speed=0.036000m/h.</desc>
<speed>0.010000</speed>
</trkpt>
<trkpt lat="44.651131" lon="33.801888">
<ele>145.146606</ele>
<time>2011-10-10T08:50:42Z</time>
<desc>lat.=44.651131, lon.=33.801888, Alt.=145.146606m. Speed=0.180000m/h.</desc>
<speed>0.050000</speed>
</trkpt>
<trkpt lat="44.651131" lon="33.801888">
<ele>145.150513</ele>
<time>2011-10-10T08:50:47Z</time>
<desc>lat.=44.651131, lon.=33.801888, Alt.=145.150513m. Speed=0.000000m/h.</desc>
<speed>0.000000</speed>
</trkpt>
<trkpt lat="44.651131" lon="33.801888">
<ele>145.150513</ele>
<time>2011-10-10T08:50:52Z</time>
<desc>lat.=44.651131, lon.=33.801888, Alt.=145.150513m. Speed=0.036000m/h.</desc>
<speed>0.010000</speed>
</trkpt>
<trkpt lat="44.651131" lon="33.801888">
<ele>145.150513</ele>
<time>2011-10-10T08:50:57Z</time>
<desc>lat.=44.651131, lon.=33.801888, Alt.=145.150513m. Speed=0.072000m/h.</desc>
<speed>0.020000</speed>
</trkpt>
<trkpt lat="44.651131" lon="33.801888">
<ele>145.154419</ele>
<time>2011-10-10T08:51:02Z</time>
<desc>lat.=44.651131, lon.=33.801888, Alt.=145.154419m. Speed=0.072000m/h.</desc>
<speed>0.020000</speed>
</trkpt>
<trkpt lat="44.651131" lon="33.801888">
<ele>145.162231</ele>
<time>2011-10-10T08:51:07Z</time>
<desc>lat.=44.651131, lon.=33.801888, Alt.=145.162231m. Speed=0.108000m/h.</desc>
<speed>0.030000</speed>
</trkpt>
<trkpt lat="44.651131" lon="33.801888">
<ele>145.166138</ele>
<time>2011-10-10T08:51:12Z</time>
<desc>lat.=44.651131, lon.=33.801888, Alt.=145.166138m. Speed=0.000000m/h.</desc>
<speed>0.000000</speed>
</trkpt>
<trkpt lat="44.651131" lon="33.801888">
<ele>145.173950</ele>
<time>2011-10-10T08:51:17Z</time>
<desc>lat.=44.651131, lon.=33.801888, Alt.=145.173950m. Speed=0.072000m/h.</desc>
<speed>0.020000</speed>
</trkpt>
<trkpt lat="44.651131" lon="33.801888">
<ele>145.185669</ele>
<time>2011-10-10T08:51:22Z</time>
<desc>lat.=44.651131, lon.=33.801888, Alt.=145.185669m. Speed=0.000000m/h.</desc>
<speed>0.000000</speed>
</trkpt>
<trkpt lat="44.651131" lon="33.801888">
<ele>145.189575</ele>
<time>2011-10-10T08:51:27Z</time>
<desc>lat.=44.651131, lon.=33.801888, Alt.=145.189575m. Speed=0.000000m/h.</desc>
<speed>0.000000</speed>
</trkpt>
<trkpt lat="44.651131" lon="33.801888">
<ele>145.205200</ele>
<time>2011-10-10T08:51:32Z</time>
<desc>lat.=44.651131, lon.=33.801888, Alt.=145.205200m. Speed=0.036000m/h.</desc>
<speed>0.010000</speed>
</trkpt>
<trkpt lat="44.651131" lon="33.801888">
<ele>145.224731</ele>
<time>2011-10-10T08:51:37Z</time>
<desc>lat.=44.651131, lon.=33.801888, Alt.=145.224731m. Speed=0.000000m/h.</desc>
<speed>0.000000</speed>
</trkpt>
<trkpt lat="44.651131" lon="33.801888">
<ele>145.236450</ele>
<time>2011-10-10T08:51:42Z</time>
<desc>lat.=44.651131, lon.=33.801888, Alt.=145.236450m. Speed=0.036000m/h.</desc>
<speed>0.010000</speed>
</trkpt>
<trkpt lat="44.651131" lon="33.801888">
<ele>145.252075</ele>
<time>2011-10-10T08:51:47Z</time>
<desc>lat.=44.651131, lon.=33.801888, Alt.=145.252075m. Speed=0.000000m/h.</desc>
<speed>0.000000</speed>
</trkpt>
<trkpt lat="44.651131" lon="33.801888">
<ele>145.267700</ele>
<time>2011-10-10T08:51:52Z</time>
<desc>lat.=44.651131, lon.=33.801888, Alt.=145.267700m. Speed=0.000000m/h.</desc>
<speed>0.000000</speed>
</trkpt>
<trkpt lat="44.651127" lon="33.801888">
<ele>145.295044</ele>
<time>2011-10-10T08:51:57Z</time>
<desc>lat.=44.651127, lon.=33.801888, Alt.=145.295044m. Speed=0.072000m/h.</desc>
<speed>0.020000</speed>
</trkpt>
<trkpt lat="44.651127" lon="33.801888">
<ele>145.310669</ele>
<time>2011-10-10T08:52:02Z</time>
<desc>lat.=44.651127, lon.=33.801888, Alt.=145.310669m. Speed=0.000000m/h.</desc>
<speed>0.000000</speed>
</trkpt>
<trkpt lat="44.651127" lon="33.801888">
<ele>145.314575</ele>
<time>2011-10-10T08:52:07Z</time>
<desc>lat.=44.651127, lon.=33.801888, Alt.=145.314575m. Speed=0.000000m/h.</desc>
<speed>0.000000</speed>
</trkpt>
<trkpt lat="44.651127" lon="33.801888">
<ele>145.330200</ele>
<time>2011-10-10T08:52:12Z</time>
<desc>lat.=44.651127, lon.=33.801888, Alt.=145.330200m. Speed=0.000000m/h.</desc>
<speed>0.000000</speed>
</trkpt>
<trkpt lat="44.651127" lon="33.801888">
<ele>145.334106</ele>
<time>2011-10-10T08:52:17Z</time>
<desc>lat.=44.651127, lon.=33.801888, Alt.=145.334106m. Speed=0.036000m/h.</desc>
<speed>0.010000</speed>
</trkpt>
<trkpt lat="44.651127" lon="33.801888">
<ele>145.349731</ele>
<time>2011-10-10T08:52:22Z</time>
<desc>lat.=44.651127, lon.=33.801888, Alt.=145.349731m. Speed=1.908000m/h.</desc>
<speed>0.530000</speed>
</trkpt>
<trkpt lat="44.651085" lon="33.801865">
<ele>144.744263</ele>
<time>2011-10-10T08:52:27Z</time>
<desc>lat.=44.651085, lon.=33.801865, Alt.=144.744263m. Speed=6.588000m/h.</desc>
<speed>1.830000</speed>
</trkpt>
<trkpt lat="44.650993" lon="33.801899">
<ele>145.959106</ele>
<time>2011-10-10T08:52:32Z</time>
<desc>lat.=44.650993, lon.=33.801899, Alt.=145.959106m. Speed=7.344000m/h.</desc>
<speed>2.040000</speed>
</trkpt>
<trkpt lat="44.650887" lon="33.801929">
<ele>147.193481</ele>
<time>2011-10-10T08:52:37Z</time>
<desc>lat.=44.650887, lon.=33.801929, Alt.=147.193481m. Speed=9.216000m/h.</desc>
<speed>2.560000</speed>
</trkpt>
<trkpt lat="44.650784" lon="33.801971">
<ele>147.377075</ele>
<time>2011-10-10T08:52:42Z</time>
<desc>lat.=44.650784, lon.=33.801971, Alt.=147.377075m. Speed=9.360000m/h.</desc>
<speed>2.600000</speed>
</trkpt>
<trkpt lat="44.650700" lon="33.802010">
<ele>149.166138</ele>
<time>2011-10-10T08:52:47Z</time>
<desc>lat.=44.650700, lon.=33.802010, Alt.=149.166138m. Speed=6.840000m/h.</desc>
<speed>1.900000</speed>
</trkpt>
<trkpt lat="44.650631" lon="33.802055">
<ele>151.470825</ele>
<time>2011-10-10T08:52:52Z</time>
<desc>lat.=44.650631, lon.=33.802055, Alt.=151.470825m. Speed=4.932000m/h.</desc>
<speed>1.370000</speed>
</trkpt>
<trkpt lat="44.650558" lon="33.802086">
<ele>152.853638</ele>
<time>2011-10-10T08:52:57Z</time>
<desc>lat.=44.650558, lon.=33.802086, Alt.=152.853638m. Speed=6.984000m/h.</desc>
<speed>1.940000</speed>
</trkpt>
<trkpt lat="44.650475" lon="33.802120">
<ele>153.041138</ele>
<time>2011-10-10T08:53:02Z</time>
<desc>lat.=44.650475, lon.=33.802120, Alt.=153.041138m. Speed=6.768000m/h.</desc>
<speed>1.880000</speed>
</trkpt>
<trkpt lat="44.650387" lon="33.802170">
<ele>153.736450</ele>
<time>2011-10-10T08:53:07Z</time>
<desc>lat.=44.650387, lon.=33.802170, Alt.=153.736450m. Speed=6.696000m/h.</desc>
<speed>1.860000</speed>
</trkpt>
<trkpt lat="44.650311" lon="33.802216">
<ele>155.201294</ele>
<time>2011-10-10T08:53:12Z</time>
<desc>lat.=44.650311, lon.=33.802216, Alt.=155.201294m. Speed=5.796000m/h.</desc>
<speed>1.610000</speed>
</trkpt>
<trkpt lat="44.650253" lon="33.802254">
<ele>155.287231</ele>
<time>2011-10-10T08:53:17Z</time>
<desc>lat.=44.650253, lon.=33.802254, Alt.=155.287231m. Speed=4.932000m/h.</desc>
<speed>1.370000</speed>
</trkpt>
<trkpt lat="44.650196" lon="33.802280">
<ele>155.494263</ele>
<time>2011-10-10T08:53:22Z</time>
<desc>lat.=44.650196, lon.=33.802280, Alt.=155.494263m. Speed=5.112000m/h.</desc>
<speed>1.420000</speed>
</trkpt>
<trkpt lat="44.650139" lon="33.802299">
<ele>156.088013</ele>
<time>2011-10-10T08:53:27Z</time>
<desc>lat.=44.650139, lon.=33.802299, Alt.=156.088013m. Speed=4.356000m/h.</desc>
<speed>1.210000</speed>
</trkpt>
<trkpt lat="44.650089" lon="33.802315">
<ele>156.213013</ele>
<time>2011-10-10T08:53:32Z</time>
<desc>lat.=44.650089, lon.=33.802315, Alt.=156.213013m. Speed=4.428000m/h.</desc>
<speed>1.230000</speed>
</trkpt>
<trkpt lat="44.650032" lon="33.802334">
<ele>157.291138</ele>
<time>2011-10-10T08:53:37Z</time>
<desc>lat.=44.650032, lon.=33.802334, Alt.=157.291138m. Speed=3.492000m/h.</desc>
<speed>0.970000</speed>
</trkpt>
<trkpt lat="44.649975" lon="33.802357">
<ele>157.619263</ele>
<time>2011-10-10T08:53:42Z</time>
<desc>lat.=44.649975, lon.=33.802357, Alt.=157.619263m. Speed=4.968000m/h.</desc>
<speed>1.380000</speed>
</trkpt>
<trkpt lat="44.649906" lon="33.802383">
<ele>157.740356</ele>
<time>2011-10-10T08:53:47Z</time>
<desc>lat.=44.649906, lon.=33.802383, Alt.=157.740356m. Speed=5.472000m/h.</desc>
<speed>1.520000</speed>
</trkpt>
<trkpt lat="44.649834" lon="33.802406">
<ele>158.396606</ele>
<time>2011-10-10T08:53:52Z</time>
<desc>lat.=44.649834, lon.=33.802406, Alt.=158.396606m. Speed=5.544000m/h.</desc>
<speed>1.540000</speed>
</trkpt>
<trkpt lat="44.649765" lon="33.802437">
<ele>159.701294</ele>
<time>2011-10-10T08:53:57Z</time>
<desc>lat.=44.649765, lon.=33.802437, Alt.=159.701294m. Speed=6.948000m/h.</desc>
<speed>1.930000</speed>
</trkpt>
<trkpt lat="44.649639" lon="33.802490">
<ele>161.064575</ele>
<time>2011-10-10T08:54:02Z</time>
<desc>lat.=44.649639, lon.=33.802490, Alt.=161.064575m. Speed=13.176000m/h.</desc>
<speed>3.660000</speed>
</trkpt>
<trkpt lat="44.649502" lon="33.802528">
<ele>164.201294</ele>
<time>2011-10-10T08:54:07Z</time>
<desc>lat.=44.649502, lon.=33.802528, Alt.=164.201294m. Speed=11.628000m/h.</desc>
<speed>3.230000</speed>
</trkpt>
<trkpt lat="44.649361" lon="33.802612">
<ele>165.912231</ele>
<time>2011-10-10T08:54:12Z</time>
<desc>lat.=44.649361, lon.=33.802612, Alt.=165.912231m. Speed=12.888000m/h.</desc>
<speed>3.580000</speed>
</trkpt>
<trkpt lat="44.649261" lon="33.802677">
<ele>167.420044</ele>
<time>2011-10-10T08:54:17Z</time>
<desc>lat.=44.649261, lon.=33.802677, Alt.=167.420044m. Speed=6.624000m/h.</desc>
<speed>1.840000</speed>
</trkpt>
<trkpt lat="44.649166" lon="33.802708">
<ele>168.068481</ele>
<time>2011-10-10T08:54:22Z</time>
<desc>lat.=44.649166, lon.=33.802708, Alt.=168.068481m. Speed=7.380000m/h.</desc>
<speed>2.050000</speed>
</trkpt>
<trkpt lat="44.649067" lon="33.802746">
<ele>169.228638</ele>
<time>2011-10-10T08:54:27Z</time>
<desc>lat.=44.649067, lon.=33.802746, Alt.=169.228638m. Speed=6.732000m/h.</desc>
<speed>1.870000</speed>
</trkpt>
<trkpt lat="44.648979" lon="33.802784">
<ele>169.986450</ele>
<time>2011-10-10T08:54:32Z</time>
<desc>lat.=44.648979, lon.=33.802784, Alt.=169.986450m. Speed=7.992000m/h.</desc>
<speed>2.220000</speed>
</trkpt>
<trkpt lat="44.648880" lon="33.802826">
<ele>169.755981</ele>
<time>2011-10-10T08:54:37Z</time>
<desc>lat.=44.648880, lon.=33.802826, Alt.=169.755981m. Speed=7.992000m/h.</desc>
<speed>2.220000</speed>
</trkpt>
<trkpt lat="44.648781" lon="33.802872">
<ele>169.970825</ele>
<time>2011-10-10T08:54:42Z</time>
<desc>lat.=44.648781, lon.=33.802872, Alt.=169.970825m. Speed=7.776000m/h.</desc>
<speed>2.160000</speed>
</trkpt>
<trkpt lat="44.648693" lon="33.802921">
<ele>171.873169</ele>
<time>2011-10-10T08:54:47Z</time>
<desc>lat.=44.648693, lon.=33.802921, Alt.=171.873169m. Speed=7.776000m/h.</desc>
<speed>2.160000</speed>
</trkpt>
<trkpt lat="44.648605" lon="33.802963">
<ele>173.361450</ele>
<time>2011-10-10T08:54:52Z</time>
<desc>lat.=44.648605, lon.=33.802963, Alt.=173.361450m. Speed=7.128000m/h.</desc>
<speed>1.980000</speed>
</trkpt>
<trkpt lat="44.648510" lon="33.802986">
<ele>174.861450</ele>
<time>2011-10-10T08:54:57Z</time>
<desc>lat.=44.648510, lon.=33.802986, Alt.=174.861450m. Speed=7.740000m/h.</desc>
<speed>2.150000</speed>
</trkpt>
<trkpt lat="44.648418" lon="33.802990">
<ele>174.912231</ele>
<time>2011-10-10T08:55:02Z</time>
<desc>lat.=44.648418, lon.=33.802990, Alt.=174.912231m. Speed=7.596000m/h.</desc>
<speed>2.110000</speed>
</trkpt>
<trkpt lat="44.648308" lon="33.802986">
<ele>175.216919</ele>
<time>2011-10-10T08:55:07Z</time>
<desc>lat.=44.648308, lon.=33.802986, Alt.=175.216919m. Speed=7.668000m/h.</desc>
<speed>2.130000</speed>
</trkpt>
<trkpt lat="44.648209" lon="33.803017">
<ele>176.568481</ele>
<time>2011-10-10T08:55:12Z</time>
<desc>lat.=44.648209, lon.=33.803017, Alt.=176.568481m. Speed=7.920000m/h.</desc>
<speed>2.200000</speed>
</trkpt>
<trkpt lat="44.648106" lon="33.803028">
<ele>177.228638</ele>
<time>2011-10-10T08:55:17Z</time>
<desc>lat.=44.648106, lon.=33.803028, Alt.=177.228638m. Speed=6.336000m/h.</desc>
<speed>1.760000</speed>
</trkpt>
<trkpt lat="44.647999" lon="33.803032">
<ele>176.740356</ele>
<time>2011-10-10T08:55:22Z</time>
<desc>lat.=44.647999, lon.=33.803032, Alt.=176.740356m. Speed=7.524000m/h.</desc>
<speed>2.090000</speed>
</trkpt>
<trkpt lat="44.647900" lon="33.803051">
<ele>177.771606</ele>
<time>2011-10-10T08:55:27Z</time>
<desc>lat.=44.647900, lon.=33.803051, Alt.=177.771606m. Speed=7.884000m/h.</desc>
<speed>2.190000</speed>
</trkpt>
<trkpt lat="44.647827" lon="33.803078">
<ele>179.701294</ele>
<time>2011-10-10T08:55:32Z</time>
<desc>lat.=44.647827, lon.=33.803078, Alt.=179.701294m. Speed=5.400000m/h.</desc>
<speed>1.500000</speed>
</trkpt>
<trkpt lat="44.647732" lon="33.803078">
<ele>181.236450</ele>
<time>2011-10-10T08:55:37Z</time>
<desc>lat.=44.647732, lon.=33.803078, Alt.=181.236450m. Speed=9.288000m/h.</desc>
<speed>2.580000</speed>
</trkpt>
<trkpt lat="44.647636" lon="33.803089">
<ele>182.271606</ele>
<time>2011-10-10T08:55:42Z</time>
<desc>lat.=44.647636, lon.=33.803089, Alt.=182.271606m. Speed=6.552000m/h.</desc>
<speed>1.820000</speed>
</trkpt>
<trkpt lat="44.647549" lon="33.803116">
<ele>183.857544</ele>
<time>2011-10-10T08:55:47Z</time>
<desc>lat.=44.647549, lon.=33.803116, Alt.=183.857544m. Speed=6.732000m/h.</desc>
<speed>1.870000</speed>
</trkpt>
<trkpt lat="44.647465" lon="33.803150">
<ele>183.970825</ele>
<time>2011-10-10T08:55:52Z</time>
<desc>lat.=44.647465, lon.=33.803150, Alt.=183.970825m. Speed=7.056000m/h.</desc>
<speed>1.960000</speed>
</trkpt>
<trkpt lat="44.647396" lon="33.803204">
<ele>184.314575</ele>
<time>2011-10-10T08:55:57Z</time>
<desc>lat.=44.647396, lon.=33.803204, Alt.=184.314575m. Speed=4.788000m/h.</desc>
<speed>1.330000</speed>
</trkpt>
<trkpt lat="44.647343" lon="33.803234">
<ele>183.892700</ele>
<time>2011-10-10T08:56:02Z</time>
<desc>lat.=44.647343, lon.=33.803234, Alt.=183.892700m. Speed=5.004000m/h.</desc>
<speed>1.390000</speed>
</trkpt>
<trkpt lat="44.647270" lon="33.803257">
<ele>185.439575</ele>
<time>2011-10-10T08:56:07Z</time>
<desc>lat.=44.647270, lon.=33.803257, Alt.=185.439575m. Speed=5.184000m/h.</desc>
<speed>1.440000</speed>
</trkpt>
<trkpt lat="44.647194" lon="33.803280">
<ele>185.982544</ele>
<time>2011-10-10T08:56:12Z</time>
<desc>lat.=44.647194, lon.=33.803280, Alt.=185.982544m. Speed=6.192000m/h.</desc>
<speed>1.720000</speed>
</trkpt>
<trkpt lat="44.647114" lon="33.803326">
<ele>186.857544</ele>
<time>2011-10-10T08:56:17Z</time>
<desc>lat.=44.647114, lon.=33.803326, Alt.=186.857544m. Speed=6.084000m/h.</desc>
<speed>1.690000</speed>
</trkpt>
<trkpt lat="44.647015" lon="33.803356">
<ele>186.752075</ele>
<time>2011-10-10T08:56:22Z</time>
<desc>lat.=44.647015, lon.=33.803356, Alt.=186.752075m. Speed=9.288000m/h.</desc>
<speed>2.580000</speed>
</trkpt>
<trkpt lat="44.646904" lon="33.803398">
<ele>189.279419</ele>
<time>2011-10-10T08:56:27Z</time>
<desc>lat.=44.646904, lon.=33.803398, Alt.=189.279419m. Speed=9.072000m/h.</desc>
<speed>2.520000</speed>
</trkpt>
<trkpt lat="44.646809" lon="33.803467">
<ele>190.716919</ele>
<time>2011-10-10T08:56:32Z</time>
<desc>lat.=44.646809, lon.=33.803467, Alt.=190.716919m. Speed=6.300000m/h.</desc>
<speed>1.750000</speed>
</trkpt>
<trkpt lat="44.646763" lon="33.803558">
<ele>193.615356</ele>
<time>2011-10-10T08:56:37Z</time>
<desc>lat.=44.646763, lon.=33.803558, Alt.=193.615356m. Speed=6.336000m/h.</desc>
<speed>1.760000</speed>
</trkpt>
<trkpt lat="44.646725" lon="33.803646">
<ele>196.029419</ele>
<time>2011-10-10T08:56:42Z</time>
<desc>lat.=44.646725, lon.=33.803646, Alt.=196.029419m. Speed=5.256000m/h.</desc>
<speed>1.460000</speed>
</trkpt>
<trkpt lat="44.646709" lon="33.803711">
<ele>196.255981</ele>
<time>2011-10-10T08:56:47Z</time>
<desc>lat.=44.646709, lon.=33.803711, Alt.=196.255981m. Speed=2.772000m/h.</desc>
<speed>0.770000</speed>
</trkpt>
<trkpt lat="44.646667" lon="33.803768">
<ele>195.810669</ele>
<time>2011-10-10T08:56:52Z</time>
<desc>lat.=44.646667, lon.=33.803768, Alt.=195.810669m. Speed=1.764000m/h.</desc>
<speed>0.490000</speed>
</trkpt>
<trkpt lat="44.646664" lon="33.803780">
<ele>195.896606</ele>
<time>2011-10-10T08:56:57Z</time>
<desc>lat.=44.646664, lon.=33.803780, Alt.=195.896606m. Speed=0.252000m/h.</desc>
<speed>0.070000</speed>
</trkpt>
<trkpt lat="44.646645" lon="33.803802">
<ele>195.259888</ele>
<time>2011-10-10T08:57:02Z</time>
<desc>lat.=44.646645, lon.=33.803802, Alt.=195.259888m. Speed=4.032000m/h.</desc>
<speed>1.120000</speed>
</trkpt>
<trkpt lat="44.646641" lon="33.803852">
<ele>195.673950</ele>
<time>2011-10-10T08:57:07Z</time>
<desc>lat.=44.646641, lon.=33.803852, Alt.=195.673950m. Speed=0.576000m/h.</desc>
<speed>0.160000</speed>
</trkpt>
<trkpt lat="44.646633" lon="33.803856">
<ele>195.408325</ele>
<time>2011-10-10T08:57:12Z</time>
<desc>lat.=44.646633, lon.=33.803856, Alt.=195.408325m. Speed=2.952000m/h.</desc>
<speed>0.820000</speed>
</trkpt>
<trkpt lat="44.646618" lon="33.803898">
<ele>195.802856</ele>
<time>2011-10-10T08:57:17Z</time>
<desc>lat.=44.646618, lon.=33.803898, Alt.=195.802856m. Speed=3.564000m/h.</desc>
<speed>0.990000</speed>
</trkpt>
<trkpt lat="44.646584" lon="33.803959">
<ele>195.548950</ele>
<time>2011-10-10T08:57:22Z</time>
<desc>lat.=44.646584, lon.=33.803959, Alt.=195.548950m. Speed=3.096000m/h.</desc>
<speed>0.860000</speed>
</trkpt>
<trkpt lat="44.646557" lon="33.804012">
<ele>196.041138</ele>
<time>2011-10-10T08:57:27Z</time>
<desc>lat.=44.646557, lon.=33.804012, Alt.=196.041138m. Speed=3.060000m/h.</desc>
<speed>0.850000</speed>
</trkpt>
<trkpt lat="44.646534" lon="33.804066">
<ele>197.052856</ele>
<time>2011-10-10T08:57:32Z</time>
<desc>lat.=44.646534, lon.=33.804066, Alt.=197.052856m. Speed=3.816000m/h.</desc>
<speed>1.060000</speed>
</trkpt>
<trkpt lat="44.646511" lon="33.804138">
<ele>198.002075</ele>
<time>2011-10-10T08:57:37Z</time>
<desc>lat.=44.646511, lon.=33.804138, Alt.=198.002075m. Speed=4.104000m/h.</desc>
<speed>1.140000</speed>
</trkpt>
<trkpt lat="44.646481" lon="33.804203">
<ele>198.556763</ele>
<time>2011-10-10T08:57:42Z</time>
<desc>lat.=44.646481, lon.=33.804203, Alt.=198.556763m. Speed=3.852000m/h.</desc>
<speed>1.070000</speed>
</trkpt>
<trkpt lat="44.646442" lon="33.804253">
<ele>198.529419</ele>
<time>2011-10-10T08:57:47Z</time>
<desc>lat.=44.646442, lon.=33.804253, Alt.=198.529419m. Speed=4.032000m/h.</desc>
<speed>1.120000</speed>
</trkpt>
<trkpt lat="44.646400" lon="33.804291">
<ele>198.638794</ele>
<time>2011-10-10T08:57:52Z</time>
<desc>lat.=44.646400, lon.=33.804291, Alt.=198.638794m. Speed=4.176000m/h.</desc>
<speed>1.160000</speed>
</trkpt>
<trkpt lat="44.646351" lon="33.804317">
<ele>198.541138</ele>
<time>2011-10-10T08:57:57Z</time>
<desc>lat.=44.646351, lon.=33.804317, Alt.=198.541138m. Speed=4.284000m/h.</desc>
<speed>1.190000</speed>
</trkpt>
<trkpt lat="44.646309" lon="33.804325">
<ele>198.849731</ele>
<time>2011-10-10T08:58:02Z</time>
<desc>lat.=44.646309, lon.=33.804325, Alt.=198.849731m. Speed=0.396000m/h.</desc>
<speed>0.110000</speed>
</trkpt>
<trkpt lat="44.646309" lon="33.804329">
<ele>198.705200</ele>
<time>2011-10-10T08:58:07Z</time>
<desc>lat.=44.646309, lon.=33.804329, Alt.=198.705200m. Speed=2.124000m/h.</desc>
<speed>0.590000</speed>
</trkpt>
<trkpt lat="44.646301" lon="33.804333">
<ele>198.580200</ele>
<time>2011-10-10T08:58:12Z</time>
<desc>lat.=44.646301, lon.=33.804333, Alt.=198.580200m. Speed=0.504000m/h.</desc>
<speed>0.140000</speed>
</trkpt>
<trkpt lat="44.646294" lon="33.804333">
<ele>198.494263</ele>
<time>2011-10-10T08:58:17Z</time>
<desc>lat.=44.646294, lon.=33.804333, Alt.=198.494263m. Speed=0.360000m/h.</desc>
<speed>0.100000</speed>
</trkpt>
<trkpt lat="44.646294" lon="33.804325">
<ele>198.431763</ele>
<time>2011-10-10T08:58:22Z</time>
<desc>lat.=44.646294, lon.=33.804325, Alt.=198.431763m. Speed=0.684000m/h.</desc>
<speed>0.190000</speed>
</trkpt>
<trkpt lat="44.646294" lon="33.804317">
<ele>198.470825</ele>
<time>2011-10-10T08:58:27Z</time>
<desc>lat.=44.646294, lon.=33.804317, Alt.=198.470825m. Speed=1.404000m/h.</desc>
<speed>0.390000</speed>
</trkpt>
<trkpt lat="44.646301" lon="33.804310">
<ele>198.791138</ele>
<time>2011-10-10T08:58:32Z</time>
<desc>lat.=44.646301, lon.=33.804310, Alt.=198.791138m. Speed=0.936000m/h.</desc>
<speed>0.260000</speed>
</trkpt>
<trkpt lat="44.646301" lon="33.804310">
<ele>198.791138</ele>
<time>2011-10-10T08:58:37Z</time>
<desc>lat.=44.646301, lon.=33.804310, Alt.=198.791138m. Speed=0.180000m/h.</desc>
<speed>0.050000</speed>
</trkpt>
<trkpt lat="44.646297" lon="33.804310">
<ele>198.795044</ele>
<time>2011-10-10T08:58:42Z</time>
<desc>lat.=44.646297, lon.=33.804310, Alt.=198.795044m. Speed=0.036000m/h.</desc>
<speed>0.010000</speed>
</trkpt>
<trkpt lat="44.646297" lon="33.804310">
<ele>198.763794</ele>
<time>2011-10-10T08:58:47Z</time>
<desc>lat.=44.646297, lon.=33.804310, Alt.=198.763794m. Speed=0.072000m/h.</desc>
<speed>0.020000</speed>
</trkpt>
<trkpt lat="44.646297" lon="33.804310">
<ele>198.771606</ele>
<time>2011-10-10T08:58:52Z</time>
<desc>lat.=44.646297, lon.=33.804310, Alt.=198.771606m. Speed=0.000000m/h.</desc>
<speed>0.000000</speed>
</trkpt>
<trkpt lat="44.646297" lon="33.804310">
<ele>198.775513</ele>
<time>2011-10-10T08:58:57Z</time>
<desc>lat.=44.646297, lon.=33.804310, Alt.=198.775513m. Speed=0.036000m/h.</desc>
<speed>0.010000</speed>
</trkpt>
<trkpt lat="44.646297" lon="33.804310">
<ele>198.752075</ele>
<time>2011-10-10T08:59:02Z</time>
<desc>lat.=44.646297, lon.=33.804310, Alt.=198.752075m. Speed=0.720000m/h.</desc>
<speed>0.200000</speed>
</trkpt>
<trkpt lat="44.646297" lon="33.804314">
<ele>198.709106</ele>
<time>2011-10-10T08:59:07Z</time>
<desc>lat.=44.646297, lon.=33.804314, Alt.=198.709106m. Speed=0.144000m/h.</desc>
<speed>0.040000</speed>
</trkpt>
<trkpt lat="44.646297" lon="33.804314">
<ele>198.720825</ele>
<time>2011-10-10T08:59:12Z</time>
<desc>lat.=44.646297, lon.=33.804314, Alt.=198.720825m. Speed=0.252000m/h.</desc>
<speed>0.070000</speed>
</trkpt>
<trkpt lat="44.646297" lon="33.804314">
<ele>198.713013</ele>
<time>2011-10-10T08:59:17Z</time>
<desc>lat.=44.646297, lon.=33.804314, Alt.=198.713013m. Speed=0.216000m/h.</desc>
<speed>0.060000</speed>
</trkpt>
<trkpt lat="44.646297" lon="33.804314">
<ele>198.713013</ele>
<time>2011-10-10T08:59:22Z</time>
<desc>lat.=44.646297, lon.=33.804314, Alt.=198.713013m. Speed=0.000000m/h.</desc>
<speed>0.000000</speed>
</trkpt>
<trkpt lat="44.646297" lon="33.804314">
<ele>198.709106</ele>
<time>2011-10-10T08:59:27Z</time>
<desc>lat.=44.646297, lon.=33.804314, Alt.=198.709106m. Speed=0.036000m/h.</desc>
<speed>0.010000</speed>
</trkpt>
<trkpt lat="44.646297" lon="33.804314">
<ele>198.705200</ele>
<time>2011-10-10T08:59:32Z</time>
<desc>lat.=44.646297, lon.=33.804314, Alt.=198.705200m. Speed=0.000000m/h.</desc>
<speed>0.000000</speed>
</trkpt>
<trkpt lat="44.646297" lon="33.804314">
<ele>198.705200</ele>
<time>2011-10-10T08:59:37Z</time>
<desc>lat.=44.646297, lon.=33.804314, Alt.=198.705200m. Speed=0.072000m/h.</desc>
<speed>0.020000</speed>
</trkpt>
<trkpt lat="44.646297" lon="33.804314">
<ele>198.701294</ele>
<time>2011-10-10T08:59:42Z</time>
<desc>lat.=44.646297, lon.=33.804314, Alt.=198.701294m. Speed=0.108000m/h.</desc>
<speed>0.030000</speed>
</trkpt>
<trkpt lat="44.646297" lon="33.804314">
<ele>198.697388</ele>
<time>2011-10-10T08:59:47Z</time>
<desc>lat.=44.646297, lon.=33.804314, Alt.=198.697388m. Speed=0.072000m/h.</desc>
<speed>0.020000</speed>
</trkpt>
<trkpt lat="44.646297" lon="33.804314">
<ele>198.685669</ele>
<time>2011-10-10T08:59:52Z</time>
<desc>lat.=44.646297, lon.=33.804314, Alt.=198.685669m. Speed=0.144000m/h.</desc>
<speed>0.040000</speed>
</trkpt>
<trkpt lat="44.646297" lon="33.804314">
<ele>198.681763</ele>
<time>2011-10-10T08:59:57Z</time>
<desc>lat.=44.646297, lon.=33.804314, Alt.=198.681763m. Speed=0.180000m/h.</desc>
<speed>0.050000</speed>
</trkpt>
<trkpt lat="44.646297" lon="33.804314">
<ele>198.670044</ele>
<time>2011-10-10T09:00:02Z</time>
<desc>lat.=44.646297, lon.=33.804314, Alt.=198.670044m. Speed=0.000000m/h.</desc>
<speed>0.000000</speed>
</trkpt>
<trkpt lat="44.646297" lon="33.804314">
<ele>198.673950</ele>
<time>2011-10-10T09:00:07Z</time>
<desc>lat.=44.646297, lon.=33.804314, Alt.=198.673950m. Speed=0.360000m/h.</desc>
<speed>0.100000</speed>
</trkpt>
<trkpt lat="44.646297" lon="33.804314">
<ele>198.713013</ele>
<time>2011-10-10T09:00:12Z</time>
<desc>lat.=44.646297, lon.=33.804314, Alt.=198.713013m. Speed=0.036000m/h.</desc>
<speed>0.010000</speed>
</trkpt>
<trkpt lat="44.646301" lon="33.804314">
<ele>198.713013</ele>
<time>2011-10-10T09:00:17Z</time>
<desc>lat.=44.646301, lon.=33.804314, Alt.=198.713013m. Speed=0.072000m/h.</desc>
<speed>0.020000</speed>
</trkpt>
<trkpt lat="44.646301" lon="33.804314">
<ele>198.724731</ele>
<time>2011-10-10T09:00:22Z</time>
<desc>lat.=44.646301, lon.=33.804314, Alt.=198.724731m. Speed=0.072000m/h.</desc>
<speed>0.020000</speed>
</trkpt>
<trkpt lat="44.646301" lon="33.804314">
<ele>198.740356</ele>
<time>2011-10-10T09:00:27Z</time>
<desc>lat.=44.646301, lon.=33.804314, Alt.=198.740356m. Speed=0.108000m/h.</desc>
<speed>0.030000</speed>
</trkpt>
<trkpt lat="44.646301" lon="33.804314">
<ele>198.681763</ele>
<time>2011-10-10T09:00:32Z</time>
<desc>lat.=44.646301, lon.=33.804314, Alt.=198.681763m. Speed=0.000000m/h.</desc>
<speed>0.000000</speed>
</trkpt>
<trkpt lat="44.646301" lon="33.804314">
<ele>198.701294</ele>
<time>2011-10-10T09:00:37Z</time>
<desc>lat.=44.646301, lon.=33.804314, Alt.=198.701294m. Speed=0.000000m/h.</desc>
<speed>0.000000</speed>
</trkpt>
<trkpt lat="44.646301" lon="33.804314">
<ele>198.705200</ele>
<time>2011-10-10T09:00:42Z</time>
<desc>lat.=44.646301, lon.=33.804314, Alt.=198.705200m. Speed=0.000000m/h.</desc>
<speed>0.000000</speed>
</trkpt>
<trkpt lat="44.646301" lon="33.804314">
<ele>198.709106</ele>
<time>2011-10-10T09:00:47Z</time>
<desc>lat.=44.646301, lon.=33.804314, Alt.=198.709106m. Speed=0.036000m/h.</desc>
<speed>0.010000</speed>
</trkpt>
<trkpt lat="44.646301" lon="33.804314">
<ele>198.716919</ele>
<time>2011-10-10T09:00:52Z</time>
<desc>lat.=44.646301, lon.=33.804314, Alt.=198.716919m. Speed=0.072000m/h.</desc>
<speed>0.020000</speed>
</trkpt>
<trkpt lat="44.646301" lon="33.804314">
<ele>198.724731</ele>
<time>2011-10-10T09:00:57Z</time>
<desc>lat.=44.646301, lon.=33.804314, Alt.=198.724731m. Speed=0.072000m/h.</desc>
<speed>0.020000</speed>
</trkpt>
<trkpt lat="44.646301" lon="33.804314">
<ele>198.720825</ele>
<time>2011-10-10T09:01:02Z</time>
<desc>lat.=44.646301, lon.=33.804314, Alt.=198.720825m. Speed=0.000000m/h.</desc>
<speed>0.000000</speed>
</trkpt>
<trkpt lat="44.646301" lon="33.804314">
<ele>198.713013</ele>
<time>2011-10-10T09:01:07Z</time>
<desc>lat.=44.646301, lon.=33.804314, Alt.=198.713013m. Speed=0.000000m/h.</desc>
<speed>0.000000</speed>
</trkpt>
<trkpt lat="44.646301" lon="33.804314">
<ele>198.548950</ele>
<time>2011-10-10T09:01:12Z</time>
<desc>lat.=44.646301, lon.=33.804314, Alt.=198.548950m. Speed=0.036000m/h.</desc>
<speed>0.010000</speed>
</trkpt>
<trkpt lat="44.646305" lon="33.804314">
<ele>198.380981</ele>
<time>2011-10-10T09:01:17Z</time>
<desc>lat.=44.646305, lon.=33.804314, Alt.=198.380981m. Speed=0.576000m/h.</desc>
<speed>0.160000</speed>
</trkpt>
<trkpt lat="44.646305" lon="33.804310">
<ele>197.810669</ele>
<time>2011-10-10T09:01:22Z</time>
<desc>lat.=44.646305, lon.=33.804310, Alt.=197.810669m. Speed=0.072000m/h.</desc>
<speed>0.020000</speed>
</trkpt>
<trkpt lat="44.646309" lon="33.804310">
<ele>197.142700</ele>
<time>2011-10-10T09:01:27Z</time>
<desc>lat.=44.646309, lon.=33.804310, Alt.=197.142700m. Speed=0.000000m/h.</desc>
<speed>0.000000</speed>
</trkpt>
<trkpt lat="44.646317" lon="33.804310">
<ele>196.654419</ele>
<time>2011-10-10T09:01:32Z</time>
<desc>lat.=44.646317, lon.=33.804310, Alt.=196.654419m. Speed=0.036000m/h.</desc>
<speed>0.010000</speed>
</trkpt>
<trkpt lat="44.646317" lon="33.804306">
<ele>196.388794</ele>
<time>2011-10-10T09:01:37Z</time>
<desc>lat.=44.646317, lon.=33.804306, Alt.=196.388794m. Speed=0.000000m/h.</desc>
<speed>0.000000</speed>
</trkpt>
<trkpt lat="44.646320" lon="33.804306">
<ele>196.412231</ele>
<time>2011-10-10T09:01:42Z</time>
<desc>lat.=44.646320, lon.=33.804306, Alt.=196.412231m. Speed=0.036000m/h.</desc>
<speed>0.010000</speed>
</trkpt>
<trkpt lat="44.646320" lon="33.804298">
<ele>196.689575</ele>
<time>2011-10-10T09:01:47Z</time>
<desc>lat.=44.646320, lon.=33.804298, Alt.=196.689575m. Speed=0.288000m/h.</desc>
<speed>0.080000</speed>
</trkpt>
<trkpt lat="44.646320" lon="33.804298">
<ele>196.748169</ele>
<time>2011-10-10T09:01:52Z</time>
<desc>lat.=44.646320, lon.=33.804298, Alt.=196.748169m. Speed=0.000000m/h.</desc>
<speed>0.000000</speed>
</trkpt>
<trkpt lat="44.646320" lon="33.804295">
<ele>196.783325</ele>
<time>2011-10-10T09:01:57Z</time>
<desc>lat.=44.646320, lon.=33.804295, Alt.=196.783325m. Speed=0.000000m/h.</desc>
<speed>0.000000</speed>
</trkpt>
<trkpt lat="44.646320" lon="33.804295">
<ele>196.775513</ele>
<time>2011-10-10T09:02:02Z</time>
<desc>lat.=44.646320, lon.=33.804295, Alt.=196.775513m. Speed=0.072000m/h.</desc>
<speed>0.020000</speed>
</trkpt>
<trkpt lat="44.646320" lon="33.804295">
<ele>196.779419</ele>
<time>2011-10-10T09:02:07Z</time>
<desc>lat.=44.646320, lon.=33.804295, Alt.=196.779419m. Speed=0.036000m/h.</desc>
<speed>0.010000</speed>
</trkpt>
<trkpt lat="44.646324" lon="33.804295">
<ele>196.779419</ele>
<time>2011-10-10T09:02:12Z</time>
<desc>lat.=44.646324, lon.=33.804295, Alt.=196.779419m. Speed=0.144000m/h.</desc>
<speed>0.040000</speed>
</trkpt>
<trkpt lat="44.646324" lon="33.804295">
<ele>196.779419</ele>
<time>2011-10-10T09:02:17Z</time>
<desc>lat.=44.646324, lon.=33.804295, Alt.=196.779419m. Speed=0.108000m/h.</desc>
<speed>0.030000</speed>
</trkpt>
<trkpt lat="44.646324" lon="33.804295">
<ele>196.783325</ele>
<time>2011-10-10T09:02:22Z</time>
<desc>lat.=44.646324, lon.=33.804295, Alt.=196.783325m. Speed=0.036000m/h.</desc>
<speed>0.010000</speed>
</trkpt>
<trkpt lat="44.646324" lon="33.804295">
<ele>196.783325</ele>
<time>2011-10-10T09:02:27Z</time>
<desc>lat.=44.646324, lon.=33.804295, Alt.=196.783325m. Speed=0.000000m/h.</desc>
<speed>0.000000</speed>
</trkpt>
<trkpt lat="44.646324" lon="33.804295">
<ele>196.779419</ele>
<time>2011-10-10T09:02:32Z</time>
<desc>lat.=44.646324, lon.=33.804295, Alt.=196.779419m. Speed=0.036000m/h.</desc>
<speed>0.010000</speed>
</trkpt>
<trkpt lat="44.646324" lon="33.804295">
<ele>196.775513</ele>
<time>2011-10-10T09:02:37Z</time>
<desc>lat.=44.646324, lon.=33.804295, Alt.=196.775513m. Speed=0.036000m/h.</desc>
<speed>0.010000</speed>
</trkpt>
<trkpt lat="44.646324" lon="33.804295">
<ele>196.771606</ele>
<time>2011-10-10T09:02:42Z</time>
<desc>lat.=44.646324, lon.=33.804295, Alt.=196.771606m. Speed=0.000000m/h.</desc>
<speed>0.000000</speed>
</trkpt>
<trkpt lat="44.646324" lon="33.804295">
<ele>196.755981</ele>
<time>2011-10-10T09:02:47Z</time>
<desc>lat.=44.646324, lon.=33.804295, Alt.=196.755981m. Speed=0.000000m/h.</desc>
<speed>0.000000</speed>
</trkpt>
<trkpt lat="44.646324" lon="33.804295">
<ele>196.748169</ele>
<time>2011-10-10T09:02:52Z</time>
<desc>lat.=44.646324, lon.=33.804295, Alt.=196.748169m. Speed=0.036000m/h.</desc>
<speed>0.010000</speed>
</trkpt>
<trkpt lat="44.646324" lon="33.804295">
<ele>196.736450</ele>
<time>2011-10-10T09:02:57Z</time>
<desc>lat.=44.646324, lon.=33.804295, Alt.=196.736450m. Speed=0.036000m/h.</desc>
<speed>0.010000</speed>
</trkpt>
<trkpt lat="44.646324" lon="33.804295">
<ele>196.732544</ele>
<time>2011-10-10T09:03:02Z</time>
<desc>lat.=44.646324, lon.=33.804295, Alt.=196.732544m. Speed=0.036000m/h.</desc>
<speed>0.010000</speed>
</trkpt>
<trkpt lat="44.646324" lon="33.804295">
<ele>196.724731</ele>
<time>2011-10-10T09:03:07Z</time>
<desc>lat.=44.646324, lon.=33.804295, Alt.=196.724731m. Speed=0.072000m/h.</desc>
<speed>0.020000</speed>
</trkpt>
<trkpt lat="44.646324" lon="33.804295">
<ele>196.732544</ele>
<time>2011-10-10T09:03:12Z</time>
<desc>lat.=44.646324, lon.=33.804295, Alt.=196.732544m. Speed=0.000000m/h.</desc>
<speed>0.000000</speed>
</trkpt>
<trkpt lat="44.646324" lon="33.804295">
<ele>196.740356</ele>
<time>2011-10-10T09:03:17Z</time>
<desc>lat.=44.646324, lon.=33.804295, Alt.=196.740356m. Speed=0.000000m/h.</desc>
<speed>0.000000</speed>
</trkpt>
<trkpt lat="44.646324" lon="33.804295">
<ele>196.748169</ele>
<time>2011-10-10T09:03:22Z</time>
<desc>lat.=44.646324, lon.=33.804295, Alt.=196.748169m. Speed=0.000000m/h.</desc>
<speed>0.000000</speed>
</trkpt>
<trkpt lat="44.646324" lon="33.804295">
<ele>196.759888</ele>
<time>2011-10-10T09:03:27Z</time>
<desc>lat.=44.646324, lon.=33.804295, Alt.=196.759888m. Speed=0.000000m/h.</desc>
<speed>0.000000</speed>
</trkpt>
<trkpt lat="44.646324" lon="33.804295">
<ele>196.767700</ele>
<time>2011-10-10T09:03:32Z</time>
<desc>lat.=44.646324, lon.=33.804295, Alt.=196.767700m. Speed=0.000000m/h.</desc>
<speed>0.000000</speed>
</trkpt>
<trkpt lat="44.646324" lon="33.804295">
<ele>196.775513</ele>
<time>2011-10-10T09:03:37Z</time>
<desc>lat.=44.646324, lon.=33.804295, Alt.=196.775513m. Speed=0.000000m/h.</desc>
<speed>0.000000</speed>
</trkpt>
<trkpt lat="44.646324" lon="33.804295">
<ele>196.783325</ele>
<time>2011-10-10T09:03:42Z</time>
<desc>lat.=44.646324, lon.=33.804295, Alt.=196.783325m. Speed=0.000000m/h.</desc>
<speed>0.000000</speed>
</trkpt>
<trkpt lat="44.646324" lon="33.804295">
<ele>196.787231</ele>
<time>2011-10-10T09:03:47Z</time>
<desc>lat.=44.646324, lon.=33.804295, Alt.=196.787231m. Speed=0.036000m/h.</desc>
<speed>0.010000</speed>
</trkpt>
<trkpt lat="44.646324" lon="33.804291">
<ele>196.798950</ele>
<time>2011-10-10T09:03:52Z</time>
<desc>lat.=44.646324, lon.=33.804291, Alt.=196.798950m. Speed=0.108000m/h.</desc>
<speed>0.030000</speed>
</trkpt>
<trkpt lat="44.646324" lon="33.804291">
<ele>196.802856</ele>
<time>2011-10-10T09:03:57Z</time>
<desc>lat.=44.646324, lon.=33.804291, Alt.=196.802856m. Speed=0.828000m/h.</desc>
<speed>0.230000</speed>
</trkpt>
<trkpt lat="44.646297" lon="33.804287">
<ele>196.478638</ele>
<time>2011-10-10T09:04:02Z</time>
<desc>lat.=44.646297, lon.=33.804287, Alt.=196.478638m. Speed=5.220000m/h.</desc>
<speed>1.450000</speed>
</trkpt>
<trkpt lat="44.646229" lon="33.804306">
<ele>198.849731</ele>
<time>2011-10-10T09:04:07Z</time>
<desc>lat.=44.646229, lon.=33.804306, Alt.=198.849731m. Speed=4.356000m/h.</desc>
<speed>1.210000</speed>
</trkpt>
<trkpt lat="44.646156" lon="33.804329">
<ele>201.966919</ele>
<time>2011-10-10T09:04:12Z</time>
<desc>lat.=44.646156, lon.=33.804329, Alt.=201.966919m. Speed=5.976000m/h.</desc>
<speed>1.660000</speed>
</trkpt>
<trkpt lat="44.646080" lon="33.804386">
<ele>204.564575</ele>
<time>2011-10-10T09:04:17Z</time>
<desc>lat.=44.646080, lon.=33.804386, Alt.=204.564575m. Speed=5.616000m/h.</desc>
<speed>1.560000</speed>
</trkpt>
<trkpt lat="44.646004" lon="33.804451">
<ele>207.822388</ele>
<time>2011-10-10T09:04:22Z</time>
<desc>lat.=44.646004, lon.=33.804451, Alt.=207.822388m. Speed=4.788000m/h.</desc>
<speed>1.330000</speed>
</trkpt>
<trkpt lat="44.645920" lon="33.804516">
<ele>210.228638</ele>
<time>2011-10-10T09:04:27Z</time>
<desc>lat.=44.645920, lon.=33.804516, Alt.=210.228638m. Speed=8.748000m/h.</desc>
<speed>2.430000</speed>
</trkpt>
<trkpt lat="44.645798" lon="33.804565">
<ele>209.408325</ele>
<time>2011-10-10T09:04:32Z</time>
<desc>lat.=44.645798, lon.=33.804565, Alt.=209.408325m. Speed=8.316000m/h.</desc>
<speed>2.310000</speed>
</trkpt>
<trkpt lat="44.645687" lon="33.804569">
<ele>210.295044</ele>
<time>2011-10-10T09:04:37Z</time>
<desc>lat.=44.645687, lon.=33.804569, Alt.=210.295044m. Speed=8.244000m/h.</desc>
<speed>2.290000</speed>
</trkpt>
<trkpt lat="44.645596" lon="33.804546">
<ele>211.076294</ele>
<time>2011-10-10T09:04:42Z</time>
<desc>lat.=44.645596, lon.=33.804546, Alt.=211.076294m. Speed=6.516000m/h.</desc>
<speed>1.810000</speed>
</trkpt>
<trkpt lat="44.645496" lon="33.804523">
<ele>210.287231</ele>
<time>2011-10-10T09:04:47Z</time>
<desc>lat.=44.645496, lon.=33.804523, Alt.=210.287231m. Speed=6.660000m/h.</desc>
<speed>1.850000</speed>
</trkpt>
<trkpt lat="44.645397" lon="33.804535">
<ele>210.963013</ele>
<time>2011-10-10T09:04:52Z</time>
<desc>lat.=44.645397, lon.=33.804535, Alt.=210.963013m. Speed=6.876000m/h.</desc>
<speed>1.910000</speed>
</trkpt>
<trkpt lat="44.645287" lon="33.804585">
<ele>210.798950</ele>
<time>2011-10-10T09:04:57Z</time>
<desc>lat.=44.645287, lon.=33.804585, Alt.=210.798950m. Speed=6.984000m/h.</desc>
<speed>1.940000</speed>
</trkpt>
<trkpt lat="44.645199" lon="33.804638">
<ele>210.427856</ele>
<time>2011-10-10T09:05:02Z</time>
<desc>lat.=44.645199, lon.=33.804638, Alt.=210.427856m. Speed=8.676000m/h.</desc>
<speed>2.410000</speed>
</trkpt>
<trkpt lat="44.645111" lon="33.804676">
<ele>211.060669</ele>
<time>2011-10-10T09:05:07Z</time>
<desc>lat.=44.645111, lon.=33.804676, Alt.=211.060669m. Speed=6.588000m/h.</desc>
<speed>1.830000</speed>
</trkpt>
<trkpt lat="44.645020" lon="33.804703">
<ele>212.392700</ele>
<time>2011-10-10T09:05:12Z</time>
<desc>lat.=44.645020, lon.=33.804703, Alt.=212.392700m. Speed=8.784000m/h.</desc>
<speed>2.440000</speed>
</trkpt>
<trkpt lat="44.644932" lon="33.804768">
<ele>214.478638</ele>
<time>2011-10-10T09:05:17Z</time>
<desc>lat.=44.644932, lon.=33.804768, Alt.=214.478638m. Speed=5.976000m/h.</desc>
<speed>1.660000</speed>
</trkpt>
<trkpt lat="44.644871" lon="33.804836">
<ele>217.455200</ele>
<time>2011-10-10T09:05:22Z</time>
<desc>lat.=44.644871, lon.=33.804836, Alt.=217.455200m. Speed=5.796000m/h.</desc>
<speed>1.610000</speed>
</trkpt>
<trkpt lat="44.644814" lon="33.804893">
<ele>219.841919</ele>
<time>2011-10-10T09:05:27Z</time>
<desc>lat.=44.644814, lon.=33.804893, Alt.=219.841919m. Speed=2.160000m/h.</desc>
<speed>0.600000</speed>
</trkpt>
<trkpt lat="44.644775" lon="33.804951">
<ele>219.025513</ele>
<time>2011-10-10T09:05:32Z</time>
<desc>lat.=44.644775, lon.=33.804951, Alt.=219.025513m. Speed=6.048000m/h.</desc>
<speed>1.680000</speed>
</trkpt>
<trkpt lat="44.644718" lon="33.805019">
<ele>220.072388</ele>
<time>2011-10-10T09:05:37Z</time>
<desc>lat.=44.644718, lon.=33.805019, Alt.=220.072388m. Speed=5.796000m/h.</desc>
<speed>1.610000</speed>
</trkpt>
<trkpt lat="44.644653" lon="33.805080">
<ele>220.037231</ele>
<time>2011-10-10T09:05:42Z</time>
<desc>lat.=44.644653, lon.=33.805080, Alt.=220.037231m. Speed=5.040000m/h.</desc>
<speed>1.400000</speed>
</trkpt>
<trkpt lat="44.644600" lon="33.805134">
<ele>222.064575</ele>
<time>2011-10-10T09:05:47Z</time>
<desc>lat.=44.644600, lon.=33.805134, Alt.=222.064575m. Speed=5.724000m/h.</desc>
<speed>1.590000</speed>
</trkpt>
<trkpt lat="44.644527" lon="33.805199">
<ele>223.189575</ele>
<time>2011-10-10T09:05:52Z</time>
<desc>lat.=44.644527, lon.=33.805199, Alt.=223.189575m. Speed=6.696000m/h.</desc>
<speed>1.860000</speed>
</trkpt>
<trkpt lat="44.644455" lon="33.805267">
<ele>223.755981</ele>
<time>2011-10-10T09:05:57Z</time>
<desc>lat.=44.644455, lon.=33.805267, Alt.=223.755981m. Speed=6.588000m/h.</desc>
<speed>1.830000</speed>
</trkpt>
<trkpt lat="44.644386" lon="33.805336">
<ele>225.107544</ele>
<time>2011-10-10T09:06:02Z</time>
<desc>lat.=44.644386, lon.=33.805336, Alt.=225.107544m. Speed=7.200000m/h.</desc>
<speed>2.000000</speed>
</trkpt>
<trkpt lat="44.644306" lon="33.805393">
<ele>226.408325</ele>
<time>2011-10-10T09:06:07Z</time>
<desc>lat.=44.644306, lon.=33.805393, Alt.=226.408325m. Speed=7.164000m/h.</desc>
<speed>1.990000</speed>
</trkpt>
<trkpt lat="44.644241" lon="33.805443">
<ele>228.369263</ele>
<time>2011-10-10T09:06:12Z</time>
<desc>lat.=44.644241, lon.=33.805443, Alt.=228.369263m. Speed=5.724000m/h.</desc>
<speed>1.590000</speed>
</trkpt>
<trkpt lat="44.644161" lon="33.805470">
<ele>229.494263</ele>
<time>2011-10-10T09:06:17Z</time>
<desc>lat.=44.644161, lon.=33.805470, Alt.=229.494263m. Speed=5.688000m/h.</desc>
<speed>1.580000</speed>
</trkpt>
<trkpt lat="44.644085" lon="33.805504">
<ele>230.341919</ele>
<time>2011-10-10T09:06:22Z</time>
<desc>lat.=44.644085, lon.=33.805504, Alt.=230.341919m. Speed=7.164000m/h.</desc>
<speed>1.990000</speed>
</trkpt>
<trkpt lat="44.644001" lon="33.805531">
<ele>231.693481</ele>
<time>2011-10-10T09:06:27Z</time>
<desc>lat.=44.644001, lon.=33.805531, Alt.=231.693481m. Speed=7.488000m/h.</desc>
<speed>2.080000</speed>
</trkpt>
<trkpt lat="44.643906" lon="33.805561">
<ele>230.638794</ele>
<time>2011-10-10T09:06:32Z</time>
<desc>lat.=44.643906, lon.=33.805561, Alt.=230.638794m. Speed=6.660000m/h.</desc>
<speed>1.850000</speed>
</trkpt>
<trkpt lat="44.643822" lon="33.805576">
<ele>231.744263</ele>
<time>2011-10-10T09:06:37Z</time>
<desc>lat.=44.643822, lon.=33.805576, Alt.=231.744263m. Speed=6.840000m/h.</desc>
<speed>1.900000</speed>
</trkpt>
<trkpt lat="44.643745" lon="33.805550">
<ele>232.896606</ele>
<time>2011-10-10T09:06:42Z</time>
<desc>lat.=44.643745, lon.=33.805550, Alt.=232.896606m. Speed=6.192000m/h.</desc>
<speed>1.720000</speed>
</trkpt>
<trkpt lat="44.643654" lon="33.805500">
<ele>233.685669</ele>
<time>2011-10-10T09:06:47Z</time>
<desc>lat.=44.643654, lon.=33.805500, Alt.=233.685669m. Speed=7.524000m/h.</desc>
<speed>2.090000</speed>
</trkpt>
<trkpt lat="44.643570" lon="33.805458">
<ele>234.560669</ele>
<time>2011-10-10T09:06:52Z</time>
<desc>lat.=44.643570, lon.=33.805458, Alt.=234.560669m. Speed=5.004000m/h.</desc>
<speed>1.390000</speed>
</trkpt>
<trkpt lat="44.643478" lon="33.805431">
<ele>235.193481</ele>
<time>2011-10-10T09:06:57Z</time>
<desc>lat.=44.643478, lon.=33.805431, Alt.=235.193481m. Speed=7.056000m/h.</desc>
<speed>1.960000</speed>
</trkpt>
<trkpt lat="44.643375" lon="33.805431">
<ele>235.822388</ele>
<time>2011-10-10T09:07:02Z</time>
<desc>lat.=44.643375, lon.=33.805431, Alt.=235.822388m. Speed=7.668000m/h.</desc>
<speed>2.130000</speed>
</trkpt>
<trkpt lat="44.643280" lon="33.805420">
<ele>235.091919</ele>
<time>2011-10-10T09:07:07Z</time>
<desc>lat.=44.643280, lon.=33.805420, Alt.=235.091919m. Speed=7.236000m/h.</desc>
<speed>2.010000</speed>
</trkpt>
<trkpt lat="44.643192" lon="33.805408">
<ele>236.826294</ele>
<time>2011-10-10T09:07:12Z</time>
<desc>lat.=44.643192, lon.=33.805408, Alt.=236.826294m. Speed=7.956000m/h.</desc>
<speed>2.210000</speed>
</trkpt>
<trkpt lat="44.643120" lon="33.805332">
<ele>236.314575</ele>
<time>2011-10-10T09:07:17Z</time>
<desc>lat.=44.643120, lon.=33.805332, Alt.=236.314575m. Speed=6.192000m/h.</desc>
<speed>1.720000</speed>
</trkpt>
<trkpt lat="44.643063" lon="33.805363">
<ele>235.927856</ele>
<time>2011-10-10T09:07:22Z</time>
<desc>lat.=44.643063, lon.=33.805363, Alt.=235.927856m. Speed=5.508000m/h.</desc>
<speed>1.530000</speed>
</trkpt>
<trkpt lat="44.643105" lon="33.805321">
<ele>235.033325</ele>
<time>2011-10-10T09:07:27Z</time>
<desc>lat.=44.643105, lon.=33.805321, Alt.=235.033325m. Speed=6.156000m/h.</desc>
<speed>1.710000</speed>
</trkpt>
<trkpt lat="44.643112" lon="33.805225">
<ele>233.880981</ele>
<time>2011-10-10T09:07:32Z</time>
<desc>lat.=44.643112, lon.=33.805225, Alt.=233.880981m. Speed=5.292000m/h.</desc>
<speed>1.470000</speed>
</trkpt>
<trkpt lat="44.643108" lon="33.805149">
<ele>232.728638</ele>
<time>2011-10-10T09:07:37Z</time>
<desc>lat.=44.643108, lon.=33.805149, Alt.=232.728638m. Speed=3.672000m/h.</desc>
<speed>1.020000</speed>
</trkpt>
<trkpt lat="44.643097" lon="33.805126">
<ele>231.388794</ele>
<time>2011-10-10T09:07:42Z</time>
<desc>lat.=44.643097, lon.=33.805126, Alt.=231.388794m. Speed=0.000000m/h.</desc>
<speed>0.000000</speed>
</trkpt>
<trkpt lat="44.643108" lon="33.805073">
<ele>231.998169</ele>
<time>2011-10-10T09:07:47Z</time>
<desc>lat.=44.643108, lon.=33.805073, Alt.=231.998169m. Speed=4.788000m/h.</desc>
<speed>1.330000</speed>
</trkpt>
<trkpt lat="44.643089" lon="33.804993">
<ele>232.341919</ele>
<time>2011-10-10T09:07:52Z</time>
<desc>lat.=44.643089, lon.=33.804993, Alt.=232.341919m. Speed=4.176000m/h.</desc>
<speed>1.160000</speed>
</trkpt>
<trkpt lat="44.643070" lon="33.804901">
<ele>232.427856</ele>
<time>2011-10-10T09:07:57Z</time>
<desc>lat.=44.643070, lon.=33.804901, Alt.=232.427856m. Speed=4.032000m/h.</desc>
<speed>1.120000</speed>
</trkpt>
<trkpt lat="44.643066" lon="33.804905">
<ele>231.603638</ele>
<time>2011-10-10T09:08:02Z</time>
<desc>lat.=44.643066, lon.=33.804905, Alt.=231.603638m. Speed=0.072000m/h.</desc>
<speed>0.020000</speed>
</trkpt>
<trkpt lat="44.643066" lon="33.804905">
<ele>229.994263</ele>
<time>2011-10-10T09:08:07Z</time>
<desc>lat.=44.643066, lon.=33.804905, Alt.=229.994263m. Speed=0.072000m/h.</desc>
<speed>0.020000</speed>
</trkpt>
<trkpt lat="44.643074" lon="33.804905">
<ele>229.384888</ele>
<time>2011-10-10T09:08:12Z</time>
<desc>lat.=44.643074, lon.=33.804905, Alt.=229.384888m. Speed=0.252000m/h.</desc>
<speed>0.070000</speed>
</trkpt>
<trkpt lat="44.643070" lon="33.804905">
<ele>229.142700</ele>
<time>2011-10-10T09:08:17Z</time>
<desc>lat.=44.643070, lon.=33.804905, Alt.=229.142700m. Speed=0.036000m/h.</desc>
<speed>0.010000</speed>
</trkpt>
<trkpt lat="44.643074" lon="33.804913">
<ele>228.615356</ele>
<time>2011-10-10T09:08:22Z</time>
<desc>lat.=44.643074, lon.=33.804913, Alt.=228.615356m. Speed=0.108000m/h.</desc>
<speed>0.030000</speed>
</trkpt>
<trkpt lat="44.643074" lon="33.804913">
<ele>228.013794</ele>
<time>2011-10-10T09:08:27Z</time>
<desc>lat.=44.643074, lon.=33.804913, Alt.=228.013794m. Speed=0.072000m/h.</desc>
<speed>0.020000</speed>
</trkpt>
<trkpt lat="44.643070" lon="33.804905">
<ele>228.041138</ele>
<time>2011-10-10T09:08:32Z</time>
<desc>lat.=44.643070, lon.=33.804905, Alt.=228.041138m. Speed=0.000000m/h.</desc>
<speed>0.000000</speed>
</trkpt>
<trkpt lat="44.643066" lon="33.804901">
<ele>227.959106</ele>
<time>2011-10-10T09:08:37Z</time>
<desc>lat.=44.643066, lon.=33.804901, Alt.=227.959106m. Speed=0.072000m/h.</desc>
<speed>0.020000</speed>
</trkpt>
<trkpt lat="44.643066" lon="33.804901">
<ele>227.896606</ele>
<time>2011-10-10T09:08:42Z</time>
<desc>lat.=44.643066, lon.=33.804901, Alt.=227.896606m. Speed=0.036000m/h.</desc>
<speed>0.010000</speed>
</trkpt>
<trkpt lat="44.643063" lon="33.804905">
<ele>227.880981</ele>
<time>2011-10-10T09:08:47Z</time>
<desc>lat.=44.643063, lon.=33.804905, Alt.=227.880981m. Speed=0.000000m/h.</desc>
<speed>0.000000</speed>
</trkpt>
<trkpt lat="44.643063" lon="33.804905">
<ele>227.873169</ele>
<time>2011-10-10T09:08:52Z</time>
<desc>lat.=44.643063, lon.=33.804905, Alt.=227.873169m. Speed=0.000000m/h.</desc>
<speed>0.000000</speed>
</trkpt>
<trkpt lat="44.643063" lon="33.804905">
<ele>227.869263</ele>
<time>2011-10-10T09:08:57Z</time>
<desc>lat.=44.643063, lon.=33.804905, Alt.=227.869263m. Speed=0.036000m/h.</desc>
<speed>0.010000</speed>
</trkpt>
<trkpt lat="44.643063" lon="33.804905">
<ele>227.869263</ele>
<time>2011-10-10T09:09:02Z</time>
<desc>lat.=44.643063, lon.=33.804905, Alt.=227.869263m. Speed=0.000000m/h.</desc>
<speed>0.000000</speed>
</trkpt>
<trkpt lat="44.643063" lon="33.804905">
<ele>227.861450</ele>
<time>2011-10-10T09:09:07Z</time>
<desc>lat.=44.643063, lon.=33.804905, Alt.=227.861450m. Speed=0.036000m/h.</desc>
<speed>0.010000</speed>
</trkpt>
<trkpt lat="44.643063" lon="33.804905">
<ele>227.865356</ele>
<time>2011-10-10T09:09:12Z</time>
<desc>lat.=44.643063, lon.=33.804905, Alt.=227.865356m. Speed=0.000000m/h.</desc>
<speed>0.000000</speed>
</trkpt>
<trkpt lat="44.643063" lon="33.804905">
<ele>227.861450</ele>
<time>2011-10-10T09:09:17Z</time>
<desc>lat.=44.643063, lon.=33.804905, Alt.=227.861450m. Speed=0.036000m/h.</desc>
<speed>0.010000</speed>
</trkpt>
<trkpt lat="44.643063" lon="33.804905">
<ele>227.861450</ele>
<time>2011-10-10T09:09:22Z</time>
<desc>lat.=44.643063, lon.=33.804905, Alt.=227.861450m. Speed=0.072000m/h.</desc>
<speed>0.020000</speed>
</trkpt>
<trkpt lat="44.643063" lon="33.804905">
<ele>227.877075</ele>
<time>2011-10-10T09:09:27Z</time>
<desc>lat.=44.643063, lon.=33.804905, Alt.=227.877075m. Speed=0.036000m/h.</desc>
<speed>0.010000</speed>
</trkpt>
<trkpt lat="44.643063" lon="33.804905">
<ele>227.892700</ele>
<time>2011-10-10T09:09:32Z</time>
<desc>lat.=44.643063, lon.=33.804905, Alt.=227.892700m. Speed=0.000000m/h.</desc>
<speed>0.000000</speed>
</trkpt>
<trkpt lat="44.643063" lon="33.804905">
<ele>227.884888</ele>
<time>2011-10-10T09:09:37Z</time>
<desc>lat.=44.643063, lon.=33.804905, Alt.=227.884888m. Speed=0.000000m/h.</desc>
<speed>0.000000</speed>
</trkpt>
<trkpt lat="44.643063" lon="33.804905">
<ele>227.896606</ele>
<time>2011-10-10T09:09:42Z</time>
<desc>lat.=44.643063, lon.=33.804905, Alt.=227.896606m. Speed=0.036000m/h.</desc>
<speed>0.010000</speed>
</trkpt>
<trkpt lat="44.643063" lon="33.804905">
<ele>227.904419</ele>
<time>2011-10-10T09:09:47Z</time>
<desc>lat.=44.643063, lon.=33.804905, Alt.=227.904419m. Speed=0.000000m/h.</desc>
<speed>0.000000</speed>
</trkpt>
<trkpt lat="44.643063" lon="33.804905">
<ele>227.896606</ele>
<time>2011-10-10T09:09:52Z</time>
<desc>lat.=44.643063, lon.=33.804905, Alt.=227.896606m. Speed=0.072000m/h.</desc>
<speed>0.020000</speed>
</trkpt>
<trkpt lat="44.643063" lon="33.804905">
<ele>227.900513</ele>
<time>2011-10-10T09:09:57Z</time>
<desc>lat.=44.643063, lon.=33.804905, Alt.=227.900513m. Speed=0.108000m/h.</desc>
<speed>0.030000</speed>
</trkpt>
<trkpt lat="44.643063" lon="33.804905">
<ele>227.927856</ele>
<time>2011-10-10T09:10:02Z</time>
<desc>lat.=44.643063, lon.=33.804905, Alt.=227.927856m. Speed=0.072000m/h.</desc>
<speed>0.020000</speed>
</trkpt>
<trkpt lat="44.643063" lon="33.804905">
<ele>227.935669</ele>
<time>2011-10-10T09:10:07Z</time>
<desc>lat.=44.643063, lon.=33.804905, Alt.=227.935669m. Speed=0.000000m/h.</desc>
<speed>0.000000</speed>
</trkpt>
<trkpt lat="44.643063" lon="33.804905">
<ele>227.931763</ele>
<time>2011-10-10T09:10:12Z</time>
<desc>lat.=44.643063, lon.=33.804905, Alt.=227.931763m. Speed=0.000000m/h.</desc>
<speed>0.000000</speed>
</trkpt>
<trkpt lat="44.643063" lon="33.804905">
<ele>227.923950</ele>
<time>2011-10-10T09:10:17Z</time>
<desc>lat.=44.643063, lon.=33.804905, Alt.=227.923950m. Speed=0.000000m/h.</desc>
<speed>0.000000</speed>
</trkpt>
<trkpt lat="44.643063" lon="33.804905">
<ele>227.916138</ele>
<time>2011-10-10T09:10:22Z</time>
<desc>lat.=44.643063, lon.=33.804905, Alt.=227.916138m. Speed=0.000000m/h.</desc>
<speed>0.000000</speed>
</trkpt>
<trkpt lat="44.643063" lon="33.804905">
<ele>227.908325</ele>
<time>2011-10-10T09:10:27Z</time>
<desc>lat.=44.643063, lon.=33.804905, Alt.=227.908325m. Speed=0.000000m/h.</desc>
<speed>0.000000</speed>
</trkpt>
<trkpt lat="44.643063" lon="33.804909">
<ele>227.908325</ele>
<time>2011-10-10T09:10:32Z</time>
<desc>lat.=44.643063, lon.=33.804909, Alt.=227.908325m. Speed=0.036000m/h.</desc>
<speed>0.010000</speed>
</trkpt>
<trkpt lat="44.643063" lon="33.804909">
<ele>227.912231</ele>
<time>2011-10-10T09:10:37Z</time>
<desc>lat.=44.643063, lon.=33.804909, Alt.=227.912231m. Speed=0.036000m/h.</desc>
<speed>0.010000</speed>
</trkpt>
<trkpt lat="44.643063" lon="33.804909">
<ele>227.923950</ele>
<time>2011-10-10T09:10:42Z</time>
<desc>lat.=44.643063, lon.=33.804909, Alt.=227.923950m. Speed=0.036000m/h.</desc>
<speed>0.010000</speed>
</trkpt>
<trkpt lat="44.643063" lon="33.804909">
<ele>227.931763</ele>
<time>2011-10-10T09:10:47Z</time>
<desc>lat.=44.643063, lon.=33.804909, Alt.=227.931763m. Speed=0.036000m/h.</desc>
<speed>0.010000</speed>
</trkpt>
<trkpt lat="44.643063" lon="33.804909">
<ele>227.951294</ele>
<time>2011-10-10T09:10:52Z</time>
<desc>lat.=44.643063, lon.=33.804909, Alt.=227.951294m. Speed=0.072000m/h.</desc>
<speed>0.020000</speed>
</trkpt>
<trkpt lat="44.643063" lon="33.804909">
<ele>227.974731</ele>
<time>2011-10-10T09:10:57Z</time>
<desc>lat.=44.643063, lon.=33.804909, Alt.=227.974731m. Speed=0.000000m/h.</desc>
<speed>0.000000</speed>
</trkpt>
<trkpt lat="44.643063" lon="33.804909">
<ele>227.990356</ele>
<time>2011-10-10T09:11:02Z</time>
<desc>lat.=44.643063, lon.=33.804909, Alt.=227.990356m. Speed=0.000000m/h.</desc>
<speed>0.000000</speed>
</trkpt>
<trkpt lat="44.643063" lon="33.804909">
<ele>227.990356</ele>
<time>2011-10-10T09:11:07Z</time>
<desc>lat.=44.643063, lon.=33.804909, Alt.=227.990356m. Speed=0.612000m/h.</desc>
<speed>0.170000</speed>
</trkpt>
<trkpt lat="44.643063" lon="33.804893">
<ele>227.595825</ele>
<time>2011-10-10T09:11:12Z</time>
<desc>lat.=44.643063, lon.=33.804893, Alt.=227.595825m. Speed=1.080000m/h.</desc>
<speed>0.300000</speed>
</trkpt>
<trkpt lat="44.643055" lon="33.804890">
<ele>227.369263</ele>
<time>2011-10-10T09:11:17Z</time>
<desc>lat.=44.643055, lon.=33.804890, Alt.=227.369263m. Speed=0.324000m/h.</desc>
<speed>0.090000</speed>
</trkpt>
<trkpt lat="44.643055" lon="33.804893">
<ele>227.228638</ele>
<time>2011-10-10T09:11:22Z</time>
<desc>lat.=44.643055, lon.=33.804893, Alt.=227.228638m. Speed=0.108000m/h.</desc>
<speed>0.030000</speed>
</trkpt>
<trkpt lat="44.643051" lon="33.804882">
<ele>226.853638</ele>
<time>2011-10-10T09:11:27Z</time>
<desc>lat.=44.643051, lon.=33.804882, Alt.=226.853638m. Speed=2.160000m/h.</desc>
<speed>0.600000</speed>
</trkpt>
<trkpt lat="44.643017" lon="33.804821">
<ele>226.568481</ele>
<time>2011-10-10T09:11:32Z</time>
<desc>lat.=44.643017, lon.=33.804821, Alt.=226.568481m. Speed=6.156000m/h.</desc>
<speed>1.710000</speed>
</trkpt>
<trkpt lat="44.642982" lon="33.804722">
<ele>227.154419</ele>
<time>2011-10-10T09:11:37Z</time>
<desc>lat.=44.642982, lon.=33.804722, Alt.=227.154419m. Speed=6.984000m/h.</desc>
<speed>1.940000</speed>
</trkpt>
<trkpt lat="44.642910" lon="33.804604">
<ele>226.877075</ele>
<time>2011-10-10T09:11:42Z</time>
<desc>lat.=44.642910, lon.=33.804604, Alt.=226.877075m. Speed=10.800000m/h.</desc>
<speed>3.000000</speed>
</trkpt>
<trkpt lat="44.642803" lon="33.804443">
<ele>225.779419</ele>
<time>2011-10-10T09:11:47Z</time>
<desc>lat.=44.642803, lon.=33.804443, Alt.=225.779419m. Speed=14.400000m/h.</desc>
<speed>4.000000</speed>
</trkpt>
<trkpt lat="44.642654" lon="33.804226">
<ele>224.529419</ele>
<time>2011-10-10T09:11:52Z</time>
<desc>lat.=44.642654, lon.=33.804226, Alt.=224.529419m. Speed=18.143999m/h.</desc>
<speed>5.040000</speed>
</trkpt>
<trkpt lat="44.642513" lon="33.803970">
<ele>223.486450</ele>
<time>2011-10-10T09:11:57Z</time>
<desc>lat.=44.642513, lon.=33.803970, Alt.=223.486450m. Speed=19.188000m/h.</desc>
<speed>5.330000</speed>
</trkpt>
<trkpt lat="44.642342" lon="33.803715">
<ele>222.525513</ele>
<time>2011-10-10T09:12:02Z</time>
<desc>lat.=44.642342, lon.=33.803715, Alt.=222.525513m. Speed=19.044001m/h.</desc>
<speed>5.290000</speed>
</trkpt>
<trkpt lat="44.642162" lon="33.803532">
<ele>222.095825</ele>
<time>2011-10-10T09:12:07Z</time>
<desc>lat.=44.642162, lon.=33.803532, Alt.=222.095825m. Speed=16.056000m/h.</desc>
<speed>4.460000</speed>
</trkpt>
<trkpt lat="44.642025" lon="33.803337">
<ele>221.658325</ele>
<time>2011-10-10T09:12:12Z</time>
<desc>lat.=44.642025, lon.=33.803337, Alt.=221.658325m. Speed=15.048000m/h.</desc>
<speed>4.180000</speed>
</trkpt>
<trkpt lat="44.641888" lon="33.803123">
<ele>221.529419</ele>
<time>2011-10-10T09:12:17Z</time>
<desc>lat.=44.641888, lon.=33.803123, Alt.=221.529419m. Speed=18.936001m/h.</desc>
<speed>5.260000</speed>
</trkpt>
<trkpt lat="44.641720" lon="33.802834">
<ele>220.209106</ele>
<time>2011-10-10T09:12:22Z</time>
<desc>lat.=44.641720, lon.=33.802834, Alt.=220.209106m. Speed=24.336000m/h.</desc>
<speed>6.760000</speed>
</trkpt>
<trkpt lat="44.641495" lon="33.802502">
<ele>218.677856</ele>
<time>2011-10-10T09:12:27Z</time>
<desc>lat.=44.641495, lon.=33.802502, Alt.=218.677856m. Speed=26.532000m/h.</desc>
<speed>7.370000</speed>
</trkpt>
<trkpt lat="44.641266" lon="33.802135">
<ele>214.923950</ele>
<time>2011-10-10T09:12:32Z</time>
<desc>lat.=44.641266, lon.=33.802135, Alt.=214.923950m. Speed=28.872000m/h.</desc>
<speed>8.020000</speed>
</trkpt>
<trkpt lat="44.641010" lon="33.801765">
<ele>214.177856</ele>
<time>2011-10-10T09:12:37Z</time>
<desc>lat.=44.641010, lon.=33.801765, Alt.=214.177856m. Speed=29.448000m/h.</desc>
<speed>8.180000</speed>
</trkpt>
<trkpt lat="44.640785" lon="33.801399">
<ele>211.642700</ele>
<time>2011-10-10T09:12:42Z</time>
<desc>lat.=44.640785, lon.=33.801399, Alt.=211.642700m. Speed=21.275999m/h.</desc>
<speed>5.910000</speed>
</trkpt>
<trkpt lat="44.640732" lon="33.801262">
<ele>210.431763</ele>
<time>2011-10-10T09:12:47Z</time>
<desc>lat.=44.640732, lon.=33.801262, Alt.=210.431763m. Speed=0.288000m/h.</desc>
<speed>0.080000</speed>
</trkpt>
<trkpt lat="44.640732" lon="33.801262">
<ele>210.377075</ele>
<time>2011-10-10T09:12:52Z</time>
<desc>lat.=44.640732, lon.=33.801262, Alt.=210.377075m. Speed=0.036000m/h.</desc>
<speed>0.010000</speed>
</trkpt>
<trkpt lat="44.640732" lon="33.801262">
<ele>210.447388</ele>
<time>2011-10-10T09:12:57Z</time>
<desc>lat.=44.640732, lon.=33.801262, Alt.=210.447388m. Speed=0.036000m/h.</desc>
<speed>0.010000</speed>
</trkpt>
<trkpt lat="44.640713" lon="33.801220">
<ele>210.373169</ele>
<time>2011-10-10T09:13:02Z</time>
<desc>lat.=44.640713, lon.=33.801220, Alt.=210.373169m. Speed=8.460000m/h.</desc>
<speed>2.350000</speed>
</trkpt>
<trkpt lat="44.640644" lon="33.801037">
<ele>208.935669</ele>
<time>2011-10-10T09:13:07Z</time>
<desc>lat.=44.640644, lon.=33.801037, Alt.=208.935669m. Speed=11.556000m/h.</desc>
<speed>3.210000</speed>
</trkpt>
<trkpt lat="44.640633" lon="33.800922">
<ele>207.982544</ele>
<time>2011-10-10T09:13:12Z</time>
<desc>lat.=44.640633, lon.=33.800922, Alt.=207.982544m. Speed=5.616000m/h.</desc>
<speed>1.560000</speed>
</trkpt>
<trkpt lat="44.640541" lon="33.800755">
<ele>206.517700</ele>
<time>2011-10-10T09:13:17Z</time>
<desc>lat.=44.640541, lon.=33.800755, Alt.=206.517700m. Speed=18.612000m/h.</desc>
<speed>5.170000</speed>
</trkpt>
<trkpt lat="44.640434" lon="33.800434">
<ele>204.982544</ele>
<time>2011-10-10T09:13:22Z</time>
<desc>lat.=44.640434, lon.=33.800434, Alt.=204.982544m. Speed=20.124001m/h.</desc>
<speed>5.590000</speed>
</trkpt>
<trkpt lat="44.640316" lon="33.800083">
<ele>202.177856</ele>
<time>2011-10-10T09:13:27Z</time>
<desc>lat.=44.640316, lon.=33.800083, Alt.=202.177856m. Speed=23.652000m/h.</desc>
<speed>6.570000</speed>
</trkpt>
<trkpt lat="44.640186" lon="33.799706">
<ele>199.326294</ele>
<time>2011-10-10T09:13:32Z</time>
<desc>lat.=44.640186, lon.=33.799706, Alt.=199.326294m. Speed=25.632000m/h.</desc>
<speed>7.120000</speed>
</trkpt>
<trkpt lat="44.640087" lon="33.799244">
<ele>197.072388</ele>
<time>2011-10-10T09:13:37Z</time>
<desc>lat.=44.640087, lon.=33.799244, Alt.=197.072388m. Speed=30.204000m/h.</desc>
<speed>8.390000</speed>
</trkpt>
<trkpt lat="44.640079" lon="33.798668">
<ele>193.529419</ele>
<time>2011-10-10T09:13:42Z</time>
<desc>lat.=44.640079, lon.=33.798668, Alt.=193.529419m. Speed=35.928001m/h.</desc>
<speed>9.980000</speed>
</trkpt>
<trkpt lat="44.640079" lon="33.798054">
<ele>188.267700</ele>
<time>2011-10-10T09:13:47Z</time>
<desc>lat.=44.640079, lon.=33.798054, Alt.=188.267700m. Speed=34.271999m/h.</desc>
<speed>9.520000</speed>
</trkpt>
<trkpt lat="44.640095" lon="33.797466">
<ele>184.338013</ele>
<time>2011-10-10T09:13:52Z</time>
<desc>lat.=44.640095, lon.=33.797466, Alt.=184.338013m. Speed=33.804001m/h.</desc>
<speed>9.390000</speed>
</trkpt>
<trkpt lat="44.640076" lon="33.797104">
<ele>182.017700</ele>
<time>2011-10-10T09:13:57Z</time>
<desc>lat.=44.640076, lon.=33.797104, Alt.=182.017700m. Speed=4.212000m/h.</desc>
<speed>1.170000</speed>
</trkpt>
<trkpt lat="44.640072" lon="33.797108">
<ele>182.224731</ele>
<time>2011-10-10T09:14:02Z</time>
<desc>lat.=44.640072, lon.=33.797108, Alt.=182.224731m. Speed=0.036000m/h.</desc>
<speed>0.010000</speed>
</trkpt>
<trkpt lat="44.640072" lon="33.797108">
<ele>182.244263</ele>
<time>2011-10-10T09:14:07Z</time>
<desc>lat.=44.640072, lon.=33.797108, Alt.=182.244263m. Speed=0.000000m/h.</desc>
<speed>0.000000</speed>
</trkpt>
<trkpt lat="44.640072" lon="33.797108">
<ele>182.271606</ele>
<time>2011-10-10T09:14:12Z</time>
<desc>lat.=44.640072, lon.=33.797108, Alt.=182.271606m. Speed=0.072000m/h.</desc>
<speed>0.020000</speed>
</trkpt>
<trkpt lat="44.640072" lon="33.797108">
<ele>182.279419</ele>
<time>2011-10-10T09:14:17Z</time>
<desc>lat.=44.640072, lon.=33.797108, Alt.=182.279419m. Speed=0.072000m/h.</desc>
<speed>0.020000</speed>
</trkpt>
<trkpt lat="44.640072" lon="33.797108">
<ele>182.298950</ele>
<time>2011-10-10T09:14:22Z</time>
<desc>lat.=44.640072, lon.=33.797108, Alt.=182.298950m. Speed=0.000000m/h.</desc>
<speed>0.000000</speed>
</trkpt>
<trkpt lat="44.640072" lon="33.797108">
<ele>182.302856</ele>
<time>2011-10-10T09:14:27Z</time>
<desc>lat.=44.640072, lon.=33.797108, Alt.=182.302856m. Speed=0.000000m/h.</desc>
<speed>0.000000</speed>
</trkpt>
<trkpt lat="44.640072" lon="33.797108">
<ele>182.275513</ele>
<time>2011-10-10T09:14:32Z</time>
<desc>lat.=44.640072, lon.=33.797108, Alt.=182.275513m. Speed=0.072000m/h.</desc>
<speed>0.020000</speed>
</trkpt>
<trkpt lat="44.640072" lon="33.797108">
<ele>182.271606</ele>
<time>2011-10-10T09:14:37Z</time>
<desc>lat.=44.640072, lon.=33.797108, Alt.=182.271606m. Speed=0.036000m/h.</desc>
<speed>0.010000</speed>
</trkpt>
<trkpt lat="44.640072" lon="33.797112">
<ele>182.271606</ele>
<time>2011-10-10T09:14:42Z</time>
<desc>lat.=44.640072, lon.=33.797112, Alt.=182.271606m. Speed=0.000000m/h.</desc>
<speed>0.000000</speed>
</trkpt>
<trkpt lat="44.640072" lon="33.797112">
<ele>182.271606</ele>
<time>2011-10-10T09:14:47Z</time>
<desc>lat.=44.640072, lon.=33.797112, Alt.=182.271606m. Speed=0.072000m/h.</desc>
<speed>0.020000</speed>
</trkpt>
<trkpt lat="44.640072" lon="33.797112">
<ele>182.271606</ele>
<time>2011-10-10T09:14:52Z</time>
<desc>lat.=44.640072, lon.=33.797112, Alt.=182.271606m. Speed=0.000000m/h.</desc>
<speed>0.000000</speed>
</trkpt>
<trkpt lat="44.640072" lon="33.797112">
<ele>182.267700</ele>
<time>2011-10-10T09:14:57Z</time>
<desc>lat.=44.640072, lon.=33.797112, Alt.=182.267700m. Speed=0.036000m/h.</desc>
<speed>0.010000</speed>
</trkpt>
<trkpt lat="44.640072" lon="33.797112">
<ele>182.267700</ele>
<time>2011-10-10T09:15:02Z</time>
<desc>lat.=44.640072, lon.=33.797112, Alt.=182.267700m. Speed=0.000000m/h.</desc>
<speed>0.000000</speed>
</trkpt>
<trkpt lat="44.640072" lon="33.797112">
<ele>182.267700</ele>
<time>2011-10-10T09:15:07Z</time>
<desc>lat.=44.640072, lon.=33.797112, Alt.=182.267700m. Speed=0.000000m/h.</desc>
<speed>0.000000</speed>
</trkpt>
<trkpt lat="44.640072" lon="33.797112">
<ele>182.267700</ele>
<time>2011-10-10T09:15:12Z</time>
<desc>lat.=44.640072, lon.=33.797112, Alt.=182.267700m. Speed=0.036000m/h.</desc>
<speed>0.010000</speed>
</trkpt>
<trkpt lat="44.640072" lon="33.797112">
<ele>182.271606</ele>
<time>2011-10-10T09:15:17Z</time>
<desc>lat.=44.640072, lon.=33.797112, Alt.=182.271606m. Speed=0.036000m/h.</desc>
<speed>0.010000</speed>
</trkpt>
<trkpt lat="44.640076" lon="33.797085">
<ele>182.146606</ele>
<time>2011-10-10T09:15:22Z</time>
<desc>lat.=44.640076, lon.=33.797085, Alt.=182.146606m. Speed=6.264000m/h.</desc>
<speed>1.740000</speed>
</trkpt>
<trkpt lat="44.640068" lon="33.796864">
<ele>180.580200</ele>
<time>2011-10-10T09:15:27Z</time>
<desc>lat.=44.640068, lon.=33.796864, Alt.=180.580200m. Speed=18.431999m/h.</desc>
<speed>5.120000</speed>
</trkpt>
<trkpt lat="44.640064" lon="33.796459">
<ele>177.826294</ele>
<time>2011-10-10T09:15:32Z</time>
<desc>lat.=44.640064, lon.=33.796459, Alt.=177.826294m. Speed=25.955999m/h.</desc>
<speed>7.210000</speed>
</trkpt>
<trkpt lat="44.640060" lon="33.796032">
<ele>174.982544</ele>
<time>2011-10-10T09:15:37Z</time>
<desc>lat.=44.640060, lon.=33.796032, Alt.=174.982544m. Speed=19.476000m/h.</desc>
<speed>5.410000</speed>
</trkpt>
<trkpt lat="44.640079" lon="33.795834">
<ele>173.896606</ele>
<time>2011-10-10T09:15:42Z</time>
<desc>lat.=44.640079, lon.=33.795834, Alt.=173.896606m. Speed=5.580000m/h.</desc>
<speed>1.550000</speed>
</trkpt>
<trkpt lat="44.640083" lon="33.795795">
<ele>173.201294</ele>
<time>2011-10-10T09:15:47Z</time>
<desc>lat.=44.640083, lon.=33.795795, Alt.=173.201294m. Speed=0.036000m/h.</desc>
<speed>0.010000</speed>
</trkpt>
<trkpt lat="44.640083" lon="33.795795">
<ele>173.197388</ele>
<time>2011-10-10T09:15:52Z</time>
<desc>lat.=44.640083, lon.=33.795795, Alt.=173.197388m. Speed=0.036000m/h.</desc>
<speed>0.010000</speed>
</trkpt>
<trkpt lat="44.640095" lon="33.795784">
<ele>173.080200</ele>
<time>2011-10-10T09:15:57Z</time>
<desc>lat.=44.640095, lon.=33.795784, Alt.=173.080200m. Speed=6.984000m/h.</desc>
<speed>1.940000</speed>
</trkpt>
<trkpt lat="44.640205" lon="33.795654">
<ele>172.275513</ele>
<time>2011-10-10T09:16:02Z</time>
<desc>lat.=44.640205, lon.=33.795654, Alt.=172.275513m. Speed=15.048000m/h.</desc>
<speed>4.180000</speed>
</trkpt>
<trkpt lat="44.640350" lon="33.795437">
<ele>171.345825</ele>
<time>2011-10-10T09:16:07Z</time>
<desc>lat.=44.640350, lon.=33.795437, Alt.=171.345825m. Speed=17.820000m/h.</desc>
<speed>4.950000</speed>
</trkpt>
<trkpt lat="44.640514" lon="33.795197">
<ele>169.482544</ele>
<time>2011-10-10T09:16:12Z</time>
<desc>lat.=44.640514, lon.=33.795197, Alt.=169.482544m. Speed=19.728001m/h.</desc>
<speed>5.480000</speed>
</trkpt>
<trkpt lat="44.640713" lon="33.794998">
<ele>167.564575</ele>
<time>2011-10-10T09:16:17Z</time>
<desc>lat.=44.640713, lon.=33.794998, Alt.=167.564575m. Speed=21.528000m/h.</desc>
<speed>5.980000</speed>
</trkpt>
<trkpt lat="44.640923" lon="33.794769">
<ele>165.572388</ele>
<time>2011-10-10T09:16:22Z</time>
<desc>lat.=44.640923, lon.=33.794769, Alt.=165.572388m. Speed=20.087999m/h.</desc>
<speed>5.580000</speed>
</trkpt>
<trkpt lat="44.641090" lon="33.794586">
<ele>164.353638</ele>
<time>2011-10-10T09:16:27Z</time>
<desc>lat.=44.641090, lon.=33.794586, Alt.=164.353638m. Speed=14.796000m/h.</desc>
<speed>4.110000</speed>
</trkpt>
<trkpt lat="44.641197" lon="33.794449">
<ele>161.955200</ele>
<time>2011-10-10T09:16:32Z</time>
<desc>lat.=44.641197, lon.=33.794449, Alt.=161.955200m. Speed=1.116000m/h.</desc>
<speed>0.310000</speed>
</trkpt>
<trkpt lat="44.641212" lon="33.794434">
<ele>160.404419</ele>
<time>2011-10-10T09:16:37Z</time>
<desc>lat.=44.641212, lon.=33.794434, Alt.=160.404419m. Speed=0.576000m/h.</desc>
<speed>0.160000</speed>
</trkpt>
<trkpt lat="44.641216" lon="33.794441">
<ele>159.326294</ele>
<time>2011-10-10T09:16:42Z</time>
<desc>lat.=44.641216, lon.=33.794441, Alt.=159.326294m. Speed=0.144000m/h.</desc>
<speed>0.040000</speed>
</trkpt>
<trkpt lat="44.641216" lon="33.794441">
<ele>158.994263</ele>
<time>2011-10-10T09:16:47Z</time>
<desc>lat.=44.641216, lon.=33.794441, Alt.=158.994263m. Speed=0.612000m/h.</desc>
<speed>0.170000</speed>
</trkpt>
<trkpt lat="44.641224" lon="33.794437">
<ele>158.943481</ele>
<time>2011-10-10T09:16:52Z</time>
<desc>lat.=44.641224, lon.=33.794437, Alt.=158.943481m. Speed=0.072000m/h.</desc>
<speed>0.020000</speed>
</trkpt>
<trkpt lat="44.641228" lon="33.794441">
<ele>159.005981</ele>
<time>2011-10-10T09:16:57Z</time>
<desc>lat.=44.641228, lon.=33.794441, Alt.=159.005981m. Speed=0.648000m/h.</desc>
<speed>0.180000</speed>
</trkpt>
<trkpt lat="44.641239" lon="33.794441">
<ele>159.064575</ele>
<time>2011-10-10T09:17:02Z</time>
<desc>lat.=44.641239, lon.=33.794441, Alt.=159.064575m. Speed=0.900000m/h.</desc>
<speed>0.250000</speed>
</trkpt>
<trkpt lat="44.641243" lon="33.794441">
<ele>159.201294</ele>
<time>2011-10-10T09:17:07Z</time>
<desc>lat.=44.641243, lon.=33.794441, Alt.=159.201294m. Speed=0.216000m/h.</desc>
<speed>0.060000</speed>
</trkpt>
<trkpt lat="44.641247" lon="33.794441">
<ele>159.310669</ele>
<time>2011-10-10T09:17:12Z</time>
<desc>lat.=44.641247, lon.=33.794441, Alt.=159.310669m. Speed=0.288000m/h.</desc>
<speed>0.080000</speed>
</trkpt>
<trkpt lat="44.641251" lon="33.794441">
<ele>159.400513</ele>
<time>2011-10-10T09:17:17Z</time>
<desc>lat.=44.641251, lon.=33.794441, Alt.=159.400513m. Speed=0.396000m/h.</desc>
<speed>0.110000</speed>
</trkpt>
<trkpt lat="44.641251" lon="33.794445">
<ele>159.435669</ele>
<time>2011-10-10T09:17:22Z</time>
<desc>lat.=44.641251, lon.=33.794445, Alt.=159.435669m. Speed=0.216000m/h.</desc>
<speed>0.060000</speed>
</trkpt>
<trkpt lat="44.641247" lon="33.794441">
<ele>159.486450</ele>
<time>2011-10-10T09:17:27Z</time>
<desc>lat.=44.641247, lon.=33.794441, Alt.=159.486450m. Speed=0.072000m/h.</desc>
<speed>0.020000</speed>
</trkpt>
<trkpt lat="44.641243" lon="33.794437">
<ele>159.588013</ele>
<time>2011-10-10T09:17:32Z</time>
<desc>lat.=44.641243, lon.=33.794437, Alt.=159.588013m. Speed=0.648000m/h.</desc>
<speed>0.180000</speed>
</trkpt>
<trkpt lat="44.641239" lon="33.794434">
<ele>159.646606</ele>
<time>2011-10-10T09:17:37Z</time>
<desc>lat.=44.641239, lon.=33.794434, Alt.=159.646606m. Speed=0.144000m/h.</desc>
<speed>0.040000</speed>
</trkpt>
<trkpt lat="44.641239" lon="33.794434">
<ele>159.681763</ele>
<time>2011-10-10T09:17:42Z</time>
<desc>lat.=44.641239, lon.=33.794434, Alt.=159.681763m. Speed=0.180000m/h.</desc>
<speed>0.050000</speed>
</trkpt>
<trkpt lat="44.641239" lon="33.794430">
<ele>159.709106</ele>
<time>2011-10-10T09:17:47Z</time>
<desc>lat.=44.641239, lon.=33.794430, Alt.=159.709106m. Speed=0.612000m/h.</desc>
<speed>0.170000</speed>
</trkpt>
<trkpt lat="44.641228" lon="33.794422">
<ele>159.701294</ele>
<time>2011-10-10T09:17:52Z</time>
<desc>lat.=44.641228, lon.=33.794422, Alt.=159.701294m. Speed=0.720000m/h.</desc>
<speed>0.200000</speed>
</trkpt>
<trkpt lat="44.641224" lon="33.794415">
<ele>159.736450</ele>
<time>2011-10-10T09:17:57Z</time>
<desc>lat.=44.641224, lon.=33.794415, Alt.=159.736450m. Speed=1.008000m/h.</desc>
<speed>0.280000</speed>
</trkpt>
<trkpt lat="44.641216" lon="33.794418">
<ele>159.955200</ele>
<time>2011-10-10T09:18:02Z</time>
<desc>lat.=44.641216, lon.=33.794418, Alt.=159.955200m. Speed=0.324000m/h.</desc>
<speed>0.090000</speed>
</trkpt>
<trkpt lat="44.641212" lon="33.794422">
<ele>160.005981</ele>
<time>2011-10-10T09:18:07Z</time>
<desc>lat.=44.641212, lon.=33.794422, Alt.=160.005981m. Speed=0.576000m/h.</desc>
<speed>0.160000</speed>
</trkpt>
<trkpt lat="44.641232" lon="33.794415">
<ele>159.873169</ele>
<time>2011-10-10T09:18:12Z</time>
<desc>lat.=44.641232, lon.=33.794415, Alt.=159.873169m. Speed=0.720000m/h.</desc>
<speed>0.200000</speed>
</trkpt>
<trkpt lat="44.641235" lon="33.794403">
<ele>160.005981</ele>
<time>2011-10-10T09:18:17Z</time>
<desc>lat.=44.641235, lon.=33.794403, Alt.=160.005981m. Speed=1.260000m/h.</desc>
<speed>0.350000</speed>
</trkpt>
<trkpt lat="44.641304" lon="33.794338">
<ele>159.963013</ele>
<time>2011-10-10T09:18:22Z</time>
<desc>lat.=44.641304, lon.=33.794338, Alt.=159.963013m. Speed=8.748000m/h.</desc>
<speed>2.430000</speed>
</trkpt>
<trkpt lat="44.641380" lon="33.794254">
<ele>159.431763</ele>
<time>2011-10-10T09:18:27Z</time>
<desc>lat.=44.641380, lon.=33.794254, Alt.=159.431763m. Speed=9.108000m/h.</desc>
<speed>2.530000</speed>
</trkpt>
<trkpt lat="44.641407" lon="33.794144">
<ele>158.509888</ele>
<time>2011-10-10T09:18:32Z</time>
<desc>lat.=44.641407, lon.=33.794144, Alt.=158.509888m. Speed=7.128000m/h.</desc>
<speed>1.980000</speed>
</trkpt>
<trkpt lat="44.641396" lon="33.794003">
<ele>157.423950</ele>
<time>2011-10-10T09:18:37Z</time>
<desc>lat.=44.641396, lon.=33.794003, Alt.=157.423950m. Speed=12.708000m/h.</desc>
<speed>3.530000</speed>
</trkpt>
<trkpt lat="44.641396" lon="33.793781">
<ele>155.775513</ele>
<time>2011-10-10T09:18:42Z</time>
<desc>lat.=44.641396, lon.=33.793781, Alt.=155.775513m. Speed=11.628000m/h.</desc>
<speed>3.230000</speed>
</trkpt>
<trkpt lat="44.641373" lon="33.793518">
<ele>152.920044</ele>
<time>2011-10-10T09:18:47Z</time>
<desc>lat.=44.641373, lon.=33.793518, Alt.=152.920044m. Speed=18.684000m/h.</desc>
<speed>5.190000</speed>
</trkpt>
<trkpt lat="44.641293" lon="33.793247">
<ele>150.002075</ele>
<time>2011-10-10T09:18:52Z</time>
<desc>lat.=44.641293, lon.=33.793247, Alt.=150.002075m. Speed=14.652000m/h.</desc>
<speed>4.070000</speed>
</trkpt>
<trkpt lat="44.641243" lon="33.793064">
<ele>148.459106</ele>
<time>2011-10-10T09:18:57Z</time>
<desc>lat.=44.641243, lon.=33.793064, Alt.=148.459106m. Speed=10.764000m/h.</desc>
<speed>2.990000</speed>
</trkpt>
<trkpt lat="44.641216" lon="33.793007">
<ele>148.396606</ele>
<time>2011-10-10T09:19:02Z</time>
<desc>lat.=44.641216, lon.=33.793007, Alt.=148.396606m. Speed=0.432000m/h.</desc>
<speed>0.120000</speed>
</trkpt>
<trkpt lat="44.641216" lon="33.793007">
<ele>148.435669</ele>
<time>2011-10-10T09:19:07Z</time>
<desc>lat.=44.641216, lon.=33.793007, Alt.=148.435669m. Speed=0.000000m/h.</desc>
<speed>0.000000</speed>
</trkpt>
<trkpt lat="44.641216" lon="33.793007">
<ele>148.357544</ele>
<time>2011-10-10T09:19:12Z</time>
<desc>lat.=44.641216, lon.=33.793007, Alt.=148.357544m. Speed=0.036000m/h.</desc>
<speed>0.010000</speed>
</trkpt>
<trkpt lat="44.641212" lon="33.792992">
<ele>148.216919</ele>
<time>2011-10-10T09:19:17Z</time>
<desc>lat.=44.641212, lon.=33.792992, Alt.=148.216919m. Speed=0.216000m/h.</desc>
<speed>0.060000</speed>
</trkpt>
<trkpt lat="44.641205" lon="33.792969">
<ele>148.502075</ele>
<time>2011-10-10T09:19:22Z</time>
<desc>lat.=44.641205, lon.=33.792969, Alt.=148.502075m. Speed=5.400000m/h.</desc>
<speed>1.500000</speed>
</trkpt>
<trkpt lat="44.641174" lon="33.792873">
<ele>148.533325</ele>
<time>2011-10-10T09:19:27Z</time>
<desc>lat.=44.641174, lon.=33.792873, Alt.=148.533325m. Speed=4.716000m/h.</desc>
<speed>1.310000</speed>
</trkpt>
<trkpt lat="44.641151" lon="33.792786">
<ele>148.361450</ele>
<time>2011-10-10T09:19:32Z</time>
<desc>lat.=44.641151, lon.=33.792786, Alt.=148.361450m. Speed=8.136000m/h.</desc>
<speed>2.260000</speed>
</trkpt>
<trkpt lat="44.641102" lon="33.792576">
<ele>147.134888</ele>
<time>2011-10-10T09:19:37Z</time>
<desc>lat.=44.641102, lon.=33.792576, Alt.=147.134888m. Speed=13.896000m/h.</desc>
<speed>3.860000</speed>
</trkpt>
<trkpt lat="44.641033" lon="33.792297">
<ele>145.658325</ele>
<time>2011-10-10T09:19:42Z</time>
<desc>lat.=44.641033, lon.=33.792297, Alt.=145.658325m. Speed=17.604000m/h.</desc>
<speed>4.890000</speed>
</trkpt>
<trkpt lat="44.640881" lon="33.792080">
<ele>146.681763</ele>
<time>2011-10-10T09:19:47Z</time>
<desc>lat.=44.640881, lon.=33.792080, Alt.=146.681763m. Speed=15.516000m/h.</desc>
<speed>4.310000</speed>
</trkpt>
<trkpt lat="44.640816" lon="33.792004">
<ele>146.517700</ele>
<time>2011-10-10T09:19:52Z</time>
<desc>lat.=44.640816, lon.=33.792004, Alt.=146.517700m. Speed=0.252000m/h.</desc>
<speed>0.070000</speed>
</trkpt>
<trkpt lat="44.640816" lon="33.792007">
<ele>146.525513</ele>
<time>2011-10-10T09:19:57Z</time>
<desc>lat.=44.640816, lon.=33.792007, Alt.=146.525513m. Speed=0.144000m/h.</desc>
<speed>0.040000</speed>
</trkpt>
<trkpt lat="44.640816" lon="33.792011">
<ele>146.459106</ele>
<time>2011-10-10T09:20:02Z</time>
<desc>lat.=44.640816, lon.=33.792011, Alt.=146.459106m. Speed=0.072000m/h.</desc>
<speed>0.020000</speed>
</trkpt>
<trkpt lat="44.640816" lon="33.792011">
<ele>146.505981</ele>
<time>2011-10-10T09:20:07Z</time>
<desc>lat.=44.640816, lon.=33.792011, Alt.=146.505981m. Speed=0.288000m/h.</desc>
<speed>0.080000</speed>
</trkpt>
<trkpt lat="44.640816" lon="33.792011">
<ele>146.412231</ele>
<time>2011-10-10T09:20:12Z</time>
<desc>lat.=44.640816, lon.=33.792011, Alt.=146.412231m. Speed=0.000000m/h.</desc>
<speed>0.000000</speed>
</trkpt>
<trkpt lat="44.640816" lon="33.792015">
<ele>146.193481</ele>
<time>2011-10-10T09:20:17Z</time>
<desc>lat.=44.640816, lon.=33.792015, Alt.=146.193481m. Speed=0.324000m/h.</desc>
<speed>0.090000</speed>
</trkpt>
<trkpt lat="44.640816" lon="33.792007">
<ele>146.068481</ele>
<time>2011-10-10T09:20:22Z</time>
<desc>lat.=44.640816, lon.=33.792007, Alt.=146.068481m. Speed=2.412000m/h.</desc>
<speed>0.670000</speed>
</trkpt>
<trkpt lat="44.640804" lon="33.791954">
<ele>146.045044</ele>
<time>2011-10-10T09:20:27Z</time>
<desc>lat.=44.640804, lon.=33.791954, Alt.=146.045044m. Speed=6.552000m/h.</desc>
<speed>1.820000</speed>
</trkpt>
<trkpt lat="44.640774" lon="33.791782">
<ele>144.994263</ele>
<time>2011-10-10T09:20:32Z</time>
<desc>lat.=44.640774, lon.=33.791782, Alt.=144.994263m. Speed=12.312000m/h.</desc>
<speed>3.420000</speed>
</trkpt>
<trkpt lat="44.640728" lon="33.791565">
<ele>143.150513</ele>
<time>2011-10-10T09:20:37Z</time>
<desc>lat.=44.640728, lon.=33.791565, Alt.=143.150513m. Speed=13.824000m/h.</desc>
<speed>3.840000</speed>
</trkpt>
<trkpt lat="44.640709" lon="33.791286">
<ele>141.197388</ele>
<time>2011-10-10T09:20:42Z</time>
<desc>lat.=44.640709, lon.=33.791286, Alt.=141.197388m. Speed=17.676001m/h.</desc>
<speed>4.910000</speed>
</trkpt>
<trkpt lat="44.640686" lon="33.790974">
<ele>139.037231</ele>
<time>2011-10-10T09:20:47Z</time>
<desc>lat.=44.640686, lon.=33.790974, Alt.=139.037231m. Speed=18.288000m/h.</desc>
<speed>5.080000</speed>
</trkpt>
<trkpt lat="44.640671" lon="33.790588">
<ele>135.701294</ele>
<time>2011-10-10T09:20:52Z</time>
<desc>lat.=44.640671, lon.=33.790588, Alt.=135.701294m. Speed=26.424000m/h.</desc>
<speed>7.340000</speed>
</trkpt>
<trkpt lat="44.640625" lon="33.790077">
<ele>133.220825</ele>
<time>2011-10-10T09:20:57Z</time>
<desc>lat.=44.640625, lon.=33.790077, Alt.=133.220825m. Speed=31.427999m/h.</desc>
<speed>8.730000</speed>
</trkpt>
<trkpt lat="44.640598" lon="33.789566">
<ele>131.740356</ele>
<time>2011-10-10T09:21:02Z</time>
<desc>lat.=44.640598, lon.=33.789566, Alt.=131.740356m. Speed=25.452000m/h.</desc>
<speed>7.070000</speed>
</trkpt>
<trkpt lat="44.640587" lon="33.789268">
<ele>131.177856</ele>
<time>2011-10-10T09:21:07Z</time>
<desc>lat.=44.640587, lon.=33.789268, Alt.=131.177856m. Speed=8.748000m/h.</desc>
<speed>2.430000</speed>
</trkpt>
<trkpt lat="44.640583" lon="33.789173">
<ele>130.709106</ele>
<time>2011-10-10T09:21:12Z</time>
<desc>lat.=44.640583, lon.=33.789173, Alt.=130.709106m. Speed=4.392000m/h.</desc>
<speed>1.220000</speed>
</trkpt>
<trkpt lat="44.640587" lon="33.789150">
<ele>129.513794</ele>
<time>2011-10-10T09:21:17Z</time>
<desc>lat.=44.640587, lon.=33.789150, Alt.=129.513794m. Speed=0.324000m/h.</desc>
<speed>0.090000</speed>
</trkpt>
<trkpt lat="44.640587" lon="33.789154">
<ele>128.955200</ele>
<time>2011-10-10T09:21:22Z</time>
<desc>lat.=44.640587, lon.=33.789154, Alt.=128.955200m. Speed=0.072000m/h.</desc>
<speed>0.020000</speed>
</trkpt>
<trkpt lat="44.640587" lon="33.789154">
<ele>129.127075</ele>
<time>2011-10-10T09:21:27Z</time>
<desc>lat.=44.640587, lon.=33.789154, Alt.=129.127075m. Speed=0.000000m/h.</desc>
<speed>0.000000</speed>
</trkpt>
<trkpt lat="44.640587" lon="33.789154">
<ele>129.138794</ele>
<time>2011-10-10T09:21:32Z</time>
<desc>lat.=44.640587, lon.=33.789154, Alt.=129.138794m. Speed=1.044000m/h.</desc>
<speed>0.290000</speed>
</trkpt>
<trkpt lat="44.640549" lon="33.789185">
<ele>129.759888</ele>
<time>2011-10-10T09:21:37Z</time>
<desc>lat.=44.640549, lon.=33.789185, Alt.=129.759888m. Speed=8.136000m/h.</desc>
<speed>2.260000</speed>
</trkpt>
<trkpt lat="44.640480" lon="33.789356">
<ele>131.236450</ele>
<time>2011-10-10T09:21:42Z</time>
<desc>lat.=44.640480, lon.=33.789356, Alt.=131.236450m. Speed=11.196000m/h.</desc>
<speed>3.110000</speed>
</trkpt>
<trkpt lat="44.640404" lon="33.789524">
<ele>132.634888</ele>
<time>2011-10-10T09:21:47Z</time>
<desc>lat.=44.640404, lon.=33.789524, Alt.=132.634888m. Speed=8.136000m/h.</desc>
<speed>2.260000</speed>
</trkpt>
<trkpt lat="44.640339" lon="33.789661">
<ele>134.263794</ele>
<time>2011-10-10T09:21:52Z</time>
<desc>lat.=44.640339, lon.=33.789661, Alt.=134.263794m. Speed=8.424000m/h.</desc>
<speed>2.340000</speed>
</trkpt>
<trkpt lat="44.640278" lon="33.789814">
<ele>134.896606</ele>
<time>2011-10-10T09:21:57Z</time>
<desc>lat.=44.640278, lon.=33.789814, Alt.=134.896606m. Speed=8.928000m/h.</desc>
<speed>2.480000</speed>
</trkpt>
<trkpt lat="44.640251" lon="33.789959">
<ele>135.920044</ele>
<time>2011-10-10T09:22:02Z</time>
<desc>lat.=44.640251, lon.=33.789959, Alt.=135.920044m. Speed=8.712000m/h.</desc>
<speed>2.420000</speed>
</trkpt>
<trkpt lat="44.640118" lon="33.790081">
<ele>136.099731</ele>
<time>2011-10-10T09:22:07Z</time>
<desc>lat.=44.640118, lon.=33.790081, Alt.=136.099731m. Speed=14.832000m/h.</desc>
<speed>4.120000</speed>
</trkpt>
<trkpt lat="44.639950" lon="33.790222">
<ele>136.861450</ele>
<time>2011-10-10T09:22:12Z</time>
<desc>lat.=44.639950, lon.=33.790222, Alt.=136.861450m. Speed=14.940000m/h.</desc>
<speed>4.150000</speed>
</trkpt>
<trkpt lat="44.639778" lon="33.790333">
<ele>137.787231</ele>
<time>2011-10-10T09:22:17Z</time>
<desc>lat.=44.639778, lon.=33.790333, Alt.=137.787231m. Speed=14.184000m/h.</desc>
<speed>3.940000</speed>
</trkpt>
<trkpt lat="44.639614" lon="33.790405">
<ele>138.463013</ele>
<time>2011-10-10T09:22:22Z</time>
<desc>lat.=44.639614, lon.=33.790405, Alt.=138.463013m. Speed=13.212000m/h.</desc>
<speed>3.670000</speed>
</trkpt>
<trkpt lat="44.639469" lon="33.790482">
<ele>139.064575</ele>
<time>2011-10-10T09:22:27Z</time>
<desc>lat.=44.639469, lon.=33.790482, Alt.=139.064575m. Speed=12.384000m/h.</desc>
<speed>3.440000</speed>
</trkpt>
<trkpt lat="44.639297" lon="33.790558">
<ele>139.115356</ele>
<time>2011-10-10T09:22:32Z</time>
<desc>lat.=44.639297, lon.=33.790558, Alt.=139.115356m. Speed=14.616000m/h.</desc>
<speed>4.060000</speed>
</trkpt>
<trkpt lat="44.639126" lon="33.790634">
<ele>140.080200</ele>
<time>2011-10-10T09:22:37Z</time>
<desc>lat.=44.639126, lon.=33.790634, Alt.=140.080200m. Speed=14.580000m/h.</desc>
<speed>4.050000</speed>
</trkpt>
<trkpt lat="44.638947" lon="33.790710">
<ele>141.119263</ele>
<time>2011-10-10T09:22:42Z</time>
<desc>lat.=44.638947, lon.=33.790710, Alt.=141.119263m. Speed=15.264000m/h.</desc>
<speed>4.240000</speed>
</trkpt>
<trkpt lat="44.638779" lon="33.790821">
<ele>141.904419</ele>
<time>2011-10-10T09:22:47Z</time>
<desc>lat.=44.638779, lon.=33.790821, Alt.=141.904419m. Speed=14.328000m/h.</desc>
<speed>3.980000</speed>
</trkpt>
<trkpt lat="44.638615" lon="33.790897">
<ele>142.834106</ele>
<time>2011-10-10T09:22:52Z</time>
<desc>lat.=44.638615, lon.=33.790897, Alt.=142.834106m. Speed=14.724000m/h.</desc>
<speed>4.090000</speed>
</trkpt>
<trkpt lat="44.638443" lon="33.790970">
<ele>143.173950</ele>
<time>2011-10-10T09:22:57Z</time>
<desc>lat.=44.638443, lon.=33.790970, Alt.=143.173950m. Speed=14.220000m/h.</desc>
<speed>3.950000</speed>
</trkpt>
<trkpt lat="44.638287" lon="33.791035">
<ele>144.197388</ele>
<time>2011-10-10T09:23:02Z</time>
<desc>lat.=44.638287, lon.=33.791035, Alt.=144.197388m. Speed=12.600000m/h.</desc>
<speed>3.500000</speed>
</trkpt>
<trkpt lat="44.638142" lon="33.791119">
<ele>144.662231</ele>
<time>2011-10-10T09:23:07Z</time>
<desc>lat.=44.638142, lon.=33.791119, Alt.=144.662231m. Speed=12.636000m/h.</desc>
<speed>3.510000</speed>
</trkpt>
<trkpt lat="44.637997" lon="33.791206">
<ele>145.205200</ele>
<time>2011-10-10T09:23:12Z</time>
<desc>lat.=44.637997, lon.=33.791206, Alt.=145.205200m. Speed=12.384000m/h.</desc>
<speed>3.440000</speed>
</trkpt>
<trkpt lat="44.637852" lon="33.791260">
<ele>145.459106</ele>
<time>2011-10-10T09:23:17Z</time>
<desc>lat.=44.637852, lon.=33.791260, Alt.=145.459106m. Speed=10.656000m/h.</desc>
<speed>2.960000</speed>
</trkpt>
<trkpt lat="44.637741" lon="33.791321">
<ele>146.041138</ele>
<time>2011-10-10T09:23:22Z</time>
<desc>lat.=44.637741, lon.=33.791321, Alt.=146.041138m. Speed=9.648000m/h.</desc>
<speed>2.680000</speed>
</trkpt>
<trkpt lat="44.637634" lon="33.791401">
<ele>146.420044</ele>
<time>2011-10-10T09:23:27Z</time>
<desc>lat.=44.637634, lon.=33.791401, Alt.=146.420044m. Speed=9.720000m/h.</desc>
<speed>2.700000</speed>
</trkpt>
<trkpt lat="44.637516" lon="33.791454">
<ele>147.037231</ele>
<time>2011-10-10T09:23:32Z</time>
<desc>lat.=44.637516, lon.=33.791454, Alt.=147.037231m. Speed=10.296000m/h.</desc>
<speed>2.860000</speed>
</trkpt>
<trkpt lat="44.637383" lon="33.791534">
<ele>147.474731</ele>
<time>2011-10-10T09:23:37Z</time>
<desc>lat.=44.637383, lon.=33.791534, Alt.=147.474731m. Speed=12.924000m/h.</desc>
<speed>3.590000</speed>
</trkpt>
<trkpt lat="44.637238" lon="33.791641">
<ele>148.216919</ele>
<time>2011-10-10T09:23:42Z</time>
<desc>lat.=44.637238, lon.=33.791641, Alt.=148.216919m. Speed=12.420000m/h.</desc>
<speed>3.450000</speed>
</trkpt>
<trkpt lat="44.637100" lon="33.791725">
<ele>149.072388</ele>
<time>2011-10-10T09:23:47Z</time>
<desc>lat.=44.637100, lon.=33.791725, Alt.=149.072388m. Speed=13.176000m/h.</desc>
<speed>3.660000</speed>
</trkpt>
<trkpt lat="44.636948" lon="33.791824">
<ele>149.923950</ele>
<time>2011-10-10T09:23:52Z</time>
<desc>lat.=44.636948, lon.=33.791824, Alt.=149.923950m. Speed=12.492000m/h.</desc>
<speed>3.470000</speed>
</trkpt>
<trkpt lat="44.636795" lon="33.791924">
<ele>150.486450</ele>
<time>2011-10-10T09:23:57Z</time>
<desc>lat.=44.636795, lon.=33.791924, Alt.=150.486450m. Speed=12.852000m/h.</desc>
<speed>3.570000</speed>
</trkpt>
<trkpt lat="44.636665" lon="33.792030">
<ele>151.052856</ele>
<time>2011-10-10T09:24:02Z</time>
<desc>lat.=44.636665, lon.=33.792030, Alt.=151.052856m. Speed=10.692000m/h.</desc>
<speed>2.970000</speed>
</trkpt>
<trkpt lat="44.636612" lon="33.792080">
<ele>151.447388</ele>
<time>2011-10-10T09:24:07Z</time>
<desc>lat.=44.636612, lon.=33.792080, Alt.=151.447388m. Speed=2.052000m/h.</desc>
<speed>0.570000</speed>
</trkpt>
<trkpt lat="44.636597" lon="33.792080">
<ele>151.466919</ele>
<time>2011-10-10T09:24:12Z</time>
<desc>lat.=44.636597, lon.=33.792080, Alt.=151.466919m. Speed=0.792000m/h.</desc>
<speed>0.220000</speed>
</trkpt>
<trkpt lat="44.636589" lon="33.792084">
<ele>151.470825</ele>
<time>2011-10-10T09:24:17Z</time>
<desc>lat.=44.636589, lon.=33.792084, Alt.=151.470825m. Speed=0.504000m/h.</desc>
<speed>0.140000</speed>
</trkpt>
<trkpt lat="44.636585" lon="33.792091">
<ele>151.408325</ele>
<time>2011-10-10T09:24:22Z</time>
<desc>lat.=44.636585, lon.=33.792091, Alt.=151.408325m. Speed=0.036000m/h.</desc>
<speed>0.010000</speed>
</trkpt>
<trkpt lat="44.636585" lon="33.792091">
<ele>151.384888</ele>
<time>2011-10-10T09:24:27Z</time>
<desc>lat.=44.636585, lon.=33.792091, Alt.=151.384888m. Speed=0.000000m/h.</desc>
<speed>0.000000</speed>
</trkpt>
<trkpt lat="44.636585" lon="33.792091">
<ele>151.353638</ele>
<time>2011-10-10T09:24:32Z</time>
<desc>lat.=44.636585, lon.=33.792091, Alt.=151.353638m. Speed=0.036000m/h.</desc>
<speed>0.010000</speed>
</trkpt>
<trkpt lat="44.636585" lon="33.792091">
<ele>151.349731</ele>
<time>2011-10-10T09:24:37Z</time>
<desc>lat.=44.636585, lon.=33.792091, Alt.=151.349731m. Speed=0.000000m/h.</desc>
<speed>0.000000</speed>
</trkpt>
<trkpt lat="44.636585" lon="33.792091">
<ele>151.353638</ele>
<time>2011-10-10T09:24:42Z</time>
<desc>lat.=44.636585, lon.=33.792091, Alt.=151.353638m. Speed=0.108000m/h.</desc>
<speed>0.030000</speed>
</trkpt>
<trkpt lat="44.636578" lon="33.792107">
<ele>151.798950</ele>
<time>2011-10-10T09:24:47Z</time>
<desc>lat.=44.636578, lon.=33.792107, Alt.=151.798950m. Speed=4.644000m/h.</desc>
<speed>1.290000</speed>
</trkpt>
<trkpt lat="44.636524" lon="33.792168">
<ele>152.263794</ele>
<time>2011-10-10T09:24:52Z</time>
<desc>lat.=44.636524, lon.=33.792168, Alt.=152.263794m. Speed=6.768000m/h.</desc>
<speed>1.880000</speed>
</trkpt>
<trkpt lat="44.636452" lon="33.792244">
<ele>153.068481</ele>
<time>2011-10-10T09:24:57Z</time>
<desc>lat.=44.636452, lon.=33.792244, Alt.=153.068481m. Speed=7.920000m/h.</desc>
<speed>2.200000</speed>
</trkpt>
<trkpt lat="44.636375" lon="33.792328">
<ele>154.045044</ele>
<time>2011-10-10T09:25:02Z</time>
<desc>lat.=44.636375, lon.=33.792328, Alt.=154.045044m. Speed=7.344000m/h.</desc>
<speed>2.040000</speed>
</trkpt>
<trkpt lat="44.636295" lon="33.792404">
<ele>154.509888</ele>
<time>2011-10-10T09:25:07Z</time>
<desc>lat.=44.636295, lon.=33.792404, Alt.=154.509888m. Speed=8.928000m/h.</desc>
<speed>2.480000</speed>
</trkpt>
<trkpt lat="44.636204" lon="33.792480">
<ele>155.142700</ele>
<time>2011-10-10T09:25:12Z</time>
<desc>lat.=44.636204, lon.=33.792480, Alt.=155.142700m. Speed=8.064000m/h.</desc>
<speed>2.240000</speed>
</trkpt>
<trkpt lat="44.636105" lon="33.792557">
<ele>155.666138</ele>
<time>2011-10-10T09:25:17Z</time>
<desc>lat.=44.636105, lon.=33.792557, Alt.=155.666138m. Speed=9.540000m/h.</desc>
<speed>2.650000</speed>
</trkpt>
<trkpt lat="44.636009" lon="33.792645">
<ele>156.377075</ele>
<time>2011-10-10T09:25:22Z</time>
<desc>lat.=44.636009, lon.=33.792645, Alt.=156.377075m. Speed=8.460000m/h.</desc>
<speed>2.350000</speed>
</trkpt>
<trkpt lat="44.635921" lon="33.792717">
<ele>156.701294</ele>
<time>2011-10-10T09:25:27Z</time>
<desc>lat.=44.635921, lon.=33.792717, Alt.=156.701294m. Speed=5.976000m/h.</desc>
<speed>1.660000</speed>
</trkpt>
<trkpt lat="44.635799" lon="33.792801">
<ele>156.896606</ele>
<time>2011-10-10T09:25:32Z</time>
<desc>lat.=44.635799, lon.=33.792801, Alt.=156.896606m. Speed=15.444000m/h.</desc>
<speed>4.290000</speed>
</trkpt>
<trkpt lat="44.635632" lon="33.792915">
<ele>157.170044</ele>
<time>2011-10-10T09:25:37Z</time>
<desc>lat.=44.635632, lon.=33.792915, Alt.=157.170044m. Speed=13.356000m/h.</desc>
<speed>3.710000</speed>
</trkpt>
<trkpt lat="44.635498" lon="33.792984">
<ele>157.408325</ele>
<time>2011-10-10T09:25:42Z</time>
<desc>lat.=44.635498, lon.=33.792984, Alt.=157.408325m. Speed=9.900000m/h.</desc>
<speed>2.750000</speed>
</trkpt>
<trkpt lat="44.635372" lon="33.793015">
<ele>157.392700</ele>
<time>2011-10-10T09:25:47Z</time>
<desc>lat.=44.635372, lon.=33.793015, Alt.=157.392700m. Speed=9.540000m/h.</desc>
<speed>2.650000</speed>
</trkpt>
<trkpt lat="44.635273" lon="33.793056">
<ele>157.119263</ele>
<time>2011-10-10T09:25:52Z</time>
<desc>lat.=44.635273, lon.=33.793056, Alt.=157.119263m. Speed=8.388000m/h.</desc>
<speed>2.330000</speed>
</trkpt>
<trkpt lat="44.635178" lon="33.793102">
<ele>157.541138</ele>
<time>2011-10-10T09:25:57Z</time>
<desc>lat.=44.635178, lon.=33.793102, Alt.=157.541138m. Speed=8.388000m/h.</desc>
<speed>2.330000</speed>
</trkpt>
<trkpt lat="44.635086" lon="33.793175">
<ele>158.076294</ele>
<time>2011-10-10T09:26:02Z</time>
<desc>lat.=44.635086, lon.=33.793175, Alt.=158.076294m. Speed=8.064000m/h.</desc>
<speed>2.240000</speed>
</trkpt>
<trkpt lat="44.634995" lon="33.793251">
<ele>158.380981</ele>
<time>2011-10-10T09:26:07Z</time>
<desc>lat.=44.634995, lon.=33.793251, Alt.=158.380981m. Speed=10.008000m/h.</desc>
<speed>2.780000</speed>
</trkpt>
<trkpt lat="44.634888" lon="33.793350">
<ele>158.670044</ele>
<time>2011-10-10T09:26:12Z</time>
<desc>lat.=44.634888, lon.=33.793350, Alt.=158.670044m. Speed=10.404000m/h.</desc>
<speed>2.890000</speed>
</trkpt>
<trkpt lat="44.634777" lon="33.793457">
<ele>158.920044</ele>
<time>2011-10-10T09:26:17Z</time>
<desc>lat.=44.634777, lon.=33.793457, Alt.=158.920044m. Speed=12.600000m/h.</desc>
<speed>3.500000</speed>
</trkpt>
<trkpt lat="44.634636" lon="33.793591">
<ele>159.291138</ele>
<time>2011-10-10T09:26:22Z</time>
<desc>lat.=44.634636, lon.=33.793591, Alt.=159.291138m. Speed=13.932000m/h.</desc>
<speed>3.870000</speed>
</trkpt>
<trkpt lat="44.634487" lon="33.793751">
<ele>159.482544</ele>
<time>2011-10-10T09:26:27Z</time>
<desc>lat.=44.634487, lon.=33.793751, Alt.=159.482544m. Speed=14.112000m/h.</desc>
<speed>3.920000</speed>
</trkpt>
<trkpt lat="44.634357" lon="33.793915">
<ele>159.966919</ele>
<time>2011-10-10T09:26:32Z</time>
<desc>lat.=44.634357, lon.=33.793915, Alt.=159.966919m. Speed=14.004000m/h.</desc>
<speed>3.890000</speed>
</trkpt>
<trkpt lat="44.634228" lon="33.794086">
<ele>160.502075</ele>
<time>2011-10-10T09:26:37Z</time>
<desc>lat.=44.634228, lon.=33.794086, Alt.=160.502075m. Speed=13.716000m/h.</desc>
<speed>3.810000</speed>
</trkpt>
<trkpt lat="44.634109" lon="33.794239">
<ele>160.802856</ele>
<time>2011-10-10T09:26:42Z</time>
<desc>lat.=44.634109, lon.=33.794239, Alt.=160.802856m. Speed=13.392000m/h.</desc>
<speed>3.720000</speed>
</trkpt>
<trkpt lat="44.633991" lon="33.794403">
<ele>161.490356</ele>
<time>2011-10-10T09:26:47Z</time>
<desc>lat.=44.633991, lon.=33.794403, Alt.=161.490356m. Speed=12.204000m/h.</desc>
<speed>3.390000</speed>
</trkpt>
<trkpt lat="44.633900" lon="33.794559">
<ele>161.990356</ele>
<time>2011-10-10T09:26:52Z</time>
<desc>lat.=44.633900, lon.=33.794559, Alt.=161.990356m. Speed=11.772000m/h.</desc>
<speed>3.270000</speed>
</trkpt>
<trkpt lat="44.633808" lon="33.794701">
<ele>162.388794</ele>
<time>2011-10-10T09:26:57Z</time>
<desc>lat.=44.633808, lon.=33.794701, Alt.=162.388794m. Speed=8.208000m/h.</desc>
<speed>2.280000</speed>
</trkpt>
<trkpt lat="44.633739" lon="33.794838">
<ele>162.045044</ele>
<time>2011-10-10T09:27:02Z</time>
<desc>lat.=44.633739, lon.=33.794838, Alt.=162.045044m. Speed=10.368000m/h.</desc>
<speed>2.880000</speed>
</trkpt>
<trkpt lat="44.633644" lon="33.794949">
<ele>162.548950</ele>
<time>2011-10-10T09:27:07Z</time>
<desc>lat.=44.633644, lon.=33.794949, Alt.=162.548950m. Speed=9.000000m/h.</desc>
<speed>2.500000</speed>
</trkpt>
<trkpt lat="44.633545" lon="33.795052">
<ele>163.084106</ele>
<time>2011-10-10T09:27:12Z</time>
<desc>lat.=44.633545, lon.=33.795052, Alt.=163.084106m. Speed=9.360000m/h.</desc>
<speed>2.600000</speed>
</trkpt>
<trkpt lat="44.633453" lon="33.795151">
<ele>163.310669</ele>
<time>2011-10-10T09:27:17Z</time>
<desc>lat.=44.633453, lon.=33.795151, Alt.=163.310669m. Speed=9.648000m/h.</desc>
<speed>2.680000</speed>
</trkpt>
<trkpt lat="44.633350" lon="33.795238">
<ele>163.748169</ele>
<time>2011-10-10T09:27:22Z</time>
<desc>lat.=44.633350, lon.=33.795238, Alt.=163.748169m. Speed=7.848000m/h.</desc>
<speed>2.180000</speed>
</trkpt>
<trkpt lat="44.633274" lon="33.795303">
<ele>163.970825</ele>
<time>2011-10-10T09:27:27Z</time>
<desc>lat.=44.633274, lon.=33.795303, Alt.=163.970825m. Speed=8.028000m/h.</desc>
<speed>2.230000</speed>
</trkpt>
<trkpt lat="44.633198" lon="33.795376">
<ele>164.849731</ele>
<time>2011-10-10T09:27:32Z</time>
<desc>lat.=44.633198, lon.=33.795376, Alt.=164.849731m. Speed=8.172000m/h.</desc>
<speed>2.270000</speed>
</trkpt>
<trkpt lat="44.633118" lon="33.795444">
<ele>165.552856</ele>
<time>2011-10-10T09:27:37Z</time>
<desc>lat.=44.633118, lon.=33.795444, Alt.=165.552856m. Speed=7.596000m/h.</desc>
<speed>2.110000</speed>
</trkpt>
<trkpt lat="44.633045" lon="33.795517">
<ele>166.271606</ele>
<time>2011-10-10T09:27:42Z</time>
<desc>lat.=44.633045, lon.=33.795517, Alt.=166.271606m. Speed=7.200000m/h.</desc>
<speed>2.000000</speed>
</trkpt>
<trkpt lat="44.632954" lon="33.795612">
<ele>166.334106</ele>
<time>2011-10-10T09:27:47Z</time>
<desc>lat.=44.632954, lon.=33.795612, Alt.=166.334106m. Speed=10.296000m/h.</desc>
<speed>2.860000</speed>
</trkpt>
<trkpt lat="44.632847" lon="33.795708">
<ele>166.560669</ele>
<time>2011-10-10T09:27:52Z</time>
<desc>lat.=44.632847, lon.=33.795708, Alt.=166.560669m. Speed=8.100000m/h.</desc>
<speed>2.250000</speed>
</trkpt>
<trkpt lat="44.632759" lon="33.795788">
<ele>167.013794</ele>
<time>2011-10-10T09:27:57Z</time>
<desc>lat.=44.632759, lon.=33.795788, Alt.=167.013794m. Speed=9.396000m/h.</desc>
<speed>2.610000</speed>
</trkpt>
<trkpt lat="44.632671" lon="33.795868">
<ele>167.896606</ele>
<time>2011-10-10T09:28:02Z</time>
<desc>lat.=44.632671, lon.=33.795868, Alt.=167.896606m. Speed=9.000000m/h.</desc>
<speed>2.500000</speed>
</trkpt>
<trkpt lat="44.632580" lon="33.795959">
<ele>168.607544</ele>
<time>2011-10-10T09:28:07Z</time>
<desc>lat.=44.632580, lon.=33.795959, Alt.=168.607544m. Speed=9.756000m/h.</desc>
<speed>2.710000</speed>
</trkpt>
<trkpt lat="44.632481" lon="33.796059">
<ele>169.498169</ele>
<time>2011-10-10T09:28:12Z</time>
<desc>lat.=44.632481, lon.=33.796059, Alt.=169.498169m. Speed=8.532000m/h.</desc>
<speed>2.370000</speed>
</trkpt>
<trkpt lat="44.632381" lon="33.796143">
<ele>170.017700</ele>
<time>2011-10-10T09:28:17Z</time>
<desc>lat.=44.632381, lon.=33.796143, Alt.=170.017700m. Speed=9.288000m/h.</desc>
<speed>2.580000</speed>
</trkpt>
<trkpt lat="44.632271" lon="33.796223">
<ele>170.834106</ele>
<time>2011-10-10T09:28:22Z</time>
<desc>lat.=44.632271, lon.=33.796223, Alt.=170.834106m. Speed=10.260000m/h.</desc>
<speed>2.850000</speed>
</trkpt>
<trkpt lat="44.632175" lon="33.796284">
<ele>171.224731</ele>
<time>2011-10-10T09:28:27Z</time>
<desc>lat.=44.632175, lon.=33.796284, Alt.=171.224731m. Speed=6.192000m/h.</desc>
<speed>1.720000</speed>
</trkpt>
<trkpt lat="44.632130" lon="33.796303">
<ele>171.357544</ele>
<time>2011-10-10T09:28:32Z</time>
<desc>lat.=44.632130, lon.=33.796303, Alt.=171.357544m. Speed=0.072000m/h.</desc>
<speed>0.020000</speed>
</trkpt>
<trkpt lat="44.632130" lon="33.796295">
<ele>170.517700</ele>
<time>2011-10-10T09:28:37Z</time>
<desc>lat.=44.632130, lon.=33.796295, Alt.=170.517700m. Speed=0.972000m/h.</desc>
<speed>0.270000</speed>
</trkpt>
<trkpt lat="44.632130" lon="33.796280">
<ele>169.923950</ele>
<time>2011-10-10T09:28:42Z</time>
<desc>lat.=44.632130, lon.=33.796280, Alt.=169.923950m. Speed=0.468000m/h.</desc>
<speed>0.130000</speed>
</trkpt>
<trkpt lat="44.632118" lon="33.796280">
<ele>169.662231</ele>
<time>2011-10-10T09:28:47Z</time>
<desc>lat.=44.632118, lon.=33.796280, Alt.=169.662231m. Speed=2.340000m/h.</desc>
<speed>0.650000</speed>
</trkpt>
<trkpt lat="44.632095" lon="33.796288">
<ele>169.572388</ele>
<time>2011-10-10T09:28:52Z</time>
<desc>lat.=44.632095, lon.=33.796288, Alt.=169.572388m. Speed=3.456000m/h.</desc>
<speed>0.960000</speed>
</trkpt>
<trkpt lat="44.631989" lon="33.796349">
<ele>170.240356</ele>
<time>2011-10-10T09:28:57Z</time>
<desc>lat.=44.631989, lon.=33.796349, Alt.=170.240356m. Speed=11.484000m/h.</desc>
<speed>3.190000</speed>
</trkpt>
<trkpt lat="44.631855" lon="33.796436">
<ele>171.646606</ele>
<time>2011-10-10T09:29:02Z</time>
<desc>lat.=44.631855, lon.=33.796436, Alt.=171.646606m. Speed=10.944000m/h.</desc>
<speed>3.040000</speed>
</trkpt>
<trkpt lat="44.631737" lon="33.796528">
<ele>172.173950</ele>
<time>2011-10-10T09:29:07Z</time>
<desc>lat.=44.631737, lon.=33.796528, Alt.=172.173950m. Speed=10.044000m/h.</desc>
<speed>2.790000</speed>
</trkpt>
<trkpt lat="44.631634" lon="33.796600">
<ele>173.037231</ele>
<time>2011-10-10T09:29:12Z</time>
<desc>lat.=44.631634, lon.=33.796600, Alt.=173.037231m. Speed=8.964000m/h.</desc>
<speed>2.490000</speed>
</trkpt>
<trkpt lat="44.631531" lon="33.796654">
<ele>173.654419</ele>
<time>2011-10-10T09:29:17Z</time>
<desc>lat.=44.631531, lon.=33.796654, Alt.=173.654419m. Speed=8.244000m/h.</desc>
<speed>2.290000</speed>
</trkpt>
<trkpt lat="44.631424" lon="33.796703">
<ele>174.205200</ele>
<time>2011-10-10T09:29:22Z</time>
<desc>lat.=44.631424, lon.=33.796703, Alt.=174.205200m. Speed=9.252000m/h.</desc>
<speed>2.570000</speed>
</trkpt>
<trkpt lat="44.631313" lon="33.796749">
<ele>175.787231</ele>
<time>2011-10-10T09:29:27Z</time>
<desc>lat.=44.631313, lon.=33.796749, Alt.=175.787231m. Speed=9.252000m/h.</desc>
<speed>2.570000</speed>
</trkpt>
<trkpt lat="44.631241" lon="33.796776">
<ele>176.517700</ele>
<time>2011-10-10T09:29:32Z</time>
<desc>lat.=44.631241, lon.=33.796776, Alt.=176.517700m. Speed=6.012000m/h.</desc>
<speed>1.670000</speed>
</trkpt>
<trkpt lat="44.631180" lon="33.796799">
<ele>177.099731</ele>
<time>2011-10-10T09:29:37Z</time>
<desc>lat.=44.631180, lon.=33.796799, Alt.=177.099731m. Speed=4.068000m/h.</desc>
<speed>1.130000</speed>
</trkpt>
<trkpt lat="44.631107" lon="33.796822">
<ele>177.509888</ele>
<time>2011-10-10T09:29:42Z</time>
<desc>lat.=44.631107, lon.=33.796822, Alt.=177.509888m. Speed=10.908000m/h.</desc>
<speed>3.030000</speed>
</trkpt>
<trkpt lat="44.630966" lon="33.796875">
<ele>178.279419</ele>
<time>2011-10-10T09:29:47Z</time>
<desc>lat.=44.630966, lon.=33.796875, Alt.=178.279419m. Speed=10.836000m/h.</desc>
<speed>3.010000</speed>
</trkpt>
<trkpt lat="44.630852" lon="33.796921">
<ele>178.748169</ele>
<time>2011-10-10T09:29:52Z</time>
<desc>lat.=44.630852, lon.=33.796921, Alt.=178.748169m. Speed=5.544000m/h.</desc>
<speed>1.540000</speed>
</trkpt>
<trkpt lat="44.630760" lon="33.796963">
<ele>179.498169</ele>
<time>2011-10-10T09:29:57Z</time>
<desc>lat.=44.630760, lon.=33.796963, Alt.=179.498169m. Speed=9.072000m/h.</desc>
<speed>2.520000</speed>
</trkpt>
<trkpt lat="44.630665" lon="33.796997">
<ele>180.048950</ele>
<time>2011-10-10T09:30:02Z</time>
<desc>lat.=44.630665, lon.=33.796997, Alt.=180.048950m. Speed=9.216000m/h.</desc>
<speed>2.560000</speed>
</trkpt>
<trkpt lat="44.630524" lon="33.797043">
<ele>180.435669</ele>
<time>2011-10-10T09:30:07Z</time>
<desc>lat.=44.630524, lon.=33.797043, Alt.=180.435669m. Speed=11.772000m/h.</desc>
<speed>3.270000</speed>
</trkpt>
<trkpt lat="44.630375" lon="33.797092">
<ele>181.287231</ele>
<time>2011-10-10T09:30:12Z</time>
<desc>lat.=44.630375, lon.=33.797092, Alt.=181.287231m. Speed=12.312000m/h.</desc>
<speed>3.420000</speed>
</trkpt>
<trkpt lat="44.630222" lon="33.797138">
<ele>182.388794</ele>
<time>2011-10-10T09:30:17Z</time>
<desc>lat.=44.630222, lon.=33.797138, Alt.=182.388794m. Speed=11.628000m/h.</desc>
<speed>3.230000</speed>
</trkpt>
<trkpt lat="44.630074" lon="33.797165">
<ele>183.673950</ele>
<time>2011-10-10T09:30:22Z</time>
<desc>lat.=44.630074, lon.=33.797165, Alt.=183.673950m. Speed=12.420000m/h.</desc>
<speed>3.450000</speed>
</trkpt>
<trkpt lat="44.629944" lon="33.797173">
<ele>184.099731</ele>
<time>2011-10-10T09:30:27Z</time>
<desc>lat.=44.629944, lon.=33.797173, Alt.=184.099731m. Speed=6.264000m/h.</desc>
<speed>1.740000</speed>
</trkpt>
<trkpt lat="44.629921" lon="33.797173">
<ele>184.146606</ele>
<time>2011-10-10T09:30:32Z</time>
<desc>lat.=44.629921, lon.=33.797173, Alt.=184.146606m. Speed=0.396000m/h.</desc>
<speed>0.110000</speed>
</trkpt>
<trkpt lat="44.629917" lon="33.797173">
<ele>184.095825</ele>
<time>2011-10-10T09:30:37Z</time>
<desc>lat.=44.629917, lon.=33.797173, Alt.=184.095825m. Speed=0.612000m/h.</desc>
<speed>0.170000</speed>
</trkpt>
<trkpt lat="44.629917" lon="33.797169">
<ele>183.783325</ele>
<time>2011-10-10T09:30:42Z</time>
<desc>lat.=44.629917, lon.=33.797169, Alt.=183.783325m. Speed=0.000000m/h.</desc>
<speed>0.000000</speed>
</trkpt>
<trkpt lat="44.629917" lon="33.797169">
<ele>183.748169</ele>
<time>2011-10-10T09:30:47Z</time>
<desc>lat.=44.629917, lon.=33.797169, Alt.=183.748169m. Speed=0.036000m/h.</desc>
<speed>0.010000</speed>
</trkpt>
<trkpt lat="44.629917" lon="33.797169">
<ele>183.736450</ele>
<time>2011-10-10T09:30:52Z</time>
<desc>lat.=44.629917, lon.=33.797169, Alt.=183.736450m. Speed=0.036000m/h.</desc>
<speed>0.010000</speed>
</trkpt>
<trkpt lat="44.629917" lon="33.797169">
<ele>183.728638</ele>
<time>2011-10-10T09:30:57Z</time>
<desc>lat.=44.629917, lon.=33.797169, Alt.=183.728638m. Speed=0.036000m/h.</desc>
<speed>0.010000</speed>
</trkpt>
<trkpt lat="44.629917" lon="33.797169">
<ele>183.697388</ele>
<time>2011-10-10T09:31:02Z</time>
<desc>lat.=44.629917, lon.=33.797169, Alt.=183.697388m. Speed=0.036000m/h.</desc>
<speed>0.010000</speed>
</trkpt>
<trkpt lat="44.629917" lon="33.797169">
<ele>183.685669</ele>
<time>2011-10-10T09:31:07Z</time>
<desc>lat.=44.629917, lon.=33.797169, Alt.=183.685669m. Speed=0.000000m/h.</desc>
<speed>0.000000</speed>
</trkpt>
<trkpt lat="44.629917" lon="33.797169">
<ele>183.685669</ele>
<time>2011-10-10T09:31:12Z</time>
<desc>lat.=44.629917, lon.=33.797169, Alt.=183.685669m. Speed=0.000000m/h.</desc>
<speed>0.000000</speed>
</trkpt>
<trkpt lat="44.629902" lon="33.797173">
<ele>183.810669</ele>
<time>2011-10-10T09:31:17Z</time>
<desc>lat.=44.629902, lon.=33.797173, Alt.=183.810669m. Speed=2.052000m/h.</desc>
<speed>0.570000</speed>
</trkpt>
<trkpt lat="44.629894" lon="33.797176">
<ele>183.822388</ele>
<time>2011-10-10T09:31:22Z</time>
<desc>lat.=44.629894, lon.=33.797176, Alt.=183.822388m. Speed=0.216000m/h.</desc>
<speed>0.060000</speed>
</trkpt>
<trkpt lat="44.629887" lon="33.797176">
<ele>184.056763</ele>
<time>2011-10-10T09:31:27Z</time>
<desc>lat.=44.629887, lon.=33.797176, Alt.=184.056763m. Speed=0.648000m/h.</desc>
<speed>0.180000</speed>
</trkpt>
<trkpt lat="44.629822" lon="33.797211">
<ele>184.404419</ele>
<time>2011-10-10T09:31:32Z</time>
<desc>lat.=44.629822, lon.=33.797211, Alt.=184.404419m. Speed=9.972000m/h.</desc>
<speed>2.770000</speed>
</trkpt>
<trkpt lat="44.629684" lon="33.797283">
<ele>184.521606</ele>
<time>2011-10-10T09:31:37Z</time>
<desc>lat.=44.629684, lon.=33.797283, Alt.=184.521606m. Speed=11.340000m/h.</desc>
<speed>3.150000</speed>
</trkpt>
<trkpt lat="44.629528" lon="33.797352">
<ele>185.220825</ele>
<time>2011-10-10T09:31:42Z</time>
<desc>lat.=44.629528, lon.=33.797352, Alt.=185.220825m. Speed=12.492000m/h.</desc>
<speed>3.470000</speed>
</trkpt>
<trkpt lat="44.629402" lon="33.797409">
<ele>186.142700</ele>
<time>2011-10-10T09:31:47Z</time>
<desc>lat.=44.629402, lon.=33.797409, Alt.=186.142700m. Speed=9.684000m/h.</desc>
<speed>2.690000</speed>
</trkpt>
<trkpt lat="44.629292" lon="33.797451">
<ele>186.814575</ele>
<time>2011-10-10T09:31:52Z</time>
<desc>lat.=44.629292, lon.=33.797451, Alt.=186.814575m. Speed=10.152000m/h.</desc>
<speed>2.820000</speed>
</trkpt>
<trkpt lat="44.629192" lon="33.797508">
<ele>187.720825</ele>
<time>2011-10-10T09:31:57Z</time>
<desc>lat.=44.629192, lon.=33.797508, Alt.=187.720825m. Speed=8.208000m/h.</desc>
<speed>2.280000</speed>
</trkpt>
<trkpt lat="44.629066" lon="33.797592">
<ele>188.146606</ele>
<time>2011-10-10T09:32:02Z</time>
<desc>lat.=44.629066, lon.=33.797592, Alt.=188.146606m. Speed=9.468000m/h.</desc>
<speed>2.630000</speed>
</trkpt>
<trkpt lat="44.628956" lon="33.797657">
<ele>189.728638</ele>
<time>2011-10-10T09:32:07Z</time>
<desc>lat.=44.628956, lon.=33.797657, Alt.=189.728638m. Speed=9.360000m/h.</desc>
<speed>2.600000</speed>
</trkpt>
<trkpt lat="44.628834" lon="33.797718">
<ele>190.670044</ele>
<time>2011-10-10T09:32:12Z</time>
<desc>lat.=44.628834, lon.=33.797718, Alt.=190.670044m. Speed=8.892000m/h.</desc>
<speed>2.470000</speed>
</trkpt>
<trkpt lat="44.628727" lon="33.797771">
<ele>192.650513</ele>
<time>2011-10-10T09:32:17Z</time>
<desc>lat.=44.628727, lon.=33.797771, Alt.=192.650513m. Speed=7.956000m/h.</desc>
<speed>2.210000</speed>
</trkpt>
<trkpt lat="44.628635" lon="33.797802">
<ele>193.220825</ele>
<time>2011-10-10T09:32:22Z</time>
<desc>lat.=44.628635, lon.=33.797802, Alt.=193.220825m. Speed=5.616000m/h.</desc>
<speed>1.560000</speed>
</trkpt>
<trkpt lat="44.628574" lon="33.797832">
<ele>193.595825</ele>
<time>2011-10-10T09:32:27Z</time>
<desc>lat.=44.628574, lon.=33.797832, Alt.=193.595825m. Speed=4.896000m/h.</desc>
<speed>1.360000</speed>
</trkpt>
<trkpt lat="44.628529" lon="33.797863">
<ele>193.498169</ele>
<time>2011-10-10T09:32:32Z</time>
<desc>lat.=44.628529, lon.=33.797863, Alt.=193.498169m. Speed=0.576000m/h.</desc>
<speed>0.160000</speed>
</trkpt>
<trkpt lat="44.628513" lon="33.797867">
<ele>193.994263</ele>
<time>2011-10-10T09:32:37Z</time>
<desc>lat.=44.628513, lon.=33.797867, Alt.=193.994263m. Speed=3.708000m/h.</desc>
<speed>1.030000</speed>
</trkpt>
<trkpt lat="44.628445" lon="33.797897">
<ele>194.509888</ele>
<time>2011-10-10T09:32:42Z</time>
<desc>lat.=44.628445, lon.=33.797897, Alt.=194.509888m. Speed=8.856000m/h.</desc>
<speed>2.460000</speed>
</trkpt>
<trkpt lat="44.628342" lon="33.797958">
<ele>195.552856</ele>
<time>2011-10-10T09:32:47Z</time>
<desc>lat.=44.628342, lon.=33.797958, Alt.=195.552856m. Speed=7.632000m/h.</desc>
<speed>2.120000</speed>
</trkpt>
<trkpt lat="44.628304" lon="33.797997">
<ele>195.127075</ele>
<time>2011-10-10T09:32:52Z</time>
<desc>lat.=44.628304, lon.=33.797997, Alt.=195.127075m. Speed=2.268000m/h.</desc>
<speed>0.630000</speed>
</trkpt>
<trkpt lat="44.628220" lon="33.798027">
<ele>195.584106</ele>
<time>2011-10-10T09:32:57Z</time>
<desc>lat.=44.628220, lon.=33.798027, Alt.=195.584106m. Speed=5.508000m/h.</desc>
<speed>1.530000</speed>
</trkpt>
<trkpt lat="44.628120" lon="33.798077">
<ele>196.599731</ele>
<time>2011-10-10T09:33:02Z</time>
<desc>lat.=44.628120, lon.=33.798077, Alt.=196.599731m. Speed=1.728000m/h.</desc>
<speed>0.480000</speed>
</trkpt>
<trkpt lat="44.628025" lon="33.798119">
<ele>196.853638</ele>
<time>2011-10-10T09:33:07Z</time>
<desc>lat.=44.628025, lon.=33.798119, Alt.=196.853638m. Speed=5.256000m/h.</desc>
<speed>1.460000</speed>
</trkpt>
<trkpt lat="44.627945" lon="33.798149">
<ele>196.525513</ele>
<time>2011-10-10T09:33:12Z</time>
<desc>lat.=44.627945, lon.=33.798149, Alt.=196.525513m. Speed=5.976000m/h.</desc>
<speed>1.660000</speed>
</trkpt>
<trkpt lat="44.627876" lon="33.798180">
<ele>196.806763</ele>
<time>2011-10-10T09:33:17Z</time>
<desc>lat.=44.627876, lon.=33.798180, Alt.=196.806763m. Speed=5.868000m/h.</desc>
<speed>1.630000</speed>
</trkpt>
<trkpt lat="44.627804" lon="33.798214">
<ele>198.705200</ele>
<time>2011-10-10T09:33:22Z</time>
<desc>lat.=44.627804, lon.=33.798214, Alt.=198.705200m. Speed=6.768000m/h.</desc>
<speed>1.880000</speed>
</trkpt>
<trkpt lat="44.627720" lon="33.798237">
<ele>199.865356</ele>
<time>2011-10-10T09:33:27Z</time>
<desc>lat.=44.627720, lon.=33.798237, Alt.=199.865356m. Speed=5.364000m/h.</desc>
<speed>1.490000</speed>
</trkpt>
<trkpt lat="44.627659" lon="33.798256">
<ele>200.220825</ele>
<time>2011-10-10T09:33:32Z</time>
<desc>lat.=44.627659, lon.=33.798256, Alt.=200.220825m. Speed=5.004000m/h.</desc>
<speed>1.390000</speed>
</trkpt>
<trkpt lat="44.627583" lon="33.798264">
<ele>201.353638</ele>
<time>2011-10-10T09:33:37Z</time>
<desc>lat.=44.627583, lon.=33.798264, Alt.=201.353638m. Speed=6.516000m/h.</desc>
<speed>1.810000</speed>
</trkpt>
<trkpt lat="44.627464" lon="33.798275">
<ele>202.537231</ele>
<time>2011-10-10T09:33:42Z</time>
<desc>lat.=44.627464, lon.=33.798275, Alt.=202.537231m. Speed=8.820000m/h.</desc>
<speed>2.450000</speed>
</trkpt>
<trkpt lat="44.627361" lon="33.798309">
<ele>203.912231</ele>
<time>2011-10-10T09:33:47Z</time>
<desc>lat.=44.627361, lon.=33.798309, Alt.=203.912231m. Speed=5.652000m/h.</desc>
<speed>1.570000</speed>
</trkpt>
<trkpt lat="44.627281" lon="33.798340">
<ele>205.189575</ele>
<time>2011-10-10T09:33:52Z</time>
<desc>lat.=44.627281, lon.=33.798340, Alt.=205.189575m. Speed=5.580000m/h.</desc>
<speed>1.550000</speed>
</trkpt>
<trkpt lat="44.627235" lon="33.798374">
<ele>207.705200</ele>
<time>2011-10-10T09:33:57Z</time>
<desc>lat.=44.627235, lon.=33.798374, Alt.=207.705200m. Speed=4.680000m/h.</desc>
<speed>1.300000</speed>
</trkpt>
<trkpt lat="44.627209" lon="33.798382">
<ele>209.236450</ele>
<time>2011-10-10T09:34:02Z</time>
<desc>lat.=44.627209, lon.=33.798382, Alt.=209.236450m. Speed=1.008000m/h.</desc>
<speed>0.280000</speed>
</trkpt>
<trkpt lat="44.627213" lon="33.798382">
<ele>210.670044</ele>
<time>2011-10-10T09:34:07Z</time>
<desc>lat.=44.627213, lon.=33.798382, Alt.=210.670044m. Speed=0.144000m/h.</desc>
<speed>0.040000</speed>
</trkpt>
<trkpt lat="44.627216" lon="33.798382">
<ele>211.033325</ele>
<time>2011-10-10T09:34:12Z</time>
<desc>lat.=44.627216, lon.=33.798382, Alt.=211.033325m. Speed=1.296000m/h.</desc>
<speed>0.360000</speed>
</trkpt>
<trkpt lat="44.627213" lon="33.798378">
<ele>212.435669</ele>
<time>2011-10-10T09:34:17Z</time>
<desc>lat.=44.627213, lon.=33.798378, Alt.=212.435669m. Speed=0.072000m/h.</desc>
<speed>0.020000</speed>
</trkpt>
<trkpt lat="44.627213" lon="33.798382">
<ele>213.099731</ele>
<time>2011-10-10T09:34:22Z</time>
<desc>lat.=44.627213, lon.=33.798382, Alt.=213.099731m. Speed=0.000000m/h.</desc>
<speed>0.000000</speed>
</trkpt>
<trkpt lat="44.627213" lon="33.798382">
<ele>213.033325</ele>
<time>2011-10-10T09:34:27Z</time>
<desc>lat.=44.627213, lon.=33.798382, Alt.=213.033325m. Speed=0.216000m/h.</desc>
<speed>0.060000</speed>
</trkpt>
<trkpt lat="44.627213" lon="33.798382">
<ele>213.002075</ele>
<time>2011-10-10T09:34:32Z</time>
<desc>lat.=44.627213, lon.=33.798382, Alt.=213.002075m. Speed=0.036000m/h.</desc>
<speed>0.010000</speed>
</trkpt>
<trkpt lat="44.627213" lon="33.798382">
<ele>213.009888</ele>
<time>2011-10-10T09:34:37Z</time>
<desc>lat.=44.627213, lon.=33.798382, Alt.=213.009888m. Speed=0.000000m/h.</desc>
<speed>0.000000</speed>
</trkpt>
<trkpt lat="44.627213" lon="33.798382">
<ele>213.037231</ele>
<time>2011-10-10T09:34:42Z</time>
<desc>lat.=44.627213, lon.=33.798382, Alt.=213.037231m. Speed=2.484000m/h.</desc>
<speed>0.690000</speed>
</trkpt>
<trkpt lat="44.627213" lon="33.798370">
<ele>213.388794</ele>
<time>2011-10-10T09:34:47Z</time>
<desc>lat.=44.627213, lon.=33.798370, Alt.=213.388794m. Speed=0.504000m/h.</desc>
<speed>0.140000</speed>
</trkpt>
<trkpt lat="44.627220" lon="33.798374">
<ele>213.045044</ele>
<time>2011-10-10T09:34:52Z</time>
<desc>lat.=44.627220, lon.=33.798374, Alt.=213.045044m. Speed=0.180000m/h.</desc>
<speed>0.050000</speed>
</trkpt>
<trkpt lat="44.627220" lon="33.798374">
<ele>212.869263</ele>
<time>2011-10-10T09:34:57Z</time>
<desc>lat.=44.627220, lon.=33.798374, Alt.=212.869263m. Speed=0.000000m/h.</desc>
<speed>0.000000</speed>
</trkpt>
<trkpt lat="44.627220" lon="33.798374">
<ele>212.857544</ele>
<time>2011-10-10T09:35:02Z</time>
<desc>lat.=44.627220, lon.=33.798374, Alt.=212.857544m. Speed=0.000000m/h.</desc>
<speed>0.000000</speed>
</trkpt>
<trkpt lat="44.627220" lon="33.798374">
<ele>212.861450</ele>
<time>2011-10-10T09:35:07Z</time>
<desc>lat.=44.627220, lon.=33.798374, Alt.=212.861450m. Speed=0.000000m/h.</desc>
<speed>0.000000</speed>
</trkpt>
<trkpt lat="44.627220" lon="33.798374">
<ele>212.857544</ele>
<time>2011-10-10T09:35:12Z</time>
<desc>lat.=44.627220, lon.=33.798374, Alt.=212.857544m. Speed=0.000000m/h.</desc>
<speed>0.000000</speed>
</trkpt>
<trkpt lat="44.627220" lon="33.798374">
<ele>212.857544</ele>
<time>2011-10-10T09:35:17Z</time>
<desc>lat.=44.627220, lon.=33.798374, Alt.=212.857544m. Speed=0.036000m/h.</desc>
<speed>0.010000</speed>
</trkpt>
<trkpt lat="44.627220" lon="33.798374">
<ele>212.853638</ele>
<time>2011-10-10T09:35:22Z</time>
<desc>lat.=44.627220, lon.=33.798374, Alt.=212.853638m. Speed=0.108000m/h.</desc>
<speed>0.030000</speed>
</trkpt>
<trkpt lat="44.627220" lon="33.798374">
<ele>212.853638</ele>
<time>2011-10-10T09:35:27Z</time>
<desc>lat.=44.627220, lon.=33.798374, Alt.=212.853638m. Speed=0.072000m/h.</desc>
<speed>0.020000</speed>
</trkpt>
<trkpt lat="44.627220" lon="33.798374">
<ele>212.849731</ele>
<time>2011-10-10T09:35:32Z</time>
<desc>lat.=44.627220, lon.=33.798374, Alt.=212.849731m. Speed=0.000000m/h.</desc>
<speed>0.000000</speed>
</trkpt>
<trkpt lat="44.627220" lon="33.798374">
<ele>212.849731</ele>
<time>2011-10-10T09:35:37Z</time>
<desc>lat.=44.627220, lon.=33.798374, Alt.=212.849731m. Speed=0.108000m/h.</desc>
<speed>0.030000</speed>
</trkpt>
<trkpt lat="44.627220" lon="33.798374">
<ele>212.845825</ele>
<time>2011-10-10T09:35:42Z</time>
<desc>lat.=44.627220, lon.=33.798374, Alt.=212.845825m. Speed=0.000000m/h.</desc>
<speed>0.000000</speed>
</trkpt>
<trkpt lat="44.627220" lon="33.798374">
<ele>212.841919</ele>
<time>2011-10-10T09:35:47Z</time>
<desc>lat.=44.627220, lon.=33.798374, Alt.=212.841919m. Speed=0.036000m/h.</desc>
<speed>0.010000</speed>
</trkpt>
<trkpt lat="44.627220" lon="33.798374">
<ele>212.841919</ele>
<time>2011-10-10T09:35:52Z</time>
<desc>lat.=44.627220, lon.=33.798374, Alt.=212.841919m. Speed=0.036000m/h.</desc>
<speed>0.010000</speed>
</trkpt>
<trkpt lat="44.627220" lon="33.798374">
<ele>212.838013</ele>
<time>2011-10-10T09:35:57Z</time>
<desc>lat.=44.627220, lon.=33.798374, Alt.=212.838013m. Speed=0.108000m/h.</desc>
<speed>0.030000</speed>
</trkpt>
<trkpt lat="44.627220" lon="33.798374">
<ele>212.822388</ele>
<time>2011-10-10T09:36:02Z</time>
<desc>lat.=44.627220, lon.=33.798374, Alt.=212.822388m. Speed=0.000000m/h.</desc>
<speed>0.000000</speed>
</trkpt>
<trkpt lat="44.627220" lon="33.798374">
<ele>212.822388</ele>
<time>2011-10-10T09:36:07Z</time>
<desc>lat.=44.627220, lon.=33.798374, Alt.=212.822388m. Speed=0.036000m/h.</desc>
<speed>0.010000</speed>
</trkpt>
<trkpt lat="44.627220" lon="33.798374">
<ele>212.818481</ele>
<time>2011-10-10T09:36:12Z</time>
<desc>lat.=44.627220, lon.=33.798374, Alt.=212.818481m. Speed=0.072000m/h.</desc>
<speed>0.020000</speed>
</trkpt>
<trkpt lat="44.627220" lon="33.798374">
<ele>212.814575</ele>
<time>2011-10-10T09:36:17Z</time>
<desc>lat.=44.627220, lon.=33.798374, Alt.=212.814575m. Speed=0.036000m/h.</desc>
<speed>0.010000</speed>
</trkpt>
<trkpt lat="44.627220" lon="33.798374">
<ele>212.814575</ele>
<time>2011-10-10T09:36:22Z</time>
<desc>lat.=44.627220, lon.=33.798374, Alt.=212.814575m. Speed=0.072000m/h.</desc>
<speed>0.020000</speed>
</trkpt>
<trkpt lat="44.627220" lon="33.798370">
<ele>212.814575</ele>
<time>2011-10-10T09:36:27Z</time>
<desc>lat.=44.627220, lon.=33.798370, Alt.=212.814575m. Speed=0.000000m/h.</desc>
<speed>0.000000</speed>
</trkpt>
<trkpt lat="44.627220" lon="33.798370">
<ele>212.818481</ele>
<time>2011-10-10T09:36:32Z</time>
<desc>lat.=44.627220, lon.=33.798370, Alt.=212.818481m. Speed=0.000000m/h.</desc>
<speed>0.000000</speed>
</trkpt>
<trkpt lat="44.627220" lon="33.798382">
<ele>212.951294</ele>
<time>2011-10-10T09:36:37Z</time>
<desc>lat.=44.627220, lon.=33.798382, Alt.=212.951294m. Speed=1.476000m/h.</desc>
<speed>0.410000</speed>
</trkpt>
<trkpt lat="44.627220" lon="33.798409">
<ele>212.673950</ele>
<time>2011-10-10T09:36:42Z</time>
<desc>lat.=44.627220, lon.=33.798409, Alt.=212.673950m. Speed=1.260000m/h.</desc>
<speed>0.350000</speed>
</trkpt>
<trkpt lat="44.627209" lon="33.798409">
<ele>212.623169</ele>
<time>2011-10-10T09:36:47Z</time>
<desc>lat.=44.627209, lon.=33.798409, Alt.=212.623169m. Speed=0.648000m/h.</desc>
<speed>0.180000</speed>
</trkpt>
<trkpt lat="44.627216" lon="33.798401">
<ele>212.713013</ele>
<time>2011-10-10T09:36:52Z</time>
<desc>lat.=44.627216, lon.=33.798401, Alt.=212.713013m. Speed=0.036000m/h.</desc>
<speed>0.010000</speed>
</trkpt>
<trkpt lat="44.627213" lon="33.798401">
<ele>212.638794</ele>
<time>2011-10-10T09:36:57Z</time>
<desc>lat.=44.627213, lon.=33.798401, Alt.=212.638794m. Speed=1.044000m/h.</desc>
<speed>0.290000</speed>
</trkpt>
<trkpt lat="44.627213" lon="33.798405">
<ele>212.595825</ele>
<time>2011-10-10T09:37:02Z</time>
<desc>lat.=44.627213, lon.=33.798405, Alt.=212.595825m. Speed=0.360000m/h.</desc>
<speed>0.100000</speed>
</trkpt>
<trkpt lat="44.627182" lon="33.798447">
<ele>213.052856</ele>
<time>2011-10-10T09:37:07Z</time>
<desc>lat.=44.627182, lon.=33.798447, Alt.=213.052856m. Speed=4.608000m/h.</desc>
<speed>1.280000</speed>
</trkpt>
<trkpt lat="44.627155" lon="33.798523">
<ele>213.420044</ele>
<time>2011-10-10T09:37:12Z</time>
<desc>lat.=44.627155, lon.=33.798523, Alt.=213.420044m. Speed=3.420000m/h.</desc>
<speed>0.950000</speed>
</trkpt>
<trkpt lat="44.627132" lon="33.798615">
<ele>213.490356</ele>
<time>2011-10-10T09:37:17Z</time>
<desc>lat.=44.627132, lon.=33.798615, Alt.=213.490356m. Speed=5.328000m/h.</desc>
<speed>1.480000</speed>
</trkpt>
<trkpt lat="44.627090" lon="33.798729">
<ele>213.970825</ele>
<time>2011-10-10T09:37:22Z</time>
<desc>lat.=44.627090, lon.=33.798729, Alt.=213.970825m. Speed=7.848000m/h.</desc>
<speed>2.180000</speed>
</trkpt>
<trkpt lat="44.627033" lon="33.798870">
<ele>216.193481</ele>
<time>2011-10-10T09:37:27Z</time>
<desc>lat.=44.627033, lon.=33.798870, Alt.=216.193481m. Speed=9.180000m/h.</desc>
<speed>2.550000</speed>
</trkpt>
<trkpt lat="44.626984" lon="33.799023">
<ele>217.709106</ele>
<time>2011-10-10T09:37:32Z</time>
<desc>lat.=44.626984, lon.=33.799023, Alt.=217.709106m. Speed=8.784000m/h.</desc>
<speed>2.440000</speed>
</trkpt>
<trkpt lat="44.626938" lon="33.799168">
<ele>218.138794</ele>
<time>2011-10-10T09:37:37Z</time>
<desc>lat.=44.626938, lon.=33.799168, Alt.=218.138794m. Speed=10.440000m/h.</desc>
<speed>2.900000</speed>
</trkpt>
<trkpt lat="44.626869" lon="33.799332">
<ele>218.783325</ele>
<time>2011-10-10T09:37:42Z</time>
<desc>lat.=44.626869, lon.=33.799332, Alt.=218.783325m. Speed=9.828000m/h.</desc>
<speed>2.730000</speed>
</trkpt>
<trkpt lat="44.626816" lon="33.799454">
<ele>219.849731</ele>
<time>2011-10-10T09:37:47Z</time>
<desc>lat.=44.626816, lon.=33.799454, Alt.=219.849731m. Speed=7.524000m/h.</desc>
<speed>2.090000</speed>
</trkpt>
<trkpt lat="44.626781" lon="33.799591">
<ele>220.400513</ele>
<time>2011-10-10T09:37:52Z</time>
<desc>lat.=44.626781, lon.=33.799591, Alt.=220.400513m. Speed=8.388000m/h.</desc>
<speed>2.330000</speed>
</trkpt>
<trkpt lat="44.626743" lon="33.799717">
<ele>221.482544</ele>
<time>2011-10-10T09:37:57Z</time>
<desc>lat.=44.626743, lon.=33.799717, Alt.=221.482544m. Speed=9.072000m/h.</desc>
<speed>2.520000</speed>
</trkpt>
<trkpt lat="44.626682" lon="33.799850">
<ele>222.271606</ele>
<time>2011-10-10T09:38:02Z</time>
<desc>lat.=44.626682, lon.=33.799850, Alt.=222.271606m. Speed=9.432000m/h.</desc>
<speed>2.620000</speed>
</trkpt>
<trkpt lat="44.626617" lon="33.799999">
<ele>223.291138</ele>
<time>2011-10-10T09:38:07Z</time>
<desc>lat.=44.626617, lon.=33.799999, Alt.=223.291138m. Speed=9.036000m/h.</desc>
<speed>2.510000</speed>
</trkpt>
<trkpt lat="44.626572" lon="33.800140">
<ele>224.158325</ele>
<time>2011-10-10T09:38:12Z</time>
<desc>lat.=44.626572, lon.=33.800140, Alt.=224.158325m. Speed=7.416000m/h.</desc>
<speed>2.060000</speed>
</trkpt>
<trkpt lat="44.626522" lon="33.800293">
<ele>225.404419</ele>
<time>2011-10-10T09:38:17Z</time>
<desc>lat.=44.626522, lon.=33.800293, Alt.=225.404419m. Speed=10.368000m/h.</desc>
<speed>2.880000</speed>
</trkpt>
<trkpt lat="44.626472" lon="33.800465">
<ele>227.119263</ele>
<time>2011-10-10T09:38:22Z</time>
<desc>lat.=44.626472, lon.=33.800465, Alt.=227.119263m. Speed=9.000000m/h.</desc>
<speed>2.500000</speed>
</trkpt>
<trkpt lat="44.626472" lon="33.800621">
<ele>226.627075</ele>
<time>2011-10-10T09:38:27Z</time>
<desc>lat.=44.626472, lon.=33.800621, Alt.=226.627075m. Speed=9.576000m/h.</desc>
<speed>2.660000</speed>
</trkpt>
<trkpt lat="44.626495" lon="33.800793">
<ele>224.634888</ele>
<time>2011-10-10T09:38:32Z</time>
<desc>lat.=44.626495, lon.=33.800793, Alt.=224.634888m. Speed=9.396000m/h.</desc>
<speed>2.610000</speed>
</trkpt>
<trkpt lat="44.626488" lon="33.800957">
<ele>222.920044</ele>
<time>2011-10-10T09:38:37Z</time>
<desc>lat.=44.626488, lon.=33.800957, Alt.=222.920044m. Speed=10.044000m/h.</desc>
<speed>2.790000</speed>
</trkpt>
<trkpt lat="44.626446" lon="33.801117">
<ele>222.783325</ele>
<time>2011-10-10T09:38:42Z</time>
<desc>lat.=44.626446, lon.=33.801117, Alt.=222.783325m. Speed=10.008000m/h.</desc>
<speed>2.780000</speed>
</trkpt>
<trkpt lat="44.626385" lon="33.801277">
<ele>223.213013</ele>
<time>2011-10-10T09:38:47Z</time>
<desc>lat.=44.626385, lon.=33.801277, Alt.=223.213013m. Speed=10.224000m/h.</desc>
<speed>2.840000</speed>
</trkpt>
<trkpt lat="44.626335" lon="33.801418">
<ele>223.642700</ele>
<time>2011-10-10T09:38:52Z</time>
<desc>lat.=44.626335, lon.=33.801418, Alt.=223.642700m. Speed=9.324000m/h.</desc>
<speed>2.590000</speed>
</trkpt>
<trkpt lat="44.626297" lon="33.801556">
<ele>222.818481</ele>
<time>2011-10-10T09:38:57Z</time>
<desc>lat.=44.626297, lon.=33.801556, Alt.=222.818481m. Speed=8.748000m/h.</desc>
<speed>2.430000</speed>
</trkpt>
<trkpt lat="44.626293" lon="33.801697">
<ele>223.841919</ele>
<time>2011-10-10T09:39:02Z</time>
<desc>lat.=44.626293, lon.=33.801697, Alt.=223.841919m. Speed=7.020000m/h.</desc>
<speed>1.950000</speed>
</trkpt>
<trkpt lat="44.626305" lon="33.801819">
<ele>224.650513</ele>
<time>2011-10-10T09:39:07Z</time>
<desc>lat.=44.626305, lon.=33.801819, Alt.=224.650513m. Speed=5.616000m/h.</desc>
<speed>1.560000</speed>
</trkpt>
<trkpt lat="44.626324" lon="33.801933">
<ele>224.869263</ele>
<time>2011-10-10T09:39:12Z</time>
<desc>lat.=44.626324, lon.=33.801933, Alt.=224.869263m. Speed=6.372000m/h.</desc>
<speed>1.770000</speed>
</trkpt>
<trkpt lat="44.626354" lon="33.802036">
<ele>225.513794</ele>
<time>2011-10-10T09:39:17Z</time>
<desc>lat.=44.626354, lon.=33.802036, Alt.=225.513794m. Speed=5.112000m/h.</desc>
<speed>1.420000</speed>
</trkpt>
<trkpt lat="44.626392" lon="33.802139">
<ele>226.670044</ele>
<time>2011-10-10T09:39:22Z</time>
<desc>lat.=44.626392, lon.=33.802139, Alt.=226.670044m. Speed=6.660000m/h.</desc>
<speed>1.850000</speed>
</trkpt>
<trkpt lat="44.626442" lon="33.802258">
<ele>227.552856</ele>
<time>2011-10-10T09:39:27Z</time>
<desc>lat.=44.626442, lon.=33.802258, Alt.=227.552856m. Speed=7.524000m/h.</desc>
<speed>2.090000</speed>
</trkpt>
<trkpt lat="44.626495" lon="33.802383">
<ele>227.892700</ele>
<time>2011-10-10T09:39:32Z</time>
<desc>lat.=44.626495, lon.=33.802383, Alt.=227.892700m. Speed=10.188000m/h.</desc>
<speed>2.830000</speed>
</trkpt>
<trkpt lat="44.626541" lon="33.802517">
<ele>228.111450</ele>
<time>2011-10-10T09:39:37Z</time>
<desc>lat.=44.626541, lon.=33.802517, Alt.=228.111450m. Speed=5.436000m/h.</desc>
<speed>1.510000</speed>
</trkpt>
<trkpt lat="44.626587" lon="33.802666">
<ele>228.388794</ele>
<time>2011-10-10T09:39:42Z</time>
<desc>lat.=44.626587, lon.=33.802666, Alt.=228.388794m. Speed=9.576000m/h.</desc>
<speed>2.660000</speed>
</trkpt>
<trkpt lat="44.626621" lon="33.802761">
<ele>228.634888</ele>
<time>2011-10-10T09:39:47Z</time>
<desc>lat.=44.626621, lon.=33.802761, Alt.=228.634888m. Speed=7.344000m/h.</desc>
<speed>2.040000</speed>
</trkpt>
<trkpt lat="44.626663" lon="33.802902">
<ele>229.134888</ele>
<time>2011-10-10T09:39:52Z</time>
<desc>lat.=44.626663, lon.=33.802902, Alt.=229.134888m. Speed=10.800000m/h.</desc>
<speed>3.000000</speed>
</trkpt>
<trkpt lat="44.626701" lon="33.803013">
<ele>230.037231</ele>
<time>2011-10-10T09:39:57Z</time>
<desc>lat.=44.626701, lon.=33.803013, Alt.=230.037231m. Speed=7.200000m/h.</desc>
<speed>2.000000</speed>
</trkpt>
<trkpt lat="44.626732" lon="33.803127">
<ele>230.927856</ele>
<time>2011-10-10T09:40:02Z</time>
<desc>lat.=44.626732, lon.=33.803127, Alt.=230.927856m. Speed=10.332000m/h.</desc>
<speed>2.870000</speed>
</trkpt>
<trkpt lat="44.626781" lon="33.803253">
<ele>232.283325</ele>
<time>2011-10-10T09:40:07Z</time>
<desc>lat.=44.626781, lon.=33.803253, Alt.=232.283325m. Speed=7.848000m/h.</desc>
<speed>2.180000</speed>
</trkpt>
<trkpt lat="44.626842" lon="33.803371">
<ele>233.986450</ele>
<time>2011-10-10T09:40:12Z</time>
<desc>lat.=44.626842, lon.=33.803371, Alt.=233.986450m. Speed=8.640000m/h.</desc>
<speed>2.400000</speed>
</trkpt>
<trkpt lat="44.626877" lon="33.803493">
<ele>234.654419</ele>
<time>2011-10-10T09:40:17Z</time>
<desc>lat.=44.626877, lon.=33.803493, Alt.=234.654419m. Speed=8.928000m/h.</desc>
<speed>2.480000</speed>
</trkpt>
<trkpt lat="44.626945" lon="33.803608">
<ele>235.810669</ele>
<time>2011-10-10T09:40:22Z</time>
<desc>lat.=44.626945, lon.=33.803608, Alt.=235.810669m. Speed=9.360000m/h.</desc>
<speed>2.600000</speed>
</trkpt>
<trkpt lat="44.627037" lon="33.803745">
<ele>237.002075</ele>
<time>2011-10-10T09:40:27Z</time>
<desc>lat.=44.627037, lon.=33.803745, Alt.=237.002075m. Speed=8.424000m/h.</desc>
<speed>2.340000</speed>
</trkpt>
<trkpt lat="44.627102" lon="33.803879">
<ele>237.267700</ele>
<time>2011-10-10T09:40:32Z</time>
<desc>lat.=44.627102, lon.=33.803879, Alt.=237.267700m. Speed=8.568000m/h.</desc>
<speed>2.380000</speed>
</trkpt>
<trkpt lat="44.627129" lon="33.803989">
<ele>237.185669</ele>
<time>2011-10-10T09:40:37Z</time>
<desc>lat.=44.627129, lon.=33.803989, Alt.=237.185669m. Speed=7.200000m/h.</desc>
<speed>2.000000</speed>
</trkpt>
<trkpt lat="44.627148" lon="33.804077">
<ele>237.154419</ele>
<time>2011-10-10T09:40:42Z</time>
<desc>lat.=44.627148, lon.=33.804077, Alt.=237.154419m. Speed=3.672000m/h.</desc>
<speed>1.020000</speed>
</trkpt>
<trkpt lat="44.627167" lon="33.804127">
<ele>236.935669</ele>
<time>2011-10-10T09:40:47Z</time>
<desc>lat.=44.627167, lon.=33.804127, Alt.=236.935669m. Speed=4.824000m/h.</desc>
<speed>1.340000</speed>
</trkpt>
<trkpt lat="44.627201" lon="33.804192">
<ele>236.099731</ele>
<time>2011-10-10T09:40:52Z</time>
<desc>lat.=44.627201, lon.=33.804192, Alt.=236.099731m. Speed=0.504000m/h.</desc>
<speed>0.140000</speed>
</trkpt>
<trkpt lat="44.627216" lon="33.804237">
<ele>234.947388</ele>
<time>2011-10-10T09:40:57Z</time>
<desc>lat.=44.627216, lon.=33.804237, Alt.=234.947388m. Speed=3.348000m/h.</desc>
<speed>0.930000</speed>
</trkpt>
<trkpt lat="44.627228" lon="33.804314">
<ele>236.420044</ele>
<time>2011-10-10T09:41:02Z</time>
<desc>lat.=44.627228, lon.=33.804314, Alt.=236.420044m. Speed=5.292000m/h.</desc>
<speed>1.470000</speed>
</trkpt>
<trkpt lat="44.627251" lon="33.804462">
<ele>237.607544</ele>
<time>2011-10-10T09:41:07Z</time>
<desc>lat.=44.627251, lon.=33.804462, Alt.=237.607544m. Speed=9.936000m/h.</desc>
<speed>2.760000</speed>
</trkpt>
<trkpt lat="44.627296" lon="33.804638">
<ele>238.463013</ele>
<time>2011-10-10T09:41:12Z</time>
<desc>lat.=44.627296, lon.=33.804638, Alt.=238.463013m. Speed=10.944000m/h.</desc>
<speed>3.040000</speed>
</trkpt>
<trkpt lat="44.627361" lon="33.804794">
<ele>239.138794</ele>
<time>2011-10-10T09:41:17Z</time>
<desc>lat.=44.627361, lon.=33.804794, Alt.=239.138794m. Speed=10.296000m/h.</desc>
<speed>2.860000</speed>
</trkpt>
<trkpt lat="44.627411" lon="33.804958">
<ele>239.673950</ele>
<time>2011-10-10T09:41:22Z</time>
<desc>lat.=44.627411, lon.=33.804958, Alt.=239.673950m. Speed=9.252000m/h.</desc>
<speed>2.570000</speed>
</trkpt>
<trkpt lat="44.627449" lon="33.805134">
<ele>239.459106</ele>
<time>2011-10-10T09:41:27Z</time>
<desc>lat.=44.627449, lon.=33.805134, Alt.=239.459106m. Speed=10.332000m/h.</desc>
<speed>2.870000</speed>
</trkpt>
<trkpt lat="44.627491" lon="33.805305">
<ele>239.158325</ele>
<time>2011-10-10T09:41:32Z</time>
<desc>lat.=44.627491, lon.=33.805305, Alt.=239.158325m. Speed=11.376000m/h.</desc>
<speed>3.160000</speed>
</trkpt>
<trkpt lat="44.627548" lon="33.805485">
<ele>239.521606</ele>
<time>2011-10-10T09:41:37Z</time>
<desc>lat.=44.627548, lon.=33.805485, Alt.=239.521606m. Speed=11.340000m/h.</desc>
<speed>3.150000</speed>
</trkpt>
<trkpt lat="44.627609" lon="33.805656">
<ele>240.482544</ele>
<time>2011-10-10T09:41:42Z</time>
<desc>lat.=44.627609, lon.=33.805656, Alt.=240.482544m. Speed=10.512000m/h.</desc>
<speed>2.920000</speed>
</trkpt>
<trkpt lat="44.627663" lon="33.805817">
<ele>240.880981</ele>
<time>2011-10-10T09:41:47Z</time>
<desc>lat.=44.627663, lon.=33.805817, Alt.=240.880981m. Speed=9.684000m/h.</desc>
<speed>2.690000</speed>
</trkpt>
<trkpt lat="44.627701" lon="33.805992">
<ele>241.345825</ele>
<time>2011-10-10T09:41:52Z</time>
<desc>lat.=44.627701, lon.=33.805992, Alt.=241.345825m. Speed=10.872000m/h.</desc>
<speed>3.020000</speed>
</trkpt>
<trkpt lat="44.627762" lon="33.806187">
<ele>240.916138</ele>
<time>2011-10-10T09:41:57Z</time>
<desc>lat.=44.627762, lon.=33.806187, Alt.=240.916138m. Speed=11.268000m/h.</desc>
<speed>3.130000</speed>
</trkpt>
<trkpt lat="44.627808" lon="33.806381">
<ele>241.099731</ele>
<time>2011-10-10T09:42:02Z</time>
<desc>lat.=44.627808, lon.=33.806381, Alt.=241.099731m. Speed=9.900000m/h.</desc>
<speed>2.750000</speed>
</trkpt>
<trkpt lat="44.627857" lon="33.806564">
<ele>240.705200</ele>
<time>2011-10-10T09:42:07Z</time>
<desc>lat.=44.627857, lon.=33.806564, Alt.=240.705200m. Speed=10.944000m/h.</desc>
<speed>3.040000</speed>
</trkpt>
<trkpt lat="44.627926" lon="33.806759">
<ele>240.322388</ele>
<time>2011-10-10T09:42:12Z</time>
<desc>lat.=44.627926, lon.=33.806759, Alt.=240.322388m. Speed=13.248000m/h.</desc>
<speed>3.680000</speed>
</trkpt>
<trkpt lat="44.628010" lon="33.806976">
<ele>240.158325</ele>
<time>2011-10-10T09:42:17Z</time>
<desc>lat.=44.628010, lon.=33.806976, Alt.=240.158325m. Speed=14.904000m/h.</desc>
<speed>4.140000</speed>
</trkpt>
<trkpt lat="44.628082" lon="33.807220">
<ele>240.041138</ele>
<time>2011-10-10T09:42:22Z</time>
<desc>lat.=44.628082, lon.=33.807220, Alt.=240.041138m. Speed=15.444000m/h.</desc>
<speed>4.290000</speed>
</trkpt>
<trkpt lat="44.628139" lon="33.807442">
<ele>239.498169</ele>
<time>2011-10-10T09:42:27Z</time>
<desc>lat.=44.628139, lon.=33.807442, Alt.=239.498169m. Speed=14.184000m/h.</desc>
<speed>3.940000</speed>
</trkpt>
<trkpt lat="44.628208" lon="33.807697">
<ele>240.474731</ele>
<time>2011-10-10T09:42:32Z</time>
<desc>lat.=44.628208, lon.=33.807697, Alt.=240.474731m. Speed=16.488001m/h.</desc>
<speed>4.580000</speed>
</trkpt>
<trkpt lat="44.628231" lon="33.807968">
<ele>240.716919</ele>
<time>2011-10-10T09:42:37Z</time>
<desc>lat.=44.628231, lon.=33.807968, Alt.=240.716919m. Speed=14.364000m/h.</desc>
<speed>3.990000</speed>
</trkpt>
<trkpt lat="44.628300" lon="33.808216">
<ele>241.357544</ele>
<time>2011-10-10T09:42:42Z</time>
<desc>lat.=44.628300, lon.=33.808216, Alt.=241.357544m. Speed=17.243999m/h.</desc>
<speed>4.790000</speed>
</trkpt>
<trkpt lat="44.628422" lon="33.808449">
<ele>242.404419</ele>
<time>2011-10-10T09:42:47Z</time>
<desc>lat.=44.628422, lon.=33.808449, Alt.=242.404419m. Speed=14.040000m/h.</desc>
<speed>3.900000</speed>
</trkpt>
<trkpt lat="44.628525" lon="33.808666">
<ele>242.955200</ele>
<time>2011-10-10T09:42:52Z</time>
<desc>lat.=44.628525, lon.=33.808666, Alt.=242.955200m. Speed=14.868000m/h.</desc>
<speed>4.130000</speed>
</trkpt>
<trkpt lat="44.628616" lon="33.808891">
<ele>243.939575</ele>
<time>2011-10-10T09:42:57Z</time>
<desc>lat.=44.628616, lon.=33.808891, Alt.=243.939575m. Speed=12.888000m/h.</desc>
<speed>3.580000</speed>
</trkpt>
<trkpt lat="44.628685" lon="33.809044">
<ele>243.841919</ele>
<time>2011-10-10T09:43:02Z</time>
<desc>lat.=44.628685, lon.=33.809044, Alt.=243.841919m. Speed=7.956000m/h.</desc>
<speed>2.210000</speed>
</trkpt>
<trkpt lat="44.628735" lon="33.809166">
<ele>243.654419</ele>
<time>2011-10-10T09:43:07Z</time>
<desc>lat.=44.628735, lon.=33.809166, Alt.=243.654419m. Speed=8.064000m/h.</desc>
<speed>2.240000</speed>
</trkpt>
<trkpt lat="44.628780" lon="33.809280">
<ele>243.216919</ele>
<time>2011-10-10T09:43:12Z</time>
<desc>lat.=44.628780, lon.=33.809280, Alt.=243.216919m. Speed=8.532000m/h.</desc>
<speed>2.370000</speed>
</trkpt>
<trkpt lat="44.628796" lon="33.809326">
<ele>243.396606</ele>
<time>2011-10-10T09:43:17Z</time>
<desc>lat.=44.628796, lon.=33.809326, Alt.=243.396606m. Speed=0.792000m/h.</desc>
<speed>0.220000</speed>
</trkpt>
<trkpt lat="44.628796" lon="33.809345">
<ele>243.517700</ele>
<time>2011-10-10T09:43:22Z</time>
<desc>lat.=44.628796, lon.=33.809345, Alt.=243.517700m. Speed=1.476000m/h.</desc>
<speed>0.410000</speed>
</trkpt>
<trkpt lat="44.628799" lon="33.809368">
<ele>243.713013</ele>
<time>2011-10-10T09:43:27Z</time>
<desc>lat.=44.628799, lon.=33.809368, Alt.=243.713013m. Speed=1.404000m/h.</desc>
<speed>0.390000</speed>
</trkpt>
<trkpt lat="44.628803" lon="33.809395">
<ele>243.642700</ele>
<time>2011-10-10T09:43:32Z</time>
<desc>lat.=44.628803, lon.=33.809395, Alt.=243.642700m. Speed=1.800000m/h.</desc>
<speed>0.500000</speed>
</trkpt>
<trkpt lat="44.628841" lon="33.809486">
<ele>243.045044</ele>
<time>2011-10-10T09:43:37Z</time>
<desc>lat.=44.628841, lon.=33.809486, Alt.=243.045044m. Speed=14.652000m/h.</desc>
<speed>4.070000</speed>
</trkpt>
<trkpt lat="44.628933" lon="33.809753">
<ele>241.771606</ele>
<time>2011-10-10T09:43:42Z</time>
<desc>lat.=44.628933, lon.=33.809753, Alt.=241.771606m. Speed=20.304001m/h.</desc>
<speed>5.640000</speed>
</trkpt>
<trkpt lat="44.629028" lon="33.810165">
<ele>240.384888</ele>
<time>2011-10-10T09:43:47Z</time>
<desc>lat.=44.629028, lon.=33.810165, Alt.=240.384888m. Speed=20.520000m/h.</desc>
<speed>5.700000</speed>
</trkpt>
<trkpt lat="44.629150" lon="33.810371">
<ele>240.986450</ele>
<time>2011-10-10T09:43:52Z</time>
<desc>lat.=44.629150, lon.=33.810371, Alt.=240.986450m. Speed=13.716000m/h.</desc>
<speed>3.810000</speed>
</trkpt>
<trkpt lat="44.629318" lon="33.810436">
<ele>242.205200</ele>
<time>2011-10-10T09:43:57Z</time>
<desc>lat.=44.629318, lon.=33.810436, Alt.=242.205200m. Speed=10.296000m/h.</desc>
<speed>2.860000</speed>
</trkpt>
<trkpt lat="44.629410" lon="33.810589">
<ele>242.853638</ele>
<time>2011-10-10T09:44:02Z</time>
<desc>lat.=44.629410, lon.=33.810589, Alt.=242.853638m. Speed=10.980000m/h.</desc>
<speed>3.050000</speed>
</trkpt>
<trkpt lat="44.629475" lon="33.810760">
<ele>244.525513</ele>
<time>2011-10-10T09:44:07Z</time>
<desc>lat.=44.629475, lon.=33.810760, Alt.=244.525513m. Speed=9.432000m/h.</desc>
<speed>2.620000</speed>
</trkpt>
<trkpt lat="44.629570" lon="33.810932">
<ele>245.463013</ele>
<time>2011-10-10T09:44:12Z</time>
<desc>lat.=44.629570, lon.=33.810932, Alt.=245.463013m. Speed=11.376000m/h.</desc>
<speed>3.160000</speed>
</trkpt>
<trkpt lat="44.629639" lon="33.811077">
<ele>246.318481</ele>
<time>2011-10-10T09:44:17Z</time>
<desc>lat.=44.629639, lon.=33.811077, Alt.=246.318481m. Speed=8.928000m/h.</desc>
<speed>2.480000</speed>
</trkpt>
<trkpt lat="44.629665" lon="33.811195">
<ele>247.400513</ele>
<time>2011-10-10T09:44:22Z</time>
<desc>lat.=44.629665, lon.=33.811195, Alt.=247.400513m. Speed=6.012000m/h.</desc>
<speed>1.670000</speed>
</trkpt>
<trkpt lat="44.629757" lon="33.811382">
<ele>248.873169</ele>
<time>2011-10-10T09:44:27Z</time>
<desc>lat.=44.629757, lon.=33.811382, Alt.=248.873169m. Speed=11.484000m/h.</desc>
<speed>3.190000</speed>
</trkpt>
<trkpt lat="44.629906" lon="33.811642">
<ele>250.213013</ele>
<time>2011-10-10T09:44:32Z</time>
<desc>lat.=44.629906, lon.=33.811642, Alt.=250.213013m. Speed=11.484000m/h.</desc>
<speed>3.190000</speed>
</trkpt>
<trkpt lat="44.630047" lon="33.811878">
<ele>251.443481</ele>
<time>2011-10-10T09:44:37Z</time>
<desc>lat.=44.630047, lon.=33.811878, Alt.=251.443481m. Speed=12.852000m/h.</desc>
<speed>3.570000</speed>
</trkpt>
<trkpt lat="44.630157" lon="33.812092">
<ele>252.509888</ele>
<time>2011-10-10T09:44:42Z</time>
<desc>lat.=44.630157, lon.=33.812092, Alt.=252.509888m. Speed=13.284000m/h.</desc>
<speed>3.690000</speed>
</trkpt>
<trkpt lat="44.630280" lon="33.812275">
<ele>253.357544</ele>
<time>2011-10-10T09:44:47Z</time>
<desc>lat.=44.630280, lon.=33.812275, Alt.=253.357544m. Speed=9.936000m/h.</desc>
<speed>2.760000</speed>
</trkpt>
<trkpt lat="44.630360" lon="33.812469">
<ele>255.009888</ele>
<time>2011-10-10T09:44:52Z</time>
<desc>lat.=44.630360, lon.=33.812469, Alt.=255.009888m. Speed=8.568000m/h.</desc>
<speed>2.380000</speed>
</trkpt>
<trkpt lat="44.630440" lon="33.812611">
<ele>256.551025</ele>
<time>2011-10-10T09:44:57Z</time>
<desc>lat.=44.630440, lon.=33.812611, Alt.=256.551025m. Speed=8.388000m/h.</desc>
<speed>2.330000</speed>
</trkpt>
<trkpt lat="44.630569" lon="33.812756">
<ele>258.465088</ele>
<time>2011-10-10T09:45:02Z</time>
<desc>lat.=44.630569, lon.=33.812756, Alt.=258.465088m. Speed=8.964000m/h.</desc>
<speed>2.490000</speed>
</trkpt>
<trkpt lat="44.630714" lon="33.812958">
<ele>259.730713</ele>
<time>2011-10-10T09:45:07Z</time>
<desc>lat.=44.630714, lon.=33.812958, Alt.=259.730713m. Speed=9.540000m/h.</desc>
<speed>2.650000</speed>
</trkpt>
<trkpt lat="44.630848" lon="33.813183">
<ele>260.011963</ele>
<time>2011-10-10T09:45:12Z</time>
<desc>lat.=44.630848, lon.=33.813183, Alt.=260.011963m. Speed=9.432000m/h.</desc>
<speed>2.620000</speed>
</trkpt>
<trkpt lat="44.630955" lon="33.813370">
<ele>260.699463</ele>
<time>2011-10-10T09:45:17Z</time>
<desc>lat.=44.630955, lon.=33.813370, Alt.=260.699463m. Speed=8.712000m/h.</desc>
<speed>2.420000</speed>
</trkpt>
<trkpt lat="44.631058" lon="33.813496">
<ele>257.793213</ele>
<time>2011-10-10T09:45:22Z</time>
<desc>lat.=44.631058, lon.=33.813496, Alt.=257.793213m. Speed=7.560000m/h.</desc>
<speed>2.100000</speed>
</trkpt>
<trkpt lat="44.631138" lon="33.813610">
<ele>256.707275</ele>
<time>2011-10-10T09:45:27Z</time>
<desc>lat.=44.631138, lon.=33.813610, Alt.=256.707275m. Speed=6.804000m/h.</desc>
<speed>1.890000</speed>
</trkpt>
<trkpt lat="44.631180" lon="33.813725">
<ele>257.590088</ele>
<time>2011-10-10T09:45:32Z</time>
<desc>lat.=44.631180, lon.=33.813725, Alt.=257.590088m. Speed=5.328000m/h.</desc>
<speed>1.480000</speed>
</trkpt>
<trkpt lat="44.631241" lon="33.813858">
<ele>258.269775</ele>
<time>2011-10-10T09:45:37Z</time>
<desc>lat.=44.631241, lon.=33.813858, Alt.=258.269775m. Speed=5.976000m/h.</desc>
<speed>1.660000</speed>
</trkpt>
<trkpt lat="44.631313" lon="33.813999">
<ele>259.168213</ele>
<time>2011-10-10T09:45:42Z</time>
<desc>lat.=44.631313, lon.=33.813999, Alt.=259.168213m. Speed=10.332000m/h.</desc>
<speed>2.870000</speed>
</trkpt>
<trkpt lat="44.631397" lon="33.814171">
<ele>260.129150</ele>
<time>2011-10-10T09:45:47Z</time>
<desc>lat.=44.631397, lon.=33.814171, Alt.=260.129150m. Speed=9.396000m/h.</desc>
<speed>2.610000</speed>
</trkpt>
<trkpt lat="44.631481" lon="33.814323">
<ele>261.121338</ele>
<time>2011-10-10T09:45:52Z</time>
<desc>lat.=44.631481, lon.=33.814323, Alt.=261.121338m. Speed=8.460000m/h.</desc>
<speed>2.350000</speed>
</trkpt>
<trkpt lat="44.631523" lon="33.814453">
<ele>262.207275</ele>
<time>2011-10-10T09:45:57Z</time>
<desc>lat.=44.631523, lon.=33.814453, Alt.=262.207275m. Speed=5.400000m/h.</desc>
<speed>1.500000</speed>
</trkpt>
<trkpt lat="44.631573" lon="33.814587">
<ele>262.902588</ele>
<time>2011-10-10T09:46:02Z</time>
<desc>lat.=44.631573, lon.=33.814587, Alt.=262.902588m. Speed=3.996000m/h.</desc>
<speed>1.110000</speed>
</trkpt>
<trkpt lat="44.631634" lon="33.814667">
<ele>265.043213</ele>
<time>2011-10-10T09:46:07Z</time>
<desc>lat.=44.631634, lon.=33.814667, Alt.=265.043213m. Speed=4.788000m/h.</desc>
<speed>1.330000</speed>
</trkpt>
<trkpt lat="44.631721" lon="33.814766">
<ele>265.668213</ele>
<time>2011-10-10T09:46:12Z</time>
<desc>lat.=44.631721, lon.=33.814766, Alt.=265.668213m. Speed=5.148000m/h.</desc>
<speed>1.430000</speed>
</trkpt>
<trkpt lat="44.631851" lon="33.814896">
<ele>264.636963</ele>
<time>2011-10-10T09:46:17Z</time>
<desc>lat.=44.631851, lon.=33.814896, Alt.=264.636963m. Speed=5.688000m/h.</desc>
<speed>1.580000</speed>
</trkpt>
<trkpt lat="44.631954" lon="33.815029">
<ele>266.535400</ele>
<time>2011-10-10T09:46:22Z</time>
<desc>lat.=44.631954, lon.=33.815029, Alt.=266.535400m. Speed=7.884000m/h.</desc>
<speed>2.190000</speed>
</trkpt>
<trkpt lat="44.632019" lon="33.815151">
<ele>266.886963</ele>
<time>2011-10-10T09:46:27Z</time>
<desc>lat.=44.632019, lon.=33.815151, Alt.=266.886963m. Speed=7.272000m/h.</desc>
<speed>2.020000</speed>
</trkpt>
<trkpt lat="44.632103" lon="33.815289">
<ele>267.011963</ele>
<time>2011-10-10T09:46:32Z</time>
<desc>lat.=44.632103, lon.=33.815289, Alt.=267.011963m. Speed=6.624000m/h.</desc>
<speed>1.840000</speed>
</trkpt>
<trkpt lat="44.632183" lon="33.815407">
<ele>266.863525</ele>
<time>2011-10-10T09:46:37Z</time>
<desc>lat.=44.632183, lon.=33.815407, Alt.=266.863525m. Speed=7.560000m/h.</desc>
<speed>2.100000</speed>
</trkpt>
<trkpt lat="44.632256" lon="33.815495">
<ele>266.972900</ele>
<time>2011-10-10T09:46:42Z</time>
<desc>lat.=44.632256, lon.=33.815495, Alt.=266.972900m. Speed=5.724000m/h.</desc>
<speed>1.590000</speed>
</trkpt>
<trkpt lat="44.632320" lon="33.815628">
<ele>266.683838</ele>
<time>2011-10-10T09:46:47Z</time>
<desc>lat.=44.632320, lon.=33.815628, Alt.=266.683838m. Speed=6.624000m/h.</desc>
<speed>1.840000</speed>
</trkpt>
<trkpt lat="44.632362" lon="33.815716">
<ele>266.371338</ele>
<time>2011-10-10T09:46:52Z</time>
<desc>lat.=44.632362, lon.=33.815716, Alt.=266.371338m. Speed=0.396000m/h.</desc>
<speed>0.110000</speed>
</trkpt>
<trkpt lat="44.632381" lon="33.815727">
<ele>265.941650</ele>
<time>2011-10-10T09:46:57Z</time>
<desc>lat.=44.632381, lon.=33.815727, Alt.=265.941650m. Speed=1.224000m/h.</desc>
<speed>0.340000</speed>
</trkpt>
<trkpt lat="44.632385" lon="33.815731">
<ele>266.051025</ele>
<time>2011-10-10T09:47:02Z</time>
<desc>lat.=44.632385, lon.=33.815731, Alt.=266.051025m. Speed=0.504000m/h.</desc>
<speed>0.140000</speed>
</trkpt>
<trkpt lat="44.632385" lon="33.815742">
<ele>265.863525</ele>
<time>2011-10-10T09:47:07Z</time>
<desc>lat.=44.632385, lon.=33.815742, Alt.=265.863525m. Speed=0.612000m/h.</desc>
<speed>0.170000</speed>
</trkpt>
<trkpt lat="44.632393" lon="33.815750">
<ele>265.926025</ele>
<time>2011-10-10T09:47:12Z</time>
<desc>lat.=44.632393, lon.=33.815750, Alt.=265.926025m. Speed=0.252000m/h.</desc>
<speed>0.070000</speed>
</trkpt>
<trkpt lat="44.632389" lon="33.815750">
<ele>265.972900</ele>
<time>2011-10-10T09:47:17Z</time>
<desc>lat.=44.632389, lon.=33.815750, Alt.=265.972900m. Speed=0.396000m/h.</desc>
<speed>0.110000</speed>
</trkpt>
<trkpt lat="44.632389" lon="33.815750">
<ele>265.941650</ele>
<time>2011-10-10T09:47:22Z</time>
<desc>lat.=44.632389, lon.=33.815750, Alt.=265.941650m. Speed=0.072000m/h.</desc>
<speed>0.020000</speed>
</trkpt>
<trkpt lat="44.632389" lon="33.815750">
<ele>265.879150</ele>
<time>2011-10-10T09:47:27Z</time>
<desc>lat.=44.632389, lon.=33.815750, Alt.=265.879150m. Speed=0.000000m/h.</desc>
<speed>0.000000</speed>
</trkpt>
<trkpt lat="44.632389" lon="33.815750">
<ele>265.879150</ele>
<time>2011-10-10T09:47:32Z</time>
<desc>lat.=44.632389, lon.=33.815750, Alt.=265.879150m. Speed=0.036000m/h.</desc>
<speed>0.010000</speed>
</trkpt>
<trkpt lat="44.632389" lon="33.815750">
<ele>265.871338</ele>
<time>2011-10-10T09:47:37Z</time>
<desc>lat.=44.632389, lon.=33.815750, Alt.=265.871338m. Speed=0.216000m/h.</desc>
<speed>0.060000</speed>
</trkpt>
<trkpt lat="44.632389" lon="33.815750">
<ele>265.863525</ele>
<time>2011-10-10T09:47:42Z</time>
<desc>lat.=44.632389, lon.=33.815750, Alt.=265.863525m. Speed=2.916000m/h.</desc>
<speed>0.810000</speed>
</trkpt>
<trkpt lat="44.632370" lon="33.815777">
<ele>265.902588</ele>
<time>2011-10-10T09:47:47Z</time>
<desc>lat.=44.632370, lon.=33.815777, Alt.=265.902588m. Speed=2.592000m/h.</desc>
<speed>0.720000</speed>
</trkpt>
<trkpt lat="44.632317" lon="33.815807">
<ele>265.855713</ele>
<time>2011-10-10T09:47:52Z</time>
<desc>lat.=44.632317, lon.=33.815807, Alt.=265.855713m. Speed=5.148000m/h.</desc>
<speed>1.430000</speed>
</trkpt>
<trkpt lat="44.632263" lon="33.815868">
<ele>265.855713</ele>
<time>2011-10-10T09:47:57Z</time>
<desc>lat.=44.632263, lon.=33.815868, Alt.=265.855713m. Speed=3.528000m/h.</desc>
<speed>0.980000</speed>
</trkpt>
<trkpt lat="44.632229" lon="33.815956">
<ele>266.160400</ele>
<time>2011-10-10T09:48:02Z</time>
<desc>lat.=44.632229, lon.=33.815956, Alt.=266.160400m. Speed=5.112000m/h.</desc>
<speed>1.420000</speed>
</trkpt>
<trkpt lat="44.632168" lon="33.816063">
<ele>266.894775</ele>
<time>2011-10-10T09:48:07Z</time>
<desc>lat.=44.632168, lon.=33.816063, Alt.=266.894775m. Speed=4.716000m/h.</desc>
<speed>1.310000</speed>
</trkpt>
<trkpt lat="44.632072" lon="33.816193">
<ele>267.926025</ele>
<time>2011-10-10T09:48:12Z</time>
<desc>lat.=44.632072, lon.=33.816193, Alt.=267.926025m. Speed=7.776000m/h.</desc>
<speed>2.160000</speed>
</trkpt>
<trkpt lat="44.631989" lon="33.816357">
<ele>268.902588</ele>
<time>2011-10-10T09:48:17Z</time>
<desc>lat.=44.631989, lon.=33.816357, Alt.=268.902588m. Speed=10.404000m/h.</desc>
<speed>2.890000</speed>
</trkpt>
<trkpt lat="44.631905" lon="33.816486">
<ele>270.410400</ele>
<time>2011-10-10T09:48:22Z</time>
<desc>lat.=44.631905, lon.=33.816486, Alt.=270.410400m. Speed=8.856000m/h.</desc>
<speed>2.460000</speed>
</trkpt>
<trkpt lat="44.631817" lon="33.816605">
<ele>272.019775</ele>
<time>2011-10-10T09:48:27Z</time>
<desc>lat.=44.631817, lon.=33.816605, Alt.=272.019775m. Speed=9.900000m/h.</desc>
<speed>2.750000</speed>
</trkpt>
<trkpt lat="44.631714" lon="33.816738">
<ele>273.238525</ele>
<time>2011-10-10T09:48:32Z</time>
<desc>lat.=44.631714, lon.=33.816738, Alt.=273.238525m. Speed=9.396000m/h.</desc>
<speed>2.610000</speed>
</trkpt>
<trkpt lat="44.631641" lon="33.816860">
<ele>274.285400</ele>
<time>2011-10-10T09:48:37Z</time>
<desc>lat.=44.631641, lon.=33.816860, Alt.=274.285400m. Speed=8.424000m/h.</desc>
<speed>2.340000</speed>
</trkpt>
<trkpt lat="44.631565" lon="33.816952">
<ele>275.785400</ele>
<time>2011-10-10T09:48:42Z</time>
<desc>lat.=44.631565, lon.=33.816952, Alt.=275.785400m. Speed=7.776000m/h.</desc>
<speed>2.160000</speed>
</trkpt>
<trkpt lat="44.631485" lon="33.817066">
<ele>277.426025</ele>
<time>2011-10-10T09:48:47Z</time>
<desc>lat.=44.631485, lon.=33.817066, Alt.=277.426025m. Speed=9.108000m/h.</desc>
<speed>2.530000</speed>
</trkpt>
<trkpt lat="44.631413" lon="33.817154">
<ele>278.863525</ele>
<time>2011-10-10T09:48:52Z</time>
<desc>lat.=44.631413, lon.=33.817154, Alt.=278.863525m. Speed=7.812000m/h.</desc>
<speed>2.170000</speed>
</trkpt>
<trkpt lat="44.631329" lon="33.817223">
<ele>281.629150</ele>
<time>2011-10-10T09:48:57Z</time>
<desc>lat.=44.631329, lon.=33.817223, Alt.=281.629150m. Speed=6.768000m/h.</desc>
<speed>1.880000</speed>
</trkpt>
<trkpt lat="44.631237" lon="33.817318">
<ele>282.340088</ele>
<time>2011-10-10T09:49:02Z</time>
<desc>lat.=44.631237, lon.=33.817318, Alt.=282.340088m. Speed=7.020000m/h.</desc>
<speed>1.950000</speed>
</trkpt>
<trkpt lat="44.631165" lon="33.817410">
<ele>283.777588</ele>
<time>2011-10-10T09:49:07Z</time>
<desc>lat.=44.631165, lon.=33.817410, Alt.=283.777588m. Speed=5.544000m/h.</desc>
<speed>1.540000</speed>
</trkpt>
<trkpt lat="44.631111" lon="33.817478">
<ele>284.886963</ele>
<time>2011-10-10T09:49:12Z</time>
<desc>lat.=44.631111, lon.=33.817478, Alt.=284.886963m. Speed=4.248000m/h.</desc>
<speed>1.180000</speed>
</trkpt>
<trkpt lat="44.631054" lon="33.817532">
<ele>286.832275</ele>
<time>2011-10-10T09:49:17Z</time>
<desc>lat.=44.631054, lon.=33.817532, Alt.=286.832275m. Speed=5.796000m/h.</desc>
<speed>1.610000</speed>
</trkpt>
<trkpt lat="44.630985" lon="33.817593">
<ele>288.871338</ele>
<time>2011-10-10T09:49:22Z</time>
<desc>lat.=44.630985, lon.=33.817593, Alt.=288.871338m. Speed=3.744000m/h.</desc>
<speed>1.040000</speed>
</trkpt>
<trkpt lat="44.630898" lon="33.817665">
<ele>290.855713</ele>
<time>2011-10-10T09:49:27Z</time>
<desc>lat.=44.630898, lon.=33.817665, Alt.=290.855713m. Speed=6.768000m/h.</desc>
<speed>1.880000</speed>
</trkpt>
<trkpt lat="44.630829" lon="33.817734">
<ele>292.011963</ele>
<time>2011-10-10T09:49:32Z</time>
<desc>lat.=44.630829, lon.=33.817734, Alt.=292.011963m. Speed=6.264000m/h.</desc>
<speed>1.740000</speed>
</trkpt>
<trkpt lat="44.630749" lon="33.817806">
<ele>292.918213</ele>
<time>2011-10-10T09:49:37Z</time>
<desc>lat.=44.630749, lon.=33.817806, Alt.=292.918213m. Speed=7.236000m/h.</desc>
<speed>2.010000</speed>
</trkpt>
<trkpt lat="44.630657" lon="33.817875">
<ele>293.840088</ele>
<time>2011-10-10T09:49:42Z</time>
<desc>lat.=44.630657, lon.=33.817875, Alt.=293.840088m. Speed=4.500000m/h.</desc>
<speed>1.250000</speed>
</trkpt>
<trkpt lat="44.630562" lon="33.817932">
<ele>293.308838</ele>
<time>2011-10-10T09:49:47Z</time>
<desc>lat.=44.630562, lon.=33.817932, Alt.=293.308838m. Speed=6.732000m/h.</desc>
<speed>1.870000</speed>
</trkpt>
<trkpt lat="44.630493" lon="33.818016">
<ele>292.504150</ele>
<time>2011-10-10T09:49:52Z</time>
<desc>lat.=44.630493, lon.=33.818016, Alt.=292.504150m. Speed=7.344000m/h.</desc>
<speed>2.040000</speed>
</trkpt>
<trkpt lat="44.630405" lon="33.818085">
<ele>292.129150</ele>
<time>2011-10-10T09:49:57Z</time>
<desc>lat.=44.630405, lon.=33.818085, Alt.=292.129150m. Speed=6.156000m/h.</desc>
<speed>1.710000</speed>
</trkpt>
<trkpt lat="44.630352" lon="33.818172">
<ele>292.636963</ele>
<time>2011-10-10T09:50:02Z</time>
<desc>lat.=44.630352, lon.=33.818172, Alt.=292.636963m. Speed=5.436000m/h.</desc>
<speed>1.510000</speed>
</trkpt>
<trkpt lat="44.630276" lon="33.818268">
<ele>294.402588</ele>
<time>2011-10-10T09:50:07Z</time>
<desc>lat.=44.630276, lon.=33.818268, Alt.=294.402588m. Speed=6.948000m/h.</desc>
<speed>1.930000</speed>
</trkpt>
<trkpt lat="44.630222" lon="33.818336">
<ele>293.058838</ele>
<time>2011-10-10T09:50:12Z</time>
<desc>lat.=44.630222, lon.=33.818336, Alt.=293.058838m. Speed=6.696000m/h.</desc>
<speed>1.860000</speed>
</trkpt>
<trkpt lat="44.630154" lon="33.818382">
<ele>293.277588</ele>
<time>2011-10-10T09:50:17Z</time>
<desc>lat.=44.630154, lon.=33.818382, Alt.=293.277588m. Speed=3.348000m/h.</desc>
<speed>0.930000</speed>
</trkpt>
<trkpt lat="44.630085" lon="33.818451">
<ele>293.160400</ele>
<time>2011-10-10T09:50:22Z</time>
<desc>lat.=44.630085, lon.=33.818451, Alt.=293.160400m. Speed=7.308000m/h.</desc>
<speed>2.030000</speed>
</trkpt>
<trkpt lat="44.630024" lon="33.818531">
<ele>293.199463</ele>
<time>2011-10-10T09:50:27Z</time>
<desc>lat.=44.630024, lon.=33.818531, Alt.=293.199463m. Speed=5.328000m/h.</desc>
<speed>1.480000</speed>
</trkpt>
<trkpt lat="44.629951" lon="33.818607">
<ele>292.090088</ele>
<time>2011-10-10T09:50:32Z</time>
<desc>lat.=44.629951, lon.=33.818607, Alt.=292.090088m. Speed=6.300000m/h.</desc>
<speed>1.750000</speed>
</trkpt>
<trkpt lat="44.629902" lon="33.818687">
<ele>293.613525</ele>
<time>2011-10-10T09:50:37Z</time>
<desc>lat.=44.629902, lon.=33.818687, Alt.=293.613525m. Speed=7.200000m/h.</desc>
<speed>2.000000</speed>
</trkpt>
<trkpt lat="44.629848" lon="33.818745">
<ele>294.347900</ele>
<time>2011-10-10T09:50:42Z</time>
<desc>lat.=44.629848, lon.=33.818745, Alt.=294.347900m. Speed=5.256000m/h.</desc>
<speed>1.460000</speed>
</trkpt>
<trkpt lat="44.629791" lon="33.818810">
<ele>295.871338</ele>
<time>2011-10-10T09:50:47Z</time>
<desc>lat.=44.629791, lon.=33.818810, Alt.=295.871338m. Speed=5.400000m/h.</desc>
<speed>1.500000</speed>
</trkpt>
<trkpt lat="44.629719" lon="33.818886">
<ele>297.144775</ele>
<time>2011-10-10T09:50:52Z</time>
<desc>lat.=44.629719, lon.=33.818886, Alt.=297.144775m. Speed=4.752000m/h.</desc>
<speed>1.320000</speed>
</trkpt>
<trkpt lat="44.629654" lon="33.818954">
<ele>298.269775</ele>
<time>2011-10-10T09:50:57Z</time>
<desc>lat.=44.629654, lon.=33.818954, Alt.=298.269775m. Speed=2.412000m/h.</desc>
<speed>0.670000</speed>
</trkpt>
<trkpt lat="44.629589" lon="33.819023">
<ele>298.597900</ele>
<time>2011-10-10T09:51:02Z</time>
<desc>lat.=44.629589, lon.=33.819023, Alt.=298.597900m. Speed=4.392000m/h.</desc>
<speed>1.220000</speed>
</trkpt>
<trkpt lat="44.629513" lon="33.819096">
<ele>299.316650</ele>
<time>2011-10-10T09:51:07Z</time>
<desc>lat.=44.629513, lon.=33.819096, Alt.=299.316650m. Speed=2.844000m/h.</desc>
<speed>0.790000</speed>
</trkpt>
<trkpt lat="44.629463" lon="33.819183">
<ele>299.043213</ele>
<time>2011-10-10T09:51:12Z</time>
<desc>lat.=44.629463, lon.=33.819183, Alt.=299.043213m. Speed=2.340000m/h.</desc>
<speed>0.650000</speed>
</trkpt>
<trkpt lat="44.629440" lon="33.819229">
<ele>299.926025</ele>
<time>2011-10-10T09:51:17Z</time>
<desc>lat.=44.629440, lon.=33.819229, Alt.=299.926025m. Speed=3.564000m/h.</desc>
<speed>0.990000</speed>
</trkpt>
<trkpt lat="44.629391" lon="33.819286">
<ele>301.363525</ele>
<time>2011-10-10T09:51:22Z</time>
<desc>lat.=44.629391, lon.=33.819286, Alt.=301.363525m. Speed=5.544000m/h.</desc>
<speed>1.540000</speed>
</trkpt>
<trkpt lat="44.629360" lon="33.819313">
<ele>302.902588</ele>
<time>2011-10-10T09:51:27Z</time>
<desc>lat.=44.629360, lon.=33.819313, Alt.=302.902588m. Speed=4.104000m/h.</desc>
<speed>1.140000</speed>
</trkpt>
<trkpt lat="44.629303" lon="33.819363">
<ele>304.511963</ele>
<time>2011-10-10T09:51:32Z</time>
<desc>lat.=44.629303, lon.=33.819363, Alt.=304.511963m. Speed=5.436000m/h.</desc>
<speed>1.510000</speed>
</trkpt>
<trkpt lat="44.629234" lon="33.819397">
<ele>305.629150</ele>
<time>2011-10-10T09:51:37Z</time>
<desc>lat.=44.629234, lon.=33.819397, Alt.=305.629150m. Speed=8.388000m/h.</desc>
<speed>2.330000</speed>
</trkpt>
<trkpt lat="44.629162" lon="33.819466">
<ele>306.347900</ele>
<time>2011-10-10T09:51:42Z</time>
<desc>lat.=44.629162, lon.=33.819466, Alt.=306.347900m. Speed=5.580000m/h.</desc>
<speed>1.550000</speed>
</trkpt>
<trkpt lat="44.629124" lon="33.819515">
<ele>307.668213</ele>
<time>2011-10-10T09:51:47Z</time>
<desc>lat.=44.629124, lon.=33.819515, Alt.=307.668213m. Speed=2.880000m/h.</desc>
<speed>0.800000</speed>
</trkpt>
<trkpt lat="44.629051" lon="33.819569">
<ele>308.402588</ele>
<time>2011-10-10T09:51:52Z</time>
<desc>lat.=44.629051, lon.=33.819569, Alt.=308.402588m. Speed=5.040000m/h.</desc>
<speed>1.400000</speed>
</trkpt>
<trkpt lat="44.628983" lon="33.819633">
<ele>309.699463</ele>
<time>2011-10-10T09:51:57Z</time>
<desc>lat.=44.628983, lon.=33.819633, Alt.=309.699463m. Speed=3.132000m/h.</desc>
<speed>0.870000</speed>
</trkpt>
<trkpt lat="44.628906" lon="33.819710">
<ele>311.035400</ele>
<time>2011-10-10T09:52:02Z</time>
<desc>lat.=44.628906, lon.=33.819710, Alt.=311.035400m. Speed=5.256000m/h.</desc>
<speed>1.460000</speed>
</trkpt>
<trkpt lat="44.628845" lon="33.819786">
<ele>312.613525</ele>
<time>2011-10-10T09:52:07Z</time>
<desc>lat.=44.628845, lon.=33.819786, Alt.=312.613525m. Speed=4.896000m/h.</desc>
<speed>1.360000</speed>
</trkpt>
<trkpt lat="44.628792" lon="33.819836">
<ele>313.715088</ele>
<time>2011-10-10T09:52:12Z</time>
<desc>lat.=44.628792, lon.=33.819836, Alt.=313.715088m. Speed=3.780000m/h.</desc>
<speed>1.050000</speed>
</trkpt>
<trkpt lat="44.628754" lon="33.819904">
<ele>315.590088</ele>
<time>2011-10-10T09:52:17Z</time>
<desc>lat.=44.628754, lon.=33.819904, Alt.=315.590088m. Speed=5.112000m/h.</desc>
<speed>1.420000</speed>
</trkpt>
<trkpt lat="44.628700" lon="33.819996">
<ele>315.597900</ele>
<time>2011-10-10T09:52:22Z</time>
<desc>lat.=44.628700, lon.=33.819996, Alt.=315.597900m. Speed=6.768000m/h.</desc>
<speed>1.880000</speed>
</trkpt>
<trkpt lat="44.628624" lon="33.820068">
<ele>315.840088</ele>
<time>2011-10-10T09:52:27Z</time>
<desc>lat.=44.628624, lon.=33.820068, Alt.=315.840088m. Speed=4.968000m/h.</desc>
<speed>1.380000</speed>
</trkpt>
<trkpt lat="44.628551" lon="33.820133">
<ele>316.261963</ele>
<time>2011-10-10T09:52:32Z</time>
<desc>lat.=44.628551, lon.=33.820133, Alt.=316.261963m. Speed=6.876000m/h.</desc>
<speed>1.910000</speed>
</trkpt>
<trkpt lat="44.628502" lon="33.820190">
<ele>317.683838</ele>
<time>2011-10-10T09:52:37Z</time>
<desc>lat.=44.628502, lon.=33.820190, Alt.=317.683838m. Speed=3.420000m/h.</desc>
<speed>0.950000</speed>
</trkpt>
<trkpt lat="44.628418" lon="33.820244">
<ele>315.590088</ele>
<time>2011-10-10T09:52:42Z</time>
<desc>lat.=44.628418, lon.=33.820244, Alt.=315.590088m. Speed=3.888000m/h.</desc>
<speed>1.080000</speed>
</trkpt>
<trkpt lat="44.628334" lon="33.820305">
<ele>312.746338</ele>
<time>2011-10-10T09:52:47Z</time>
<desc>lat.=44.628334, lon.=33.820305, Alt.=312.746338m. Speed=4.644000m/h.</desc>
<speed>1.290000</speed>
</trkpt>
<trkpt lat="44.628246" lon="33.820358">
<ele>310.636963</ele>
<time>2011-10-10T09:52:52Z</time>
<desc>lat.=44.628246, lon.=33.820358, Alt.=310.636963m. Speed=6.408000m/h.</desc>
<speed>1.780000</speed>
</trkpt>
<trkpt lat="44.628166" lon="33.820423">
<ele>308.371338</ele>
<time>2011-10-10T09:52:57Z</time>
<desc>lat.=44.628166, lon.=33.820423, Alt.=308.371338m. Speed=5.472000m/h.</desc>
<speed>1.520000</speed>
</trkpt>
<trkpt lat="44.628143" lon="33.820477">
<ele>307.613525</ele>
<time>2011-10-10T09:53:02Z</time>
<desc>lat.=44.628143, lon.=33.820477, Alt.=307.613525m. Speed=0.288000m/h.</desc>
<speed>0.080000</speed>
</trkpt>
<trkpt lat="44.628132" lon="33.820477">
<ele>306.761963</ele>
<time>2011-10-10T09:53:07Z</time>
<desc>lat.=44.628132, lon.=33.820477, Alt.=306.761963m. Speed=0.288000m/h.</desc>
<speed>0.080000</speed>
</trkpt>
<trkpt lat="44.628128" lon="33.820480">
<ele>306.722900</ele>
<time>2011-10-10T09:53:12Z</time>
<desc>lat.=44.628128, lon.=33.820480, Alt.=306.722900m. Speed=0.324000m/h.</desc>
<speed>0.090000</speed>
</trkpt>
<trkpt lat="44.628124" lon="33.820484">
<ele>306.699463</ele>
<time>2011-10-10T09:53:17Z</time>
<desc>lat.=44.628124, lon.=33.820484, Alt.=306.699463m. Speed=0.288000m/h.</desc>
<speed>0.080000</speed>
</trkpt>
<trkpt lat="44.628120" lon="33.820484">
<ele>306.691650</ele>
<time>2011-10-10T09:53:22Z</time>
<desc>lat.=44.628120, lon.=33.820484, Alt.=306.691650m. Speed=0.144000m/h.</desc>
<speed>0.040000</speed>
</trkpt>
<trkpt lat="44.628117" lon="33.820480">
<ele>306.699463</ele>
<time>2011-10-10T09:53:27Z</time>
<desc>lat.=44.628117, lon.=33.820480, Alt.=306.699463m. Speed=0.576000m/h.</desc>
<speed>0.160000</speed>
</trkpt>
<trkpt lat="44.628109" lon="33.820473">
<ele>306.722900</ele>
<time>2011-10-10T09:53:32Z</time>
<desc>lat.=44.628109, lon.=33.820473, Alt.=306.722900m. Speed=0.648000m/h.</desc>
<speed>0.180000</speed>
</trkpt>
<trkpt lat="44.628109" lon="33.820488">
<ele>306.715088</ele>
<time>2011-10-10T09:53:37Z</time>
<desc>lat.=44.628109, lon.=33.820488, Alt.=306.715088m. Speed=0.360000m/h.</desc>
<speed>0.100000</speed>
</trkpt>
<trkpt lat="44.628109" lon="33.820484">
<ele>306.886963</ele>
<time>2011-10-10T09:53:42Z</time>
<desc>lat.=44.628109, lon.=33.820484, Alt.=306.886963m. Speed=0.396000m/h.</desc>
<speed>0.110000</speed>
</trkpt>
<trkpt lat="44.628113" lon="33.820484">
<ele>306.941650</ele>
<time>2011-10-10T09:53:47Z</time>
<desc>lat.=44.628113, lon.=33.820484, Alt.=306.941650m. Speed=0.144000m/h.</desc>
<speed>0.040000</speed>
</trkpt>
<trkpt lat="44.628113" lon="33.820477">
<ele>306.988525</ele>
<time>2011-10-10T09:53:52Z</time>
<desc>lat.=44.628113, lon.=33.820477, Alt.=306.988525m. Speed=0.288000m/h.</desc>
<speed>0.080000</speed>
</trkpt>
<trkpt lat="44.628117" lon="33.820477">
<ele>307.074463</ele>
<time>2011-10-10T09:53:57Z</time>
<desc>lat.=44.628117, lon.=33.820477, Alt.=307.074463m. Speed=0.216000m/h.</desc>
<speed>0.060000</speed>
</trkpt>
<trkpt lat="44.628117" lon="33.820473">
<ele>307.074463</ele>
<time>2011-10-10T09:54:02Z</time>
<desc>lat.=44.628117, lon.=33.820473, Alt.=307.074463m. Speed=3.348000m/h.</desc>
<speed>0.930000</speed>
</trkpt>
<trkpt lat="44.628098" lon="33.820442">
<ele>306.746338</ele>
<time>2011-10-10T09:54:07Z</time>
<desc>lat.=44.628098, lon.=33.820442, Alt.=306.746338m. Speed=0.324000m/h.</desc>
<speed>0.090000</speed>
</trkpt>
<trkpt lat="44.628094" lon="33.820446">
<ele>305.574463</ele>
<time>2011-10-10T09:54:12Z</time>
<desc>lat.=44.628094, lon.=33.820446, Alt.=305.574463m. Speed=0.000000m/h.</desc>
<speed>0.000000</speed>
</trkpt>
<trkpt lat="44.628094" lon="33.820446">
<ele>305.558838</ele>
<time>2011-10-10T09:54:17Z</time>
<desc>lat.=44.628094, lon.=33.820446, Alt.=305.558838m. Speed=0.000000m/h.</desc>
<speed>0.000000</speed>
</trkpt>
<trkpt lat="44.628094" lon="33.820446">
<ele>305.527588</ele>
<time>2011-10-10T09:54:22Z</time>
<desc>lat.=44.628094, lon.=33.820446, Alt.=305.527588m. Speed=0.000000m/h.</desc>
<speed>0.000000</speed>
</trkpt>
<trkpt lat="44.628094" lon="33.820446">
<ele>305.527588</ele>
<time>2011-10-10T09:54:27Z</time>
<desc>lat.=44.628094, lon.=33.820446, Alt.=305.527588m. Speed=0.000000m/h.</desc>
<speed>0.000000</speed>
</trkpt>
<trkpt lat="44.628094" lon="33.820446">
<ele>305.519775</ele>
<time>2011-10-10T09:54:32Z</time>
<desc>lat.=44.628094, lon.=33.820446, Alt.=305.519775m. Speed=0.000000m/h.</desc>
<speed>0.000000</speed>
</trkpt>
<trkpt lat="44.628094" lon="33.820446">
<ele>305.511963</ele>
<time>2011-10-10T09:54:37Z</time>
<desc>lat.=44.628094, lon.=33.820446, Alt.=305.511963m. Speed=0.000000m/h.</desc>
<speed>0.000000</speed>
</trkpt>
<trkpt lat="44.628094" lon="33.820446">
<ele>305.496338</ele>
<time>2011-10-10T09:54:42Z</time>
<desc>lat.=44.628094, lon.=33.820446, Alt.=305.496338m. Speed=0.000000m/h.</desc>
<speed>0.000000</speed>
</trkpt>
<trkpt lat="44.628094" lon="33.820446">
<ele>305.504150</ele>
<time>2011-10-10T09:54:47Z</time>
<desc>lat.=44.628094, lon.=33.820446, Alt.=305.504150m. Speed=0.000000m/h.</desc>
<speed>0.000000</speed>
</trkpt>
<trkpt lat="44.628094" lon="33.820446">
<ele>305.496338</ele>
<time>2011-10-10T09:54:52Z</time>
<desc>lat.=44.628094, lon.=33.820446, Alt.=305.496338m. Speed=0.036000m/h.</desc>
<speed>0.010000</speed>
</trkpt>
<trkpt lat="44.628094" lon="33.820446">
<ele>305.488525</ele>
<time>2011-10-10T09:54:57Z</time>
<desc>lat.=44.628094, lon.=33.820446, Alt.=305.488525m. Speed=0.000000m/h.</desc>
<speed>0.000000</speed>
</trkpt>
<trkpt lat="44.628094" lon="33.820446">
<ele>305.488525</ele>
<time>2011-10-10T09:55:02Z</time>
<desc>lat.=44.628094, lon.=33.820446, Alt.=305.488525m. Speed=0.000000m/h.</desc>
<speed>0.000000</speed>
</trkpt>
<trkpt lat="44.628094" lon="33.820446">
<ele>305.480713</ele>
<time>2011-10-10T09:55:07Z</time>
<desc>lat.=44.628094, lon.=33.820446, Alt.=305.480713m. Speed=0.000000m/h.</desc>
<speed>0.000000</speed>
</trkpt>
<trkpt lat="44.628094" lon="33.820446">
<ele>305.472900</ele>
<time>2011-10-10T09:55:12Z</time>
<desc>lat.=44.628094, lon.=33.820446, Alt.=305.472900m. Speed=0.000000m/h.</desc>
<speed>0.000000</speed>
</trkpt>
<trkpt lat="44.628094" lon="33.820446">
<ele>305.457275</ele>
<time>2011-10-10T09:55:17Z</time>
<desc>lat.=44.628094, lon.=33.820446, Alt.=305.457275m. Speed=0.000000m/h.</desc>
<speed>0.000000</speed>
</trkpt>
<trkpt lat="44.628094" lon="33.820446">
<ele>305.457275</ele>
<time>2011-10-10T09:55:22Z</time>
<desc>lat.=44.628094, lon.=33.820446, Alt.=305.457275m. Speed=0.072000m/h.</desc>
<speed>0.020000</speed>
</trkpt>
<trkpt lat="44.628094" lon="33.820446">
<ele>305.449463</ele>
<time>2011-10-10T09:55:27Z</time>
<desc>lat.=44.628094, lon.=33.820446, Alt.=305.449463m. Speed=0.036000m/h.</desc>
<speed>0.010000</speed>
</trkpt>
<trkpt lat="44.628094" lon="33.820446">
<ele>305.433838</ele>
<time>2011-10-10T09:55:32Z</time>
<desc>lat.=44.628094, lon.=33.820446, Alt.=305.433838m. Speed=0.000000m/h.</desc>
<speed>0.000000</speed>
</trkpt>
<trkpt lat="44.628094" lon="33.820446">
<ele>305.433838</ele>
<time>2011-10-10T09:55:37Z</time>
<desc>lat.=44.628094, lon.=33.820446, Alt.=305.433838m. Speed=0.000000m/h.</desc>
<speed>0.000000</speed>
</trkpt>
<trkpt lat="44.628094" lon="33.820446">
<ele>305.433838</ele>
<time>2011-10-10T09:55:42Z</time>
<desc>lat.=44.628094, lon.=33.820446, Alt.=305.433838m. Speed=0.000000m/h.</desc>
<speed>0.000000</speed>
</trkpt>
<trkpt lat="44.628094" lon="33.820446">
<ele>305.433838</ele>
<time>2011-10-10T09:55:47Z</time>
<desc>lat.=44.628094, lon.=33.820446, Alt.=305.433838m. Speed=0.000000m/h.</desc>
<speed>0.000000</speed>
</trkpt>
<trkpt lat="44.628094" lon="33.820446">
<ele>305.426025</ele>
<time>2011-10-10T09:55:52Z</time>
<desc>lat.=44.628094, lon.=33.820446, Alt.=305.426025m. Speed=0.000000m/h.</desc>
<speed>0.000000</speed>
</trkpt>
<trkpt lat="44.628094" lon="33.820446">
<ele>305.418213</ele>
<time>2011-10-10T09:55:57Z</time>
<desc>lat.=44.628094, lon.=33.820446, Alt.=305.418213m. Speed=0.000000m/h.</desc>
<speed>0.000000</speed>
</trkpt>
<trkpt lat="44.628094" lon="33.820446">
<ele>305.410400</ele>
<time>2011-10-10T09:56:02Z</time>
<desc>lat.=44.628094, lon.=33.820446, Alt.=305.410400m. Speed=0.000000m/h.</desc>
<speed>0.000000</speed>
</trkpt>
<trkpt lat="44.628094" lon="33.820446">
<ele>305.394775</ele>
<time>2011-10-10T09:56:07Z</time>
<desc>lat.=44.628094, lon.=33.820446, Alt.=305.394775m. Speed=0.000000m/h.</desc>
<speed>0.000000</speed>
</trkpt>
<trkpt lat="44.628094" lon="33.820446">
<ele>305.386963</ele>
<time>2011-10-10T09:56:12Z</time>
<desc>lat.=44.628094, lon.=33.820446, Alt.=305.386963m. Speed=0.000000m/h.</desc>
<speed>0.000000</speed>
</trkpt>
<trkpt lat="44.628094" lon="33.820446">
<ele>305.379150</ele>
<time>2011-10-10T09:56:17Z</time>
<desc>lat.=44.628094, lon.=33.820446, Alt.=305.379150m. Speed=0.000000m/h.</desc>
<speed>0.000000</speed>
</trkpt>
<trkpt lat="44.628098" lon="33.820442">
<ele>305.371338</ele>
<time>2011-10-10T09:56:22Z</time>
<desc>lat.=44.628098, lon.=33.820442, Alt.=305.371338m. Speed=0.036000m/h.</desc>
<speed>0.010000</speed>
</trkpt>
<trkpt lat="44.628098" lon="33.820442">
<ele>305.363525</ele>
<time>2011-10-10T09:56:27Z</time>
<desc>lat.=44.628098, lon.=33.820442, Alt.=305.363525m. Speed=0.000000m/h.</desc>
<speed>0.000000</speed>
</trkpt>
<trkpt lat="44.628098" lon="33.820442">
<ele>305.355713</ele>
<time>2011-10-10T09:56:32Z</time>
<desc>lat.=44.628098, lon.=33.820442, Alt.=305.355713m. Speed=0.072000m/h.</desc>
<speed>0.020000</speed>
</trkpt>
<trkpt lat="44.628098" lon="33.820442">
<ele>305.347900</ele>
<time>2011-10-10T09:56:37Z</time>
<desc>lat.=44.628098, lon.=33.820442, Alt.=305.347900m. Speed=0.072000m/h.</desc>
<speed>0.020000</speed>
</trkpt>
<trkpt lat="44.628098" lon="33.820442">
<ele>305.347900</ele>
<time>2011-10-10T09:56:42Z</time>
<desc>lat.=44.628098, lon.=33.820442, Alt.=305.347900m. Speed=0.000000m/h.</desc>
<speed>0.000000</speed>
</trkpt>
<trkpt lat="44.628098" lon="33.820442">
<ele>305.363525</ele>
<time>2011-10-10T09:56:47Z</time>
<desc>lat.=44.628098, lon.=33.820442, Alt.=305.363525m. Speed=0.036000m/h.</desc>
<speed>0.010000</speed>
</trkpt>
<trkpt lat="44.628098" lon="33.820442">
<ele>305.371338</ele>
<time>2011-10-10T09:56:52Z</time>
<desc>lat.=44.628098, lon.=33.820442, Alt.=305.371338m. Speed=0.072000m/h.</desc>
<speed>0.020000</speed>
</trkpt>
<trkpt lat="44.628098" lon="33.820442">
<ele>305.363525</ele>
<time>2011-10-10T09:56:57Z</time>
<desc>lat.=44.628098, lon.=33.820442, Alt.=305.363525m. Speed=0.000000m/h.</desc>
<speed>0.000000</speed>
</trkpt>
<trkpt lat="44.628098" lon="33.820442">
<ele>305.332275</ele>
<time>2011-10-10T09:57:02Z</time>
<desc>lat.=44.628098, lon.=33.820442, Alt.=305.332275m. Speed=0.000000m/h.</desc>
<speed>0.000000</speed>
</trkpt>
<trkpt lat="44.628098" lon="33.820442">
<ele>305.308838</ele>
<time>2011-10-10T09:57:07Z</time>
<desc>lat.=44.628098, lon.=33.820442, Alt.=305.308838m. Speed=0.000000m/h.</desc>
<speed>0.000000</speed>
</trkpt>
<trkpt lat="44.628098" lon="33.820442">
<ele>305.285400</ele>
<time>2011-10-10T09:57:12Z</time>
<desc>lat.=44.628098, lon.=33.820442, Alt.=305.285400m. Speed=0.036000m/h.</desc>
<speed>0.010000</speed>
</trkpt>
<trkpt lat="44.628098" lon="33.820442">
<ele>305.261963</ele>
<time>2011-10-10T09:57:17Z</time>
<desc>lat.=44.628098, lon.=33.820442, Alt.=305.261963m. Speed=0.000000m/h.</desc>
<speed>0.000000</speed>
</trkpt>
<trkpt lat="44.628098" lon="33.820442">
<ele>305.246338</ele>
<time>2011-10-10T09:57:22Z</time>
<desc>lat.=44.628098, lon.=33.820442, Alt.=305.246338m. Speed=0.000000m/h.</desc>
<speed>0.000000</speed>
</trkpt>
<trkpt lat="44.628098" lon="33.820442">
<ele>305.222900</ele>
<time>2011-10-10T09:57:27Z</time>
<desc>lat.=44.628098, lon.=33.820442, Alt.=305.222900m. Speed=0.000000m/h.</desc>
<speed>0.000000</speed>
</trkpt>
<trkpt lat="44.628098" lon="33.820442">
<ele>305.215088</ele>
<time>2011-10-10T09:57:32Z</time>
<desc>lat.=44.628098, lon.=33.820442, Alt.=305.215088m. Speed=0.000000m/h.</desc>
<speed>0.000000</speed>
</trkpt>
<trkpt lat="44.628098" lon="33.820442">
<ele>305.238525</ele>
<time>2011-10-10T09:57:37Z</time>
<desc>lat.=44.628098, lon.=33.820442, Alt.=305.238525m. Speed=0.000000m/h.</desc>
<speed>0.000000</speed>
</trkpt>
<trkpt lat="44.628094" lon="33.820442">
<ele>305.293213</ele>
<time>2011-10-10T09:57:42Z</time>
<desc>lat.=44.628094, lon.=33.820442, Alt.=305.293213m. Speed=0.000000m/h.</desc>
<speed>0.000000</speed>
</trkpt>
<trkpt lat="44.628094" lon="33.820438">
<ele>305.324463</ele>
<time>2011-10-10T09:57:47Z</time>
<desc>lat.=44.628094, lon.=33.820438, Alt.=305.324463m. Speed=0.000000m/h.</desc>
<speed>0.000000</speed>
</trkpt>
<trkpt lat="44.628094" lon="33.820438">
<ele>305.308838</ele>
<time>2011-10-10T09:57:52Z</time>
<desc>lat.=44.628094, lon.=33.820438, Alt.=305.308838m. Speed=0.036000m/h.</desc>
<speed>0.010000</speed>
</trkpt>
<trkpt lat="44.628094" lon="33.820438">
<ele>305.293213</ele>
<time>2011-10-10T09:57:57Z</time>
<desc>lat.=44.628094, lon.=33.820438, Alt.=305.293213m. Speed=0.000000m/h.</desc>
<speed>0.000000</speed>
</trkpt>
<trkpt lat="44.628094" lon="33.820438">
<ele>305.301025</ele>
<time>2011-10-10T09:58:02Z</time>
<desc>lat.=44.628094, lon.=33.820438, Alt.=305.301025m. Speed=0.000000m/h.</desc>
<speed>0.000000</speed>
</trkpt>
<trkpt lat="44.628094" lon="33.820438">
<ele>305.301025</ele>
<time>2011-10-10T09:58:07Z</time>
<desc>lat.=44.628094, lon.=33.820438, Alt.=305.301025m. Speed=0.000000m/h.</desc>
<speed>0.000000</speed>
</trkpt>
<trkpt lat="44.628094" lon="33.820438">
<ele>305.293213</ele>
<time>2011-10-10T09:58:12Z</time>
<desc>lat.=44.628094, lon.=33.820438, Alt.=305.293213m. Speed=0.000000m/h.</desc>
<speed>0.000000</speed>
</trkpt>
<trkpt lat="44.628094" lon="33.820438">
<ele>305.285400</ele>
<time>2011-10-10T09:58:17Z</time>
<desc>lat.=44.628094, lon.=33.820438, Alt.=305.285400m. Speed=0.000000m/h.</desc>
<speed>0.000000</speed>
</trkpt>
<trkpt lat="44.628094" lon="33.820438">
<ele>305.261963</ele>
<time>2011-10-10T09:58:22Z</time>
<desc>lat.=44.628094, lon.=33.820438, Alt.=305.261963m. Speed=0.000000m/h.</desc>
<speed>0.000000</speed>
</trkpt>
<trkpt lat="44.628094" lon="33.820438">
<ele>305.246338</ele>
<time>2011-10-10T09:58:27Z</time>
<desc>lat.=44.628094, lon.=33.820438, Alt.=305.246338m. Speed=0.000000m/h.</desc>
<speed>0.000000</speed>
</trkpt>
<trkpt lat="44.628094" lon="33.820438">
<ele>305.230713</ele>
<time>2011-10-10T09:58:32Z</time>
<desc>lat.=44.628094, lon.=33.820438, Alt.=305.230713m. Speed=0.000000m/h.</desc>
<speed>0.000000</speed>
</trkpt>
<trkpt lat="44.628094" lon="33.820438">
<ele>305.215088</ele>
<time>2011-10-10T09:58:37Z</time>
<desc>lat.=44.628094, lon.=33.820438, Alt.=305.215088m. Speed=0.000000m/h.</desc>
<speed>0.000000</speed>
</trkpt>
<trkpt lat="44.628094" lon="33.820438">
<ele>305.191650</ele>
<time>2011-10-10T09:58:42Z</time>
<desc>lat.=44.628094, lon.=33.820438, Alt.=305.191650m. Speed=0.000000m/h.</desc>
<speed>0.000000</speed>
</trkpt>
<trkpt lat="44.628094" lon="33.820438">
<ele>305.168213</ele>
<time>2011-10-10T09:58:47Z</time>
<desc>lat.=44.628094, lon.=33.820438, Alt.=305.168213m. Speed=0.000000m/h.</desc>
<speed>0.000000</speed>
</trkpt>
<trkpt lat="44.628094" lon="33.820438">
<ele>305.152588</ele>
<time>2011-10-10T09:58:52Z</time>
<desc>lat.=44.628094, lon.=33.820438, Alt.=305.152588m. Speed=0.000000m/h.</desc>
<speed>0.000000</speed>
</trkpt>
<trkpt lat="44.628094" lon="33.820438">
<ele>305.136963</ele>
<time>2011-10-10T09:58:57Z</time>
<desc>lat.=44.628094, lon.=33.820438, Alt.=305.136963m. Speed=0.000000m/h.</desc>
<speed>0.000000</speed>
</trkpt>
<trkpt lat="44.628094" lon="33.820438">
<ele>305.113525</ele>
<time>2011-10-10T09:59:02Z</time>
<desc>lat.=44.628094, lon.=33.820438, Alt.=305.113525m. Speed=0.036000m/h.</desc>
<speed>0.010000</speed>
</trkpt>
<trkpt lat="44.628094" lon="33.820438">
<ele>305.105713</ele>
<time>2011-10-10T09:59:07Z</time>
<desc>lat.=44.628094, lon.=33.820438, Alt.=305.105713m. Speed=0.000000m/h.</desc>
<speed>0.000000</speed>
</trkpt>
<trkpt lat="44.628094" lon="33.820438">
<ele>305.082275</ele>
<time>2011-10-10T09:59:12Z</time>
<desc>lat.=44.628094, lon.=33.820438, Alt.=305.082275m. Speed=0.000000m/h.</desc>
<speed>0.000000</speed>
</trkpt>
<trkpt lat="44.628094" lon="33.820438">
<ele>305.074463</ele>
<time>2011-10-10T09:59:17Z</time>
<desc>lat.=44.628094, lon.=33.820438, Alt.=305.074463m. Speed=0.000000m/h.</desc>
<speed>0.000000</speed>
</trkpt>
<trkpt lat="44.628094" lon="33.820438">
<ele>305.066650</ele>
<time>2011-10-10T09:59:22Z</time>
<desc>lat.=44.628094, lon.=33.820438, Alt.=305.066650m. Speed=0.000000m/h.</desc>
<speed>0.000000</speed>
</trkpt>
<trkpt lat="44.628094" lon="33.820438">
<ele>305.082275</ele>
<time>2011-10-10T09:59:27Z</time>
<desc>lat.=44.628094, lon.=33.820438, Alt.=305.082275m. Speed=0.000000m/h.</desc>
<speed>0.000000</speed>
</trkpt>
<trkpt lat="44.628094" lon="33.820438">
<ele>305.090088</ele>
<time>2011-10-10T09:59:32Z</time>
<desc>lat.=44.628094, lon.=33.820438, Alt.=305.090088m. Speed=0.000000m/h.</desc>
<speed>0.000000</speed>
</trkpt>
<trkpt lat="44.628094" lon="33.820438">
<ele>305.113525</ele>
<time>2011-10-10T09:59:37Z</time>
<desc>lat.=44.628094, lon.=33.820438, Alt.=305.113525m. Speed=0.000000m/h.</desc>
<speed>0.000000</speed>
</trkpt>
<trkpt lat="44.628094" lon="33.820435">
<ele>305.136963</ele>
<time>2011-10-10T09:59:42Z</time>
<desc>lat.=44.628094, lon.=33.820435, Alt.=305.136963m. Speed=0.000000m/h.</desc>
<speed>0.000000</speed>
</trkpt>
<trkpt lat="44.628094" lon="33.820435">
<ele>305.160400</ele>
<time>2011-10-10T09:59:47Z</time>
<desc>lat.=44.628094, lon.=33.820435, Alt.=305.160400m. Speed=0.000000m/h.</desc>
<speed>0.000000</speed>
</trkpt>
<trkpt lat="44.628094" lon="33.820435">
<ele>305.183838</ele>
<time>2011-10-10T09:59:52Z</time>
<desc>lat.=44.628094, lon.=33.820435, Alt.=305.183838m. Speed=0.036000m/h.</desc>
<speed>0.010000</speed>
</trkpt>
<trkpt lat="44.628098" lon="33.820435">
<ele>305.207275</ele>
<time>2011-10-10T09:59:57Z</time>
<desc>lat.=44.628098, lon.=33.820435, Alt.=305.207275m. Speed=0.036000m/h.</desc>
<speed>0.010000</speed>
</trkpt>
<trkpt lat="44.628098" lon="33.820438">
<ele>305.222900</ele>
<time>2011-10-10T10:00:02Z</time>
<desc>lat.=44.628098, lon.=33.820438, Alt.=305.222900m. Speed=0.036000m/h.</desc>
<speed>0.010000</speed>
</trkpt>
<trkpt lat="44.628098" lon="33.820438">
<ele>305.222900</ele>
<time>2011-10-10T10:00:07Z</time>
<desc>lat.=44.628098, lon.=33.820438, Alt.=305.222900m. Speed=0.000000m/h.</desc>
<speed>0.000000</speed>
</trkpt>
<trkpt lat="44.628098" lon="33.820438">
<ele>305.222900</ele>
<time>2011-10-10T10:00:12Z</time>
<desc>lat.=44.628098, lon.=33.820438, Alt.=305.222900m. Speed=0.036000m/h.</desc>
<speed>0.010000</speed>
</trkpt>
<trkpt lat="44.628098" lon="33.820438">
<ele>305.199463</ele>
<time>2011-10-10T10:00:17Z</time>
<desc>lat.=44.628098, lon.=33.820438, Alt.=305.199463m. Speed=0.036000m/h.</desc>
<speed>0.010000</speed>
</trkpt>
<trkpt lat="44.628098" lon="33.820438">
<ele>305.183838</ele>
<time>2011-10-10T10:00:22Z</time>
<desc>lat.=44.628098, lon.=33.820438, Alt.=305.183838m. Speed=0.108000m/h.</desc>
<speed>0.030000</speed>
</trkpt>
<trkpt lat="44.628098" lon="33.820442">
<ele>305.183838</ele>
<time>2011-10-10T10:00:27Z</time>
<desc>lat.=44.628098, lon.=33.820442, Alt.=305.183838m. Speed=0.072000m/h.</desc>
<speed>0.020000</speed>
</trkpt>
<trkpt lat="44.628098" lon="33.820442">
<ele>305.215088</ele>
<time>2011-10-10T10:00:32Z</time>
<desc>lat.=44.628098, lon.=33.820442, Alt.=305.215088m. Speed=0.000000m/h.</desc>
<speed>0.000000</speed>
</trkpt>
<trkpt lat="44.628098" lon="33.820442">
<ele>305.293213</ele>
<time>2011-10-10T10:00:37Z</time>
<desc>lat.=44.628098, lon.=33.820442, Alt.=305.293213m. Speed=0.000000m/h.</desc>
<speed>0.000000</speed>
</trkpt>
<trkpt lat="44.628098" lon="33.820442">
<ele>305.363525</ele>
<time>2011-10-10T10:00:42Z</time>
<desc>lat.=44.628098, lon.=33.820442, Alt.=305.363525m. Speed=0.000000m/h.</desc>
<speed>0.000000</speed>
</trkpt>
<trkpt lat="44.628098" lon="33.820442">
<ele>305.418213</ele>
<time>2011-10-10T10:00:47Z</time>
<desc>lat.=44.628098, lon.=33.820442, Alt.=305.418213m. Speed=0.108000m/h.</desc>
<speed>0.030000</speed>
</trkpt>
<trkpt lat="44.628098" lon="33.820442">
<ele>305.457275</ele>
<time>2011-10-10T10:00:52Z</time>
<desc>lat.=44.628098, lon.=33.820442, Alt.=305.457275m. Speed=0.000000m/h.</desc>
<speed>0.000000</speed>
</trkpt>
<trkpt lat="44.628098" lon="33.820442">
<ele>305.480713</ele>
<time>2011-10-10T10:00:57Z</time>
<desc>lat.=44.628098, lon.=33.820442, Alt.=305.480713m. Speed=0.000000m/h.</desc>
<speed>0.000000</speed>
</trkpt>
<trkpt lat="44.628098" lon="33.820442">
<ele>305.465088</ele>
<time>2011-10-10T10:01:02Z</time>
<desc>lat.=44.628098, lon.=33.820442, Alt.=305.465088m. Speed=0.072000m/h.</desc>
<speed>0.020000</speed>
</trkpt>
<trkpt lat="44.628098" lon="33.820442">
<ele>305.418213</ele>
<time>2011-10-10T10:01:07Z</time>
<desc>lat.=44.628098, lon.=33.820442, Alt.=305.418213m. Speed=0.000000m/h.</desc>
<speed>0.000000</speed>
</trkpt>
<trkpt lat="44.628098" lon="33.820442">
<ele>305.363525</ele>
<time>2011-10-10T10:01:12Z</time>
<desc>lat.=44.628098, lon.=33.820442, Alt.=305.363525m. Speed=0.000000m/h.</desc>
<speed>0.000000</speed>
</trkpt>
<trkpt lat="44.628098" lon="33.820442">
<ele>305.371338</ele>
<time>2011-10-10T10:01:17Z</time>
<desc>lat.=44.628098, lon.=33.820442, Alt.=305.371338m. Speed=0.000000m/h.</desc>
<speed>0.000000</speed>
</trkpt>
<trkpt lat="44.628098" lon="33.820442">
<ele>305.379150</ele>
<time>2011-10-10T10:01:22Z</time>
<desc>lat.=44.628098, lon.=33.820442, Alt.=305.379150m. Speed=0.000000m/h.</desc>
<speed>0.000000</speed>
</trkpt>
<trkpt lat="44.628098" lon="33.820442">
<ele>305.410400</ele>
<time>2011-10-10T10:01:27Z</time>
<desc>lat.=44.628098, lon.=33.820442, Alt.=305.410400m. Speed=0.000000m/h.</desc>
<speed>0.000000</speed>
</trkpt>
<trkpt lat="44.628098" lon="33.820442">
<ele>305.386963</ele>
<time>2011-10-10T10:01:32Z</time>
<desc>lat.=44.628098, lon.=33.820442, Alt.=305.386963m. Speed=0.036000m/h.</desc>
<speed>0.010000</speed>
</trkpt>
<trkpt lat="44.628098" lon="33.820442">
<ele>305.355713</ele>
<time>2011-10-10T10:01:37Z</time>
<desc>lat.=44.628098, lon.=33.820442, Alt.=305.355713m. Speed=0.000000m/h.</desc>
<speed>0.000000</speed>
</trkpt>
<trkpt lat="44.628098" lon="33.820442">
<ele>305.340088</ele>
<time>2011-10-10T10:01:42Z</time>
<desc>lat.=44.628098, lon.=33.820442, Alt.=305.340088m. Speed=0.000000m/h.</desc>
<speed>0.000000</speed>
</trkpt>
<trkpt lat="44.628098" lon="33.820442">
<ele>305.308838</ele>
<time>2011-10-10T10:01:47Z</time>
<desc>lat.=44.628098, lon.=33.820442, Alt.=305.308838m. Speed=0.000000m/h.</desc>
<speed>0.000000</speed>
</trkpt>
<trkpt lat="44.628098" lon="33.820442">
<ele>305.301025</ele>
<time>2011-10-10T10:01:52Z</time>
<desc>lat.=44.628098, lon.=33.820442, Alt.=305.301025m. Speed=0.000000m/h.</desc>
<speed>0.000000</speed>
</trkpt>
<trkpt lat="44.628098" lon="33.820442">
<ele>305.308838</ele>
<time>2011-10-10T10:01:57Z</time>
<desc>lat.=44.628098, lon.=33.820442, Alt.=305.308838m. Speed=0.000000m/h.</desc>
<speed>0.000000</speed>
</trkpt>
<trkpt lat="44.628098" lon="33.820442">
<ele>305.301025</ele>
<time>2011-10-10T10:02:02Z</time>
<desc>lat.=44.628098, lon.=33.820442, Alt.=305.301025m. Speed=0.036000m/h.</desc>
<speed>0.010000</speed>
</trkpt>
<trkpt lat="44.628098" lon="33.820442">
<ele>305.285400</ele>
<time>2011-10-10T10:02:07Z</time>
<desc>lat.=44.628098, lon.=33.820442, Alt.=305.285400m. Speed=0.000000m/h.</desc>
<speed>0.000000</speed>
</trkpt>
<trkpt lat="44.628098" lon="33.820442">
<ele>305.261963</ele>
<time>2011-10-10T10:02:12Z</time>
<desc>lat.=44.628098, lon.=33.820442, Alt.=305.261963m. Speed=0.072000m/h.</desc>
<speed>0.020000</speed>
</trkpt>
<trkpt lat="44.628098" lon="33.820442">
<ele>305.246338</ele>
<time>2011-10-10T10:02:17Z</time>
<desc>lat.=44.628098, lon.=33.820442, Alt.=305.246338m. Speed=0.000000m/h.</desc>
<speed>0.000000</speed>
</trkpt>
<trkpt lat="44.628098" lon="33.820442">
<ele>305.254150</ele>
<time>2011-10-10T10:02:22Z</time>
<desc>lat.=44.628098, lon.=33.820442, Alt.=305.254150m. Speed=0.000000m/h.</desc>
<speed>0.000000</speed>
</trkpt>
<trkpt lat="44.628098" lon="33.820442">
<ele>305.261963</ele>
<time>2011-10-10T10:02:27Z</time>
<desc>lat.=44.628098, lon.=33.820442, Alt.=305.261963m. Speed=0.000000m/h.</desc>
<speed>0.000000</speed>
</trkpt>
<trkpt lat="44.628098" lon="33.820442">
<ele>305.238525</ele>
<time>2011-10-10T10:02:32Z</time>
<desc>lat.=44.628098, lon.=33.820442, Alt.=305.238525m. Speed=0.000000m/h.</desc>
<speed>0.000000</speed>
</trkpt>
<trkpt lat="44.628098" lon="33.820442">
<ele>305.199463</ele>
<time>2011-10-10T10:02:37Z</time>
<desc>lat.=44.628098, lon.=33.820442, Alt.=305.199463m. Speed=0.000000m/h.</desc>
<speed>0.000000</speed>
</trkpt>
<trkpt lat="44.628098" lon="33.820442">
<ele>305.152588</ele>
<time>2011-10-10T10:02:42Z</time>
<desc>lat.=44.628098, lon.=33.820442, Alt.=305.152588m. Speed=0.000000m/h.</desc>
<speed>0.000000</speed>
</trkpt>
<trkpt lat="44.628098" lon="33.820442">
<ele>305.129150</ele>
<time>2011-10-10T10:02:47Z</time>
<desc>lat.=44.628098, lon.=33.820442, Alt.=305.129150m. Speed=0.000000m/h.</desc>
<speed>0.000000</speed>
</trkpt>
<trkpt lat="44.628098" lon="33.820442">
<ele>305.105713</ele>
<time>2011-10-10T10:02:52Z</time>
<desc>lat.=44.628098, lon.=33.820442, Alt.=305.105713m. Speed=0.000000m/h.</desc>
<speed>0.000000</speed>
</trkpt>
<trkpt lat="44.628098" lon="33.820442">
<ele>305.090088</ele>
<time>2011-10-10T10:02:57Z</time>
<desc>lat.=44.628098, lon.=33.820442, Alt.=305.090088m. Speed=0.000000m/h.</desc>
<speed>0.000000</speed>
</trkpt>
<trkpt lat="44.628098" lon="33.820442">
<ele>305.082275</ele>
<time>2011-10-10T10:03:02Z</time>
<desc>lat.=44.628098, lon.=33.820442, Alt.=305.082275m. Speed=0.000000m/h.</desc>
<speed>0.000000</speed>
</trkpt>
<trkpt lat="44.628098" lon="33.820442">
<ele>305.074463</ele>
<time>2011-10-10T10:03:07Z</time>
<desc>lat.=44.628098, lon.=33.820442, Alt.=305.074463m. Speed=0.000000m/h.</desc>
<speed>0.000000</speed>
</trkpt>
<trkpt lat="44.628098" lon="33.820442">
<ele>305.074463</ele>
<time>2011-10-10T10:03:12Z</time>
<desc>lat.=44.628098, lon.=33.820442, Alt.=305.074463m. Speed=0.000000m/h.</desc>
<speed>0.000000</speed>
</trkpt>
<trkpt lat="44.628098" lon="33.820442">
<ele>305.066650</ele>
<time>2011-10-10T10:03:17Z</time>
<desc>lat.=44.628098, lon.=33.820442, Alt.=305.066650m. Speed=0.000000m/h.</desc>
<speed>0.000000</speed>
</trkpt>
<trkpt lat="44.628098" lon="33.820442">
<ele>305.074463</ele>
<time>2011-10-10T10:03:22Z</time>
<desc>lat.=44.628098, lon.=33.820442, Alt.=305.074463m. Speed=0.000000m/h.</desc>
<speed>0.000000</speed>
</trkpt>
<trkpt lat="44.628098" lon="33.820442">
<ele>305.082275</ele>
<time>2011-10-10T10:03:27Z</time>
<desc>lat.=44.628098, lon.=33.820442, Alt.=305.082275m. Speed=0.000000m/h.</desc>
<speed>0.000000</speed>
</trkpt>
<trkpt lat="44.628098" lon="33.820442">
<ele>305.097900</ele>
<time>2011-10-10T10:03:32Z</time>
<desc>lat.=44.628098, lon.=33.820442, Alt.=305.097900m. Speed=0.000000m/h.</desc>
<speed>0.000000</speed>
</trkpt>
<trkpt lat="44.628098" lon="33.820442">
<ele>305.129150</ele>
<time>2011-10-10T10:03:37Z</time>
<desc>lat.=44.628098, lon.=33.820442, Alt.=305.129150m. Speed=0.000000m/h.</desc>
<speed>0.000000</speed>
</trkpt>
<trkpt lat="44.628098" lon="33.820442">
<ele>305.152588</ele>
<time>2011-10-10T10:03:42Z</time>
<desc>lat.=44.628098, lon.=33.820442, Alt.=305.152588m. Speed=0.000000m/h.</desc>
<speed>0.000000</speed>
</trkpt>
<trkpt lat="44.628098" lon="33.820438">
<ele>305.168213</ele>
<time>2011-10-10T10:03:47Z</time>
<desc>lat.=44.628098, lon.=33.820438, Alt.=305.168213m. Speed=0.000000m/h.</desc>
<speed>0.000000</speed>
</trkpt>
<trkpt lat="44.628098" lon="33.820438">
<ele>305.183838</ele>
<time>2011-10-10T10:03:52Z</time>
<desc>lat.=44.628098, lon.=33.820438, Alt.=305.183838m. Speed=0.000000m/h.</desc>
<speed>0.000000</speed>
</trkpt>
<trkpt lat="44.628098" lon="33.820438">
<ele>305.191650</ele>
<time>2011-10-10T10:03:57Z</time>
<desc>lat.=44.628098, lon.=33.820438, Alt.=305.191650m. Speed=0.036000m/h.</desc>
<speed>0.010000</speed>
</trkpt>
<trkpt lat="44.628098" lon="33.820438">
<ele>305.199463</ele>
<time>2011-10-10T10:04:02Z</time>
<desc>lat.=44.628098, lon.=33.820438, Alt.=305.199463m. Speed=0.036000m/h.</desc>
<speed>0.010000</speed>
</trkpt>
<trkpt lat="44.628098" lon="33.820435">
<ele>305.222900</ele>
<time>2011-10-10T10:04:07Z</time>
<desc>lat.=44.628098, lon.=33.820435, Alt.=305.222900m. Speed=0.072000m/h.</desc>
<speed>0.020000</speed>
</trkpt>
<trkpt lat="44.628098" lon="33.820435">
<ele>305.215088</ele>
<time>2011-10-10T10:04:12Z</time>
<desc>lat.=44.628098, lon.=33.820435, Alt.=305.215088m. Speed=0.000000m/h.</desc>
<speed>0.000000</speed>
</trkpt>
<trkpt lat="44.628098" lon="33.820435">
<ele>305.222900</ele>
<time>2011-10-10T10:04:17Z</time>
<desc>lat.=44.628098, lon.=33.820435, Alt.=305.222900m. Speed=1.368000m/h.</desc>
<speed>0.380000</speed>
</trkpt>
<trkpt lat="44.628082" lon="33.820457">
<ele>305.254150</ele>
<time>2011-10-10T10:04:22Z</time>
<desc>lat.=44.628082, lon.=33.820457, Alt.=305.254150m. Speed=2.952000m/h.</desc>
<speed>0.820000</speed>
</trkpt>
<trkpt lat="44.628036" lon="33.820511">
<ele>306.863525</ele>
<time>2011-10-10T10:04:27Z</time>
<desc>lat.=44.628036, lon.=33.820511, Alt.=306.863525m. Speed=6.084000m/h.</desc>
<speed>1.690000</speed>
</trkpt>
<trkpt lat="44.627983" lon="33.820583">
<ele>308.418213</ele>
<time>2011-10-10T10:04:32Z</time>
<desc>lat.=44.627983, lon.=33.820583, Alt.=308.418213m. Speed=4.968000m/h.</desc>
<speed>1.380000</speed>
</trkpt>
<trkpt lat="44.627926" lon="33.820656">
<ele>310.066650</ele>
<time>2011-10-10T10:04:37Z</time>
<desc>lat.=44.627926, lon.=33.820656, Alt.=310.066650m. Speed=5.760000m/h.</desc>
<speed>1.600000</speed>
</trkpt>
<trkpt lat="44.627850" lon="33.820755">
<ele>312.433838</ele>
<time>2011-10-10T10:04:42Z</time>
<desc>lat.=44.627850, lon.=33.820755, Alt.=312.433838m. Speed=6.480000m/h.</desc>
<speed>1.800000</speed>
</trkpt>
<trkpt lat="44.627796" lon="33.820820">
<ele>315.238525</ele>
<time>2011-10-10T10:04:47Z</time>
<desc>lat.=44.627796, lon.=33.820820, Alt.=315.238525m. Speed=0.828000m/h.</desc>
<speed>0.230000</speed>
</trkpt>
<trkpt lat="44.627789" lon="33.820812">
<ele>315.808838</ele>
<time>2011-10-10T10:04:52Z</time>
<desc>lat.=44.627789, lon.=33.820812, Alt.=315.808838m. Speed=0.936000m/h.</desc>
<speed>0.260000</speed>
</trkpt>
<trkpt lat="44.627834" lon="33.820812">
<ele>315.019775</ele>
<time>2011-10-10T10:04:57Z</time>
<desc>lat.=44.627834, lon.=33.820812, Alt.=315.019775m. Speed=3.816000m/h.</desc>
<speed>1.060000</speed>
</trkpt>
<trkpt lat="44.627960" lon="33.820667">
<ele>314.066650</ele>
<time>2011-10-10T10:05:02Z</time>
<desc>lat.=44.627960, lon.=33.820667, Alt.=314.066650m. Speed=14.652000m/h.</desc>
<speed>4.070000</speed>
</trkpt>
<trkpt lat="44.628063" lon="33.820564">
<ele>312.965088</ele>
<time>2011-10-10T10:05:07Z</time>
<desc>lat.=44.628063, lon.=33.820564, Alt.=312.965088m. Speed=6.876000m/h.</desc>
<speed>1.910000</speed>
</trkpt>
<trkpt lat="44.628071" lon="33.820557">
<ele>312.168213</ele>
<time>2011-10-10T10:05:12Z</time>
<desc>lat.=44.628071, lon.=33.820557, Alt.=312.168213m. Speed=0.540000m/h.</desc>
<speed>0.150000</speed>
</trkpt>
<trkpt lat="44.628078" lon="33.820557">
<ele>311.683838</ele>
<time>2011-10-10T10:05:17Z</time>
<desc>lat.=44.628078, lon.=33.820557, Alt.=311.683838m. Speed=0.108000m/h.</desc>
<speed>0.030000</speed>
</trkpt>
<trkpt lat="44.628078" lon="33.820557">
<ele>311.722900</ele>
<time>2011-10-10T10:05:22Z</time>
<desc>lat.=44.628078, lon.=33.820557, Alt.=311.722900m. Speed=0.036000m/h.</desc>
<speed>0.010000</speed>
</trkpt>
<trkpt lat="44.628078" lon="33.820557">
<ele>311.761963</ele>
<time>2011-10-10T10:05:27Z</time>
<desc>lat.=44.628078, lon.=33.820557, Alt.=311.761963m. Speed=0.216000m/h.</desc>
<speed>0.060000</speed>
</trkpt>
<trkpt lat="44.628071" lon="33.820572">
<ele>311.340088</ele>
<time>2011-10-10T10:05:32Z</time>
<desc>lat.=44.628071, lon.=33.820572, Alt.=311.340088m. Speed=2.268000m/h.</desc>
<speed>0.630000</speed>
</trkpt>
<trkpt lat="44.628036" lon="33.820606">
<ele>310.769775</ele>
<time>2011-10-10T10:05:37Z</time>
<desc>lat.=44.628036, lon.=33.820606, Alt.=310.769775m. Speed=5.220000m/h.</desc>
<speed>1.450000</speed>
</trkpt>
<trkpt lat="44.627972" lon="33.820663">
<ele>311.371338</ele>
<time>2011-10-10T10:05:42Z</time>
<desc>lat.=44.627972, lon.=33.820663, Alt.=311.371338m. Speed=7.380000m/h.</desc>
<speed>2.050000</speed>
</trkpt>
<trkpt lat="44.627895" lon="33.820740">
<ele>312.629150</ele>
<time>2011-10-10T10:05:47Z</time>
<desc>lat.=44.627895, lon.=33.820740, Alt.=312.629150m. Speed=5.940000m/h.</desc>
<speed>1.650000</speed>
</trkpt>
<trkpt lat="44.627808" lon="33.820816">
<ele>315.051025</ele>
<time>2011-10-10T10:05:52Z</time>
<desc>lat.=44.627808, lon.=33.820816, Alt.=315.051025m. Speed=8.100000m/h.</desc>
<speed>2.250000</speed>
</trkpt>
<trkpt lat="44.627739" lon="33.820869">
<ele>317.636963</ele>
<time>2011-10-10T10:05:57Z</time>
<desc>lat.=44.627739, lon.=33.820869, Alt.=317.636963m. Speed=3.636000m/h.</desc>
<speed>1.010000</speed>
</trkpt>
<trkpt lat="44.627674" lon="33.820946">
<ele>319.761963</ele>
<time>2011-10-10T10:06:02Z</time>
<desc>lat.=44.627674, lon.=33.820946, Alt.=319.761963m. Speed=5.724000m/h.</desc>
<speed>1.590000</speed>
</trkpt>
<trkpt lat="44.627613" lon="33.821011">
<ele>322.402588</ele>
<time>2011-10-10T10:06:07Z</time>
<desc>lat.=44.627613, lon.=33.821011, Alt.=322.402588m. Speed=3.672000m/h.</desc>
<speed>1.020000</speed>
</trkpt>
<trkpt lat="44.627583" lon="33.821079">
<ele>325.394775</ele>
<time>2011-10-10T10:06:12Z</time>
<desc>lat.=44.627583, lon.=33.821079, Alt.=325.394775m. Speed=3.384000m/h.</desc>
<speed>0.940000</speed>
</trkpt>
<trkpt lat="44.627476" lon="33.821098">
<ele>325.629150</ele>
<time>2011-10-10T10:06:17Z</time>
<desc>lat.=44.627476, lon.=33.821098, Alt.=325.629150m. Speed=3.528000m/h.</desc>
<speed>0.980000</speed>
</trkpt>
<trkpt lat="44.627411" lon="33.821198">
<ele>326.355713</ele>
<time>2011-10-10T10:06:22Z</time>
<desc>lat.=44.627411, lon.=33.821198, Alt.=326.355713m. Speed=3.852000m/h.</desc>
<speed>1.070000</speed>
</trkpt>
<trkpt lat="44.627350" lon="33.821297">
<ele>327.910400</ele>
<time>2011-10-10T10:06:27Z</time>
<desc>lat.=44.627350, lon.=33.821297, Alt.=327.910400m. Speed=7.308000m/h.</desc>
<speed>2.030000</speed>
</trkpt>
<trkpt lat="44.627258" lon="33.821369">
<ele>328.301025</ele>
<time>2011-10-10T10:06:32Z</time>
<desc>lat.=44.627258, lon.=33.821369, Alt.=328.301025m. Speed=6.480000m/h.</desc>
<speed>1.800000</speed>
</trkpt>
<trkpt lat="44.627201" lon="33.821472">
<ele>330.238525</ele>
<time>2011-10-10T10:06:37Z</time>
<desc>lat.=44.627201, lon.=33.821472, Alt.=330.238525m. Speed=5.976000m/h.</desc>
<speed>1.660000</speed>
</trkpt>
<trkpt lat="44.627113" lon="33.821617">
<ele>329.707275</ele>
<time>2011-10-10T10:06:42Z</time>
<desc>lat.=44.627113, lon.=33.821617, Alt.=329.707275m. Speed=6.732000m/h.</desc>
<speed>1.870000</speed>
</trkpt>
<trkpt lat="44.627026" lon="33.821690">
<ele>328.097900</ele>
<time>2011-10-10T10:06:47Z</time>
<desc>lat.=44.627026, lon.=33.821690, Alt.=328.097900m. Speed=6.516000m/h.</desc>
<speed>1.810000</speed>
</trkpt>
<trkpt lat="44.626926" lon="33.821739">
<ele>324.879150</ele>
<time>2011-10-10T10:06:52Z</time>
<desc>lat.=44.626926, lon.=33.821739, Alt.=324.879150m. Speed=5.652000m/h.</desc>
<speed>1.570000</speed>
</trkpt>
<trkpt lat="44.626850" lon="33.821793">
<ele>324.433838</ele>
<time>2011-10-10T10:06:57Z</time>
<desc>lat.=44.626850, lon.=33.821793, Alt.=324.433838m. Speed=8.316000m/h.</desc>
<speed>2.310000</speed>
</trkpt>
<trkpt lat="44.626781" lon="33.821884">
<ele>325.316650</ele>
<time>2011-10-10T10:07:02Z</time>
<desc>lat.=44.626781, lon.=33.821884, Alt.=325.316650m. Speed=6.840000m/h.</desc>
<speed>1.900000</speed>
</trkpt>
<trkpt lat="44.626709" lon="33.821941">
<ele>325.707275</ele>
<time>2011-10-10T10:07:07Z</time>
<desc>lat.=44.626709, lon.=33.821941, Alt.=325.707275m. Speed=6.732000m/h.</desc>
<speed>1.870000</speed>
</trkpt>
<trkpt lat="44.626640" lon="33.822002">
<ele>325.769775</ele>
<time>2011-10-10T10:07:12Z</time>
<desc>lat.=44.626640, lon.=33.822002, Alt.=325.769775m. Speed=7.236000m/h.</desc>
<speed>2.010000</speed>
</trkpt>
<trkpt lat="44.626579" lon="33.822071">
<ele>324.902588</ele>
<time>2011-10-10T10:07:17Z</time>
<desc>lat.=44.626579, lon.=33.822071, Alt.=324.902588m. Speed=4.284000m/h.</desc>
<speed>1.190000</speed>
</trkpt>
<trkpt lat="44.626583" lon="33.822090">
<ele>325.261963</ele>
<time>2011-10-10T10:07:22Z</time>
<desc>lat.=44.626583, lon.=33.822090, Alt.=325.261963m. Speed=0.468000m/h.</desc>
<speed>0.130000</speed>
</trkpt>
<trkpt lat="44.626579" lon="33.822086">
<ele>324.879150</ele>
<time>2011-10-10T10:07:27Z</time>
<desc>lat.=44.626579, lon.=33.822086, Alt.=324.879150m. Speed=0.792000m/h.</desc>
<speed>0.220000</speed>
</trkpt>
<trkpt lat="44.626560" lon="33.822105">
<ele>324.902588</ele>
<time>2011-10-10T10:07:32Z</time>
<desc>lat.=44.626560, lon.=33.822105, Alt.=324.902588m. Speed=3.456000m/h.</desc>
<speed>0.960000</speed>
</trkpt>
<trkpt lat="44.626537" lon="33.822124">
<ele>325.082275</ele>
<time>2011-10-10T10:07:37Z</time>
<desc>lat.=44.626537, lon.=33.822124, Alt.=325.082275m. Speed=2.016000m/h.</desc>
<speed>0.560000</speed>
</trkpt>
<trkpt lat="44.626518" lon="33.822144">
<ele>325.465088</ele>
<time>2011-10-10T10:07:42Z</time>
<desc>lat.=44.626518, lon.=33.822144, Alt.=325.465088m. Speed=2.808000m/h.</desc>
<speed>0.780000</speed>
</trkpt>
<trkpt lat="44.626446" lon="33.822186">
<ele>325.582275</ele>
<time>2011-10-10T10:07:47Z</time>
<desc>lat.=44.626446, lon.=33.822186, Alt.=325.582275m. Speed=5.904000m/h.</desc>
<speed>1.640000</speed>
</trkpt>
<trkpt lat="44.626381" lon="33.822250">
<ele>325.644775</ele>
<time>2011-10-10T10:07:52Z</time>
<desc>lat.=44.626381, lon.=33.822250, Alt.=325.644775m. Speed=6.120000m/h.</desc>
<speed>1.700000</speed>
</trkpt>
<trkpt lat="44.626312" lon="33.822323">
<ele>326.754150</ele>
<time>2011-10-10T10:07:57Z</time>
<desc>lat.=44.626312, lon.=33.822323, Alt.=326.754150m. Speed=5.580000m/h.</desc>
<speed>1.550000</speed>
</trkpt>
<trkpt lat="44.626244" lon="33.822392">
<ele>327.699463</ele>
<time>2011-10-10T10:08:02Z</time>
<desc>lat.=44.626244, lon.=33.822392, Alt.=327.699463m. Speed=5.904000m/h.</desc>
<speed>1.640000</speed>
</trkpt>
<trkpt lat="44.626202" lon="33.822468">
<ele>327.933838</ele>
<time>2011-10-10T10:08:07Z</time>
<desc>lat.=44.626202, lon.=33.822468, Alt.=327.933838m. Speed=5.724000m/h.</desc>
<speed>1.590000</speed>
</trkpt>
<trkpt lat="44.626129" lon="33.822548">
<ele>327.746338</ele>
<time>2011-10-10T10:08:12Z</time>
<desc>lat.=44.626129, lon.=33.822548, Alt.=327.746338m. Speed=6.444000m/h.</desc>
<speed>1.790000</speed>
</trkpt>
<trkpt lat="44.626049" lon="33.822620">
<ele>327.722900</ele>
<time>2011-10-10T10:08:17Z</time>
<desc>lat.=44.626049, lon.=33.822620, Alt.=327.722900m. Speed=8.244000m/h.</desc>
<speed>2.290000</speed>
</trkpt>
<trkpt lat="44.625957" lon="33.822697">
<ele>328.168213</ele>
<time>2011-10-10T10:08:22Z</time>
<desc>lat.=44.625957, lon.=33.822697, Alt.=328.168213m. Speed=8.172000m/h.</desc>
<speed>2.270000</speed>
</trkpt>
<trkpt lat="44.625870" lon="33.822784">
<ele>330.488525</ele>
<time>2011-10-10T10:08:27Z</time>
<desc>lat.=44.625870, lon.=33.822784, Alt.=330.488525m. Speed=8.208000m/h.</desc>
<speed>2.280000</speed>
</trkpt>
<trkpt lat="44.625801" lon="33.822876">
<ele>332.379150</ele>
<time>2011-10-10T10:08:32Z</time>
<desc>lat.=44.625801, lon.=33.822876, Alt.=332.379150m. Speed=6.948000m/h.</desc>
<speed>1.930000</speed>
</trkpt>
<trkpt lat="44.625725" lon="33.822948">
<ele>334.371338</ele>
<time>2011-10-10T10:08:37Z</time>
<desc>lat.=44.625725, lon.=33.822948, Alt.=334.371338m. Speed=6.516000m/h.</desc>
<speed>1.810000</speed>
</trkpt>
<trkpt lat="44.625641" lon="33.823051">
<ele>336.613525</ele>
<time>2011-10-10T10:08:42Z</time>
<desc>lat.=44.625641, lon.=33.823051, Alt.=336.613525m. Speed=5.652000m/h.</desc>
<speed>1.570000</speed>
</trkpt>
<trkpt lat="44.625530" lon="33.823025">
<ele>337.504150</ele>
<time>2011-10-10T10:08:47Z</time>
<desc>lat.=44.625530, lon.=33.823025, Alt.=337.504150m. Speed=6.696000m/h.</desc>
<speed>1.860000</speed>
</trkpt>
<trkpt lat="44.625462" lon="33.822937">
<ele>337.058838</ele>
<time>2011-10-10T10:08:52Z</time>
<desc>lat.=44.625462, lon.=33.822937, Alt.=337.058838m. Speed=7.380000m/h.</desc>
<speed>2.050000</speed>
</trkpt>
<trkpt lat="44.625362" lon="33.822929">
<ele>337.699463</ele>
<time>2011-10-10T10:08:57Z</time>
<desc>lat.=44.625362, lon.=33.822929, Alt.=337.699463m. Speed=6.552000m/h.</desc>
<speed>1.820000</speed>
</trkpt>
<trkpt lat="44.625282" lon="33.822994">
<ele>338.613525</ele>
<time>2011-10-10T10:09:02Z</time>
<desc>lat.=44.625282, lon.=33.822994, Alt.=338.613525m. Speed=6.912000m/h.</desc>
<speed>1.920000</speed>
</trkpt>
<trkpt lat="44.625225" lon="33.823105">
<ele>339.816650</ele>
<time>2011-10-10T10:09:07Z</time>
<desc>lat.=44.625225, lon.=33.823105, Alt.=339.816650m. Speed=6.552000m/h.</desc>
<speed>1.820000</speed>
</trkpt>
<trkpt lat="44.625198" lon="33.823223">
<ele>340.566650</ele>
<time>2011-10-10T10:09:12Z</time>
<desc>lat.=44.625198, lon.=33.823223, Alt.=340.566650m. Speed=5.904000m/h.</desc>
<speed>1.640000</speed>
</trkpt>
<trkpt lat="44.625160" lon="33.823364">
<ele>341.574463</ele>
<time>2011-10-10T10:09:17Z</time>
<desc>lat.=44.625160, lon.=33.823364, Alt.=341.574463m. Speed=8.532000m/h.</desc>
<speed>2.370000</speed>
</trkpt>
<trkpt lat="44.625130" lon="33.823509">
<ele>340.441650</ele>
<time>2011-10-10T10:09:22Z</time>
<desc>lat.=44.625130, lon.=33.823509, Alt.=340.441650m. Speed=6.732000m/h.</desc>
<speed>1.870000</speed>
</trkpt>
<trkpt lat="44.625107" lon="33.823624">
<ele>341.105713</ele>
<time>2011-10-10T10:09:27Z</time>
<desc>lat.=44.625107, lon.=33.823624, Alt.=341.105713m. Speed=6.840000m/h.</desc>
<speed>1.900000</speed>
</trkpt>
<trkpt lat="44.625072" lon="33.823772">
<ele>345.691650</ele>
<time>2011-10-10T10:09:32Z</time>
<desc>lat.=44.625072, lon.=33.823772, Alt.=345.691650m. Speed=8.424000m/h.</desc>
<speed>2.340000</speed>
</trkpt>
<trkpt lat="44.625046" lon="33.823898">
<ele>346.926025</ele>
<time>2011-10-10T10:09:37Z</time>
<desc>lat.=44.625046, lon.=33.823898, Alt.=346.926025m. Speed=5.796000m/h.</desc>
<speed>1.610000</speed>
</trkpt>
<trkpt lat="44.625019" lon="33.824001">
<ele>349.090088</ele>
<time>2011-10-10T10:09:42Z</time>
<desc>lat.=44.625019, lon.=33.824001, Alt.=349.090088m. Speed=4.104000m/h.</desc>
<speed>1.140000</speed>
</trkpt>
<trkpt lat="44.624992" lon="33.824074">
<ele>348.574463</ele>
<time>2011-10-10T10:09:47Z</time>
<desc>lat.=44.624992, lon.=33.824074, Alt.=348.574463m. Speed=7.056000m/h.</desc>
<speed>1.960000</speed>
</trkpt>
<trkpt lat="44.624935" lon="33.824131">
<ele>348.121338</ele>
<time>2011-10-10T10:09:52Z</time>
<desc>lat.=44.624935, lon.=33.824131, Alt.=348.121338m. Speed=4.680000m/h.</desc>
<speed>1.300000</speed>
</trkpt>
<trkpt lat="44.624882" lon="33.824200">
<ele>349.676025</ele>
<time>2011-10-10T10:09:57Z</time>
<desc>lat.=44.624882, lon.=33.824200, Alt.=349.676025m. Speed=5.544000m/h.</desc>
<speed>1.540000</speed>
</trkpt>
<trkpt lat="44.624859" lon="33.824280">
<ele>350.941650</ele>
<time>2011-10-10T10:10:02Z</time>
<desc>lat.=44.624859, lon.=33.824280, Alt.=350.941650m. Speed=5.292000m/h.</desc>
<speed>1.470000</speed>
</trkpt>
<trkpt lat="44.624836" lon="33.824356">
<ele>352.043213</ele>
<time>2011-10-10T10:10:07Z</time>
<desc>lat.=44.624836, lon.=33.824356, Alt.=352.043213m. Speed=4.212000m/h.</desc>
<speed>1.170000</speed>
</trkpt>
<trkpt lat="44.624813" lon="33.824455">
<ele>353.308838</ele>
<time>2011-10-10T10:10:12Z</time>
<desc>lat.=44.624813, lon.=33.824455, Alt.=353.308838m. Speed=4.932000m/h.</desc>
<speed>1.370000</speed>
</trkpt>
<trkpt lat="44.624802" lon="33.824585">
<ele>354.246338</ele>
<time>2011-10-10T10:10:17Z</time>
<desc>lat.=44.624802, lon.=33.824585, Alt.=354.246338m. Speed=4.680000m/h.</desc>
<speed>1.300000</speed>
</trkpt>
<trkpt lat="44.624786" lon="33.824715">
<ele>354.972900</ele>
<time>2011-10-10T10:10:22Z</time>
<desc>lat.=44.624786, lon.=33.824715, Alt.=354.972900m. Speed=6.336000m/h.</desc>
<speed>1.760000</speed>
</trkpt>
<trkpt lat="44.624741" lon="33.824848">
<ele>354.074463</ele>
<time>2011-10-10T10:10:27Z</time>
<desc>lat.=44.624741, lon.=33.824848, Alt.=354.074463m. Speed=7.596000m/h.</desc>
<speed>2.110000</speed>
</trkpt>
<trkpt lat="44.624722" lon="33.824997">
<ele>353.363525</ele>
<time>2011-10-10T10:10:32Z</time>
<desc>lat.=44.624722, lon.=33.824997, Alt.=353.363525m. Speed=7.200000m/h.</desc>
<speed>2.000000</speed>
</trkpt>
<trkpt lat="44.624748" lon="33.825134">
<ele>352.738525</ele>
<time>2011-10-10T10:10:37Z</time>
<desc>lat.=44.624748, lon.=33.825134, Alt.=352.738525m. Speed=8.316000m/h.</desc>
<speed>2.310000</speed>
</trkpt>
<trkpt lat="44.624752" lon="33.825272">
<ele>353.480713</ele>
<time>2011-10-10T10:10:42Z</time>
<desc>lat.=44.624752, lon.=33.825272, Alt.=353.480713m. Speed=8.604000m/h.</desc>
<speed>2.390000</speed>
</trkpt>
<trkpt lat="44.624756" lon="33.825352">
<ele>354.558838</ele>
<time>2011-10-10T10:10:47Z</time>
<desc>lat.=44.624756, lon.=33.825352, Alt.=354.558838m. Speed=3.996000m/h.</desc>
<speed>1.110000</speed>
</trkpt>
<trkpt lat="44.624763" lon="33.825462">
<ele>356.230713</ele>
<time>2011-10-10T10:10:52Z</time>
<desc>lat.=44.624763, lon.=33.825462, Alt.=356.230713m. Speed=6.552000m/h.</desc>
<speed>1.820000</speed>
</trkpt>
<trkpt lat="44.624763" lon="33.825584">
<ele>357.379150</ele>
<time>2011-10-10T10:10:57Z</time>
<desc>lat.=44.624763, lon.=33.825584, Alt.=357.379150m. Speed=4.752000m/h.</desc>
<speed>1.320000</speed>
</trkpt>
<trkpt lat="44.624763" lon="33.825680">
<ele>358.566650</ele>
<time>2011-10-10T10:11:02Z</time>
<desc>lat.=44.624763, lon.=33.825680, Alt.=358.566650m. Speed=3.060000m/h.</desc>
<speed>0.850000</speed>
</trkpt>
<trkpt lat="44.624752" lon="33.825691">
<ele>357.824463</ele>
<time>2011-10-10T10:11:07Z</time>
<desc>lat.=44.624752, lon.=33.825691, Alt.=357.824463m. Speed=0.036000m/h.</desc>
<speed>0.010000</speed>
</trkpt>
<trkpt lat="44.624752" lon="33.825691">
<ele>357.847900</ele>
<time>2011-10-10T10:11:12Z</time>
<desc>lat.=44.624752, lon.=33.825691, Alt.=357.847900m. Speed=0.108000m/h.</desc>
<speed>0.030000</speed>
</trkpt>
<trkpt lat="44.624756" lon="33.825691">
<ele>357.824463</ele>
<time>2011-10-10T10:11:17Z</time>
<desc>lat.=44.624756, lon.=33.825691, Alt.=357.824463m. Speed=0.000000m/h.</desc>
<speed>0.000000</speed>
</trkpt>
<trkpt lat="44.624756" lon="33.825691">
<ele>357.816650</ele>
<time>2011-10-10T10:11:22Z</time>
<desc>lat.=44.624756, lon.=33.825691, Alt.=357.816650m. Speed=0.036000m/h.</desc>
<speed>0.010000</speed>
</trkpt>
<trkpt lat="44.624756" lon="33.825691">
<ele>357.816650</ele>
<time>2011-10-10T10:11:27Z</time>
<desc>lat.=44.624756, lon.=33.825691, Alt.=357.816650m. Speed=0.036000m/h.</desc>
<speed>0.010000</speed>
</trkpt>
<trkpt lat="44.624756" lon="33.825691">
<ele>357.801025</ele>
<time>2011-10-10T10:11:32Z</time>
<desc>lat.=44.624756, lon.=33.825691, Alt.=357.801025m. Speed=0.036000m/h.</desc>
<speed>0.010000</speed>
</trkpt>
<trkpt lat="44.624756" lon="33.825691">
<ele>357.785400</ele>
<time>2011-10-10T10:11:37Z</time>
<desc>lat.=44.624756, lon.=33.825691, Alt.=357.785400m. Speed=0.396000m/h.</desc>
<speed>0.110000</speed>
</trkpt>
<trkpt lat="44.624756" lon="33.825691">
<ele>357.785400</ele>
<time>2011-10-10T10:11:42Z</time>
<desc>lat.=44.624756, lon.=33.825691, Alt.=357.785400m. Speed=0.036000m/h.</desc>
<speed>0.010000</speed>
</trkpt>
<trkpt lat="44.624756" lon="33.825691">
<ele>357.777588</ele>
<time>2011-10-10T10:11:47Z</time>
<desc>lat.=44.624756, lon.=33.825691, Alt.=357.777588m. Speed=0.000000m/h.</desc>
<speed>0.000000</speed>
</trkpt>
<trkpt lat="44.624756" lon="33.825691">
<ele>357.785400</ele>
<time>2011-10-10T10:11:52Z</time>
<desc>lat.=44.624756, lon.=33.825691, Alt.=357.785400m. Speed=0.036000m/h.</desc>
<speed>0.010000</speed>
</trkpt>
<trkpt lat="44.624756" lon="33.825691">
<ele>357.793213</ele>
<time>2011-10-10T10:11:57Z</time>
<desc>lat.=44.624756, lon.=33.825691, Alt.=357.793213m. Speed=0.000000m/h.</desc>
<speed>0.000000</speed>
</trkpt>
<trkpt lat="44.624756" lon="33.825691">
<ele>357.793213</ele>
<time>2011-10-10T10:12:02Z</time>
<desc>lat.=44.624756, lon.=33.825691, Alt.=357.793213m. Speed=0.072000m/h.</desc>
<speed>0.020000</speed>
</trkpt>
<trkpt lat="44.624752" lon="33.825691">
<ele>357.801025</ele>
<time>2011-10-10T10:12:07Z</time>
<desc>lat.=44.624752, lon.=33.825691, Alt.=357.801025m. Speed=0.000000m/h.</desc>
<speed>0.000000</speed>
</trkpt>
<trkpt lat="44.624752" lon="33.825691">
<ele>357.808838</ele>
<time>2011-10-10T10:12:12Z</time>
<desc>lat.=44.624752, lon.=33.825691, Alt.=357.808838m. Speed=0.000000m/h.</desc>
<speed>0.000000</speed>
</trkpt>
<trkpt lat="44.624752" lon="33.825691">
<ele>357.816650</ele>
<time>2011-10-10T10:12:17Z</time>
<desc>lat.=44.624752, lon.=33.825691, Alt.=357.816650m. Speed=0.000000m/h.</desc>
<speed>0.000000</speed>
</trkpt>
<trkpt lat="44.624752" lon="33.825691">
<ele>357.832275</ele>
<time>2011-10-10T10:12:22Z</time>
<desc>lat.=44.624752, lon.=33.825691, Alt.=357.832275m. Speed=0.036000m/h.</desc>
<speed>0.010000</speed>
</trkpt>
<trkpt lat="44.624752" lon="33.825691">
<ele>357.660400</ele>
<time>2011-10-10T10:12:27Z</time>
<desc>lat.=44.624752, lon.=33.825691, Alt.=357.660400m. Speed=0.504000m/h.</desc>
<speed>0.140000</speed>
</trkpt>
<trkpt lat="44.624756" lon="33.825695">
<ele>357.082275</ele>
<time>2011-10-10T10:12:32Z</time>
<desc>lat.=44.624756, lon.=33.825695, Alt.=357.082275m. Speed=0.108000m/h.</desc>
<speed>0.030000</speed>
</trkpt>
<trkpt lat="44.624756" lon="33.825695">
<ele>357.011963</ele>
<time>2011-10-10T10:12:37Z</time>
<desc>lat.=44.624756, lon.=33.825695, Alt.=357.011963m. Speed=0.648000m/h.</desc>
<speed>0.180000</speed>
</trkpt>
<trkpt lat="44.624756" lon="33.825687">
<ele>357.496338</ele>
<time>2011-10-10T10:12:42Z</time>
<desc>lat.=44.624756, lon.=33.825687, Alt.=357.496338m. Speed=0.108000m/h.</desc>
<speed>0.030000</speed>
</trkpt>
<trkpt lat="44.624756" lon="33.825687">
<ele>357.543213</ele>
<time>2011-10-10T10:12:47Z</time>
<desc>lat.=44.624756, lon.=33.825687, Alt.=357.543213m. Speed=0.216000m/h.</desc>
<speed>0.060000</speed>
</trkpt>
<trkpt lat="44.624756" lon="33.825691">
<ele>357.902588</ele>
<time>2011-10-10T10:12:52Z</time>
<desc>lat.=44.624756, lon.=33.825691, Alt.=357.902588m. Speed=0.072000m/h.</desc>
<speed>0.020000</speed>
</trkpt>
<trkpt lat="44.624752" lon="33.825687">
<ele>357.980713</ele>
<time>2011-10-10T10:12:57Z</time>
<desc>lat.=44.624752, lon.=33.825687, Alt.=357.980713m. Speed=0.000000m/h.</desc>
<speed>0.000000</speed>
</trkpt>
<trkpt lat="44.624752" lon="33.825687">
<ele>357.957275</ele>
<time>2011-10-10T10:13:02Z</time>
<desc>lat.=44.624752, lon.=33.825687, Alt.=357.957275m. Speed=0.072000m/h.</desc>
<speed>0.020000</speed>
</trkpt>
<trkpt lat="44.624752" lon="33.825687">
<ele>357.933838</ele>
<time>2011-10-10T10:13:07Z</time>
<desc>lat.=44.624752, lon.=33.825687, Alt.=357.933838m. Speed=0.036000m/h.</desc>
<speed>0.010000</speed>
</trkpt>
<trkpt lat="44.624752" lon="33.825687">
<ele>357.902588</ele>
<time>2011-10-10T10:13:12Z</time>
<desc>lat.=44.624752, lon.=33.825687, Alt.=357.902588m. Speed=0.072000m/h.</desc>
<speed>0.020000</speed>
</trkpt>
<trkpt lat="44.624752" lon="33.825687">
<ele>357.879150</ele>
<time>2011-10-10T10:13:17Z</time>
<desc>lat.=44.624752, lon.=33.825687, Alt.=357.879150m. Speed=0.180000m/h.</desc>
<speed>0.050000</speed>
</trkpt>
<trkpt lat="44.624748" lon="33.825699">
<ele>357.847900</ele>
<time>2011-10-10T10:13:22Z</time>
<desc>lat.=44.624748, lon.=33.825699, Alt.=357.847900m. Speed=3.024000m/h.</desc>
<speed>0.840000</speed>
</trkpt>
<trkpt lat="44.624699" lon="33.825752">
<ele>358.394775</ele>
<time>2011-10-10T10:13:27Z</time>
<desc>lat.=44.624699, lon.=33.825752, Alt.=358.394775m. Speed=6.552000m/h.</desc>
<speed>1.820000</speed>
</trkpt>
<trkpt lat="44.624619" lon="33.825817">
<ele>360.652588</ele>
<time>2011-10-10T10:13:32Z</time>
<desc>lat.=44.624619, lon.=33.825817, Alt.=360.652588m. Speed=7.308000m/h.</desc>
<speed>2.030000</speed>
</trkpt>
<trkpt lat="44.624535" lon="33.825882">
<ele>363.183838</ele>
<time>2011-10-10T10:13:37Z</time>
<desc>lat.=44.624535, lon.=33.825882, Alt.=363.183838m. Speed=8.280000m/h.</desc>
<speed>2.300000</speed>
</trkpt>
<trkpt lat="44.624447" lon="33.825928">
<ele>364.449463</ele>
<time>2011-10-10T10:13:42Z</time>
<desc>lat.=44.624447, lon.=33.825928, Alt.=364.449463m. Speed=6.696000m/h.</desc>
<speed>1.860000</speed>
</trkpt>
<trkpt lat="44.624355" lon="33.825954">
<ele>363.722900</ele>
<time>2011-10-10T10:13:47Z</time>
<desc>lat.=44.624355, lon.=33.825954, Alt.=363.722900m. Speed=6.948000m/h.</desc>
<speed>1.930000</speed>
</trkpt>
<trkpt lat="44.624283" lon="33.825981">
<ele>361.676025</ele>
<time>2011-10-10T10:13:52Z</time>
<desc>lat.=44.624283, lon.=33.825981, Alt.=361.676025m. Speed=7.740000m/h.</desc>
<speed>2.150000</speed>
</trkpt>
<trkpt lat="44.624203" lon="33.826023">
<ele>362.863525</ele>
<time>2011-10-10T10:13:57Z</time>
<desc>lat.=44.624203, lon.=33.826023, Alt.=362.863525m. Speed=6.876000m/h.</desc>
<speed>1.910000</speed>
</trkpt>
<trkpt lat="44.624123" lon="33.826084">
<ele>363.676025</ele>
<time>2011-10-10T10:14:02Z</time>
<desc>lat.=44.624123, lon.=33.826084, Alt.=363.676025m. Speed=7.452000m/h.</desc>
<speed>2.070000</speed>
</trkpt>
<trkpt lat="44.624058" lon="33.826153">
<ele>362.879150</ele>
<time>2011-10-10T10:14:07Z</time>
<desc>lat.=44.624058, lon.=33.826153, Alt.=362.879150m. Speed=7.020000m/h.</desc>
<speed>1.950000</speed>
</trkpt>
<trkpt lat="44.623997" lon="33.826241">
<ele>362.879150</ele>
<time>2011-10-10T10:14:12Z</time>
<desc>lat.=44.623997, lon.=33.826241, Alt.=362.879150m. Speed=7.344000m/h.</desc>
<speed>2.040000</speed>
</trkpt>
<trkpt lat="44.623955" lon="33.826328">
<ele>364.105713</ele>
<time>2011-10-10T10:14:17Z</time>
<desc>lat.=44.623955, lon.=33.826328, Alt.=364.105713m. Speed=5.076000m/h.</desc>
<speed>1.410000</speed>
</trkpt>
<trkpt lat="44.623932" lon="33.826427">
<ele>364.308838</ele>
<time>2011-10-10T10:14:22Z</time>
<desc>lat.=44.623932, lon.=33.826427, Alt.=364.308838m. Speed=6.300000m/h.</desc>
<speed>1.750000</speed>
</trkpt>
<trkpt lat="44.623901" lon="33.826523">
<ele>367.082275</ele>
<time>2011-10-10T10:14:27Z</time>
<desc>lat.=44.623901, lon.=33.826523, Alt.=367.082275m. Speed=6.444000m/h.</desc>
<speed>1.790000</speed>
</trkpt>
<trkpt lat="44.623882" lon="33.826557">
<ele>367.676025</ele>
<time>2011-10-10T10:14:32Z</time>
<desc>lat.=44.623882, lon.=33.826557, Alt.=367.676025m. Speed=0.396000m/h.</desc>
<speed>0.110000</speed>
</trkpt>
<trkpt lat="44.623871" lon="33.826569">
<ele>367.019775</ele>
<time>2011-10-10T10:14:37Z</time>
<desc>lat.=44.623871, lon.=33.826569, Alt.=367.019775m. Speed=0.036000m/h.</desc>
<speed>0.010000</speed>
</trkpt>
<trkpt lat="44.623875" lon="33.826580">
<ele>366.980713</ele>
<time>2011-10-10T10:14:42Z</time>
<desc>lat.=44.623875, lon.=33.826580, Alt.=366.980713m. Speed=3.600000m/h.</desc>
<speed>1.000000</speed>
</trkpt>
<trkpt lat="44.623894" lon="33.826649">
<ele>366.902588</ele>
<time>2011-10-10T10:14:47Z</time>
<desc>lat.=44.623894, lon.=33.826649, Alt.=366.902588m. Speed=1.404000m/h.</desc>
<speed>0.390000</speed>
</trkpt>
<trkpt lat="44.623917" lon="33.826664">
<ele>366.582275</ele>
<time>2011-10-10T10:14:52Z</time>
<desc>lat.=44.623917, lon.=33.826664, Alt.=366.582275m. Speed=1.656000m/h.</desc>
<speed>0.460000</speed>
</trkpt>
<trkpt lat="44.623917" lon="33.826664">
<ele>366.699463</ele>
<time>2011-10-10T10:14:57Z</time>
<desc>lat.=44.623917, lon.=33.826664, Alt.=366.699463m. Speed=0.252000m/h.</desc>
<speed>0.070000</speed>
</trkpt>
<trkpt lat="44.623917" lon="33.826668">
<ele>366.605713</ele>
<time>2011-10-10T10:15:02Z</time>
<desc>lat.=44.623917, lon.=33.826668, Alt.=366.605713m. Speed=0.576000m/h.</desc>
<speed>0.160000</speed>
</trkpt>
<trkpt lat="44.623917" lon="33.826668">
<ele>366.605713</ele>
<time>2011-10-10T10:15:07Z</time>
<desc>lat.=44.623917, lon.=33.826668, Alt.=366.605713m. Speed=0.036000m/h.</desc>
<speed>0.010000</speed>
</trkpt>
<trkpt lat="44.623917" lon="33.826668">
<ele>366.621338</ele>
<time>2011-10-10T10:15:12Z</time>
<desc>lat.=44.623917, lon.=33.826668, Alt.=366.621338m. Speed=0.036000m/h.</desc>
<speed>0.010000</speed>
</trkpt>
<trkpt lat="44.623917" lon="33.826668">
<ele>366.629150</ele>
<time>2011-10-10T10:15:17Z</time>
<desc>lat.=44.623917, lon.=33.826668, Alt.=366.629150m. Speed=0.000000m/h.</desc>
<speed>0.000000</speed>
</trkpt>
<trkpt lat="44.623917" lon="33.826668">
<ele>366.636963</ele>
<time>2011-10-10T10:15:22Z</time>
<desc>lat.=44.623917, lon.=33.826668, Alt.=366.636963m. Speed=0.108000m/h.</desc>
<speed>0.030000</speed>
</trkpt>
<trkpt lat="44.623917" lon="33.826668">
<ele>366.644775</ele>
<time>2011-10-10T10:15:27Z</time>
<desc>lat.=44.623917, lon.=33.826668, Alt.=366.644775m. Speed=0.000000m/h.</desc>
<speed>0.000000</speed>
</trkpt>
<trkpt lat="44.623928" lon="33.826679">
<ele>366.363525</ele>
<time>2011-10-10T10:15:32Z</time>
<desc>lat.=44.623928, lon.=33.826679, Alt.=366.363525m. Speed=3.672000m/h.</desc>
<speed>1.020000</speed>
</trkpt>
<trkpt lat="44.623951" lon="33.826721">
<ele>366.621338</ele>
<time>2011-10-10T10:15:37Z</time>
<desc>lat.=44.623951, lon.=33.826721, Alt.=366.621338m. Speed=1.584000m/h.</desc>
<speed>0.440000</speed>
</trkpt>
<trkpt lat="44.623974" lon="33.826756">
<ele>366.527588</ele>
<time>2011-10-10T10:15:42Z</time>
<desc>lat.=44.623974, lon.=33.826756, Alt.=366.527588m. Speed=4.824000m/h.</desc>
<speed>1.340000</speed>
</trkpt>
<trkpt lat="44.624020" lon="33.826839">
<ele>367.355713</ele>
<time>2011-10-10T10:15:47Z</time>
<desc>lat.=44.624020, lon.=33.826839, Alt.=367.355713m. Speed=5.076000m/h.</desc>
<speed>1.410000</speed>
</trkpt>
<trkpt lat="44.624062" lon="33.826916">
<ele>365.824463</ele>
<time>2011-10-10T10:15:52Z</time>
<desc>lat.=44.624062, lon.=33.826916, Alt.=365.824463m. Speed=6.732000m/h.</desc>
<speed>1.870000</speed>
</trkpt>
<trkpt lat="44.624130" lon="33.827011">
<ele>365.418213</ele>
<time>2011-10-10T10:15:57Z</time>
<desc>lat.=44.624130, lon.=33.827011, Alt.=365.418213m. Speed=7.632000m/h.</desc>
<speed>2.120000</speed>
</trkpt>
<trkpt lat="44.624199" lon="33.827114">
<ele>365.683838</ele>
<time>2011-10-10T10:16:02Z</time>
<desc>lat.=44.624199, lon.=33.827114, Alt.=365.683838m. Speed=7.776000m/h.</desc>
<speed>2.160000</speed>
</trkpt>
<trkpt lat="44.624275" lon="33.827217">
<ele>366.832275</ele>
<time>2011-10-10T10:16:07Z</time>
<desc>lat.=44.624275, lon.=33.827217, Alt.=366.832275m. Speed=4.464000m/h.</desc>
<speed>1.240000</speed>
</trkpt>
<trkpt lat="44.624329" lon="33.827282">
<ele>367.590088</ele>
<time>2011-10-10T10:16:12Z</time>
<desc>lat.=44.624329, lon.=33.827282, Alt.=367.590088m. Speed=3.060000m/h.</desc>
<speed>0.850000</speed>
</trkpt>
<trkpt lat="44.624386" lon="33.827393">
<ele>368.660400</ele>
<time>2011-10-10T10:16:17Z</time>
<desc>lat.=44.624386, lon.=33.827393, Alt.=368.660400m. Speed=4.212000m/h.</desc>
<speed>1.170000</speed>
</trkpt>
<trkpt lat="44.624432" lon="33.827526">
<ele>370.426025</ele>
<time>2011-10-10T10:16:22Z</time>
<desc>lat.=44.624432, lon.=33.827526, Alt.=370.426025m. Speed=3.996000m/h.</desc>
<speed>1.110000</speed>
</trkpt>
<trkpt lat="44.624466" lon="33.827644">
<ele>371.863525</ele>
<time>2011-10-10T10:16:27Z</time>
<desc>lat.=44.624466, lon.=33.827644, Alt.=371.863525m. Speed=3.636000m/h.</desc>
<speed>1.010000</speed>
</trkpt>
<trkpt lat="44.624462" lon="33.827717">
<ele>371.965088</ele>
<time>2011-10-10T10:16:32Z</time>
<desc>lat.=44.624462, lon.=33.827717, Alt.=371.965088m. Speed=6.768000m/h.</desc>
<speed>1.880000</speed>
</trkpt>
<trkpt lat="44.624493" lon="33.827835">
<ele>373.051025</ele>
<time>2011-10-10T10:16:37Z</time>
<desc>lat.=44.624493, lon.=33.827835, Alt.=373.051025m. Speed=4.752000m/h.</desc>
<speed>1.320000</speed>
</trkpt>
<trkpt lat="44.624519" lon="33.827930">
<ele>375.285400</ele>
<time>2011-10-10T10:16:42Z</time>
<desc>lat.=44.624519, lon.=33.827930, Alt.=375.285400m. Speed=4.968000m/h.</desc>
<speed>1.380000</speed>
</trkpt>
<trkpt lat="44.624554" lon="33.828045">
<ele>377.316650</ele>
<time>2011-10-10T10:16:47Z</time>
<desc>lat.=44.624554, lon.=33.828045, Alt.=377.316650m. Speed=4.680000m/h.</desc>
<speed>1.300000</speed>
</trkpt>
<trkpt lat="44.624588" lon="33.828186">
<ele>379.316650</ele>
<time>2011-10-10T10:16:52Z</time>
<desc>lat.=44.624588, lon.=33.828186, Alt.=379.316650m. Speed=5.220000m/h.</desc>
<speed>1.450000</speed>
</trkpt>
<trkpt lat="44.624622" lon="33.828308">
<ele>378.910400</ele>
<time>2011-10-10T10:16:57Z</time>
<desc>lat.=44.624622, lon.=33.828308, Alt.=378.910400m. Speed=4.536000m/h.</desc>
<speed>1.260000</speed>
</trkpt>
<trkpt lat="44.624626" lon="33.828392">
<ele>378.957275</ele>
<time>2011-10-10T10:17:02Z</time>
<desc>lat.=44.624626, lon.=33.828392, Alt.=378.957275m. Speed=3.852000m/h.</desc>
<speed>1.070000</speed>
</trkpt>
<trkpt lat="44.624660" lon="33.828495">
<ele>381.027588</ele>
<time>2011-10-10T10:17:07Z</time>
<desc>lat.=44.624660, lon.=33.828495, Alt.=381.027588m. Speed=3.816000m/h.</desc>
<speed>1.060000</speed>
</trkpt>
<trkpt lat="44.624699" lon="33.828598">
<ele>382.590088</ele>
<time>2011-10-10T10:17:12Z</time>
<desc>lat.=44.624699, lon.=33.828598, Alt.=382.590088m. Speed=4.572000m/h.</desc>
<speed>1.270000</speed>
</trkpt>
<trkpt lat="44.624741" lon="33.828701">
<ele>382.363525</ele>
<time>2011-10-10T10:17:17Z</time>
<desc>lat.=44.624741, lon.=33.828701, Alt.=382.363525m. Speed=2.376000m/h.</desc>
<speed>0.660000</speed>
</trkpt>
<trkpt lat="44.624783" lon="33.828800">
<ele>382.269775</ele>
<time>2011-10-10T10:17:22Z</time>
<desc>lat.=44.624783, lon.=33.828800, Alt.=382.269775m. Speed=5.544000m/h.</desc>
<speed>1.540000</speed>
</trkpt>
<trkpt lat="44.624832" lon="33.828896">
<ele>382.543213</ele>
<time>2011-10-10T10:17:27Z</time>
<desc>lat.=44.624832, lon.=33.828896, Alt.=382.543213m. Speed=4.716000m/h.</desc>
<speed>1.310000</speed>
</trkpt>
<trkpt lat="44.624878" lon="33.829018">
<ele>382.082275</ele>
<time>2011-10-10T10:17:32Z</time>
<desc>lat.=44.624878, lon.=33.829018, Alt.=382.082275m. Speed=6.696000m/h.</desc>
<speed>1.860000</speed>
</trkpt>
<trkpt lat="44.624920" lon="33.829121">
<ele>381.254150</ele>
<time>2011-10-10T10:17:37Z</time>
<desc>lat.=44.624920, lon.=33.829121, Alt.=381.254150m. Speed=5.832000m/h.</desc>
<speed>1.620000</speed>
</trkpt>
<trkpt lat="44.624973" lon="33.829212">
<ele>381.082275</ele>
<time>2011-10-10T10:17:42Z</time>
<desc>lat.=44.624973, lon.=33.829212, Alt.=381.082275m. Speed=8.244000m/h.</desc>
<speed>2.290000</speed>
</trkpt>
<trkpt lat="44.625031" lon="33.829315">
<ele>381.347900</ele>
<time>2011-10-10T10:17:47Z</time>
<desc>lat.=44.625031, lon.=33.829315, Alt.=381.347900m. Speed=5.616000m/h.</desc>
<speed>1.560000</speed>
</trkpt>
<trkpt lat="44.625084" lon="33.829418">
<ele>381.691650</ele>
<time>2011-10-10T10:17:52Z</time>
<desc>lat.=44.625084, lon.=33.829418, Alt.=381.691650m. Speed=3.600000m/h.</desc>
<speed>1.000000</speed>
</trkpt>
<trkpt lat="44.625164" lon="33.829567">
<ele>382.207275</ele>
<time>2011-10-10T10:17:57Z</time>
<desc>lat.=44.625164, lon.=33.829567, Alt.=382.207275m. Speed=7.236000m/h.</desc>
<speed>2.010000</speed>
</trkpt>
<trkpt lat="44.625202" lon="33.829685">
<ele>382.636963</ele>
<time>2011-10-10T10:18:02Z</time>
<desc>lat.=44.625202, lon.=33.829685, Alt.=382.636963m. Speed=7.812000m/h.</desc>
<speed>2.170000</speed>
</trkpt>
<trkpt lat="44.625233" lon="33.829815">
<ele>380.269775</ele>
<time>2011-10-10T10:18:07Z</time>
<desc>lat.=44.625233, lon.=33.829815, Alt.=380.269775m. Speed=5.400000m/h.</desc>
<speed>1.500000</speed>
</trkpt>
<trkpt lat="44.625271" lon="33.829964">
<ele>378.058838</ele>
<time>2011-10-10T10:18:12Z</time>
<desc>lat.=44.625271, lon.=33.829964, Alt.=378.058838m. Speed=6.228000m/h.</desc>
<speed>1.730000</speed>
</trkpt>
<trkpt lat="44.625282" lon="33.830074">
<ele>377.285400</ele>
<time>2011-10-10T10:18:17Z</time>
<desc>lat.=44.625282, lon.=33.830074, Alt.=377.285400m. Speed=4.392000m/h.</desc>
<speed>1.220000</speed>
</trkpt>
<trkpt lat="44.625282" lon="33.830185">
<ele>377.566650</ele>
<time>2011-10-10T10:18:22Z</time>
<desc>lat.=44.625282, lon.=33.830185, Alt.=377.566650m. Speed=5.868000m/h.</desc>
<speed>1.630000</speed>
</trkpt>
<trkpt lat="44.625282" lon="33.830284">
<ele>378.972900</ele>
<time>2011-10-10T10:18:27Z</time>
<desc>lat.=44.625282, lon.=33.830284, Alt.=378.972900m. Speed=3.132000m/h.</desc>
<speed>0.870000</speed>
</trkpt>
<trkpt lat="44.625290" lon="33.830376">
<ele>381.066650</ele>
<time>2011-10-10T10:18:32Z</time>
<desc>lat.=44.625290, lon.=33.830376, Alt.=381.066650m. Speed=4.680000m/h.</desc>
<speed>1.300000</speed>
</trkpt>
<trkpt lat="44.625290" lon="33.830460">
<ele>381.097900</ele>
<time>2011-10-10T10:18:37Z</time>
<desc>lat.=44.625290, lon.=33.830460, Alt.=381.097900m. Speed=4.104000m/h.</desc>
<speed>1.140000</speed>
</trkpt>
<trkpt lat="44.625263" lon="33.830528">
<ele>382.261963</ele>
<time>2011-10-10T10:18:42Z</time>
<desc>lat.=44.625263, lon.=33.830528, Alt.=382.261963m. Speed=3.564000m/h.</desc>
<speed>0.990000</speed>
</trkpt>
<trkpt lat="44.625233" lon="33.830658">
<ele>383.019775</ele>
<time>2011-10-10T10:18:47Z</time>
<desc>lat.=44.625233, lon.=33.830658, Alt.=383.019775m. Speed=6.588000m/h.</desc>
<speed>1.830000</speed>
</trkpt>
<trkpt lat="44.625210" lon="33.830757">
<ele>384.785400</ele>
<time>2011-10-10T10:18:52Z</time>
<desc>lat.=44.625210, lon.=33.830757, Alt.=384.785400m. Speed=5.364000m/h.</desc>
<speed>1.490000</speed>
</trkpt>
<trkpt lat="44.625214" lon="33.830833">
<ele>386.558838</ele>
<time>2011-10-10T10:18:57Z</time>
<desc>lat.=44.625214, lon.=33.830833, Alt.=386.558838m. Speed=2.412000m/h.</desc>
<speed>0.670000</speed>
</trkpt>
<trkpt lat="44.625214" lon="33.830929">
<ele>387.441650</ele>
<time>2011-10-10T10:19:02Z</time>
<desc>lat.=44.625214, lon.=33.830929, Alt.=387.441650m. Speed=5.400000m/h.</desc>
<speed>1.500000</speed>
</trkpt>
<trkpt lat="44.625217" lon="33.831020">
<ele>388.793213</ele>
<time>2011-10-10T10:19:07Z</time>
<desc>lat.=44.625217, lon.=33.831020, Alt.=388.793213m. Speed=4.968000m/h.</desc>
<speed>1.380000</speed>
</trkpt>
<trkpt lat="44.625221" lon="33.831131">
<ele>390.668213</ele>
<time>2011-10-10T10:19:12Z</time>
<desc>lat.=44.625221, lon.=33.831131, Alt.=390.668213m. Speed=5.148000m/h.</desc>
<speed>1.430000</speed>
</trkpt>
<trkpt lat="44.625248" lon="33.831234">
<ele>393.207275</ele>
<time>2011-10-10T10:19:17Z</time>
<desc>lat.=44.625248, lon.=33.831234, Alt.=393.207275m. Speed=2.340000m/h.</desc>
<speed>0.650000</speed>
</trkpt>
<trkpt lat="44.625240" lon="33.831337">
<ele>394.051025</ele>
<time>2011-10-10T10:19:22Z</time>
<desc>lat.=44.625240, lon.=33.831337, Alt.=394.051025m. Speed=4.932000m/h.</desc>
<speed>1.370000</speed>
</trkpt>
<trkpt lat="44.625259" lon="33.831444">
<ele>395.543213</ele>
<time>2011-10-10T10:19:27Z</time>
<desc>lat.=44.625259, lon.=33.831444, Alt.=395.543213m. Speed=5.184000m/h.</desc>
<speed>1.440000</speed>
</trkpt>
<trkpt lat="44.625259" lon="33.831562">
<ele>396.754150</ele>
<time>2011-10-10T10:19:32Z</time>
<desc>lat.=44.625259, lon.=33.831562, Alt.=396.754150m. Speed=5.760000m/h.</desc>
<speed>1.600000</speed>
</trkpt>
<trkpt lat="44.625259" lon="33.831635">
<ele>396.347900</ele>
<time>2011-10-10T10:19:37Z</time>
<desc>lat.=44.625259, lon.=33.831635, Alt.=396.347900m. Speed=0.468000m/h.</desc>
<speed>0.130000</speed>
</trkpt>
<trkpt lat="44.625240" lon="33.831646">
<ele>396.402588</ele>
<time>2011-10-10T10:19:42Z</time>
<desc>lat.=44.625240, lon.=33.831646, Alt.=396.402588m. Speed=0.180000m/h.</desc>
<speed>0.050000</speed>
</trkpt>
<trkpt lat="44.625244" lon="33.831707">
<ele>393.988525</ele>
<time>2011-10-10T10:19:47Z</time>
<desc>lat.=44.625244, lon.=33.831707, Alt.=393.988525m. Speed=4.896000m/h.</desc>
<speed>1.360000</speed>
</trkpt>
<trkpt lat="44.625237" lon="33.831814">
<ele>393.629150</ele>
<time>2011-10-10T10:19:52Z</time>
<desc>lat.=44.625237, lon.=33.831814, Alt.=393.629150m. Speed=5.256000m/h.</desc>
<speed>1.460000</speed>
</trkpt>
<trkpt lat="44.625248" lon="33.831932">
<ele>394.863525</ele>
<time>2011-10-10T10:19:57Z</time>
<desc>lat.=44.625248, lon.=33.831932, Alt.=394.863525m. Speed=5.796000m/h.</desc>
<speed>1.610000</speed>
</trkpt>
<trkpt lat="44.625252" lon="33.832054">
<ele>395.902588</ele>
<time>2011-10-10T10:20:02Z</time>
<desc>lat.=44.625252, lon.=33.832054, Alt.=395.902588m. Speed=5.220000m/h.</desc>
<speed>1.450000</speed>
</trkpt>
<trkpt lat="44.625267" lon="33.832172">
<ele>395.668213</ele>
<time>2011-10-10T10:20:07Z</time>
<desc>lat.=44.625267, lon.=33.832172, Alt.=395.668213m. Speed=5.184000m/h.</desc>
<speed>1.440000</speed>
</trkpt>
<trkpt lat="44.625286" lon="33.832291">
<ele>396.324463</ele>
<time>2011-10-10T10:20:12Z</time>
<desc>lat.=44.625286, lon.=33.832291, Alt.=396.324463m. Speed=6.264000m/h.</desc>
<speed>1.740000</speed>
</trkpt>
<trkpt lat="44.625294" lon="33.832401">
<ele>397.574463</ele>
<time>2011-10-10T10:20:17Z</time>
<desc>lat.=44.625294, lon.=33.832401, Alt.=397.574463m. Speed=5.868000m/h.</desc>
<speed>1.630000</speed>
</trkpt>
<trkpt lat="44.625317" lon="33.832535">
<ele>399.465088</ele>
<time>2011-10-10T10:20:22Z</time>
<desc>lat.=44.625317, lon.=33.832535, Alt.=399.465088m. Speed=3.780000m/h.</desc>
<speed>1.050000</speed>
</trkpt>
<trkpt lat="44.625332" lon="33.832668">
<ele>400.558838</ele>
<time>2011-10-10T10:20:27Z</time>
<desc>lat.=44.625332, lon.=33.832668, Alt.=400.558838m. Speed=5.436000m/h.</desc>
<speed>1.510000</speed>
</trkpt>
<trkpt lat="44.625328" lon="33.832809">
<ele>401.488525</ele>
<time>2011-10-10T10:20:32Z</time>
<desc>lat.=44.625328, lon.=33.832809, Alt.=401.488525m. Speed=5.220000m/h.</desc>
<speed>1.450000</speed>
</trkpt>
<trkpt lat="44.625343" lon="33.832943">
<ele>401.472900</ele>
<time>2011-10-10T10:20:37Z</time>
<desc>lat.=44.625343, lon.=33.832943, Alt.=401.472900m. Speed=3.132000m/h.</desc>
<speed>0.870000</speed>
</trkpt>
<trkpt lat="44.625359" lon="33.833065">
<ele>401.535400</ele>
<time>2011-10-10T10:20:42Z</time>
<desc>lat.=44.625359, lon.=33.833065, Alt.=401.535400m. Speed=5.004000m/h.</desc>
<speed>1.390000</speed>
</trkpt>
<trkpt lat="44.625359" lon="33.833172">
<ele>401.707275</ele>
<time>2011-10-10T10:20:47Z</time>
<desc>lat.=44.625359, lon.=33.833172, Alt.=401.707275m. Speed=4.572000m/h.</desc>
<speed>1.270000</speed>
</trkpt>
<trkpt lat="44.625320" lon="33.833263">
<ele>402.394775</ele>
<time>2011-10-10T10:20:52Z</time>
<desc>lat.=44.625320, lon.=33.833263, Alt.=402.394775m. Speed=5.904000m/h.</desc>
<speed>1.640000</speed>
</trkpt>
<trkpt lat="44.625294" lon="33.833363">
<ele>404.761963</ele>
<time>2011-10-10T10:20:57Z</time>
<desc>lat.=44.625294, lon.=33.833363, Alt.=404.761963m. Speed=4.284000m/h.</desc>
<speed>1.190000</speed>
</trkpt>
<trkpt lat="44.625244" lon="33.833447">
<ele>407.113525</ele>
<time>2011-10-10T10:21:02Z</time>
<desc>lat.=44.625244, lon.=33.833447, Alt.=407.113525m. Speed=5.796000m/h.</desc>
<speed>1.610000</speed>
</trkpt>
<trkpt lat="44.625198" lon="33.833496">
<ele>408.965088</ele>
<time>2011-10-10T10:21:07Z</time>
<desc>lat.=44.625198, lon.=33.833496, Alt.=408.965088m. Speed=6.372000m/h.</desc>
<speed>1.770000</speed>
</trkpt>
<trkpt lat="44.625149" lon="33.833572">
<ele>410.761963</ele>
<time>2011-10-10T10:21:12Z</time>
<desc>lat.=44.625149, lon.=33.833572, Alt.=410.761963m. Speed=5.868000m/h.</desc>
<speed>1.630000</speed>
</trkpt>
<trkpt lat="44.625099" lon="33.833626">
<ele>412.308838</ele>
<time>2011-10-10T10:21:17Z</time>
<desc>lat.=44.625099, lon.=33.833626, Alt.=412.308838m. Speed=3.060000m/h.</desc>
<speed>0.850000</speed>
</trkpt>
<trkpt lat="44.625076" lon="33.833710">
<ele>412.910400</ele>
<time>2011-10-10T10:21:22Z</time>
<desc>lat.=44.625076, lon.=33.833710, Alt.=412.910400m. Speed=2.232000m/h.</desc>
<speed>0.620000</speed>
</trkpt>
<trkpt lat="44.625061" lon="33.833778">
<ele>411.097900</ele>
<time>2011-10-10T10:21:27Z</time>
<desc>lat.=44.625061, lon.=33.833778, Alt.=411.097900m. Speed=2.052000m/h.</desc>
<speed>0.570000</speed>
</trkpt>
<trkpt lat="44.625069" lon="33.833820">
<ele>411.066650</ele>
<time>2011-10-10T10:21:32Z</time>
<desc>lat.=44.625069, lon.=33.833820, Alt.=411.066650m. Speed=1.332000m/h.</desc>
<speed>0.370000</speed>
</trkpt>
<trkpt lat="44.625084" lon="33.833870">
<ele>410.754150</ele>
<time>2011-10-10T10:21:37Z</time>
<desc>lat.=44.625084, lon.=33.833870, Alt.=410.754150m. Speed=1.548000m/h.</desc>
<speed>0.430000</speed>
</trkpt>
<trkpt lat="44.625095" lon="33.833855">
<ele>410.746338</ele>
<time>2011-10-10T10:21:42Z</time>
<desc>lat.=44.625095, lon.=33.833855, Alt.=410.746338m. Speed=1.584000m/h.</desc>
<speed>0.440000</speed>
</trkpt>
<trkpt lat="44.625095" lon="33.833858">
<ele>410.644775</ele>
<time>2011-10-10T10:21:47Z</time>
<desc>lat.=44.625095, lon.=33.833858, Alt.=410.644775m. Speed=0.576000m/h.</desc>
<speed>0.160000</speed>
</trkpt>
<trkpt lat="44.625088" lon="33.833862">
<ele>410.590088</ele>
<time>2011-10-10T10:21:52Z</time>
<desc>lat.=44.625088, lon.=33.833862, Alt.=410.590088m. Speed=0.576000m/h.</desc>
<speed>0.160000</speed>
</trkpt>
<trkpt lat="44.625088" lon="33.833866">
<ele>410.769775</ele>
<time>2011-10-10T10:21:57Z</time>
<desc>lat.=44.625088, lon.=33.833866, Alt.=410.769775m. Speed=0.252000m/h.</desc>
<speed>0.070000</speed>
</trkpt>
<trkpt lat="44.625088" lon="33.833870">
<ele>410.871338</ele>
<time>2011-10-10T10:22:02Z</time>
<desc>lat.=44.625088, lon.=33.833870, Alt.=410.871338m. Speed=0.108000m/h.</desc>
<speed>0.030000</speed>
</trkpt>
<trkpt lat="44.625092" lon="33.833870">
<ele>410.824463</ele>
<time>2011-10-10T10:22:07Z</time>
<desc>lat.=44.625092, lon.=33.833870, Alt.=410.824463m. Speed=0.288000m/h.</desc>
<speed>0.080000</speed>
</trkpt>
<trkpt lat="44.625092" lon="33.833870">
<ele>410.761963</ele>
<time>2011-10-10T10:22:12Z</time>
<desc>lat.=44.625092, lon.=33.833870, Alt.=410.761963m. Speed=0.036000m/h.</desc>
<speed>0.010000</speed>
</trkpt>
<trkpt lat="44.625092" lon="33.833870">
<ele>410.746338</ele>
<time>2011-10-10T10:22:17Z</time>
<desc>lat.=44.625092, lon.=33.833870, Alt.=410.746338m. Speed=0.072000m/h.</desc>
<speed>0.020000</speed>
</trkpt>
<trkpt lat="44.625088" lon="33.833866">
<ele>410.660400</ele>
<time>2011-10-10T10:22:22Z</time>
<desc>lat.=44.625088, lon.=33.833866, Alt.=410.660400m. Speed=0.180000m/h.</desc>
<speed>0.050000</speed>
</trkpt>
<trkpt lat="44.625088" lon="33.833866">
<ele>410.605713</ele>
<time>2011-10-10T10:22:27Z</time>
<desc>lat.=44.625088, lon.=33.833866, Alt.=410.605713m. Speed=0.108000m/h.</desc>
<speed>0.030000</speed>
</trkpt>
<trkpt lat="44.625088" lon="33.833866">
<ele>410.558838</ele>
<time>2011-10-10T10:22:32Z</time>
<desc>lat.=44.625088, lon.=33.833866, Alt.=410.558838m. Speed=0.000000m/h.</desc>
<speed>0.000000</speed>
</trkpt>
<trkpt lat="44.625088" lon="33.833866">
<ele>410.527588</ele>
<time>2011-10-10T10:22:37Z</time>
<desc>lat.=44.625088, lon.=33.833866, Alt.=410.527588m. Speed=0.036000m/h.</desc>
<speed>0.010000</speed>
</trkpt>
<trkpt lat="44.625088" lon="33.833866">
<ele>410.488525</ele>
<time>2011-10-10T10:22:42Z</time>
<desc>lat.=44.625088, lon.=33.833866, Alt.=410.488525m. Speed=0.000000m/h.</desc>
<speed>0.000000</speed>
</trkpt>
<trkpt lat="44.625088" lon="33.833866">
<ele>410.472900</ele>
<time>2011-10-10T10:22:47Z</time>
<desc>lat.=44.625088, lon.=33.833866, Alt.=410.472900m. Speed=0.036000m/h.</desc>
<speed>0.010000</speed>
</trkpt>
<trkpt lat="44.625088" lon="33.833866">
<ele>410.441650</ele>
<time>2011-10-10T10:22:52Z</time>
<desc>lat.=44.625088, lon.=33.833866, Alt.=410.441650m. Speed=0.036000m/h.</desc>
<speed>0.010000</speed>
</trkpt>
<trkpt lat="44.625088" lon="33.833866">
<ele>410.433838</ele>
<time>2011-10-10T10:22:57Z</time>
<desc>lat.=44.625088, lon.=33.833866, Alt.=410.433838m. Speed=0.036000m/h.</desc>
<speed>0.010000</speed>
</trkpt>
<trkpt lat="44.625088" lon="33.833866">
<ele>410.410400</ele>
<time>2011-10-10T10:23:02Z</time>
<desc>lat.=44.625088, lon.=33.833866, Alt.=410.410400m. Speed=0.036000m/h.</desc>
<speed>0.010000</speed>
</trkpt>
<trkpt lat="44.625088" lon="33.833866">
<ele>410.386963</ele>
<time>2011-10-10T10:23:07Z</time>
<desc>lat.=44.625088, lon.=33.833866, Alt.=410.386963m. Speed=0.000000m/h.</desc>
<speed>0.000000</speed>
</trkpt>
<trkpt lat="44.625088" lon="33.833866">
<ele>410.379150</ele>
<time>2011-10-10T10:23:12Z</time>
<desc>lat.=44.625088, lon.=33.833866, Alt.=410.379150m. Speed=0.000000m/h.</desc>
<speed>0.000000</speed>
</trkpt>
<trkpt lat="44.625088" lon="33.833866">
<ele>410.355713</ele>
<time>2011-10-10T10:23:17Z</time>
<desc>lat.=44.625088, lon.=33.833866, Alt.=410.355713m. Speed=0.000000m/h.</desc>
<speed>0.000000</speed>
</trkpt>
<trkpt lat="44.625088" lon="33.833866">
<ele>410.332275</ele>
<time>2011-10-10T10:23:22Z</time>
<desc>lat.=44.625088, lon.=33.833866, Alt.=410.332275m. Speed=0.000000m/h.</desc>
<speed>0.000000</speed>
</trkpt>
<trkpt lat="44.625088" lon="33.833866">
<ele>410.308838</ele>
<time>2011-10-10T10:23:27Z</time>
<desc>lat.=44.625088, lon.=33.833866, Alt.=410.308838m. Speed=0.000000m/h.</desc>
<speed>0.000000</speed>
</trkpt>
<trkpt lat="44.625088" lon="33.833866">
<ele>410.285400</ele>
<time>2011-10-10T10:23:32Z</time>
<desc>lat.=44.625088, lon.=33.833866, Alt.=410.285400m. Speed=0.000000m/h.</desc>
<speed>0.000000</speed>
</trkpt>
<trkpt lat="44.625088" lon="33.833862">
<ele>409.965088</ele>
<time>2011-10-10T10:23:37Z</time>
<desc>lat.=44.625088, lon.=33.833862, Alt.=409.965088m. Speed=0.036000m/h.</desc>
<speed>0.010000</speed>
</trkpt>
<trkpt lat="44.625088" lon="33.833862">
<ele>409.527588</ele>
<time>2011-10-10T10:23:42Z</time>
<desc>lat.=44.625088, lon.=33.833862, Alt.=409.527588m. Speed=0.000000m/h.</desc>
<speed>0.000000</speed>
</trkpt>
<trkpt lat="44.625088" lon="33.833870">
<ele>408.886963</ele>
<time>2011-10-10T10:23:47Z</time>
<desc>lat.=44.625088, lon.=33.833870, Alt.=408.886963m. Speed=0.360000m/h.</desc>
<speed>0.100000</speed>
</trkpt>
<trkpt lat="44.625088" lon="33.833870">
<ele>408.316650</ele>
<time>2011-10-10T10:23:52Z</time>
<desc>lat.=44.625088, lon.=33.833870, Alt.=408.316650m. Speed=0.000000m/h.</desc>
<speed>0.000000</speed>
</trkpt>
<trkpt lat="44.625092" lon="33.833874">
<ele>407.636963</ele>
<time>2011-10-10T10:23:57Z</time>
<desc>lat.=44.625092, lon.=33.833874, Alt.=407.636963m. Speed=0.000000m/h.</desc>
<speed>0.000000</speed>
</trkpt>
<trkpt lat="44.625103" lon="33.833931">
<ele>407.246338</ele>
<time>2011-10-10T10:24:02Z</time>
<desc>lat.=44.625103, lon.=33.833931, Alt.=407.246338m. Speed=4.680000m/h.</desc>
<speed>1.300000</speed>
</trkpt>
<trkpt lat="44.625095" lon="33.834080">
<ele>407.379150</ele>
<time>2011-10-10T10:24:07Z</time>
<desc>lat.=44.625095, lon.=33.834080, Alt.=407.379150m. Speed=9.036000m/h.</desc>
<speed>2.510000</speed>
</trkpt>
<trkpt lat="44.625111" lon="33.834225">
<ele>407.965088</ele>
<time>2011-10-10T10:24:12Z</time>
<desc>lat.=44.625111, lon.=33.834225, Alt.=407.965088m. Speed=4.392000m/h.</desc>
<speed>1.220000</speed>
</trkpt>
<trkpt lat="44.625164" lon="33.834320">
<ele>409.449463</ele>
<time>2011-10-10T10:24:17Z</time>
<desc>lat.=44.625164, lon.=33.834320, Alt.=409.449463m. Speed=5.796000m/h.</desc>
<speed>1.610000</speed>
</trkpt>
<trkpt lat="44.625256" lon="33.834415">
<ele>409.090088</ele>
<time>2011-10-10T10:24:22Z</time>
<desc>lat.=44.625256, lon.=33.834415, Alt.=409.090088m. Speed=4.356000m/h.</desc>
<speed>1.210000</speed>
</trkpt>
<trkpt lat="44.625355" lon="33.834507">
<ele>407.832275</ele>
<time>2011-10-10T10:24:27Z</time>
<desc>lat.=44.625355, lon.=33.834507, Alt.=407.832275m. Speed=2.124000m/h.</desc>
<speed>0.590000</speed>
</trkpt>
<trkpt lat="44.625420" lon="33.834599">
<ele>407.215088</ele>
<time>2011-10-10T10:24:32Z</time>
<desc>lat.=44.625420, lon.=33.834599, Alt.=407.215088m. Speed=6.732000m/h.</desc>
<speed>1.870000</speed>
</trkpt>
<trkpt lat="44.625530" lon="33.834709">
<ele>407.426025</ele>
<time>2011-10-10T10:24:37Z</time>
<desc>lat.=44.625530, lon.=33.834709, Alt.=407.426025m. Speed=7.344000m/h.</desc>
<speed>2.040000</speed>
</trkpt>
<trkpt lat="44.625645" lon="33.834827">
<ele>405.972900</ele>
<time>2011-10-10T10:24:42Z</time>
<desc>lat.=44.625645, lon.=33.834827, Alt.=405.972900m. Speed=6.984000m/h.</desc>
<speed>1.940000</speed>
</trkpt>
<trkpt lat="44.625710" lon="33.834904">
<ele>404.863525</ele>
<time>2011-10-10T10:24:47Z</time>
<desc>lat.=44.625710, lon.=33.834904, Alt.=404.863525m. Speed=2.196000m/h.</desc>
<speed>0.610000</speed>
</trkpt>
<trkpt lat="44.625790" lon="33.834946">
<ele>403.918213</ele>
<time>2011-10-10T10:24:52Z</time>
<desc>lat.=44.625790, lon.=33.834946, Alt.=403.918213m. Speed=5.976000m/h.</desc>
<speed>1.660000</speed>
</trkpt>
<trkpt lat="44.625885" lon="33.835007">
<ele>402.738525</ele>
<time>2011-10-10T10:24:57Z</time>
<desc>lat.=44.625885, lon.=33.835007, Alt.=402.738525m. Speed=5.544000m/h.</desc>
<speed>1.540000</speed>
</trkpt>
<trkpt lat="44.626049" lon="33.835083">
<ele>400.605713</ele>
<time>2011-10-10T10:25:02Z</time>
<desc>lat.=44.626049, lon.=33.835083, Alt.=400.605713m. Speed=11.700000m/h.</desc>
<speed>3.250000</speed>
</trkpt>
<trkpt lat="44.626175" lon="33.835114">
<ele>399.074463</ele>
<time>2011-10-10T10:25:07Z</time>
<desc>lat.=44.626175, lon.=33.835114, Alt.=399.074463m. Speed=4.392000m/h.</desc>
<speed>1.220000</speed>
</trkpt>
<trkpt lat="44.626324" lon="33.835186">
<ele>397.816650</ele>
<time>2011-10-10T10:25:12Z</time>
<desc>lat.=44.626324, lon.=33.835186, Alt.=397.816650m. Speed=7.560000m/h.</desc>
<speed>2.100000</speed>
</trkpt>
<trkpt lat="44.626453" lon="33.835281">
<ele>395.449463</ele>
<time>2011-10-10T10:25:17Z</time>
<desc>lat.=44.626453, lon.=33.835281, Alt.=395.449463m. Speed=5.292000m/h.</desc>
<speed>1.470000</speed>
</trkpt>
<trkpt lat="44.626545" lon="33.835373">
<ele>396.308838</ele>
<time>2011-10-10T10:25:22Z</time>
<desc>lat.=44.626545, lon.=33.835373, Alt.=396.308838m. Speed=5.940000m/h.</desc>
<speed>1.650000</speed>
</trkpt>
<trkpt lat="44.626686" lon="33.835407">
<ele>396.183838</ele>
<time>2011-10-10T10:25:27Z</time>
<desc>lat.=44.626686, lon.=33.835407, Alt.=396.183838m. Speed=6.732000m/h.</desc>
<speed>1.870000</speed>
</trkpt>
<trkpt lat="44.626812" lon="33.835480">
<ele>397.418213</ele>
<time>2011-10-10T10:25:32Z</time>
<desc>lat.=44.626812, lon.=33.835480, Alt.=397.418213m. Speed=8.748000m/h.</desc>
<speed>2.430000</speed>
</trkpt>
<trkpt lat="44.626915" lon="33.835537">
<ele>399.926025</ele>
<time>2011-10-10T10:25:37Z</time>
<desc>lat.=44.626915, lon.=33.835537, Alt.=399.926025m. Speed=5.616000m/h.</desc>
<speed>1.560000</speed>
</trkpt>
<trkpt lat="44.627026" lon="33.835606">
<ele>402.668213</ele>
<time>2011-10-10T10:25:42Z</time>
<desc>lat.=44.627026, lon.=33.835606, Alt.=402.668213m. Speed=8.820000m/h.</desc>
<speed>2.450000</speed>
</trkpt>
<trkpt lat="44.627167" lon="33.835667">
<ele>402.394775</ele>
<time>2011-10-10T10:25:47Z</time>
<desc>lat.=44.627167, lon.=33.835667, Alt.=402.394775m. Speed=9.144000m/h.</desc>
<speed>2.540000</speed>
</trkpt>
<trkpt lat="44.627239" lon="33.835793">
<ele>404.332275</ele>
<time>2011-10-10T10:25:52Z</time>
<desc>lat.=44.627239, lon.=33.835793, Alt.=404.332275m. Speed=7.128000m/h.</desc>
<speed>1.980000</speed>
</trkpt>
<trkpt lat="44.627365" lon="33.835995">
<ele>406.511963</ele>
<time>2011-10-10T10:25:57Z</time>
<desc>lat.=44.627365, lon.=33.835995, Alt.=406.511963m. Speed=9.540000m/h.</desc>
<speed>2.650000</speed>
</trkpt>
<trkpt lat="44.627457" lon="33.836143">
<ele>407.847900</ele>
<time>2011-10-10T10:26:02Z</time>
<desc>lat.=44.627457, lon.=33.836143, Alt.=407.847900m. Speed=11.772000m/h.</desc>
<speed>3.270000</speed>
</trkpt>
<trkpt lat="44.627579" lon="33.836277">
<ele>408.222900</ele>
<time>2011-10-10T10:26:07Z</time>
<desc>lat.=44.627579, lon.=33.836277, Alt.=408.222900m. Speed=7.596000m/h.</desc>
<speed>2.110000</speed>
</trkpt>
<trkpt lat="44.627693" lon="33.836411">
<ele>406.691650</ele>
<time>2011-10-10T10:26:12Z</time>
<desc>lat.=44.627693, lon.=33.836411, Alt.=406.691650m. Speed=8.280000m/h.</desc>
<speed>2.300000</speed>
</trkpt>
<trkpt lat="44.627838" lon="33.836536">
<ele>406.941650</ele>
<time>2011-10-10T10:26:17Z</time>
<desc>lat.=44.627838, lon.=33.836536, Alt.=406.941650m. Speed=8.208000m/h.</desc>
<speed>2.280000</speed>
</trkpt>
<trkpt lat="44.627945" lon="33.836651">
<ele>405.722900</ele>
<time>2011-10-10T10:26:22Z</time>
<desc>lat.=44.627945, lon.=33.836651, Alt.=405.722900m. Speed=5.364000m/h.</desc>
<speed>1.490000</speed>
</trkpt>
<trkpt lat="44.627987" lon="33.836784">
<ele>406.277588</ele>
<time>2011-10-10T10:26:27Z</time>
<desc>lat.=44.627987, lon.=33.836784, Alt.=406.277588m. Speed=7.560000m/h.</desc>
<speed>2.100000</speed>
</trkpt>
<trkpt lat="44.627991" lon="33.836933">
<ele>408.551025</ele>
<time>2011-10-10T10:26:32Z</time>
<desc>lat.=44.627991, lon.=33.836933, Alt.=408.551025m. Speed=8.676000m/h.</desc>
<speed>2.410000</speed>
</trkpt>
<trkpt lat="44.627998" lon="33.837086">
<ele>407.433838</ele>
<time>2011-10-10T10:26:37Z</time>
<desc>lat.=44.627998, lon.=33.837086, Alt.=407.433838m. Speed=8.280000m/h.</desc>
<speed>2.300000</speed>
</trkpt>
<trkpt lat="44.627979" lon="33.837219">
<ele>408.613525</ele>
<time>2011-10-10T10:26:42Z</time>
<desc>lat.=44.627979, lon.=33.837219, Alt.=408.613525m. Speed=5.616000m/h.</desc>
<speed>1.560000</speed>
</trkpt>
<trkpt lat="44.627934" lon="33.837315">
<ele>410.183838</ele>
<time>2011-10-10T10:26:47Z</time>
<desc>lat.=44.627934, lon.=33.837315, Alt.=410.183838m. Speed=4.788000m/h.</desc>
<speed>1.330000</speed>
</trkpt>
<trkpt lat="44.627895" lon="33.837421">
<ele>411.293213</ele>
<time>2011-10-10T10:26:52Z</time>
<desc>lat.=44.627895, lon.=33.837421, Alt.=411.293213m. Speed=5.652000m/h.</desc>
<speed>1.570000</speed>
</trkpt>
<trkpt lat="44.627865" lon="33.837521">
<ele>412.441650</ele>
<time>2011-10-10T10:26:57Z</time>
<desc>lat.=44.627865, lon.=33.837521, Alt.=412.441650m. Speed=4.968000m/h.</desc>
<speed>1.380000</speed>
</trkpt>
<trkpt lat="44.627869" lon="33.837643">
<ele>414.285400</ele>
<time>2011-10-10T10:27:02Z</time>
<desc>lat.=44.627869, lon.=33.837643, Alt.=414.285400m. Speed=4.140000m/h.</desc>
<speed>1.150000</speed>
</trkpt>
<trkpt lat="44.627850" lon="33.837788">
<ele>415.136963</ele>
<time>2011-10-10T10:27:07Z</time>
<desc>lat.=44.627850, lon.=33.837788, Alt.=415.136963m. Speed=5.796000m/h.</desc>
<speed>1.610000</speed>
</trkpt>
<trkpt lat="44.627815" lon="33.837952">
<ele>414.910400</ele>
<time>2011-10-10T10:27:12Z</time>
<desc>lat.=44.627815, lon.=33.837952, Alt.=414.910400m. Speed=7.056000m/h.</desc>
<speed>1.960000</speed>
</trkpt>
<trkpt lat="44.627758" lon="33.838039">
<ele>414.316650</ele>
<time>2011-10-10T10:27:17Z</time>
<desc>lat.=44.627758, lon.=33.838039, Alt.=414.316650m. Speed=3.708000m/h.</desc>
<speed>1.030000</speed>
</trkpt>
<trkpt lat="44.627697" lon="33.838093">
<ele>415.855713</ele>
<time>2011-10-10T10:27:22Z</time>
<desc>lat.=44.627697, lon.=33.838093, Alt.=415.855713m. Speed=5.112000m/h.</desc>
<speed>1.420000</speed>
</trkpt>
<trkpt lat="44.627644" lon="33.838154">
<ele>417.246338</ele>
<time>2011-10-10T10:27:27Z</time>
<desc>lat.=44.627644, lon.=33.838154, Alt.=417.246338m. Speed=5.040000m/h.</desc>
<speed>1.400000</speed>
</trkpt>
<trkpt lat="44.627590" lon="33.838238">
<ele>417.980713</ele>
<time>2011-10-10T10:27:32Z</time>
<desc>lat.=44.627590, lon.=33.838238, Alt.=417.980713m. Speed=5.328000m/h.</desc>
<speed>1.480000</speed>
</trkpt>
<trkpt lat="44.627537" lon="33.838264">
<ele>417.582275</ele>
<time>2011-10-10T10:27:37Z</time>
<desc>lat.=44.627537, lon.=33.838264, Alt.=417.582275m. Speed=5.184000m/h.</desc>
<speed>1.440000</speed>
</trkpt>
<trkpt lat="44.627472" lon="33.838310">
<ele>418.051025</ele>
<time>2011-10-10T10:27:42Z</time>
<desc>lat.=44.627472, lon.=33.838310, Alt.=418.051025m. Speed=6.012000m/h.</desc>
<speed>1.670000</speed>
</trkpt>
<trkpt lat="44.627399" lon="33.838356">
<ele>418.082275</ele>
<time>2011-10-10T10:27:47Z</time>
<desc>lat.=44.627399, lon.=33.838356, Alt.=418.082275m. Speed=6.156000m/h.</desc>
<speed>1.710000</speed>
</trkpt>
<trkpt lat="44.627373" lon="33.838387">
<ele>417.129150</ele>
<time>2011-10-10T10:27:52Z</time>
<desc>lat.=44.627373, lon.=33.838387, Alt.=417.129150m. Speed=1.512000m/h.</desc>
<speed>0.420000</speed>
</trkpt>
<trkpt lat="44.627354" lon="33.838402">
<ele>416.886963</ele>
<time>2011-10-10T10:27:57Z</time>
<desc>lat.=44.627354, lon.=33.838402, Alt.=416.886963m. Speed=2.160000m/h.</desc>
<speed>0.600000</speed>
</trkpt>
<trkpt lat="44.627312" lon="33.838428">
<ele>417.660400</ele>
<time>2011-10-10T10:28:02Z</time>
<desc>lat.=44.627312, lon.=33.838428, Alt.=417.660400m. Speed=2.664000m/h.</desc>
<speed>0.740000</speed>
</trkpt>
<trkpt lat="44.627296" lon="33.838440">
<ele>417.019775</ele>
<time>2011-10-10T10:28:07Z</time>
<desc>lat.=44.627296, lon.=33.838440, Alt.=417.019775m. Speed=3.708000m/h.</desc>
<speed>1.030000</speed>
</trkpt>
<trkpt lat="44.627251" lon="33.838474">
<ele>416.691650</ele>
<time>2011-10-10T10:28:12Z</time>
<desc>lat.=44.627251, lon.=33.838474, Alt.=416.691650m. Speed=4.176000m/h.</desc>
<speed>1.160000</speed>
</trkpt>
<trkpt lat="44.627239" lon="33.838482">
<ele>416.004150</ele>
<time>2011-10-10T10:28:17Z</time>
<desc>lat.=44.627239, lon.=33.838482, Alt.=416.004150m. Speed=0.756000m/h.</desc>
<speed>0.210000</speed>
</trkpt>
<trkpt lat="44.627220" lon="33.838501">
<ele>416.176025</ele>
<time>2011-10-10T10:28:22Z</time>
<desc>lat.=44.627220, lon.=33.838501, Alt.=416.176025m. Speed=3.132000m/h.</desc>
<speed>0.870000</speed>
</trkpt>
<trkpt lat="44.627174" lon="33.838535">
<ele>416.574463</ele>
<time>2011-10-10T10:28:27Z</time>
<desc>lat.=44.627174, lon.=33.838535, Alt.=416.574463m. Speed=5.256000m/h.</desc>
<speed>1.460000</speed>
</trkpt>
<trkpt lat="44.627132" lon="33.838593">
<ele>416.996338</ele>
<time>2011-10-10T10:28:32Z</time>
<desc>lat.=44.627132, lon.=33.838593, Alt.=416.996338m. Speed=3.636000m/h.</desc>
<speed>1.010000</speed>
</trkpt>
<trkpt lat="44.627083" lon="33.838646">
<ele>417.754150</ele>
<time>2011-10-10T10:28:37Z</time>
<desc>lat.=44.627083, lon.=33.838646, Alt.=417.754150m. Speed=5.364000m/h.</desc>
<speed>1.490000</speed>
</trkpt>
<trkpt lat="44.627026" lon="33.838688">
<ele>417.121338</ele>
<time>2011-10-10T10:28:42Z</time>
<desc>lat.=44.627026, lon.=33.838688, Alt.=417.121338m. Speed=5.220000m/h.</desc>
<speed>1.450000</speed>
</trkpt>
<trkpt lat="44.626984" lon="33.838734">
<ele>417.394775</ele>
<time>2011-10-10T10:28:47Z</time>
<desc>lat.=44.626984, lon.=33.838734, Alt.=417.394775m. Speed=4.500000m/h.</desc>
<speed>1.250000</speed>
</trkpt>
<trkpt lat="44.626953" lon="33.838795">
<ele>417.746338</ele>
<time>2011-10-10T10:28:52Z</time>
<desc>lat.=44.626953, lon.=33.838795, Alt.=417.746338m. Speed=4.644000m/h.</desc>
<speed>1.290000</speed>
</trkpt>
<trkpt lat="44.626915" lon="33.838848">
<ele>417.793213</ele>
<time>2011-10-10T10:28:57Z</time>
<desc>lat.=44.626915, lon.=33.838848, Alt.=417.793213m. Speed=3.852000m/h.</desc>
<speed>1.070000</speed>
</trkpt>
<trkpt lat="44.626881" lon="33.838928">
<ele>418.613525</ele>
<time>2011-10-10T10:29:02Z</time>
<desc>lat.=44.626881, lon.=33.838928, Alt.=418.613525m. Speed=5.040000m/h.</desc>
<speed>1.400000</speed>
</trkpt>
<trkpt lat="44.626858" lon="33.839001">
<ele>419.472900</ele>
<time>2011-10-10T10:29:07Z</time>
<desc>lat.=44.626858, lon.=33.839001, Alt.=419.472900m. Speed=4.572000m/h.</desc>
<speed>1.270000</speed>
</trkpt>
<trkpt lat="44.626835" lon="33.839062">
<ele>420.316650</ele>
<time>2011-10-10T10:29:12Z</time>
<desc>lat.=44.626835, lon.=33.839062, Alt.=420.316650m. Speed=3.708000m/h.</desc>
<speed>1.030000</speed>
</trkpt>
<trkpt lat="44.626816" lon="33.839127">
<ele>420.613525</ele>
<time>2011-10-10T10:29:17Z</time>
<desc>lat.=44.626816, lon.=33.839127, Alt.=420.613525m. Speed=2.808000m/h.</desc>
<speed>0.780000</speed>
</trkpt>
<trkpt lat="44.626778" lon="33.839172">
<ele>421.105713</ele>
<time>2011-10-10T10:29:22Z</time>
<desc>lat.=44.626778, lon.=33.839172, Alt.=421.105713m. Speed=5.004000m/h.</desc>
<speed>1.390000</speed>
</trkpt>
<trkpt lat="44.626743" lon="33.839233">
<ele>421.949463</ele>
<time>2011-10-10T10:29:27Z</time>
<desc>lat.=44.626743, lon.=33.839233, Alt.=421.949463m. Speed=3.528000m/h.</desc>
<speed>0.980000</speed>
</trkpt>
<trkpt lat="44.626717" lon="33.839272">
<ele>423.371338</ele>
<time>2011-10-10T10:29:32Z</time>
<desc>lat.=44.626717, lon.=33.839272, Alt.=423.371338m. Speed=4.212000m/h.</desc>
<speed>1.170000</speed>
</trkpt>
<trkpt lat="44.626694" lon="33.839348">
<ele>425.144775</ele>
<time>2011-10-10T10:29:37Z</time>
<desc>lat.=44.626694, lon.=33.839348, Alt.=425.144775m. Speed=4.284000m/h.</desc>
<speed>1.190000</speed>
</trkpt>
<trkpt lat="44.626690" lon="33.839413">
<ele>426.207275</ele>
<time>2011-10-10T10:29:42Z</time>
<desc>lat.=44.626690, lon.=33.839413, Alt.=426.207275m. Speed=3.672000m/h.</desc>
<speed>1.020000</speed>
</trkpt>
<trkpt lat="44.626678" lon="33.839481">
<ele>425.972900</ele>
<time>2011-10-10T10:29:47Z</time>
<desc>lat.=44.626678, lon.=33.839481, Alt.=425.972900m. Speed=4.500000m/h.</desc>
<speed>1.250000</speed>
</trkpt>
<trkpt lat="44.626656" lon="33.839554">
<ele>425.746338</ele>
<time>2011-10-10T10:29:52Z</time>
<desc>lat.=44.626656, lon.=33.839554, Alt.=425.746338m. Speed=6.300000m/h.</desc>
<speed>1.750000</speed>
</trkpt>
<trkpt lat="44.626678" lon="33.839619">
<ele>426.761963</ele>
<time>2011-10-10T10:29:57Z</time>
<desc>lat.=44.626678, lon.=33.839619, Alt.=426.761963m. Speed=3.420000m/h.</desc>
<speed>0.950000</speed>
</trkpt>
<trkpt lat="44.626713" lon="33.839680">
<ele>426.980713</ele>
<time>2011-10-10T10:30:02Z</time>
<desc>lat.=44.626713, lon.=33.839680, Alt.=426.980713m. Speed=3.312000m/h.</desc>
<speed>0.920000</speed>
</trkpt>
<trkpt lat="44.626736" lon="33.839760">
<ele>426.879150</ele>
<time>2011-10-10T10:30:07Z</time>
<desc>lat.=44.626736, lon.=33.839760, Alt.=426.879150m. Speed=4.680000m/h.</desc>
<speed>1.300000</speed>
</trkpt>
<trkpt lat="44.626770" lon="33.839832">
<ele>426.957275</ele>
<time>2011-10-10T10:30:12Z</time>
<desc>lat.=44.626770, lon.=33.839832, Alt.=426.957275m. Speed=3.600000m/h.</desc>
<speed>1.000000</speed>
</trkpt>
<trkpt lat="44.626801" lon="33.839893">
<ele>427.808838</ele>
<time>2011-10-10T10:30:17Z</time>
<desc>lat.=44.626801, lon.=33.839893, Alt.=427.808838m. Speed=4.356000m/h.</desc>
<speed>1.210000</speed>
</trkpt>
<trkpt lat="44.626827" lon="33.839958">
<ele>428.496338</ele>
<time>2011-10-10T10:30:22Z</time>
<desc>lat.=44.626827, lon.=33.839958, Alt.=428.496338m. Speed=3.456000m/h.</desc>
<speed>0.960000</speed>
</trkpt>
<trkpt lat="44.626884" lon="33.840038">
<ele>425.816650</ele>
<time>2011-10-10T10:30:27Z</time>
<desc>lat.=44.626884, lon.=33.840038, Alt.=425.816650m. Speed=4.464000m/h.</desc>
<speed>1.240000</speed>
</trkpt>
<trkpt lat="44.626911" lon="33.840092">
<ele>423.910400</ele>
<time>2011-10-10T10:30:32Z</time>
<desc>lat.=44.626911, lon.=33.840092, Alt.=423.910400m. Speed=0.360000m/h.</desc>
<speed>0.100000</speed>
</trkpt>
<trkpt lat="44.626961" lon="33.840137">
<ele>423.011963</ele>
<time>2011-10-10T10:30:37Z</time>
<desc>lat.=44.626961, lon.=33.840137, Alt.=423.011963m. Speed=5.868000m/h.</desc>
<speed>1.630000</speed>
</trkpt>
<trkpt lat="44.627037" lon="33.840248">
<ele>422.316650</ele>
<time>2011-10-10T10:30:42Z</time>
<desc>lat.=44.627037, lon.=33.840248, Alt.=422.316650m. Speed=8.568000m/h.</desc>
<speed>2.380000</speed>
</trkpt>
<trkpt lat="44.627098" lon="33.840328">
<ele>422.394775</ele>
<time>2011-10-10T10:30:47Z</time>
<desc>lat.=44.627098, lon.=33.840328, Alt.=422.394775m. Speed=6.300000m/h.</desc>
<speed>1.750000</speed>
</trkpt>
<trkpt lat="44.627258" lon="33.840481">
<ele>423.371338</ele>
<time>2011-10-10T10:30:52Z</time>
<desc>lat.=44.627258, lon.=33.840481, Alt.=423.371338m. Speed=14.508000m/h.</desc>
<speed>4.030000</speed>
</trkpt>
<trkpt lat="44.627392" lon="33.840649">
<ele>425.402588</ele>
<time>2011-10-10T10:30:57Z</time>
<desc>lat.=44.627392, lon.=33.840649, Alt.=425.402588m. Speed=10.044000m/h.</desc>
<speed>2.790000</speed>
</trkpt>
<trkpt lat="44.627502" lon="33.840805">
<ele>430.082275</ele>
<time>2011-10-10T10:31:02Z</time>
<desc>lat.=44.627502, lon.=33.840805, Alt.=430.082275m. Speed=12.168000m/h.</desc>
<speed>3.380000</speed>
</trkpt>
<trkpt lat="44.627625" lon="33.840977">
<ele>433.785400</ele>
<time>2011-10-10T10:31:07Z</time>
<desc>lat.=44.627625, lon.=33.840977, Alt.=433.785400m. Speed=7.596000m/h.</desc>
<speed>2.110000</speed>
</trkpt>
<trkpt lat="44.627735" lon="33.841133">
<ele>436.215088</ele>
<time>2011-10-10T10:31:12Z</time>
<desc>lat.=44.627735, lon.=33.841133, Alt.=436.215088m. Speed=8.064000m/h.</desc>
<speed>2.240000</speed>
</trkpt>
<trkpt lat="44.627796" lon="33.841255">
<ele>434.090088</ele>
<time>2011-10-10T10:31:17Z</time>
<desc>lat.=44.627796, lon.=33.841255, Alt.=434.090088m. Speed=4.572000m/h.</desc>
<speed>1.270000</speed>
</trkpt>
<trkpt lat="44.627838" lon="33.841389">
<ele>434.707275</ele>
<time>2011-10-10T10:31:22Z</time>
<desc>lat.=44.627838, lon.=33.841389, Alt.=434.707275m. Speed=6.156000m/h.</desc>
<speed>1.710000</speed>
</trkpt>
<trkpt lat="44.627884" lon="33.841530">
<ele>436.402588</ele>
<time>2011-10-10T10:31:27Z</time>
<desc>lat.=44.627884, lon.=33.841530, Alt.=436.402588m. Speed=6.228000m/h.</desc>
<speed>1.730000</speed>
</trkpt>
<trkpt lat="44.627956" lon="33.841713">
<ele>433.488525</ele>
<time>2011-10-10T10:31:32Z</time>
<desc>lat.=44.627956, lon.=33.841713, Alt.=433.488525m. Speed=4.608000m/h.</desc>
<speed>1.280000</speed>
</trkpt>
<trkpt lat="44.628006" lon="33.841801">
<ele>429.996338</ele>
<time>2011-10-10T10:31:37Z</time>
<desc>lat.=44.628006, lon.=33.841801, Alt.=429.996338m. Speed=0.468000m/h.</desc>
<speed>0.130000</speed>
</trkpt>
<trkpt lat="44.628010" lon="33.841824">
<ele>428.543213</ele>
<time>2011-10-10T10:31:42Z</time>
<desc>lat.=44.628010, lon.=33.841824, Alt.=428.543213m. Speed=0.684000m/h.</desc>
<speed>0.190000</speed>
</trkpt>
<trkpt lat="44.628017" lon="33.841835">
<ele>427.340088</ele>
<time>2011-10-10T10:31:47Z</time>
<desc>lat.=44.628017, lon.=33.841835, Alt.=427.340088m. Speed=0.036000m/h.</desc>
<speed>0.010000</speed>
</trkpt>
<trkpt lat="44.628021" lon="33.841843">
<ele>425.386963</ele>
<time>2011-10-10T10:31:52Z</time>
<desc>lat.=44.628021, lon.=33.841843, Alt.=425.386963m. Speed=0.036000m/h.</desc>
<speed>0.010000</speed>
</trkpt>
<trkpt lat="44.628021" lon="33.841850">
<ele>423.988525</ele>
<time>2011-10-10T10:31:57Z</time>
<desc>lat.=44.628021, lon.=33.841850, Alt.=423.988525m. Speed=0.144000m/h.</desc>
<speed>0.040000</speed>
</trkpt>
<trkpt lat="44.628017" lon="33.841854">
<ele>423.386963</ele>
<time>2011-10-10T10:32:02Z</time>
<desc>lat.=44.628017, lon.=33.841854, Alt.=423.386963m. Speed=0.324000m/h.</desc>
<speed>0.090000</speed>
</trkpt>
<trkpt lat="44.628006" lon="33.841846">
<ele>421.418213</ele>
<time>2011-10-10T10:32:07Z</time>
<desc>lat.=44.628006, lon.=33.841846, Alt.=421.418213m. Speed=0.036000m/h.</desc>
<speed>0.010000</speed>
</trkpt>
<trkpt lat="44.628002" lon="33.841846">
<ele>420.996338</ele>
<time>2011-10-10T10:32:12Z</time>
<desc>lat.=44.628002, lon.=33.841846, Alt.=420.996338m. Speed=0.000000m/h.</desc>
<speed>0.000000</speed>
</trkpt>
<trkpt lat="44.627998" lon="33.841850">
<ele>420.769775</ele>
<time>2011-10-10T10:32:17Z</time>
<desc>lat.=44.627998, lon.=33.841850, Alt.=420.769775m. Speed=0.000000m/h.</desc>
<speed>0.000000</speed>
</trkpt>
<trkpt lat="44.627995" lon="33.841850">
<ele>420.082275</ele>
<time>2011-10-10T10:32:22Z</time>
<desc>lat.=44.627995, lon.=33.841850, Alt.=420.082275m. Speed=0.036000m/h.</desc>
<speed>0.010000</speed>
</trkpt>
<trkpt lat="44.627995" lon="33.841854">
<ele>419.910400</ele>
<time>2011-10-10T10:32:27Z</time>
<desc>lat.=44.627995, lon.=33.841854, Alt.=419.910400m. Speed=0.108000m/h.</desc>
<speed>0.030000</speed>
</trkpt>
<trkpt lat="44.628002" lon="33.841858">
<ele>419.394775</ele>
<time>2011-10-10T10:32:32Z</time>
<desc>lat.=44.628002, lon.=33.841858, Alt.=419.394775m. Speed=1.728000m/h.</desc>
<speed>0.480000</speed>
</trkpt>
<trkpt lat="44.628063" lon="33.841915">
<ele>420.254150</ele>
<time>2011-10-10T10:32:37Z</time>
<desc>lat.=44.628063, lon.=33.841915, Alt.=420.254150m. Speed=9.360000m/h.</desc>
<speed>2.600000</speed>
</trkpt>
<trkpt lat="44.628174" lon="33.842041">
<ele>422.535400</ele>
<time>2011-10-10T10:32:42Z</time>
<desc>lat.=44.628174, lon.=33.842041, Alt.=422.535400m. Speed=5.220000m/h.</desc>
<speed>1.450000</speed>
</trkpt>
<trkpt lat="44.628197" lon="33.842068">
<ele>422.793213</ele>
<time>2011-10-10T10:32:47Z</time>
<desc>lat.=44.628197, lon.=33.842068, Alt.=422.793213m. Speed=0.288000m/h.</desc>
<speed>0.080000</speed>
</trkpt>
<trkpt lat="44.628201" lon="33.842079">
<ele>422.511963</ele>
<time>2011-10-10T10:32:52Z</time>
<desc>lat.=44.628201, lon.=33.842079, Alt.=422.511963m. Speed=0.396000m/h.</desc>
<speed>0.110000</speed>
</trkpt>
<trkpt lat="44.628212" lon="33.842091">
<ele>422.465088</ele>
<time>2011-10-10T10:32:57Z</time>
<desc>lat.=44.628212, lon.=33.842091, Alt.=422.465088m. Speed=0.648000m/h.</desc>
<speed>0.180000</speed>
</trkpt>
<trkpt lat="44.628231" lon="33.842102">
<ele>422.426025</ele>
<time>2011-10-10T10:33:02Z</time>
<desc>lat.=44.628231, lon.=33.842102, Alt.=422.426025m. Speed=0.756000m/h.</desc>
<speed>0.210000</speed>
</trkpt>
<trkpt lat="44.628246" lon="33.842113">
<ele>422.441650</ele>
<time>2011-10-10T10:33:07Z</time>
<desc>lat.=44.628246, lon.=33.842113, Alt.=422.441650m. Speed=1.008000m/h.</desc>
<speed>0.280000</speed>
</trkpt>
<trkpt lat="44.628250" lon="33.842129">
<ele>422.472900</ele>
<time>2011-10-10T10:33:12Z</time>
<desc>lat.=44.628250, lon.=33.842129, Alt.=422.472900m. Speed=0.504000m/h.</desc>
<speed>0.140000</speed>
</trkpt>
<trkpt lat="44.628246" lon="33.842136">
<ele>422.504150</ele>
<time>2011-10-10T10:33:17Z</time>
<desc>lat.=44.628246, lon.=33.842136, Alt.=422.504150m. Speed=0.324000m/h.</desc>
<speed>0.090000</speed>
</trkpt>
<trkpt lat="44.628246" lon="33.842144">
<ele>422.527588</ele>
<time>2011-10-10T10:33:22Z</time>
<desc>lat.=44.628246, lon.=33.842144, Alt.=422.527588m. Speed=0.612000m/h.</desc>
<speed>0.170000</speed>
</trkpt>
<trkpt lat="44.628246" lon="33.842155">
<ele>422.558838</ele>
<time>2011-10-10T10:33:27Z</time>
<desc>lat.=44.628246, lon.=33.842155, Alt.=422.558838m. Speed=1.152000m/h.</desc>
<speed>0.320000</speed>
</trkpt>
<trkpt lat="44.628242" lon="33.842175">
<ele>422.605713</ele>
<time>2011-10-10T10:33:32Z</time>
<desc>lat.=44.628242, lon.=33.842175, Alt.=422.605713m. Speed=0.324000m/h.</desc>
<speed>0.090000</speed>
</trkpt>
<trkpt lat="44.628242" lon="33.842171">
<ele>422.629150</ele>
<time>2011-10-10T10:33:37Z</time>
<desc>lat.=44.628242, lon.=33.842171, Alt.=422.629150m. Speed=0.900000m/h.</desc>
<speed>0.250000</speed>
</trkpt>
<trkpt lat="44.628239" lon="33.842167">
<ele>422.629150</ele>
<time>2011-10-10T10:33:42Z</time>
<desc>lat.=44.628239, lon.=33.842167, Alt.=422.629150m. Speed=0.252000m/h.</desc>
<speed>0.070000</speed>
</trkpt>
<trkpt lat="44.628254" lon="33.842171">
<ele>422.652588</ele>
<time>2011-10-10T10:33:47Z</time>
<desc>lat.=44.628254, lon.=33.842171, Alt.=422.652588m. Speed=4.608000m/h.</desc>
<speed>1.280000</speed>
</trkpt>
<trkpt lat="44.628368" lon="33.842175">
<ele>423.426025</ele>
<time>2011-10-10T10:33:52Z</time>
<desc>lat.=44.628368, lon.=33.842175, Alt.=423.426025m. Speed=11.304000m/h.</desc>
<speed>3.140000</speed>
</trkpt>
<trkpt lat="44.628521" lon="33.842209">
<ele>422.715088</ele>
<time>2011-10-10T10:33:57Z</time>
<desc>lat.=44.628521, lon.=33.842209, Alt.=422.715088m. Speed=14.940000m/h.</desc>
<speed>4.150000</speed>
</trkpt>
<trkpt lat="44.628651" lon="33.842255">
<ele>422.371338</ele>
<time>2011-10-10T10:34:02Z</time>
<desc>lat.=44.628651, lon.=33.842255, Alt.=422.371338m. Speed=9.216000m/h.</desc>
<speed>2.560000</speed>
</trkpt>
<trkpt lat="44.628716" lon="33.842323">
<ele>422.496338</ele>
<time>2011-10-10T10:34:07Z</time>
<desc>lat.=44.628716, lon.=33.842323, Alt.=422.496338m. Speed=5.364000m/h.</desc>
<speed>1.490000</speed>
</trkpt>
<trkpt lat="44.628807" lon="33.842422">
<ele>422.668213</ele>
<time>2011-10-10T10:34:12Z</time>
<desc>lat.=44.628807, lon.=33.842422, Alt.=422.668213m. Speed=9.936000m/h.</desc>
<speed>2.760000</speed>
</trkpt>
<trkpt lat="44.628933" lon="33.842525">
<ele>422.722900</ele>
<time>2011-10-10T10:34:17Z</time>
<desc>lat.=44.628933, lon.=33.842525, Alt.=422.722900m. Speed=8.424000m/h.</desc>
<speed>2.340000</speed>
</trkpt>
<trkpt lat="44.629055" lon="33.842579">
<ele>422.941650</ele>
<time>2011-10-10T10:34:22Z</time>
<desc>lat.=44.629055, lon.=33.842579, Alt.=422.941650m. Speed=10.872000m/h.</desc>
<speed>3.020000</speed>
</trkpt>
<trkpt lat="44.629185" lon="33.842640">
<ele>423.058838</ele>
<time>2011-10-10T10:34:27Z</time>
<desc>lat.=44.629185, lon.=33.842640, Alt.=423.058838m. Speed=7.164000m/h.</desc>
<speed>1.990000</speed>
</trkpt>
<trkpt lat="44.629284" lon="33.842670">
<ele>424.043213</ele>
<time>2011-10-10T10:34:32Z</time>
<desc>lat.=44.629284, lon.=33.842670, Alt.=424.043213m. Speed=8.244000m/h.</desc>
<speed>2.290000</speed>
</trkpt>
<trkpt lat="44.629402" lon="33.842670">
<ele>424.816650</ele>
<time>2011-10-10T10:34:37Z</time>
<desc>lat.=44.629402, lon.=33.842670, Alt.=424.816650m. Speed=8.676000m/h.</desc>
<speed>2.410000</speed>
</trkpt>
<trkpt lat="44.629517" lon="33.842606">
<ele>424.082275</ele>
<time>2011-10-10T10:34:42Z</time>
<desc>lat.=44.629517, lon.=33.842606, Alt.=424.082275m. Speed=7.992000m/h.</desc>
<speed>2.220000</speed>
</trkpt>
<trkpt lat="44.629662" lon="33.842510">
<ele>423.254150</ele>
<time>2011-10-10T10:34:47Z</time>
<desc>lat.=44.629662, lon.=33.842510, Alt.=423.254150m. Speed=12.024000m/h.</desc>
<speed>3.340000</speed>
</trkpt>
<trkpt lat="44.629791" lon="33.842384">
<ele>421.316650</ele>
<time>2011-10-10T10:34:52Z</time>
<desc>lat.=44.629791, lon.=33.842384, Alt.=421.316650m. Speed=13.176000m/h.</desc>
<speed>3.660000</speed>
</trkpt>
<trkpt lat="44.629910" lon="33.842239">
<ele>419.441650</ele>
<time>2011-10-10T10:34:57Z</time>
<desc>lat.=44.629910, lon.=33.842239, Alt.=419.441650m. Speed=13.104000m/h.</desc>
<speed>3.640000</speed>
</trkpt>
<trkpt lat="44.630054" lon="33.842098">
<ele>416.535400</ele>
<time>2011-10-10T10:35:02Z</time>
<desc>lat.=44.630054, lon.=33.842098, Alt.=416.535400m. Speed=9.360000m/h.</desc>
<speed>2.600000</speed>
</trkpt>
<trkpt lat="44.630146" lon="33.841984">
<ele>415.058838</ele>
<time>2011-10-10T10:35:07Z</time>
<desc>lat.=44.630146, lon.=33.841984, Alt.=415.058838m. Speed=13.104000m/h.</desc>
<speed>3.640000</speed>
</trkpt>
<trkpt lat="44.630241" lon="33.841770">
<ele>412.785400</ele>
<time>2011-10-10T10:35:12Z</time>
<desc>lat.=44.630241, lon.=33.841770, Alt.=412.785400m. Speed=14.652000m/h.</desc>
<speed>4.070000</speed>
</trkpt>
<trkpt lat="44.630306" lon="33.841518">
<ele>409.426025</ele>
<time>2011-10-10T10:35:17Z</time>
<desc>lat.=44.630306, lon.=33.841518, Alt.=409.426025m. Speed=14.004000m/h.</desc>
<speed>3.890000</speed>
</trkpt>
<trkpt lat="44.630348" lon="33.841244">
<ele>411.152588</ele>
<time>2011-10-10T10:35:22Z</time>
<desc>lat.=44.630348, lon.=33.841244, Alt.=411.152588m. Speed=17.388000m/h.</desc>
<speed>4.830000</speed>
</trkpt>
<trkpt lat="44.630390" lon="33.840916">
<ele>408.176025</ele>
<time>2011-10-10T10:35:27Z</time>
<desc>lat.=44.630390, lon.=33.840916, Alt.=408.176025m. Speed=17.532000m/h.</desc>
<speed>4.870000</speed>
</trkpt>
<trkpt lat="44.630451" lon="33.840656">
<ele>405.340088</ele>
<time>2011-10-10T10:35:32Z</time>
<desc>lat.=44.630451, lon.=33.840656, Alt.=405.340088m. Speed=14.796000m/h.</desc>
<speed>4.110000</speed>
</trkpt>
<trkpt lat="44.630493" lon="33.840401">
<ele>402.207275</ele>
<time>2011-10-10T10:35:37Z</time>
<desc>lat.=44.630493, lon.=33.840401, Alt.=402.207275m. Speed=13.968000m/h.</desc>
<speed>3.880000</speed>
</trkpt>
<trkpt lat="44.630554" lon="33.840179">
<ele>399.426025</ele>
<time>2011-10-10T10:35:42Z</time>
<desc>lat.=44.630554, lon.=33.840179, Alt.=399.426025m. Speed=15.012000m/h.</desc>
<speed>4.170000</speed>
</trkpt>
<trkpt lat="44.630600" lon="33.839977">
<ele>397.699463</ele>
<time>2011-10-10T10:35:47Z</time>
<desc>lat.=44.630600, lon.=33.839977, Alt.=397.699463m. Speed=10.764000m/h.</desc>
<speed>2.990000</speed>
</trkpt>
<trkpt lat="44.630592" lon="33.839859">
<ele>396.590088</ele>
<time>2011-10-10T10:35:52Z</time>
<desc>lat.=44.630592, lon.=33.839859, Alt.=396.590088m. Speed=1.764000m/h.</desc>
<speed>0.490000</speed>
</trkpt>
<trkpt lat="44.630589" lon="33.839855">
<ele>396.426025</ele>
<time>2011-10-10T10:35:57Z</time>
<desc>lat.=44.630589, lon.=33.839855, Alt.=396.426025m. Speed=0.684000m/h.</desc>
<speed>0.190000</speed>
</trkpt>
<trkpt lat="44.630585" lon="33.839855">
<ele>396.511963</ele>
<time>2011-10-10T10:36:02Z</time>
<desc>lat.=44.630585, lon.=33.839855, Alt.=396.511963m. Speed=0.324000m/h.</desc>
<speed>0.090000</speed>
</trkpt>
<trkpt lat="44.630592" lon="33.839790">
<ele>395.722900</ele>
<time>2011-10-10T10:36:07Z</time>
<desc>lat.=44.630592, lon.=33.839790, Alt.=395.722900m. Speed=7.488000m/h.</desc>
<speed>2.080000</speed>
</trkpt>
<trkpt lat="44.630615" lon="33.839607">
<ele>393.519775</ele>
<time>2011-10-10T10:36:12Z</time>
<desc>lat.=44.630615, lon.=33.839607, Alt.=393.519775m. Speed=11.700000m/h.</desc>
<speed>3.250000</speed>
</trkpt>
<trkpt lat="44.630657" lon="33.839451">
<ele>392.097900</ele>
<time>2011-10-10T10:36:17Z</time>
<desc>lat.=44.630657, lon.=33.839451, Alt.=392.097900m. Speed=7.020000m/h.</desc>
<speed>1.950000</speed>
</trkpt>
<trkpt lat="44.630680" lon="33.839420">
<ele>391.965088</ele>
<time>2011-10-10T10:36:22Z</time>
<desc>lat.=44.630680, lon.=33.839420, Alt.=391.965088m. Speed=0.324000m/h.</desc>
<speed>0.090000</speed>
</trkpt>
<trkpt lat="44.630684" lon="33.839413">
<ele>391.754150</ele>
<time>2011-10-10T10:36:27Z</time>
<desc>lat.=44.630684, lon.=33.839413, Alt.=391.754150m. Speed=0.108000m/h.</desc>
<speed>0.030000</speed>
</trkpt>
<trkpt lat="44.630688" lon="33.839405">
<ele>391.340088</ele>
<time>2011-10-10T10:36:32Z</time>
<desc>lat.=44.630688, lon.=33.839405, Alt.=391.340088m. Speed=1.008000m/h.</desc>
<speed>0.280000</speed>
</trkpt>
<trkpt lat="44.630688" lon="33.839405">
<ele>391.277588</ele>
<time>2011-10-10T10:36:37Z</time>
<desc>lat.=44.630688, lon.=33.839405, Alt.=391.277588m. Speed=0.396000m/h.</desc>
<speed>0.110000</speed>
</trkpt>
<trkpt lat="44.630680" lon="33.839413">
<ele>391.215088</ele>
<time>2011-10-10T10:36:42Z</time>
<desc>lat.=44.630680, lon.=33.839413, Alt.=391.215088m. Speed=1.332000m/h.</desc>
<speed>0.370000</speed>
</trkpt>
<trkpt lat="44.630672" lon="33.839397">
<ele>391.160400</ele>
<time>2011-10-10T10:36:47Z</time>
<desc>lat.=44.630672, lon.=33.839397, Alt.=391.160400m. Speed=0.468000m/h.</desc>
<speed>0.130000</speed>
</trkpt>
<trkpt lat="44.630733" lon="33.839348">
<ele>392.035400</ele>
<time>2011-10-10T10:36:52Z</time>
<desc>lat.=44.630733, lon.=33.839348, Alt.=392.035400m. Speed=5.868000m/h.</desc>
<speed>1.630000</speed>
</trkpt>
<trkpt lat="44.630810" lon="33.839260">
<ele>392.058838</ele>
<time>2011-10-10T10:36:57Z</time>
<desc>lat.=44.630810, lon.=33.839260, Alt.=392.058838m. Speed=7.236000m/h.</desc>
<speed>2.010000</speed>
</trkpt>
<trkpt lat="44.630898" lon="33.839165">
<ele>391.816650</ele>
<time>2011-10-10T10:37:02Z</time>
<desc>lat.=44.630898, lon.=33.839165, Alt.=391.816650m. Speed=8.640000m/h.</desc>
<speed>2.400000</speed>
</trkpt>
<trkpt lat="44.630981" lon="33.839054">
<ele>393.285400</ele>
<time>2011-10-10T10:37:07Z</time>
<desc>lat.=44.630981, lon.=33.839054, Alt.=393.285400m. Speed=10.188000m/h.</desc>
<speed>2.830000</speed>
</trkpt>
<trkpt lat="44.631069" lon="33.838943">
<ele>395.918213</ele>
<time>2011-10-10T10:37:12Z</time>
<desc>lat.=44.631069, lon.=33.838943, Alt.=395.918213m. Speed=9.504000m/h.</desc>
<speed>2.640000</speed>
</trkpt>
<trkpt lat="44.631153" lon="33.838806">
<ele>397.418213</ele>
<time>2011-10-10T10:37:17Z</time>
<desc>lat.=44.631153, lon.=33.838806, Alt.=397.418213m. Speed=8.388000m/h.</desc>
<speed>2.330000</speed>
</trkpt>
<trkpt lat="44.631172" lon="33.838676">
<ele>398.691650</ele>
<time>2011-10-10T10:37:22Z</time>
<desc>lat.=44.631172, lon.=33.838676, Alt.=398.691650m. Speed=5.976000m/h.</desc>
<speed>1.660000</speed>
</trkpt>
<trkpt lat="44.631157" lon="33.838547">
<ele>398.769775</ele>
<time>2011-10-10T10:37:27Z</time>
<desc>lat.=44.631157, lon.=33.838547, Alt.=398.769775m. Speed=3.600000m/h.</desc>
<speed>1.000000</speed>
</trkpt>
<trkpt lat="44.631126" lon="33.838356">
<ele>395.394775</ele>
<time>2011-10-10T10:37:32Z</time>
<desc>lat.=44.631126, lon.=33.838356, Alt.=395.394775m. Speed=9.540000m/h.</desc>
<speed>2.650000</speed>
</trkpt>
<trkpt lat="44.631153" lon="33.838123">
<ele>390.847900</ele>
<time>2011-10-10T10:37:37Z</time>
<desc>lat.=44.631153, lon.=33.838123, Alt.=390.847900m. Speed=11.628000m/h.</desc>
<speed>3.230000</speed>
</trkpt>
<trkpt lat="44.631248" lon="33.837940">
<ele>388.136963</ele>
<time>2011-10-10T10:37:42Z</time>
<desc>lat.=44.631248, lon.=33.837940, Alt.=388.136963m. Speed=9.864000m/h.</desc>
<speed>2.740000</speed>
</trkpt>
<trkpt lat="44.631294" lon="33.837780">
<ele>384.449463</ele>
<time>2011-10-10T10:37:47Z</time>
<desc>lat.=44.631294, lon.=33.837780, Alt.=384.449463m. Speed=8.820000m/h.</desc>
<speed>2.450000</speed>
</trkpt>
<trkpt lat="44.631287" lon="33.837624">
<ele>381.058838</ele>
<time>2011-10-10T10:37:52Z</time>
<desc>lat.=44.631287, lon.=33.837624, Alt.=381.058838m. Speed=5.040000m/h.</desc>
<speed>1.400000</speed>
</trkpt>
<trkpt lat="44.631268" lon="33.837509">
<ele>378.480713</ele>
<time>2011-10-10T10:37:57Z</time>
<desc>lat.=44.631268, lon.=33.837509, Alt.=378.480713m. Speed=6.300000m/h.</desc>
<speed>1.750000</speed>
</trkpt>
<trkpt lat="44.631248" lon="33.837410">
<ele>377.816650</ele>
<time>2011-10-10T10:38:02Z</time>
<desc>lat.=44.631248, lon.=33.837410, Alt.=377.816650m. Speed=3.096000m/h.</desc>
<speed>0.860000</speed>
</trkpt>
<trkpt lat="44.631248" lon="33.837402">
<ele>377.566650</ele>
<time>2011-10-10T10:38:07Z</time>
<desc>lat.=44.631248, lon.=33.837402, Alt.=377.566650m. Speed=0.036000m/h.</desc>
<speed>0.010000</speed>
</trkpt>
<trkpt lat="44.631245" lon="33.837402">
<ele>377.605713</ele>
<time>2011-10-10T10:38:12Z</time>
<desc>lat.=44.631245, lon.=33.837402, Alt.=377.605713m. Speed=0.000000m/h.</desc>
<speed>0.000000</speed>
</trkpt>
<trkpt lat="44.631245" lon="33.837402">
<ele>377.582275</ele>
<time>2011-10-10T10:38:17Z</time>
<desc>lat.=44.631245, lon.=33.837402, Alt.=377.582275m. Speed=0.144000m/h.</desc>
<speed>0.040000</speed>
</trkpt>
<trkpt lat="44.631248" lon="33.837399">
<ele>377.683838</ele>
<time>2011-10-10T10:38:22Z</time>
<desc>lat.=44.631248, lon.=33.837399, Alt.=377.683838m. Speed=0.396000m/h.</desc>
<speed>0.110000</speed>
</trkpt>
<trkpt lat="44.631241" lon="33.837395">
<ele>377.769775</ele>
<time>2011-10-10T10:38:27Z</time>
<desc>lat.=44.631241, lon.=33.837395, Alt.=377.769775m. Speed=0.036000m/h.</desc>
<speed>0.010000</speed>
</trkpt>
<trkpt lat="44.631241" lon="33.837402">
<ele>378.207275</ele>
<time>2011-10-10T10:38:32Z</time>
<desc>lat.=44.631241, lon.=33.837402, Alt.=378.207275m. Speed=0.360000m/h.</desc>
<speed>0.100000</speed>
</trkpt>
<trkpt lat="44.631241" lon="33.837402">
<ele>378.746338</ele>
<time>2011-10-10T10:38:37Z</time>
<desc>lat.=44.631241, lon.=33.837402, Alt.=378.746338m. Speed=0.072000m/h.</desc>
<speed>0.020000</speed>
</trkpt>
<trkpt lat="44.631241" lon="33.837406">
<ele>378.793213</ele>
<time>2011-10-10T10:38:42Z</time>
<desc>lat.=44.631241, lon.=33.837406, Alt.=378.793213m. Speed=0.108000m/h.</desc>
<speed>0.030000</speed>
</trkpt>
<trkpt lat="44.631241" lon="33.837406">
<ele>378.926025</ele>
<time>2011-10-10T10:38:47Z</time>
<desc>lat.=44.631241, lon.=33.837406, Alt.=378.926025m. Speed=0.144000m/h.</desc>
<speed>0.040000</speed>
</trkpt>
<trkpt lat="44.631241" lon="33.837421">
<ele>379.191650</ele>
<time>2011-10-10T10:38:52Z</time>
<desc>lat.=44.631241, lon.=33.837421, Alt.=379.191650m. Speed=3.816000m/h.</desc>
<speed>1.060000</speed>
</trkpt>
<trkpt lat="44.631218" lon="33.837444">
<ele>379.082275</ele>
<time>2011-10-10T10:38:57Z</time>
<desc>lat.=44.631218, lon.=33.837444, Alt.=379.082275m. Speed=0.468000m/h.</desc>
<speed>0.130000</speed>
</trkpt>
<trkpt lat="44.631195" lon="33.837456">
<ele>380.738525</ele>
<time>2011-10-10T10:39:02Z</time>
<desc>lat.=44.631195, lon.=33.837456, Alt.=380.738525m. Speed=2.412000m/h.</desc>
<speed>0.670000</speed>
</trkpt>
<trkpt lat="44.631153" lon="33.837486">
<ele>381.465088</ele>
<time>2011-10-10T10:39:07Z</time>
<desc>lat.=44.631153, lon.=33.837486, Alt.=381.465088m. Speed=4.464000m/h.</desc>
<speed>1.240000</speed>
</trkpt>
<trkpt lat="44.631115" lon="33.837543">
<ele>380.121338</ele>
<time>2011-10-10T10:39:12Z</time>
<desc>lat.=44.631115, lon.=33.837543, Alt.=380.121338m. Speed=5.328000m/h.</desc>
<speed>1.480000</speed>
</trkpt>
<trkpt lat="44.631069" lon="33.837612">
<ele>380.168213</ele>
<time>2011-10-10T10:39:17Z</time>
<desc>lat.=44.631069, lon.=33.837612, Alt.=380.168213m. Speed=3.924000m/h.</desc>
<speed>1.090000</speed>
</trkpt>
<trkpt lat="44.631039" lon="33.837605">
<ele>379.207275</ele>
<time>2011-10-10T10:39:22Z</time>
<desc>lat.=44.631039, lon.=33.837605, Alt.=379.207275m. Speed=1.044000m/h.</desc>
<speed>0.290000</speed>
</trkpt>
<trkpt lat="44.631042" lon="33.837605">
<ele>379.277588</ele>
<time>2011-10-10T10:39:27Z</time>
<desc>lat.=44.631042, lon.=33.837605, Alt.=379.277588m. Speed=0.036000m/h.</desc>
<speed>0.010000</speed>
</trkpt>
<trkpt lat="44.631031" lon="33.837624">
<ele>378.933838</ele>
<time>2011-10-10T10:39:32Z</time>
<desc>lat.=44.631031, lon.=33.837624, Alt.=378.933838m. Speed=2.880000m/h.</desc>
<speed>0.800000</speed>
</trkpt>
<trkpt lat="44.630978" lon="33.837685">
<ele>377.840088</ele>
<time>2011-10-10T10:39:37Z</time>
<desc>lat.=44.630978, lon.=33.837685, Alt.=377.840088m. Speed=6.120000m/h.</desc>
<speed>1.700000</speed>
</trkpt>
<trkpt lat="44.630924" lon="33.837769">
<ele>376.715088</ele>
<time>2011-10-10T10:39:42Z</time>
<desc>lat.=44.630924, lon.=33.837769, Alt.=376.715088m. Speed=8.388000m/h.</desc>
<speed>2.330000</speed>
</trkpt>
<trkpt lat="44.630878" lon="33.837864">
<ele>376.176025</ele>
<time>2011-10-10T10:39:47Z</time>
<desc>lat.=44.630878, lon.=33.837864, Alt.=376.176025m. Speed=3.600000m/h.</desc>
<speed>1.000000</speed>
</trkpt>
<trkpt lat="44.630833" lon="33.837940">
<ele>375.910400</ele>
<time>2011-10-10T10:39:52Z</time>
<desc>lat.=44.630833, lon.=33.837940, Alt.=375.910400m. Speed=6.048000m/h.</desc>
<speed>1.680000</speed>
</trkpt>
<trkpt lat="44.630814" lon="33.838051">
<ele>376.543213</ele>
<time>2011-10-10T10:39:57Z</time>
<desc>lat.=44.630814, lon.=33.838051, Alt.=376.543213m. Speed=7.524000m/h.</desc>
<speed>2.090000</speed>
</trkpt>
<trkpt lat="44.630768" lon="33.838177">
<ele>377.543213</ele>
<time>2011-10-10T10:40:02Z</time>
<desc>lat.=44.630768, lon.=33.838177, Alt.=377.543213m. Speed=7.308000m/h.</desc>
<speed>2.030000</speed>
</trkpt>
<trkpt lat="44.630737" lon="33.838291">
<ele>379.910400</ele>
<time>2011-10-10T10:40:07Z</time>
<desc>lat.=44.630737, lon.=33.838291, Alt.=379.910400m. Speed=5.976000m/h.</desc>
<speed>1.660000</speed>
</trkpt>
<trkpt lat="44.630730" lon="33.838333">
<ele>381.816650</ele>
<time>2011-10-10T10:40:12Z</time>
<desc>lat.=44.630730, lon.=33.838333, Alt.=381.816650m. Speed=0.468000m/h.</desc>
<speed>0.130000</speed>
</trkpt>
<trkpt lat="44.630707" lon="33.838337">
<ele>379.918213</ele>
<time>2011-10-10T10:40:17Z</time>
<desc>lat.=44.630707, lon.=33.838337, Alt.=379.918213m. Speed=1.512000m/h.</desc>
<speed>0.420000</speed>
</trkpt>
<trkpt lat="44.630695" lon="33.838322">
<ele>379.527588</ele>
<time>2011-10-10T10:40:22Z</time>
<desc>lat.=44.630695, lon.=33.838322, Alt.=379.527588m. Speed=1.836000m/h.</desc>
<speed>0.510000</speed>
</trkpt>
<trkpt lat="44.630692" lon="33.838310">
<ele>379.433838</ele>
<time>2011-10-10T10:40:27Z</time>
<desc>lat.=44.630692, lon.=33.838310, Alt.=379.433838m. Speed=0.684000m/h.</desc>
<speed>0.190000</speed>
</trkpt>
<trkpt lat="44.630695" lon="33.838318">
<ele>379.426025</ele>
<time>2011-10-10T10:40:32Z</time>
<desc>lat.=44.630695, lon.=33.838318, Alt.=379.426025m. Speed=0.036000m/h.</desc>
<speed>0.010000</speed>
</trkpt>
<trkpt lat="44.630695" lon="33.838318">
<ele>379.394775</ele>
<time>2011-10-10T10:40:37Z</time>
<desc>lat.=44.630695, lon.=33.838318, Alt.=379.394775m. Speed=0.072000m/h.</desc>
<speed>0.020000</speed>
</trkpt>
<trkpt lat="44.630695" lon="33.838318">
<ele>379.386963</ele>
<time>2011-10-10T10:40:42Z</time>
<desc>lat.=44.630695, lon.=33.838318, Alt.=379.386963m. Speed=0.036000m/h.</desc>
<speed>0.010000</speed>
</trkpt>
<trkpt lat="44.630695" lon="33.838318">
<ele>379.379150</ele>
<time>2011-10-10T10:40:47Z</time>
<desc>lat.=44.630695, lon.=33.838318, Alt.=379.379150m. Speed=0.000000m/h.</desc>
<speed>0.000000</speed>
</trkpt>
<trkpt lat="44.630695" lon="33.838318">
<ele>379.371338</ele>
<time>2011-10-10T10:40:52Z</time>
<desc>lat.=44.630695, lon.=33.838318, Alt.=379.371338m. Speed=0.000000m/h.</desc>
<speed>0.000000</speed>
</trkpt>
<trkpt lat="44.630695" lon="33.838318">
<ele>379.355713</ele>
<time>2011-10-10T10:40:57Z</time>
<desc>lat.=44.630695, lon.=33.838318, Alt.=379.355713m. Speed=0.000000m/h.</desc>
<speed>0.000000</speed>
</trkpt>
<trkpt lat="44.630695" lon="33.838318">
<ele>379.340088</ele>
<time>2011-10-10T10:41:02Z</time>
<desc>lat.=44.630695, lon.=33.838318, Alt.=379.340088m. Speed=0.036000m/h.</desc>
<speed>0.010000</speed>
</trkpt>
<trkpt lat="44.630695" lon="33.838318">
<ele>379.332275</ele>
<time>2011-10-10T10:41:07Z</time>
<desc>lat.=44.630695, lon.=33.838318, Alt.=379.332275m. Speed=0.000000m/h.</desc>
<speed>0.000000</speed>
</trkpt>
<trkpt lat="44.630695" lon="33.838318">
<ele>379.332275</ele>
<time>2011-10-10T10:41:12Z</time>
<desc>lat.=44.630695, lon.=33.838318, Alt.=379.332275m. Speed=0.000000m/h.</desc>
<speed>0.000000</speed>
</trkpt>
<trkpt lat="44.630695" lon="33.838318">
<ele>379.332275</ele>
<time>2011-10-10T10:41:17Z</time>
<desc>lat.=44.630695, lon.=33.838318, Alt.=379.332275m. Speed=0.000000m/h.</desc>
<speed>0.000000</speed>
</trkpt>
<trkpt lat="44.630695" lon="33.838318">
<ele>379.340088</ele>
<time>2011-10-10T10:41:22Z</time>
<desc>lat.=44.630695, lon.=33.838318, Alt.=379.340088m. Speed=0.000000m/h.</desc>
<speed>0.000000</speed>
</trkpt>
<trkpt lat="44.630695" lon="33.838318">
<ele>379.340088</ele>
<time>2011-10-10T10:41:27Z</time>
<desc>lat.=44.630695, lon.=33.838318, Alt.=379.340088m. Speed=0.036000m/h.</desc>
<speed>0.010000</speed>
</trkpt>
<trkpt lat="44.630695" lon="33.838318">
<ele>379.340088</ele>
<time>2011-10-10T10:41:32Z</time>
<desc>lat.=44.630695, lon.=33.838318, Alt.=379.340088m. Speed=0.000000m/h.</desc>
<speed>0.000000</speed>
</trkpt>
<trkpt lat="44.630695" lon="33.838318">
<ele>379.347900</ele>
<time>2011-10-10T10:41:37Z</time>
<desc>lat.=44.630695, lon.=33.838318, Alt.=379.347900m. Speed=0.000000m/h.</desc>
<speed>0.000000</speed>
</trkpt>
<trkpt lat="44.630695" lon="33.838318">
<ele>379.332275</ele>
<time>2011-10-10T10:41:42Z</time>
<desc>lat.=44.630695, lon.=33.838318, Alt.=379.332275m. Speed=0.468000m/h.</desc>
<speed>0.130000</speed>
</trkpt>
<trkpt lat="44.630695" lon="33.838322">
<ele>379.379150</ele>
<time>2011-10-10T10:41:47Z</time>
<desc>lat.=44.630695, lon.=33.838322, Alt.=379.379150m. Speed=0.000000m/h.</desc>
<speed>0.000000</speed>
</trkpt>
<trkpt lat="44.630695" lon="33.838322">
<ele>379.379150</ele>
<time>2011-10-10T10:41:52Z</time>
<desc>lat.=44.630695, lon.=33.838322, Alt.=379.379150m. Speed=0.000000m/h.</desc>
<speed>0.000000</speed>
</trkpt>
<trkpt lat="44.630695" lon="33.838322">
<ele>379.371338</ele>
<time>2011-10-10T10:41:57Z</time>
<desc>lat.=44.630695, lon.=33.838322, Alt.=379.371338m. Speed=0.036000m/h.</desc>
<speed>0.010000</speed>
</trkpt>
<trkpt lat="44.630695" lon="33.838322">
<ele>379.379150</ele>
<time>2011-10-10T10:42:02Z</time>
<desc>lat.=44.630695, lon.=33.838322, Alt.=379.379150m. Speed=0.000000m/h.</desc>
<speed>0.000000</speed>
</trkpt>
<trkpt lat="44.630695" lon="33.838322">
<ele>379.379150</ele>
<time>2011-10-10T10:42:07Z</time>
<desc>lat.=44.630695, lon.=33.838322, Alt.=379.379150m. Speed=0.000000m/h.</desc>
<speed>0.000000</speed>
</trkpt>
<trkpt lat="44.630695" lon="33.838322">
<ele>379.371338</ele>
<time>2011-10-10T10:42:12Z</time>
<desc>lat.=44.630695, lon.=33.838322, Alt.=379.371338m. Speed=0.000000m/h.</desc>
<speed>0.000000</speed>
</trkpt>
<trkpt lat="44.630695" lon="33.838322">
<ele>379.363525</ele>
<time>2011-10-10T10:42:17Z</time>
<desc>lat.=44.630695, lon.=33.838322, Alt.=379.363525m. Speed=0.000000m/h.</desc>
<speed>0.000000</speed>
</trkpt>
<trkpt lat="44.630695" lon="33.838322">
<ele>379.363525</ele>
<time>2011-10-10T10:42:22Z</time>
<desc>lat.=44.630695, lon.=33.838322, Alt.=379.363525m. Speed=0.000000m/h.</desc>
<speed>0.000000</speed>
</trkpt>
<trkpt lat="44.630695" lon="33.838322">
<ele>379.355713</ele>
<time>2011-10-10T10:42:27Z</time>
<desc>lat.=44.630695, lon.=33.838322, Alt.=379.355713m. Speed=0.000000m/h.</desc>
<speed>0.000000</speed>
</trkpt>
<trkpt lat="44.630695" lon="33.838322">
<ele>379.347900</ele>
<time>2011-10-10T10:42:32Z</time>
<desc>lat.=44.630695, lon.=33.838322, Alt.=379.347900m. Speed=0.000000m/h.</desc>
<speed>0.000000</speed>
</trkpt>
<trkpt lat="44.630695" lon="33.838322">
<ele>379.332275</ele>
<time>2011-10-10T10:42:37Z</time>
<desc>lat.=44.630695, lon.=33.838322, Alt.=379.332275m. Speed=0.000000m/h.</desc>
<speed>0.000000</speed>
</trkpt>
<trkpt lat="44.630695" lon="33.838322">
<ele>379.371338</ele>
<time>2011-10-10T10:42:42Z</time>
<desc>lat.=44.630695, lon.=33.838322, Alt.=379.371338m. Speed=0.036000m/h.</desc>
<speed>0.010000</speed>
</trkpt>
<trkpt lat="44.630699" lon="33.838326">
<ele>379.402588</ele>
<time>2011-10-10T10:42:47Z</time>
<desc>lat.=44.630699, lon.=33.838326, Alt.=379.402588m. Speed=0.252000m/h.</desc>
<speed>0.070000</speed>
</trkpt>
<trkpt lat="44.630699" lon="33.838326">
<ele>379.433838</ele>
<time>2011-10-10T10:42:52Z</time>
<desc>lat.=44.630699, lon.=33.838326, Alt.=379.433838m. Speed=0.000000m/h.</desc>
<speed>0.000000</speed>
</trkpt>
<trkpt lat="44.630699" lon="33.838326">
<ele>379.527588</ele>
<time>2011-10-10T10:42:57Z</time>
<desc>lat.=44.630699, lon.=33.838326, Alt.=379.527588m. Speed=0.144000m/h.</desc>
<speed>0.040000</speed>
</trkpt>
<trkpt lat="44.630699" lon="33.838326">
<ele>379.543213</ele>
<time>2011-10-10T10:43:02Z</time>
<desc>lat.=44.630699, lon.=33.838326, Alt.=379.543213m. Speed=0.036000m/h.</desc>
<speed>0.010000</speed>
</trkpt>
<trkpt lat="44.630699" lon="33.838326">
<ele>379.551025</ele>
<time>2011-10-10T10:43:07Z</time>
<desc>lat.=44.630699, lon.=33.838326, Alt.=379.551025m. Speed=0.108000m/h.</desc>
<speed>0.030000</speed>
</trkpt>
<trkpt lat="44.630699" lon="33.838326">
<ele>379.551025</ele>
<time>2011-10-10T10:43:12Z</time>
<desc>lat.=44.630699, lon.=33.838326, Alt.=379.551025m. Speed=0.144000m/h.</desc>
<speed>0.040000</speed>
</trkpt>
<trkpt lat="44.630699" lon="33.838326">
<ele>379.558838</ele>
<time>2011-10-10T10:43:17Z</time>
<desc>lat.=44.630699, lon.=33.838326, Alt.=379.558838m. Speed=0.072000m/h.</desc>
<speed>0.020000</speed>
</trkpt>
<trkpt lat="44.630703" lon="33.838337">
<ele>379.863525</ele>
<time>2011-10-10T10:43:22Z</time>
<desc>lat.=44.630703, lon.=33.838337, Alt.=379.863525m. Speed=1.404000m/h.</desc>
<speed>0.390000</speed>
</trkpt>
<trkpt lat="44.630699" lon="33.838348">
<ele>379.855713</ele>
<time>2011-10-10T10:43:27Z</time>
<desc>lat.=44.630699, lon.=33.838348, Alt.=379.855713m. Speed=2.484000m/h.</desc>
<speed>0.690000</speed>
</trkpt>
<trkpt lat="44.630699" lon="33.838398">
<ele>379.410400</ele>
<time>2011-10-10T10:43:32Z</time>
<desc>lat.=44.630699, lon.=33.838398, Alt.=379.410400m. Speed=1.728000m/h.</desc>
<speed>0.480000</speed>
</trkpt>
<trkpt lat="44.630692" lon="33.838486">
<ele>379.886963</ele>
<time>2011-10-10T10:43:37Z</time>
<desc>lat.=44.630692, lon.=33.838486, Alt.=379.886963m. Speed=4.608000m/h.</desc>
<speed>1.280000</speed>
</trkpt>
<trkpt lat="44.630692" lon="33.838551">
<ele>380.074463</ele>
<time>2011-10-10T10:43:42Z</time>
<desc>lat.=44.630692, lon.=33.838551, Alt.=380.074463m. Speed=0.144000m/h.</desc>
<speed>0.040000</speed>
</trkpt>
<trkpt lat="44.630692" lon="33.838558">
<ele>380.379150</ele>
<time>2011-10-10T10:43:47Z</time>
<desc>lat.=44.630692, lon.=33.838558, Alt.=380.379150m. Speed=3.312000m/h.</desc>
<speed>0.920000</speed>
</trkpt>
<trkpt lat="44.630672" lon="33.838623">
<ele>379.308838</ele>
<time>2011-10-10T10:43:52Z</time>
<desc>lat.=44.630672, lon.=33.838623, Alt.=379.308838m. Speed=4.968000m/h.</desc>
<speed>1.380000</speed>
</trkpt>
<trkpt lat="44.630684" lon="33.838680">
<ele>379.863525</ele>
<time>2011-10-10T10:43:57Z</time>
<desc>lat.=44.630684, lon.=33.838680, Alt.=379.863525m. Speed=2.520000m/h.</desc>
<speed>0.700000</speed>
</trkpt>
<trkpt lat="44.630688" lon="33.838699">
<ele>378.027588</ele>
<time>2011-10-10T10:44:02Z</time>
<desc>lat.=44.630688, lon.=33.838699, Alt.=378.027588m. Speed=2.016000m/h.</desc>
<speed>0.560000</speed>
</trkpt>
<trkpt lat="44.630707" lon="33.838799">
<ele>376.910400</ele>
<time>2011-10-10T10:44:07Z</time>
<desc>lat.=44.630707, lon.=33.838799, Alt.=376.910400m. Speed=6.912000m/h.</desc>
<speed>1.920000</speed>
</trkpt>
<trkpt lat="44.630688" lon="33.838886">
<ele>376.597900</ele>
<time>2011-10-10T10:44:12Z</time>
<desc>lat.=44.630688, lon.=33.838886, Alt.=376.597900m. Speed=5.616000m/h.</desc>
<speed>1.560000</speed>
</trkpt>
<trkpt lat="44.630695" lon="33.838940">
<ele>376.629150</ele>
<time>2011-10-10T10:44:17Z</time>
<desc>lat.=44.630695, lon.=33.838940, Alt.=376.629150m. Speed=1.044000m/h.</desc>
<speed>0.290000</speed>
</trkpt>
<trkpt lat="44.630695" lon="33.838943">
<ele>376.621338</ele>
<time>2011-10-10T10:44:22Z</time>
<desc>lat.=44.630695, lon.=33.838943, Alt.=376.621338m. Speed=0.828000m/h.</desc>
<speed>0.230000</speed>
</trkpt>
<trkpt lat="44.630688" lon="33.838966">
<ele>376.207275</ele>
<time>2011-10-10T10:44:27Z</time>
<desc>lat.=44.630688, lon.=33.838966, Alt.=376.207275m. Speed=1.836000m/h.</desc>
<speed>0.510000</speed>
</trkpt>
<trkpt lat="44.630669" lon="33.839043">
<ele>375.722900</ele>
<time>2011-10-10T10:44:32Z</time>
<desc>lat.=44.630669, lon.=33.839043, Alt.=375.722900m. Speed=8.532000m/h.</desc>
<speed>2.370000</speed>
</trkpt>
<trkpt lat="44.630650" lon="33.839172">
<ele>376.832275</ele>
<time>2011-10-10T10:44:37Z</time>
<desc>lat.=44.630650, lon.=33.839172, Alt.=376.832275m. Speed=7.992000m/h.</desc>
<speed>2.220000</speed>
</trkpt>
<trkpt lat="44.630650" lon="33.839287">
<ele>379.129150</ele>
<time>2011-10-10T10:44:42Z</time>
<desc>lat.=44.630650, lon.=33.839287, Alt.=379.129150m. Speed=2.232000m/h.</desc>
<speed>0.620000</speed>
</trkpt>
<trkpt lat="44.630665" lon="33.839363">
<ele>380.504150</ele>
<time>2011-10-10T10:44:47Z</time>
<desc>lat.=44.630665, lon.=33.839363, Alt.=380.504150m. Speed=1.512000m/h.</desc>
<speed>0.420000</speed>
</trkpt>
<trkpt lat="44.630680" lon="33.839386">
<ele>381.644775</ele>
<time>2011-10-10T10:44:52Z</time>
<desc>lat.=44.630680, lon.=33.839386, Alt.=381.644775m. Speed=0.468000m/h.</desc>
<speed>0.130000</speed>
</trkpt>
<trkpt lat="44.630684" lon="33.839394">
<ele>382.652588</ele>
<time>2011-10-10T10:44:57Z</time>
<desc>lat.=44.630684, lon.=33.839394, Alt.=382.652588m. Speed=0.000000m/h.</desc>
<speed>0.000000</speed>
</trkpt>
<trkpt lat="44.630684" lon="33.839394">
<ele>382.644775</ele>
<time>2011-10-10T10:45:02Z</time>
<desc>lat.=44.630684, lon.=33.839394, Alt.=382.644775m. Speed=0.036000m/h.</desc>
<speed>0.010000</speed>
</trkpt>
<trkpt lat="44.630684" lon="33.839405">
<ele>382.730713</ele>
<time>2011-10-10T10:45:07Z</time>
<desc>lat.=44.630684, lon.=33.839405, Alt.=382.730713m. Speed=0.180000m/h.</desc>
<speed>0.050000</speed>
</trkpt>
<trkpt lat="44.630680" lon="33.839405">
<ele>382.793213</ele>
<time>2011-10-10T10:45:12Z</time>
<desc>lat.=44.630680, lon.=33.839405, Alt.=382.793213m. Speed=0.000000m/h.</desc>
<speed>0.000000</speed>
</trkpt>
<trkpt lat="44.630680" lon="33.839405">
<ele>382.777588</ele>
<time>2011-10-10T10:45:17Z</time>
<desc>lat.=44.630680, lon.=33.839405, Alt.=382.777588m. Speed=0.036000m/h.</desc>
<speed>0.010000</speed>
</trkpt>
<trkpt lat="44.630680" lon="33.839405">
<ele>382.777588</ele>
<time>2011-10-10T10:45:22Z</time>
<desc>lat.=44.630680, lon.=33.839405, Alt.=382.777588m. Speed=0.000000m/h.</desc>
<speed>0.000000</speed>
</trkpt>
<trkpt lat="44.630680" lon="33.839405">
<ele>382.785400</ele>
<time>2011-10-10T10:45:27Z</time>
<desc>lat.=44.630680, lon.=33.839405, Alt.=382.785400m. Speed=0.000000m/h.</desc>
<speed>0.000000</speed>
</trkpt>
<trkpt lat="44.630680" lon="33.839405">
<ele>382.793213</ele>
<time>2011-10-10T10:45:32Z</time>
<desc>lat.=44.630680, lon.=33.839405, Alt.=382.793213m. Speed=0.072000m/h.</desc>
<speed>0.020000</speed>
</trkpt>
<trkpt lat="44.630680" lon="33.839405">
<ele>382.808838</ele>
<time>2011-10-10T10:45:37Z</time>
<desc>lat.=44.630680, lon.=33.839405, Alt.=382.808838m. Speed=0.108000m/h.</desc>
<speed>0.030000</speed>
</trkpt>
<trkpt lat="44.630680" lon="33.839405">
<ele>382.808838</ele>
<time>2011-10-10T10:45:42Z</time>
<desc>lat.=44.630680, lon.=33.839405, Alt.=382.808838m. Speed=0.360000m/h.</desc>
<speed>0.100000</speed>
</trkpt>
<trkpt lat="44.630676" lon="33.839394">
<ele>384.691650</ele>
<time>2011-10-10T10:45:47Z</time>
<desc>lat.=44.630676, lon.=33.839394, Alt.=384.691650m. Speed=0.540000m/h.</desc>
<speed>0.150000</speed>
</trkpt>
<trkpt lat="44.630680" lon="33.839397">
<ele>384.574463</ele>
<time>2011-10-10T10:45:52Z</time>
<desc>lat.=44.630680, lon.=33.839397, Alt.=384.574463m. Speed=2.088000m/h.</desc>
<speed>0.580000</speed>
</trkpt>
<trkpt lat="44.630676" lon="33.839397">
<ele>385.035400</ele>
<time>2011-10-10T10:45:57Z</time>
<desc>lat.=44.630676, lon.=33.839397, Alt.=385.035400m. Speed=0.036000m/h.</desc>
<speed>0.010000</speed>
</trkpt>
<trkpt lat="44.630676" lon="33.839397">
<ele>384.996338</ele>
<time>2011-10-10T10:46:02Z</time>
<desc>lat.=44.630676, lon.=33.839397, Alt.=384.996338m. Speed=0.180000m/h.</desc>
<speed>0.050000</speed>
</trkpt>
<trkpt lat="44.630676" lon="33.839397">
<ele>385.183838</ele>
<time>2011-10-10T10:46:07Z</time>
<desc>lat.=44.630676, lon.=33.839397, Alt.=385.183838m. Speed=0.252000m/h.</desc>
<speed>0.070000</speed>
</trkpt>
<trkpt lat="44.630669" lon="33.839413">
<ele>385.527588</ele>
<time>2011-10-10T10:46:12Z</time>
<desc>lat.=44.630669, lon.=33.839413, Alt.=385.527588m. Speed=4.068000m/h.</desc>
<speed>1.130000</speed>
</trkpt>
<trkpt lat="44.630650" lon="33.839455">
<ele>386.285400</ele>
<time>2011-10-10T10:46:17Z</time>
<desc>lat.=44.630650, lon.=33.839455, Alt.=386.285400m. Speed=5.148000m/h.</desc>
<speed>1.430000</speed>
</trkpt>
<trkpt lat="44.630630" lon="33.839550">
<ele>387.511963</ele>
<time>2011-10-10T10:46:22Z</time>
<desc>lat.=44.630630, lon.=33.839550, Alt.=387.511963m. Speed=4.176000m/h.</desc>
<speed>1.160000</speed>
</trkpt>
<trkpt lat="44.630623" lon="33.839558">
<ele>387.543213</ele>
<time>2011-10-10T10:46:27Z</time>
<desc>lat.=44.630623, lon.=33.839558, Alt.=387.543213m. Speed=0.396000m/h.</desc>
<speed>0.110000</speed>
</trkpt>
<trkpt lat="44.630623" lon="33.839550">
<ele>387.566650</ele>
<time>2011-10-10T10:46:32Z</time>
<desc>lat.=44.630623, lon.=33.839550, Alt.=387.566650m. Speed=0.108000m/h.</desc>
<speed>0.030000</speed>
</trkpt>
<trkpt lat="44.630623" lon="33.839550">
<ele>387.574463</ele>
<time>2011-10-10T10:46:37Z</time>
<desc>lat.=44.630623, lon.=33.839550, Alt.=387.574463m. Speed=0.108000m/h.</desc>
<speed>0.030000</speed>
</trkpt>
<trkpt lat="44.630623" lon="33.839565">
<ele>387.543213</ele>
<time>2011-10-10T10:46:42Z</time>
<desc>lat.=44.630623, lon.=33.839565, Alt.=387.543213m. Speed=1.692000m/h.</desc>
<speed>0.470000</speed>
</trkpt>
<trkpt lat="44.630627" lon="33.839558">
<ele>387.496338</ele>
<time>2011-10-10T10:46:47Z</time>
<desc>lat.=44.630627, lon.=33.839558, Alt.=387.496338m. Speed=0.036000m/h.</desc>
<speed>0.010000</speed>
</trkpt>
<trkpt lat="44.630627" lon="33.839558">
<ele>387.394775</ele>
<time>2011-10-10T10:46:52Z</time>
<desc>lat.=44.630627, lon.=33.839558, Alt.=387.394775m. Speed=0.180000m/h.</desc>
<speed>0.050000</speed>
</trkpt>
<trkpt lat="44.630627" lon="33.839558">
<ele>387.347900</ele>
<time>2011-10-10T10:46:57Z</time>
<desc>lat.=44.630627, lon.=33.839558, Alt.=387.347900m. Speed=0.180000m/h.</desc>
<speed>0.050000</speed>
</trkpt>
<trkpt lat="44.630627" lon="33.839558">
<ele>387.347900</ele>
<time>2011-10-10T10:47:02Z</time>
<desc>lat.=44.630627, lon.=33.839558, Alt.=387.347900m. Speed=0.036000m/h.</desc>
<speed>0.010000</speed>
</trkpt>
<trkpt lat="44.630627" lon="33.839558">
<ele>387.347900</ele>
<time>2011-10-10T10:47:07Z</time>
<desc>lat.=44.630627, lon.=33.839558, Alt.=387.347900m. Speed=0.000000m/h.</desc>
<speed>0.000000</speed>
</trkpt>
<trkpt lat="44.630627" lon="33.839554">
<ele>387.246338</ele>
<time>2011-10-10T10:47:12Z</time>
<desc>lat.=44.630627, lon.=33.839554, Alt.=387.246338m. Speed=1.296000m/h.</desc>
<speed>0.360000</speed>
</trkpt>
<trkpt lat="44.630611" lon="33.839558">
<ele>387.488525</ele>
<time>2011-10-10T10:47:17Z</time>
<desc>lat.=44.630611, lon.=33.839558, Alt.=387.488525m. Speed=0.540000m/h.</desc>
<speed>0.150000</speed>
</trkpt>
<trkpt lat="44.630577" lon="33.839546">
<ele>387.691650</ele>
<time>2011-10-10T10:47:22Z</time>
<desc>lat.=44.630577, lon.=33.839546, Alt.=387.691650m. Speed=4.284000m/h.</desc>
<speed>1.190000</speed>
</trkpt>
<trkpt lat="44.630539" lon="33.839554">
<ele>387.207275</ele>
<time>2011-10-10T10:47:27Z</time>
<desc>lat.=44.630539, lon.=33.839554, Alt.=387.207275m. Speed=2.484000m/h.</desc>
<speed>0.690000</speed>
</trkpt>
<trkpt lat="44.630482" lon="33.839569">
<ele>387.285400</ele>
<time>2011-10-10T10:47:32Z</time>
<desc>lat.=44.630482, lon.=33.839569, Alt.=387.285400m. Speed=3.348000m/h.</desc>
<speed>0.930000</speed>
</trkpt>
<trkpt lat="44.630447" lon="33.839592">
<ele>387.574463</ele>
<time>2011-10-10T10:47:37Z</time>
<desc>lat.=44.630447, lon.=33.839592, Alt.=387.574463m. Speed=2.880000m/h.</desc>
<speed>0.800000</speed>
</trkpt>
<trkpt lat="44.630383" lon="33.839615">
<ele>387.691650</ele>
<time>2011-10-10T10:47:42Z</time>
<desc>lat.=44.630383, lon.=33.839615, Alt.=387.691650m. Speed=4.644000m/h.</desc>
<speed>1.290000</speed>
</trkpt>
<trkpt lat="44.630329" lon="33.839645">
<ele>389.441650</ele>
<time>2011-10-10T10:47:47Z</time>
<desc>lat.=44.630329, lon.=33.839645, Alt.=389.441650m. Speed=3.384000m/h.</desc>
<speed>0.940000</speed>
</trkpt>
<trkpt lat="44.630283" lon="33.839657">
<ele>390.879150</ele>
<time>2011-10-10T10:47:52Z</time>
<desc>lat.=44.630283, lon.=33.839657, Alt.=390.879150m. Speed=2.664000m/h.</desc>
<speed>0.740000</speed>
</trkpt>
<trkpt lat="44.630253" lon="33.839664">
<ele>391.261963</ele>
<time>2011-10-10T10:47:57Z</time>
<desc>lat.=44.630253, lon.=33.839664, Alt.=391.261963m. Speed=1.584000m/h.</desc>
<speed>0.440000</speed>
</trkpt>
<trkpt lat="44.630226" lon="33.839668">
<ele>392.144775</ele>
<time>2011-10-10T10:48:02Z</time>
<desc>lat.=44.630226, lon.=33.839668, Alt.=392.144775m. Speed=2.016000m/h.</desc>
<speed>0.560000</speed>
</trkpt>
<trkpt lat="44.630199" lon="33.839676">
<ele>392.926025</ele>
<time>2011-10-10T10:48:07Z</time>
<desc>lat.=44.630199, lon.=33.839676, Alt.=392.926025m. Speed=2.412000m/h.</desc>
<speed>0.670000</speed>
</trkpt>
<trkpt lat="44.630165" lon="33.839680">
<ele>394.105713</ele>
<time>2011-10-10T10:48:12Z</time>
<desc>lat.=44.630165, lon.=33.839680, Alt.=394.105713m. Speed=2.916000m/h.</desc>
<speed>0.810000</speed>
</trkpt>
<trkpt lat="44.630123" lon="33.839691">
<ele>395.160400</ele>
<time>2011-10-10T10:48:17Z</time>
<desc>lat.=44.630123, lon.=33.839691, Alt.=395.160400m. Speed=4.032000m/h.</desc>
<speed>1.120000</speed>
</trkpt>
<trkpt lat="44.630054" lon="33.839703">
<ele>395.824463</ele>
<time>2011-10-10T10:48:22Z</time>
<desc>lat.=44.630054, lon.=33.839703, Alt.=395.824463m. Speed=2.052000m/h.</desc>
<speed>0.570000</speed>
</trkpt>
<trkpt lat="44.630020" lon="33.839741">
<ele>397.722900</ele>
<time>2011-10-10T10:48:27Z</time>
<desc>lat.=44.630020, lon.=33.839741, Alt.=397.722900m. Speed=2.736000m/h.</desc>
<speed>0.760000</speed>
</trkpt>
<trkpt lat="44.629955" lon="33.839741">
<ele>398.941650</ele>
<time>2011-10-10T10:48:32Z</time>
<desc>lat.=44.629955, lon.=33.839741, Alt.=398.941650m. Speed=4.212000m/h.</desc>
<speed>1.170000</speed>
</trkpt>
<trkpt lat="44.629868" lon="33.839722">
<ele>399.855713</ele>
<time>2011-10-10T10:48:37Z</time>
<desc>lat.=44.629868, lon.=33.839722, Alt.=399.855713m. Speed=4.608000m/h.</desc>
<speed>1.280000</speed>
</trkpt>
<trkpt lat="44.629826" lon="33.839745">
<ele>400.004150</ele>
<time>2011-10-10T10:48:42Z</time>
<desc>lat.=44.629826, lon.=33.839745, Alt.=400.004150m. Speed=2.844000m/h.</desc>
<speed>0.790000</speed>
</trkpt>
<trkpt lat="44.629768" lon="33.839733">
<ele>400.152588</ele>
<time>2011-10-10T10:48:47Z</time>
<desc>lat.=44.629768, lon.=33.839733, Alt.=400.152588m. Speed=3.060000m/h.</desc>
<speed>0.850000</speed>
</trkpt>
<trkpt lat="44.629711" lon="33.839725">
<ele>398.051025</ele>
<time>2011-10-10T10:48:52Z</time>
<desc>lat.=44.629711, lon.=33.839725, Alt.=398.051025m. Speed=4.140000m/h.</desc>
<speed>1.150000</speed>
</trkpt>
<trkpt lat="44.629654" lon="33.839722">
<ele>395.808838</ele>
<time>2011-10-10T10:48:57Z</time>
<desc>lat.=44.629654, lon.=33.839722, Alt.=395.808838m. Speed=2.520000m/h.</desc>
<speed>0.700000</speed>
</trkpt>
<trkpt lat="44.629639" lon="33.839722">
<ele>393.496338</ele>
<time>2011-10-10T10:49:02Z</time>
<desc>lat.=44.629639, lon.=33.839722, Alt.=393.496338m. Speed=1.116000m/h.</desc>
<speed>0.310000</speed>
</trkpt>
<trkpt lat="44.629601" lon="33.839706">
<ele>393.480713</ele>
<time>2011-10-10T10:49:07Z</time>
<desc>lat.=44.629601, lon.=33.839706, Alt.=393.480713m. Speed=4.716000m/h.</desc>
<speed>1.310000</speed>
</trkpt>
<trkpt lat="44.629570" lon="33.839687">
<ele>392.847900</ele>
<time>2011-10-10T10:49:12Z</time>
<desc>lat.=44.629570, lon.=33.839687, Alt.=392.847900m. Speed=2.700000m/h.</desc>
<speed>0.750000</speed>
</trkpt>
<trkpt lat="44.629498" lon="33.839703">
<ele>390.777588</ele>
<time>2011-10-10T10:49:17Z</time>
<desc>lat.=44.629498, lon.=33.839703, Alt.=390.777588m. Speed=3.384000m/h.</desc>
<speed>0.940000</speed>
</trkpt>
<trkpt lat="44.629448" lon="33.839699">
<ele>389.316650</ele>
<time>2011-10-10T10:49:22Z</time>
<desc>lat.=44.629448, lon.=33.839699, Alt.=389.316650m. Speed=3.132000m/h.</desc>
<speed>0.870000</speed>
</trkpt>
<trkpt lat="44.629417" lon="33.839684">
<ele>388.363525</ele>
<time>2011-10-10T10:49:27Z</time>
<desc>lat.=44.629417, lon.=33.839684, Alt.=388.363525m. Speed=2.916000m/h.</desc>
<speed>0.810000</speed>
</trkpt>
<trkpt lat="44.629379" lon="33.839668">
<ele>387.613525</ele>
<time>2011-10-10T10:49:32Z</time>
<desc>lat.=44.629379, lon.=33.839668, Alt.=387.613525m. Speed=2.556000m/h.</desc>
<speed>0.710000</speed>
</trkpt>
<trkpt lat="44.629353" lon="33.839657">
<ele>387.465088</ele>
<time>2011-10-10T10:49:37Z</time>
<desc>lat.=44.629353, lon.=33.839657, Alt.=387.465088m. Speed=3.672000m/h.</desc>
<speed>1.020000</speed>
</trkpt>
<trkpt lat="44.629375" lon="33.839668">
<ele>386.394775</ele>
<time>2011-10-10T10:49:42Z</time>
<desc>lat.=44.629375, lon.=33.839668, Alt.=386.394775m. Speed=1.620000m/h.</desc>
<speed>0.450000</speed>
</trkpt>
<trkpt lat="44.629372" lon="33.839615">
<ele>386.152588</ele>
<time>2011-10-10T10:49:47Z</time>
<desc>lat.=44.629372, lon.=33.839615, Alt.=386.152588m. Speed=2.232000m/h.</desc>
<speed>0.620000</speed>
</trkpt>
<trkpt lat="44.629356" lon="33.839569">
<ele>386.051025</ele>
<time>2011-10-10T10:49:52Z</time>
<desc>lat.=44.629356, lon.=33.839569, Alt.=386.051025m. Speed=3.456000m/h.</desc>
<speed>0.960000</speed>
</trkpt>
<trkpt lat="44.629356" lon="33.839527">
<ele>386.426025</ele>
<time>2011-10-10T10:49:57Z</time>
<desc>lat.=44.629356, lon.=33.839527, Alt.=386.426025m. Speed=2.772000m/h.</desc>
<speed>0.770000</speed>
</trkpt>
<trkpt lat="44.629330" lon="33.839455">
<ele>386.996338</ele>
<time>2011-10-10T10:50:02Z</time>
<desc>lat.=44.629330, lon.=33.839455, Alt.=386.996338m. Speed=3.672000m/h.</desc>
<speed>1.020000</speed>
</trkpt>
<trkpt lat="44.629307" lon="33.839439">
<ele>387.699463</ele>
<time>2011-10-10T10:50:07Z</time>
<desc>lat.=44.629307, lon.=33.839439, Alt.=387.699463m. Speed=2.808000m/h.</desc>
<speed>0.780000</speed>
</trkpt>
<trkpt lat="44.629276" lon="33.839386">
<ele>388.707275</ele>
<time>2011-10-10T10:50:12Z</time>
<desc>lat.=44.629276, lon.=33.839386, Alt.=388.707275m. Speed=5.436000m/h.</desc>
<speed>1.510000</speed>
</trkpt>
<trkpt lat="44.629261" lon="33.839355">
<ele>389.371338</ele>
<time>2011-10-10T10:50:17Z</time>
<desc>lat.=44.629261, lon.=33.839355, Alt.=389.371338m. Speed=3.132000m/h.</desc>
<speed>0.870000</speed>
</trkpt>
<trkpt lat="44.629215" lon="33.839352">
<ele>390.261963</ele>
<time>2011-10-10T10:50:22Z</time>
<desc>lat.=44.629215, lon.=33.839352, Alt.=390.261963m. Speed=2.736000m/h.</desc>
<speed>0.760000</speed>
</trkpt>
<trkpt lat="44.629173" lon="33.839333">
<ele>390.347900</ele>
<time>2011-10-10T10:50:27Z</time>
<desc>lat.=44.629173, lon.=33.839333, Alt.=390.347900m. Speed=3.636000m/h.</desc>
<speed>1.010000</speed>
</trkpt>
<trkpt lat="44.629135" lon="33.839317">
<ele>390.324463</ele>
<time>2011-10-10T10:50:32Z</time>
<desc>lat.=44.629135, lon.=33.839317, Alt.=390.324463m. Speed=3.096000m/h.</desc>
<speed>0.860000</speed>
</trkpt>
<trkpt lat="44.629101" lon="33.839279">
<ele>390.074463</ele>
<time>2011-10-10T10:50:37Z</time>
<desc>lat.=44.629101, lon.=33.839279, Alt.=390.074463m. Speed=3.600000m/h.</desc>
<speed>1.000000</speed>
</trkpt>
<trkpt lat="44.629028" lon="33.839268">
<ele>390.496338</ele>
<time>2011-10-10T10:50:42Z</time>
<desc>lat.=44.629028, lon.=33.839268, Alt.=390.496338m. Speed=5.616000m/h.</desc>
<speed>1.560000</speed>
</trkpt>
<trkpt lat="44.628971" lon="33.839249">
<ele>390.238525</ele>
<time>2011-10-10T10:50:47Z</time>
<desc>lat.=44.628971, lon.=33.839249, Alt.=390.238525m. Speed=2.160000m/h.</desc>
<speed>0.600000</speed>
</trkpt>
<trkpt lat="44.628925" lon="33.839222">
<ele>389.972900</ele>
<time>2011-10-10T10:50:52Z</time>
<desc>lat.=44.628925, lon.=33.839222, Alt.=389.972900m. Speed=2.772000m/h.</desc>
<speed>0.770000</speed>
</trkpt>
<trkpt lat="44.628887" lon="33.839218">
<ele>390.379150</ele>
<time>2011-10-10T10:50:57Z</time>
<desc>lat.=44.628887, lon.=33.839218, Alt.=390.379150m. Speed=3.060000m/h.</desc>
<speed>0.850000</speed>
</trkpt>
<trkpt lat="44.628849" lon="33.839207">
<ele>390.386963</ele>
<time>2011-10-10T10:51:02Z</time>
<desc>lat.=44.628849, lon.=33.839207, Alt.=390.386963m. Speed=1.656000m/h.</desc>
<speed>0.460000</speed>
</trkpt>
<trkpt lat="44.628807" lon="33.839199">
<ele>390.199463</ele>
<time>2011-10-10T10:51:07Z</time>
<desc>lat.=44.628807, lon.=33.839199, Alt.=390.199463m. Speed=2.520000m/h.</desc>
<speed>0.700000</speed>
</trkpt>
<trkpt lat="44.628769" lon="33.839188">
<ele>389.965088</ele>
<time>2011-10-10T10:51:12Z</time>
<desc>lat.=44.628769, lon.=33.839188, Alt.=389.965088m. Speed=2.448000m/h.</desc>
<speed>0.680000</speed>
</trkpt>
<trkpt lat="44.628727" lon="33.839199">
<ele>389.527588</ele>
<time>2011-10-10T10:51:17Z</time>
<desc>lat.=44.628727, lon.=33.839199, Alt.=389.527588m. Speed=0.972000m/h.</desc>
<speed>0.270000</speed>
</trkpt>
<trkpt lat="44.628689" lon="33.839180">
<ele>389.058838</ele>
<time>2011-10-10T10:51:22Z</time>
<desc>lat.=44.628689, lon.=33.839180, Alt.=389.058838m. Speed=1.944000m/h.</desc>
<speed>0.540000</speed>
</trkpt>
<trkpt lat="44.628643" lon="33.839161">
<ele>387.832275</ele>
<time>2011-10-10T10:51:27Z</time>
<desc>lat.=44.628643, lon.=33.839161, Alt.=387.832275m. Speed=2.952000m/h.</desc>
<speed>0.820000</speed>
</trkpt>
<trkpt lat="44.628620" lon="33.839161">
<ele>386.293213</ele>
<time>2011-10-10T10:51:32Z</time>
<desc>lat.=44.628620, lon.=33.839161, Alt.=386.293213m. Speed=1.116000m/h.</desc>
<speed>0.310000</speed>
</trkpt>
<trkpt lat="44.628624" lon="33.839165">
<ele>384.230713</ele>
<time>2011-10-10T10:51:37Z</time>
<desc>lat.=44.628624, lon.=33.839165, Alt.=384.230713m. Speed=2.772000m/h.</desc>
<speed>0.770000</speed>
</trkpt>
<trkpt lat="44.628532" lon="33.839146">
<ele>382.277588</ele>
<time>2011-10-10T10:51:42Z</time>
<desc>lat.=44.628532, lon.=33.839146, Alt.=382.277588m. Speed=6.264000m/h.</desc>
<speed>1.740000</speed>
</trkpt>
<trkpt lat="44.628494" lon="33.839161">
<ele>382.176025</ele>
<time>2011-10-10T10:51:47Z</time>
<desc>lat.=44.628494, lon.=33.839161, Alt.=382.176025m. Speed=2.196000m/h.</desc>
<speed>0.610000</speed>
</trkpt>
<trkpt lat="44.628494" lon="33.839188">
<ele>383.551025</ele>
<time>2011-10-10T10:51:52Z</time>
<desc>lat.=44.628494, lon.=33.839188, Alt.=383.551025m. Speed=0.180000m/h.</desc>
<speed>0.050000</speed>
</trkpt>
<trkpt lat="44.628510" lon="33.839203">
<ele>384.418213</ele>
<time>2011-10-10T10:51:57Z</time>
<desc>lat.=44.628510, lon.=33.839203, Alt.=384.418213m. Speed=0.072000m/h.</desc>
<speed>0.020000</speed>
</trkpt>
<trkpt lat="44.628498" lon="33.839203">
<ele>385.043213</ele>
<time>2011-10-10T10:52:02Z</time>
<desc>lat.=44.628498, lon.=33.839203, Alt.=385.043213m. Speed=1.188000m/h.</desc>
<speed>0.330000</speed>
</trkpt>
<trkpt lat="44.628422" lon="33.839203">
<ele>385.910400</ele>
<time>2011-10-10T10:52:07Z</time>
<desc>lat.=44.628422, lon.=33.839203, Alt.=385.910400m. Speed=5.328000m/h.</desc>
<speed>1.480000</speed>
</trkpt>
<trkpt lat="44.628365" lon="33.839172">
<ele>386.511963</ele>
<time>2011-10-10T10:52:12Z</time>
<desc>lat.=44.628365, lon.=33.839172, Alt.=386.511963m. Speed=3.492000m/h.</desc>
<speed>0.970000</speed>
</trkpt>
<trkpt lat="44.628311" lon="33.839146">
<ele>387.332275</ele>
<time>2011-10-10T10:52:17Z</time>
<desc>lat.=44.628311, lon.=33.839146, Alt.=387.332275m. Speed=3.024000m/h.</desc>
<speed>0.840000</speed>
</trkpt>
<trkpt lat="44.628254" lon="33.839153">
<ele>388.082275</ele>
<time>2011-10-10T10:52:22Z</time>
<desc>lat.=44.628254, lon.=33.839153, Alt.=388.082275m. Speed=4.212000m/h.</desc>
<speed>1.170000</speed>
</trkpt>
<trkpt lat="44.628174" lon="33.839146">
<ele>389.394775</ele>
<time>2011-10-10T10:52:27Z</time>
<desc>lat.=44.628174, lon.=33.839146, Alt.=389.394775m. Speed=2.880000m/h.</desc>
<speed>0.800000</speed>
</trkpt>
<trkpt lat="44.628147" lon="33.839130">
<ele>390.269775</ele>
<time>2011-10-10T10:52:32Z</time>
<desc>lat.=44.628147, lon.=33.839130, Alt.=390.269775m. Speed=1.260000m/h.</desc>
<speed>0.350000</speed>
</trkpt>
<trkpt lat="44.628136" lon="33.839069">
<ele>391.011963</ele>
<time>2011-10-10T10:52:37Z</time>
<desc>lat.=44.628136, lon.=33.839069, Alt.=391.011963m. Speed=1.908000m/h.</desc>
<speed>0.530000</speed>
</trkpt>
<trkpt lat="44.628124" lon="33.839035">
<ele>392.183838</ele>
<time>2011-10-10T10:52:42Z</time>
<desc>lat.=44.628124, lon.=33.839035, Alt.=392.183838m. Speed=2.664000m/h.</desc>
<speed>0.740000</speed>
</trkpt>
<trkpt lat="44.628132" lon="33.838982">
<ele>393.129150</ele>
<time>2011-10-10T10:52:47Z</time>
<desc>lat.=44.628132, lon.=33.838982, Alt.=393.129150m. Speed=1.872000m/h.</desc>
<speed>0.520000</speed>
</trkpt>
<trkpt lat="44.628159" lon="33.838997">
<ele>393.816650</ele>
<time>2011-10-10T10:52:52Z</time>
<desc>lat.=44.628159, lon.=33.838997, Alt.=393.816650m. Speed=0.720000m/h.</desc>
<speed>0.200000</speed>
</trkpt>
<trkpt lat="44.628155" lon="33.839016">
<ele>393.480713</ele>
<time>2011-10-10T10:52:57Z</time>
<desc>lat.=44.628155, lon.=33.839016, Alt.=393.480713m. Speed=0.072000m/h.</desc>
<speed>0.020000</speed>
</trkpt>
<trkpt lat="44.628151" lon="33.839016">
<ele>394.222900</ele>
<time>2011-10-10T10:53:02Z</time>
<desc>lat.=44.628151, lon.=33.839016, Alt.=394.222900m. Speed=0.252000m/h.</desc>
<speed>0.070000</speed>
</trkpt>
<trkpt lat="44.628147" lon="33.839012">
<ele>394.949463</ele>
<time>2011-10-10T10:53:07Z</time>
<desc>lat.=44.628147, lon.=33.839012, Alt.=394.949463m. Speed=0.072000m/h.</desc>
<speed>0.020000</speed>
</trkpt>
<trkpt lat="44.628147" lon="33.839012">
<ele>395.605713</ele>
<time>2011-10-10T10:53:12Z</time>
<desc>lat.=44.628147, lon.=33.839012, Alt.=395.605713m. Speed=0.216000m/h.</desc>
<speed>0.060000</speed>
</trkpt>
<trkpt lat="44.628143" lon="33.839012">
<ele>396.207275</ele>
<time>2011-10-10T10:53:17Z</time>
<desc>lat.=44.628143, lon.=33.839012, Alt.=396.207275m. Speed=0.180000m/h.</desc>
<speed>0.050000</speed>
</trkpt>
<trkpt lat="44.628139" lon="33.839016">
<ele>396.754150</ele>
<time>2011-10-10T10:53:22Z</time>
<desc>lat.=44.628139, lon.=33.839016, Alt.=396.754150m. Speed=0.468000m/h.</desc>
<speed>0.130000</speed>
</trkpt>
<trkpt lat="44.628136" lon="33.839016">
<ele>397.316650</ele>
<time>2011-10-10T10:53:27Z</time>
<desc>lat.=44.628136, lon.=33.839016, Alt.=397.316650m. Speed=0.432000m/h.</desc>
<speed>0.120000</speed>
</trkpt>
<trkpt lat="44.628132" lon="33.839020">
<ele>397.816650</ele>
<time>2011-10-10T10:53:32Z</time>
<desc>lat.=44.628132, lon.=33.839020, Alt.=397.816650m. Speed=0.288000m/h.</desc>
<speed>0.080000</speed>
</trkpt>
<trkpt lat="44.628136" lon="33.839016">
<ele>398.636963</ele>
<time>2011-10-10T10:53:37Z</time>
<desc>lat.=44.628136, lon.=33.839016, Alt.=398.636963m. Speed=0.360000m/h.</desc>
<speed>0.100000</speed>
</trkpt>
<trkpt lat="44.628139" lon="33.839008">
<ele>398.668213</ele>
<time>2011-10-10T10:53:42Z</time>
<desc>lat.=44.628139, lon.=33.839008, Alt.=398.668213m. Speed=0.180000m/h.</desc>
<speed>0.050000</speed>
</trkpt>
<trkpt lat="44.628139" lon="33.839001">
<ele>398.793213</ele>
<time>2011-10-10T10:53:47Z</time>
<desc>lat.=44.628139, lon.=33.839001, Alt.=398.793213m. Speed=0.072000m/h.</desc>
<speed>0.020000</speed>
</trkpt>
<trkpt lat="44.628139" lon="33.839008">
<ele>398.644775</ele>
<time>2011-10-10T10:53:52Z</time>
<desc>lat.=44.628139, lon.=33.839008, Alt.=398.644775m. Speed=0.072000m/h.</desc>
<speed>0.020000</speed>
</trkpt>
<trkpt lat="44.628132" lon="33.839016">
<ele>397.715088</ele>
<time>2011-10-10T10:53:57Z</time>
<desc>lat.=44.628132, lon.=33.839016, Alt.=397.715088m. Speed=0.036000m/h.</desc>
<speed>0.010000</speed>
</trkpt>
<trkpt lat="44.628136" lon="33.839016">
<ele>396.918213</ele>
<time>2011-10-10T10:54:02Z</time>
<desc>lat.=44.628136, lon.=33.839016, Alt.=396.918213m. Speed=0.324000m/h.</desc>
<speed>0.090000</speed>
</trkpt>
<trkpt lat="44.628166" lon="33.838989">
<ele>395.863525</ele>
<time>2011-10-10T10:54:07Z</time>
<desc>lat.=44.628166, lon.=33.838989, Alt.=395.863525m. Speed=3.240000m/h.</desc>
<speed>0.900000</speed>
</trkpt>
<trkpt lat="44.628166" lon="33.838974">
<ele>394.761963</ele>
<time>2011-10-10T10:54:12Z</time>
<desc>lat.=44.628166, lon.=33.838974, Alt.=394.761963m. Speed=0.360000m/h.</desc>
<speed>0.100000</speed>
</trkpt>
<trkpt lat="44.628181" lon="33.838947">
<ele>394.019775</ele>
<time>2011-10-10T10:54:17Z</time>
<desc>lat.=44.628181, lon.=33.838947, Alt.=394.019775m. Speed=0.144000m/h.</desc>
<speed>0.040000</speed>
</trkpt>
<trkpt lat="44.628189" lon="33.838932">
<ele>393.316650</ele>
<time>2011-10-10T10:54:22Z</time>
<desc>lat.=44.628189, lon.=33.838932, Alt.=393.316650m. Speed=0.540000m/h.</desc>
<speed>0.150000</speed>
</trkpt>
<trkpt lat="44.628204" lon="33.838909">
<ele>393.285400</ele>
<time>2011-10-10T10:54:27Z</time>
<desc>lat.=44.628204, lon.=33.838909, Alt.=393.285400m. Speed=2.592000m/h.</desc>
<speed>0.720000</speed>
</trkpt>
<trkpt lat="44.628231" lon="33.838898">
<ele>392.840088</ele>
<time>2011-10-10T10:54:32Z</time>
<desc>lat.=44.628231, lon.=33.838898, Alt.=392.840088m. Speed=3.708000m/h.</desc>
<speed>1.030000</speed>
</trkpt>
<trkpt lat="44.628315" lon="33.838871">
<ele>392.871338</ele>
<time>2011-10-10T10:54:37Z</time>
<desc>lat.=44.628315, lon.=33.838871, Alt.=392.871338m. Speed=7.056000m/h.</desc>
<speed>1.960000</speed>
</trkpt>
<trkpt lat="44.628445" lon="33.838837">
<ele>393.941650</ele>
<time>2011-10-10T10:54:42Z</time>
<desc>lat.=44.628445, lon.=33.838837, Alt.=393.941650m. Speed=9.036000m/h.</desc>
<speed>2.510000</speed>
</trkpt>
<trkpt lat="44.628563" lon="33.838753">
<ele>393.301025</ele>
<time>2011-10-10T10:54:47Z</time>
<desc>lat.=44.628563, lon.=33.838753, Alt.=393.301025m. Speed=6.984000m/h.</desc>
<speed>1.940000</speed>
</trkpt>
<trkpt lat="44.628632" lon="33.838680">
<ele>392.504150</ele>
<time>2011-10-10T10:54:52Z</time>
<desc>lat.=44.628632, lon.=33.838680, Alt.=392.504150m. Speed=2.772000m/h.</desc>
<speed>0.770000</speed>
</trkpt>
<trkpt lat="44.628677" lon="33.838623">
<ele>392.027588</ele>
<time>2011-10-10T10:54:57Z</time>
<desc>lat.=44.628677, lon.=33.838623, Alt.=392.027588m. Speed=0.612000m/h.</desc>
<speed>0.170000</speed>
</trkpt>
<trkpt lat="44.628681" lon="33.838589">
<ele>389.769775</ele>
<time>2011-10-10T10:55:02Z</time>
<desc>lat.=44.628681, lon.=33.838589, Alt.=389.769775m. Speed=0.468000m/h.</desc>
<speed>0.130000</speed>
</trkpt>
<trkpt lat="44.628746" lon="33.838573">
<ele>387.676025</ele>
<time>2011-10-10T10:55:07Z</time>
<desc>lat.=44.628746, lon.=33.838573, Alt.=387.676025m. Speed=2.232000m/h.</desc>
<speed>0.620000</speed>
</trkpt>
<trkpt lat="44.628796" lon="33.838486">
<ele>386.449463</ele>
<time>2011-10-10T10:55:12Z</time>
<desc>lat.=44.628796, lon.=33.838486, Alt.=386.449463m. Speed=4.644000m/h.</desc>
<speed>1.290000</speed>
</trkpt>
<trkpt lat="44.628899" lon="33.838402">
<ele>385.558838</ele>
<time>2011-10-10T10:55:17Z</time>
<desc>lat.=44.628899, lon.=33.838402, Alt.=385.558838m. Speed=3.816000m/h.</desc>
<speed>1.060000</speed>
</trkpt>
<trkpt lat="44.628952" lon="33.838356">
<ele>384.043213</ele>
<time>2011-10-10T10:55:22Z</time>
<desc>lat.=44.628952, lon.=33.838356, Alt.=384.043213m. Speed=1.548000m/h.</desc>
<speed>0.430000</speed>
</trkpt>
<trkpt lat="44.628990" lon="33.838318">
<ele>383.894775</ele>
<time>2011-10-10T10:55:27Z</time>
<desc>lat.=44.628990, lon.=33.838318, Alt.=383.894775m. Speed=2.664000m/h.</desc>
<speed>0.740000</speed>
</trkpt>
<trkpt lat="44.629040" lon="33.838284">
<ele>383.957275</ele>
<time>2011-10-10T10:55:32Z</time>
<desc>lat.=44.629040, lon.=33.838284, Alt.=383.957275m. Speed=2.916000m/h.</desc>
<speed>0.810000</speed>
</trkpt>
<trkpt lat="44.629070" lon="33.838249">
<ele>384.121338</ele>
<time>2011-10-10T10:55:37Z</time>
<desc>lat.=44.629070, lon.=33.838249, Alt.=384.121338m. Speed=1.476000m/h.</desc>
<speed>0.410000</speed>
</trkpt>
<trkpt lat="44.629097" lon="33.838276">
<ele>383.996338</ele>
<time>2011-10-10T10:55:42Z</time>
<desc>lat.=44.629097, lon.=33.838276, Alt.=383.996338m. Speed=1.116000m/h.</desc>
<speed>0.310000</speed>
</trkpt>
<trkpt lat="44.629128" lon="33.838238">
<ele>384.347900</ele>
<time>2011-10-10T10:55:47Z</time>
<desc>lat.=44.629128, lon.=33.838238, Alt.=384.347900m. Speed=1.116000m/h.</desc>
<speed>0.310000</speed>
</trkpt>
<trkpt lat="44.629150" lon="33.838219">
<ele>384.105713</ele>
<time>2011-10-10T10:55:52Z</time>
<desc>lat.=44.629150, lon.=33.838219, Alt.=384.105713m. Speed=2.412000m/h.</desc>
<speed>0.670000</speed>
</trkpt>
<trkpt lat="44.629196" lon="33.838211">
<ele>384.207275</ele>
<time>2011-10-10T10:55:57Z</time>
<desc>lat.=44.629196, lon.=33.838211, Alt.=384.207275m. Speed=2.880000m/h.</desc>
<speed>0.800000</speed>
</trkpt>
<trkpt lat="44.629211" lon="33.838188">
<ele>384.754150</ele>
<time>2011-10-10T10:56:02Z</time>
<desc>lat.=44.629211, lon.=33.838188, Alt.=384.754150m. Speed=1.188000m/h.</desc>
<speed>0.330000</speed>
</trkpt>
<trkpt lat="44.629227" lon="33.838169">
<ele>384.832275</ele>
<time>2011-10-10T10:56:07Z</time>
<desc>lat.=44.629227, lon.=33.838169, Alt.=384.832275m. Speed=0.360000m/h.</desc>
<speed>0.100000</speed>
</trkpt>
<trkpt lat="44.629246" lon="33.838181">
<ele>384.129150</ele>
<time>2011-10-10T10:56:12Z</time>
<desc>lat.=44.629246, lon.=33.838181, Alt.=384.129150m. Speed=0.288000m/h.</desc>
<speed>0.080000</speed>
</trkpt>
<trkpt lat="44.629250" lon="33.838181">
<ele>383.504150</ele>
<time>2011-10-10T10:56:17Z</time>
<desc>lat.=44.629250, lon.=33.838181, Alt.=383.504150m. Speed=0.576000m/h.</desc>
<speed>0.160000</speed>
</trkpt>
<trkpt lat="44.629242" lon="33.838173">
<ele>383.746338</ele>
<time>2011-10-10T10:56:22Z</time>
<desc>lat.=44.629242, lon.=33.838173, Alt.=383.746338m. Speed=0.144000m/h.</desc>
<speed>0.040000</speed>
</trkpt>
<trkpt lat="44.629238" lon="33.838146">
<ele>383.222900</ele>
<time>2011-10-10T10:56:27Z</time>
<desc>lat.=44.629238, lon.=33.838146, Alt.=383.222900m. Speed=0.864000m/h.</desc>
<speed>0.240000</speed>
</trkpt>
<trkpt lat="44.629257" lon="33.838116">
<ele>382.340088</ele>
<time>2011-10-10T10:56:32Z</time>
<desc>lat.=44.629257, lon.=33.838116, Alt.=382.340088m. Speed=1.764000m/h.</desc>
<speed>0.490000</speed>
</trkpt>
<trkpt lat="44.629269" lon="33.838081">
<ele>380.543213</ele>
<time>2011-10-10T10:56:37Z</time>
<desc>lat.=44.629269, lon.=33.838081, Alt.=380.543213m. Speed=0.864000m/h.</desc>
<speed>0.240000</speed>
</trkpt>
<trkpt lat="44.629292" lon="33.838062">
<ele>379.972900</ele>
<time>2011-10-10T10:56:42Z</time>
<desc>lat.=44.629292, lon.=33.838062, Alt.=379.972900m. Speed=0.864000m/h.</desc>
<speed>0.240000</speed>
</trkpt>
<trkpt lat="44.629311" lon="33.838066">
<ele>380.293213</ele>
<time>2011-10-10T10:56:47Z</time>
<desc>lat.=44.629311, lon.=33.838066, Alt.=380.293213m. Speed=0.936000m/h.</desc>
<speed>0.260000</speed>
</trkpt>
<trkpt lat="44.629322" lon="33.838055">
<ele>380.293213</ele>
<time>2011-10-10T10:56:52Z</time>
<desc>lat.=44.629322, lon.=33.838055, Alt.=380.293213m. Speed=0.900000m/h.</desc>
<speed>0.250000</speed>
</trkpt>
<trkpt lat="44.629333" lon="33.838062">
<ele>380.129150</ele>
<time>2011-10-10T10:56:57Z</time>
<desc>lat.=44.629333, lon.=33.838062, Alt.=380.129150m. Speed=0.828000m/h.</desc>
<speed>0.230000</speed>
</trkpt>
<trkpt lat="44.629368" lon="33.838039">
<ele>379.886963</ele>
<time>2011-10-10T10:57:02Z</time>
<desc>lat.=44.629368, lon.=33.838039, Alt.=379.886963m. Speed=1.980000m/h.</desc>
<speed>0.550000</speed>
</trkpt>
<trkpt lat="44.629456" lon="33.838051">
<ele>379.801025</ele>
<time>2011-10-10T10:57:07Z</time>
<desc>lat.=44.629456, lon.=33.838051, Alt.=379.801025m. Speed=5.760000m/h.</desc>
<speed>1.600000</speed>
</trkpt>
<trkpt lat="44.629589" lon="33.837994">
<ele>377.730713</ele>
<time>2011-10-10T10:57:12Z</time>
<desc>lat.=44.629589, lon.=33.837994, Alt.=377.730713m. Speed=9.864000m/h.</desc>
<speed>2.740000</speed>
</trkpt>
<trkpt lat="44.629719" lon="33.837776">
<ele>375.886963</ele>
<time>2011-10-10T10:57:17Z</time>
<desc>lat.=44.629719, lon.=33.837776, Alt.=375.886963m. Speed=19.007999m/h.</desc>
<speed>5.280000</speed>
</trkpt>
<trkpt lat="44.629818" lon="33.837540">
<ele>374.957275</ele>
<time>2011-10-10T10:57:22Z</time>
<desc>lat.=44.629818, lon.=33.837540, Alt.=374.957275m. Speed=12.924000m/h.</desc>
<speed>3.590000</speed>
</trkpt>
<trkpt lat="44.629890" lon="33.837353">
<ele>373.980713</ele>
<time>2011-10-10T10:57:27Z</time>
<desc>lat.=44.629890, lon.=33.837353, Alt.=373.980713m. Speed=7.668000m/h.</desc>
<speed>2.130000</speed>
</trkpt>
<trkpt lat="44.629936" lon="33.837181">
<ele>373.691650</ele>
<time>2011-10-10T10:57:32Z</time>
<desc>lat.=44.629936, lon.=33.837181, Alt.=373.691650m. Speed=12.564000m/h.</desc>
<speed>3.490000</speed>
</trkpt>
<trkpt lat="44.629959" lon="33.837006">
<ele>374.683838</ele>
<time>2011-10-10T10:57:37Z</time>
<desc>lat.=44.629959, lon.=33.837006, Alt.=374.683838m. Speed=2.664000m/h.</desc>
<speed>0.740000</speed>
</trkpt>
<trkpt lat="44.629971" lon="33.836956">
<ele>375.121338</ele>
<time>2011-10-10T10:57:42Z</time>
<desc>lat.=44.629971, lon.=33.836956, Alt.=375.121338m. Speed=2.448000m/h.</desc>
<speed>0.680000</speed>
</trkpt>
<trkpt lat="44.629974" lon="33.836918">
<ele>375.793213</ele>
<time>2011-10-10T10:57:47Z</time>
<desc>lat.=44.629974, lon.=33.836918, Alt.=375.793213m. Speed=1.584000m/h.</desc>
<speed>0.440000</speed>
</trkpt>
<trkpt lat="44.629986" lon="33.836895">
<ele>376.504150</ele>
<time>2011-10-10T10:57:52Z</time>
<desc>lat.=44.629986, lon.=33.836895, Alt.=376.504150m. Speed=1.224000m/h.</desc>
<speed>0.340000</speed>
</trkpt>
<trkpt lat="44.629997" lon="33.836887">
<ele>377.160400</ele>
<time>2011-10-10T10:57:57Z</time>
<desc>lat.=44.629997, lon.=33.836887, Alt.=377.160400m. Speed=2.484000m/h.</desc>
<speed>0.690000</speed>
</trkpt>
<trkpt lat="44.630020" lon="33.836857">
<ele>377.090088</ele>
<time>2011-10-10T10:58:02Z</time>
<desc>lat.=44.630020, lon.=33.836857, Alt.=377.090088m. Speed=3.312000m/h.</desc>
<speed>0.920000</speed>
</trkpt>
<trkpt lat="44.630016" lon="33.836861">
<ele>376.168213</ele>
<time>2011-10-10T10:58:07Z</time>
<desc>lat.=44.630016, lon.=33.836861, Alt.=376.168213m. Speed=0.540000m/h.</desc>
<speed>0.150000</speed>
</trkpt>
<trkpt lat="44.630016" lon="33.836861">
<ele>376.246338</ele>
<time>2011-10-10T10:58:12Z</time>
<desc>lat.=44.630016, lon.=33.836861, Alt.=376.246338m. Speed=0.144000m/h.</desc>
<speed>0.040000</speed>
</trkpt>
<trkpt lat="44.630016" lon="33.836861">
<ele>376.230713</ele>
<time>2011-10-10T10:58:17Z</time>
<desc>lat.=44.630016, lon.=33.836861, Alt.=376.230713m. Speed=0.000000m/h.</desc>
<speed>0.000000</speed>
</trkpt>
<trkpt lat="44.630020" lon="33.836861">
<ele>375.644775</ele>
<time>2011-10-10T10:58:22Z</time>
<desc>lat.=44.630020, lon.=33.836861, Alt.=375.644775m. Speed=0.072000m/h.</desc>
<speed>0.020000</speed>
</trkpt>
<trkpt lat="44.630016" lon="33.836857">
<ele>373.230713</ele>
<time>2011-10-10T10:58:27Z</time>
<desc>lat.=44.630016, lon.=33.836857, Alt.=373.230713m. Speed=0.216000m/h.</desc>
<speed>0.060000</speed>
</trkpt>
<trkpt lat="44.630028" lon="33.836842">
<ele>372.863525</ele>
<time>2011-10-10T10:58:32Z</time>
<desc>lat.=44.630028, lon.=33.836842, Alt.=372.863525m. Speed=0.468000m/h.</desc>
<speed>0.130000</speed>
</trkpt>
<trkpt lat="44.630043" lon="33.836773">
<ele>371.980713</ele>
<time>2011-10-10T10:58:37Z</time>
<desc>lat.=44.630043, lon.=33.836773, Alt.=371.980713m. Speed=3.312000m/h.</desc>
<speed>0.920000</speed>
</trkpt>
<trkpt lat="44.630089" lon="33.836750">
<ele>371.441650</ele>
<time>2011-10-10T10:58:42Z</time>
<desc>lat.=44.630089, lon.=33.836750, Alt.=371.441650m. Speed=2.484000m/h.</desc>
<speed>0.690000</speed>
</trkpt>
<trkpt lat="44.630127" lon="33.836700">
<ele>370.191650</ele>
<time>2011-10-10T10:58:47Z</time>
<desc>lat.=44.630127, lon.=33.836700, Alt.=370.191650m. Speed=0.972000m/h.</desc>
<speed>0.270000</speed>
</trkpt>
<trkpt lat="44.630138" lon="33.836700">
<ele>369.980713</ele>
<time>2011-10-10T10:58:52Z</time>
<desc>lat.=44.630138, lon.=33.836700, Alt.=369.980713m. Speed=0.252000m/h.</desc>
<speed>0.070000</speed>
</trkpt>
<trkpt lat="44.630150" lon="33.836700">
<ele>369.894775</ele>
<time>2011-10-10T10:58:57Z</time>
<desc>lat.=44.630150, lon.=33.836700, Alt.=369.894775m. Speed=0.324000m/h.</desc>
<speed>0.090000</speed>
</trkpt>
<trkpt lat="44.630310" lon="33.836609">
<ele>366.418213</ele>
<time>2011-10-10T10:59:02Z</time>
<desc>lat.=44.630310, lon.=33.836609, Alt.=366.418213m. Speed=0.468000m/h.</desc>
<speed>0.130000</speed>
</trkpt>
<trkpt lat="44.630333" lon="33.836597">
<ele>365.582275</ele>
<time>2011-10-10T10:59:07Z</time>
<desc>lat.=44.630333, lon.=33.836597, Alt.=365.582275m. Speed=0.000000m/h.</desc>
<speed>0.000000</speed>
</trkpt>
<trkpt lat="44.630341" lon="33.836624">
<ele>365.480713</ele>
<time>2011-10-10T10:59:12Z</time>
<desc>lat.=44.630341, lon.=33.836624, Alt.=365.480713m. Speed=0.180000m/h.</desc>
<speed>0.050000</speed>
</trkpt>
<trkpt lat="44.630337" lon="33.836605">
<ele>365.293213</ele>
<time>2011-10-10T10:59:17Z</time>
<desc>lat.=44.630337, lon.=33.836605, Alt.=365.293213m. Speed=0.792000m/h.</desc>
<speed>0.220000</speed>
</trkpt>
<trkpt lat="44.630344" lon="33.836605">
<ele>365.058838</ele>
<time>2011-10-10T10:59:22Z</time>
<desc>lat.=44.630344, lon.=33.836605, Alt.=365.058838m. Speed=0.360000m/h.</desc>
<speed>0.100000</speed>
</trkpt>
<trkpt lat="44.630337" lon="33.836555">
<ele>364.793213</ele>
<time>2011-10-10T10:59:27Z</time>
<desc>lat.=44.630337, lon.=33.836555, Alt.=364.793213m. Speed=1.188000m/h.</desc>
<speed>0.330000</speed>
</trkpt>
<trkpt lat="44.630314" lon="33.836487">
<ele>364.222900</ele>
<time>2011-10-10T10:59:32Z</time>
<desc>lat.=44.630314, lon.=33.836487, Alt.=364.222900m. Speed=1.188000m/h.</desc>
<speed>0.330000</speed>
</trkpt>
<trkpt lat="44.630306" lon="33.836479">
<ele>363.785400</ele>
<time>2011-10-10T10:59:37Z</time>
<desc>lat.=44.630306, lon.=33.836479, Alt.=363.785400m. Speed=0.792000m/h.</desc>
<speed>0.220000</speed>
</trkpt>
<trkpt lat="44.630318" lon="33.836491">
<ele>364.144775</ele>
<time>2011-10-10T10:59:42Z</time>
<desc>lat.=44.630318, lon.=33.836491, Alt.=364.144775m. Speed=0.036000m/h.</desc>
<speed>0.010000</speed>
</trkpt>
<trkpt lat="44.630318" lon="33.836498">
<ele>363.902588</ele>
<time>2011-10-10T10:59:47Z</time>
<desc>lat.=44.630318, lon.=33.836498, Alt.=363.902588m. Speed=0.108000m/h.</desc>
<speed>0.030000</speed>
</trkpt>
<trkpt lat="44.630333" lon="33.836521">
<ele>363.386963</ele>
<time>2011-10-10T10:59:52Z</time>
<desc>lat.=44.630333, lon.=33.836521, Alt.=363.386963m. Speed=0.036000m/h.</desc>
<speed>0.010000</speed>
</trkpt>
<trkpt lat="44.630352" lon="33.836567">
<ele>362.082275</ele>
<time>2011-10-10T10:59:57Z</time>
<desc>lat.=44.630352, lon.=33.836567, Alt.=362.082275m. Speed=0.108000m/h.</desc>
<speed>0.030000</speed>
</trkpt>
<trkpt lat="44.630352" lon="33.836567">
<ele>361.293213</ele>
<time>2011-10-10T11:00:02Z</time>
<desc>lat.=44.630352, lon.=33.836567, Alt.=361.293213m. Speed=0.000000m/h.</desc>
<speed>0.000000</speed>
</trkpt>
<trkpt lat="44.630360" lon="33.836563">
<ele>360.965088</ele>
<time>2011-10-10T11:00:07Z</time>
<desc>lat.=44.630360, lon.=33.836563, Alt.=360.965088m. Speed=0.072000m/h.</desc>
<speed>0.020000</speed>
</trkpt>
<trkpt lat="44.630360" lon="33.836555">
<ele>360.676025</ele>
<time>2011-10-10T11:00:12Z</time>
<desc>lat.=44.630360, lon.=33.836555, Alt.=360.676025m. Speed=0.000000m/h.</desc>
<speed>0.000000</speed>
</trkpt>
<trkpt lat="44.630363" lon="33.836555">
<ele>360.636963</ele>
<time>2011-10-10T11:00:17Z</time>
<desc>lat.=44.630363, lon.=33.836555, Alt.=360.636963m. Speed=0.000000m/h.</desc>
<speed>0.000000</speed>
</trkpt>
<trkpt lat="44.630367" lon="33.836559">
<ele>360.801025</ele>
<time>2011-10-10T11:00:22Z</time>
<desc>lat.=44.630367, lon.=33.836559, Alt.=360.801025m. Speed=0.000000m/h.</desc>
<speed>0.000000</speed>
</trkpt>
<trkpt lat="44.630371" lon="33.836552">
<ele>361.347900</ele>
<time>2011-10-10T11:00:27Z</time>
<desc>lat.=44.630371, lon.=33.836552, Alt.=361.347900m. Speed=0.036000m/h.</desc>
<speed>0.010000</speed>
</trkpt>
<trkpt lat="44.630356" lon="33.836514">
<ele>361.519775</ele>
<time>2011-10-10T11:00:32Z</time>
<desc>lat.=44.630356, lon.=33.836514, Alt.=361.519775m. Speed=0.216000m/h.</desc>
<speed>0.060000</speed>
</trkpt>
<trkpt lat="44.630360" lon="33.836456">
<ele>361.363525</ele>
<time>2011-10-10T11:00:37Z</time>
<desc>lat.=44.630360, lon.=33.836456, Alt.=361.363525m. Speed=2.448000m/h.</desc>
<speed>0.680000</speed>
</trkpt>
<trkpt lat="44.630398" lon="33.836315">
<ele>361.097900</ele>
<time>2011-10-10T11:00:42Z</time>
<desc>lat.=44.630398, lon.=33.836315, Alt.=361.097900m. Speed=5.832000m/h.</desc>
<speed>1.620000</speed>
</trkpt>
<trkpt lat="44.630482" lon="33.836121">
<ele>361.191650</ele>
<time>2011-10-10T11:00:47Z</time>
<desc>lat.=44.630482, lon.=33.836121, Alt.=361.191650m. Speed=9.288000m/h.</desc>
<speed>2.580000</speed>
</trkpt>
<trkpt lat="44.630573" lon="33.835957">
<ele>360.949463</ele>
<time>2011-10-10T11:00:52Z</time>
<desc>lat.=44.630573, lon.=33.835957, Alt.=360.949463m. Speed=4.104000m/h.</desc>
<speed>1.140000</speed>
</trkpt>
<trkpt lat="44.630680" lon="33.835819">
<ele>360.230713</ele>
<time>2011-10-10T11:00:57Z</time>
<desc>lat.=44.630680, lon.=33.835819, Alt.=360.230713m. Speed=7.200000m/h.</desc>
<speed>2.000000</speed>
</trkpt>
<trkpt lat="44.630798" lon="33.835636">
<ele>360.496338</ele>
<time>2011-10-10T11:01:02Z</time>
<desc>lat.=44.630798, lon.=33.835636, Alt.=360.496338m. Speed=8.172000m/h.</desc>
<speed>2.270000</speed>
</trkpt>
<trkpt lat="44.630932" lon="33.835472">
<ele>360.152588</ele>
<time>2011-10-10T11:01:07Z</time>
<desc>lat.=44.630932, lon.=33.835472, Alt.=360.152588m. Speed=6.336000m/h.</desc>
<speed>1.760000</speed>
</trkpt>
<trkpt lat="44.631023" lon="33.835247">
<ele>357.090088</ele>
<time>2011-10-10T11:01:12Z</time>
<desc>lat.=44.631023, lon.=33.835247, Alt.=357.090088m. Speed=3.816000m/h.</desc>
<speed>1.060000</speed>
</trkpt>
<trkpt lat="44.631161" lon="33.835114">
<ele>356.105713</ele>
<time>2011-10-10T11:01:17Z</time>
<desc>lat.=44.631161, lon.=33.835114, Alt.=356.105713m. Speed=5.832000m/h.</desc>
<speed>1.620000</speed>
</trkpt>
<trkpt lat="44.631268" lon="33.835007">
<ele>356.449463</ele>
<time>2011-10-10T11:01:22Z</time>
<desc>lat.=44.631268, lon.=33.835007, Alt.=356.449463m. Speed=5.220000m/h.</desc>
<speed>1.450000</speed>
</trkpt>
<trkpt lat="44.631310" lon="33.834919">
<ele>356.496338</ele>
<time>2011-10-10T11:01:27Z</time>
<desc>lat.=44.631310, lon.=33.834919, Alt.=356.496338m. Speed=6.048000m/h.</desc>
<speed>1.680000</speed>
</trkpt>
<trkpt lat="44.631382" lon="33.834690">
<ele>357.551025</ele>
<time>2011-10-10T11:01:32Z</time>
<desc>lat.=44.631382, lon.=33.834690, Alt.=357.551025m. Speed=10.692000m/h.</desc>
<speed>2.970000</speed>
</trkpt>
<trkpt lat="44.631420" lon="33.834576">
<ele>360.027588</ele>
<time>2011-10-10T11:01:37Z</time>
<desc>lat.=44.631420, lon.=33.834576, Alt.=360.027588m. Speed=11.196000m/h.</desc>
<speed>3.110000</speed>
</trkpt>
<trkpt lat="44.631485" lon="33.834446">
<ele>360.386963</ele>
<time>2011-10-10T11:01:42Z</time>
<desc>lat.=44.631485, lon.=33.834446, Alt.=360.386963m. Speed=7.452000m/h.</desc>
<speed>2.070000</speed>
</trkpt>
<trkpt lat="44.631565" lon="33.834301">
<ele>360.410400</ele>
<time>2011-10-10T11:01:47Z</time>
<desc>lat.=44.631565, lon.=33.834301, Alt.=360.410400m. Speed=10.620000m/h.</desc>
<speed>2.950000</speed>
</trkpt>
<trkpt lat="44.631626" lon="33.834110">
<ele>360.613525</ele>
<time>2011-10-10T11:01:52Z</time>
<desc>lat.=44.631626, lon.=33.834110, Alt.=360.613525m. Speed=9.792000m/h.</desc>
<speed>2.720000</speed>
</trkpt>
<trkpt lat="44.631699" lon="33.833900">
<ele>360.785400</ele>
<time>2011-10-10T11:01:57Z</time>
<desc>lat.=44.631699, lon.=33.833900, Alt.=360.785400m. Speed=9.792000m/h.</desc>
<speed>2.720000</speed>
</trkpt>
<trkpt lat="44.631771" lon="33.833668">
<ele>361.511963</ele>
<time>2011-10-10T11:02:02Z</time>
<desc>lat.=44.631771, lon.=33.833668, Alt.=361.511963m. Speed=13.176000m/h.</desc>
<speed>3.660000</speed>
</trkpt>
<trkpt lat="44.631809" lon="33.833431">
<ele>358.918213</ele>
<time>2011-10-10T11:02:07Z</time>
<desc>lat.=44.631809, lon.=33.833431, Alt.=358.918213m. Speed=9.252000m/h.</desc>
<speed>2.570000</speed>
</trkpt>
<trkpt lat="44.631805" lon="33.833321">
<ele>357.926025</ele>
<time>2011-10-10T11:02:12Z</time>
<desc>lat.=44.631805, lon.=33.833321, Alt.=357.926025m. Speed=6.408000m/h.</desc>
<speed>1.780000</speed>
</trkpt>
<trkpt lat="44.631840" lon="33.833195">
<ele>358.457275</ele>
<time>2011-10-10T11:02:17Z</time>
<desc>lat.=44.631840, lon.=33.833195, Alt.=358.457275m. Speed=8.496000m/h.</desc>
<speed>2.360000</speed>
</trkpt>
<trkpt lat="44.631943" lon="33.833046">
<ele>358.933838</ele>
<time>2011-10-10T11:02:22Z</time>
<desc>lat.=44.631943, lon.=33.833046, Alt.=358.933838m. Speed=12.060000m/h.</desc>
<speed>3.350000</speed>
</trkpt>
<trkpt lat="44.631935" lon="33.832939">
<ele>357.996338</ele>
<time>2011-10-10T11:02:27Z</time>
<desc>lat.=44.631935, lon.=33.832939, Alt.=357.996338m. Speed=6.732000m/h.</desc>
<speed>1.870000</speed>
</trkpt>
<trkpt lat="44.631969" lon="33.832851">
<ele>358.418213</ele>
<time>2011-10-10T11:02:32Z</time>
<desc>lat.=44.631969, lon.=33.832851, Alt.=358.418213m. Speed=7.452000m/h.</desc>
<speed>2.070000</speed>
</trkpt>
<trkpt lat="44.632011" lon="33.832783">
<ele>358.840088</ele>
<time>2011-10-10T11:02:37Z</time>
<desc>lat.=44.632011, lon.=33.832783, Alt.=358.840088m. Speed=6.012000m/h.</desc>
<speed>1.670000</speed>
</trkpt>
<trkpt lat="44.632042" lon="33.832733">
<ele>360.207275</ele>
<time>2011-10-10T11:02:42Z</time>
<desc>lat.=44.632042, lon.=33.832733, Alt.=360.207275m. Speed=1.008000m/h.</desc>
<speed>0.280000</speed>
</trkpt>
<trkpt lat="44.632050" lon="33.832718">
<ele>358.199463</ele>
<time>2011-10-10T11:02:47Z</time>
<desc>lat.=44.632050, lon.=33.832718, Alt.=358.199463m. Speed=0.432000m/h.</desc>
<speed>0.120000</speed>
</trkpt>
<trkpt lat="44.632042" lon="33.832722">
<ele>358.152588</ele>
<time>2011-10-10T11:02:52Z</time>
<desc>lat.=44.632042, lon.=33.832722, Alt.=358.152588m. Speed=0.180000m/h.</desc>
<speed>0.050000</speed>
</trkpt>
<trkpt lat="44.632046" lon="33.832718">
<ele>358.129150</ele>
<time>2011-10-10T11:02:57Z</time>
<desc>lat.=44.632046, lon.=33.832718, Alt.=358.129150m. Speed=0.360000m/h.</desc>
<speed>0.100000</speed>
</trkpt>
<trkpt lat="44.632042" lon="33.832718">
<ele>358.043213</ele>
<time>2011-10-10T11:03:02Z</time>
<desc>lat.=44.632042, lon.=33.832718, Alt.=358.043213m. Speed=0.288000m/h.</desc>
<speed>0.080000</speed>
</trkpt>
<trkpt lat="44.632050" lon="33.832718">
<ele>357.957275</ele>
<time>2011-10-10T11:03:07Z</time>
<desc>lat.=44.632050, lon.=33.832718, Alt.=357.957275m. Speed=0.288000m/h.</desc>
<speed>0.080000</speed>
</trkpt>
<trkpt lat="44.632053" lon="33.832714">
<ele>357.957275</ele>
<time>2011-10-10T11:03:12Z</time>
<desc>lat.=44.632053, lon.=33.832714, Alt.=357.957275m. Speed=0.576000m/h.</desc>
<speed>0.160000</speed>
</trkpt>
<trkpt lat="44.632057" lon="33.832710">
<ele>357.965088</ele>
<time>2011-10-10T11:03:17Z</time>
<desc>lat.=44.632057, lon.=33.832710, Alt.=357.965088m. Speed=0.144000m/h.</desc>
<speed>0.040000</speed>
</trkpt>
<trkpt lat="44.632061" lon="33.832710">
<ele>357.777588</ele>
<time>2011-10-10T11:03:22Z</time>
<desc>lat.=44.632061, lon.=33.832710, Alt.=357.777588m. Speed=0.000000m/h.</desc>
<speed>0.000000</speed>
</trkpt>
<trkpt lat="44.632061" lon="33.832710">
<ele>357.527588</ele>
<time>2011-10-10T11:03:27Z</time>
<desc>lat.=44.632061, lon.=33.832710, Alt.=357.527588m. Speed=0.000000m/h.</desc>
<speed>0.000000</speed>
</trkpt>
<trkpt lat="44.632061" lon="33.832710">
<ele>357.433838</ele>
<time>2011-10-10T11:03:32Z</time>
<desc>lat.=44.632061, lon.=33.832710, Alt.=357.433838m. Speed=0.036000m/h.</desc>
<speed>0.010000</speed>
</trkpt>
<trkpt lat="44.632061" lon="33.832710">
<ele>357.402588</ele>
<time>2011-10-10T11:03:37Z</time>
<desc>lat.=44.632061, lon.=33.832710, Alt.=357.402588m. Speed=0.036000m/h.</desc>
<speed>0.010000</speed>
</trkpt>
<trkpt lat="44.632057" lon="33.832710">
<ele>357.386963</ele>
<time>2011-10-10T11:03:42Z</time>
<desc>lat.=44.632057, lon.=33.832710, Alt.=357.386963m. Speed=0.000000m/h.</desc>
<speed>0.000000</speed>
</trkpt>
<trkpt lat="44.632057" lon="33.832710">
<ele>357.394775</ele>
<time>2011-10-10T11:03:47Z</time>
<desc>lat.=44.632057, lon.=33.832710, Alt.=357.394775m. Speed=0.396000m/h.</desc>
<speed>0.110000</speed>
</trkpt>
<trkpt lat="44.632053" lon="33.832710">
<ele>357.402588</ele>
<time>2011-10-10T11:03:52Z</time>
<desc>lat.=44.632053, lon.=33.832710, Alt.=357.402588m. Speed=0.396000m/h.</desc>
<speed>0.110000</speed>
</trkpt>
<trkpt lat="44.632046" lon="33.832706">
<ele>357.418213</ele>
<time>2011-10-10T11:03:57Z</time>
<desc>lat.=44.632046, lon.=33.832706, Alt.=357.418213m. Speed=0.720000m/h.</desc>
<speed>0.200000</speed>
</trkpt>
<trkpt lat="44.632050" lon="33.832695">
<ele>357.426025</ele>
<time>2011-10-10T11:04:02Z</time>
<desc>lat.=44.632050, lon.=33.832695, Alt.=357.426025m. Speed=0.540000m/h.</desc>
<speed>0.150000</speed>
</trkpt>
<trkpt lat="44.632053" lon="33.832687">
<ele>357.449463</ele>
<time>2011-10-10T11:04:07Z</time>
<desc>lat.=44.632053, lon.=33.832687, Alt.=357.449463m. Speed=0.432000m/h.</desc>
<speed>0.120000</speed>
</trkpt>
<trkpt lat="44.632061" lon="33.832691">
<ele>357.519775</ele>
<time>2011-10-10T11:04:12Z</time>
<desc>lat.=44.632061, lon.=33.832691, Alt.=357.519775m. Speed=0.288000m/h.</desc>
<speed>0.080000</speed>
</trkpt>
<trkpt lat="44.632057" lon="33.832691">
<ele>357.535400</ele>
<time>2011-10-10T11:04:17Z</time>
<desc>lat.=44.632057, lon.=33.832691, Alt.=357.535400m. Speed=0.036000m/h.</desc>
<speed>0.010000</speed>
</trkpt>
<trkpt lat="44.632057" lon="33.832691">
<ele>357.410400</ele>
<time>2011-10-10T11:04:22Z</time>
<desc>lat.=44.632057, lon.=33.832691, Alt.=357.410400m. Speed=0.144000m/h.</desc>
<speed>0.040000</speed>
</trkpt>
<trkpt lat="44.632057" lon="33.832687">
<ele>357.426025</ele>
<time>2011-10-10T11:04:27Z</time>
<desc>lat.=44.632057, lon.=33.832687, Alt.=357.426025m. Speed=0.792000m/h.</desc>
<speed>0.220000</speed>
</trkpt>
<trkpt lat="44.632065" lon="33.832680">
<ele>357.597900</ele>
<time>2011-10-10T11:04:32Z</time>
<desc>lat.=44.632065, lon.=33.832680, Alt.=357.597900m. Speed=0.468000m/h.</desc>
<speed>0.130000</speed>
</trkpt>
<trkpt lat="44.632069" lon="33.832676">
<ele>357.754150</ele>
<time>2011-10-10T11:04:37Z</time>
<desc>lat.=44.632069, lon.=33.832676, Alt.=357.754150m. Speed=0.540000m/h.</desc>
<speed>0.150000</speed>
</trkpt>
<trkpt lat="44.632072" lon="33.832676">
<ele>358.011963</ele>
<time>2011-10-10T11:04:42Z</time>
<desc>lat.=44.632072, lon.=33.832676, Alt.=358.011963m. Speed=0.432000m/h.</desc>
<speed>0.120000</speed>
</trkpt>
<trkpt lat="44.632065" lon="33.832676">
<ele>358.941650</ele>
<time>2011-10-10T11:04:47Z</time>
<desc>lat.=44.632065, lon.=33.832676, Alt.=358.941650m. Speed=1.332000m/h.</desc>
<speed>0.370000</speed>
</trkpt>
<trkpt lat="44.632057" lon="33.832664">
<ele>359.449463</ele>
<time>2011-10-10T11:04:52Z</time>
<desc>lat.=44.632057, lon.=33.832664, Alt.=359.449463m. Speed=0.324000m/h.</desc>
<speed>0.090000</speed>
</trkpt>
<trkpt lat="44.632053" lon="33.832653">
<ele>359.926025</ele>
<time>2011-10-10T11:04:57Z</time>
<desc>lat.=44.632053, lon.=33.832653, Alt.=359.926025m. Speed=1.008000m/h.</desc>
<speed>0.280000</speed>
</trkpt>
<trkpt lat="44.632050" lon="33.832642">
<ele>360.394775</ele>
<time>2011-10-10T11:05:02Z</time>
<desc>lat.=44.632050, lon.=33.832642, Alt.=360.394775m. Speed=0.828000m/h.</desc>
<speed>0.230000</speed>
</trkpt>
<trkpt lat="44.632042" lon="33.832630">
<ele>360.863525</ele>
<time>2011-10-10T11:05:07Z</time>
<desc>lat.=44.632042, lon.=33.832630, Alt.=360.863525m. Speed=0.864000m/h.</desc>
<speed>0.240000</speed>
</trkpt>
<trkpt lat="44.632038" lon="33.832615">
<ele>361.332275</ele>
<time>2011-10-10T11:05:12Z</time>
<desc>lat.=44.632038, lon.=33.832615, Alt.=361.332275m. Speed=0.864000m/h.</desc>
<speed>0.240000</speed>
</trkpt>
<trkpt lat="44.632034" lon="33.832600">
<ele>361.801025</ele>
<time>2011-10-10T11:05:17Z</time>
<desc>lat.=44.632034, lon.=33.832600, Alt.=361.801025m. Speed=0.828000m/h.</desc>
<speed>0.230000</speed>
</trkpt>
<trkpt lat="44.632034" lon="33.832588">
<ele>362.199463</ele>
<time>2011-10-10T11:05:22Z</time>
<desc>lat.=44.632034, lon.=33.832588, Alt.=362.199463m. Speed=0.720000m/h.</desc>
<speed>0.200000</speed>
</trkpt>
<trkpt lat="44.632038" lon="33.832573">
<ele>362.269775</ele>
<time>2011-10-10T11:05:27Z</time>
<desc>lat.=44.632038, lon.=33.832573, Alt.=362.269775m. Speed=1.152000m/h.</desc>
<speed>0.320000</speed>
</trkpt>
<trkpt lat="44.632076" lon="33.832554">
<ele>362.254150</ele>
<time>2011-10-10T11:05:32Z</time>
<desc>lat.=44.632076, lon.=33.832554, Alt.=362.254150m. Speed=1.620000m/h.</desc>
<speed>0.450000</speed>
</trkpt>
<trkpt lat="44.632114" lon="33.832535">
<ele>362.176025</ele>
<time>2011-10-10T11:05:37Z</time>
<desc>lat.=44.632114, lon.=33.832535, Alt.=362.176025m. Speed=1.980000m/h.</desc>
<speed>0.550000</speed>
</trkpt>
<trkpt lat="44.632275" lon="33.832455">
<ele>362.074463</ele>
<time>2011-10-10T11:05:42Z</time>
<desc>lat.=44.632275, lon.=33.832455, Alt.=362.074463m. Speed=4.104000m/h.</desc>
<speed>1.140000</speed>
</trkpt>
<trkpt lat="44.632366" lon="33.832382">
<ele>361.941650</ele>
<time>2011-10-10T11:05:47Z</time>
<desc>lat.=44.632366, lon.=33.832382, Alt.=361.941650m. Speed=2.880000m/h.</desc>
<speed>0.800000</speed>
</trkpt>
<trkpt lat="44.632435" lon="33.832336">
<ele>361.707275</ele>
<time>2011-10-10T11:05:52Z</time>
<desc>lat.=44.632435, lon.=33.832336, Alt.=361.707275m. Speed=1.728000m/h.</desc>
<speed>0.480000</speed>
</trkpt>
<trkpt lat="44.632469" lon="33.832279">
<ele>361.449463</ele>
<time>2011-10-10T11:05:57Z</time>
<desc>lat.=44.632469, lon.=33.832279, Alt.=361.449463m. Speed=1.080000m/h.</desc>
<speed>0.300000</speed>
</trkpt>
<trkpt lat="44.632492" lon="33.832237">
<ele>361.269775</ele>
<time>2011-10-10T11:06:02Z</time>
<desc>lat.=44.632492, lon.=33.832237, Alt.=361.269775m. Speed=0.792000m/h.</desc>
<speed>0.220000</speed>
</trkpt>
<trkpt lat="44.632504" lon="33.832241">
<ele>361.261963</ele>
<time>2011-10-10T11:06:07Z</time>
<desc>lat.=44.632504, lon.=33.832241, Alt.=361.261963m. Speed=0.540000m/h.</desc>
<speed>0.150000</speed>
</trkpt>
<trkpt lat="44.632511" lon="33.832241">
<ele>361.246338</ele>
<time>2011-10-10T11:06:12Z</time>
<desc>lat.=44.632511, lon.=33.832241, Alt.=361.246338m. Speed=0.576000m/h.</desc>
<speed>0.160000</speed>
</trkpt>
<trkpt lat="44.632519" lon="33.832241">
<ele>361.230713</ele>
<time>2011-10-10T11:06:17Z</time>
<desc>lat.=44.632519, lon.=33.832241, Alt.=361.230713m. Speed=0.468000m/h.</desc>
<speed>0.130000</speed>
</trkpt>
<trkpt lat="44.632523" lon="33.832237">
<ele>361.215088</ele>
<time>2011-10-10T11:06:22Z</time>
<desc>lat.=44.632523, lon.=33.832237, Alt.=361.215088m. Speed=0.396000m/h.</desc>
<speed>0.110000</speed>
</trkpt>
<trkpt lat="44.632526" lon="33.832233">
<ele>361.199463</ele>
<time>2011-10-10T11:06:27Z</time>
<desc>lat.=44.632526, lon.=33.832233, Alt.=361.199463m. Speed=0.432000m/h.</desc>
<speed>0.120000</speed>
</trkpt>
<trkpt lat="44.632530" lon="33.832222">
<ele>361.183838</ele>
<time>2011-10-10T11:06:32Z</time>
<desc>lat.=44.632530, lon.=33.832222, Alt.=361.183838m. Speed=0.432000m/h.</desc>
<speed>0.120000</speed>
</trkpt>
<trkpt lat="44.632526" lon="33.832214">
<ele>361.160400</ele>
<time>2011-10-10T11:06:37Z</time>
<desc>lat.=44.632526, lon.=33.832214, Alt.=361.160400m. Speed=1.008000m/h.</desc>
<speed>0.280000</speed>
</trkpt>
<trkpt lat="44.632504" lon="33.832188">
<ele>361.066650</ele>
<time>2011-10-10T11:06:42Z</time>
<desc>lat.=44.632504, lon.=33.832188, Alt.=361.066650m. Speed=1.296000m/h.</desc>
<speed>0.360000</speed>
</trkpt>
<trkpt lat="44.632488" lon="33.832138">
<ele>360.894775</ele>
<time>2011-10-10T11:06:47Z</time>
<desc>lat.=44.632488, lon.=33.832138, Alt.=360.894775m. Speed=1.404000m/h.</desc>
<speed>0.390000</speed>
</trkpt>
<trkpt lat="44.632500" lon="33.832119">
<ele>360.754150</ele>
<time>2011-10-10T11:06:52Z</time>
<desc>lat.=44.632500, lon.=33.832119, Alt.=360.754150m. Speed=1.044000m/h.</desc>
<speed>0.290000</speed>
</trkpt>
<trkpt lat="44.632504" lon="33.832123">
<ele>360.668213</ele>
<time>2011-10-10T11:06:57Z</time>
<desc>lat.=44.632504, lon.=33.832123, Alt.=360.668213m. Speed=0.684000m/h.</desc>
<speed>0.190000</speed>
</trkpt>
<trkpt lat="44.632496" lon="33.832115">
<ele>360.644775</ele>
<time>2011-10-10T11:07:02Z</time>
<desc>lat.=44.632496, lon.=33.832115, Alt.=360.644775m. Speed=0.540000m/h.</desc>
<speed>0.150000</speed>
</trkpt>
<trkpt lat="44.632492" lon="33.832111">
<ele>360.613525</ele>
<time>2011-10-10T11:07:07Z</time>
<desc>lat.=44.632492, lon.=33.832111, Alt.=360.613525m. Speed=0.216000m/h.</desc>
<speed>0.060000</speed>
</trkpt>
<trkpt lat="44.632488" lon="33.832115">
<ele>360.582275</ele>
<time>2011-10-10T11:07:12Z</time>
<desc>lat.=44.632488, lon.=33.832115, Alt.=360.582275m. Speed=0.324000m/h.</desc>
<speed>0.090000</speed>
</trkpt>
<trkpt lat="44.632496" lon="33.832123">
<ele>360.543213</ele>
<time>2011-10-10T11:07:17Z</time>
<desc>lat.=44.632496, lon.=33.832123, Alt.=360.543213m. Speed=0.864000m/h.</desc>
<speed>0.240000</speed>
</trkpt>
<trkpt lat="44.632507" lon="33.832119">
<ele>360.504150</ele>
<time>2011-10-10T11:07:22Z</time>
<desc>lat.=44.632507, lon.=33.832119, Alt.=360.504150m. Speed=1.008000m/h.</desc>
<speed>0.280000</speed>
</trkpt>
<trkpt lat="44.632496" lon="33.832088">
<ele>360.355713</ele>
<time>2011-10-10T11:07:27Z</time>
<desc>lat.=44.632496, lon.=33.832088, Alt.=360.355713m. Speed=1.512000m/h.</desc>
<speed>0.420000</speed>
</trkpt>
<trkpt lat="44.632519" lon="33.832058">
<ele>360.129150</ele>
<time>2011-10-10T11:07:32Z</time>
<desc>lat.=44.632519, lon.=33.832058, Alt.=360.129150m. Speed=1.116000m/h.</desc>
<speed>0.310000</speed>
</trkpt>
<trkpt lat="44.632492" lon="33.832035">
<ele>359.926025</ele>
<time>2011-10-10T11:07:37Z</time>
<desc>lat.=44.632492, lon.=33.832035, Alt.=359.926025m. Speed=0.036000m/h.</desc>
<speed>0.010000</speed>
</trkpt>
<trkpt lat="44.632496" lon="33.832039">
<ele>359.871338</ele>
<time>2011-10-10T11:07:42Z</time>
<desc>lat.=44.632496, lon.=33.832039, Alt.=359.871338m. Speed=0.180000m/h.</desc>
<speed>0.050000</speed>
</trkpt>
<trkpt lat="44.632496" lon="33.832043">
<ele>359.808838</ele>
<time>2011-10-10T11:07:47Z</time>
<desc>lat.=44.632496, lon.=33.832043, Alt.=359.808838m. Speed=0.216000m/h.</desc>
<speed>0.060000</speed>
</trkpt>
<trkpt lat="44.632496" lon="33.832047">
<ele>359.761963</ele>
<time>2011-10-10T11:07:52Z</time>
<desc>lat.=44.632496, lon.=33.832047, Alt.=359.761963m. Speed=0.072000m/h.</desc>
<speed>0.020000</speed>
</trkpt>
<trkpt lat="44.632496" lon="33.832043">
<ele>359.761963</ele>
<time>2011-10-10T11:07:57Z</time>
<desc>lat.=44.632496, lon.=33.832043, Alt.=359.761963m. Speed=0.036000m/h.</desc>
<speed>0.010000</speed>
</trkpt>
<trkpt lat="44.632496" lon="33.832043">
<ele>359.754150</ele>
<time>2011-10-10T11:08:02Z</time>
<desc>lat.=44.632496, lon.=33.832043, Alt.=359.754150m. Speed=0.000000m/h.</desc>
<speed>0.000000</speed>
</trkpt>
<trkpt lat="44.632496" lon="33.832043">
<ele>359.754150</ele>
<time>2011-10-10T11:08:07Z</time>
<desc>lat.=44.632496, lon.=33.832043, Alt.=359.754150m. Speed=0.036000m/h.</desc>
<speed>0.010000</speed>
</trkpt>
<trkpt lat="44.632496" lon="33.832043">
<ele>359.746338</ele>
<time>2011-10-10T11:08:12Z</time>
<desc>lat.=44.632496, lon.=33.832043, Alt.=359.746338m. Speed=0.036000m/h.</desc>
<speed>0.010000</speed>
</trkpt>
<trkpt lat="44.632496" lon="33.832043">
<ele>359.746338</ele>
<time>2011-10-10T11:08:17Z</time>
<desc>lat.=44.632496, lon.=33.832043, Alt.=359.746338m. Speed=0.000000m/h.</desc>
<speed>0.000000</speed>
</trkpt>
<trkpt lat="44.632496" lon="33.832043">
<ele>359.738525</ele>
<time>2011-10-10T11:08:22Z</time>
<desc>lat.=44.632496, lon.=33.832043, Alt.=359.738525m. Speed=0.000000m/h.</desc>
<speed>0.000000</speed>
</trkpt>
<trkpt lat="44.632496" lon="33.832043">
<ele>359.738525</ele>
<time>2011-10-10T11:08:27Z</time>
<desc>lat.=44.632496, lon.=33.832043, Alt.=359.738525m. Speed=0.000000m/h.</desc>
<speed>0.000000</speed>
</trkpt>
<trkpt lat="44.632500" lon="33.832039">
<ele>359.730713</ele>
<time>2011-10-10T11:08:32Z</time>
<desc>lat.=44.632500, lon.=33.832039, Alt.=359.730713m. Speed=0.000000m/h.</desc>
<speed>0.000000</speed>
</trkpt>
<trkpt lat="44.632496" lon="33.832039">
<ele>359.730713</ele>
<time>2011-10-10T11:08:37Z</time>
<desc>lat.=44.632496, lon.=33.832039, Alt.=359.730713m. Speed=0.108000m/h.</desc>
<speed>0.030000</speed>
</trkpt>
<trkpt lat="44.632500" lon="33.832039">
<ele>359.722900</ele>
<time>2011-10-10T11:08:42Z</time>
<desc>lat.=44.632500, lon.=33.832039, Alt.=359.722900m. Speed=0.288000m/h.</desc>
<speed>0.080000</speed>
</trkpt>
<trkpt lat="44.632572" lon="33.832207">
<ele>359.574463</ele>
<time>2011-10-10T11:08:47Z</time>
<desc>lat.=44.632572, lon.=33.832207, Alt.=359.574463m. Speed=2.412000m/h.</desc>
<speed>0.670000</speed>
</trkpt>
<trkpt lat="44.632641" lon="33.832317">
<ele>359.363525</ele>
<time>2011-10-10T11:08:52Z</time>
<desc>lat.=44.632641, lon.=33.832317, Alt.=359.363525m. Speed=1.260000m/h.</desc>
<speed>0.350000</speed>
</trkpt>
<trkpt lat="44.632664" lon="33.832325">
<ele>359.207275</ele>
<time>2011-10-10T11:08:57Z</time>
<desc>lat.=44.632664, lon.=33.832325, Alt.=359.207275m. Speed=0.720000m/h.</desc>
<speed>0.200000</speed>
</trkpt>
<trkpt lat="44.632679" lon="33.832317">
<ele>359.121338</ele>
<time>2011-10-10T11:09:02Z</time>
<desc>lat.=44.632679, lon.=33.832317, Alt.=359.121338m. Speed=0.720000m/h.</desc>
<speed>0.200000</speed>
</trkpt>
<trkpt lat="44.632668" lon="33.832333">
<ele>358.910400</ele>
<time>2011-10-10T11:09:07Z</time>
<desc>lat.=44.632668, lon.=33.832333, Alt.=358.910400m. Speed=0.396000m/h.</desc>
<speed>0.110000</speed>
</trkpt>
<trkpt lat="44.632648" lon="33.832333">
<ele>358.793213</ele>
<time>2011-10-10T11:09:12Z</time>
<desc>lat.=44.632648, lon.=33.832333, Alt.=358.793213m. Speed=0.396000m/h.</desc>
<speed>0.110000</speed>
</trkpt>
<trkpt lat="44.632610" lon="33.832287">
<ele>358.691650</ele>
<time>2011-10-10T11:09:17Z</time>
<desc>lat.=44.632610, lon.=33.832287, Alt.=358.691650m. Speed=1.044000m/h.</desc>
<speed>0.290000</speed>
</trkpt>
<trkpt lat="44.632633" lon="33.832272">
<ele>358.590088</ele>
<time>2011-10-10T11:09:22Z</time>
<desc>lat.=44.632633, lon.=33.832272, Alt.=358.590088m. Speed=0.972000m/h.</desc>
<speed>0.270000</speed>
</trkpt>
<trkpt lat="44.632610" lon="33.832245">
<ele>358.496338</ele>
<time>2011-10-10T11:09:27Z</time>
<desc>lat.=44.632610, lon.=33.832245, Alt.=358.496338m. Speed=1.908000m/h.</desc>
<speed>0.530000</speed>
</trkpt>
<trkpt lat="44.632584" lon="33.832226">
<ele>358.441650</ele>
<time>2011-10-10T11:09:32Z</time>
<desc>lat.=44.632584, lon.=33.832226, Alt.=358.441650m. Speed=1.944000m/h.</desc>
<speed>0.540000</speed>
</trkpt>
<trkpt lat="44.632545" lon="33.832191">
<ele>358.332275</ele>
<time>2011-10-10T11:09:37Z</time>
<desc>lat.=44.632545, lon.=33.832191, Alt.=358.332275m. Speed=2.016000m/h.</desc>
<speed>0.560000</speed>
</trkpt>
<trkpt lat="44.632500" lon="33.832180">
<ele>358.246338</ele>
<time>2011-10-10T11:09:42Z</time>
<desc>lat.=44.632500, lon.=33.832180, Alt.=358.246338m. Speed=1.908000m/h.</desc>
<speed>0.530000</speed>
</trkpt>
<trkpt lat="44.632500" lon="33.832130">
<ele>358.082275</ele>
<time>2011-10-10T11:09:47Z</time>
<desc>lat.=44.632500, lon.=33.832130, Alt.=358.082275m. Speed=1.620000m/h.</desc>
<speed>0.450000</speed>
</trkpt>
<trkpt lat="44.632481" lon="33.832104">
<ele>357.933838</ele>
<time>2011-10-10T11:09:52Z</time>
<desc>lat.=44.632481, lon.=33.832104, Alt.=357.933838m. Speed=1.512000m/h.</desc>
<speed>0.420000</speed>
</trkpt>
<trkpt lat="44.632458" lon="33.832088">
<ele>357.824463</ele>
<time>2011-10-10T11:09:57Z</time>
<desc>lat.=44.632458, lon.=33.832088, Alt.=357.824463m. Speed=1.440000m/h.</desc>
<speed>0.400000</speed>
</trkpt>
<trkpt lat="44.632462" lon="33.832054">
<ele>357.699463</ele>
<time>2011-10-10T11:10:02Z</time>
<desc>lat.=44.632462, lon.=33.832054, Alt.=357.699463m. Speed=1.224000m/h.</desc>
<speed>0.340000</speed>
</trkpt>
<trkpt lat="44.632477" lon="33.832020">
<ele>357.566650</ele>
<time>2011-10-10T11:10:07Z</time>
<desc>lat.=44.632477, lon.=33.832020, Alt.=357.566650m. Speed=0.864000m/h.</desc>
<speed>0.240000</speed>
</trkpt>
<trkpt lat="44.632458" lon="33.831993">
<ele>357.504150</ele>
<time>2011-10-10T11:10:12Z</time>
<desc>lat.=44.632458, lon.=33.831993, Alt.=357.504150m. Speed=1.044000m/h.</desc>
<speed>0.290000</speed>
</trkpt>
<trkpt lat="44.632431" lon="33.831966">
<ele>357.371338</ele>
<time>2011-10-10T11:10:17Z</time>
<desc>lat.=44.632431, lon.=33.831966, Alt.=357.371338m. Speed=1.152000m/h.</desc>
<speed>0.320000</speed>
</trkpt>
<trkpt lat="44.632431" lon="33.831917">
<ele>357.129150</ele>
<time>2011-10-10T11:10:22Z</time>
<desc>lat.=44.632431, lon.=33.831917, Alt.=357.129150m. Speed=1.080000m/h.</desc>
<speed>0.300000</speed>
</trkpt>
<trkpt lat="44.632469" lon="33.831924">
<ele>356.879150</ele>
<time>2011-10-10T11:10:27Z</time>
<desc>lat.=44.632469, lon.=33.831924, Alt.=356.879150m. Speed=0.648000m/h.</desc>
<speed>0.180000</speed>
</trkpt>
<trkpt lat="44.632465" lon="33.831932">
<ele>356.699463</ele>
<time>2011-10-10T11:10:32Z</time>
<desc>lat.=44.632465, lon.=33.831932, Alt.=356.699463m. Speed=1.224000m/h.</desc>
<speed>0.340000</speed>
</trkpt>
<trkpt lat="44.632462" lon="33.831955">
<ele>356.363525</ele>
<time>2011-10-10T11:10:37Z</time>
<desc>lat.=44.632462, lon.=33.831955, Alt.=356.363525m. Speed=1.404000m/h.</desc>
<speed>0.390000</speed>
</trkpt>
<trkpt lat="44.632488" lon="33.832012">
<ele>356.144775</ele>
<time>2011-10-10T11:10:42Z</time>
<desc>lat.=44.632488, lon.=33.832012, Alt.=356.144775m. Speed=1.584000m/h.</desc>
<speed>0.440000</speed>
</trkpt>
<trkpt lat="44.632507" lon="33.832024">
<ele>355.863525</ele>
<time>2011-10-10T11:10:47Z</time>
<desc>lat.=44.632507, lon.=33.832024, Alt.=355.863525m. Speed=1.404000m/h.</desc>
<speed>0.390000</speed>
</trkpt>
<trkpt lat="44.632549" lon="33.831989">
<ele>355.511963</ele>
<time>2011-10-10T11:10:52Z</time>
<desc>lat.=44.632549, lon.=33.831989, Alt.=355.511963m. Speed=0.972000m/h.</desc>
<speed>0.270000</speed>
</trkpt>
<trkpt lat="44.632557" lon="33.831993">
<ele>355.418213</ele>
<time>2011-10-10T11:10:57Z</time>
<desc>lat.=44.632557, lon.=33.831993, Alt.=355.418213m. Speed=0.792000m/h.</desc>
<speed>0.220000</speed>
</trkpt>
<trkpt lat="44.632584" lon="33.832001">
<ele>355.308838</ele>
<time>2011-10-10T11:11:02Z</time>
<desc>lat.=44.632584, lon.=33.832001, Alt.=355.308838m. Speed=1.224000m/h.</desc>
<speed>0.340000</speed>
</trkpt>
<trkpt lat="44.632626" lon="33.831978">
<ele>354.910400</ele>
<time>2011-10-10T11:11:07Z</time>
<desc>lat.=44.632626, lon.=33.831978, Alt.=354.910400m. Speed=1.224000m/h.</desc>
<speed>0.340000</speed>
</trkpt>
<trkpt lat="44.632679" lon="33.831963">
<ele>354.621338</ele>
<time>2011-10-10T11:11:12Z</time>
<desc>lat.=44.632679, lon.=33.831963, Alt.=354.621338m. Speed=1.548000m/h.</desc>
<speed>0.430000</speed>
</trkpt>
<trkpt lat="44.632706" lon="33.831886">
<ele>354.230713</ele>
<time>2011-10-10T11:11:17Z</time>
<desc>lat.=44.632706, lon.=33.831886, Alt.=354.230713m. Speed=1.764000m/h.</desc>
<speed>0.490000</speed>
</trkpt>
<trkpt lat="44.632721" lon="33.831821">
<ele>353.777588</ele>
<time>2011-10-10T11:11:22Z</time>
<desc>lat.=44.632721, lon.=33.831821, Alt.=353.777588m. Speed=1.800000m/h.</desc>
<speed>0.500000</speed>
</trkpt>
<trkpt lat="44.632751" lon="33.831894">
<ele>352.941650</ele>
<time>2011-10-10T11:11:27Z</time>
<desc>lat.=44.632751, lon.=33.831894, Alt.=352.941650m. Speed=1.260000m/h.</desc>
<speed>0.350000</speed>
</trkpt>
<trkpt lat="44.632793" lon="33.831932">
<ele>352.402588</ele>
<time>2011-10-10T11:11:32Z</time>
<desc>lat.=44.632793, lon.=33.831932, Alt.=352.402588m. Speed=1.332000m/h.</desc>
<speed>0.370000</speed>
</trkpt>
<trkpt lat="44.632931" lon="33.832054">
<ele>351.715088</ele>
<time>2011-10-10T11:11:37Z</time>
<desc>lat.=44.632931, lon.=33.832054, Alt.=351.715088m. Speed=1.296000m/h.</desc>
<speed>0.360000</speed>
</trkpt>
<trkpt lat="44.632942" lon="33.832058">
<ele>351.441650</ele>
<time>2011-10-10T11:11:42Z</time>
<desc>lat.=44.632942, lon.=33.832058, Alt.=351.441650m. Speed=0.756000m/h.</desc>
<speed>0.210000</speed>
</trkpt>
<trkpt lat="44.632946" lon="33.832077">
<ele>351.308838</ele>
<time>2011-10-10T11:11:47Z</time>
<desc>lat.=44.632946, lon.=33.832077, Alt.=351.308838m. Speed=0.612000m/h.</desc>
<speed>0.170000</speed>
</trkpt>
<trkpt lat="44.632950" lon="33.832085">
<ele>351.254150</ele>
<time>2011-10-10T11:11:52Z</time>
<desc>lat.=44.632950, lon.=33.832085, Alt.=351.254150m. Speed=0.576000m/h.</desc>
<speed>0.160000</speed>
</trkpt>
<trkpt lat="44.632950" lon="33.832096">
<ele>351.207275</ele>
<time>2011-10-10T11:11:57Z</time>
<desc>lat.=44.632950, lon.=33.832096, Alt.=351.207275m. Speed=0.144000m/h.</desc>
<speed>0.040000</speed>
</trkpt>
<trkpt lat="44.632946" lon="33.832096">
<ele>351.152588</ele>
<time>2011-10-10T11:12:02Z</time>
<desc>lat.=44.632946, lon.=33.832096, Alt.=351.152588m. Speed=0.396000m/h.</desc>
<speed>0.110000</speed>
</trkpt>
<trkpt lat="44.633003" lon="33.831863">
<ele>349.926025</ele>
<time>2011-10-10T11:12:07Z</time>
<desc>lat.=44.633003, lon.=33.831863, Alt.=349.926025m. Speed=1.368000m/h.</desc>
<speed>0.380000</speed>
</trkpt>
<trkpt lat="44.633018" lon="33.831738">
<ele>349.418213</ele>
<time>2011-10-10T11:12:12Z</time>
<desc>lat.=44.633018, lon.=33.831738, Alt.=349.418213m. Speed=1.224000m/h.</desc>
<speed>0.340000</speed>
</trkpt>
<trkpt lat="44.633026" lon="33.831715">
<ele>348.722900</ele>
<time>2011-10-10T11:12:17Z</time>
<desc>lat.=44.633026, lon.=33.831715, Alt.=348.722900m. Speed=1.080000m/h.</desc>
<speed>0.300000</speed>
</trkpt>
<trkpt lat="44.633026" lon="33.831753">
<ele>347.996338</ele>
<time>2011-10-10T11:12:22Z</time>
<desc>lat.=44.633026, lon.=33.831753, Alt.=347.996338m. Speed=0.432000m/h.</desc>
<speed>0.120000</speed>
</trkpt>
<trkpt lat="44.633030" lon="33.831745">
<ele>347.918213</ele>
<time>2011-10-10T11:12:27Z</time>
<desc>lat.=44.633030, lon.=33.831745, Alt.=347.918213m. Speed=0.216000m/h.</desc>
<speed>0.060000</speed>
</trkpt>
<trkpt lat="44.633030" lon="33.831745">
<ele>347.832275</ele>
<time>2011-10-10T11:12:32Z</time>
<desc>lat.=44.633030, lon.=33.831745, Alt.=347.832275m. Speed=0.540000m/h.</desc>
<speed>0.150000</speed>
</trkpt>
<trkpt lat="44.633030" lon="33.831738">
<ele>347.746338</ele>
<time>2011-10-10T11:12:37Z</time>
<desc>lat.=44.633030, lon.=33.831738, Alt.=347.746338m. Speed=0.360000m/h.</desc>
<speed>0.100000</speed>
</trkpt>
<trkpt lat="44.633026" lon="33.831757">
<ele>347.418213</ele>
<time>2011-10-10T11:12:42Z</time>
<desc>lat.=44.633026, lon.=33.831757, Alt.=347.418213m. Speed=0.216000m/h.</desc>
<speed>0.060000</speed>
</trkpt>
<trkpt lat="44.633038" lon="33.831814">
<ele>346.754150</ele>
<time>2011-10-10T11:12:47Z</time>
<desc>lat.=44.633038, lon.=33.831814, Alt.=346.754150m. Speed=0.648000m/h.</desc>
<speed>0.180000</speed>
</trkpt>
<trkpt lat="44.633003" lon="33.831863">
<ele>345.863525</ele>
<time>2011-10-10T11:12:52Z</time>
<desc>lat.=44.633003, lon.=33.831863, Alt.=345.863525m. Speed=0.972000m/h.</desc>
<speed>0.270000</speed>
</trkpt>
<trkpt lat="44.632942" lon="33.831928">
<ele>344.863525</ele>
<time>2011-10-10T11:12:57Z</time>
<desc>lat.=44.632942, lon.=33.831928, Alt.=344.863525m. Speed=1.512000m/h.</desc>
<speed>0.420000</speed>
</trkpt>
<trkpt lat="44.632835" lon="33.832050">
<ele>343.410400</ele>
<time>2011-10-10T11:13:02Z</time>
<desc>lat.=44.632835, lon.=33.832050, Alt.=343.410400m. Speed=2.556000m/h.</desc>
<speed>0.710000</speed>
</trkpt>
<trkpt lat="44.632748" lon="33.832069">
<ele>342.168213</ele>
<time>2011-10-10T11:13:07Z</time>
<desc>lat.=44.632748, lon.=33.832069, Alt.=342.168213m. Speed=3.636000m/h.</desc>
<speed>1.010000</speed>
</trkpt>
<trkpt lat="44.632683" lon="33.832050">
<ele>341.308838</ele>
<time>2011-10-10T11:13:12Z</time>
<desc>lat.=44.632683, lon.=33.832050, Alt.=341.308838m. Speed=3.528000m/h.</desc>
<speed>0.980000</speed>
</trkpt>
<trkpt lat="44.632675" lon="33.832027">
<ele>340.316650</ele>
<time>2011-10-10T11:13:17Z</time>
<desc>lat.=44.632675, lon.=33.832027, Alt.=340.316650m. Speed=0.936000m/h.</desc>
<speed>0.260000</speed>
</trkpt>
<trkpt lat="44.632687" lon="33.831985">
<ele>339.238525</ele>
<time>2011-10-10T11:13:22Z</time>
<desc>lat.=44.632687, lon.=33.831985, Alt.=339.238525m. Speed=1.332000m/h.</desc>
<speed>0.370000</speed>
</trkpt>
<trkpt lat="44.632671" lon="33.831959">
<ele>337.926025</ele>
<time>2011-10-10T11:13:27Z</time>
<desc>lat.=44.632671, lon.=33.831959, Alt.=337.926025m. Speed=1.152000m/h.</desc>
<speed>0.320000</speed>
</trkpt>
<trkpt lat="44.632648" lon="33.831944">
<ele>336.324463</ele>
<time>2011-10-10T11:13:32Z</time>
<desc>lat.=44.632648, lon.=33.831944, Alt.=336.324463m. Speed=1.116000m/h.</desc>
<speed>0.310000</speed>
</trkpt>
<trkpt lat="44.632629" lon="33.831905">
<ele>335.504150</ele>
<time>2011-10-10T11:13:37Z</time>
<desc>lat.=44.632629, lon.=33.831905, Alt.=335.504150m. Speed=1.476000m/h.</desc>
<speed>0.410000</speed>
</trkpt>
<trkpt lat="44.632629" lon="33.831821">
<ele>334.894775</ele>
<time>2011-10-10T11:13:42Z</time>
<desc>lat.=44.632629, lon.=33.831821, Alt.=334.894775m. Speed=2.268000m/h.</desc>
<speed>0.630000</speed>
</trkpt>
<trkpt lat="44.632626" lon="33.831722">
<ele>334.293213</ele>
<time>2011-10-10T11:13:47Z</time>
<desc>lat.=44.632626, lon.=33.831722, Alt.=334.293213m. Speed=1.872000m/h.</desc>
<speed>0.520000</speed>
</trkpt>
<trkpt lat="44.632584" lon="33.831665">
<ele>333.933838</ele>
<time>2011-10-10T11:13:52Z</time>
<desc>lat.=44.632584, lon.=33.831665, Alt.=333.933838m. Speed=3.060000m/h.</desc>
<speed>0.850000</speed>
</trkpt>
<trkpt lat="44.632549" lon="33.831566">
<ele>334.043213</ele>
<time>2011-10-10T11:13:57Z</time>
<desc>lat.=44.632549, lon.=33.831566, Alt.=334.043213m. Speed=3.996000m/h.</desc>
<speed>1.110000</speed>
</trkpt>
<trkpt lat="44.632504" lon="33.831467">
<ele>334.160400</ele>
<time>2011-10-10T11:14:02Z</time>
<desc>lat.=44.632504, lon.=33.831467, Alt.=334.160400m. Speed=2.484000m/h.</desc>
<speed>0.690000</speed>
</trkpt>
<trkpt lat="44.632496" lon="33.831337">
<ele>334.449463</ele>
<time>2011-10-10T11:14:07Z</time>
<desc>lat.=44.632496, lon.=33.831337, Alt.=334.449463m. Speed=4.896000m/h.</desc>
<speed>1.360000</speed>
</trkpt>
<trkpt lat="44.632423" lon="33.831257">
<ele>334.480713</ele>
<time>2011-10-10T11:14:12Z</time>
<desc>lat.=44.632423, lon.=33.831257, Alt.=334.480713m. Speed=4.464000m/h.</desc>
<speed>1.240000</speed>
</trkpt>
<trkpt lat="44.632362" lon="33.831139">
<ele>333.207275</ele>
<time>2011-10-10T11:14:17Z</time>
<desc>lat.=44.632362, lon.=33.831139, Alt.=333.207275m. Speed=3.564000m/h.</desc>
<speed>0.990000</speed>
</trkpt>
<trkpt lat="44.632351" lon="33.830990">
<ele>331.863525</ele>
<time>2011-10-10T11:14:22Z</time>
<desc>lat.=44.632351, lon.=33.830990, Alt.=331.863525m. Speed=3.816000m/h.</desc>
<speed>1.060000</speed>
</trkpt>
<trkpt lat="44.632324" lon="33.830868">
<ele>330.230713</ele>
<time>2011-10-10T11:14:27Z</time>
<desc>lat.=44.632324, lon.=33.830868, Alt.=330.230713m. Speed=3.060000m/h.</desc>
<speed>0.850000</speed>
</trkpt>
<trkpt lat="44.632221" lon="33.830826">
<ele>329.941650</ele>
<time>2011-10-10T11:14:32Z</time>
<desc>lat.=44.632221, lon.=33.830826, Alt.=329.941650m. Speed=2.304000m/h.</desc>
<speed>0.640000</speed>
</trkpt>
<trkpt lat="44.632092" lon="33.830833">
<ele>330.011963</ele>
<time>2011-10-10T11:14:37Z</time>
<desc>lat.=44.632092, lon.=33.830833, Alt.=330.011963m. Speed=0.648000m/h.</desc>
<speed>0.180000</speed>
</trkpt>
<trkpt lat="44.632038" lon="33.830845">
<ele>330.379150</ele>
<time>2011-10-10T11:14:42Z</time>
<desc>lat.=44.632038, lon.=33.830845, Alt.=330.379150m. Speed=0.648000m/h.</desc>
<speed>0.180000</speed>
</trkpt>
<trkpt lat="44.631973" lon="33.830845">
<ele>330.660400</ele>
<time>2011-10-10T11:14:47Z</time>
<desc>lat.=44.631973, lon.=33.830845, Alt.=330.660400m. Speed=1.692000m/h.</desc>
<speed>0.470000</speed>
</trkpt>
<trkpt lat="44.631973" lon="33.830769">
<ele>330.347900</ele>
<time>2011-10-10T11:14:52Z</time>
<desc>lat.=44.631973, lon.=33.830769, Alt.=330.347900m. Speed=1.044000m/h.</desc>
<speed>0.290000</speed>
</trkpt>
<trkpt lat="44.631973" lon="33.830612">
<ele>329.636963</ele>
<time>2011-10-10T11:14:57Z</time>
<desc>lat.=44.631973, lon.=33.830612, Alt.=329.636963m. Speed=1.764000m/h.</desc>
<speed>0.490000</speed>
</trkpt>
<trkpt lat="44.631824" lon="33.830528">
<ele>329.691650</ele>
<time>2011-10-10T11:15:02Z</time>
<desc>lat.=44.631824, lon.=33.830528, Alt.=329.691650m. Speed=3.132000m/h.</desc>
<speed>0.870000</speed>
</trkpt>
<trkpt lat="44.631706" lon="33.830524">
<ele>329.551025</ele>
<time>2011-10-10T11:15:07Z</time>
<desc>lat.=44.631706, lon.=33.830524, Alt.=329.551025m. Speed=2.412000m/h.</desc>
<speed>0.670000</speed>
</trkpt>
<trkpt lat="44.631680" lon="33.830463">
<ele>329.558838</ele>
<time>2011-10-10T11:15:12Z</time>
<desc>lat.=44.631680, lon.=33.830463, Alt.=329.558838m. Speed=1.836000m/h.</desc>
<speed>0.510000</speed>
</trkpt>
<trkpt lat="44.631657" lon="33.830387">
<ele>329.558838</ele>
<time>2011-10-10T11:15:17Z</time>
<desc>lat.=44.631657, lon.=33.830387, Alt.=329.558838m. Speed=1.260000m/h.</desc>
<speed>0.350000</speed>
</trkpt>
<trkpt lat="44.631653" lon="33.830357">
<ele>329.496338</ele>
<time>2011-10-10T11:15:22Z</time>
<desc>lat.=44.631653, lon.=33.830357, Alt.=329.496338m. Speed=0.936000m/h.</desc>
<speed>0.260000</speed>
</trkpt>
<trkpt lat="44.631653" lon="33.830330">
<ele>328.863525</ele>
<time>2011-10-10T11:15:27Z</time>
<desc>lat.=44.631653, lon.=33.830330, Alt.=328.863525m. Speed=0.216000m/h.</desc>
<speed>0.060000</speed>
</trkpt>
<trkpt lat="44.631649" lon="33.830261">
<ele>327.082275</ele>
<time>2011-10-10T11:15:32Z</time>
<desc>lat.=44.631649, lon.=33.830261, Alt.=327.082275m. Speed=1.692000m/h.</desc>
<speed>0.470000</speed>
</trkpt>
<trkpt lat="44.631664" lon="33.830204">
<ele>325.636963</ele>
<time>2011-10-10T11:15:37Z</time>
<desc>lat.=44.631664, lon.=33.830204, Alt.=325.636963m. Speed=1.368000m/h.</desc>
<speed>0.380000</speed>
</trkpt>
<trkpt lat="44.631615" lon="33.830151">
<ele>322.418213</ele>
<time>2011-10-10T11:15:42Z</time>
<desc>lat.=44.631615, lon.=33.830151, Alt.=322.418213m. Speed=0.864000m/h.</desc>
<speed>0.240000</speed>
</trkpt>
<trkpt lat="44.631580" lon="33.830151">
<ele>321.629150</ele>
<time>2011-10-10T11:15:47Z</time>
<desc>lat.=44.631580, lon.=33.830151, Alt.=321.629150m. Speed=1.188000m/h.</desc>
<speed>0.330000</speed>
</trkpt>
<trkpt lat="44.631527" lon="33.830181">
<ele>320.715088</ele>
<time>2011-10-10T11:15:52Z</time>
<desc>lat.=44.631527, lon.=33.830181, Alt.=320.715088m. Speed=1.800000m/h.</desc>
<speed>0.500000</speed>
</trkpt>
<trkpt lat="44.631401" lon="33.830299">
<ele>317.996338</ele>
<time>2011-10-10T11:15:57Z</time>
<desc>lat.=44.631401, lon.=33.830299, Alt.=317.996338m. Speed=1.152000m/h.</desc>
<speed>0.320000</speed>
</trkpt>
<trkpt lat="44.631439" lon="33.830322">
<ele>315.933838</ele>
<time>2011-10-10T11:16:02Z</time>
<desc>lat.=44.631439, lon.=33.830322, Alt.=315.933838m. Speed=0.576000m/h.</desc>
<speed>0.160000</speed>
</trkpt>
<trkpt lat="44.631424" lon="33.830334">
<ele>315.847900</ele>
<time>2011-10-10T11:16:07Z</time>
<desc>lat.=44.631424, lon.=33.830334, Alt.=315.847900m. Speed=1.188000m/h.</desc>
<speed>0.330000</speed>
</trkpt>
<trkpt lat="44.631397" lon="33.830357">
<ele>315.621338</ele>
<time>2011-10-10T11:16:12Z</time>
<desc>lat.=44.631397, lon.=33.830357, Alt.=315.621338m. Speed=1.260000m/h.</desc>
<speed>0.350000</speed>
</trkpt>
<trkpt lat="44.631363" lon="33.830322">
<ele>315.152588</ele>
<time>2011-10-10T11:16:17Z</time>
<desc>lat.=44.631363, lon.=33.830322, Alt.=315.152588m. Speed=1.260000m/h.</desc>
<speed>0.350000</speed>
</trkpt>
<trkpt lat="44.631332" lon="33.830276">
<ele>314.480713</ele>
<time>2011-10-10T11:16:22Z</time>
<desc>lat.=44.631332, lon.=33.830276, Alt.=314.480713m. Speed=1.368000m/h.</desc>
<speed>0.380000</speed>
</trkpt>
<trkpt lat="44.631313" lon="33.830296">
<ele>314.316650</ele>
<time>2011-10-10T11:16:27Z</time>
<desc>lat.=44.631313, lon.=33.830296, Alt.=314.316650m. Speed=1.332000m/h.</desc>
<speed>0.370000</speed>
</trkpt>
<trkpt lat="44.631290" lon="33.830315">
<ele>314.066650</ele>
<time>2011-10-10T11:16:32Z</time>
<desc>lat.=44.631290, lon.=33.830315, Alt.=314.066650m. Speed=1.440000m/h.</desc>
<speed>0.400000</speed>
</trkpt>
<trkpt lat="44.631264" lon="33.830322">
<ele>313.918213</ele>
<time>2011-10-10T11:16:37Z</time>
<desc>lat.=44.631264, lon.=33.830322, Alt.=313.918213m. Speed=1.404000m/h.</desc>
<speed>0.390000</speed>
</trkpt>
<trkpt lat="44.631191" lon="33.830292">
<ele>312.996338</ele>
<time>2011-10-10T11:16:42Z</time>
<desc>lat.=44.631191, lon.=33.830292, Alt.=312.996338m. Speed=1.692000m/h.</desc>
<speed>0.470000</speed>
</trkpt>
<trkpt lat="44.631176" lon="33.830296">
<ele>312.722900</ele>
<time>2011-10-10T11:16:47Z</time>
<desc>lat.=44.631176, lon.=33.830296, Alt.=312.722900m. Speed=1.800000m/h.</desc>
<speed>0.500000</speed>
</trkpt>
<trkpt lat="44.631180" lon="33.830349">
<ele>312.636963</ele>
<time>2011-10-10T11:16:52Z</time>
<desc>lat.=44.631180, lon.=33.830349, Alt.=312.636963m. Speed=1.872000m/h.</desc>
<speed>0.520000</speed>
</trkpt>
<trkpt lat="44.631168" lon="33.830379">
<ele>312.738525</ele>
<time>2011-10-10T11:16:57Z</time>
<desc>lat.=44.631168, lon.=33.830379, Alt.=312.738525m. Speed=1.872000m/h.</desc>
<speed>0.520000</speed>
</trkpt>
<trkpt lat="44.631145" lon="33.830418">
<ele>312.871338</ele>
<time>2011-10-10T11:17:02Z</time>
<desc>lat.=44.631145, lon.=33.830418, Alt.=312.871338m. Speed=2.088000m/h.</desc>
<speed>0.580000</speed>
</trkpt>
<trkpt lat="44.631134" lon="33.830437">
<ele>312.957275</ele>
<time>2011-10-10T11:17:07Z</time>
<desc>lat.=44.631134, lon.=33.830437, Alt.=312.957275m. Speed=1.872000m/h.</desc>
<speed>0.520000</speed>
</trkpt>
<trkpt lat="44.631138" lon="33.830502">
<ele>312.965088</ele>
<time>2011-10-10T11:17:12Z</time>
<desc>lat.=44.631138, lon.=33.830502, Alt.=312.965088m. Speed=1.836000m/h.</desc>
<speed>0.510000</speed>
</trkpt>
<trkpt lat="44.631100" lon="33.830544">
<ele>313.090088</ele>
<time>2011-10-10T11:17:17Z</time>
<desc>lat.=44.631100, lon.=33.830544, Alt.=313.090088m. Speed=2.988000m/h.</desc>
<speed>0.830000</speed>
</trkpt>
<trkpt lat="44.631058" lon="33.830544">
<ele>313.332275</ele>
<time>2011-10-10T11:17:22Z</time>
<desc>lat.=44.631058, lon.=33.830544, Alt.=313.332275m. Speed=0.648000m/h.</desc>
<speed>0.180000</speed>
</trkpt>
<trkpt lat="44.631058" lon="33.830544">
<ele>313.347900</ele>
<time>2011-10-10T11:17:27Z</time>
<desc>lat.=44.631058, lon.=33.830544, Alt.=313.347900m. Speed=0.036000m/h.</desc>
<speed>0.010000</speed>
</trkpt>
<trkpt lat="44.631058" lon="33.830544">
<ele>313.371338</ele>
<time>2011-10-10T11:17:32Z</time>
<desc>lat.=44.631058, lon.=33.830544, Alt.=313.371338m. Speed=0.072000m/h.</desc>
<speed>0.020000</speed>
</trkpt>
<trkpt lat="44.631058" lon="33.830540">
<ele>313.394775</ele>
<time>2011-10-10T11:17:37Z</time>
<desc>lat.=44.631058, lon.=33.830540, Alt.=313.394775m. Speed=0.036000m/h.</desc>
<speed>0.010000</speed>
</trkpt>
<trkpt lat="44.631058" lon="33.830540">
<ele>313.402588</ele>
<time>2011-10-10T11:17:42Z</time>
<desc>lat.=44.631058, lon.=33.830540, Alt.=313.402588m. Speed=0.072000m/h.</desc>
<speed>0.020000</speed>
</trkpt>
<trkpt lat="44.631058" lon="33.830540">
<ele>313.402588</ele>
<time>2011-10-10T11:17:47Z</time>
<desc>lat.=44.631058, lon.=33.830540, Alt.=313.402588m. Speed=0.000000m/h.</desc>
<speed>0.000000</speed>
</trkpt>
<trkpt lat="44.631058" lon="33.830540">
<ele>313.410400</ele>
<time>2011-10-10T11:17:52Z</time>
<desc>lat.=44.631058, lon.=33.830540, Alt.=313.410400m. Speed=0.036000m/h.</desc>
<speed>0.010000</speed>
</trkpt>
<trkpt lat="44.631058" lon="33.830540">
<ele>313.410400</ele>
<time>2011-10-10T11:17:57Z</time>
<desc>lat.=44.631058, lon.=33.830540, Alt.=313.410400m. Speed=0.036000m/h.</desc>
<speed>0.010000</speed>
</trkpt>
<trkpt lat="44.631054" lon="33.830540">
<ele>313.426025</ele>
<time>2011-10-10T11:18:02Z</time>
<desc>lat.=44.631054, lon.=33.830540, Alt.=313.426025m. Speed=0.180000m/h.</desc>
<speed>0.050000</speed>
</trkpt>
<trkpt lat="44.631050" lon="33.830536">
<ele>313.433838</ele>
<time>2011-10-10T11:18:07Z</time>
<desc>lat.=44.631050, lon.=33.830536, Alt.=313.433838m. Speed=0.216000m/h.</desc>
<speed>0.060000</speed>
</trkpt>
<trkpt lat="44.631050" lon="33.830532">
<ele>313.441650</ele>
<time>2011-10-10T11:18:12Z</time>
<desc>lat.=44.631050, lon.=33.830532, Alt.=313.441650m. Speed=0.180000m/h.</desc>
<speed>0.050000</speed>
</trkpt>
<trkpt lat="44.631050" lon="33.830532">
<ele>313.441650</ele>
<time>2011-10-10T11:18:17Z</time>
<desc>lat.=44.631050, lon.=33.830532, Alt.=313.441650m. Speed=0.144000m/h.</desc>
<speed>0.040000</speed>
</trkpt>
<trkpt lat="44.631046" lon="33.830528">
<ele>313.449463</ele>
<time>2011-10-10T11:18:22Z</time>
<desc>lat.=44.631046, lon.=33.830528, Alt.=313.449463m. Speed=0.144000m/h.</desc>
<speed>0.040000</speed>
</trkpt>
<trkpt lat="44.631046" lon="33.830528">
<ele>313.457275</ele>
<time>2011-10-10T11:18:27Z</time>
<desc>lat.=44.631046, lon.=33.830528, Alt.=313.457275m. Speed=0.180000m/h.</desc>
<speed>0.050000</speed>
</trkpt>
<trkpt lat="44.631042" lon="33.830524">
<ele>313.457275</ele>
<time>2011-10-10T11:18:32Z</time>
<desc>lat.=44.631042, lon.=33.830524, Alt.=313.457275m. Speed=0.288000m/h.</desc>
<speed>0.080000</speed>
</trkpt>
<trkpt lat="44.631042" lon="33.830521">
<ele>313.465088</ele>
<time>2011-10-10T11:18:37Z</time>
<desc>lat.=44.631042, lon.=33.830521, Alt.=313.465088m. Speed=0.252000m/h.</desc>
<speed>0.070000</speed>
</trkpt>
<trkpt lat="44.631039" lon="33.830517">
<ele>313.465088</ele>
<time>2011-10-10T11:18:42Z</time>
<desc>lat.=44.631039, lon.=33.830517, Alt.=313.465088m. Speed=0.360000m/h.</desc>
<speed>0.100000</speed>
</trkpt>
<trkpt lat="44.631035" lon="33.830513">
<ele>313.465088</ele>
<time>2011-10-10T11:18:47Z</time>
<desc>lat.=44.631035, lon.=33.830513, Alt.=313.465088m. Speed=0.396000m/h.</desc>
<speed>0.110000</speed>
</trkpt>
<trkpt lat="44.631031" lon="33.830505">
<ele>313.465088</ele>
<time>2011-10-10T11:18:52Z</time>
<desc>lat.=44.631031, lon.=33.830505, Alt.=313.465088m. Speed=0.432000m/h.</desc>
<speed>0.120000</speed>
</trkpt>
<trkpt lat="44.631023" lon="33.830502">
<ele>313.465088</ele>
<time>2011-10-10T11:18:57Z</time>
<desc>lat.=44.631023, lon.=33.830502, Alt.=313.465088m. Speed=0.540000m/h.</desc>
<speed>0.150000</speed>
</trkpt>
<trkpt lat="44.631020" lon="33.830494">
<ele>313.457275</ele>
<time>2011-10-10T11:19:02Z</time>
<desc>lat.=44.631020, lon.=33.830494, Alt.=313.457275m. Speed=0.612000m/h.</desc>
<speed>0.170000</speed>
</trkpt>
<trkpt lat="44.631012" lon="33.830486">
<ele>313.457275</ele>
<time>2011-10-10T11:19:07Z</time>
<desc>lat.=44.631012, lon.=33.830486, Alt.=313.457275m. Speed=0.576000m/h.</desc>
<speed>0.160000</speed>
</trkpt>
<trkpt lat="44.631004" lon="33.830482">
<ele>313.457275</ele>
<time>2011-10-10T11:19:12Z</time>
<desc>lat.=44.631004, lon.=33.830482, Alt.=313.457275m. Speed=0.684000m/h.</desc>
<speed>0.190000</speed>
</trkpt>
<trkpt lat="44.631001" lon="33.830532">
<ele>312.879150</ele>
<time>2011-10-10T11:19:17Z</time>
<desc>lat.=44.631001, lon.=33.830532, Alt.=312.879150m. Speed=1.296000m/h.</desc>
<speed>0.360000</speed>
</trkpt>
<trkpt lat="44.631012" lon="33.830601">
<ele>311.965088</ele>
<time>2011-10-10T11:19:22Z</time>
<desc>lat.=44.631012, lon.=33.830601, Alt.=311.965088m. Speed=0.756000m/h.</desc>
<speed>0.210000</speed>
</trkpt>
<trkpt lat="44.631004" lon="33.830616">
<ele>311.894775</ele>
<time>2011-10-10T11:19:27Z</time>
<desc>lat.=44.631004, lon.=33.830616, Alt.=311.894775m. Speed=0.648000m/h.</desc>
<speed>0.180000</speed>
</trkpt>
<trkpt lat="44.630997" lon="33.830620">
<ele>311.863525</ele>
<time>2011-10-10T11:19:32Z</time>
<desc>lat.=44.630997, lon.=33.830620, Alt.=311.863525m. Speed=0.468000m/h.</desc>
<speed>0.130000</speed>
</trkpt>
<trkpt lat="44.630993" lon="33.830620">
<ele>311.808838</ele>
<time>2011-10-10T11:19:37Z</time>
<desc>lat.=44.630993, lon.=33.830620, Alt.=311.808838m. Speed=0.468000m/h.</desc>
<speed>0.130000</speed>
</trkpt>
<trkpt lat="44.631001" lon="33.830620">
<ele>311.769775</ele>
<time>2011-10-10T11:19:42Z</time>
<desc>lat.=44.631001, lon.=33.830620, Alt.=311.769775m. Speed=0.504000m/h.</desc>
<speed>0.140000</speed>
</trkpt>
<trkpt lat="44.631004" lon="33.830620">
<ele>311.730713</ele>
<time>2011-10-10T11:19:47Z</time>
<desc>lat.=44.631004, lon.=33.830620, Alt.=311.730713m. Speed=0.324000m/h.</desc>
<speed>0.090000</speed>
</trkpt>
<trkpt lat="44.631012" lon="33.830631">
<ele>311.668213</ele>
<time>2011-10-10T11:19:52Z</time>
<desc>lat.=44.631012, lon.=33.830631, Alt.=311.668213m. Speed=0.936000m/h.</desc>
<speed>0.260000</speed>
</trkpt>
<trkpt lat="44.631016" lon="33.830639">
<ele>311.597900</ele>
<time>2011-10-10T11:19:57Z</time>
<desc>lat.=44.631016, lon.=33.830639, Alt.=311.597900m. Speed=0.108000m/h.</desc>
<speed>0.030000</speed>
</trkpt>
<trkpt lat="44.631016" lon="33.830643">
<ele>311.535400</ele>
<time>2011-10-10T11:20:02Z</time>
<desc>lat.=44.631016, lon.=33.830643, Alt.=311.535400m. Speed=0.288000m/h.</desc>
<speed>0.080000</speed>
</trkpt>
<trkpt lat="44.631020" lon="33.830647">
<ele>311.465088</ele>
<time>2011-10-10T11:20:07Z</time>
<desc>lat.=44.631020, lon.=33.830647, Alt.=311.465088m. Speed=0.252000m/h.</desc>
<speed>0.070000</speed>
</trkpt>
<trkpt lat="44.631023" lon="33.830647">
<ele>311.410400</ele>
<time>2011-10-10T11:20:12Z</time>
<desc>lat.=44.631023, lon.=33.830647, Alt.=311.410400m. Speed=0.108000m/h.</desc>
<speed>0.030000</speed>
</trkpt>
<trkpt lat="44.631023" lon="33.830650">
<ele>311.347900</ele>
<time>2011-10-10T11:20:17Z</time>
<desc>lat.=44.631023, lon.=33.830650, Alt.=311.347900m. Speed=0.180000m/h.</desc>
<speed>0.050000</speed>
</trkpt>
<trkpt lat="44.631023" lon="33.830654">
<ele>311.285400</ele>
<time>2011-10-10T11:20:22Z</time>
<desc>lat.=44.631023, lon.=33.830654, Alt.=311.285400m. Speed=0.576000m/h.</desc>
<speed>0.160000</speed>
</trkpt>
<trkpt lat="44.631016" lon="33.830662">
<ele>311.238525</ele>
<time>2011-10-10T11:20:27Z</time>
<desc>lat.=44.631016, lon.=33.830662, Alt.=311.238525m. Speed=1.044000m/h.</desc>
<speed>0.290000</speed>
</trkpt>
<trkpt lat="44.630989" lon="33.830666">
<ele>311.144775</ele>
<time>2011-10-10T11:20:32Z</time>
<desc>lat.=44.630989, lon.=33.830666, Alt.=311.144775m. Speed=1.728000m/h.</desc>
<speed>0.480000</speed>
</trkpt>
<trkpt lat="44.630970" lon="33.830677">
<ele>311.261963</ele>
<time>2011-10-10T11:20:37Z</time>
<desc>lat.=44.630970, lon.=33.830677, Alt.=311.261963m. Speed=1.908000m/h.</desc>
<speed>0.530000</speed>
</trkpt>
<trkpt lat="44.630955" lon="33.830673">
<ele>311.293213</ele>
<time>2011-10-10T11:20:42Z</time>
<desc>lat.=44.630955, lon.=33.830673, Alt.=311.293213m. Speed=1.152000m/h.</desc>
<speed>0.320000</speed>
</trkpt>
<trkpt lat="44.630993" lon="33.830723">
<ele>310.676025</ele>
<time>2011-10-10T11:20:47Z</time>
<desc>lat.=44.630993, lon.=33.830723, Alt.=310.676025m. Speed=2.196000m/h.</desc>
<speed>0.610000</speed>
</trkpt>
<trkpt lat="44.631027" lon="33.830711">
<ele>310.168213</ele>
<time>2011-10-10T11:20:52Z</time>
<desc>lat.=44.631027, lon.=33.830711, Alt.=310.168213m. Speed=2.412000m/h.</desc>
<speed>0.670000</speed>
</trkpt>
<trkpt lat="44.631020" lon="33.830688">
<ele>309.691650</ele>
<time>2011-10-10T11:20:57Z</time>
<desc>lat.=44.631020, lon.=33.830688, Alt.=309.691650m. Speed=1.224000m/h.</desc>
<speed>0.340000</speed>
</trkpt>
<trkpt lat="44.631001" lon="33.830677">
<ele>309.410400</ele>
<time>2011-10-10T11:21:02Z</time>
<desc>lat.=44.631001, lon.=33.830677, Alt.=309.410400m. Speed=0.828000m/h.</desc>
<speed>0.230000</speed>
</trkpt>
<trkpt lat="44.630951" lon="33.830669">
<ele>309.168213</ele>
<time>2011-10-10T11:21:07Z</time>
<desc>lat.=44.630951, lon.=33.830669, Alt.=309.168213m. Speed=1.800000m/h.</desc>
<speed>0.500000</speed>
</trkpt>
<trkpt lat="44.630947" lon="33.830627">
<ele>308.933838</ele>
<time>2011-10-10T11:21:12Z</time>
<desc>lat.=44.630947, lon.=33.830627, Alt.=308.933838m. Speed=1.260000m/h.</desc>
<speed>0.350000</speed>
</trkpt>
<trkpt lat="44.630966" lon="33.830635">
<ele>308.722900</ele>
<time>2011-10-10T11:21:17Z</time>
<desc>lat.=44.630966, lon.=33.830635, Alt.=308.722900m. Speed=0.684000m/h.</desc>
<speed>0.190000</speed>
</trkpt>
<trkpt lat="44.630962" lon="33.830421">
<ele>308.347900</ele>
<time>2011-10-10T11:21:22Z</time>
<desc>lat.=44.630962, lon.=33.830421, Alt.=308.347900m. Speed=2.268000m/h.</desc>
<speed>0.630000</speed>
</trkpt>
<trkpt lat="44.630623" lon="33.830338">
<ele>307.972900</ele>
<time>2011-10-10T11:21:27Z</time>
<desc>lat.=44.630623, lon.=33.830338, Alt.=307.972900m. Speed=3.816000m/h.</desc>
<speed>1.060000</speed>
</trkpt>
<trkpt lat="44.630634" lon="33.830391">
<ele>307.777588</ele>
<time>2011-10-10T11:21:32Z</time>
<desc>lat.=44.630634, lon.=33.830391, Alt.=307.777588m. Speed=1.260000m/h.</desc>
<speed>0.350000</speed>
</trkpt>
<trkpt lat="44.630543" lon="33.830250">
<ele>307.238525</ele>
<time>2011-10-10T11:21:37Z</time>
<desc>lat.=44.630543, lon.=33.830250, Alt.=307.238525m. Speed=3.132000m/h.</desc>
<speed>0.870000</speed>
</trkpt>
<trkpt lat="44.630585" lon="33.830307">
<ele>307.035400</ele>
<time>2011-10-10T11:21:42Z</time>
<desc>lat.=44.630585, lon.=33.830307, Alt.=307.035400m. Speed=1.476000m/h.</desc>
<speed>0.410000</speed>
</trkpt>
<trkpt lat="44.630653" lon="33.830334">
<ele>306.808838</ele>
<time>2011-10-10T11:21:47Z</time>
<desc>lat.=44.630653, lon.=33.830334, Alt.=306.808838m. Speed=1.944000m/h.</desc>
<speed>0.540000</speed>
</trkpt>
<trkpt lat="44.630650" lon="33.830341">
<ele>306.597900</ele>
<time>2011-10-10T11:21:52Z</time>
<desc>lat.=44.630650, lon.=33.830341, Alt.=306.597900m. Speed=1.620000m/h.</desc>
<speed>0.450000</speed>
</trkpt>
<trkpt lat="44.630669" lon="33.830322">
<ele>306.441650</ele>
<time>2011-10-10T11:21:57Z</time>
<desc>lat.=44.630669, lon.=33.830322, Alt.=306.441650m. Speed=1.512000m/h.</desc>
<speed>0.420000</speed>
</trkpt>
<trkpt lat="44.630604" lon="33.830154">
<ele>304.129150</ele>
<time>2011-10-10T11:22:02Z</time>
<desc>lat.=44.630604, lon.=33.830154, Alt.=304.129150m. Speed=1.620000m/h.</desc>
<speed>0.450000</speed>
</trkpt>
<trkpt lat="44.630581" lon="33.829983">
<ele>299.816650</ele>
<time>2011-10-10T11:22:07Z</time>
<desc>lat.=44.630581, lon.=33.829983, Alt.=299.816650m. Speed=2.160000m/h.</desc>
<speed>0.600000</speed>
</trkpt>
<trkpt lat="44.630661" lon="33.830009">
<ele>299.605713</ele>
<time>2011-10-10T11:22:12Z</time>
<desc>lat.=44.630661, lon.=33.830009, Alt.=299.605713m. Speed=2.556000m/h.</desc>
<speed>0.710000</speed>
</trkpt>
<trkpt lat="44.630676" lon="33.829945">
<ele>299.613525</ele>
<time>2011-10-10T11:22:17Z</time>
<desc>lat.=44.630676, lon.=33.829945, Alt.=299.613525m. Speed=3.240000m/h.</desc>
<speed>0.900000</speed>
</trkpt>
<trkpt lat="44.630665" lon="33.830013">
<ele>299.683838</ele>
<time>2011-10-10T11:22:22Z</time>
<desc>lat.=44.630665, lon.=33.830013, Alt.=299.683838m. Speed=1.836000m/h.</desc>
<speed>0.510000</speed>
</trkpt>
<trkpt lat="44.630634" lon="33.830105">
<ele>299.730713</ele>
<time>2011-10-10T11:22:27Z</time>
<desc>lat.=44.630634, lon.=33.830105, Alt.=299.730713m. Speed=0.756000m/h.</desc>
<speed>0.210000</speed>
</trkpt>
<trkpt lat="44.630463" lon="33.830128">
<ele>299.551025</ele>
<time>2011-10-10T11:22:32Z</time>
<desc>lat.=44.630463, lon.=33.830128, Alt.=299.551025m. Speed=2.268000m/h.</desc>
<speed>0.630000</speed>
</trkpt>
<trkpt lat="44.630089" lon="33.830101">
<ele>298.894775</ele>
<time>2011-10-10T11:22:37Z</time>
<desc>lat.=44.630089, lon.=33.830101, Alt.=298.894775m. Speed=4.968000m/h.</desc>
<speed>1.380000</speed>
</trkpt>
<trkpt lat="44.629860" lon="33.830070">
<ele>298.457275</ele>
<time>2011-10-10T11:22:42Z</time>
<desc>lat.=44.629860, lon.=33.830070, Alt.=298.457275m. Speed=5.040000m/h.</desc>
<speed>1.400000</speed>
</trkpt>
<trkpt lat="44.629665" lon="33.830070">
<ele>298.121338</ele>
<time>2011-10-10T11:22:47Z</time>
<desc>lat.=44.629665, lon.=33.830070, Alt.=298.121338m. Speed=3.924000m/h.</desc>
<speed>1.090000</speed>
</trkpt>
<trkpt lat="44.629585" lon="33.830051">
<ele>297.847900</ele>
<time>2011-10-10T11:22:52Z</time>
<desc>lat.=44.629585, lon.=33.830051, Alt.=297.847900m. Speed=0.864000m/h.</desc>
<speed>0.240000</speed>
</trkpt>
<trkpt lat="44.629566" lon="33.830040">
<ele>297.707275</ele>
<time>2011-10-10T11:22:57Z</time>
<desc>lat.=44.629566, lon.=33.830040, Alt.=297.707275m. Speed=0.468000m/h.</desc>
<speed>0.130000</speed>
</trkpt>
<trkpt lat="44.629559" lon="33.830036">
<ele>297.722900</ele>
<time>2011-10-10T11:23:02Z</time>
<desc>lat.=44.629559, lon.=33.830036, Alt.=297.722900m. Speed=1.440000m/h.</desc>
<speed>0.400000</speed>
</trkpt>
<trkpt lat="44.629494" lon="33.829948">
<ele>297.433838</ele>
<time>2011-10-10T11:23:07Z</time>
<desc>lat.=44.629494, lon.=33.829948, Alt.=297.433838m. Speed=1.476000m/h.</desc>
<speed>0.410000</speed>
</trkpt>
<trkpt lat="44.629471" lon="33.829933">
<ele>296.918213</ele>
<time>2011-10-10T11:23:12Z</time>
<desc>lat.=44.629471, lon.=33.829933, Alt.=296.918213m. Speed=1.332000m/h.</desc>
<speed>0.370000</speed>
</trkpt>
<trkpt lat="44.629444" lon="33.829880">
<ele>296.496338</ele>
<time>2011-10-10T11:23:17Z</time>
<desc>lat.=44.629444, lon.=33.829880, Alt.=296.496338m. Speed=1.152000m/h.</desc>
<speed>0.320000</speed>
</trkpt>
<trkpt lat="44.629414" lon="33.829845">
<ele>296.027588</ele>
<time>2011-10-10T11:23:22Z</time>
<desc>lat.=44.629414, lon.=33.829845, Alt.=296.027588m. Speed=1.692000m/h.</desc>
<speed>0.470000</speed>
</trkpt>
<trkpt lat="44.629417" lon="33.829845">
<ele>295.777588</ele>
<time>2011-10-10T11:23:27Z</time>
<desc>lat.=44.629417, lon.=33.829845, Alt.=295.777588m. Speed=1.620000m/h.</desc>
<speed>0.450000</speed>
</trkpt>
<trkpt lat="44.629395" lon="33.829842">
<ele>295.426025</ele>
<time>2011-10-10T11:23:32Z</time>
<desc>lat.=44.629395, lon.=33.829842, Alt.=295.426025m. Speed=4.284000m/h.</desc>
<speed>1.190000</speed>
</trkpt>
<trkpt lat="44.629448" lon="33.829765">
<ele>294.910400</ele>
<time>2011-10-10T11:23:37Z</time>
<desc>lat.=44.629448, lon.=33.829765, Alt.=294.910400m. Speed=1.188000m/h.</desc>
<speed>0.330000</speed>
</trkpt>
<trkpt lat="44.629517" lon="33.829689">
<ele>294.199463</ele>
<time>2011-10-10T11:23:42Z</time>
<desc>lat.=44.629517, lon.=33.829689, Alt.=294.199463m. Speed=1.656000m/h.</desc>
<speed>0.460000</speed>
</trkpt>
<trkpt lat="44.629524" lon="33.829670">
<ele>294.011963</ele>
<time>2011-10-10T11:23:47Z</time>
<desc>lat.=44.629524, lon.=33.829670, Alt.=294.011963m. Speed=0.216000m/h.</desc>
<speed>0.060000</speed>
</trkpt>
<trkpt lat="44.629448" lon="33.829666">
<ele>293.980713</ele>
<time>2011-10-10T11:23:52Z</time>
<desc>lat.=44.629448, lon.=33.829666, Alt.=293.980713m. Speed=2.268000m/h.</desc>
<speed>0.630000</speed>
</trkpt>
<trkpt lat="44.629368" lon="33.829609">
<ele>293.941650</ele>
<time>2011-10-10T11:23:57Z</time>
<desc>lat.=44.629368, lon.=33.829609, Alt.=293.941650m. Speed=8.820000m/h.</desc>
<speed>2.450000</speed>
</trkpt>
<trkpt lat="44.629242" lon="33.829441">
<ele>293.824463</ele>
<time>2011-10-10T11:24:02Z</time>
<desc>lat.=44.629242, lon.=33.829441, Alt.=293.824463m. Speed=12.492000m/h.</desc>
<speed>3.470000</speed>
</trkpt>
<trkpt lat="44.629097" lon="33.829327">
<ele>293.582275</ele>
<time>2011-10-10T11:24:07Z</time>
<desc>lat.=44.629097, lon.=33.829327, Alt.=293.582275m. Speed=12.816000m/h.</desc>
<speed>3.560000</speed>
</trkpt>
<trkpt lat="44.628929" lon="33.829243">
<ele>293.168213</ele>
<time>2011-10-10T11:24:12Z</time>
<desc>lat.=44.628929, lon.=33.829243, Alt.=293.168213m. Speed=10.368000m/h.</desc>
<speed>2.880000</speed>
</trkpt>
<trkpt lat="44.628777" lon="33.829170">
<ele>292.871338</ele>
<time>2011-10-10T11:24:17Z</time>
<desc>lat.=44.628777, lon.=33.829170, Alt.=292.871338m. Speed=13.248000m/h.</desc>
<speed>3.680000</speed>
</trkpt>
<trkpt lat="44.628654" lon="33.829075">
<ele>292.746338</ele>
<time>2011-10-10T11:24:22Z</time>
<desc>lat.=44.628654, lon.=33.829075, Alt.=292.746338m. Speed=12.492000m/h.</desc>
<speed>3.470000</speed>
</trkpt>
<trkpt lat="44.629734" lon="33.829483">
<ele>291.629150</ele>
<time>2011-10-10T11:25:37Z</time>
<desc>lat.=44.629734, lon.=33.829483, Alt.=291.629150m. Speed=1.620000m/h.</desc>
<speed>0.450000</speed>
</trkpt>
<trkpt lat="44.629799" lon="33.829525">
<ele>291.957275</ele>
<time>2011-10-10T11:25:42Z</time>
<desc>lat.=44.629799, lon.=33.829525, Alt.=291.957275m. Speed=5.292000m/h.</desc>
<speed>1.470000</speed>
</trkpt>
<trkpt lat="44.629818" lon="33.829784">
<ele>294.199463</ele>
<time>2011-10-10T11:25:47Z</time>
<desc>lat.=44.629818, lon.=33.829784, Alt.=294.199463m. Speed=5.976000m/h.</desc>
<speed>1.660000</speed>
</trkpt>
<trkpt lat="44.631016" lon="33.830563">
<ele>294.152588</ele>
<time>2011-10-10T11:25:52Z</time>
<desc>lat.=44.631016, lon.=33.830563, Alt.=294.152588m. Speed=2.304000m/h.</desc>
<speed>0.640000</speed>
</trkpt>
<trkpt lat="44.631050" lon="33.830879">
<ele>292.090088</ele>
<time>2011-10-10T11:25:57Z</time>
<desc>lat.=44.631050, lon.=33.830879, Alt.=292.090088m. Speed=3.348000m/h.</desc>
<speed>0.930000</speed>
</trkpt>
<trkpt lat="44.631023" lon="33.830944">
<ele>286.324463</ele>
<time>2011-10-10T11:26:02Z</time>
<desc>lat.=44.631023, lon.=33.830944, Alt.=286.324463m. Speed=2.556000m/h.</desc>
<speed>0.710000</speed>
</trkpt>
<trkpt lat="44.631031" lon="33.830944">
<ele>283.301025</ele>
<time>2011-10-10T11:26:07Z</time>
<desc>lat.=44.631031, lon.=33.830944, Alt.=283.301025m. Speed=3.348000m/h.</desc>
<speed>0.930000</speed>
</trkpt>
<trkpt lat="44.631054" lon="33.830914">
<ele>282.386963</ele>
<time>2011-10-10T11:26:12Z</time>
<desc>lat.=44.631054, lon.=33.830914, Alt.=282.386963m. Speed=1.728000m/h.</desc>
<speed>0.480000</speed>
</trkpt>
<trkpt lat="44.631119" lon="33.830864">
<ele>277.785400</ele>
<time>2011-10-10T11:26:17Z</time>
<desc>lat.=44.631119, lon.=33.830864, Alt.=277.785400m. Speed=0.972000m/h.</desc>
<speed>0.270000</speed>
</trkpt>
<trkpt lat="44.631130" lon="33.830856">
<ele>277.144775</ele>
<time>2011-10-10T11:26:22Z</time>
<desc>lat.=44.631130, lon.=33.830856, Alt.=277.144775m. Speed=0.180000m/h.</desc>
<speed>0.050000</speed>
</trkpt>
<trkpt lat="44.631134" lon="33.830860">
<ele>277.004150</ele>
<time>2011-10-10T11:26:27Z</time>
<desc>lat.=44.631134, lon.=33.830860, Alt.=277.004150m. Speed=0.612000m/h.</desc>
<speed>0.170000</speed>
</trkpt>
<trkpt lat="44.631123" lon="33.830868">
<ele>277.004150</ele>
<time>2011-10-10T11:26:32Z</time>
<desc>lat.=44.631123, lon.=33.830868, Alt.=277.004150m. Speed=1.224000m/h.</desc>
<speed>0.340000</speed>
</trkpt>
<trkpt lat="44.631111" lon="33.830921">
<ele>277.285400</ele>
<time>2011-10-10T11:26:37Z</time>
<desc>lat.=44.631111, lon.=33.830921, Alt.=277.285400m. Speed=3.852000m/h.</desc>
<speed>1.070000</speed>
</trkpt>
<trkpt lat="44.631123" lon="33.830902">
<ele>277.933838</ele>
<time>2011-10-10T11:26:42Z</time>
<desc>lat.=44.631123, lon.=33.830902, Alt.=277.933838m. Speed=3.168000m/h.</desc>
<speed>0.880000</speed>
</trkpt>
<trkpt lat="44.631081" lon="33.830814">
<ele>277.683838</ele>
<time>2011-10-10T11:26:47Z</time>
<desc>lat.=44.631081, lon.=33.830814, Alt.=277.683838m. Speed=2.844000m/h.</desc>
<speed>0.790000</speed>
</trkpt>
<trkpt lat="44.631062" lon="33.830776">
<ele>277.574463</ele>
<time>2011-10-10T11:26:52Z</time>
<desc>lat.=44.631062, lon.=33.830776, Alt.=277.574463m. Speed=2.304000m/h.</desc>
<speed>0.640000</speed>
</trkpt>
<trkpt lat="44.631004" lon="33.830708">
<ele>277.691650</ele>
<time>2011-10-10T11:26:57Z</time>
<desc>lat.=44.631004, lon.=33.830708, Alt.=277.691650m. Speed=3.168000m/h.</desc>
<speed>0.880000</speed>
</trkpt>
<trkpt lat="44.630993" lon="33.830654">
<ele>277.933838</ele>
<time>2011-10-10T11:27:02Z</time>
<desc>lat.=44.630993, lon.=33.830654, Alt.=277.933838m. Speed=2.232000m/h.</desc>
<speed>0.620000</speed>
</trkpt>
<trkpt lat="44.630970" lon="33.830620">
<ele>278.316650</ele>
<time>2011-10-10T11:27:07Z</time>
<desc>lat.=44.630970, lon.=33.830620, Alt.=278.316650m. Speed=1.800000m/h.</desc>
<speed>0.500000</speed>
</trkpt>
<trkpt lat="44.631008" lon="33.830643">
<ele>278.972900</ele>
<time>2011-10-10T11:27:12Z</time>
<desc>lat.=44.631008, lon.=33.830643, Alt.=278.972900m. Speed=0.324000m/h.</desc>
<speed>0.090000</speed>
</trkpt>
<trkpt lat="44.631027" lon="33.830631">
<ele>279.207275</ele>
<time>2011-10-10T11:27:17Z</time>
<desc>lat.=44.631027, lon.=33.830631, Alt.=279.207275m. Speed=0.720000m/h.</desc>
<speed>0.200000</speed>
</trkpt>
<trkpt lat="44.631027" lon="33.830620">
<ele>279.246338</ele>
<time>2011-10-10T11:27:22Z</time>
<desc>lat.=44.631027, lon.=33.830620, Alt.=279.246338m. Speed=1.620000m/h.</desc>
<speed>0.450000</speed>
</trkpt>
<trkpt lat="44.631153" lon="33.830555">
<ele>280.004150</ele>
<time>2011-10-10T11:27:27Z</time>
<desc>lat.=44.631153, lon.=33.830555, Alt.=280.004150m. Speed=1.908000m/h.</desc>
<speed>0.530000</speed>
</trkpt>
<trkpt lat="44.631271" lon="33.830631">
<ele>281.301025</ele>
<time>2011-10-10T11:27:32Z</time>
<desc>lat.=44.631271, lon.=33.830631, Alt.=281.301025m. Speed=1.404000m/h.</desc>
<speed>0.390000</speed>
</trkpt>
<trkpt lat="44.631340" lon="33.830708">
<ele>281.605713</ele>
<time>2011-10-10T11:27:37Z</time>
<desc>lat.=44.631340, lon.=33.830708, Alt.=281.605713m. Speed=0.612000m/h.</desc>
<speed>0.170000</speed>
</trkpt>
<trkpt lat="44.631355" lon="33.830715">
<ele>281.668213</ele>
<time>2011-10-10T11:27:42Z</time>
<desc>lat.=44.631355, lon.=33.830715, Alt.=281.668213m. Speed=0.180000m/h.</desc>
<speed>0.050000</speed>
</trkpt>
<trkpt lat="44.631351" lon="33.830719">
<ele>281.746338</ele>
<time>2011-10-10T11:27:47Z</time>
<desc>lat.=44.631351, lon.=33.830719, Alt.=281.746338m. Speed=0.468000m/h.</desc>
<speed>0.130000</speed>
</trkpt>
<trkpt lat="44.631348" lon="33.830715">
<ele>281.824463</ele>
<time>2011-10-10T11:27:52Z</time>
<desc>lat.=44.631348, lon.=33.830715, Alt.=281.824463m. Speed=0.252000m/h.</desc>
<speed>0.070000</speed>
</trkpt>
<trkpt lat="44.631348" lon="33.830708">
<ele>281.894775</ele>
<time>2011-10-10T11:27:57Z</time>
<desc>lat.=44.631348, lon.=33.830708, Alt.=281.894775m. Speed=0.612000m/h.</desc>
<speed>0.170000</speed>
</trkpt>
<trkpt lat="44.631348" lon="33.830692">
<ele>281.965088</ele>
<time>2011-10-10T11:28:02Z</time>
<desc>lat.=44.631348, lon.=33.830692, Alt.=281.965088m. Speed=0.936000m/h.</desc>
<speed>0.260000</speed>
</trkpt>
<trkpt lat="44.631351" lon="33.830677">
<ele>282.043213</ele>
<time>2011-10-10T11:28:07Z</time>
<desc>lat.=44.631351, lon.=33.830677, Alt.=282.043213m. Speed=1.080000m/h.</desc>
<speed>0.300000</speed>
</trkpt>
<trkpt lat="44.631355" lon="33.830616">
<ele>282.105713</ele>
<time>2011-10-10T11:28:12Z</time>
<desc>lat.=44.631355, lon.=33.830616, Alt.=282.105713m. Speed=1.440000m/h.</desc>
<speed>0.400000</speed>
</trkpt>
<trkpt lat="44.631355" lon="33.830547">
<ele>282.160400</ele>
<time>2011-10-10T11:28:17Z</time>
<desc>lat.=44.631355, lon.=33.830547, Alt.=282.160400m. Speed=1.800000m/h.</desc>
<speed>0.500000</speed>
</trkpt>
<trkpt lat="44.631386" lon="33.830463">
<ele>282.230713</ele>
<time>2011-10-10T11:28:22Z</time>
<desc>lat.=44.631386, lon.=33.830463, Alt.=282.230713m. Speed=2.124000m/h.</desc>
<speed>0.590000</speed>
</trkpt>
<trkpt lat="44.631371" lon="33.830395">
<ele>282.277588</ele>
<time>2011-10-10T11:28:27Z</time>
<desc>lat.=44.631371, lon.=33.830395, Alt.=282.277588m. Speed=2.340000m/h.</desc>
<speed>0.650000</speed>
</trkpt>
<trkpt lat="44.631363" lon="33.830406">
<ele>282.316650</ele>
<time>2011-10-10T11:28:32Z</time>
<desc>lat.=44.631363, lon.=33.830406, Alt.=282.316650m. Speed=0.756000m/h.</desc>
<speed>0.210000</speed>
</trkpt>
<trkpt lat="44.631374" lon="33.830437">
<ele>282.363525</ele>
<time>2011-10-10T11:28:37Z</time>
<desc>lat.=44.631374, lon.=33.830437, Alt.=282.363525m. Speed=0.288000m/h.</desc>
<speed>0.080000</speed>
</trkpt>
<trkpt lat="44.631382" lon="33.830425">
<ele>282.441650</ele>
<time>2011-10-10T11:28:42Z</time>
<desc>lat.=44.631382, lon.=33.830425, Alt.=282.441650m. Speed=0.900000m/h.</desc>
<speed>0.250000</speed>
</trkpt>
<trkpt lat="44.631382" lon="33.830387">
<ele>282.527588</ele>
<time>2011-10-10T11:28:47Z</time>
<desc>lat.=44.631382, lon.=33.830387, Alt.=282.527588m. Speed=1.224000m/h.</desc>
<speed>0.340000</speed>
</trkpt>
<trkpt lat="44.631382" lon="33.830410">
<ele>282.605713</ele>
<time>2011-10-10T11:28:52Z</time>
<desc>lat.=44.631382, lon.=33.830410, Alt.=282.605713m. Speed=0.576000m/h.</desc>
<speed>0.160000</speed>
</trkpt>
<trkpt lat="44.631390" lon="33.830414">
<ele>282.676025</ele>
<time>2011-10-10T11:28:57Z</time>
<desc>lat.=44.631390, lon.=33.830414, Alt.=282.676025m. Speed=0.468000m/h.</desc>
<speed>0.130000</speed>
</trkpt>
<trkpt lat="44.631393" lon="33.830414">
<ele>282.754150</ele>
<time>2011-10-10T11:29:02Z</time>
<desc>lat.=44.631393, lon.=33.830414, Alt.=282.754150m. Speed=0.216000m/h.</desc>
<speed>0.060000</speed>
</trkpt>
<trkpt lat="44.631241" lon="33.827950">
<ele>253.638794</ele>
<time>2011-10-10T11:29:25Z</time>
<desc>lat.=44.631241, lon.=33.827950, Alt.=253.638794m. Speed=0.432000m/h.</desc>
<speed>0.120000</speed>
</trkpt>
<trkpt lat="44.631290" lon="33.827888">
<ele>273.472900</ele>
<time>2011-10-10T11:29:30Z</time>
<desc>lat.=44.631290, lon.=33.827888, Alt.=273.472900m. Speed=0.432000m/h.</desc>
<speed>0.120000</speed>
</trkpt>
<trkpt lat="44.631496" lon="33.828011">
<ele>273.808838</ele>
<time>2011-10-10T11:29:35Z</time>
<desc>lat.=44.631496, lon.=33.828011, Alt.=273.808838m. Speed=0.360000m/h.</desc>
<speed>0.100000</speed>
</trkpt>
<trkpt lat="44.631634" lon="33.827995">
<ele>273.965088</ele>
<time>2011-10-10T11:29:40Z</time>
<desc>lat.=44.631634, lon.=33.827995, Alt.=273.965088m. Speed=0.864000m/h.</desc>
<speed>0.240000</speed>
</trkpt>
<trkpt lat="44.631706" lon="33.827904">
<ele>274.379150</ele>
<time>2011-10-10T11:29:45Z</time>
<desc>lat.=44.631706, lon.=33.827904, Alt.=274.379150m. Speed=1.404000m/h.</desc>
<speed>0.390000</speed>
</trkpt>
<trkpt lat="44.631672" lon="33.827980">
<ele>275.480713</ele>
<time>2011-10-10T11:29:50Z</time>
<desc>lat.=44.631672, lon.=33.827980, Alt.=275.480713m. Speed=0.684000m/h.</desc>
<speed>0.190000</speed>
</trkpt>
<trkpt lat="44.631527" lon="33.827877">
<ele>275.793213</ele>
<time>2011-10-10T11:29:55Z</time>
<desc>lat.=44.631527, lon.=33.827877, Alt.=275.793213m. Speed=0.864000m/h.</desc>
<speed>0.240000</speed>
</trkpt>
<trkpt lat="44.631538" lon="33.828007">
<ele>276.019775</ele>
<time>2011-10-10T11:30:00Z</time>
<desc>lat.=44.631538, lon.=33.828007, Alt.=276.019775m. Speed=0.612000m/h.</desc>
<speed>0.170000</speed>
</trkpt>
<trkpt lat="44.631401" lon="33.828175">
<ele>276.894775</ele>
<time>2011-10-10T11:30:05Z</time>
<desc>lat.=44.631401, lon.=33.828175, Alt.=276.894775m. Speed=1.260000m/h.</desc>
<speed>0.350000</speed>
</trkpt>
<trkpt lat="44.631447" lon="33.828285">
<ele>277.222900</ele>
<time>2011-10-10T11:30:10Z</time>
<desc>lat.=44.631447, lon.=33.828285, Alt.=277.222900m. Speed=1.476000m/h.</desc>
<speed>0.410000</speed>
</trkpt>
<trkpt lat="44.631340" lon="33.828514">
<ele>277.996338</ele>
<time>2011-10-10T11:30:15Z</time>
<desc>lat.=44.631340, lon.=33.828514, Alt.=277.996338m. Speed=1.728000m/h.</desc>
<speed>0.480000</speed>
</trkpt>
<trkpt lat="44.631378" lon="33.828770">
<ele>278.707275</ele>
<time>2011-10-10T11:30:20Z</time>
<desc>lat.=44.631378, lon.=33.828770, Alt.=278.707275m. Speed=1.908000m/h.</desc>
<speed>0.530000</speed>
</trkpt>
<trkpt lat="44.631523" lon="33.828857">
<ele>279.426025</ele>
<time>2011-10-10T11:30:25Z</time>
<desc>lat.=44.631523, lon.=33.828857, Alt.=279.426025m. Speed=1.260000m/h.</desc>
<speed>0.350000</speed>
</trkpt>
<trkpt lat="44.631454" lon="33.828941">
<ele>280.535400</ele>
<time>2011-10-10T11:30:30Z</time>
<desc>lat.=44.631454, lon.=33.828941, Alt.=280.535400m. Speed=1.692000m/h.</desc>
<speed>0.470000</speed>
</trkpt>
<trkpt lat="44.631214" lon="33.829414">
<ele>281.558838</ele>
<time>2011-10-10T11:30:35Z</time>
<desc>lat.=44.631214, lon.=33.829414, Alt.=281.558838m. Speed=2.052000m/h.</desc>
<speed>0.570000</speed>
</trkpt>
<trkpt lat="44.631207" lon="33.829762">
<ele>282.847900</ele>
<time>2011-10-10T11:30:40Z</time>
<desc>lat.=44.631207, lon.=33.829762, Alt.=282.847900m. Speed=2.016000m/h.</desc>
<speed>0.560000</speed>
</trkpt>
<trkpt lat="44.631168" lon="33.830051">
<ele>284.340088</ele>
<time>2011-10-10T11:30:45Z</time>
<desc>lat.=44.631168, lon.=33.830051, Alt.=284.340088m. Speed=1.836000m/h.</desc>
<speed>0.510000</speed>
</trkpt>
<trkpt lat="44.631294" lon="33.830200">
<ele>285.097900</ele>
<time>2011-10-10T11:30:50Z</time>
<desc>lat.=44.631294, lon.=33.830200, Alt.=285.097900m. Speed=1.764000m/h.</desc>
<speed>0.490000</speed>
</trkpt>
<trkpt lat="44.631321" lon="33.830242">
<ele>285.230713</ele>
<time>2011-10-10T11:30:55Z</time>
<desc>lat.=44.631321, lon.=33.830242, Alt.=285.230713m. Speed=0.828000m/h.</desc>
<speed>0.230000</speed>
</trkpt>
<trkpt lat="44.631382" lon="33.830284">
<ele>285.261963</ele>
<time>2011-10-10T11:31:00Z</time>
<desc>lat.=44.631382, lon.=33.830284, Alt.=285.261963m. Speed=0.828000m/h.</desc>
<speed>0.230000</speed>
</trkpt>
<trkpt lat="44.631401" lon="33.830330">
<ele>285.629150</ele>
<time>2011-10-10T11:31:05Z</time>
<desc>lat.=44.631401, lon.=33.830330, Alt.=285.629150m. Speed=0.648000m/h.</desc>
<speed>0.180000</speed>
</trkpt>
<trkpt lat="44.631493" lon="33.830345">
<ele>285.761963</ele>
<time>2011-10-10T11:31:10Z</time>
<desc>lat.=44.631493, lon.=33.830345, Alt.=285.761963m. Speed=2.088000m/h.</desc>
<speed>0.580000</speed>
</trkpt>
<trkpt lat="44.631527" lon="33.830334">
<ele>285.840088</ele>
<time>2011-10-10T11:31:15Z</time>
<desc>lat.=44.631527, lon.=33.830334, Alt.=285.840088m. Speed=2.124000m/h.</desc>
<speed>0.590000</speed>
</trkpt>
<trkpt lat="44.631542" lon="33.830349">
<ele>285.941650</ele>
<time>2011-10-10T11:31:20Z</time>
<desc>lat.=44.631542, lon.=33.830349, Alt.=285.941650m. Speed=1.728000m/h.</desc>
<speed>0.480000</speed>
</trkpt>
<trkpt lat="44.631584" lon="33.830368">
<ele>286.035400</ele>
<time>2011-10-10T11:31:25Z</time>
<desc>lat.=44.631584, lon.=33.830368, Alt.=286.035400m. Speed=1.620000m/h.</desc>
<speed>0.450000</speed>
</trkpt>
<trkpt lat="44.631622" lon="33.830399">
<ele>286.136963</ele>
<time>2011-10-10T11:31:30Z</time>
<desc>lat.=44.631622, lon.=33.830399, Alt.=286.136963m. Speed=1.332000m/h.</desc>
<speed>0.370000</speed>
</trkpt>
<trkpt lat="44.631645" lon="33.830387">
<ele>286.183838</ele>
<time>2011-10-10T11:31:35Z</time>
<desc>lat.=44.631645, lon.=33.830387, Alt.=286.183838m. Speed=0.792000m/h.</desc>
<speed>0.220000</speed>
</trkpt>
<trkpt lat="44.631641" lon="33.830421">
<ele>286.301025</ele>
<time>2011-10-10T11:31:40Z</time>
<desc>lat.=44.631641, lon.=33.830421, Alt.=286.301025m. Speed=0.288000m/h.</desc>
<speed>0.080000</speed>
</trkpt>
<trkpt lat="44.631630" lon="33.830528">
<ele>286.441650</ele>
<time>2011-10-10T11:31:45Z</time>
<desc>lat.=44.631630, lon.=33.830528, Alt.=286.441650m. Speed=0.612000m/h.</desc>
<speed>0.170000</speed>
</trkpt>
<trkpt lat="44.631638" lon="33.830597">
<ele>286.386963</ele>
<time>2011-10-10T11:31:50Z</time>
<desc>lat.=44.631638, lon.=33.830597, Alt.=286.386963m. Speed=1.188000m/h.</desc>
<speed>0.330000</speed>
</trkpt>
<trkpt lat="44.631641" lon="33.830593">
<ele>286.386963</ele>
<time>2011-10-10T11:31:55Z</time>
<desc>lat.=44.631641, lon.=33.830593, Alt.=286.386963m. Speed=0.576000m/h.</desc>
<speed>0.160000</speed>
</trkpt>
<trkpt lat="44.631649" lon="33.830582">
<ele>286.441650</ele>
<time>2011-10-10T11:32:00Z</time>
<desc>lat.=44.631649, lon.=33.830582, Alt.=286.441650m. Speed=1.692000m/h.</desc>
<speed>0.470000</speed>
</trkpt>
<trkpt lat="44.631683" lon="33.830494">
<ele>286.691650</ele>
<time>2011-10-10T11:32:05Z</time>
<desc>lat.=44.631683, lon.=33.830494, Alt.=286.691650m. Speed=3.060000m/h.</desc>
<speed>0.850000</speed>
</trkpt>
<trkpt lat="44.631687" lon="33.830357">
<ele>287.519775</ele>
<time>2011-10-10T11:32:10Z</time>
<desc>lat.=44.631687, lon.=33.830357, Alt.=287.519775m. Speed=3.240000m/h.</desc>
<speed>0.900000</speed>
</trkpt>
<trkpt lat="44.631664" lon="33.830349">
<ele>287.676025</ele>
<time>2011-10-10T11:32:15Z</time>
<desc>lat.=44.631664, lon.=33.830349, Alt.=287.676025m. Speed=1.620000m/h.</desc>
<speed>0.450000</speed>
</trkpt>
<trkpt lat="44.631660" lon="33.830296">
<ele>287.668213</ele>
<time>2011-10-10T11:32:20Z</time>
<desc>lat.=44.631660, lon.=33.830296, Alt.=287.668213m. Speed=1.656000m/h.</desc>
<speed>0.460000</speed>
</trkpt>
<trkpt lat="44.631664" lon="33.830250">
<ele>287.761963</ele>
<time>2011-10-10T11:32:25Z</time>
<desc>lat.=44.631664, lon.=33.830250, Alt.=287.761963m. Speed=1.620000m/h.</desc>
<speed>0.450000</speed>
</trkpt>
<trkpt lat="44.631664" lon="33.830235">
<ele>287.785400</ele>
<time>2011-10-10T11:32:30Z</time>
<desc>lat.=44.631664, lon.=33.830235, Alt.=287.785400m. Speed=1.332000m/h.</desc>
<speed>0.370000</speed>
</trkpt>
<trkpt lat="44.631664" lon="33.830227">
<ele>287.832275</ele>
<time>2011-10-10T11:32:35Z</time>
<desc>lat.=44.631664, lon.=33.830227, Alt.=287.832275m. Speed=1.080000m/h.</desc>
<speed>0.300000</speed>
</trkpt>
<trkpt lat="44.631744" lon="33.830204">
<ele>288.051025</ele>
<time>2011-10-10T11:32:40Z</time>
<desc>lat.=44.631744, lon.=33.830204, Alt.=288.051025m. Speed=1.512000m/h.</desc>
<speed>0.420000</speed>
</trkpt>
<trkpt lat="44.631824" lon="33.830177">
<ele>288.871338</ele>
<time>2011-10-10T11:32:45Z</time>
<desc>lat.=44.631824, lon.=33.830177, Alt.=288.871338m. Speed=1.512000m/h.</desc>
<speed>0.420000</speed>
</trkpt>
<trkpt lat="44.631859" lon="33.830109">
<ele>290.332275</ele>
<time>2011-10-10T11:32:50Z</time>
<desc>lat.=44.631859, lon.=33.830109, Alt.=290.332275m. Speed=2.124000m/h.</desc>
<speed>0.590000</speed>
</trkpt>
<trkpt lat="44.631832" lon="33.830284">
<ele>291.238525</ele>
<time>2011-10-10T11:32:55Z</time>
<desc>lat.=44.631832, lon.=33.830284, Alt.=291.238525m. Speed=1.116000m/h.</desc>
<speed>0.310000</speed>
</trkpt>
<trkpt lat="44.631821" lon="33.830353">
<ele>292.418213</ele>
<time>2011-10-10T11:33:00Z</time>
<desc>lat.=44.631821, lon.=33.830353, Alt.=292.418213m. Speed=0.900000m/h.</desc>
<speed>0.250000</speed>
</trkpt>
<trkpt lat="44.631821" lon="33.830406">
<ele>292.683838</ele>
<time>2011-10-10T11:33:05Z</time>
<desc>lat.=44.631821, lon.=33.830406, Alt.=292.683838m. Speed=1.080000m/h.</desc>
<speed>0.300000</speed>
</trkpt>
<trkpt lat="44.631821" lon="33.830418">
<ele>292.660400</ele>
<time>2011-10-10T11:33:10Z</time>
<desc>lat.=44.631821, lon.=33.830418, Alt.=292.660400m. Speed=0.828000m/h.</desc>
<speed>0.230000</speed>
</trkpt>
<trkpt lat="44.631821" lon="33.830433">
<ele>292.652588</ele>
<time>2011-10-10T11:33:15Z</time>
<desc>lat.=44.631821, lon.=33.830433, Alt.=292.652588m. Speed=0.864000m/h.</desc>
<speed>0.240000</speed>
</trkpt>
<trkpt lat="44.630257" lon="33.828815">
<ele>369.090088</ele>
<time>2011-10-10T11:33:48Z</time>
<desc>lat.=44.630257, lon.=33.828815, Alt.=369.090088m. Speed=0.792000m/h.</desc>
<speed>0.220000</speed>
</trkpt>
<trkpt lat="44.630402" lon="33.829098">
<ele>351.465088</ele>
<time>2011-10-10T11:33:53Z</time>
<desc>lat.=44.630402, lon.=33.829098, Alt.=351.465088m. Speed=1.188000m/h.</desc>
<speed>0.330000</speed>
</trkpt>
<trkpt lat="44.630150" lon="33.829124">
<ele>337.449463</ele>
<time>2011-10-10T11:33:58Z</time>
<desc>lat.=44.630150, lon.=33.829124, Alt.=337.449463m. Speed=0.828000m/h.</desc>
<speed>0.230000</speed>
</trkpt>
<trkpt lat="44.630058" lon="33.829178">
<ele>331.511963</ele>
<time>2011-10-10T11:34:03Z</time>
<desc>lat.=44.630058, lon.=33.829178, Alt.=331.511963m. Speed=0.576000m/h.</desc>
<speed>0.160000</speed>
</trkpt>
<trkpt lat="44.630054" lon="33.829174">
<ele>331.316650</ele>
<time>2011-10-10T11:34:08Z</time>
<desc>lat.=44.630054, lon.=33.829174, Alt.=331.316650m. Speed=0.396000m/h.</desc>
<speed>0.110000</speed>
</trkpt>
<trkpt lat="44.630058" lon="33.829166">
<ele>331.277588</ele>
<time>2011-10-10T11:34:13Z</time>
<desc>lat.=44.630058, lon.=33.829166, Alt.=331.277588m. Speed=0.468000m/h.</desc>
<speed>0.130000</speed>
</trkpt>
<trkpt lat="44.630054" lon="33.829163">
<ele>331.035400</ele>
<time>2011-10-10T11:34:18Z</time>
<desc>lat.=44.630054, lon.=33.829163, Alt.=331.035400m. Speed=0.324000m/h.</desc>
<speed>0.090000</speed>
</trkpt>
<trkpt lat="44.630054" lon="33.829159">
<ele>330.816650</ele>
<time>2011-10-10T11:34:23Z</time>
<desc>lat.=44.630054, lon.=33.829159, Alt.=330.816650m. Speed=0.360000m/h.</desc>
<speed>0.100000</speed>
</trkpt>
<trkpt lat="44.630054" lon="33.829159">
<ele>330.590088</ele>
<time>2011-10-10T11:34:28Z</time>
<desc>lat.=44.630054, lon.=33.829159, Alt.=330.590088m. Speed=0.504000m/h.</desc>
<speed>0.140000</speed>
</trkpt>
<trkpt lat="44.630062" lon="33.829163">
<ele>330.410400</ele>
<time>2011-10-10T11:34:33Z</time>
<desc>lat.=44.630062, lon.=33.829163, Alt.=330.410400m. Speed=0.864000m/h.</desc>
<speed>0.240000</speed>
</trkpt>
<trkpt lat="44.630062" lon="33.829174">
<ele>328.902588</ele>
<time>2011-10-10T11:34:38Z</time>
<desc>lat.=44.630062, lon.=33.829174, Alt.=328.902588m. Speed=1.188000m/h.</desc>
<speed>0.330000</speed>
</trkpt>
<trkpt lat="44.630009" lon="33.829262">
<ele>325.496338</ele>
<time>2011-10-10T11:34:43Z</time>
<desc>lat.=44.630009, lon.=33.829262, Alt.=325.496338m. Speed=0.828000m/h.</desc>
<speed>0.230000</speed>
</trkpt>
<trkpt lat="44.629986" lon="33.829308">
<ele>324.816650</ele>
<time>2011-10-10T11:34:48Z</time>
<desc>lat.=44.629986, lon.=33.829308, Alt.=324.816650m. Speed=0.936000m/h.</desc>
<speed>0.260000</speed>
</trkpt>
<trkpt lat="44.629925" lon="33.829346">
<ele>323.113525</ele>
<time>2011-10-10T11:34:53Z</time>
<desc>lat.=44.629925, lon.=33.829346, Alt.=323.113525m. Speed=1.656000m/h.</desc>
<speed>0.460000</speed>
</trkpt>
<trkpt lat="44.629856" lon="33.829388">
<ele>321.152588</ele>
<time>2011-10-10T11:34:58Z</time>
<desc>lat.=44.629856, lon.=33.829388, Alt.=321.152588m. Speed=1.800000m/h.</desc>
<speed>0.500000</speed>
</trkpt>
<trkpt lat="44.629765" lon="33.829445">
<ele>319.613525</ele>
<time>2011-10-10T11:35:03Z</time>
<desc>lat.=44.629765, lon.=33.829445, Alt.=319.613525m. Speed=1.944000m/h.</desc>
<speed>0.540000</speed>
</trkpt>
<trkpt lat="44.629669" lon="33.829525">
<ele>319.480713</ele>
<time>2011-10-10T11:35:08Z</time>
<desc>lat.=44.629669, lon.=33.829525, Alt.=319.480713m. Speed=2.196000m/h.</desc>
<speed>0.610000</speed>
</trkpt>
<trkpt lat="44.629513" lon="33.829624">
<ele>321.277588</ele>
<time>2011-10-10T11:35:13Z</time>
<desc>lat.=44.629513, lon.=33.829624, Alt.=321.277588m. Speed=2.448000m/h.</desc>
<speed>0.680000</speed>
</trkpt>
<trkpt lat="44.629448" lon="33.829708">
<ele>320.527588</ele>
<time>2011-10-10T11:35:18Z</time>
<desc>lat.=44.629448, lon.=33.829708, Alt.=320.527588m. Speed=1.764000m/h.</desc>
<speed>0.490000</speed>
</trkpt>
<trkpt lat="44.629375" lon="33.829807">
<ele>319.668213</ele>
<time>2011-10-10T11:35:23Z</time>
<desc>lat.=44.629375, lon.=33.829807, Alt.=319.668213m. Speed=2.088000m/h.</desc>
<speed>0.580000</speed>
</trkpt>
<trkpt lat="44.629284" lon="33.829830">
<ele>317.785400</ele>
<time>2011-10-10T11:35:28Z</time>
<desc>lat.=44.629284, lon.=33.829830, Alt.=317.785400m. Speed=1.692000m/h.</desc>
<speed>0.470000</speed>
</trkpt>
<trkpt lat="44.629185" lon="33.829868">
<ele>316.035400</ele>
<time>2011-10-10T11:35:33Z</time>
<desc>lat.=44.629185, lon.=33.829868, Alt.=316.035400m. Speed=1.944000m/h.</desc>
<speed>0.540000</speed>
</trkpt>
<trkpt lat="44.629101" lon="33.829861">
<ele>315.191650</ele>
<time>2011-10-10T11:35:38Z</time>
<desc>lat.=44.629101, lon.=33.829861, Alt.=315.191650m. Speed=1.980000m/h.</desc>
<speed>0.550000</speed>
</trkpt>
<trkpt lat="44.629013" lon="33.829845">
<ele>313.996338</ele>
<time>2011-10-10T11:35:43Z</time>
<desc>lat.=44.629013, lon.=33.829845, Alt.=313.996338m. Speed=1.836000m/h.</desc>
<speed>0.510000</speed>
</trkpt>
<trkpt lat="44.628963" lon="33.829830">
<ele>312.433838</ele>
<time>2011-10-10T11:35:48Z</time>
<desc>lat.=44.628963, lon.=33.829830, Alt.=312.433838m. Speed=1.728000m/h.</desc>
<speed>0.480000</speed>
</trkpt>
<trkpt lat="44.628902" lon="33.829819">
<ele>312.965088</ele>
<time>2011-10-10T11:35:53Z</time>
<desc>lat.=44.628902, lon.=33.829819, Alt.=312.965088m. Speed=1.476000m/h.</desc>
<speed>0.410000</speed>
</trkpt>
<trkpt lat="44.628731" lon="33.829990">
<ele>311.019775</ele>
<time>2011-10-10T11:35:58Z</time>
<desc>lat.=44.628731, lon.=33.829990, Alt.=311.019775m. Speed=0.864000m/h.</desc>
<speed>0.240000</speed>
</trkpt>
<trkpt lat="44.628712" lon="33.830009">
<ele>310.980713</ele>
<time>2011-10-10T11:36:03Z</time>
<desc>lat.=44.628712, lon.=33.830009, Alt.=310.980713m. Speed=0.936000m/h.</desc>
<speed>0.260000</speed>
</trkpt>
<trkpt lat="44.628780" lon="33.830109">
<ele>311.261963</ele>
<time>2011-10-10T11:36:08Z</time>
<desc>lat.=44.628780, lon.=33.830109, Alt.=311.261963m. Speed=0.864000m/h.</desc>
<speed>0.240000</speed>
</trkpt>
<trkpt lat="44.628777" lon="33.830128">
<ele>311.269775</ele>
<time>2011-10-10T11:36:13Z</time>
<desc>lat.=44.628777, lon.=33.830128, Alt.=311.269775m. Speed=0.756000m/h.</desc>
<speed>0.210000</speed>
</trkpt>
<trkpt lat="44.628780" lon="33.830135">
<ele>311.254150</ele>
<time>2011-10-10T11:36:18Z</time>
<desc>lat.=44.628780, lon.=33.830135, Alt.=311.254150m. Speed=0.252000m/h.</desc>
<speed>0.070000</speed>
</trkpt>
<trkpt lat="44.628780" lon="33.830139">
<ele>311.238525</ele>
<time>2011-10-10T11:36:23Z</time>
<desc>lat.=44.628780, lon.=33.830139, Alt.=311.238525m. Speed=0.036000m/h.</desc>
<speed>0.010000</speed>
</trkpt>
<trkpt lat="44.628780" lon="33.830132">
<ele>311.222900</ele>
<time>2011-10-10T11:36:28Z</time>
<desc>lat.=44.628780, lon.=33.830132, Alt.=311.222900m. Speed=0.360000m/h.</desc>
<speed>0.100000</speed>
</trkpt>
<trkpt lat="44.628780" lon="33.830120">
<ele>311.207275</ele>
<time>2011-10-10T11:36:33Z</time>
<desc>lat.=44.628780, lon.=33.830120, Alt.=311.207275m. Speed=0.828000m/h.</desc>
<speed>0.230000</speed>
</trkpt>
<trkpt lat="44.628792" lon="33.830055">
<ele>311.090088</ele>
<time>2011-10-10T11:36:38Z</time>
<desc>lat.=44.628792, lon.=33.830055, Alt.=311.090088m. Speed=1.512000m/h.</desc>
<speed>0.420000</speed>
</trkpt>
<trkpt lat="44.628799" lon="33.829987">
<ele>310.926025</ele>
<time>2011-10-10T11:36:43Z</time>
<desc>lat.=44.628799, lon.=33.829987, Alt.=310.926025m. Speed=1.656000m/h.</desc>
<speed>0.460000</speed>
</trkpt>
<trkpt lat="44.628742" lon="33.829971">
<ele>310.566650</ele>
<time>2011-10-10T11:36:48Z</time>
<desc>lat.=44.628742, lon.=33.829971, Alt.=310.566650m. Speed=1.476000m/h.</desc>
<speed>0.410000</speed>
</trkpt>
<trkpt lat="44.628689" lon="33.829964">
<ele>310.097900</ele>
<time>2011-10-10T11:36:53Z</time>
<desc>lat.=44.628689, lon.=33.829964, Alt.=310.097900m. Speed=1.008000m/h.</desc>
<speed>0.280000</speed>
</trkpt>
<trkpt lat="44.628651" lon="33.829983">
<ele>310.051025</ele>
<time>2011-10-10T11:36:58Z</time>
<desc>lat.=44.628651, lon.=33.829983, Alt.=310.051025m. Speed=0.720000m/h.</desc>
<speed>0.200000</speed>
</trkpt>
<trkpt lat="44.628647" lon="33.829979">
<ele>310.019775</ele>
<time>2011-10-10T11:37:03Z</time>
<desc>lat.=44.628647, lon.=33.829979, Alt.=310.019775m. Speed=0.072000m/h.</desc>
<speed>0.020000</speed>
</trkpt>
<trkpt lat="44.628647" lon="33.829983">
<ele>310.058838</ele>
<time>2011-10-10T11:37:08Z</time>
<desc>lat.=44.628647, lon.=33.829983, Alt.=310.058838m. Speed=0.396000m/h.</desc>
<speed>0.110000</speed>
</trkpt>
<trkpt lat="44.628613" lon="33.830002">
<ele>310.074463</ele>
<time>2011-10-10T11:37:13Z</time>
<desc>lat.=44.628613, lon.=33.830002, Alt.=310.074463m. Speed=0.180000m/h.</desc>
<speed>0.050000</speed>
</trkpt>
<trkpt lat="44.628586" lon="33.830029">
<ele>310.082275</ele>
<time>2011-10-10T11:37:18Z</time>
<desc>lat.=44.628586, lon.=33.830029, Alt.=310.082275m. Speed=1.008000m/h.</desc>
<speed>0.280000</speed>
</trkpt>
<trkpt lat="44.628555" lon="33.830013">
<ele>309.824463</ele>
<time>2011-10-10T11:37:23Z</time>
<desc>lat.=44.628555, lon.=33.830013, Alt.=309.824463m. Speed=0.792000m/h.</desc>
<speed>0.220000</speed>
</trkpt>
<trkpt lat="44.628551" lon="33.830013">
<ele>309.761963</ele>
<time>2011-10-10T11:37:28Z</time>
<desc>lat.=44.628551, lon.=33.830013, Alt.=309.761963m. Speed=0.576000m/h.</desc>
<speed>0.160000</speed>
</trkpt>
<trkpt lat="44.628544" lon="33.830017">
<ele>309.769775</ele>
<time>2011-10-10T11:37:33Z</time>
<desc>lat.=44.628544, lon.=33.830017, Alt.=309.769775m. Speed=0.324000m/h.</desc>
<speed>0.090000</speed>
</trkpt>
<trkpt lat="44.628540" lon="33.830029">
<ele>309.785400</ele>
<time>2011-10-10T11:37:38Z</time>
<desc>lat.=44.628540, lon.=33.830029, Alt.=309.785400m. Speed=0.504000m/h.</desc>
<speed>0.140000</speed>
</trkpt>
<trkpt lat="44.628525" lon="33.830021">
<ele>309.769775</ele>
<time>2011-10-10T11:37:43Z</time>
<desc>lat.=44.628525, lon.=33.830021, Alt.=309.769775m. Speed=0.360000m/h.</desc>
<speed>0.100000</speed>
</trkpt>
<trkpt lat="44.628532" lon="33.830025">
<ele>309.738525</ele>
<time>2011-10-10T11:37:48Z</time>
<desc>lat.=44.628532, lon.=33.830025, Alt.=309.738525m. Speed=0.648000m/h.</desc>
<speed>0.180000</speed>
</trkpt>
<trkpt lat="44.628525" lon="33.830051">
<ele>309.652588</ele>
<time>2011-10-10T11:37:53Z</time>
<desc>lat.=44.628525, lon.=33.830051, Alt.=309.652588m. Speed=0.576000m/h.</desc>
<speed>0.160000</speed>
</trkpt>
<trkpt lat="44.628384" lon="33.830086">
<ele>309.769775</ele>
<time>2011-10-10T11:37:58Z</time>
<desc>lat.=44.628384, lon.=33.830086, Alt.=309.769775m. Speed=0.864000m/h.</desc>
<speed>0.240000</speed>
</trkpt>
<trkpt lat="44.628510" lon="33.830048">
<ele>309.605713</ele>
<time>2011-10-10T11:38:03Z</time>
<desc>lat.=44.628510, lon.=33.830048, Alt.=309.605713m. Speed=0.576000m/h.</desc>
<speed>0.160000</speed>
</trkpt>
<trkpt lat="44.628490" lon="33.830051">
<ele>309.605713</ele>
<time>2011-10-10T11:38:08Z</time>
<desc>lat.=44.628490, lon.=33.830051, Alt.=309.605713m. Speed=0.972000m/h.</desc>
<speed>0.270000</speed>
</trkpt>
<trkpt lat="44.628418" lon="33.830074">
<ele>309.730713</ele>
<time>2011-10-10T11:38:13Z</time>
<desc>lat.=44.628418, lon.=33.830074, Alt.=309.730713m. Speed=0.396000m/h.</desc>
<speed>0.110000</speed>
</trkpt>
<trkpt lat="44.628395" lon="33.830086">
<ele>309.683838</ele>
<time>2011-10-10T11:38:18Z</time>
<desc>lat.=44.628395, lon.=33.830086, Alt.=309.683838m. Speed=0.360000m/h.</desc>
<speed>0.100000</speed>
</trkpt>
<trkpt lat="44.628403" lon="33.830112">
<ele>309.668213</ele>
<time>2011-10-10T11:38:23Z</time>
<desc>lat.=44.628403, lon.=33.830112, Alt.=309.668213m. Speed=0.468000m/h.</desc>
<speed>0.130000</speed>
</trkpt>
<trkpt lat="44.628403" lon="33.830112">
<ele>309.707275</ele>
<time>2011-10-10T11:38:28Z</time>
<desc>lat.=44.628403, lon.=33.830112, Alt.=309.707275m. Speed=0.216000m/h.</desc>
<speed>0.060000</speed>
</trkpt>
<trkpt lat="44.628384" lon="33.830116">
<ele>309.715088</ele>
<time>2011-10-10T11:38:33Z</time>
<desc>lat.=44.628384, lon.=33.830116, Alt.=309.715088m. Speed=0.288000m/h.</desc>
<speed>0.080000</speed>
</trkpt>
<trkpt lat="44.628323" lon="33.830143">
<ele>310.019775</ele>
<time>2011-10-10T11:38:38Z</time>
<desc>lat.=44.628323, lon.=33.830143, Alt.=310.019775m. Speed=1.080000m/h.</desc>
<speed>0.300000</speed>
</trkpt>
<trkpt lat="44.628315" lon="33.830170">
<ele>309.894775</ele>
<time>2011-10-10T11:38:43Z</time>
<desc>lat.=44.628315, lon.=33.830170, Alt.=309.894775m. Speed=0.828000m/h.</desc>
<speed>0.230000</speed>
</trkpt>
<trkpt lat="44.628296" lon="33.830173">
<ele>309.902588</ele>
<time>2011-10-10T11:38:48Z</time>
<desc>lat.=44.628296, lon.=33.830173, Alt.=309.902588m. Speed=1.224000m/h.</desc>
<speed>0.340000</speed>
</trkpt>
<trkpt lat="44.628288" lon="33.830162">
<ele>309.871338</ele>
<time>2011-10-10T11:38:53Z</time>
<desc>lat.=44.628288, lon.=33.830162, Alt.=309.871338m. Speed=0.936000m/h.</desc>
<speed>0.260000</speed>
</trkpt>
<trkpt lat="44.628284" lon="33.830162">
<ele>309.894775</ele>
<time>2011-10-10T11:38:58Z</time>
<desc>lat.=44.628284, lon.=33.830162, Alt.=309.894775m. Speed=0.936000m/h.</desc>
<speed>0.260000</speed>
</trkpt>
<trkpt lat="44.628315" lon="33.830132">
<ele>310.668213</ele>
<time>2011-10-10T11:39:03Z</time>
<desc>lat.=44.628315, lon.=33.830132, Alt.=310.668213m. Speed=0.792000m/h.</desc>
<speed>0.220000</speed>
</trkpt>
<trkpt lat="44.628315" lon="33.830112">
<ele>310.777588</ele>
<time>2011-10-10T11:39:08Z</time>
<desc>lat.=44.628315, lon.=33.830112, Alt.=310.777588m. Speed=0.864000m/h.</desc>
<speed>0.240000</speed>
</trkpt>
<trkpt lat="44.628323" lon="33.830101">
<ele>310.879150</ele>
<time>2011-10-10T11:39:13Z</time>
<desc>lat.=44.628323, lon.=33.830101, Alt.=310.879150m. Speed=1.152000m/h.</desc>
<speed>0.320000</speed>
</trkpt>
<trkpt lat="44.628490" lon="33.829964">
<ele>314.082275</ele>
<time>2011-10-10T11:39:18Z</time>
<desc>lat.=44.628490, lon.=33.829964, Alt.=314.082275m. Speed=1.404000m/h.</desc>
<speed>0.390000</speed>
</trkpt>
<trkpt lat="44.628559" lon="33.829967">
<ele>315.746338</ele>
<time>2011-10-10T11:39:23Z</time>
<desc>lat.=44.628559, lon.=33.829967, Alt.=315.746338m. Speed=0.900000m/h.</desc>
<speed>0.250000</speed>
</trkpt>
<trkpt lat="44.628593" lon="33.829960">
<ele>316.418213</ele>
<time>2011-10-10T11:39:28Z</time>
<desc>lat.=44.628593, lon.=33.829960, Alt.=316.418213m. Speed=1.008000m/h.</desc>
<speed>0.280000</speed>
</trkpt>
<trkpt lat="44.628735" lon="33.829998">
<ele>322.293213</ele>
<time>2011-10-10T11:39:33Z</time>
<desc>lat.=44.628735, lon.=33.829998, Alt.=322.293213m. Speed=1.044000m/h.</desc>
<speed>0.290000</speed>
</trkpt>
<trkpt lat="44.628597" lon="33.830067">
<ele>326.230713</ele>
<time>2011-10-10T11:39:38Z</time>
<desc>lat.=44.628597, lon.=33.830067, Alt.=326.230713m. Speed=0.360000m/h.</desc>
<speed>0.100000</speed>
</trkpt>
<trkpt lat="44.628571" lon="33.830093">
<ele>327.113525</ele>
<time>2011-10-10T11:39:43Z</time>
<desc>lat.=44.628571, lon.=33.830093, Alt.=327.113525m. Speed=0.288000m/h.</desc>
<speed>0.080000</speed>
</trkpt>
<trkpt lat="44.628571" lon="33.830101">
<ele>327.285400</ele>
<time>2011-10-10T11:39:48Z</time>
<desc>lat.=44.628571, lon.=33.830101, Alt.=327.285400m. Speed=0.324000m/h.</desc>
<speed>0.090000</speed>
</trkpt>
<trkpt lat="44.628567" lon="33.830109">
<ele>327.457275</ele>
<time>2011-10-10T11:39:53Z</time>
<desc>lat.=44.628567, lon.=33.830109, Alt.=327.457275m. Speed=0.324000m/h.</desc>
<speed>0.090000</speed>
</trkpt>
<trkpt lat="44.628567" lon="33.830112">
<ele>327.613525</ele>
<time>2011-10-10T11:39:58Z</time>
<desc>lat.=44.628567, lon.=33.830112, Alt.=327.613525m. Speed=0.396000m/h.</desc>
<speed>0.110000</speed>
</trkpt>
<trkpt lat="44.628567" lon="33.830132">
<ele>328.058838</ele>
<time>2011-10-10T11:40:03Z</time>
<desc>lat.=44.628567, lon.=33.830132, Alt.=328.058838m. Speed=0.504000m/h.</desc>
<speed>0.140000</speed>
</trkpt>
<trkpt lat="44.628571" lon="33.830147">
<ele>328.371338</ele>
<time>2011-10-10T11:40:08Z</time>
<desc>lat.=44.628571, lon.=33.830147, Alt.=328.371338m. Speed=0.684000m/h.</desc>
<speed>0.190000</speed>
</trkpt>
<trkpt lat="44.628571" lon="33.830166">
<ele>328.754150</ele>
<time>2011-10-10T11:40:13Z</time>
<desc>lat.=44.628571, lon.=33.830166, Alt.=328.754150m. Speed=0.612000m/h.</desc>
<speed>0.170000</speed>
</trkpt>
<trkpt lat="44.628578" lon="33.830189">
<ele>329.519775</ele>
<time>2011-10-10T11:40:18Z</time>
<desc>lat.=44.628578, lon.=33.830189, Alt.=329.519775m. Speed=0.504000m/h.</desc>
<speed>0.140000</speed>
</trkpt>
<trkpt lat="44.628582" lon="33.830193">
<ele>329.699463</ele>
<time>2011-10-10T11:40:23Z</time>
<desc>lat.=44.628582, lon.=33.830193, Alt.=329.699463m. Speed=0.468000m/h.</desc>
<speed>0.130000</speed>
</trkpt>
<trkpt lat="44.628586" lon="33.830200">
<ele>329.871338</ele>
<time>2011-10-10T11:40:28Z</time>
<desc>lat.=44.628586, lon.=33.830200, Alt.=329.871338m. Speed=0.432000m/h.</desc>
<speed>0.120000</speed>
</trkpt>
<trkpt lat="44.628601" lon="33.830212">
<ele>330.801025</ele>
<time>2011-10-10T11:40:33Z</time>
<desc>lat.=44.628601, lon.=33.830212, Alt.=330.801025m. Speed=0.396000m/h.</desc>
<speed>0.110000</speed>
</trkpt>
<trkpt lat="44.628601" lon="33.830215">
<ele>331.043213</ele>
<time>2011-10-10T11:40:38Z</time>
<desc>lat.=44.628601, lon.=33.830215, Alt.=331.043213m. Speed=0.216000m/h.</desc>
<speed>0.060000</speed>
</trkpt>
<trkpt lat="44.628597" lon="33.830212">
<ele>331.457275</ele>
<time>2011-10-10T11:40:43Z</time>
<desc>lat.=44.628597, lon.=33.830212, Alt.=331.457275m. Speed=0.504000m/h.</desc>
<speed>0.140000</speed>
</trkpt>
<trkpt lat="44.628593" lon="33.830208">
<ele>332.058838</ele>
<time>2011-10-10T11:40:48Z</time>
<desc>lat.=44.628593, lon.=33.830208, Alt.=332.058838m. Speed=0.360000m/h.</desc>
<speed>0.100000</speed>
</trkpt>
<trkpt lat="44.628597" lon="33.830200">
<ele>332.863525</ele>
<time>2011-10-10T11:40:53Z</time>
<desc>lat.=44.628597, lon.=33.830200, Alt.=332.863525m. Speed=0.576000m/h.</desc>
<speed>0.160000</speed>
</trkpt>
<trkpt lat="44.628605" lon="33.830189">
<ele>333.941650</ele>
<time>2011-10-10T11:40:58Z</time>
<desc>lat.=44.628605, lon.=33.830189, Alt.=333.941650m. Speed=0.972000m/h.</desc>
<speed>0.270000</speed>
</trkpt>
<trkpt lat="44.628723" lon="33.830181">
<ele>336.871338</ele>
<time>2011-10-10T11:41:03Z</time>
<desc>lat.=44.628723, lon.=33.830181, Alt.=336.871338m. Speed=1.584000m/h.</desc>
<speed>0.440000</speed>
</trkpt>
<trkpt lat="44.628857" lon="33.830177">
<ele>340.449463</ele>
<time>2011-10-10T11:41:08Z</time>
<desc>lat.=44.628857, lon.=33.830177, Alt.=340.449463m. Speed=1.728000m/h.</desc>
<speed>0.480000</speed>
</trkpt>
<trkpt lat="44.628975" lon="33.830181">
<ele>343.261963</ele>
<time>2011-10-10T11:41:13Z</time>
<desc>lat.=44.628975, lon.=33.830181, Alt.=343.261963m. Speed=1.800000m/h.</desc>
<speed>0.500000</speed>
</trkpt>
<trkpt lat="44.629078" lon="33.830173">
<ele>346.746338</ele>
<time>2011-10-10T11:41:18Z</time>
<desc>lat.=44.629078, lon.=33.830173, Alt.=346.746338m. Speed=1.584000m/h.</desc>
<speed>0.440000</speed>
</trkpt>
<trkpt lat="44.629223" lon="33.830162">
<ele>350.558838</ele>
<time>2011-10-10T11:41:23Z</time>
<desc>lat.=44.629223, lon.=33.830162, Alt.=350.558838m. Speed=1.548000m/h.</desc>
<speed>0.430000</speed>
</trkpt>
<trkpt lat="44.629314" lon="33.830158">
<ele>353.636963</ele>
<time>2011-10-10T11:41:28Z</time>
<desc>lat.=44.629314, lon.=33.830158, Alt.=353.636963m. Speed=1.296000m/h.</desc>
<speed>0.360000</speed>
</trkpt>
<trkpt lat="44.629387" lon="33.830162">
<ele>356.051025</ele>
<time>2011-10-10T11:41:33Z</time>
<desc>lat.=44.629387, lon.=33.830162, Alt.=356.051025m. Speed=1.296000m/h.</desc>
<speed>0.360000</speed>
</trkpt>
<trkpt lat="44.629436" lon="33.830162">
<ele>357.996338</ele>
<time>2011-10-10T11:41:38Z</time>
<desc>lat.=44.629436, lon.=33.830162, Alt.=357.996338m. Speed=1.188000m/h.</desc>
<speed>0.330000</speed>
</trkpt>
<trkpt lat="44.629490" lon="33.830170">
<ele>359.621338</ele>
<time>2011-10-10T11:41:43Z</time>
<desc>lat.=44.629490, lon.=33.830170, Alt.=359.621338m. Speed=1.116000m/h.</desc>
<speed>0.310000</speed>
</trkpt>
<trkpt lat="44.629528" lon="33.830189">
<ele>359.332275</ele>
<time>2011-10-10T11:41:48Z</time>
<desc>lat.=44.629528, lon.=33.830189, Alt.=359.332275m. Speed=1.944000m/h.</desc>
<speed>0.540000</speed>
</trkpt>
<trkpt lat="44.629562" lon="33.830208">
<ele>359.660400</ele>
<time>2011-10-10T11:41:53Z</time>
<desc>lat.=44.629562, lon.=33.830208, Alt.=359.660400m. Speed=0.972000m/h.</desc>
<speed>0.270000</speed>
</trkpt>
<trkpt lat="44.629559" lon="33.830196">
<ele>361.207275</ele>
<time>2011-10-10T11:41:58Z</time>
<desc>lat.=44.629559, lon.=33.830196, Alt.=361.207275m. Speed=0.612000m/h.</desc>
<speed>0.170000</speed>
</trkpt>
<trkpt lat="44.629555" lon="33.830193">
<ele>362.066650</ele>
<time>2011-10-10T11:42:03Z</time>
<desc>lat.=44.629555, lon.=33.830193, Alt.=362.066650m. Speed=0.468000m/h.</desc>
<speed>0.130000</speed>
</trkpt>
<trkpt lat="44.629547" lon="33.830223">
<ele>363.402588</ele>
<time>2011-10-10T11:42:08Z</time>
<desc>lat.=44.629547, lon.=33.830223, Alt.=363.402588m. Speed=0.648000m/h.</desc>
<speed>0.180000</speed>
</trkpt>
<trkpt lat="44.629532" lon="33.830227">
<ele>364.488525</ele>
<time>2011-10-10T11:42:13Z</time>
<desc>lat.=44.629532, lon.=33.830227, Alt.=364.488525m. Speed=1.044000m/h.</desc>
<speed>0.290000</speed>
</trkpt>
<trkpt lat="44.629528" lon="33.830235">
<ele>364.879150</ele>
<time>2011-10-10T11:42:18Z</time>
<desc>lat.=44.629528, lon.=33.830235, Alt.=364.879150m. Speed=0.432000m/h.</desc>
<speed>0.120000</speed>
</trkpt>
<trkpt lat="44.629520" lon="33.830231">
<ele>365.472900</ele>
<time>2011-10-10T11:42:23Z</time>
<desc>lat.=44.629520, lon.=33.830231, Alt.=365.472900m. Speed=0.864000m/h.</desc>
<speed>0.240000</speed>
</trkpt>
<trkpt lat="44.629555" lon="33.830208">
<ele>366.066650</ele>
<time>2011-10-10T11:42:28Z</time>
<desc>lat.=44.629555, lon.=33.830208, Alt.=366.066650m. Speed=2.016000m/h.</desc>
<speed>0.560000</speed>
</trkpt>
<trkpt lat="44.629662" lon="33.830173">
<ele>366.566650</ele>
<time>2011-10-10T11:42:33Z</time>
<desc>lat.=44.629662, lon.=33.830173, Alt.=366.566650m. Speed=3.636000m/h.</desc>
<speed>1.010000</speed>
</trkpt>
<trkpt lat="44.629795" lon="33.830147">
<ele>367.090088</ele>
<time>2011-10-10T11:42:38Z</time>
<desc>lat.=44.629795, lon.=33.830147, Alt.=367.090088m. Speed=2.412000m/h.</desc>
<speed>0.670000</speed>
</trkpt>
<trkpt lat="44.629848" lon="33.829948">
<ele>367.652588</ele>
<time>2011-10-10T11:42:43Z</time>
<desc>lat.=44.629848, lon.=33.829948, Alt.=367.652588m. Speed=2.196000m/h.</desc>
<speed>0.610000</speed>
</trkpt>
<trkpt lat="44.629845" lon="33.829895">
<ele>368.293213</ele>
<time>2011-10-10T11:42:48Z</time>
<desc>lat.=44.629845, lon.=33.829895, Alt.=368.293213m. Speed=1.584000m/h.</desc>
<speed>0.440000</speed>
</trkpt>
<trkpt lat="44.629822" lon="33.829857">
<ele>368.933838</ele>
<time>2011-10-10T11:42:53Z</time>
<desc>lat.=44.629822, lon.=33.829857, Alt.=368.933838m. Speed=1.224000m/h.</desc>
<speed>0.340000</speed>
</trkpt>
<trkpt lat="44.629776" lon="33.829849">
<ele>369.527588</ele>
<time>2011-10-10T11:42:58Z</time>
<desc>lat.=44.629776, lon.=33.829849, Alt.=369.527588m. Speed=1.692000m/h.</desc>
<speed>0.470000</speed>
</trkpt>
<trkpt lat="44.629730" lon="33.829861">
<ele>370.207275</ele>
<time>2011-10-10T11:43:03Z</time>
<desc>lat.=44.629730, lon.=33.829861, Alt.=370.207275m. Speed=2.124000m/h.</desc>
<speed>0.590000</speed>
</trkpt>
<trkpt lat="44.629669" lon="33.829845">
<ele>371.043213</ele>
<time>2011-10-10T11:43:08Z</time>
<desc>lat.=44.629669, lon.=33.829845, Alt.=371.043213m. Speed=3.240000m/h.</desc>
<speed>0.900000</speed>
</trkpt>
<trkpt lat="44.629608" lon="33.829845">
<ele>371.847900</ele>
<time>2011-10-10T11:43:13Z</time>
<desc>lat.=44.629608, lon.=33.829845, Alt.=371.847900m. Speed=3.456000m/h.</desc>
<speed>0.960000</speed>
</trkpt>
<trkpt lat="44.629543" lon="33.829849">
<ele>372.605713</ele>
<time>2011-10-10T11:43:18Z</time>
<desc>lat.=44.629543, lon.=33.829849, Alt.=372.605713m. Speed=3.672000m/h.</desc>
<speed>1.020000</speed>
</trkpt>
<trkpt lat="44.629475" lon="33.829887">
<ele>373.355713</ele>
<time>2011-10-10T11:43:23Z</time>
<desc>lat.=44.629475, lon.=33.829887, Alt.=373.355713m. Speed=3.852000m/h.</desc>
<speed>1.070000</speed>
</trkpt>
<trkpt lat="44.629452" lon="33.829861">
<ele>374.035400</ele>
<time>2011-10-10T11:43:28Z</time>
<desc>lat.=44.629452, lon.=33.829861, Alt.=374.035400m. Speed=1.908000m/h.</desc>
<speed>0.530000</speed>
</trkpt>
<trkpt lat="44.629448" lon="33.829941">
<ele>374.746338</ele>
<time>2011-10-10T11:43:33Z</time>
<desc>lat.=44.629448, lon.=33.829941, Alt.=374.746338m. Speed=1.260000m/h.</desc>
<speed>0.350000</speed>
</trkpt>
<trkpt lat="44.629456" lon="33.830021">
<ele>375.386963</ele>
<time>2011-10-10T11:43:38Z</time>
<desc>lat.=44.629456, lon.=33.830021, Alt.=375.386963m. Speed=1.404000m/h.</desc>
<speed>0.390000</speed>
</trkpt>
<trkpt lat="44.629452" lon="33.830074">
<ele>375.957275</ele>
<time>2011-10-10T11:43:43Z</time>
<desc>lat.=44.629452, lon.=33.830074, Alt.=375.957275m. Speed=1.476000m/h.</desc>
<speed>0.410000</speed>
</trkpt>
<trkpt lat="44.629452" lon="33.830128">
<ele>376.496338</ele>
<time>2011-10-10T11:43:48Z</time>
<desc>lat.=44.629452, lon.=33.830128, Alt.=376.496338m. Speed=1.692000m/h.</desc>
<speed>0.470000</speed>
</trkpt>
<trkpt lat="44.629463" lon="33.830139">
<ele>377.066650</ele>
<time>2011-10-10T11:43:53Z</time>
<desc>lat.=44.629463, lon.=33.830139, Alt.=377.066650m. Speed=1.404000m/h.</desc>
<speed>0.390000</speed>
</trkpt>
<trkpt lat="44.629471" lon="33.830151">
<ele>377.644775</ele>
<time>2011-10-10T11:43:58Z</time>
<desc>lat.=44.629471, lon.=33.830151, Alt.=377.644775m. Speed=1.152000m/h.</desc>
<speed>0.320000</speed>
</trkpt>
<trkpt lat="44.629475" lon="33.830181">
<ele>378.215088</ele>
<time>2011-10-10T11:44:03Z</time>
<desc>lat.=44.629475, lon.=33.830181, Alt.=378.215088m. Speed=1.296000m/h.</desc>
<speed>0.360000</speed>
</trkpt>
<trkpt lat="44.629452" lon="33.830204">
<ele>378.769775</ele>
<time>2011-10-10T11:44:08Z</time>
<desc>lat.=44.629452, lon.=33.830204, Alt.=378.769775m. Speed=1.440000m/h.</desc>
<speed>0.400000</speed>
</trkpt>
<trkpt lat="44.629433" lon="33.830215">
<ele>379.324463</ele>
<time>2011-10-10T11:44:13Z</time>
<desc>lat.=44.629433, lon.=33.830215, Alt.=379.324463m. Speed=1.368000m/h.</desc>
<speed>0.380000</speed>
</trkpt>
<trkpt lat="44.629387" lon="33.830193">
<ele>379.879150</ele>
<time>2011-10-10T11:44:18Z</time>
<desc>lat.=44.629387, lon.=33.830193, Alt.=379.879150m. Speed=1.368000m/h.</desc>
<speed>0.380000</speed>
</trkpt>
<trkpt lat="44.629349" lon="33.830162">
<ele>380.441650</ele>
<time>2011-10-10T11:44:23Z</time>
<desc>lat.=44.629349, lon.=33.830162, Alt.=380.441650m. Speed=1.332000m/h.</desc>
<speed>0.370000</speed>
</trkpt>
<trkpt lat="44.629353" lon="33.830177">
<ele>380.980713</ele>
<time>2011-10-10T11:44:28Z</time>
<desc>lat.=44.629353, lon.=33.830177, Alt.=380.980713m. Speed=1.008000m/h.</desc>
<speed>0.280000</speed>
</trkpt>
<trkpt lat="44.629799" lon="33.830299">
<ele>381.043213</ele>
<time>2011-10-10T11:44:33Z</time>
<desc>lat.=44.629799, lon.=33.830299, Alt.=381.043213m. Speed=2.232000m/h.</desc>
<speed>0.620000</speed>
</trkpt>
<trkpt lat="44.630569" lon="33.830067">
<ele>381.308838</ele>
<time>2011-10-10T11:44:38Z</time>
<desc>lat.=44.630569, lon.=33.830067, Alt.=381.308838m. Speed=2.124000m/h.</desc>
<speed>0.590000</speed>
</trkpt>
<trkpt lat="44.630707" lon="33.830009">
<ele>381.816650</ele>
<time>2011-10-10T11:44:43Z</time>
<desc>lat.=44.630707, lon.=33.830009, Alt.=381.816650m. Speed=2.160000m/h.</desc>
<speed>0.600000</speed>
</trkpt>
<trkpt lat="44.630791" lon="33.830021">
<ele>382.324463</ele>
<time>2011-10-10T11:44:48Z</time>
<desc>lat.=44.630791, lon.=33.830021, Alt.=382.324463m. Speed=2.376000m/h.</desc>
<speed>0.660000</speed>
</trkpt>
<trkpt lat="44.630836" lon="33.830070">
<ele>382.855713</ele>
<time>2011-10-10T11:44:53Z</time>
<desc>lat.=44.630836, lon.=33.830070, Alt.=382.855713m. Speed=2.016000m/h.</desc>
<speed>0.560000</speed>
</trkpt>
<trkpt lat="44.630867" lon="33.830147">
<ele>383.394775</ele>
<time>2011-10-10T11:44:58Z</time>
<desc>lat.=44.630867, lon.=33.830147, Alt.=383.394775m. Speed=2.088000m/h.</desc>
<speed>0.580000</speed>
</trkpt>
<trkpt lat="44.630863" lon="33.830376">
<ele>383.816650</ele>
<time>2011-10-10T11:45:03Z</time>
<desc>lat.=44.630863, lon.=33.830376, Alt.=383.816650m. Speed=3.600000m/h.</desc>
<speed>1.000000</speed>
</trkpt>
<trkpt lat="44.630833" lon="33.830795">
<ele>383.926025</ele>
<time>2011-10-10T11:45:08Z</time>
<desc>lat.=44.630833, lon.=33.830795, Alt.=383.926025m. Speed=4.284000m/h.</desc>
<speed>1.190000</speed>
</trkpt>
<trkpt lat="44.630821" lon="33.830929">
<ele>383.980713</ele>
<time>2011-10-10T11:45:13Z</time>
<desc>lat.=44.630821, lon.=33.830929, Alt.=383.980713m. Speed=2.592000m/h.</desc>
<speed>0.720000</speed>
</trkpt>
<trkpt lat="44.630825" lon="33.830971">
<ele>384.090088</ele>
<time>2011-10-10T11:45:18Z</time>
<desc>lat.=44.630825, lon.=33.830971, Alt.=384.090088m. Speed=2.088000m/h.</desc>
<speed>0.580000</speed>
</trkpt>
<trkpt lat="44.630791" lon="33.831055">
<ele>383.996338</ele>
<time>2011-10-10T11:45:23Z</time>
<desc>lat.=44.630791, lon.=33.831055, Alt.=383.996338m. Speed=2.052000m/h.</desc>
<speed>0.570000</speed>
</trkpt>
<trkpt lat="44.630768" lon="33.831169">
<ele>384.207275</ele>
<time>2011-10-10T11:45:28Z</time>
<desc>lat.=44.630768, lon.=33.831169, Alt.=384.207275m. Speed=2.556000m/h.</desc>
<speed>0.710000</speed>
</trkpt>
<trkpt lat="44.630733" lon="33.831200">
<ele>384.332275</ele>
<time>2011-10-10T11:45:33Z</time>
<desc>lat.=44.630733, lon.=33.831200, Alt.=384.332275m. Speed=2.448000m/h.</desc>
<speed>0.680000</speed>
</trkpt>
<trkpt lat="44.630657" lon="33.831207">
<ele>384.480713</ele>
<time>2011-10-10T11:45:38Z</time>
<desc>lat.=44.630657, lon.=33.831207, Alt.=384.480713m. Speed=3.348000m/h.</desc>
<speed>0.930000</speed>
</trkpt>
<trkpt lat="44.630627" lon="33.831234">
<ele>384.660400</ele>
<time>2011-10-10T11:45:43Z</time>
<desc>lat.=44.630627, lon.=33.831234, Alt.=384.660400m. Speed=2.628000m/h.</desc>
<speed>0.730000</speed>
</trkpt>
<trkpt lat="44.630600" lon="33.831223">
<ele>384.676025</ele>
<time>2011-10-10T11:45:48Z</time>
<desc>lat.=44.630600, lon.=33.831223, Alt.=384.676025m. Speed=1.872000m/h.</desc>
<speed>0.520000</speed>
</trkpt>
<trkpt lat="44.630634" lon="33.831291">
<ele>384.394775</ele>
<time>2011-10-10T11:45:53Z</time>
<desc>lat.=44.630634, lon.=33.831291, Alt.=384.394775m. Speed=1.296000m/h.</desc>
<speed>0.360000</speed>
</trkpt>
<trkpt lat="44.630619" lon="33.831341">
<ele>384.019775</ele>
<time>2011-10-10T11:45:58Z</time>
<desc>lat.=44.630619, lon.=33.831341, Alt.=384.019775m. Speed=1.548000m/h.</desc>
<speed>0.430000</speed>
</trkpt>
<trkpt lat="44.630539" lon="33.831345">
<ele>383.113525</ele>
<time>2011-10-10T11:46:03Z</time>
<desc>lat.=44.630539, lon.=33.831345, Alt.=383.113525m. Speed=2.448000m/h.</desc>
<speed>0.680000</speed>
</trkpt>
<trkpt lat="44.630486" lon="33.831367">
<ele>382.668213</ele>
<time>2011-10-10T11:46:08Z</time>
<desc>lat.=44.630486, lon.=33.831367, Alt.=382.668213m. Speed=2.016000m/h.</desc>
<speed>0.560000</speed>
</trkpt>
<trkpt lat="44.630474" lon="33.831417">
<ele>382.230713</ele>
<time>2011-10-10T11:46:13Z</time>
<desc>lat.=44.630474, lon.=33.831417, Alt.=382.230713m. Speed=1.512000m/h.</desc>
<speed>0.420000</speed>
</trkpt>
<trkpt lat="44.630451" lon="33.831432">
<ele>381.801025</ele>
<time>2011-10-10T11:46:18Z</time>
<desc>lat.=44.630451, lon.=33.831432, Alt.=381.801025m. Speed=1.512000m/h.</desc>
<speed>0.420000</speed>
</trkpt>
<trkpt lat="44.630421" lon="33.831413">
<ele>381.441650</ele>
<time>2011-10-10T11:46:23Z</time>
<desc>lat.=44.630421, lon.=33.831413, Alt.=381.441650m. Speed=1.332000m/h.</desc>
<speed>0.370000</speed>
</trkpt>
<trkpt lat="44.630383" lon="33.831406">
<ele>381.316650</ele>
<time>2011-10-10T11:46:28Z</time>
<desc>lat.=44.630383, lon.=33.831406, Alt.=381.316650m. Speed=1.584000m/h.</desc>
<speed>0.440000</speed>
</trkpt>
<trkpt lat="44.630363" lon="33.831413">
<ele>381.105713</ele>
<time>2011-10-10T11:46:33Z</time>
<desc>lat.=44.630363, lon.=33.831413, Alt.=381.105713m. Speed=1.512000m/h.</desc>
<speed>0.420000</speed>
</trkpt>
<trkpt lat="44.630337" lon="33.831425">
<ele>380.933838</ele>
<time>2011-10-10T11:46:38Z</time>
<desc>lat.=44.630337, lon.=33.831425, Alt.=380.933838m. Speed=1.440000m/h.</desc>
<speed>0.400000</speed>
</trkpt>
<trkpt lat="44.630333" lon="33.831463">
<ele>380.769775</ele>
<time>2011-10-10T11:46:43Z</time>
<desc>lat.=44.630333, lon.=33.831463, Alt.=380.769775m. Speed=1.116000m/h.</desc>
<speed>0.310000</speed>
</trkpt>
<trkpt lat="44.630318" lon="33.831482">
<ele>380.597900</ele>
<time>2011-10-10T11:46:48Z</time>
<desc>lat.=44.630318, lon.=33.831482, Alt.=380.597900m. Speed=0.936000m/h.</desc>
<speed>0.260000</speed>
</trkpt>
<trkpt lat="44.630276" lon="33.831490">
<ele>380.590088</ele>
<time>2011-10-10T11:46:53Z</time>
<desc>lat.=44.630276, lon.=33.831490, Alt.=380.590088m. Speed=1.332000m/h.</desc>
<speed>0.370000</speed>
</trkpt>
<trkpt lat="44.630222" lon="33.831516">
<ele>380.613525</ele>
<time>2011-10-10T11:46:58Z</time>
<desc>lat.=44.630222, lon.=33.831516, Alt.=380.613525m. Speed=1.944000m/h.</desc>
<speed>0.540000</speed>
</trkpt>
<trkpt lat="44.630222" lon="33.831470">
<ele>380.254150</ele>
<time>2011-10-10T11:47:03Z</time>
<desc>lat.=44.630222, lon.=33.831470, Alt.=380.254150m. Speed=1.188000m/h.</desc>
<speed>0.330000</speed>
</trkpt>
<trkpt lat="44.630196" lon="33.831501">
<ele>379.949463</ele>
<time>2011-10-10T11:47:08Z</time>
<desc>lat.=44.630196, lon.=33.831501, Alt.=379.949463m. Speed=1.404000m/h.</desc>
<speed>0.390000</speed>
</trkpt>
<trkpt lat="44.630165" lon="33.831459">
<ele>379.511963</ele>
<time>2011-10-10T11:47:13Z</time>
<desc>lat.=44.630165, lon.=33.831459, Alt.=379.511963m. Speed=1.188000m/h.</desc>
<speed>0.330000</speed>
</trkpt>
<trkpt lat="44.630150" lon="33.831482">
<ele>379.097900</ele>
<time>2011-10-10T11:47:18Z</time>
<desc>lat.=44.630150, lon.=33.831482, Alt.=379.097900m. Speed=1.260000m/h.</desc>
<speed>0.350000</speed>
</trkpt>
<trkpt lat="44.630150" lon="33.831497">
<ele>379.207275</ele>
<time>2011-10-10T11:47:23Z</time>
<desc>lat.=44.630150, lon.=33.831497, Alt.=379.207275m. Speed=0.936000m/h.</desc>
<speed>0.260000</speed>
</trkpt>
<trkpt lat="44.630157" lon="33.831505">
<ele>379.496338</ele>
<time>2011-10-10T11:47:28Z</time>
<desc>lat.=44.630157, lon.=33.831505, Alt.=379.496338m. Speed=0.504000m/h.</desc>
<speed>0.140000</speed>
</trkpt>
<trkpt lat="44.630154" lon="33.831509">
<ele>379.941650</ele>
<time>2011-10-10T11:47:33Z</time>
<desc>lat.=44.630154, lon.=33.831509, Alt.=379.941650m. Speed=0.072000m/h.</desc>
<speed>0.020000</speed>
</trkpt>
<trkpt lat="44.630157" lon="33.831505">
<ele>380.386963</ele>
<time>2011-10-10T11:47:38Z</time>
<desc>lat.=44.630157, lon.=33.831505, Alt.=380.386963m. Speed=1.008000m/h.</desc>
<speed>0.280000</speed>
</trkpt>
<trkpt lat="44.630196" lon="33.831482">
<ele>380.652588</ele>
<time>2011-10-10T11:47:43Z</time>
<desc>lat.=44.630196, lon.=33.831482, Alt.=380.652588m. Speed=1.332000m/h.</desc>
<speed>0.370000</speed>
</trkpt>
<trkpt lat="44.630169" lon="33.831432">
<ele>380.879150</ele>
<time>2011-10-10T11:47:48Z</time>
<desc>lat.=44.630169, lon.=33.831432, Alt.=380.879150m. Speed=0.936000m/h.</desc>
<speed>0.260000</speed>
</trkpt>
<trkpt lat="44.630154" lon="33.831448">
<ele>380.535400</ele>
<time>2011-10-10T11:47:53Z</time>
<desc>lat.=44.630154, lon.=33.831448, Alt.=380.535400m. Speed=0.432000m/h.</desc>
<speed>0.120000</speed>
</trkpt>
<trkpt lat="44.630142" lon="33.831470">
<ele>380.090088</ele>
<time>2011-10-10T11:47:58Z</time>
<desc>lat.=44.630142, lon.=33.831470, Alt.=380.090088m. Speed=0.288000m/h.</desc>
<speed>0.080000</speed>
</trkpt>
<trkpt lat="44.630123" lon="33.831459">
<ele>379.754150</ele>
<time>2011-10-10T11:48:03Z</time>
<desc>lat.=44.630123, lon.=33.831459, Alt.=379.754150m. Speed=0.324000m/h.</desc>
<speed>0.090000</speed>
</trkpt>
<trkpt lat="44.630135" lon="33.831455">
<ele>379.246338</ele>
<time>2011-10-10T11:48:08Z</time>
<desc>lat.=44.630135, lon.=33.831455, Alt.=379.246338m. Speed=0.180000m/h.</desc>
<speed>0.050000</speed>
</trkpt>
<trkpt lat="44.630135" lon="33.831459">
<ele>379.027588</ele>
<time>2011-10-10T11:48:13Z</time>
<desc>lat.=44.630135, lon.=33.831459, Alt.=379.027588m. Speed=0.072000m/h.</desc>
<speed>0.020000</speed>
</trkpt>
<trkpt lat="44.630123" lon="33.831444">
<ele>378.449463</ele>
<time>2011-10-10T11:48:18Z</time>
<desc>lat.=44.630123, lon.=33.831444, Alt.=378.449463m. Speed=0.108000m/h.</desc>
<speed>0.030000</speed>
</trkpt>
<trkpt lat="44.630112" lon="33.831451">
<ele>377.722900</ele>
<time>2011-10-10T11:48:23Z</time>
<desc>lat.=44.630112, lon.=33.831451, Alt.=377.722900m. Speed=0.108000m/h.</desc>
<speed>0.030000</speed>
</trkpt>
<trkpt lat="44.630173" lon="33.831429">
<ele>377.051025</ele>
<time>2011-10-10T11:48:28Z</time>
<desc>lat.=44.630173, lon.=33.831429, Alt.=377.051025m. Speed=0.108000m/h.</desc>
<speed>0.030000</speed>
</trkpt>
<trkpt lat="44.630199" lon="33.831470">
<ele>375.566650</ele>
<time>2011-10-10T11:48:33Z</time>
<desc>lat.=44.630199, lon.=33.831470, Alt.=375.566650m. Speed=0.072000m/h.</desc>
<speed>0.020000</speed>
</trkpt>
<trkpt lat="44.630196" lon="33.831474">
<ele>375.316650</ele>
<time>2011-10-10T11:48:38Z</time>
<desc>lat.=44.630196, lon.=33.831474, Alt.=375.316650m. Speed=0.036000m/h.</desc>
<speed>0.010000</speed>
</trkpt>
<trkpt lat="44.630184" lon="33.831486">
<ele>374.769775</ele>
<time>2011-10-10T11:48:43Z</time>
<desc>lat.=44.630184, lon.=33.831486, Alt.=374.769775m. Speed=0.144000m/h.</desc>
<speed>0.040000</speed>
</trkpt>
<trkpt lat="44.630169" lon="33.831493">
<ele>374.418213</ele>
<time>2011-10-10T11:48:48Z</time>
<desc>lat.=44.630169, lon.=33.831493, Alt.=374.418213m. Speed=0.360000m/h.</desc>
<speed>0.100000</speed>
</trkpt>
<trkpt lat="44.630150" lon="33.831490">
<ele>374.113525</ele>
<time>2011-10-10T11:48:53Z</time>
<desc>lat.=44.630150, lon.=33.831490, Alt.=374.113525m. Speed=0.396000m/h.</desc>
<speed>0.110000</speed>
</trkpt>
<trkpt lat="44.630127" lon="33.831493">
<ele>373.699463</ele>
<time>2011-10-10T11:48:58Z</time>
<desc>lat.=44.630127, lon.=33.831493, Alt.=373.699463m. Speed=0.684000m/h.</desc>
<speed>0.190000</speed>
</trkpt>
<trkpt lat="44.630119" lon="33.831478">
<ele>373.215088</ele>
<time>2011-10-10T11:49:03Z</time>
<desc>lat.=44.630119, lon.=33.831478, Alt.=373.215088m. Speed=0.648000m/h.</desc>
<speed>0.180000</speed>
</trkpt>
<trkpt lat="44.630100" lon="33.831467">
<ele>372.191650</ele>
<time>2011-10-10T11:49:08Z</time>
<desc>lat.=44.630100, lon.=33.831467, Alt.=372.191650m. Speed=0.648000m/h.</desc>
<speed>0.180000</speed>
</trkpt>
<trkpt lat="44.630116" lon="33.831474">
<ele>371.215088</ele>
<time>2011-10-10T11:49:13Z</time>
<desc>lat.=44.630116, lon.=33.831474, Alt.=371.215088m. Speed=0.396000m/h.</desc>
<speed>0.110000</speed>
</trkpt>
<trkpt lat="44.630150" lon="33.831490">
<ele>370.449463</ele>
<time>2011-10-10T11:49:18Z</time>
<desc>lat.=44.630150, lon.=33.831490, Alt.=370.449463m. Speed=0.144000m/h.</desc>
<speed>0.040000</speed>
</trkpt>
<trkpt lat="44.630177" lon="33.831486">
<ele>370.222900</ele>
<time>2011-10-10T11:49:23Z</time>
<desc>lat.=44.630177, lon.=33.831486, Alt.=370.222900m. Speed=0.504000m/h.</desc>
<speed>0.140000</speed>
</trkpt>
<trkpt lat="44.630215" lon="33.831486">
<ele>369.785400</ele>
<time>2011-10-10T11:49:28Z</time>
<desc>lat.=44.630215, lon.=33.831486, Alt.=369.785400m. Speed=0.864000m/h.</desc>
<speed>0.240000</speed>
</trkpt>
<trkpt lat="44.630253" lon="33.831463">
<ele>369.136963</ele>
<time>2011-10-10T11:49:33Z</time>
<desc>lat.=44.630253, lon.=33.831463, Alt.=369.136963m. Speed=1.188000m/h.</desc>
<speed>0.330000</speed>
</trkpt>
<trkpt lat="44.630253" lon="33.831459">
<ele>368.582275</ele>
<time>2011-10-10T11:49:38Z</time>
<desc>lat.=44.630253, lon.=33.831459, Alt.=368.582275m. Speed=0.576000m/h.</desc>
<speed>0.160000</speed>
</trkpt>
<trkpt lat="44.630219" lon="33.831463">
<ele>368.035400</ele>
<time>2011-10-10T11:49:43Z</time>
<desc>lat.=44.630219, lon.=33.831463, Alt.=368.035400m. Speed=0.360000m/h.</desc>
<speed>0.100000</speed>
</trkpt>
<trkpt lat="44.630192" lon="33.831482">
<ele>367.004150</ele>
<time>2011-10-10T11:49:48Z</time>
<desc>lat.=44.630192, lon.=33.831482, Alt.=367.004150m. Speed=0.648000m/h.</desc>
<speed>0.180000</speed>
</trkpt>
<trkpt lat="44.630154" lon="33.831505">
<ele>365.902588</ele>
<time>2011-10-10T11:49:53Z</time>
<desc>lat.=44.630154, lon.=33.831505, Alt.=365.902588m. Speed=1.404000m/h.</desc>
<speed>0.390000</speed>
</trkpt>
<trkpt lat="44.630127" lon="33.831551">
<ele>364.894775</ele>
<time>2011-10-10T11:49:58Z</time>
<desc>lat.=44.630127, lon.=33.831551, Alt.=364.894775m. Speed=1.656000m/h.</desc>
<speed>0.460000</speed>
</trkpt>
<trkpt lat="44.630112" lon="33.831593">
<ele>363.926025</ele>
<time>2011-10-10T11:50:03Z</time>
<desc>lat.=44.630112, lon.=33.831593, Alt.=363.926025m. Speed=1.584000m/h.</desc>
<speed>0.440000</speed>
</trkpt>
<trkpt lat="44.630112" lon="33.831623">
<ele>363.090088</ele>
<time>2011-10-10T11:50:08Z</time>
<desc>lat.=44.630112, lon.=33.831623, Alt.=363.090088m. Speed=1.260000m/h.</desc>
<speed>0.350000</speed>
</trkpt>
<trkpt lat="44.630089" lon="33.831589">
<ele>362.347900</ele>
<time>2011-10-10T11:50:13Z</time>
<desc>lat.=44.630089, lon.=33.831589, Alt.=362.347900m. Speed=0.720000m/h.</desc>
<speed>0.200000</speed>
</trkpt>
<trkpt lat="44.630081" lon="33.831596">
<ele>362.152588</ele>
<time>2011-10-10T11:50:18Z</time>
<desc>lat.=44.630081, lon.=33.831596, Alt.=362.152588m. Speed=0.792000m/h.</desc>
<speed>0.220000</speed>
</trkpt>
<trkpt lat="44.630077" lon="33.831608">
<ele>361.957275</ele>
<time>2011-10-10T11:50:23Z</time>
<desc>lat.=44.630077, lon.=33.831608, Alt.=361.957275m. Speed=0.684000m/h.</desc>
<speed>0.190000</speed>
</trkpt>
<trkpt lat="44.630070" lon="33.831612">
<ele>361.754150</ele>
<time>2011-10-10T11:50:28Z</time>
<desc>lat.=44.630070, lon.=33.831612, Alt.=361.754150m. Speed=0.360000m/h.</desc>
<speed>0.100000</speed>
</trkpt>
<trkpt lat="44.630066" lon="33.831612">
<ele>361.535400</ele>
<time>2011-10-10T11:50:33Z</time>
<desc>lat.=44.630066, lon.=33.831612, Alt.=361.535400m. Speed=0.216000m/h.</desc>
<speed>0.060000</speed>
</trkpt>
<trkpt lat="44.630058" lon="33.831615">
<ele>360.902588</ele>
<time>2011-10-10T11:50:38Z</time>
<desc>lat.=44.630058, lon.=33.831615, Alt.=360.902588m. Speed=0.180000m/h.</desc>
<speed>0.050000</speed>
</trkpt>
<trkpt lat="44.630051" lon="33.831612">
<ele>360.230713</ele>
<time>2011-10-10T11:50:43Z</time>
<desc>lat.=44.630051, lon.=33.831612, Alt.=360.230713m. Speed=0.108000m/h.</desc>
<speed>0.030000</speed>
</trkpt>
<trkpt lat="44.630039" lon="33.831596">
<ele>359.613525</ele>
<time>2011-10-10T11:50:48Z</time>
<desc>lat.=44.630039, lon.=33.831596, Alt.=359.613525m. Speed=0.072000m/h.</desc>
<speed>0.020000</speed>
</trkpt>
<trkpt lat="44.630047" lon="33.831596">
<ele>359.472900</ele>
<time>2011-10-10T11:50:53Z</time>
<desc>lat.=44.630047, lon.=33.831596, Alt.=359.472900m. Speed=0.144000m/h.</desc>
<speed>0.040000</speed>
</trkpt>
<trkpt lat="44.630058" lon="33.831581">
<ele>359.222900</ele>
<time>2011-10-10T11:50:58Z</time>
<desc>lat.=44.630058, lon.=33.831581, Alt.=359.222900m. Speed=0.252000m/h.</desc>
<speed>0.070000</speed>
</trkpt>
<trkpt lat="44.630062" lon="33.831596">
<ele>359.105713</ele>
<time>2011-10-10T11:51:03Z</time>
<desc>lat.=44.630062, lon.=33.831596, Alt.=359.105713m. Speed=0.072000m/h.</desc>
<speed>0.020000</speed>
</trkpt>
<trkpt lat="44.630062" lon="33.831612">
<ele>359.144775</ele>
<time>2011-10-10T11:51:08Z</time>
<desc>lat.=44.630062, lon.=33.831612, Alt.=359.144775m. Speed=0.108000m/h.</desc>
<speed>0.030000</speed>
</trkpt>
<trkpt lat="44.630066" lon="33.831615">
<ele>359.152588</ele>
<time>2011-10-10T11:51:13Z</time>
<desc>lat.=44.630066, lon.=33.831615, Alt.=359.152588m. Speed=0.000000m/h.</desc>
<speed>0.000000</speed>
</trkpt>
<trkpt lat="44.630074" lon="33.831612">
<ele>358.957275</ele>
<time>2011-10-10T11:51:18Z</time>
<desc>lat.=44.630074, lon.=33.831612, Alt.=358.957275m. Speed=0.108000m/h.</desc>
<speed>0.030000</speed>
</trkpt>
<trkpt lat="44.630104" lon="33.831615">
<ele>358.597900</ele>
<time>2011-10-10T11:51:23Z</time>
<desc>lat.=44.630104, lon.=33.831615, Alt.=358.597900m. Speed=0.468000m/h.</desc>
<speed>0.130000</speed>
</trkpt>
<trkpt lat="44.630119" lon="33.831608">
<ele>358.113525</ele>
<time>2011-10-10T11:51:28Z</time>
<desc>lat.=44.630119, lon.=33.831608, Alt.=358.113525m. Speed=0.504000m/h.</desc>
<speed>0.140000</speed>
</trkpt>
<trkpt lat="44.630127" lon="33.831619">
<ele>357.863525</ele>
<time>2011-10-10T11:51:33Z</time>
<desc>lat.=44.630127, lon.=33.831619, Alt.=357.863525m. Speed=0.432000m/h.</desc>
<speed>0.120000</speed>
</trkpt>
<trkpt lat="44.630131" lon="33.831623">
<ele>357.840088</ele>
<time>2011-10-10T11:51:38Z</time>
<desc>lat.=44.630131, lon.=33.831623, Alt.=357.840088m. Speed=0.468000m/h.</desc>
<speed>0.130000</speed>
</trkpt>
<trkpt lat="44.630127" lon="33.831623">
<ele>357.636963</ele>
<time>2011-10-10T11:51:43Z</time>
<desc>lat.=44.630127, lon.=33.831623, Alt.=357.636963m. Speed=0.324000m/h.</desc>
<speed>0.090000</speed>
</trkpt>
<trkpt lat="44.630108" lon="33.831657">
<ele>357.261963</ele>
<time>2011-10-10T11:51:48Z</time>
<desc>lat.=44.630108, lon.=33.831657, Alt.=357.261963m. Speed=0.432000m/h.</desc>
<speed>0.120000</speed>
</trkpt>
<trkpt lat="44.630108" lon="33.831703">
<ele>356.957275</ele>
<time>2011-10-10T11:51:53Z</time>
<desc>lat.=44.630108, lon.=33.831703, Alt.=356.957275m. Speed=0.648000m/h.</desc>
<speed>0.180000</speed>
</trkpt>
<trkpt lat="44.630119" lon="33.831806">
<ele>355.972900</ele>
<time>2011-10-10T11:51:58Z</time>
<desc>lat.=44.630119, lon.=33.831806, Alt.=355.972900m. Speed=1.152000m/h.</desc>
<speed>0.320000</speed>
</trkpt>
<trkpt lat="44.630165" lon="33.831852">
<ele>354.801025</ele>
<time>2011-10-10T11:52:03Z</time>
<desc>lat.=44.630165, lon.=33.831852, Alt.=354.801025m. Speed=1.332000m/h.</desc>
<speed>0.370000</speed>
</trkpt>
<trkpt lat="44.630165" lon="33.831867">
<ele>353.949463</ele>
<time>2011-10-10T11:52:08Z</time>
<desc>lat.=44.630165, lon.=33.831867, Alt.=353.949463m. Speed=1.152000m/h.</desc>
<speed>0.320000</speed>
</trkpt>
<trkpt lat="44.630157" lon="33.831833">
<ele>352.941650</ele>
<time>2011-10-10T11:52:13Z</time>
<desc>lat.=44.630157, lon.=33.831833, Alt.=352.941650m. Speed=0.540000m/h.</desc>
<speed>0.150000</speed>
</trkpt>
<trkpt lat="44.630138" lon="33.831764">
<ele>351.801025</ele>
<time>2011-10-10T11:52:18Z</time>
<desc>lat.=44.630138, lon.=33.831764, Alt.=351.801025m. Speed=0.180000m/h.</desc>
<speed>0.050000</speed>
</trkpt>
<trkpt lat="44.630154" lon="33.831715">
<ele>350.363525</ele>
<time>2011-10-10T11:52:23Z</time>
<desc>lat.=44.630154, lon.=33.831715, Alt.=350.363525m. Speed=0.468000m/h.</desc>
<speed>0.130000</speed>
</trkpt>
<trkpt lat="44.630146" lon="33.831692">
<ele>349.980713</ele>
<time>2011-10-10T11:52:28Z</time>
<desc>lat.=44.630146, lon.=33.831692, Alt.=349.980713m. Speed=1.224000m/h.</desc>
<speed>0.340000</speed>
</trkpt>
<trkpt lat="44.630135" lon="33.831627">
<ele>348.863525</ele>
<time>2011-10-10T11:52:33Z</time>
<desc>lat.=44.630135, lon.=33.831627, Alt.=348.863525m. Speed=1.296000m/h.</desc>
<speed>0.360000</speed>
</trkpt>
<trkpt lat="44.630138" lon="33.831593">
<ele>345.496338</ele>
<time>2011-10-10T11:52:38Z</time>
<desc>lat.=44.630138, lon.=33.831593, Alt.=345.496338m. Speed=0.756000m/h.</desc>
<speed>0.210000</speed>
</trkpt>
<trkpt lat="44.630131" lon="33.831577">
<ele>344.691650</ele>
<time>2011-10-10T11:52:43Z</time>
<desc>lat.=44.630131, lon.=33.831577, Alt.=344.691650m. Speed=1.080000m/h.</desc>
<speed>0.300000</speed>
</trkpt>
<trkpt lat="44.630131" lon="33.831573">
<ele>342.879150</ele>
<time>2011-10-10T11:52:48Z</time>
<desc>lat.=44.630131, lon.=33.831573, Alt.=342.879150m. Speed=0.612000m/h.</desc>
<speed>0.170000</speed>
</trkpt>
<trkpt lat="44.630123" lon="33.831566">
<ele>342.051025</ele>
<time>2011-10-10T11:52:53Z</time>
<desc>lat.=44.630123, lon.=33.831566, Alt.=342.051025m. Speed=0.396000m/h.</desc>
<speed>0.110000</speed>
</trkpt>
<trkpt lat="44.630116" lon="33.831566">
<ele>341.152588</ele>
<time>2011-10-10T11:52:58Z</time>
<desc>lat.=44.630116, lon.=33.831566, Alt.=341.152588m. Speed=0.576000m/h.</desc>
<speed>0.160000</speed>
</trkpt>
<trkpt lat="44.630108" lon="33.831570">
<ele>340.160400</ele>
<time>2011-10-10T11:53:03Z</time>
<desc>lat.=44.630108, lon.=33.831570, Alt.=340.160400m. Speed=0.504000m/h.</desc>
<speed>0.140000</speed>
</trkpt>
<trkpt lat="44.630104" lon="33.831573">
<ele>339.035400</ele>
<time>2011-10-10T11:53:08Z</time>
<desc>lat.=44.630104, lon.=33.831573, Alt.=339.035400m. Speed=0.252000m/h.</desc>
<speed>0.070000</speed>
</trkpt>
<trkpt lat="44.630100" lon="33.831573">
<ele>337.886963</ele>
<time>2011-10-10T11:53:13Z</time>
<desc>lat.=44.630100, lon.=33.831573, Alt.=337.886963m. Speed=0.288000m/h.</desc>
<speed>0.080000</speed>
</trkpt>
<trkpt lat="44.630096" lon="33.831577">
<ele>336.886963</ele>
<time>2011-10-10T11:53:18Z</time>
<desc>lat.=44.630096, lon.=33.831577, Alt.=336.886963m. Speed=0.792000m/h.</desc>
<speed>0.220000</speed>
</trkpt>
<trkpt lat="44.630089" lon="33.831581">
<ele>335.941650</ele>
<time>2011-10-10T11:53:23Z</time>
<desc>lat.=44.630089, lon.=33.831581, Alt.=335.941650m. Speed=0.612000m/h.</desc>
<speed>0.170000</speed>
</trkpt>
<trkpt lat="44.630077" lon="33.831581">
<ele>334.980713</ele>
<time>2011-10-10T11:53:28Z</time>
<desc>lat.=44.630077, lon.=33.831581, Alt.=334.980713m. Speed=0.504000m/h.</desc>
<speed>0.140000</speed>
</trkpt>
<trkpt lat="44.630074" lon="33.831577">
<ele>334.004150</ele>
<time>2011-10-10T11:53:33Z</time>
<desc>lat.=44.630074, lon.=33.831577, Alt.=334.004150m. Speed=0.252000m/h.</desc>
<speed>0.070000</speed>
</trkpt>
<trkpt lat="44.630074" lon="33.831573">
<ele>333.011963</ele>
<time>2011-10-10T11:53:38Z</time>
<desc>lat.=44.630074, lon.=33.831573, Alt.=333.011963m. Speed=0.216000m/h.</desc>
<speed>0.060000</speed>
</trkpt>
<trkpt lat="44.630070" lon="33.831573">
<ele>332.035400</ele>
<time>2011-10-10T11:53:43Z</time>
<desc>lat.=44.630070, lon.=33.831573, Alt.=332.035400m. Speed=0.324000m/h.</desc>
<speed>0.090000</speed>
</trkpt>
<trkpt lat="44.630070" lon="33.831566">
<ele>331.246338</ele>
<time>2011-10-10T11:53:48Z</time>
<desc>lat.=44.630070, lon.=33.831566, Alt.=331.246338m. Speed=0.396000m/h.</desc>
<speed>0.110000</speed>
</trkpt>
<trkpt lat="44.630062" lon="33.831562">
<ele>330.457275</ele>
<time>2011-10-10T11:53:53Z</time>
<desc>lat.=44.630062, lon.=33.831562, Alt.=330.457275m. Speed=0.864000m/h.</desc>
<speed>0.240000</speed>
</trkpt>
<trkpt lat="44.630047" lon="33.831562">
<ele>329.824463</ele>
<time>2011-10-10T11:53:58Z</time>
<desc>lat.=44.630047, lon.=33.831562, Alt.=329.824463m. Speed=1.476000m/h.</desc>
<speed>0.410000</speed>
</trkpt>
<trkpt lat="44.630032" lon="33.831570">
<ele>328.676025</ele>
<time>2011-10-10T11:54:03Z</time>
<desc>lat.=44.630032, lon.=33.831570, Alt.=328.676025m. Speed=1.368000m/h.</desc>
<speed>0.380000</speed>
</trkpt>
<trkpt lat="44.630032" lon="33.831604">
<ele>327.551025</ele>
<time>2011-10-10T11:54:08Z</time>
<desc>lat.=44.630032, lon.=33.831604, Alt.=327.551025m. Speed=0.612000m/h.</desc>
<speed>0.170000</speed>
</trkpt>
<trkpt lat="44.630024" lon="33.831627">
<ele>325.996338</ele>
<time>2011-10-10T11:54:13Z</time>
<desc>lat.=44.630024, lon.=33.831627, Alt.=325.996338m. Speed=0.288000m/h.</desc>
<speed>0.080000</speed>
</trkpt>
<trkpt lat="44.630024" lon="33.831627">
<ele>325.301025</ele>
<time>2011-10-10T11:54:18Z</time>
<desc>lat.=44.630024, lon.=33.831627, Alt.=325.301025m. Speed=0.648000m/h.</desc>
<speed>0.180000</speed>
</trkpt>
<trkpt lat="44.630013" lon="33.831551">
<ele>323.285400</ele>
<time>2011-10-10T11:54:23Z</time>
<desc>lat.=44.630013, lon.=33.831551, Alt.=323.285400m. Speed=1.656000m/h.</desc>
<speed>0.460000</speed>
</trkpt>
<trkpt lat="44.630024" lon="33.831505">
<ele>320.840088</ele>
<time>2011-10-10T11:54:28Z</time>
<desc>lat.=44.630024, lon.=33.831505, Alt.=320.840088m. Speed=2.340000m/h.</desc>
<speed>0.650000</speed>
</trkpt>
<trkpt lat="44.630043" lon="33.831425">
<ele>318.488525</ele>
<time>2011-10-10T11:54:33Z</time>
<desc>lat.=44.630043, lon.=33.831425, Alt.=318.488525m. Speed=1.512000m/h.</desc>
<speed>0.420000</speed>
</trkpt>
<trkpt lat="44.630116" lon="33.831402">
<ele>317.933838</ele>
<time>2011-10-10T11:54:38Z</time>
<desc>lat.=44.630116, lon.=33.831402, Alt.=317.933838m. Speed=1.764000m/h.</desc>
<speed>0.490000</speed>
</trkpt>
<trkpt lat="44.630146" lon="33.831387">
<ele>317.207275</ele>
<time>2011-10-10T11:54:43Z</time>
<desc>lat.=44.630146, lon.=33.831387, Alt.=317.207275m. Speed=2.016000m/h.</desc>
<speed>0.560000</speed>
</trkpt>
<trkpt lat="44.630173" lon="33.831348">
<ele>316.308838</ele>
<time>2011-10-10T11:54:48Z</time>
<desc>lat.=44.630173, lon.=33.831348, Alt.=316.308838m. Speed=2.844000m/h.</desc>
<speed>0.790000</speed>
</trkpt>
<trkpt lat="44.630196" lon="33.831291">
<ele>315.441650</ele>
<time>2011-10-10T11:54:53Z</time>
<desc>lat.=44.630196, lon.=33.831291, Alt.=315.441650m. Speed=2.484000m/h.</desc>
<speed>0.690000</speed>
</trkpt>
<trkpt lat="44.630188" lon="33.831184">
<ele>314.652588</ele>
<time>2011-10-10T11:54:58Z</time>
<desc>lat.=44.630188, lon.=33.831184, Alt.=314.652588m. Speed=4.824000m/h.</desc>
<speed>1.340000</speed>
</trkpt>
<trkpt lat="44.630234" lon="33.831123">
<ele>313.566650</ele>
<time>2011-10-10T11:55:03Z</time>
<desc>lat.=44.630234, lon.=33.831123, Alt.=313.566650m. Speed=2.376000m/h.</desc>
<speed>0.660000</speed>
</trkpt>
<trkpt lat="44.630234" lon="33.831028">
<ele>312.886963</ele>
<time>2011-10-10T11:55:08Z</time>
<desc>lat.=44.630234, lon.=33.831028, Alt.=312.886963m. Speed=5.220000m/h.</desc>
<speed>1.450000</speed>
</trkpt>
<trkpt lat="44.630253" lon="33.830925">
<ele>312.816650</ele>
<time>2011-10-10T11:55:13Z</time>
<desc>lat.=44.630253, lon.=33.830925, Alt.=312.816650m. Speed=2.700000m/h.</desc>
<speed>0.750000</speed>
</trkpt>
<trkpt lat="44.630344" lon="33.830849">
<ele>312.511963</ele>
<time>2011-10-10T11:55:18Z</time>
<desc>lat.=44.630344, lon.=33.830849, Alt.=312.511963m. Speed=1.224000m/h.</desc>
<speed>0.340000</speed>
</trkpt>
<trkpt lat="44.630379" lon="33.830849">
<ele>312.761963</ele>
<time>2011-10-10T11:55:23Z</time>
<desc>lat.=44.630379, lon.=33.830849, Alt.=312.761963m. Speed=1.476000m/h.</desc>
<speed>0.410000</speed>
</trkpt>
<trkpt lat="44.630394" lon="33.830830">
<ele>313.152588</ele>
<time>2011-10-10T11:55:28Z</time>
<desc>lat.=44.630394, lon.=33.830830, Alt.=313.152588m. Speed=1.368000m/h.</desc>
<speed>0.380000</speed>
</trkpt>
<trkpt lat="44.630424" lon="33.830814">
<ele>313.426025</ele>
<time>2011-10-10T11:55:33Z</time>
<desc>lat.=44.630424, lon.=33.830814, Alt.=313.426025m. Speed=1.800000m/h.</desc>
<speed>0.500000</speed>
</trkpt>
<trkpt lat="44.630459" lon="33.830803">
<ele>313.652588</ele>
<time>2011-10-10T11:55:38Z</time>
<desc>lat.=44.630459, lon.=33.830803, Alt.=313.652588m. Speed=1.944000m/h.</desc>
<speed>0.540000</speed>
</trkpt>
<trkpt lat="44.630527" lon="33.830769">
<ele>313.418213</ele>
<time>2011-10-10T11:55:43Z</time>
<desc>lat.=44.630527, lon.=33.830769, Alt.=313.418213m. Speed=2.520000m/h.</desc>
<speed>0.700000</speed>
</trkpt>
<trkpt lat="44.630592" lon="33.830738">
<ele>313.472900</ele>
<time>2011-10-10T11:55:48Z</time>
<desc>lat.=44.630592, lon.=33.830738, Alt.=313.472900m. Speed=3.492000m/h.</desc>
<speed>0.970000</speed>
</trkpt>
<trkpt lat="44.630615" lon="33.830696">
<ele>313.574463</ele>
<time>2011-10-10T11:55:53Z</time>
<desc>lat.=44.630615, lon.=33.830696, Alt.=313.574463m. Speed=2.340000m/h.</desc>
<speed>0.650000</speed>
</trkpt>
<trkpt lat="44.630604" lon="33.830666">
<ele>313.629150</ele>
<time>2011-10-10T11:55:58Z</time>
<desc>lat.=44.630604, lon.=33.830666, Alt.=313.629150m. Speed=1.332000m/h.</desc>
<speed>0.370000</speed>
</trkpt>
<trkpt lat="44.630604" lon="33.830612">
<ele>313.621338</ele>
<time>2011-10-10T11:56:03Z</time>
<desc>lat.=44.630604, lon.=33.830612, Alt.=313.621338m. Speed=1.368000m/h.</desc>
<speed>0.380000</speed>
</trkpt>
<trkpt lat="44.630577" lon="33.830582">
<ele>313.644775</ele>
<time>2011-10-10T11:56:08Z</time>
<desc>lat.=44.630577, lon.=33.830582, Alt.=313.644775m. Speed=1.512000m/h.</desc>
<speed>0.420000</speed>
</trkpt>
<trkpt lat="44.630547" lon="33.830574">
<ele>313.597900</ele>
<time>2011-10-10T11:56:13Z</time>
<desc>lat.=44.630547, lon.=33.830574, Alt.=313.597900m. Speed=1.152000m/h.</desc>
<speed>0.320000</speed>
</trkpt>
<trkpt lat="44.630539" lon="33.830559">
<ele>313.551025</ele>
<time>2011-10-10T11:56:18Z</time>
<desc>lat.=44.630539, lon.=33.830559, Alt.=313.551025m. Speed=0.972000m/h.</desc>
<speed>0.270000</speed>
</trkpt>
<trkpt lat="44.630535" lon="33.830544">
<ele>313.629150</ele>
<time>2011-10-10T11:56:23Z</time>
<desc>lat.=44.630535, lon.=33.830544, Alt.=313.629150m. Speed=0.756000m/h.</desc>
<speed>0.210000</speed>
</trkpt>
<trkpt lat="44.630531" lon="33.830528">
<ele>313.707275</ele>
<time>2011-10-10T11:56:28Z</time>
<desc>lat.=44.630531, lon.=33.830528, Alt.=313.707275m. Speed=1.116000m/h.</desc>
<speed>0.310000</speed>
</trkpt>
<trkpt lat="44.630547" lon="33.830513">
<ele>313.590088</ele>
<time>2011-10-10T11:56:33Z</time>
<desc>lat.=44.630547, lon.=33.830513, Alt.=313.590088m. Speed=0.936000m/h.</desc>
<speed>0.260000</speed>
</trkpt>
<trkpt lat="44.630608" lon="33.830490">
<ele>312.918213</ele>
<time>2011-10-10T11:56:38Z</time>
<desc>lat.=44.630608, lon.=33.830490, Alt.=312.918213m. Speed=0.828000m/h.</desc>
<speed>0.230000</speed>
</trkpt>
<trkpt lat="44.630634" lon="33.830475">
<ele>312.418213</ele>
<time>2011-10-10T11:56:43Z</time>
<desc>lat.=44.630634, lon.=33.830475, Alt.=312.418213m. Speed=0.828000m/h.</desc>
<speed>0.230000</speed>
</trkpt>
<trkpt lat="44.630672" lon="33.830425">
<ele>312.496338</ele>
<time>2011-10-10T11:56:48Z</time>
<desc>lat.=44.630672, lon.=33.830425, Alt.=312.496338m. Speed=1.080000m/h.</desc>
<speed>0.300000</speed>
</trkpt>
<trkpt lat="44.630795" lon="33.830418">
<ele>312.347900</ele>
<time>2011-10-10T11:56:53Z</time>
<desc>lat.=44.630795, lon.=33.830418, Alt.=312.347900m. Speed=0.792000m/h.</desc>
<speed>0.220000</speed>
</trkpt>
<trkpt lat="44.630825" lon="33.830376">
<ele>312.433838</ele>
<time>2011-10-10T11:56:58Z</time>
<desc>lat.=44.630825, lon.=33.830376, Alt.=312.433838m. Speed=0.972000m/h.</desc>
<speed>0.270000</speed>
</trkpt>
<trkpt lat="44.631008" lon="33.830597">
<ele>313.183838</ele>
<time>2011-10-10T11:57:03Z</time>
<desc>lat.=44.631008, lon.=33.830597, Alt.=313.183838m. Speed=0.396000m/h.</desc>
<speed>0.110000</speed>
</trkpt>
<trkpt lat="44.631023" lon="33.830612">
<ele>313.715088</ele>
<time>2011-10-10T11:57:08Z</time>
<desc>lat.=44.631023, lon.=33.830612, Alt.=313.715088m. Speed=0.180000m/h.</desc>
<speed>0.050000</speed>
</trkpt>
<trkpt lat="44.631023" lon="33.830612">
<ele>313.730713</ele>
<time>2011-10-10T11:57:13Z</time>
<desc>lat.=44.631023, lon.=33.830612, Alt.=313.730713m. Speed=0.288000m/h.</desc>
<speed>0.080000</speed>
</trkpt>
<trkpt lat="44.631023" lon="33.830608">
<ele>313.746338</ele>
<time>2011-10-10T11:57:18Z</time>
<desc>lat.=44.631023, lon.=33.830608, Alt.=313.746338m. Speed=0.180000m/h.</desc>
<speed>0.050000</speed>
</trkpt>
<trkpt lat="44.631020" lon="33.830597">
<ele>313.777588</ele>
<time>2011-10-10T11:57:23Z</time>
<desc>lat.=44.631020, lon.=33.830597, Alt.=313.777588m. Speed=0.756000m/h.</desc>
<speed>0.210000</speed>
</trkpt>
<trkpt lat="44.631058" lon="33.830597">
<ele>313.582275</ele>
<time>2011-10-10T11:57:28Z</time>
<desc>lat.=44.631058, lon.=33.830597, Alt.=313.582275m. Speed=4.284000m/h.</desc>
<speed>1.190000</speed>
</trkpt>
<trkpt lat="44.631081" lon="33.830566">
<ele>313.511963</ele>
<time>2011-10-10T11:57:33Z</time>
<desc>lat.=44.631081, lon.=33.830566, Alt.=313.511963m. Speed=4.140000m/h.</desc>
<speed>1.150000</speed>
</trkpt>
<trkpt lat="44.631084" lon="33.830536">
<ele>313.246338</ele>
<time>2011-10-10T11:57:38Z</time>
<desc>lat.=44.631084, lon.=33.830536, Alt.=313.246338m. Speed=1.296000m/h.</desc>
<speed>0.360000</speed>
</trkpt>
<trkpt lat="44.631004" lon="33.830437">
<ele>313.121338</ele>
<time>2011-10-10T11:57:43Z</time>
<desc>lat.=44.631004, lon.=33.830437, Alt.=313.121338m. Speed=7.848000m/h.</desc>
<speed>2.180000</speed>
</trkpt>
<trkpt lat="44.630924" lon="33.830360">
<ele>313.004150</ele>
<time>2011-10-10T11:57:48Z</time>
<desc>lat.=44.630924, lon.=33.830360, Alt.=313.004150m. Speed=7.056000m/h.</desc>
<speed>1.960000</speed>
</trkpt>
<trkpt lat="44.630863" lon="33.830292">
<ele>312.886963</ele>
<time>2011-10-10T11:57:53Z</time>
<desc>lat.=44.630863, lon.=33.830292, Alt.=312.886963m. Speed=7.524000m/h.</desc>
<speed>2.090000</speed>
</trkpt>
<trkpt lat="44.630821" lon="33.830338">
<ele>312.824463</ele>
<time>2011-10-10T11:57:58Z</time>
<desc>lat.=44.630821, lon.=33.830338, Alt.=312.824463m. Speed=4.428000m/h.</desc>
<speed>1.230000</speed>
</trkpt>
<trkpt lat="44.630699" lon="33.830322">
<ele>312.777588</ele>
<time>2011-10-10T11:58:03Z</time>
<desc>lat.=44.630699, lon.=33.830322, Alt.=312.777588m. Speed=7.380000m/h.</desc>
<speed>2.050000</speed>
</trkpt>
<trkpt lat="44.630730" lon="33.830338">
<ele>312.707275</ele>
<time>2011-10-10T11:58:08Z</time>
<desc>lat.=44.630730, lon.=33.830338, Alt.=312.707275m. Speed=4.104000m/h.</desc>
<speed>1.140000</speed>
</trkpt>
<trkpt lat="44.630699" lon="33.830357">
<ele>312.605713</ele>
<time>2011-10-10T11:58:13Z</time>
<desc>lat.=44.630699, lon.=33.830357, Alt.=312.605713m. Speed=2.628000m/h.</desc>
<speed>0.730000</speed>
</trkpt>
<trkpt lat="44.630646" lon="33.830406">
<ele>312.496338</ele>
<time>2011-10-10T11:58:18Z</time>
<desc>lat.=44.630646, lon.=33.830406, Alt.=312.496338m. Speed=4.356000m/h.</desc>
<speed>1.210000</speed>
</trkpt>
<trkpt lat="44.630669" lon="33.830452">
<ele>312.433838</ele>
<time>2011-10-10T11:58:23Z</time>
<desc>lat.=44.630669, lon.=33.830452, Alt.=312.433838m. Speed=3.204000m/h.</desc>
<speed>0.890000</speed>
</trkpt>
<trkpt lat="44.630672" lon="33.830444">
<ele>312.402588</ele>
<time>2011-10-10T11:58:28Z</time>
<desc>lat.=44.630672, lon.=33.830444, Alt.=312.402588m. Speed=1.836000m/h.</desc>
<speed>0.510000</speed>
</trkpt>
<trkpt lat="44.630814" lon="33.830486">
<ele>312.386963</ele>
<time>2011-10-10T11:58:33Z</time>
<desc>lat.=44.630814, lon.=33.830486, Alt.=312.386963m. Speed=0.936000m/h.</desc>
<speed>0.260000</speed>
</trkpt>
<trkpt lat="44.630856" lon="33.830578">
<ele>312.551025</ele>
<time>2011-10-10T11:58:38Z</time>
<desc>lat.=44.630856, lon.=33.830578, Alt.=312.551025m. Speed=2.268000m/h.</desc>
<speed>0.630000</speed>
</trkpt>
<trkpt lat="44.630726" lon="33.830513">
<ele>312.527588</ele>
<time>2011-10-10T11:58:43Z</time>
<desc>lat.=44.630726, lon.=33.830513, Alt.=312.527588m. Speed=2.448000m/h.</desc>
<speed>0.680000</speed>
</trkpt>
<trkpt lat="44.630634" lon="33.830467">
<ele>312.426025</ele>
<time>2011-10-10T11:58:48Z</time>
<desc>lat.=44.630634, lon.=33.830467, Alt.=312.426025m. Speed=2.052000m/h.</desc>
<speed>0.570000</speed>
</trkpt>
<trkpt lat="44.630566" lon="33.830494">
<ele>312.449463</ele>
<time>2011-10-10T11:58:53Z</time>
<desc>lat.=44.630566, lon.=33.830494, Alt.=312.449463m. Speed=1.836000m/h.</desc>
<speed>0.510000</speed>
</trkpt>
<trkpt lat="44.630585" lon="33.830513">
<ele>312.418213</ele>
<time>2011-10-10T11:58:58Z</time>
<desc>lat.=44.630585, lon.=33.830513, Alt.=312.418213m. Speed=1.620000m/h.</desc>
<speed>0.450000</speed>
</trkpt>
<trkpt lat="44.630650" lon="33.830605">
<ele>312.465088</ele>
<time>2011-10-10T11:59:03Z</time>
<desc>lat.=44.630650, lon.=33.830605, Alt.=312.465088m. Speed=4.284000m/h.</desc>
<speed>1.190000</speed>
</trkpt>
<trkpt lat="44.630619" lon="33.830593">
<ele>312.472900</ele>
<time>2011-10-10T11:59:08Z</time>
<desc>lat.=44.630619, lon.=33.830593, Alt.=312.472900m. Speed=0.468000m/h.</desc>
<speed>0.130000</speed>
</trkpt>
<trkpt lat="44.630623" lon="33.830605">
<ele>312.301025</ele>
<time>2011-10-10T11:59:13Z</time>
<desc>lat.=44.630623, lon.=33.830605, Alt.=312.301025m. Speed=0.108000m/h.</desc>
<speed>0.030000</speed>
</trkpt>
<trkpt lat="44.630550" lon="33.830608">
<ele>312.340088</ele>
<time>2011-10-10T11:59:18Z</time>
<desc>lat.=44.630550, lon.=33.830608, Alt.=312.340088m. Speed=1.512000m/h.</desc>
<speed>0.420000</speed>
</trkpt>
<trkpt lat="44.630646" lon="33.830582">
<ele>311.972900</ele>
<time>2011-10-10T11:59:23Z</time>
<desc>lat.=44.630646, lon.=33.830582, Alt.=311.972900m. Speed=0.000000m/h.</desc>
<speed>0.000000</speed>
</trkpt>
<trkpt lat="44.630653" lon="33.830570">
<ele>312.129150</ele>
<time>2011-10-10T11:59:28Z</time>
<desc>lat.=44.630653, lon.=33.830570, Alt.=312.129150m. Speed=0.072000m/h.</desc>
<speed>0.020000</speed>
</trkpt>
<trkpt lat="44.630657" lon="33.830570">
<ele>312.105713</ele>
<time>2011-10-10T11:59:33Z</time>
<desc>lat.=44.630657, lon.=33.830570, Alt.=312.105713m. Speed=0.648000m/h.</desc>
<speed>0.180000</speed>
</trkpt>
<trkpt lat="44.630669" lon="33.830566">
<ele>312.082275</ele>
<time>2011-10-10T11:59:38Z</time>
<desc>lat.=44.630669, lon.=33.830566, Alt.=312.082275m. Speed=0.648000m/h.</desc>
<speed>0.180000</speed>
</trkpt>
<trkpt lat="44.630680" lon="33.830570">
<ele>312.058838</ele>
<time>2011-10-10T11:59:43Z</time>
<desc>lat.=44.630680, lon.=33.830570, Alt.=312.058838m. Speed=0.828000m/h.</desc>
<speed>0.230000</speed>
</trkpt>
<trkpt lat="44.630688" lon="33.830574">
<ele>312.027588</ele>
<time>2011-10-10T11:59:48Z</time>
<desc>lat.=44.630688, lon.=33.830574, Alt.=312.027588m. Speed=0.864000m/h.</desc>
<speed>0.240000</speed>
</trkpt>
<trkpt lat="44.630699" lon="33.830574">
<ele>312.004150</ele>
<time>2011-10-10T11:59:53Z</time>
<desc>lat.=44.630699, lon.=33.830574, Alt.=312.004150m. Speed=0.756000m/h.</desc>
<speed>0.210000</speed>
</trkpt>
<trkpt lat="44.630707" lon="33.830566">
<ele>311.980713</ele>
<time>2011-10-10T11:59:58Z</time>
<desc>lat.=44.630707, lon.=33.830566, Alt.=311.980713m. Speed=1.008000m/h.</desc>
<speed>0.280000</speed>
</trkpt>
<trkpt lat="44.630737" lon="33.830547">
<ele>311.933838</ele>
<time>2011-10-10T12:00:03Z</time>
<desc>lat.=44.630737, lon.=33.830547, Alt.=311.933838m. Speed=1.368000m/h.</desc>
<speed>0.380000</speed>
</trkpt>
<trkpt lat="44.630753" lon="33.830528">
<ele>311.863525</ele>
<time>2011-10-10T12:00:08Z</time>
<desc>lat.=44.630753, lon.=33.830528, Alt.=311.863525m. Speed=1.152000m/h.</desc>
<speed>0.320000</speed>
</trkpt>
<trkpt lat="44.630791" lon="33.830498">
<ele>311.824463</ele>
<time>2011-10-10T12:00:13Z</time>
<desc>lat.=44.630791, lon.=33.830498, Alt.=311.824463m. Speed=1.512000m/h.</desc>
<speed>0.420000</speed>
</trkpt>
<trkpt lat="44.630787" lon="33.830467">
<ele>311.785400</ele>
<time>2011-10-10T12:00:18Z</time>
<desc>lat.=44.630787, lon.=33.830467, Alt.=311.785400m. Speed=1.296000m/h.</desc>
<speed>0.360000</speed>
</trkpt>
<trkpt lat="44.630775" lon="33.830486">
<ele>311.480713</ele>
<time>2011-10-10T12:00:23Z</time>
<desc>lat.=44.630775, lon.=33.830486, Alt.=311.480713m. Speed=0.540000m/h.</desc>
<speed>0.150000</speed>
</trkpt>
<trkpt lat="44.630775" lon="33.830490">
<ele>311.410400</ele>
<time>2011-10-10T12:00:28Z</time>
<desc>lat.=44.630775, lon.=33.830490, Alt.=311.410400m. Speed=0.756000m/h.</desc>
<speed>0.210000</speed>
</trkpt>
<trkpt lat="44.630791" lon="33.830498">
<ele>311.379150</ele>
<time>2011-10-10T12:00:33Z</time>
<desc>lat.=44.630791, lon.=33.830498, Alt.=311.379150m. Speed=0.972000m/h.</desc>
<speed>0.270000</speed>
</trkpt>
<trkpt lat="44.630791" lon="33.830498">
<ele>311.347900</ele>
<time>2011-10-10T12:00:38Z</time>
<desc>lat.=44.630791, lon.=33.830498, Alt.=311.347900m. Speed=0.540000m/h.</desc>
<speed>0.150000</speed>
</trkpt>
<trkpt lat="44.630672" lon="33.830425">
<ele>311.261963</ele>
<time>2011-10-10T12:00:43Z</time>
<desc>lat.=44.630672, lon.=33.830425, Alt.=311.261963m. Speed=2.340000m/h.</desc>
<speed>0.650000</speed>
</trkpt>
<trkpt lat="44.630539" lon="33.830391">
<ele>311.066650</ele>
<time>2011-10-10T12:00:48Z</time>
<desc>lat.=44.630539, lon.=33.830391, Alt.=311.066650m. Speed=3.312000m/h.</desc>
<speed>0.920000</speed>
</trkpt>
<trkpt lat="44.630463" lon="33.830364">
<ele>311.043213</ele>
<time>2011-10-10T12:00:53Z</time>
<desc>lat.=44.630463, lon.=33.830364, Alt.=311.043213m. Speed=3.780000m/h.</desc>
<speed>1.050000</speed>
</trkpt>
<trkpt lat="44.630451" lon="33.830330">
<ele>310.926025</ele>
<time>2011-10-10T12:00:58Z</time>
<desc>lat.=44.630451, lon.=33.830330, Alt.=310.926025m. Speed=3.420000m/h.</desc>
<speed>0.950000</speed>
</trkpt>
<trkpt lat="44.630421" lon="33.830299">
<ele>310.832275</ele>
<time>2011-10-10T12:01:03Z</time>
<desc>lat.=44.630421, lon.=33.830299, Alt.=310.832275m. Speed=3.420000m/h.</desc>
<speed>0.950000</speed>
</trkpt>
<trkpt lat="44.630398" lon="33.830235">
<ele>310.644775</ele>
<time>2011-10-10T12:01:08Z</time>
<desc>lat.=44.630398, lon.=33.830235, Alt.=310.644775m. Speed=3.384000m/h.</desc>
<speed>0.940000</speed>
</trkpt>
<trkpt lat="44.630295" lon="33.830185">
<ele>310.418213</ele>
<time>2011-10-10T12:01:13Z</time>
<desc>lat.=44.630295, lon.=33.830185, Alt.=310.418213m. Speed=4.860000m/h.</desc>
<speed>1.350000</speed>
</trkpt>
<trkpt lat="44.630142" lon="33.830105">
<ele>310.246338</ele>
<time>2011-10-10T12:01:18Z</time>
<desc>lat.=44.630142, lon.=33.830105, Alt.=310.246338m. Speed=6.192000m/h.</desc>
<speed>1.720000</speed>
</trkpt>
<trkpt lat="44.630035" lon="33.830051">
<ele>309.847900</ele>
<time>2011-10-10T12:01:23Z</time>
<desc>lat.=44.630035, lon.=33.830051, Alt.=309.847900m. Speed=9.360000m/h.</desc>
<speed>2.600000</speed>
</trkpt>
<trkpt lat="44.630039" lon="33.830067">
<ele>309.379150</ele>
<time>2011-10-10T12:01:28Z</time>
<desc>lat.=44.630039, lon.=33.830067, Alt.=309.379150m. Speed=4.392000m/h.</desc>
<speed>1.220000</speed>
</trkpt>
<trkpt lat="44.630184" lon="33.830128">
<ele>308.308838</ele>
<time>2011-10-10T12:01:33Z</time>
<desc>lat.=44.630184, lon.=33.830128, Alt.=308.308838m. Speed=2.016000m/h.</desc>
<speed>0.560000</speed>
</trkpt>
<trkpt lat="44.630219" lon="33.830135">
<ele>307.480713</ele>
<time>2011-10-10T12:01:38Z</time>
<desc>lat.=44.630219, lon.=33.830135, Alt.=307.480713m. Speed=3.564000m/h.</desc>
<speed>0.990000</speed>
</trkpt>
<trkpt lat="44.630226" lon="33.830212">
<ele>306.785400</ele>
<time>2011-10-10T12:01:43Z</time>
<desc>lat.=44.630226, lon.=33.830212, Alt.=306.785400m. Speed=5.076000m/h.</desc>
<speed>1.410000</speed>
</trkpt>
<trkpt lat="44.630249" lon="33.830273">
<ele>306.074463</ele>
<time>2011-10-10T12:01:48Z</time>
<desc>lat.=44.630249, lon.=33.830273, Alt.=306.074463m. Speed=2.268000m/h.</desc>
<speed>0.630000</speed>
</trkpt>
<trkpt lat="44.630383" lon="33.830296">
<ele>304.574463</ele>
<time>2011-10-10T12:01:53Z</time>
<desc>lat.=44.630383, lon.=33.830296, Alt.=304.574463m. Speed=4.572000m/h.</desc>
<speed>1.270000</speed>
</trkpt>
<trkpt lat="44.630512" lon="33.830391">
<ele>303.230713</ele>
<time>2011-10-10T12:01:58Z</time>
<desc>lat.=44.630512, lon.=33.830391, Alt.=303.230713m. Speed=5.112000m/h.</desc>
<speed>1.420000</speed>
</trkpt>
<trkpt lat="44.630508" lon="33.830395">
<ele>302.808838</ele>
<time>2011-10-10T12:02:03Z</time>
<desc>lat.=44.630508, lon.=33.830395, Alt.=302.808838m. Speed=1.944000m/h.</desc>
<speed>0.540000</speed>
</trkpt>
<trkpt lat="44.630604" lon="33.830448">
<ele>302.449463</ele>
<time>2011-10-10T12:02:08Z</time>
<desc>lat.=44.630604, lon.=33.830448, Alt.=302.449463m. Speed=4.500000m/h.</desc>
<speed>1.250000</speed>
</trkpt>
<trkpt lat="44.630646" lon="33.830460">
<ele>301.980713</ele>
<time>2011-10-10T12:02:13Z</time>
<desc>lat.=44.630646, lon.=33.830460, Alt.=301.980713m. Speed=2.304000m/h.</desc>
<speed>0.640000</speed>
</trkpt>
<trkpt lat="44.630634" lon="33.830437">
<ele>300.371338</ele>
<time>2011-10-10T12:02:18Z</time>
<desc>lat.=44.630634, lon.=33.830437, Alt.=300.371338m. Speed=1.332000m/h.</desc>
<speed>0.370000</speed>
</trkpt>
<trkpt lat="44.630856" lon="33.830582">
<ele>299.074463</ele>
<time>2011-10-10T12:02:23Z</time>
<desc>lat.=44.630856, lon.=33.830582, Alt.=299.074463m. Speed=2.880000m/h.</desc>
<speed>0.800000</speed>
</trkpt>
<trkpt lat="44.630943" lon="33.830669">
<ele>298.441650</ele>
<time>2011-10-10T12:02:28Z</time>
<desc>lat.=44.630943, lon.=33.830669, Alt.=298.441650m. Speed=1.908000m/h.</desc>
<speed>0.530000</speed>
</trkpt>
<trkpt lat="44.631008" lon="33.830738">
<ele>297.746338</ele>
<time>2011-10-10T12:02:33Z</time>
<desc>lat.=44.631008, lon.=33.830738, Alt.=297.746338m. Speed=2.448000m/h.</desc>
<speed>0.680000</speed>
</trkpt>
<trkpt lat="44.631020" lon="33.830765">
<ele>296.668213</ele>
<time>2011-10-10T12:02:38Z</time>
<desc>lat.=44.631020, lon.=33.830765, Alt.=296.668213m. Speed=1.260000m/h.</desc>
<speed>0.350000</speed>
</trkpt>
<trkpt lat="44.631046" lon="33.830761">
<ele>295.980713</ele>
<time>2011-10-10T12:02:43Z</time>
<desc>lat.=44.631046, lon.=33.830761, Alt.=295.980713m. Speed=1.188000m/h.</desc>
<speed>0.330000</speed>
</trkpt>
<trkpt lat="44.631100" lon="33.830784">
<ele>295.269775</ele>
<time>2011-10-10T12:02:48Z</time>
<desc>lat.=44.631100, lon.=33.830784, Alt.=295.269775m. Speed=0.756000m/h.</desc>
<speed>0.210000</speed>
</trkpt>
<trkpt lat="44.631111" lon="33.830830">
<ele>294.660400</ele>
<time>2011-10-10T12:02:53Z</time>
<desc>lat.=44.631111, lon.=33.830830, Alt.=294.660400m. Speed=1.656000m/h.</desc>
<speed>0.460000</speed>
</trkpt>
<trkpt lat="44.631134" lon="33.830883">
<ele>293.816650</ele>
<time>2011-10-10T12:02:58Z</time>
<desc>lat.=44.631134, lon.=33.830883, Alt.=293.816650m. Speed=2.916000m/h.</desc>
<speed>0.810000</speed>
</trkpt>
<trkpt lat="44.631126" lon="33.830860">
<ele>293.676025</ele>
<time>2011-10-10T12:03:03Z</time>
<desc>lat.=44.631126, lon.=33.830860, Alt.=293.676025m. Speed=1.872000m/h.</desc>
<speed>0.520000</speed>
</trkpt>
<trkpt lat="44.631138" lon="33.830860">
<ele>292.558838</ele>
<time>2011-10-10T12:03:08Z</time>
<desc>lat.=44.631138, lon.=33.830860, Alt.=292.558838m. Speed=0.972000m/h.</desc>
<speed>0.270000</speed>
</trkpt>
<trkpt lat="44.631165" lon="33.830830">
<ele>290.410400</ele>
<time>2011-10-10T12:03:13Z</time>
<desc>lat.=44.631165, lon.=33.830830, Alt.=290.410400m. Speed=2.052000m/h.</desc>
<speed>0.570000</speed>
</trkpt>
<trkpt lat="44.631222" lon="33.830856">
<ele>288.066650</ele>
<time>2011-10-10T12:03:18Z</time>
<desc>lat.=44.631222, lon.=33.830856, Alt.=288.066650m. Speed=1.620000m/h.</desc>
<speed>0.450000</speed>
</trkpt>
<trkpt lat="44.631203" lon="33.830853">
<ele>286.730713</ele>
<time>2011-10-10T12:03:23Z</time>
<desc>lat.=44.631203, lon.=33.830853, Alt.=286.730713m. Speed=2.124000m/h.</desc>
<speed>0.590000</speed>
</trkpt>
<trkpt lat="44.631176" lon="33.830849">
<ele>284.683838</ele>
<time>2011-10-10T12:03:28Z</time>
<desc>lat.=44.631176, lon.=33.830849, Alt.=284.683838m. Speed=1.836000m/h.</desc>
<speed>0.510000</speed>
</trkpt>
<trkpt lat="44.631207" lon="33.830902">
<ele>283.136963</ele>
<time>2011-10-10T12:03:33Z</time>
<desc>lat.=44.631207, lon.=33.830902, Alt.=283.136963m. Speed=0.360000m/h.</desc>
<speed>0.100000</speed>
</trkpt>
<trkpt lat="44.631210" lon="33.830910">
<ele>282.761963</ele>
<time>2011-10-10T12:03:38Z</time>
<desc>lat.=44.631210, lon.=33.830910, Alt.=282.761963m. Speed=0.900000m/h.</desc>
<speed>0.250000</speed>
</trkpt>
<trkpt lat="44.631222" lon="33.830940">
<ele>282.051025</ele>
<time>2011-10-10T12:03:43Z</time>
<desc>lat.=44.631222, lon.=33.830940, Alt.=282.051025m. Speed=1.152000m/h.</desc>
<speed>0.320000</speed>
</trkpt>
<trkpt lat="44.631210" lon="33.830936">
<ele>281.051025</ele>
<time>2011-10-10T12:03:48Z</time>
<desc>lat.=44.631210, lon.=33.830936, Alt.=281.051025m. Speed=0.720000m/h.</desc>
<speed>0.200000</speed>
</trkpt>
<trkpt lat="44.631203" lon="33.830940">
<ele>280.668213</ele>
<time>2011-10-10T12:03:53Z</time>
<desc>lat.=44.631203, lon.=33.830940, Alt.=280.668213m. Speed=0.720000m/h.</desc>
<speed>0.200000</speed>
</trkpt>
<trkpt lat="44.631199" lon="33.830944">
<ele>280.285400</ele>
<time>2011-10-10T12:03:58Z</time>
<desc>lat.=44.631199, lon.=33.830944, Alt.=280.285400m. Speed=0.324000m/h.</desc>
<speed>0.090000</speed>
</trkpt>
<trkpt lat="44.631195" lon="33.830952">
<ele>279.894775</ele>
<time>2011-10-10T12:04:03Z</time>
<desc>lat.=44.631195, lon.=33.830952, Alt.=279.894775m. Speed=0.468000m/h.</desc>
<speed>0.130000</speed>
</trkpt>
<trkpt lat="44.631187" lon="33.830956">
<ele>279.511963</ele>
<time>2011-10-10T12:04:08Z</time>
<desc>lat.=44.631187, lon.=33.830956, Alt.=279.511963m. Speed=0.720000m/h.</desc>
<speed>0.200000</speed>
</trkpt>
<trkpt lat="44.631172" lon="33.830952">
<ele>279.191650</ele>
<time>2011-10-10T12:04:13Z</time>
<desc>lat.=44.631172, lon.=33.830952, Alt.=279.191650m. Speed=1.044000m/h.</desc>
<speed>0.290000</speed>
</trkpt>
<trkpt lat="44.631142" lon="33.830879">
<ele>277.324463</ele>
<time>2011-10-10T12:04:18Z</time>
<desc>lat.=44.631142, lon.=33.830879, Alt.=277.324463m. Speed=0.360000m/h.</desc>
<speed>0.100000</speed>
</trkpt>
<trkpt lat="44.631142" lon="33.830875">
<ele>276.746338</ele>
<time>2011-10-10T12:04:23Z</time>
<desc>lat.=44.631142, lon.=33.830875, Alt.=276.746338m. Speed=0.216000m/h.</desc>
<speed>0.060000</speed>
</trkpt>
<trkpt lat="44.631138" lon="33.830879">
<ele>276.332275</ele>
<time>2011-10-10T12:04:28Z</time>
<desc>lat.=44.631138, lon.=33.830879, Alt.=276.332275m. Speed=0.828000m/h.</desc>
<speed>0.230000</speed>
</trkpt>
<trkpt lat="44.631130" lon="33.830883">
<ele>275.949463</ele>
<time>2011-10-10T12:04:33Z</time>
<desc>lat.=44.631130, lon.=33.830883, Alt.=275.949463m. Speed=0.756000m/h.</desc>
<speed>0.210000</speed>
</trkpt>
<trkpt lat="44.631123" lon="33.830887">
<ele>275.535400</ele>
<time>2011-10-10T12:04:38Z</time>
<desc>lat.=44.631123, lon.=33.830887, Alt.=275.535400m. Speed=0.432000m/h.</desc>
<speed>0.120000</speed>
</trkpt>
<trkpt lat="44.631119" lon="33.830883">
<ele>275.129150</ele>
<time>2011-10-10T12:04:43Z</time>
<desc>lat.=44.631119, lon.=33.830883, Alt.=275.129150m. Speed=0.072000m/h.</desc>
<speed>0.020000</speed>
</trkpt>
<trkpt lat="44.631123" lon="33.830887">
<ele>274.730713</ele>
<time>2011-10-10T12:04:48Z</time>
<desc>lat.=44.631123, lon.=33.830887, Alt.=274.730713m. Speed=0.792000m/h.</desc>
<speed>0.220000</speed>
</trkpt>
<trkpt lat="44.631134" lon="33.830887">
<ele>274.332275</ele>
<time>2011-10-10T12:04:53Z</time>
<desc>lat.=44.631134, lon.=33.830887, Alt.=274.332275m. Speed=0.540000m/h.</desc>
<speed>0.150000</speed>
</trkpt>
<trkpt lat="44.631142" lon="33.830883">
<ele>273.933838</ele>
<time>2011-10-10T12:04:58Z</time>
<desc>lat.=44.631142, lon.=33.830883, Alt.=273.933838m. Speed=0.540000m/h.</desc>
<speed>0.150000</speed>
</trkpt>
<trkpt lat="44.631145" lon="33.830879">
<ele>273.543213</ele>
<time>2011-10-10T12:05:03Z</time>
<desc>lat.=44.631145, lon.=33.830879, Alt.=273.543213m. Speed=0.396000m/h.</desc>
<speed>0.110000</speed>
</trkpt>
<trkpt lat="44.631145" lon="33.830875">
<ele>273.183838</ele>
<time>2011-10-10T12:05:08Z</time>
<desc>lat.=44.631145, lon.=33.830875, Alt.=273.183838m. Speed=0.072000m/h.</desc>
<speed>0.020000</speed>
</trkpt>
<trkpt lat="44.631149" lon="33.830875">
<ele>272.847900</ele>
<time>2011-10-10T12:05:13Z</time>
<desc>lat.=44.631149, lon.=33.830875, Alt.=272.847900m. Speed=0.144000m/h.</desc>
<speed>0.040000</speed>
</trkpt>
<trkpt lat="44.631149" lon="33.830875">
<ele>272.504150</ele>
<time>2011-10-10T12:05:18Z</time>
<desc>lat.=44.631149, lon.=33.830875, Alt.=272.504150m. Speed=0.072000m/h.</desc>
<speed>0.020000</speed>
</trkpt>
<trkpt lat="44.631149" lon="33.830875">
<ele>272.168213</ele>
<time>2011-10-10T12:05:23Z</time>
<desc>lat.=44.631149, lon.=33.830875, Alt.=272.168213m. Speed=0.108000m/h.</desc>
<speed>0.030000</speed>
</trkpt>
<trkpt lat="44.631153" lon="33.830879">
<ele>271.840088</ele>
<time>2011-10-10T12:05:28Z</time>
<desc>lat.=44.631153, lon.=33.830879, Alt.=271.840088m. Speed=0.108000m/h.</desc>
<speed>0.030000</speed>
</trkpt>
<trkpt lat="44.631153" lon="33.830879">
<ele>271.519775</ele>
<time>2011-10-10T12:05:33Z</time>
<desc>lat.=44.631153, lon.=33.830879, Alt.=271.519775m. Speed=0.144000m/h.</desc>
<speed>0.040000</speed>
</trkpt>
<trkpt lat="44.631153" lon="33.830875">
<ele>271.199463</ele>
<time>2011-10-10T12:05:38Z</time>
<desc>lat.=44.631153, lon.=33.830875, Alt.=271.199463m. Speed=0.072000m/h.</desc>
<speed>0.020000</speed>
</trkpt>
<trkpt lat="44.631157" lon="33.830875">
<ele>270.902588</ele>
<time>2011-10-10T12:05:43Z</time>
<desc>lat.=44.631157, lon.=33.830875, Alt.=270.902588m. Speed=0.216000m/h.</desc>
<speed>0.060000</speed>
</trkpt>
<trkpt lat="44.631157" lon="33.830872">
<ele>270.629150</ele>
<time>2011-10-10T12:05:48Z</time>
<desc>lat.=44.631157, lon.=33.830872, Alt.=270.629150m. Speed=0.144000m/h.</desc>
<speed>0.040000</speed>
</trkpt>
<trkpt lat="44.631157" lon="33.830872">
<ele>270.402588</ele>
<time>2011-10-10T12:05:53Z</time>
<desc>lat.=44.631157, lon.=33.830872, Alt.=270.402588m. Speed=0.000000m/h.</desc>
<speed>0.000000</speed>
</trkpt>
<trkpt lat="44.631161" lon="33.830868">
<ele>270.199463</ele>
<time>2011-10-10T12:05:58Z</time>
<desc>lat.=44.631161, lon.=33.830868, Alt.=270.199463m. Speed=0.252000m/h.</desc>
<speed>0.070000</speed>
</trkpt>
<trkpt lat="44.631161" lon="33.830868">
<ele>270.043213</ele>
<time>2011-10-10T12:06:03Z</time>
<desc>lat.=44.631161, lon.=33.830868, Alt.=270.043213m. Speed=0.144000m/h.</desc>
<speed>0.040000</speed>
</trkpt>
<trkpt lat="44.631165" lon="33.830860">
<ele>269.910400</ele>
<time>2011-10-10T12:06:08Z</time>
<desc>lat.=44.631165, lon.=33.830860, Alt.=269.910400m. Speed=0.468000m/h.</desc>
<speed>0.130000</speed>
</trkpt>
<trkpt lat="44.631168" lon="33.830853">
<ele>269.785400</ele>
<time>2011-10-10T12:06:13Z</time>
<desc>lat.=44.631168, lon.=33.830853, Alt.=269.785400m. Speed=0.504000m/h.</desc>
<speed>0.140000</speed>
</trkpt>
<trkpt lat="44.631176" lon="33.830849">
<ele>269.676025</ele>
<time>2011-10-10T12:06:18Z</time>
<desc>lat.=44.631176, lon.=33.830849, Alt.=269.676025m. Speed=0.396000m/h.</desc>
<speed>0.110000</speed>
</trkpt>
<trkpt lat="44.631180" lon="33.830841">
<ele>269.574463</ele>
<time>2011-10-10T12:06:23Z</time>
<desc>lat.=44.631180, lon.=33.830841, Alt.=269.574463m. Speed=0.540000m/h.</desc>
<speed>0.150000</speed>
</trkpt>
<trkpt lat="44.631184" lon="33.830830">
<ele>269.644775</ele>
<time>2011-10-10T12:06:28Z</time>
<desc>lat.=44.631184, lon.=33.830830, Alt.=269.644775m. Speed=0.468000m/h.</desc>
<speed>0.130000</speed>
</trkpt>
<trkpt lat="44.631207" lon="33.830799">
<ele>270.293213</ele>
<time>2011-10-10T12:06:33Z</time>
<desc>lat.=44.631207, lon.=33.830799, Alt.=270.293213m. Speed=0.684000m/h.</desc>
<speed>0.190000</speed>
</trkpt>
<trkpt lat="44.631214" lon="33.830791">
<ele>270.855713</ele>
<time>2011-10-10T12:06:38Z</time>
<desc>lat.=44.631214, lon.=33.830791, Alt.=270.855713m. Speed=0.396000m/h.</desc>
<speed>0.110000</speed>
</trkpt>
<trkpt lat="44.631214" lon="33.830788">
<ele>271.215088</ele>
<time>2011-10-10T12:06:43Z</time>
<desc>lat.=44.631214, lon.=33.830788, Alt.=271.215088m. Speed=0.288000m/h.</desc>
<speed>0.080000</speed>
</trkpt>
<trkpt lat="44.631210" lon="33.830772">
<ele>271.613525</ele>
<time>2011-10-10T12:06:48Z</time>
<desc>lat.=44.631210, lon.=33.830772, Alt.=271.613525m. Speed=0.252000m/h.</desc>
<speed>0.070000</speed>
</trkpt>
<trkpt lat="44.631218" lon="33.830746">
<ele>272.433838</ele>
<time>2011-10-10T12:06:53Z</time>
<desc>lat.=44.631218, lon.=33.830746, Alt.=272.433838m. Speed=0.468000m/h.</desc>
<speed>0.130000</speed>
</trkpt>
<trkpt lat="44.631203" lon="33.830753">
<ele>272.816650</ele>
<time>2011-10-10T12:06:58Z</time>
<desc>lat.=44.631203, lon.=33.830753, Alt.=272.816650m. Speed=0.072000m/h.</desc>
<speed>0.020000</speed>
</trkpt>
<trkpt lat="44.631195" lon="33.830757">
<ele>272.691650</ele>
<time>2011-10-10T12:07:03Z</time>
<desc>lat.=44.631195, lon.=33.830757, Alt.=272.691650m. Speed=0.000000m/h.</desc>
<speed>0.000000</speed>
</trkpt>
<trkpt lat="44.631187" lon="33.830765">
<ele>272.816650</ele>
<time>2011-10-10T12:07:08Z</time>
<desc>lat.=44.631187, lon.=33.830765, Alt.=272.816650m. Speed=0.036000m/h.</desc>
<speed>0.010000</speed>
</trkpt>
<trkpt lat="44.631184" lon="33.830769">
<ele>272.840088</ele>
<time>2011-10-10T12:07:13Z</time>
<desc>lat.=44.631184, lon.=33.830769, Alt.=272.840088m. Speed=0.000000m/h.</desc>
<speed>0.000000</speed>
</trkpt>
<trkpt lat="44.631184" lon="33.830769">
<ele>272.761963</ele>
<time>2011-10-10T12:07:18Z</time>
<desc>lat.=44.631184, lon.=33.830769, Alt.=272.761963m. Speed=0.000000m/h.</desc>
<speed>0.000000</speed>
</trkpt>
<trkpt lat="44.631184" lon="33.830769">
<ele>272.691650</ele>
<time>2011-10-10T12:07:23Z</time>
<desc>lat.=44.631184, lon.=33.830769, Alt.=272.691650m. Speed=0.072000m/h.</desc>
<speed>0.020000</speed>
</trkpt>
<trkpt lat="44.631184" lon="33.830769">
<ele>272.621338</ele>
<time>2011-10-10T12:07:28Z</time>
<desc>lat.=44.631184, lon.=33.830769, Alt.=272.621338m. Speed=0.072000m/h.</desc>
<speed>0.020000</speed>
</trkpt>
<trkpt lat="44.631184" lon="33.830769">
<ele>272.566650</ele>
<time>2011-10-10T12:07:33Z</time>
<desc>lat.=44.631184, lon.=33.830769, Alt.=272.566650m. Speed=0.072000m/h.</desc>
<speed>0.020000</speed>
</trkpt>
<trkpt lat="44.631184" lon="33.830769">
<ele>272.527588</ele>
<time>2011-10-10T12:07:38Z</time>
<desc>lat.=44.631184, lon.=33.830769, Alt.=272.527588m. Speed=0.036000m/h.</desc>
<speed>0.010000</speed>
</trkpt>
<trkpt lat="44.631184" lon="33.830769">
<ele>272.496338</ele>
<time>2011-10-10T12:07:43Z</time>
<desc>lat.=44.631184, lon.=33.830769, Alt.=272.496338m. Speed=0.216000m/h.</desc>
<speed>0.060000</speed>
</trkpt>
<trkpt lat="44.631180" lon="33.830772">
<ele>272.465088</ele>
<time>2011-10-10T12:07:48Z</time>
<desc>lat.=44.631180, lon.=33.830772, Alt.=272.465088m. Speed=0.360000m/h.</desc>
<speed>0.100000</speed>
</trkpt>
<trkpt lat="44.631176" lon="33.830780">
<ele>272.441650</ele>
<time>2011-10-10T12:07:53Z</time>
<desc>lat.=44.631176, lon.=33.830780, Alt.=272.441650m. Speed=0.648000m/h.</desc>
<speed>0.180000</speed>
</trkpt>
<trkpt lat="44.631168" lon="33.830791">
<ele>272.418213</ele>
<time>2011-10-10T12:07:58Z</time>
<desc>lat.=44.631168, lon.=33.830791, Alt.=272.418213m. Speed=0.972000m/h.</desc>
<speed>0.270000</speed>
</trkpt>
<trkpt lat="44.631161" lon="33.830803">
<ele>272.394775</ele>
<time>2011-10-10T12:08:03Z</time>
<desc>lat.=44.631161, lon.=33.830803, Alt.=272.394775m. Speed=0.576000m/h.</desc>
<speed>0.160000</speed>
</trkpt>
<trkpt lat="44.631157" lon="33.830811">
<ele>272.386963</ele>
<time>2011-10-10T12:08:08Z</time>
<desc>lat.=44.631157, lon.=33.830811, Alt.=272.386963m. Speed=0.432000m/h.</desc>
<speed>0.120000</speed>
</trkpt>
<trkpt lat="44.631153" lon="33.830814">
<ele>272.394775</ele>
<time>2011-10-10T12:08:13Z</time>
<desc>lat.=44.631153, lon.=33.830814, Alt.=272.394775m. Speed=0.036000m/h.</desc>
<speed>0.010000</speed>
</trkpt>
<trkpt lat="44.631157" lon="33.830811">
<ele>272.433838</ele>
<time>2011-10-10T12:08:18Z</time>
<desc>lat.=44.631157, lon.=33.830811, Alt.=272.433838m. Speed=0.000000m/h.</desc>
<speed>0.000000</speed>
</trkpt>
<trkpt lat="44.631157" lon="33.830811">
<ele>272.543213</ele>
<time>2011-10-10T12:08:23Z</time>
<desc>lat.=44.631157, lon.=33.830811, Alt.=272.543213m. Speed=0.144000m/h.</desc>
<speed>0.040000</speed>
</trkpt>
<trkpt lat="44.631157" lon="33.830811">
<ele>272.613525</ele>
<time>2011-10-10T12:08:28Z</time>
<desc>lat.=44.631157, lon.=33.830811, Alt.=272.613525m. Speed=0.000000m/h.</desc>
<speed>0.000000</speed>
</trkpt>
<trkpt lat="44.631157" lon="33.830811">
<ele>272.636963</ele>
<time>2011-10-10T12:08:33Z</time>
<desc>lat.=44.631157, lon.=33.830811, Alt.=272.636963m. Speed=0.180000m/h.</desc>
<speed>0.050000</speed>
</trkpt>
<trkpt lat="44.631153" lon="33.830811">
<ele>272.691650</ele>
<time>2011-10-10T12:08:38Z</time>
<desc>lat.=44.631153, lon.=33.830811, Alt.=272.691650m. Speed=0.396000m/h.</desc>
<speed>0.110000</speed>
</trkpt>
<trkpt lat="44.631145" lon="33.830814">
<ele>272.777588</ele>
<time>2011-10-10T12:08:43Z</time>
<desc>lat.=44.631145, lon.=33.830814, Alt.=272.777588m. Speed=0.396000m/h.</desc>
<speed>0.110000</speed>
</trkpt>
<trkpt lat="44.631142" lon="33.830814">
<ele>272.910400</ele>
<time>2011-10-10T12:08:48Z</time>
<desc>lat.=44.631142, lon.=33.830814, Alt.=272.910400m. Speed=0.072000m/h.</desc>
<speed>0.020000</speed>
</trkpt>
<trkpt lat="44.631145" lon="33.830814">
<ele>273.113525</ele>
<time>2011-10-10T12:08:53Z</time>
<desc>lat.=44.631145, lon.=33.830814, Alt.=273.113525m. Speed=0.216000m/h.</desc>
<speed>0.060000</speed>
</trkpt>
<trkpt lat="44.631145" lon="33.830814">
<ele>273.371338</ele>
<time>2011-10-10T12:08:58Z</time>
<desc>lat.=44.631145, lon.=33.830814, Alt.=273.371338m. Speed=0.108000m/h.</desc>
<speed>0.030000</speed>
</trkpt>
<trkpt lat="44.631145" lon="33.830818">
<ele>273.660400</ele>
<time>2011-10-10T12:09:03Z</time>
<desc>lat.=44.631145, lon.=33.830818, Alt.=273.660400m. Speed=0.252000m/h.</desc>
<speed>0.070000</speed>
</trkpt>
<trkpt lat="44.631145" lon="33.830826">
<ele>273.996338</ele>
<time>2011-10-10T12:09:08Z</time>
<desc>lat.=44.631145, lon.=33.830826, Alt.=273.996338m. Speed=0.324000m/h.</desc>
<speed>0.090000</speed>
</trkpt>
<trkpt lat="44.631145" lon="33.830833">
<ele>274.371338</ele>
<time>2011-10-10T12:09:13Z</time>
<desc>lat.=44.631145, lon.=33.830833, Alt.=274.371338m. Speed=0.540000m/h.</desc>
<speed>0.150000</speed>
</trkpt>
<trkpt lat="44.631142" lon="33.830841">
<ele>274.840088</ele>
<time>2011-10-10T12:09:18Z</time>
<desc>lat.=44.631142, lon.=33.830841, Alt.=274.840088m. Speed=0.324000m/h.</desc>
<speed>0.090000</speed>
</trkpt>
<trkpt lat="44.631142" lon="33.830845">
<ele>275.433838</ele>
<time>2011-10-10T12:09:23Z</time>
<desc>lat.=44.631142, lon.=33.830845, Alt.=275.433838m. Speed=0.072000m/h.</desc>
<speed>0.020000</speed>
</trkpt>
<trkpt lat="44.631142" lon="33.830841">
<ele>276.097900</ele>
<time>2011-10-10T12:09:28Z</time>
<desc>lat.=44.631142, lon.=33.830841, Alt.=276.097900m. Speed=0.216000m/h.</desc>
<speed>0.060000</speed>
</trkpt>
<trkpt lat="44.631142" lon="33.830833">
<ele>276.808838</ele>
<time>2011-10-10T12:09:33Z</time>
<desc>lat.=44.631142, lon.=33.830833, Alt.=276.808838m. Speed=0.324000m/h.</desc>
<speed>0.090000</speed>
</trkpt>
<trkpt lat="44.631142" lon="33.830830">
<ele>277.597900</ele>
<time>2011-10-10T12:09:38Z</time>
<desc>lat.=44.631142, lon.=33.830830, Alt.=277.597900m. Speed=0.072000m/h.</desc>
<speed>0.020000</speed>
</trkpt>
<trkpt lat="44.631142" lon="33.830837">
<ele>278.527588</ele>
<time>2011-10-10T12:09:43Z</time>
<desc>lat.=44.631142, lon.=33.830837, Alt.=278.527588m. Speed=0.396000m/h.</desc>
<speed>0.110000</speed>
</trkpt>
<trkpt lat="44.631142" lon="33.830845">
<ele>279.426025</ele>
<time>2011-10-10T12:09:48Z</time>
<desc>lat.=44.631142, lon.=33.830845, Alt.=279.426025m. Speed=0.396000m/h.</desc>
<speed>0.110000</speed>
</trkpt>
<trkpt lat="44.631142" lon="33.830853">
<ele>280.097900</ele>
<time>2011-10-10T12:09:53Z</time>
<desc>lat.=44.631142, lon.=33.830853, Alt.=280.097900m. Speed=0.396000m/h.</desc>
<speed>0.110000</speed>
</trkpt>
<trkpt lat="44.631138" lon="33.830860">
<ele>280.636963</ele>
<time>2011-10-10T12:09:58Z</time>
<desc>lat.=44.631138, lon.=33.830860, Alt.=280.636963m. Speed=0.468000m/h.</desc>
<speed>0.130000</speed>
</trkpt>
<trkpt lat="44.631138" lon="33.830868">
<ele>281.144775</ele>
<time>2011-10-10T12:10:03Z</time>
<desc>lat.=44.631138, lon.=33.830868, Alt.=281.144775m. Speed=0.576000m/h.</desc>
<speed>0.160000</speed>
</trkpt>
<trkpt lat="44.631130" lon="33.830879">
<ele>281.621338</ele>
<time>2011-10-10T12:10:08Z</time>
<desc>lat.=44.631130, lon.=33.830879, Alt.=281.621338m. Speed=0.900000m/h.</desc>
<speed>0.250000</speed>
</trkpt>
<trkpt lat="44.631123" lon="33.830891">
<ele>282.082275</ele>
<time>2011-10-10T12:10:13Z</time>
<desc>lat.=44.631123, lon.=33.830891, Alt.=282.082275m. Speed=1.116000m/h.</desc>
<speed>0.310000</speed>
</trkpt>
<trkpt lat="44.631096" lon="33.830906">
<ele>282.886963</ele>
<time>2011-10-10T12:10:18Z</time>
<desc>lat.=44.631096, lon.=33.830906, Alt.=282.886963m. Speed=1.332000m/h.</desc>
<speed>0.370000</speed>
</trkpt>
<trkpt lat="44.631065" lon="33.830887">
<ele>283.582275</ele>
<time>2011-10-10T12:10:23Z</time>
<desc>lat.=44.631065, lon.=33.830887, Alt.=283.582275m. Speed=1.188000m/h.</desc>
<speed>0.330000</speed>
</trkpt>
<trkpt lat="44.631035" lon="33.830845">
<ele>284.449463</ele>
<time>2011-10-10T12:10:28Z</time>
<desc>lat.=44.631035, lon.=33.830845, Alt.=284.449463m. Speed=1.296000m/h.</desc>
<speed>0.360000</speed>
</trkpt>
<trkpt lat="44.631020" lon="33.830833">
<ele>285.035400</ele>
<time>2011-10-10T12:10:33Z</time>
<desc>lat.=44.631020, lon.=33.830833, Alt.=285.035400m. Speed=1.080000m/h.</desc>
<speed>0.300000</speed>
</trkpt>
<trkpt lat="44.631012" lon="33.830822">
<ele>285.910400</ele>
<time>2011-10-10T12:10:38Z</time>
<desc>lat.=44.631012, lon.=33.830822, Alt.=285.910400m. Speed=0.828000m/h.</desc>
<speed>0.230000</speed>
</trkpt>
<trkpt lat="44.631062" lon="33.830853">
<ele>286.246338</ele>
<time>2011-10-10T12:10:43Z</time>
<desc>lat.=44.631062, lon.=33.830853, Alt.=286.246338m. Speed=0.000000m/h.</desc>
<speed>0.000000</speed>
</trkpt>
<trkpt lat="44.631081" lon="33.830856">
<ele>286.543213</ele>
<time>2011-10-10T12:10:48Z</time>
<desc>lat.=44.631081, lon.=33.830856, Alt.=286.543213m. Speed=0.180000m/h.</desc>
<speed>0.050000</speed>
</trkpt>
<trkpt lat="44.631115" lon="33.830849">
<ele>286.683838</ele>
<time>2011-10-10T12:10:53Z</time>
<desc>lat.=44.631115, lon.=33.830849, Alt.=286.683838m. Speed=0.324000m/h.</desc>
<speed>0.090000</speed>
</trkpt>
<trkpt lat="44.631107" lon="33.830833">
<ele>286.824463</ele>
<time>2011-10-10T12:10:58Z</time>
<desc>lat.=44.631107, lon.=33.830833, Alt.=286.824463m. Speed=0.504000m/h.</desc>
<speed>0.140000</speed>
</trkpt>
<trkpt lat="44.631104" lon="33.830833">
<ele>287.269775</ele>
<time>2011-10-10T12:11:03Z</time>
<desc>lat.=44.631104, lon.=33.830833, Alt.=287.269775m. Speed=0.720000m/h.</desc>
<speed>0.200000</speed>
</trkpt>
<trkpt lat="44.631107" lon="33.830845">
<ele>287.816650</ele>
<time>2011-10-10T12:11:08Z</time>
<desc>lat.=44.631107, lon.=33.830845, Alt.=287.816650m. Speed=0.288000m/h.</desc>
<speed>0.080000</speed>
</trkpt>
<trkpt lat="44.631088" lon="33.830894">
<ele>288.715088</ele>
<time>2011-10-10T12:11:13Z</time>
<desc>lat.=44.631088, lon.=33.830894, Alt.=288.715088m. Speed=0.324000m/h.</desc>
<speed>0.090000</speed>
</trkpt>
<trkpt lat="44.631069" lon="33.830898">
<ele>289.449463</ele>
<time>2011-10-10T12:11:18Z</time>
<desc>lat.=44.631069, lon.=33.830898, Alt.=289.449463m. Speed=0.252000m/h.</desc>
<speed>0.070000</speed>
</trkpt>
<trkpt lat="44.631062" lon="33.830864">
<ele>288.332275</ele>
<time>2011-10-10T12:11:23Z</time>
<desc>lat.=44.631062, lon.=33.830864, Alt.=288.332275m. Speed=0.432000m/h.</desc>
<speed>0.120000</speed>
</trkpt>
<trkpt lat="44.631065" lon="33.830856">
<ele>288.652588</ele>
<time>2011-10-10T12:11:28Z</time>
<desc>lat.=44.631065, lon.=33.830856, Alt.=288.652588m. Speed=1.008000m/h.</desc>
<speed>0.280000</speed>
</trkpt>
<trkpt lat="44.631104" lon="33.830837">
<ele>287.824463</ele>
<time>2011-10-10T12:11:33Z</time>
<desc>lat.=44.631104, lon.=33.830837, Alt.=287.824463m. Speed=1.188000m/h.</desc>
<speed>0.330000</speed>
</trkpt>
<trkpt lat="44.631119" lon="33.830845">
<ele>287.933838</ele>
<time>2011-10-10T12:11:38Z</time>
<desc>lat.=44.631119, lon.=33.830845, Alt.=287.933838m. Speed=0.432000m/h.</desc>
<speed>0.120000</speed>
</trkpt>
<trkpt lat="44.631119" lon="33.830841">
<ele>288.183838</ele>
<time>2011-10-10T12:11:43Z</time>
<desc>lat.=44.631119, lon.=33.830841, Alt.=288.183838m. Speed=0.180000m/h.</desc>
<speed>0.050000</speed>
</trkpt>
<trkpt lat="44.631119" lon="33.830833">
<ele>288.426025</ele>
<time>2011-10-10T12:11:48Z</time>
<desc>lat.=44.631119, lon.=33.830833, Alt.=288.426025m. Speed=0.000000m/h.</desc>
<speed>0.000000</speed>
</trkpt>
<trkpt lat="44.631119" lon="33.830833">
<ele>288.613525</ele>
<time>2011-10-10T12:11:53Z</time>
<desc>lat.=44.631119, lon.=33.830833, Alt.=288.613525m. Speed=0.000000m/h.</desc>
<speed>0.000000</speed>
</trkpt>
<trkpt lat="44.631119" lon="33.830833">
<ele>288.683838</ele>
<time>2011-10-10T12:11:58Z</time>
<desc>lat.=44.631119, lon.=33.830833, Alt.=288.683838m. Speed=0.000000m/h.</desc>
<speed>0.000000</speed>
</trkpt>
<trkpt lat="44.631119" lon="33.830833">
<ele>288.683838</ele>
<time>2011-10-10T12:12:03Z</time>
<desc>lat.=44.631119, lon.=33.830833, Alt.=288.683838m. Speed=0.000000m/h.</desc>
<speed>0.000000</speed>
</trkpt>
<trkpt lat="44.631119" lon="33.830830">
<ele>288.683838</ele>
<time>2011-10-10T12:12:08Z</time>
<desc>lat.=44.631119, lon.=33.830830, Alt.=288.683838m. Speed=0.036000m/h.</desc>
<speed>0.010000</speed>
</trkpt>
<trkpt lat="44.631119" lon="33.830830">
<ele>288.683838</ele>
<time>2011-10-10T12:12:13Z</time>
<desc>lat.=44.631119, lon.=33.830830, Alt.=288.683838m. Speed=0.036000m/h.</desc>
<speed>0.010000</speed>
</trkpt>
<trkpt lat="44.631119" lon="33.830830">
<ele>288.676025</ele>
<time>2011-10-10T12:12:18Z</time>
<desc>lat.=44.631119, lon.=33.830830, Alt.=288.676025m. Speed=0.000000m/h.</desc>
<speed>0.000000</speed>
</trkpt>
<trkpt lat="44.631119" lon="33.830830">
<ele>288.676025</ele>
<time>2011-10-10T12:12:23Z</time>
<desc>lat.=44.631119, lon.=33.830830, Alt.=288.676025m. Speed=0.000000m/h.</desc>
<speed>0.000000</speed>
</trkpt>
<trkpt lat="44.631119" lon="33.830830">
<ele>288.683838</ele>
<time>2011-10-10T12:12:28Z</time>
<desc>lat.=44.631119, lon.=33.830830, Alt.=288.683838m. Speed=0.000000m/h.</desc>
<speed>0.000000</speed>
</trkpt>
<trkpt lat="44.631119" lon="33.830830">
<ele>288.683838</ele>
<time>2011-10-10T12:12:33Z</time>
<desc>lat.=44.631119, lon.=33.830830, Alt.=288.683838m. Speed=0.000000m/h.</desc>
<speed>0.000000</speed>
</trkpt>
<trkpt lat="44.631119" lon="33.830830">
<ele>288.676025</ele>
<time>2011-10-10T12:12:38Z</time>
<desc>lat.=44.631119, lon.=33.830830, Alt.=288.676025m. Speed=0.000000m/h.</desc>
<speed>0.000000</speed>
</trkpt>
<trkpt lat="44.631119" lon="33.830830">
<ele>288.668213</ele>
<time>2011-10-10T12:12:43Z</time>
<desc>lat.=44.631119, lon.=33.830830, Alt.=288.668213m. Speed=0.072000m/h.</desc>
<speed>0.020000</speed>
</trkpt>
<trkpt lat="44.631119" lon="33.830830">
<ele>288.668213</ele>
<time>2011-10-10T12:12:48Z</time>
<desc>lat.=44.631119, lon.=33.830830, Alt.=288.668213m. Speed=0.036000m/h.</desc>
<speed>0.010000</speed>
</trkpt>
<trkpt lat="44.631119" lon="33.830830">
<ele>288.676025</ele>
<time>2011-10-10T12:12:53Z</time>
<desc>lat.=44.631119, lon.=33.830830, Alt.=288.676025m. Speed=0.000000m/h.</desc>
<speed>0.000000</speed>
</trkpt>
<trkpt lat="44.631119" lon="33.830830">
<ele>288.668213</ele>
<time>2011-10-10T12:12:58Z</time>
<desc>lat.=44.631119, lon.=33.830830, Alt.=288.668213m. Speed=0.036000m/h.</desc>
<speed>0.010000</speed>
</trkpt>
<trkpt lat="44.631119" lon="33.830826">
<ele>288.668213</ele>
<time>2011-10-10T12:13:03Z</time>
<desc>lat.=44.631119, lon.=33.830826, Alt.=288.668213m. Speed=0.072000m/h.</desc>
<speed>0.020000</speed>
</trkpt>
<trkpt lat="44.631115" lon="33.830826">
<ele>288.683838</ele>
<time>2011-10-10T12:13:08Z</time>
<desc>lat.=44.631115, lon.=33.830826, Alt.=288.683838m. Speed=0.036000m/h.</desc>
<speed>0.010000</speed>
</trkpt>
<trkpt lat="44.631115" lon="33.830826">
<ele>288.699463</ele>
<time>2011-10-10T12:13:13Z</time>
<desc>lat.=44.631115, lon.=33.830826, Alt.=288.699463m. Speed=0.000000m/h.</desc>
<speed>0.000000</speed>
</trkpt>
<trkpt lat="44.631115" lon="33.830826">
<ele>288.699463</ele>
<time>2011-10-10T12:13:18Z</time>
<desc>lat.=44.631115, lon.=33.830826, Alt.=288.699463m. Speed=0.072000m/h.</desc>
<speed>0.020000</speed>
</trkpt>
<trkpt lat="44.631115" lon="33.830826">
<ele>288.691650</ele>
<time>2011-10-10T12:13:23Z</time>
<desc>lat.=44.631115, lon.=33.830826, Alt.=288.691650m. Speed=0.000000m/h.</desc>
<speed>0.000000</speed>
</trkpt>
<trkpt lat="44.631115" lon="33.830826">
<ele>288.668213</ele>
<time>2011-10-10T12:13:28Z</time>
<desc>lat.=44.631115, lon.=33.830826, Alt.=288.668213m. Speed=0.036000m/h.</desc>
<speed>0.010000</speed>
</trkpt>
<trkpt lat="44.631115" lon="33.830826">
<ele>288.668213</ele>
<time>2011-10-10T12:13:33Z</time>
<desc>lat.=44.631115, lon.=33.830826, Alt.=288.668213m. Speed=0.000000m/h.</desc>
<speed>0.000000</speed>
</trkpt>
<trkpt lat="44.631115" lon="33.830826">
<ele>288.676025</ele>
<time>2011-10-10T12:13:38Z</time>
<desc>lat.=44.631115, lon.=33.830826, Alt.=288.676025m. Speed=0.072000m/h.</desc>
<speed>0.020000</speed>
</trkpt>
<trkpt lat="44.631115" lon="33.830826">
<ele>288.660400</ele>
<time>2011-10-10T12:13:43Z</time>
<desc>lat.=44.631115, lon.=33.830826, Alt.=288.660400m. Speed=0.036000m/h.</desc>
<speed>0.010000</speed>
</trkpt>
<trkpt lat="44.631115" lon="33.830826">
<ele>288.613525</ele>
<time>2011-10-10T12:13:48Z</time>
<desc>lat.=44.631115, lon.=33.830826, Alt.=288.613525m. Speed=0.036000m/h.</desc>
<speed>0.010000</speed>
</trkpt>
<trkpt lat="44.631115" lon="33.830826">
<ele>288.582275</ele>
<time>2011-10-10T12:13:53Z</time>
<desc>lat.=44.631115, lon.=33.830826, Alt.=288.582275m. Speed=0.252000m/h.</desc>
<speed>0.070000</speed>
</trkpt>
<trkpt lat="44.631115" lon="33.830826">
<ele>288.574463</ele>
<time>2011-10-10T12:13:58Z</time>
<desc>lat.=44.631115, lon.=33.830826, Alt.=288.574463m. Speed=0.180000m/h.</desc>
<speed>0.050000</speed>
</trkpt>
<trkpt lat="44.631115" lon="33.830826">
<ele>288.582275</ele>
<time>2011-10-10T12:14:03Z</time>
<desc>lat.=44.631115, lon.=33.830826, Alt.=288.582275m. Speed=0.108000m/h.</desc>
<speed>0.030000</speed>
</trkpt>
<trkpt lat="44.631119" lon="33.830811">
<ele>288.761963</ele>
<time>2011-10-10T12:14:08Z</time>
<desc>lat.=44.631119, lon.=33.830811, Alt.=288.761963m. Speed=0.972000m/h.</desc>
<speed>0.270000</speed>
</trkpt>
<trkpt lat="44.631119" lon="33.830784">
<ele>289.324463</ele>
<time>2011-10-10T12:14:13Z</time>
<desc>lat.=44.631119, lon.=33.830784, Alt.=289.324463m. Speed=1.440000m/h.</desc>
<speed>0.400000</speed>
</trkpt>
<trkpt lat="44.631111" lon="33.830761">
<ele>290.160400</ele>
<time>2011-10-10T12:14:18Z</time>
<desc>lat.=44.631111, lon.=33.830761, Alt.=290.160400m. Speed=1.332000m/h.</desc>
<speed>0.370000</speed>
</trkpt>
<trkpt lat="44.631119" lon="33.830738">
<ele>290.738525</ele>
<time>2011-10-10T12:14:23Z</time>
<desc>lat.=44.631119, lon.=33.830738, Alt.=290.738525m. Speed=3.132000m/h.</desc>
<speed>0.870000</speed>
</trkpt>
<trkpt lat="44.631187" lon="33.830673">
<ele>291.918213</ele>
<time>2011-10-10T12:14:28Z</time>
<desc>lat.=44.631187, lon.=33.830673, Alt.=291.918213m. Speed=8.532000m/h.</desc>
<speed>2.370000</speed>
</trkpt>
<trkpt lat="44.631283" lon="33.830654">
<ele>293.269775</ele>
<time>2011-10-10T12:14:33Z</time>
<desc>lat.=44.631283, lon.=33.830654, Alt.=293.269775m. Speed=0.936000m/h.</desc>
<speed>0.260000</speed>
</trkpt>
<trkpt lat="44.631317" lon="33.830666">
<ele>294.238525</ele>
<time>2011-10-10T12:14:38Z</time>
<desc>lat.=44.631317, lon.=33.830666, Alt.=294.238525m. Speed=0.828000m/h.</desc>
<speed>0.230000</speed>
</trkpt>
<trkpt lat="44.631321" lon="33.830666">
<ele>294.136963</ele>
<time>2011-10-10T12:14:43Z</time>
<desc>lat.=44.631321, lon.=33.830666, Alt.=294.136963m. Speed=0.324000m/h.</desc>
<speed>0.090000</speed>
</trkpt>
<trkpt lat="44.631340" lon="33.830666">
<ele>294.261963</ele>
<time>2011-10-10T12:14:48Z</time>
<desc>lat.=44.631340, lon.=33.830666, Alt.=294.261963m. Speed=2.592000m/h.</desc>
<speed>0.720000</speed>
</trkpt>
<trkpt lat="44.631371" lon="33.830639">
<ele>294.316650</ele>
<time>2011-10-10T12:14:53Z</time>
<desc>lat.=44.631371, lon.=33.830639, Alt.=294.316650m. Speed=1.800000m/h.</desc>
<speed>0.500000</speed>
</trkpt>
<trkpt lat="44.631428" lon="33.830647">
<ele>294.090088</ele>
<time>2011-10-10T12:14:58Z</time>
<desc>lat.=44.631428, lon.=33.830647, Alt.=294.090088m. Speed=2.952000m/h.</desc>
<speed>0.820000</speed>
</trkpt>
<trkpt lat="44.631458" lon="33.830605">
<ele>293.480713</ele>
<time>2011-10-10T12:15:03Z</time>
<desc>lat.=44.631458, lon.=33.830605, Alt.=293.480713m. Speed=2.016000m/h.</desc>
<speed>0.560000</speed>
</trkpt>
<trkpt lat="44.631470" lon="33.830582">
<ele>293.394775</ele>
<time>2011-10-10T12:15:08Z</time>
<desc>lat.=44.631470, lon.=33.830582, Alt.=293.394775m. Speed=1.944000m/h.</desc>
<speed>0.540000</speed>
</trkpt>
<trkpt lat="44.631557" lon="33.830536">
<ele>293.574463</ele>
<time>2011-10-10T12:15:13Z</time>
<desc>lat.=44.631557, lon.=33.830536, Alt.=293.574463m. Speed=9.036000m/h.</desc>
<speed>2.510000</speed>
</trkpt>
<trkpt lat="44.631649" lon="33.830513">
<ele>293.222900</ele>
<time>2011-10-10T12:15:18Z</time>
<desc>lat.=44.631649, lon.=33.830513, Alt.=293.222900m. Speed=7.488000m/h.</desc>
<speed>2.080000</speed>
</trkpt>
<trkpt lat="44.631714" lon="33.830441">
<ele>293.574463</ele>
<time>2011-10-10T12:15:23Z</time>
<desc>lat.=44.631714, lon.=33.830441, Alt.=293.574463m. Speed=7.596000m/h.</desc>
<speed>2.110000</speed>
</trkpt>
<trkpt lat="44.631798" lon="33.830410">
<ele>293.676025</ele>
<time>2011-10-10T12:15:28Z</time>
<desc>lat.=44.631798, lon.=33.830410, Alt.=293.676025m. Speed=3.096000m/h.</desc>
<speed>0.860000</speed>
</trkpt>
<trkpt lat="44.631886" lon="33.830421">
<ele>293.863525</ele>
<time>2011-10-10T12:15:33Z</time>
<desc>lat.=44.631886, lon.=33.830421, Alt.=293.863525m. Speed=4.284000m/h.</desc>
<speed>1.190000</speed>
</trkpt>
<trkpt lat="44.632004" lon="33.830460">
<ele>294.051025</ele>
<time>2011-10-10T12:15:38Z</time>
<desc>lat.=44.632004, lon.=33.830460, Alt.=294.051025m. Speed=3.852000m/h.</desc>
<speed>1.070000</speed>
</trkpt>
<trkpt lat="44.632130" lon="33.830395">
<ele>292.761963</ele>
<time>2011-10-10T12:15:43Z</time>
<desc>lat.=44.632130, lon.=33.830395, Alt.=292.761963m. Speed=1.404000m/h.</desc>
<speed>0.390000</speed>
</trkpt>
<trkpt lat="44.632244" lon="33.830399">
<ele>292.847900</ele>
<time>2011-10-10T12:15:48Z</time>
<desc>lat.=44.632244, lon.=33.830399, Alt.=292.847900m. Speed=3.744000m/h.</desc>
<speed>1.040000</speed>
</trkpt>
<trkpt lat="44.632305" lon="33.830387">
<ele>292.426025</ele>
<time>2011-10-10T12:15:53Z</time>
<desc>lat.=44.632305, lon.=33.830387, Alt.=292.426025m. Speed=0.252000m/h.</desc>
<speed>0.070000</speed>
</trkpt>
<trkpt lat="44.632339" lon="33.830448">
<ele>292.629150</ele>
<time>2011-10-10T12:15:58Z</time>
<desc>lat.=44.632339, lon.=33.830448, Alt.=292.629150m. Speed=1.224000m/h.</desc>
<speed>0.340000</speed>
</trkpt>
<trkpt lat="44.632370" lon="33.830540">
<ele>292.894775</ele>
<time>2011-10-10T12:16:03Z</time>
<desc>lat.=44.632370, lon.=33.830540, Alt.=292.894775m. Speed=2.160000m/h.</desc>
<speed>0.600000</speed>
</trkpt>
<trkpt lat="44.632435" lon="33.830643">
<ele>293.683838</ele>
<time>2011-10-10T12:16:08Z</time>
<desc>lat.=44.632435, lon.=33.830643, Alt.=293.683838m. Speed=2.880000m/h.</desc>
<speed>0.800000</speed>
</trkpt>
<trkpt lat="44.632450" lon="33.830772">
<ele>294.590088</ele>
<time>2011-10-10T12:16:13Z</time>
<desc>lat.=44.632450, lon.=33.830772, Alt.=294.590088m. Speed=3.132000m/h.</desc>
<speed>0.870000</speed>
</trkpt>
<trkpt lat="44.632511" lon="33.830975">
<ele>295.230713</ele>
<time>2011-10-10T12:16:18Z</time>
<desc>lat.=44.632511, lon.=33.830975, Alt.=295.230713m. Speed=4.140000m/h.</desc>
<speed>1.150000</speed>
</trkpt>
<trkpt lat="44.632675" lon="33.831345">
<ele>295.144775</ele>
<time>2011-10-10T12:16:23Z</time>
<desc>lat.=44.632675, lon.=33.831345, Alt.=295.144775m. Speed=3.600000m/h.</desc>
<speed>1.000000</speed>
</trkpt>
<trkpt lat="44.632698" lon="33.831387">
<ele>294.761963</ele>
<time>2011-10-10T12:16:28Z</time>
<desc>lat.=44.632698, lon.=33.831387, Alt.=294.761963m. Speed=2.376000m/h.</desc>
<speed>0.660000</speed>
</trkpt>
<trkpt lat="44.632786" lon="33.831516">
<ele>294.574463</ele>
<time>2011-10-10T12:16:33Z</time>
<desc>lat.=44.632786, lon.=33.831516, Alt.=294.574463m. Speed=3.816000m/h.</desc>
<speed>1.060000</speed>
</trkpt>
<trkpt lat="44.632748" lon="33.831562">
<ele>293.722900</ele>
<time>2011-10-10T12:16:38Z</time>
<desc>lat.=44.632748, lon.=33.831562, Alt.=293.722900m. Speed=2.628000m/h.</desc>
<speed>0.730000</speed>
</trkpt>
<trkpt lat="44.632740" lon="33.831604">
<ele>293.410400</ele>
<time>2011-10-10T12:16:43Z</time>
<desc>lat.=44.632740, lon.=33.831604, Alt.=293.410400m. Speed=1.728000m/h.</desc>
<speed>0.480000</speed>
</trkpt>
<trkpt lat="44.632751" lon="33.831627">
<ele>293.340088</ele>
<time>2011-10-10T12:16:48Z</time>
<desc>lat.=44.632751, lon.=33.831627, Alt.=293.340088m. Speed=1.224000m/h.</desc>
<speed>0.340000</speed>
</trkpt>
<trkpt lat="44.632759" lon="33.831646">
<ele>293.246338</ele>
<time>2011-10-10T12:16:53Z</time>
<desc>lat.=44.632759, lon.=33.831646, Alt.=293.246338m. Speed=1.188000m/h.</desc>
<speed>0.330000</speed>
</trkpt>
<trkpt lat="44.632778" lon="33.831722">
<ele>292.988525</ele>
<time>2011-10-10T12:16:58Z</time>
<desc>lat.=44.632778, lon.=33.831722, Alt.=292.988525m. Speed=1.224000m/h.</desc>
<speed>0.340000</speed>
</trkpt>
<trkpt lat="44.632774" lon="33.831745">
<ele>292.011963</ele>
<time>2011-10-10T12:17:03Z</time>
<desc>lat.=44.632774, lon.=33.831745, Alt.=292.011963m. Speed=0.468000m/h.</desc>
<speed>0.130000</speed>
</trkpt>
<trkpt lat="44.632778" lon="33.831757">
<ele>292.004150</ele>
<time>2011-10-10T12:17:08Z</time>
<desc>lat.=44.632778, lon.=33.831757, Alt.=292.004150m. Speed=0.792000m/h.</desc>
<speed>0.220000</speed>
</trkpt>
<trkpt lat="44.632774" lon="33.831768">
<ele>291.988525</ele>
<time>2011-10-10T12:17:13Z</time>
<desc>lat.=44.632774, lon.=33.831768, Alt.=291.988525m. Speed=0.828000m/h.</desc>
<speed>0.230000</speed>
</trkpt>
<trkpt lat="44.632782" lon="33.831779">
<ele>291.972900</ele>
<time>2011-10-10T12:17:18Z</time>
<desc>lat.=44.632782, lon.=33.831779, Alt.=291.972900m. Speed=0.792000m/h.</desc>
<speed>0.220000</speed>
</trkpt>
<trkpt lat="44.632782" lon="33.831795">
<ele>291.957275</ele>
<time>2011-10-10T12:17:23Z</time>
<desc>lat.=44.632782, lon.=33.831795, Alt.=291.957275m. Speed=1.116000m/h.</desc>
<speed>0.310000</speed>
</trkpt>
<trkpt lat="44.632797" lon="33.831795">
<ele>291.707275</ele>
<time>2011-10-10T12:17:28Z</time>
<desc>lat.=44.632797, lon.=33.831795, Alt.=291.707275m. Speed=0.756000m/h.</desc>
<speed>0.210000</speed>
</trkpt>
<trkpt lat="44.632801" lon="33.831799">
<ele>291.683838</ele>
<time>2011-10-10T12:17:33Z</time>
<desc>lat.=44.632801, lon.=33.831799, Alt.=291.683838m. Speed=0.504000m/h.</desc>
<speed>0.140000</speed>
</trkpt>
<trkpt lat="44.632805" lon="33.831806">
<ele>291.652588</ele>
<time>2011-10-10T12:17:38Z</time>
<desc>lat.=44.632805, lon.=33.831806, Alt.=291.652588m. Speed=0.648000m/h.</desc>
<speed>0.180000</speed>
</trkpt>
<trkpt lat="44.632805" lon="33.831814">
<ele>291.644775</ele>
<time>2011-10-10T12:17:43Z</time>
<desc>lat.=44.632805, lon.=33.831814, Alt.=291.644775m. Speed=0.396000m/h.</desc>
<speed>0.110000</speed>
</trkpt>
<trkpt lat="44.632809" lon="33.831814">
<ele>291.605713</ele>
<time>2011-10-10T12:17:48Z</time>
<desc>lat.=44.632809, lon.=33.831814, Alt.=291.605713m. Speed=0.612000m/h.</desc>
<speed>0.170000</speed>
</trkpt>
<trkpt lat="44.632801" lon="33.831802">
<ele>291.027588</ele>
<time>2011-10-10T12:17:53Z</time>
<desc>lat.=44.632801, lon.=33.831802, Alt.=291.027588m. Speed=1.116000m/h.</desc>
<speed>0.310000</speed>
</trkpt>
<trkpt lat="44.632782" lon="33.831799">
<ele>289.972900</ele>
<time>2011-10-10T12:17:58Z</time>
<desc>lat.=44.632782, lon.=33.831799, Alt.=289.972900m. Speed=0.360000m/h.</desc>
<speed>0.100000</speed>
</trkpt>
<trkpt lat="44.632774" lon="33.831799">
<ele>289.918213</ele>
<time>2011-10-10T12:18:03Z</time>
<desc>lat.=44.632774, lon.=33.831799, Alt.=289.918213m. Speed=0.900000m/h.</desc>
<speed>0.250000</speed>
</trkpt>
<trkpt lat="44.632763" lon="33.831776">
<ele>289.785400</ele>
<time>2011-10-10T12:18:08Z</time>
<desc>lat.=44.632763, lon.=33.831776, Alt.=289.785400m. Speed=1.332000m/h.</desc>
<speed>0.370000</speed>
</trkpt>
<trkpt lat="44.632771" lon="33.831726">
<ele>289.519775</ele>
<time>2011-10-10T12:18:13Z</time>
<desc>lat.=44.632771, lon.=33.831726, Alt.=289.519775m. Speed=1.620000m/h.</desc>
<speed>0.450000</speed>
</trkpt>
<trkpt lat="44.632778" lon="33.831699">
<ele>289.332275</ele>
<time>2011-10-10T12:18:18Z</time>
<desc>lat.=44.632778, lon.=33.831699, Alt.=289.332275m. Speed=0.972000m/h.</desc>
<speed>0.270000</speed>
</trkpt>
<trkpt lat="44.632813" lon="33.831676">
<ele>289.465088</ele>
<time>2011-10-10T12:18:23Z</time>
<desc>lat.=44.632813, lon.=33.831676, Alt.=289.465088m. Speed=0.792000m/h.</desc>
<speed>0.220000</speed>
</trkpt>
<trkpt lat="44.632813" lon="33.831669">
<ele>289.480713</ele>
<time>2011-10-10T12:18:28Z</time>
<desc>lat.=44.632813, lon.=33.831669, Alt.=289.480713m. Speed=0.936000m/h.</desc>
<speed>0.260000</speed>
</trkpt>
<trkpt lat="44.632843" lon="33.831608">
<ele>289.410400</ele>
<time>2011-10-10T12:18:33Z</time>
<desc>lat.=44.632843, lon.=33.831608, Alt.=289.410400m. Speed=1.260000m/h.</desc>
<speed>0.350000</speed>
</trkpt>
<trkpt lat="44.632843" lon="33.831505">
<ele>289.371338</ele>
<time>2011-10-10T12:18:38Z</time>
<desc>lat.=44.632843, lon.=33.831505, Alt.=289.371338m. Speed=3.024000m/h.</desc>
<speed>0.840000</speed>
</trkpt>
<trkpt lat="44.632866" lon="33.831402">
<ele>289.418213</ele>
<time>2011-10-10T12:18:43Z</time>
<desc>lat.=44.632866, lon.=33.831402, Alt.=289.418213m. Speed=1.728000m/h.</desc>
<speed>0.480000</speed>
</trkpt>
<trkpt lat="44.633049" lon="33.831295">
<ele>288.941650</ele>
<time>2011-10-10T12:18:48Z</time>
<desc>lat.=44.633049, lon.=33.831295, Alt.=288.941650m. Speed=1.836000m/h.</desc>
<speed>0.510000</speed>
</trkpt>
<trkpt lat="44.633083" lon="33.831253">
<ele>288.816650</ele>
<time>2011-10-10T12:18:53Z</time>
<desc>lat.=44.633083, lon.=33.831253, Alt.=288.816650m. Speed=0.504000m/h.</desc>
<speed>0.140000</speed>
</trkpt>
<trkpt lat="44.633087" lon="33.831253">
<ele>288.832275</ele>
<time>2011-10-10T12:18:58Z</time>
<desc>lat.=44.633087, lon.=33.831253, Alt.=288.832275m. Speed=0.216000m/h.</desc>
<speed>0.060000</speed>
</trkpt>
<trkpt lat="44.633087" lon="33.831257">
<ele>288.824463</ele>
<time>2011-10-10T12:19:03Z</time>
<desc>lat.=44.633087, lon.=33.831257, Alt.=288.824463m. Speed=0.216000m/h.</desc>
<speed>0.060000</speed>
</trkpt>
<trkpt lat="44.633095" lon="33.831249">
<ele>288.816650</ele>
<time>2011-10-10T12:19:08Z</time>
<desc>lat.=44.633095, lon.=33.831249, Alt.=288.816650m. Speed=1.404000m/h.</desc>
<speed>0.390000</speed>
</trkpt>
<trkpt lat="44.633083" lon="33.831181">
<ele>288.613525</ele>
<time>2011-10-10T12:19:13Z</time>
<desc>lat.=44.633083, lon.=33.831181, Alt.=288.613525m. Speed=1.980000m/h.</desc>
<speed>0.550000</speed>
</trkpt>
<trkpt lat="44.633083" lon="33.831093">
<ele>288.355713</ele>
<time>2011-10-10T12:19:18Z</time>
<desc>lat.=44.633083, lon.=33.831093, Alt.=288.355713m. Speed=2.556000m/h.</desc>
<speed>0.710000</speed>
</trkpt>
<trkpt lat="44.633121" lon="33.830990">
<ele>288.144775</ele>
<time>2011-10-10T12:19:23Z</time>
<desc>lat.=44.633121, lon.=33.830990, Alt.=288.144775m. Speed=2.484000m/h.</desc>
<speed>0.690000</speed>
</trkpt>
<trkpt lat="44.633114" lon="33.830883">
<ele>288.004150</ele>
<time>2011-10-10T12:19:28Z</time>
<desc>lat.=44.633114, lon.=33.830883, Alt.=288.004150m. Speed=3.132000m/h.</desc>
<speed>0.870000</speed>
</trkpt>
<trkpt lat="44.633053" lon="33.830750">
<ele>287.746338</ele>
<time>2011-10-10T12:19:33Z</time>
<desc>lat.=44.633053, lon.=33.830750, Alt.=287.746338m. Speed=4.032000m/h.</desc>
<speed>1.120000</speed>
</trkpt>
<trkpt lat="44.633038" lon="33.830677">
<ele>287.621338</ele>
<time>2011-10-10T12:19:38Z</time>
<desc>lat.=44.633038, lon.=33.830677, Alt.=287.621338m. Speed=2.952000m/h.</desc>
<speed>0.820000</speed>
</trkpt>
<trkpt lat="44.633080" lon="33.830578">
<ele>287.340088</ele>
<time>2011-10-10T12:19:43Z</time>
<desc>lat.=44.633080, lon.=33.830578, Alt.=287.340088m. Speed=3.528000m/h.</desc>
<speed>0.980000</speed>
</trkpt>
<trkpt lat="44.633118" lon="33.830544">
<ele>286.902588</ele>
<time>2011-10-10T12:19:48Z</time>
<desc>lat.=44.633118, lon.=33.830544, Alt.=286.902588m. Speed=2.988000m/h.</desc>
<speed>0.830000</speed>
</trkpt>
<trkpt lat="44.633148" lon="33.830498">
<ele>285.746338</ele>
<time>2011-10-10T12:19:53Z</time>
<desc>lat.=44.633148, lon.=33.830498, Alt.=285.746338m. Speed=0.828000m/h.</desc>
<speed>0.230000</speed>
</trkpt>
<trkpt lat="44.633167" lon="33.830475">
<ele>285.457275</ele>
<time>2011-10-10T12:19:58Z</time>
<desc>lat.=44.633167, lon.=33.830475, Alt.=285.457275m. Speed=0.612000m/h.</desc>
<speed>0.170000</speed>
</trkpt>
<trkpt lat="44.633171" lon="33.830479">
<ele>285.465088</ele>
<time>2011-10-10T12:20:03Z</time>
<desc>lat.=44.633171, lon.=33.830479, Alt.=285.465088m. Speed=0.072000m/h.</desc>
<speed>0.020000</speed>
</trkpt>
<trkpt lat="44.633179" lon="33.830482">
<ele>285.426025</ele>
<time>2011-10-10T12:20:08Z</time>
<desc>lat.=44.633179, lon.=33.830482, Alt.=285.426025m. Speed=0.396000m/h.</desc>
<speed>0.110000</speed>
</trkpt>
<trkpt lat="44.633183" lon="33.830482">
<ele>285.324463</ele>
<time>2011-10-10T12:20:13Z</time>
<desc>lat.=44.633183, lon.=33.830482, Alt.=285.324463m. Speed=0.252000m/h.</desc>
<speed>0.070000</speed>
</trkpt>
<trkpt lat="44.633190" lon="33.830482">
<ele>285.207275</ele>
<time>2011-10-10T12:20:18Z</time>
<desc>lat.=44.633190, lon.=33.830482, Alt.=285.207275m. Speed=0.504000m/h.</desc>
<speed>0.140000</speed>
</trkpt>
<trkpt lat="44.633198" lon="33.830482">
<ele>284.980713</ele>
<time>2011-10-10T12:20:23Z</time>
<desc>lat.=44.633198, lon.=33.830482, Alt.=284.980713m. Speed=0.612000m/h.</desc>
<speed>0.170000</speed>
</trkpt>
<trkpt lat="44.633205" lon="33.830486">
<ele>284.660400</ele>
<time>2011-10-10T12:20:28Z</time>
<desc>lat.=44.633205, lon.=33.830486, Alt.=284.660400m. Speed=0.324000m/h.</desc>
<speed>0.090000</speed>
</trkpt>
<trkpt lat="44.633209" lon="33.830479">
<ele>284.285400</ele>
<time>2011-10-10T12:20:33Z</time>
<desc>lat.=44.633209, lon.=33.830479, Alt.=284.285400m. Speed=0.756000m/h.</desc>
<speed>0.210000</speed>
</trkpt>
<trkpt lat="44.633205" lon="33.830479">
<ele>284.082275</ele>
<time>2011-10-10T12:20:38Z</time>
<desc>lat.=44.633205, lon.=33.830479, Alt.=284.082275m. Speed=0.360000m/h.</desc>
<speed>0.100000</speed>
</trkpt>
<trkpt lat="44.633213" lon="33.830463">
<ele>283.629150</ele>
<time>2011-10-10T12:20:43Z</time>
<desc>lat.=44.633213, lon.=33.830463, Alt.=283.629150m. Speed=1.116000m/h.</desc>
<speed>0.310000</speed>
</trkpt>
<trkpt lat="44.633286" lon="33.830379">
<ele>283.035400</ele>
<time>2011-10-10T12:20:48Z</time>
<desc>lat.=44.633286, lon.=33.830379, Alt.=283.035400m. Speed=7.452000m/h.</desc>
<speed>2.070000</speed>
</trkpt>
<trkpt lat="44.633339" lon="33.830334">
<ele>282.722900</ele>
<time>2011-10-10T12:20:53Z</time>
<desc>lat.=44.633339, lon.=33.830334, Alt.=282.722900m. Speed=2.736000m/h.</desc>
<speed>0.760000</speed>
</trkpt>
<trkpt lat="44.633400" lon="33.830349">
<ele>281.379150</ele>
<time>2011-10-10T12:20:58Z</time>
<desc>lat.=44.633400, lon.=33.830349, Alt.=281.379150m. Speed=2.232000m/h.</desc>
<speed>0.620000</speed>
</trkpt>
<trkpt lat="44.633427" lon="33.830303">
<ele>280.113525</ele>
<time>2011-10-10T12:21:03Z</time>
<desc>lat.=44.633427, lon.=33.830303, Alt.=280.113525m. Speed=0.144000m/h.</desc>
<speed>0.040000</speed>
</trkpt>
<trkpt lat="44.633442" lon="33.830315">
<ele>279.613525</ele>
<time>2011-10-10T12:21:08Z</time>
<desc>lat.=44.633442, lon.=33.830315, Alt.=279.613525m. Speed=0.252000m/h.</desc>
<speed>0.070000</speed>
</trkpt>
<trkpt lat="44.633465" lon="33.830284">
<ele>278.746338</ele>
<time>2011-10-10T12:21:13Z</time>
<desc>lat.=44.633465, lon.=33.830284, Alt.=278.746338m. Speed=0.504000m/h.</desc>
<speed>0.140000</speed>
</trkpt>
<trkpt lat="44.633492" lon="33.830250">
<ele>277.386963</ele>
<time>2011-10-10T12:21:18Z</time>
<desc>lat.=44.633492, lon.=33.830250, Alt.=277.386963m. Speed=0.072000m/h.</desc>
<speed>0.020000</speed>
</trkpt>
<trkpt lat="44.633537" lon="33.830227">
<ele>275.777588</ele>
<time>2011-10-10T12:21:23Z</time>
<desc>lat.=44.633537, lon.=33.830227, Alt.=275.777588m. Speed=1.044000m/h.</desc>
<speed>0.290000</speed>
</trkpt>
<trkpt lat="44.633560" lon="33.830200">
<ele>274.254150</ele>
<time>2011-10-10T12:21:28Z</time>
<desc>lat.=44.633560, lon.=33.830200, Alt.=274.254150m. Speed=1.764000m/h.</desc>
<speed>0.490000</speed>
</trkpt>
<trkpt lat="44.633572" lon="33.830189">
<ele>272.582275</ele>
<time>2011-10-10T12:21:33Z</time>
<desc>lat.=44.633572, lon.=33.830189, Alt.=272.582275m. Speed=1.116000m/h.</desc>
<speed>0.310000</speed>
</trkpt>
<trkpt lat="44.633598" lon="33.830151">
<ele>271.511963</ele>
<time>2011-10-10T12:21:38Z</time>
<desc>lat.=44.633598, lon.=33.830151, Alt.=271.511963m. Speed=1.080000m/h.</desc>
<speed>0.300000</speed>
</trkpt>
<trkpt lat="44.633629" lon="33.830097">
<ele>270.410400</ele>
<time>2011-10-10T12:21:43Z</time>
<desc>lat.=44.633629, lon.=33.830097, Alt.=270.410400m. Speed=1.332000m/h.</desc>
<speed>0.370000</speed>
</trkpt>
<trkpt lat="44.633667" lon="33.829987">
<ele>269.371338</ele>
<time>2011-10-10T12:21:48Z</time>
<desc>lat.=44.633667, lon.=33.829987, Alt.=269.371338m. Speed=2.412000m/h.</desc>
<speed>0.670000</speed>
</trkpt>
<trkpt lat="44.633690" lon="33.829880">
<ele>268.558838</ele>
<time>2011-10-10T12:21:53Z</time>
<desc>lat.=44.633690, lon.=33.829880, Alt.=268.558838m. Speed=1.872000m/h.</desc>
<speed>0.520000</speed>
</trkpt>
<trkpt lat="44.633709" lon="33.829800">
<ele>267.176025</ele>
<time>2011-10-10T12:21:58Z</time>
<desc>lat.=44.633709, lon.=33.829800, Alt.=267.176025m. Speed=2.304000m/h.</desc>
<speed>0.640000</speed>
</trkpt>
<trkpt lat="44.633755" lon="33.829731">
<ele>265.816650</ele>
<time>2011-10-10T12:22:03Z</time>
<desc>lat.=44.633755, lon.=33.829731, Alt.=265.816650m. Speed=6.048000m/h.</desc>
<speed>1.680000</speed>
</trkpt>
<trkpt lat="44.633820" lon="33.829727">
<ele>264.871338</ele>
<time>2011-10-10T12:22:08Z</time>
<desc>lat.=44.633820, lon.=33.829727, Alt.=264.871338m. Speed=2.808000m/h.</desc>
<speed>0.780000</speed>
</trkpt>
<trkpt lat="44.633919" lon="33.829731">
<ele>264.691650</ele>
<time>2011-10-10T12:22:13Z</time>
<desc>lat.=44.633919, lon.=33.829731, Alt.=264.691650m. Speed=4.140000m/h.</desc>
<speed>1.150000</speed>
</trkpt>
<trkpt lat="44.634052" lon="33.829803">
<ele>264.941650</ele>
<time>2011-10-10T12:22:18Z</time>
<desc>lat.=44.634052, lon.=33.829803, Alt.=264.941650m. Speed=0.576000m/h.</desc>
<speed>0.160000</speed>
</trkpt>
<trkpt lat="44.634125" lon="33.829830">
<ele>264.386963</ele>
<time>2011-10-10T12:22:23Z</time>
<desc>lat.=44.634125, lon.=33.829830, Alt.=264.386963m. Speed=1.404000m/h.</desc>
<speed>0.390000</speed>
</trkpt>
<trkpt lat="44.634144" lon="33.829773">
<ele>263.769775</ele>
<time>2011-10-10T12:22:28Z</time>
<desc>lat.=44.634144, lon.=33.829773, Alt.=263.769775m. Speed=0.252000m/h.</desc>
<speed>0.070000</speed>
</trkpt>
<trkpt lat="44.634193" lon="33.829735">
<ele>263.746338</ele>
<time>2011-10-10T12:22:33Z</time>
<desc>lat.=44.634193, lon.=33.829735, Alt.=263.746338m. Speed=8.172000m/h.</desc>
<speed>2.270000</speed>
</trkpt>
<trkpt lat="44.634304" lon="33.829639">
<ele>263.496338</ele>
<time>2011-10-10T12:22:38Z</time>
<desc>lat.=44.634304, lon.=33.829639, Alt.=263.496338m. Speed=6.084000m/h.</desc>
<speed>1.690000</speed>
</trkpt>
<trkpt lat="44.634388" lon="33.829620">
<ele>263.191650</ele>
<time>2011-10-10T12:22:43Z</time>
<desc>lat.=44.634388, lon.=33.829620, Alt.=263.191650m. Speed=0.864000m/h.</desc>
<speed>0.240000</speed>
</trkpt>
<trkpt lat="44.634426" lon="33.829578">
<ele>262.058838</ele>
<time>2011-10-10T12:22:48Z</time>
<desc>lat.=44.634426, lon.=33.829578, Alt.=262.058838m. Speed=0.540000m/h.</desc>
<speed>0.150000</speed>
</trkpt>
<trkpt lat="44.634430" lon="33.829582">
<ele>262.894775</ele>
<time>2011-10-10T12:22:53Z</time>
<desc>lat.=44.634430, lon.=33.829582, Alt.=262.894775m. Speed=0.108000m/h.</desc>
<speed>0.030000</speed>
</trkpt>
<trkpt lat="44.634426" lon="33.829582">
<ele>263.519775</ele>
<time>2011-10-10T12:22:58Z</time>
<desc>lat.=44.634426, lon.=33.829582, Alt.=263.519775m. Speed=0.828000m/h.</desc>
<speed>0.230000</speed>
</trkpt>
<trkpt lat="44.634430" lon="33.829578">
<ele>263.824463</ele>
<time>2011-10-10T12:23:03Z</time>
<desc>lat.=44.634430, lon.=33.829578, Alt.=263.824463m. Speed=0.468000m/h.</desc>
<speed>0.130000</speed>
</trkpt>
<trkpt lat="44.634434" lon="33.829575">
<ele>263.871338</ele>
<time>2011-10-10T12:23:08Z</time>
<desc>lat.=44.634434, lon.=33.829575, Alt.=263.871338m. Speed=0.108000m/h.</desc>
<speed>0.030000</speed>
</trkpt>
<trkpt lat="44.634438" lon="33.829567">
<ele>263.855713</ele>
<time>2011-10-10T12:23:13Z</time>
<desc>lat.=44.634438, lon.=33.829567, Alt.=263.855713m. Speed=0.360000m/h.</desc>
<speed>0.100000</speed>
</trkpt>
<trkpt lat="44.634441" lon="33.829563">
<ele>263.816650</ele>
<time>2011-10-10T12:23:18Z</time>
<desc>lat.=44.634441, lon.=33.829563, Alt.=263.816650m. Speed=1.008000m/h.</desc>
<speed>0.280000</speed>
</trkpt>
<trkpt lat="44.634464" lon="33.829525">
<ele>262.957275</ele>
<time>2011-10-10T12:23:23Z</time>
<desc>lat.=44.634464, lon.=33.829525, Alt.=262.957275m. Speed=1.044000m/h.</desc>
<speed>0.290000</speed>
</trkpt>
<trkpt lat="44.634518" lon="33.829449">
<ele>261.308838</ele>
<time>2011-10-10T12:23:28Z</time>
<desc>lat.=44.634518, lon.=33.829449, Alt.=261.308838m. Speed=1.368000m/h.</desc>
<speed>0.380000</speed>
</trkpt>
<trkpt lat="44.634598" lon="33.829361">
<ele>259.254150</ele>
<time>2011-10-10T12:23:33Z</time>
<desc>lat.=44.634598, lon.=33.829361, Alt.=259.254150m. Speed=1.656000m/h.</desc>
<speed>0.460000</speed>
</trkpt>
<trkpt lat="44.634621" lon="33.829323">
<ele>258.246338</ele>
<time>2011-10-10T12:23:38Z</time>
<desc>lat.=44.634621, lon.=33.829323, Alt.=258.246338m. Speed=1.404000m/h.</desc>
<speed>0.390000</speed>
</trkpt>
<trkpt lat="44.634624" lon="33.829311">
<ele>256.863525</ele>
<time>2011-10-10T12:23:43Z</time>
<desc>lat.=44.634624, lon.=33.829311, Alt.=256.863525m. Speed=0.792000m/h.</desc>
<speed>0.220000</speed>
</trkpt>
<trkpt lat="44.634640" lon="33.829304">
<ele>256.230713</ele>
<time>2011-10-10T12:23:48Z</time>
<desc>lat.=44.634640, lon.=33.829304, Alt.=256.230713m. Speed=0.900000m/h.</desc>
<speed>0.250000</speed>
</trkpt>
<trkpt lat="44.634647" lon="33.829292">
<ele>256.144775</ele>
<time>2011-10-10T12:23:53Z</time>
<desc>lat.=44.634647, lon.=33.829292, Alt.=256.144775m. Speed=0.612000m/h.</desc>
<speed>0.170000</speed>
</trkpt>
<trkpt lat="44.634670" lon="33.829334">
<ele>252.740356</ele>
<time>2011-10-10T12:23:58Z</time>
<desc>lat.=44.634670, lon.=33.829334, Alt.=252.740356m. Speed=0.468000m/h.</desc>
<speed>0.130000</speed>
</trkpt>
<trkpt lat="44.634674" lon="33.829357">
<ele>249.689575</ele>
<time>2011-10-10T12:24:03Z</time>
<desc>lat.=44.634674, lon.=33.829357, Alt.=249.689575m. Speed=0.216000m/h.</desc>
<speed>0.060000</speed>
</trkpt>
<trkpt lat="44.634686" lon="33.829350">
<ele>248.966919</ele>
<time>2011-10-10T12:24:08Z</time>
<desc>lat.=44.634686, lon.=33.829350, Alt.=248.966919m. Speed=0.720000m/h.</desc>
<speed>0.200000</speed>
</trkpt>
<trkpt lat="44.634708" lon="33.829342">
<ele>248.033325</ele>
<time>2011-10-10T12:24:13Z</time>
<desc>lat.=44.634708, lon.=33.829342, Alt.=248.033325m. Speed=1.476000m/h.</desc>
<speed>0.410000</speed>
</trkpt>
<trkpt lat="44.634777" lon="33.829170">
<ele>247.474731</ele>
<time>2011-10-10T12:24:18Z</time>
<desc>lat.=44.634777, lon.=33.829170, Alt.=247.474731m. Speed=17.927999m/h.</desc>
<speed>4.980000</speed>
</trkpt>
<trkpt lat="44.634857" lon="33.828976">
<ele>247.931763</ele>
<time>2011-10-10T12:24:23Z</time>
<desc>lat.=44.634857, lon.=33.828976, Alt.=247.931763m. Speed=8.208000m/h.</desc>
<speed>2.280000</speed>
</trkpt>
<trkpt lat="44.634853" lon="33.828960">
<ele>248.666138</ele>
<time>2011-10-10T12:24:28Z</time>
<desc>lat.=44.634853, lon.=33.828960, Alt.=248.666138m. Speed=2.952000m/h.</desc>
<speed>0.820000</speed>
</trkpt>
<trkpt lat="44.634838" lon="33.828888">
<ele>249.373169</ele>
<time>2011-10-10T12:24:33Z</time>
<desc>lat.=44.634838, lon.=33.828888, Alt.=249.373169m. Speed=3.024000m/h.</desc>
<speed>0.840000</speed>
</trkpt>
<trkpt lat="44.634899" lon="33.828808">
<ele>249.548950</ele>
<time>2011-10-10T12:24:38Z</time>
<desc>lat.=44.634899, lon.=33.828808, Alt.=249.548950m. Speed=4.824000m/h.</desc>
<speed>1.340000</speed>
</trkpt>
<trkpt lat="44.635021" lon="33.828690">
<ele>251.170044</ele>
<time>2011-10-10T12:24:43Z</time>
<desc>lat.=44.635021, lon.=33.828690, Alt.=251.170044m. Speed=6.444000m/h.</desc>
<speed>1.790000</speed>
</trkpt>
<trkpt lat="44.635166" lon="33.828556">
<ele>253.884888</ele>
<time>2011-10-10T12:24:48Z</time>
<desc>lat.=44.635166, lon.=33.828556, Alt.=253.884888m. Speed=12.996000m/h.</desc>
<speed>3.610000</speed>
</trkpt>
<trkpt lat="44.635345" lon="33.828499">
<ele>252.537231</ele>
<time>2011-10-10T12:24:53Z</time>
<desc>lat.=44.635345, lon.=33.828499, Alt.=252.537231m. Speed=13.824000m/h.</desc>
<speed>3.840000</speed>
</trkpt>
<trkpt lat="44.635468" lon="33.828453">
<ele>250.916138</ele>
<time>2011-10-10T12:24:58Z</time>
<desc>lat.=44.635468, lon.=33.828453, Alt.=250.916138m. Speed=6.120000m/h.</desc>
<speed>1.700000</speed>
</trkpt>
<trkpt lat="44.635597" lon="33.828434">
<ele>251.185669</ele>
<time>2011-10-10T12:25:03Z</time>
<desc>lat.=44.635597, lon.=33.828434, Alt.=251.185669m. Speed=6.840000m/h.</desc>
<speed>1.900000</speed>
</trkpt>
<trkpt lat="44.635700" lon="33.828339">
<ele>250.584106</ele>
<time>2011-10-10T12:25:08Z</time>
<desc>lat.=44.635700, lon.=33.828339, Alt.=250.584106m. Speed=12.132000m/h.</desc>
<speed>3.370000</speed>
</trkpt>
<trkpt lat="44.635826" lon="33.828190">
<ele>250.095825</ele>
<time>2011-10-10T12:25:13Z</time>
<desc>lat.=44.635826, lon.=33.828190, Alt.=250.095825m. Speed=9.324000m/h.</desc>
<speed>2.590000</speed>
</trkpt>
<trkpt lat="44.635952" lon="33.828098">
<ele>248.759888</ele>
<time>2011-10-10T12:25:18Z</time>
<desc>lat.=44.635952, lon.=33.828098, Alt.=248.759888m. Speed=7.884000m/h.</desc>
<speed>2.190000</speed>
</trkpt>
<trkpt lat="44.636059" lon="33.827953">
<ele>245.029419</ele>
<time>2011-10-10T12:25:23Z</time>
<desc>lat.=44.636059, lon.=33.827953, Alt.=245.029419m. Speed=6.804000m/h.</desc>
<speed>1.890000</speed>
</trkpt>
<trkpt lat="44.636200" lon="33.827896">
<ele>239.447388</ele>
<time>2011-10-10T12:25:28Z</time>
<desc>lat.=44.636200, lon.=33.827896, Alt.=239.447388m. Speed=6.444000m/h.</desc>
<speed>1.790000</speed>
</trkpt>
<trkpt lat="44.636383" lon="33.827915">
<ele>235.318481</ele>
<time>2011-10-10T12:25:33Z</time>
<desc>lat.=44.636383, lon.=33.827915, Alt.=235.318481m. Speed=6.876000m/h.</desc>
<speed>1.910000</speed>
</trkpt>
<trkpt lat="44.636581" lon="33.827934">
<ele>227.599731</ele>
<time>2011-10-10T12:25:38Z</time>
<desc>lat.=44.636581, lon.=33.827934, Alt.=227.599731m. Speed=12.816000m/h.</desc>
<speed>3.560000</speed>
</trkpt>
<trkpt lat="44.636860" lon="33.827866">
<ele>223.384888</ele>
<time>2011-10-10T12:25:43Z</time>
<desc>lat.=44.636860, lon.=33.827866, Alt.=223.384888m. Speed=20.016001m/h.</desc>
<speed>5.560000</speed>
</trkpt>
<trkpt lat="44.637112" lon="33.827667">
<ele>217.005981</ele>
<time>2011-10-10T12:25:48Z</time>
<desc>lat.=44.637112, lon.=33.827667, Alt.=217.005981m. Speed=10.980000m/h.</desc>
<speed>3.050000</speed>
</trkpt>
<trkpt lat="44.637295" lon="33.827579">
<ele>210.716919</ele>
<time>2011-10-10T12:25:53Z</time>
<desc>lat.=44.637295, lon.=33.827579, Alt.=210.716919m. Speed=11.484000m/h.</desc>
<speed>3.190000</speed>
</trkpt>
<trkpt lat="44.637585" lon="33.827690">
<ele>204.869263</ele>
<time>2011-10-10T12:25:58Z</time>
<desc>lat.=44.637585, lon.=33.827690, Alt.=204.869263m. Speed=18.972000m/h.</desc>
<speed>5.270000</speed>
</trkpt>
<trkpt lat="44.637794" lon="33.827763">
<ele>203.912231</ele>
<time>2011-10-10T12:26:03Z</time>
<desc>lat.=44.637794, lon.=33.827763, Alt.=203.912231m. Speed=8.244000m/h.</desc>
<speed>2.290000</speed>
</trkpt>
<trkpt lat="44.637901" lon="33.827820">
<ele>203.529419</ele>
<time>2011-10-10T12:26:08Z</time>
<desc>lat.=44.637901, lon.=33.827820, Alt.=203.529419m. Speed=4.500000m/h.</desc>
<speed>1.250000</speed>
</trkpt>
<trkpt lat="44.638184" lon="33.827862">
<ele>200.095825</ele>
<time>2011-10-10T12:26:13Z</time>
<desc>lat.=44.638184, lon.=33.827862, Alt.=200.095825m. Speed=13.320000m/h.</desc>
<speed>3.700000</speed>
</trkpt>
<trkpt lat="44.638454" lon="33.827965">
<ele>196.783325</ele>
<time>2011-10-10T12:26:18Z</time>
<desc>lat.=44.638454, lon.=33.827965, Alt.=196.783325m. Speed=10.764000m/h.</desc>
<speed>2.990000</speed>
</trkpt>
<trkpt lat="44.638603" lon="33.828094">
<ele>193.677856</ele>
<time>2011-10-10T12:26:23Z</time>
<desc>lat.=44.638603, lon.=33.828094, Alt.=193.677856m. Speed=1.440000m/h.</desc>
<speed>0.400000</speed>
</trkpt>
<trkpt lat="44.638634" lon="33.828152">
<ele>190.763794</ele>
<time>2011-10-10T12:26:28Z</time>
<desc>lat.=44.638634, lon.=33.828152, Alt.=190.763794m. Speed=0.504000m/h.</desc>
<speed>0.140000</speed>
</trkpt>
<trkpt lat="44.638638" lon="33.828159">
<ele>190.181763</ele>
<time>2011-10-10T12:26:33Z</time>
<desc>lat.=44.638638, lon.=33.828159, Alt.=190.181763m. Speed=0.324000m/h.</desc>
<speed>0.090000</speed>
</trkpt>
<trkpt lat="44.638660" lon="33.828159">
<ele>189.060669</ele>
<time>2011-10-10T12:26:38Z</time>
<desc>lat.=44.638660, lon.=33.828159, Alt.=189.060669m. Speed=0.144000m/h.</desc>
<speed>0.040000</speed>
</trkpt>
<trkpt lat="44.638702" lon="33.828159">
<ele>186.177856</ele>
<time>2011-10-10T12:26:43Z</time>
<desc>lat.=44.638702, lon.=33.828159, Alt.=186.177856m. Speed=0.252000m/h.</desc>
<speed>0.070000</speed>
</trkpt>
<trkpt lat="44.638763" lon="33.828186">
<ele>183.341919</ele>
<time>2011-10-10T12:26:48Z</time>
<desc>lat.=44.638763, lon.=33.828186, Alt.=183.341919m. Speed=0.036000m/h.</desc>
<speed>0.010000</speed>
</trkpt>
<trkpt lat="44.638809" lon="33.828205">
<ele>182.431763</ele>
<time>2011-10-10T12:26:53Z</time>
<desc>lat.=44.638809, lon.=33.828205, Alt.=182.431763m. Speed=0.252000m/h.</desc>
<speed>0.070000</speed>
</trkpt>
<trkpt lat="44.638863" lon="33.828228">
<ele>181.486450</ele>
<time>2011-10-10T12:26:58Z</time>
<desc>lat.=44.638863, lon.=33.828228, Alt.=181.486450m. Speed=0.144000m/h.</desc>
<speed>0.040000</speed>
</trkpt>
<trkpt lat="44.638935" lon="33.828243">
<ele>177.525513</ele>
<time>2011-10-10T12:27:03Z</time>
<desc>lat.=44.638935, lon.=33.828243, Alt.=177.525513m. Speed=0.288000m/h.</desc>
<speed>0.080000</speed>
</trkpt>
<trkpt lat="44.638981" lon="33.828236">
<ele>174.224731</ele>
<time>2011-10-10T12:27:08Z</time>
<desc>lat.=44.638981, lon.=33.828236, Alt.=174.224731m. Speed=1.008000m/h.</desc>
<speed>0.280000</speed>
</trkpt>
<trkpt lat="44.639011" lon="33.828232">
<ele>172.595825</ele>
<time>2011-10-10T12:27:13Z</time>
<desc>lat.=44.639011, lon.=33.828232, Alt.=172.595825m. Speed=0.540000m/h.</desc>
<speed>0.150000</speed>
</trkpt>
<trkpt lat="44.639023" lon="33.828251">
<ele>170.791138</ele>
<time>2011-10-10T12:27:18Z</time>
<desc>lat.=44.639023, lon.=33.828251, Alt.=170.791138m. Speed=1.836000m/h.</desc>
<speed>0.510000</speed>
</trkpt>
<trkpt lat="44.639042" lon="33.828243">
<ele>169.228638</ele>
<time>2011-10-10T12:27:23Z</time>
<desc>lat.=44.639042, lon.=33.828243, Alt.=169.228638m. Speed=1.044000m/h.</desc>
<speed>0.290000</speed>
</trkpt>
<trkpt lat="44.639065" lon="33.828251">
<ele>168.158325</ele>
<time>2011-10-10T12:27:28Z</time>
<desc>lat.=44.639065, lon.=33.828251, Alt.=168.158325m. Speed=0.396000m/h.</desc>
<speed>0.110000</speed>
</trkpt>
<trkpt lat="44.639061" lon="33.828255">
<ele>168.166138</ele>
<time>2011-10-10T12:27:33Z</time>
<desc>lat.=44.639061, lon.=33.828255, Alt.=168.166138m. Speed=0.072000m/h.</desc>
<speed>0.020000</speed>
</trkpt>
<trkpt lat="44.639065" lon="33.828247">
<ele>168.170044</ele>
<time>2011-10-10T12:27:38Z</time>
<desc>lat.=44.639065, lon.=33.828247, Alt.=168.170044m. Speed=0.396000m/h.</desc>
<speed>0.110000</speed>
</trkpt>
<trkpt lat="44.639072" lon="33.828243">
<ele>168.205200</ele>
<time>2011-10-10T12:27:43Z</time>
<desc>lat.=44.639072, lon.=33.828243, Alt.=168.205200m. Speed=0.180000m/h.</desc>
<speed>0.050000</speed>
</trkpt>
<trkpt lat="44.639072" lon="33.828236">
<ele>168.244263</ele>
<time>2011-10-10T12:27:48Z</time>
<desc>lat.=44.639072, lon.=33.828236, Alt.=168.244263m. Speed=0.504000m/h.</desc>
<speed>0.140000</speed>
</trkpt>
<trkpt lat="44.639072" lon="33.828220">
<ele>168.295044</ele>
<time>2011-10-10T12:27:53Z</time>
<desc>lat.=44.639072, lon.=33.828220, Alt.=168.295044m. Speed=1.152000m/h.</desc>
<speed>0.320000</speed>
</trkpt>
<trkpt lat="44.639084" lon="33.828182">
<ele>168.189575</ele>
<time>2011-10-10T12:27:58Z</time>
<desc>lat.=44.639084, lon.=33.828182, Alt.=168.189575m. Speed=0.972000m/h.</desc>
<speed>0.270000</speed>
</trkpt>
<trkpt lat="44.639095" lon="33.828167">
<ele>168.177856</ele>
<time>2011-10-10T12:28:03Z</time>
<desc>lat.=44.639095, lon.=33.828167, Alt.=168.177856m. Speed=0.648000m/h.</desc>
<speed>0.180000</speed>
</trkpt>
<trkpt lat="44.639095" lon="33.828156">
<ele>168.224731</ele>
<time>2011-10-10T12:28:08Z</time>
<desc>lat.=44.639095, lon.=33.828156, Alt.=168.224731m. Speed=0.576000m/h.</desc>
<speed>0.160000</speed>
</trkpt>
<trkpt lat="44.639103" lon="33.828148">
<ele>168.056763</ele>
<time>2011-10-10T12:28:13Z</time>
<desc>lat.=44.639103, lon.=33.828148, Alt.=168.056763m. Speed=0.720000m/h.</desc>
<speed>0.200000</speed>
</trkpt>
<trkpt lat="44.639114" lon="33.828159">
<ele>168.068481</ele>
<time>2011-10-10T12:28:18Z</time>
<desc>lat.=44.639114, lon.=33.828159, Alt.=168.068481m. Speed=0.612000m/h.</desc>
<speed>0.170000</speed>
</trkpt>
<trkpt lat="44.639130" lon="33.828144">
<ele>167.970825</ele>
<time>2011-10-10T12:28:23Z</time>
<desc>lat.=44.639130, lon.=33.828144, Alt.=167.970825m. Speed=0.612000m/h.</desc>
<speed>0.170000</speed>
</trkpt>
<trkpt lat="44.639153" lon="33.828129">
<ele>167.810669</ele>
<time>2011-10-10T12:28:28Z</time>
<desc>lat.=44.639153, lon.=33.828129, Alt.=167.810669m. Speed=0.720000m/h.</desc>
<speed>0.200000</speed>
</trkpt>
<trkpt lat="44.639164" lon="33.828140">
<ele>167.455200</ele>
<time>2011-10-10T12:28:33Z</time>
<desc>lat.=44.639164, lon.=33.828140, Alt.=167.455200m. Speed=0.396000m/h.</desc>
<speed>0.110000</speed>
</trkpt>
<trkpt lat="44.639172" lon="33.828163">
<ele>167.103638</ele>
<time>2011-10-10T12:28:38Z</time>
<desc>lat.=44.639172, lon.=33.828163, Alt.=167.103638m. Speed=0.324000m/h.</desc>
<speed>0.090000</speed>
</trkpt>
<trkpt lat="44.639214" lon="33.828152">
<ele>167.025513</ele>
<time>2011-10-10T12:28:43Z</time>
<desc>lat.=44.639214, lon.=33.828152, Alt.=167.025513m. Speed=0.720000m/h.</desc>
<speed>0.200000</speed>
</trkpt>
<trkpt lat="44.639210" lon="33.828182">
<ele>167.029419</ele>
<time>2011-10-10T12:28:48Z</time>
<desc>lat.=44.639210, lon.=33.828182, Alt.=167.029419m. Speed=0.360000m/h.</desc>
<speed>0.100000</speed>
</trkpt>
<trkpt lat="44.639217" lon="33.828201">
<ele>167.048950</ele>
<time>2011-10-10T12:28:53Z</time>
<desc>lat.=44.639217, lon.=33.828201, Alt.=167.048950m. Speed=0.432000m/h.</desc>
<speed>0.120000</speed>
</trkpt>
<trkpt lat="44.639221" lon="33.828205">
<ele>167.103638</ele>
<time>2011-10-10T12:28:58Z</time>
<desc>lat.=44.639221, lon.=33.828205, Alt.=167.103638m. Speed=0.468000m/h.</desc>
<speed>0.130000</speed>
</trkpt>
<trkpt lat="44.639217" lon="33.828217">
<ele>167.150513</ele>
<time>2011-10-10T12:29:03Z</time>
<desc>lat.=44.639217, lon.=33.828217, Alt.=167.150513m. Speed=0.648000m/h.</desc>
<speed>0.180000</speed>
</trkpt>
<trkpt lat="44.639214" lon="33.828220">
<ele>167.193481</ele>
<time>2011-10-10T12:29:08Z</time>
<desc>lat.=44.639214, lon.=33.828220, Alt.=167.193481m. Speed=0.180000m/h.</desc>
<speed>0.050000</speed>
</trkpt>
<trkpt lat="44.639210" lon="33.828217">
<ele>167.236450</ele>
<time>2011-10-10T12:29:13Z</time>
<desc>lat.=44.639210, lon.=33.828217, Alt.=167.236450m. Speed=0.612000m/h.</desc>
<speed>0.170000</speed>
</trkpt>
<trkpt lat="44.639202" lon="33.828201">
<ele>167.283325</ele>
<time>2011-10-10T12:29:18Z</time>
<desc>lat.=44.639202, lon.=33.828201, Alt.=167.283325m. Speed=0.936000m/h.</desc>
<speed>0.260000</speed>
</trkpt>
<trkpt lat="44.639206" lon="33.828175">
<ele>167.205200</ele>
<time>2011-10-10T12:29:23Z</time>
<desc>lat.=44.639206, lon.=33.828175, Alt.=167.205200m. Speed=1.368000m/h.</desc>
<speed>0.380000</speed>
</trkpt>
<trkpt lat="44.639214" lon="33.828156">
<ele>167.162231</ele>
<time>2011-10-10T12:29:28Z</time>
<desc>lat.=44.639214, lon.=33.828156, Alt.=167.162231m. Speed=1.404000m/h.</desc>
<speed>0.390000</speed>
</trkpt>
<trkpt lat="44.639210" lon="33.828159">
<ele>167.076294</ele>
<time>2011-10-10T12:29:33Z</time>
<desc>lat.=44.639210, lon.=33.828159, Alt.=167.076294m. Speed=1.008000m/h.</desc>
<speed>0.280000</speed>
</trkpt>
<trkpt lat="44.639259" lon="33.828167">
<ele>166.775513</ele>
<time>2011-10-10T12:29:38Z</time>
<desc>lat.=44.639259, lon.=33.828167, Alt.=166.775513m. Speed=1.152000m/h.</desc>
<speed>0.320000</speed>
</trkpt>
<trkpt lat="44.639263" lon="33.828125">
<ele>166.525513</ele>
<time>2011-10-10T12:29:43Z</time>
<desc>lat.=44.639263, lon.=33.828125, Alt.=166.525513m. Speed=0.396000m/h.</desc>
<speed>0.110000</speed>
</trkpt>
<trkpt lat="44.639263" lon="33.828121">
<ele>166.580200</ele>
<time>2011-10-10T12:29:48Z</time>
<desc>lat.=44.639263, lon.=33.828121, Alt.=166.580200m. Speed=0.360000m/h.</desc>
<speed>0.100000</speed>
</trkpt>
<trkpt lat="44.639259" lon="33.828117">
<ele>166.634888</ele>
<time>2011-10-10T12:29:53Z</time>
<desc>lat.=44.639259, lon.=33.828117, Alt.=166.634888m. Speed=0.144000m/h.</desc>
<speed>0.040000</speed>
</trkpt>
<trkpt lat="44.639259" lon="33.828114">
<ele>166.689575</ele>
<time>2011-10-10T12:29:58Z</time>
<desc>lat.=44.639259, lon.=33.828114, Alt.=166.689575m. Speed=0.180000m/h.</desc>
<speed>0.050000</speed>
</trkpt>
<trkpt lat="44.639252" lon="33.828121">
<ele>166.720825</ele>
<time>2011-10-10T12:30:03Z</time>
<desc>lat.=44.639252, lon.=33.828121, Alt.=166.720825m. Speed=0.792000m/h.</desc>
<speed>0.220000</speed>
</trkpt>
<trkpt lat="44.639236" lon="33.828129">
<ele>166.755981</ele>
<time>2011-10-10T12:30:08Z</time>
<desc>lat.=44.639236, lon.=33.828129, Alt.=166.755981m. Speed=1.116000m/h.</desc>
<speed>0.310000</speed>
</trkpt>
<trkpt lat="44.639175" lon="33.828144">
<ele>166.439575</ele>
<time>2011-10-10T12:30:13Z</time>
<desc>lat.=44.639175, lon.=33.828144, Alt.=166.439575m. Speed=1.692000m/h.</desc>
<speed>0.470000</speed>
</trkpt>
<trkpt lat="44.639198" lon="33.828167">
<ele>166.228638</ele>
<time>2011-10-10T12:30:18Z</time>
<desc>lat.=44.639198, lon.=33.828167, Alt.=166.228638m. Speed=0.900000m/h.</desc>
<speed>0.250000</speed>
</trkpt>
<trkpt lat="44.639198" lon="33.828186">
<ele>166.220825</ele>
<time>2011-10-10T12:30:23Z</time>
<desc>lat.=44.639198, lon.=33.828186, Alt.=166.220825m. Speed=0.720000m/h.</desc>
<speed>0.200000</speed>
</trkpt>
<trkpt lat="44.639191" lon="33.828190">
<ele>166.275513</ele>
<time>2011-10-10T12:30:28Z</time>
<desc>lat.=44.639191, lon.=33.828190, Alt.=166.275513m. Speed=0.792000m/h.</desc>
<speed>0.220000</speed>
</trkpt>
<trkpt lat="44.639183" lon="33.828197">
<ele>166.330200</ele>
<time>2011-10-10T12:30:33Z</time>
<desc>lat.=44.639183, lon.=33.828197, Alt.=166.330200m. Speed=0.756000m/h.</desc>
<speed>0.210000</speed>
</trkpt>
<trkpt lat="44.639179" lon="33.828209">
<ele>166.380981</ele>
<time>2011-10-10T12:30:38Z</time>
<desc>lat.=44.639179, lon.=33.828209, Alt.=166.380981m. Speed=0.648000m/h.</desc>
<speed>0.180000</speed>
</trkpt>
<trkpt lat="44.639175" lon="33.828213">
<ele>166.431763</ele>
<time>2011-10-10T12:30:43Z</time>
<desc>lat.=44.639175, lon.=33.828213, Alt.=166.431763m. Speed=0.000000m/h.</desc>
<speed>0.000000</speed>
</trkpt>
<trkpt lat="44.639175" lon="33.828209">
<ele>166.478638</ele>
<time>2011-10-10T12:30:48Z</time>
<desc>lat.=44.639175, lon.=33.828209, Alt.=166.478638m. Speed=0.288000m/h.</desc>
<speed>0.080000</speed>
</trkpt>
<trkpt lat="44.639179" lon="33.828201">
<ele>166.513794</ele>
<time>2011-10-10T12:30:53Z</time>
<desc>lat.=44.639179, lon.=33.828201, Alt.=166.513794m. Speed=0.612000m/h.</desc>
<speed>0.170000</speed>
</trkpt>
<trkpt lat="44.639179" lon="33.828171">
<ele>166.537231</ele>
<time>2011-10-10T12:30:58Z</time>
<desc>lat.=44.639179, lon.=33.828171, Alt.=166.537231m. Speed=1.620000m/h.</desc>
<speed>0.450000</speed>
</trkpt>
<trkpt lat="44.639194" lon="33.828140">
<ele>166.369263</ele>
<time>2011-10-10T12:31:03Z</time>
<desc>lat.=44.639194, lon.=33.828140, Alt.=166.369263m. Speed=1.332000m/h.</desc>
<speed>0.370000</speed>
</trkpt>
<trkpt lat="44.639183" lon="33.828125">
<ele>166.279419</ele>
<time>2011-10-10T12:31:08Z</time>
<desc>lat.=44.639183, lon.=33.828125, Alt.=166.279419m. Speed=1.332000m/h.</desc>
<speed>0.370000</speed>
</trkpt>
<trkpt lat="44.639183" lon="33.828140">
<ele>166.220825</ele>
<time>2011-10-10T12:31:13Z</time>
<desc>lat.=44.639183, lon.=33.828140, Alt.=166.220825m. Speed=0.936000m/h.</desc>
<speed>0.260000</speed>
</trkpt>
<trkpt lat="44.639164" lon="33.828117">
<ele>165.834106</ele>
<time>2011-10-10T12:31:18Z</time>
<desc>lat.=44.639164, lon.=33.828117, Alt.=165.834106m. Speed=1.044000m/h.</desc>
<speed>0.290000</speed>
</trkpt>
<trkpt lat="44.639164" lon="33.828125">
<ele>165.873169</ele>
<time>2011-10-10T12:31:23Z</time>
<desc>lat.=44.639164, lon.=33.828125, Alt.=165.873169m. Speed=0.720000m/h.</desc>
<speed>0.200000</speed>
</trkpt>
<trkpt lat="44.639156" lon="33.828133">
<ele>165.939575</ele>
<time>2011-10-10T12:31:28Z</time>
<desc>lat.=44.639156, lon.=33.828133, Alt.=165.939575m. Speed=0.432000m/h.</desc>
<speed>0.120000</speed>
</trkpt>
<trkpt lat="44.639153" lon="33.828129">
<ele>165.998169</ele>
<time>2011-10-10T12:31:33Z</time>
<desc>lat.=44.639153, lon.=33.828129, Alt.=165.998169m. Speed=0.144000m/h.</desc>
<speed>0.040000</speed>
</trkpt>
<trkpt lat="44.639149" lon="33.828133">
<ele>166.052856</ele>
<time>2011-10-10T12:31:38Z</time>
<desc>lat.=44.639149, lon.=33.828133, Alt.=166.052856m. Speed=0.540000m/h.</desc>
<speed>0.150000</speed>
</trkpt>
<trkpt lat="44.639153" lon="33.828144">
<ele>166.107544</ele>
<time>2011-10-10T12:31:43Z</time>
<desc>lat.=44.639153, lon.=33.828144, Alt.=166.107544m. Speed=0.900000m/h.</desc>
<speed>0.250000</speed>
</trkpt>
<trkpt lat="44.639168" lon="33.828159">
<ele>166.138794</ele>
<time>2011-10-10T12:31:48Z</time>
<desc>lat.=44.639168, lon.=33.828159, Alt.=166.138794m. Speed=1.080000m/h.</desc>
<speed>0.300000</speed>
</trkpt>
<trkpt lat="44.639191" lon="33.828190">
<ele>166.130981</ele>
<time>2011-10-10T12:31:53Z</time>
<desc>lat.=44.639191, lon.=33.828190, Alt.=166.130981m. Speed=1.224000m/h.</desc>
<speed>0.340000</speed>
</trkpt>
<trkpt lat="44.639225" lon="33.828236">
<ele>166.134888</ele>
<time>2011-10-10T12:31:58Z</time>
<desc>lat.=44.639225, lon.=33.828236, Alt.=166.134888m. Speed=1.584000m/h.</desc>
<speed>0.440000</speed>
</trkpt>
<trkpt lat="44.639275" lon="33.828297">
<ele>166.115356</ele>
<time>2011-10-10T12:32:03Z</time>
<desc>lat.=44.639275, lon.=33.828297, Alt.=166.115356m. Speed=2.052000m/h.</desc>
<speed>0.570000</speed>
</trkpt>
<trkpt lat="44.639294" lon="33.828308">
<ele>165.904419</ele>
<time>2011-10-10T12:32:08Z</time>
<desc>lat.=44.639294, lon.=33.828308, Alt.=165.904419m. Speed=1.728000m/h.</desc>
<speed>0.480000</speed>
</trkpt>
<trkpt lat="44.639248" lon="33.828220">
<ele>165.666138</ele>
<time>2011-10-10T12:32:13Z</time>
<desc>lat.=44.639248, lon.=33.828220, Alt.=165.666138m. Speed=0.288000m/h.</desc>
<speed>0.080000</speed>
</trkpt>
<trkpt lat="44.639244" lon="33.828194">
<ele>165.673950</ele>
<time>2011-10-10T12:32:18Z</time>
<desc>lat.=44.639244, lon.=33.828194, Alt.=165.673950m. Speed=0.252000m/h.</desc>
<speed>0.070000</speed>
</trkpt>
<trkpt lat="44.639248" lon="33.828201">
<ele>165.716919</ele>
<time>2011-10-10T12:32:23Z</time>
<desc>lat.=44.639248, lon.=33.828201, Alt.=165.716919m. Speed=0.684000m/h.</desc>
<speed>0.190000</speed>
</trkpt>
<trkpt lat="44.639256" lon="33.828205">
<ele>165.759888</ele>
<time>2011-10-10T12:32:28Z</time>
<desc>lat.=44.639256, lon.=33.828205, Alt.=165.759888m. Speed=0.720000m/h.</desc>
<speed>0.200000</speed>
</trkpt>
<trkpt lat="44.639263" lon="33.828213">
<ele>165.802856</ele>
<time>2011-10-10T12:32:33Z</time>
<desc>lat.=44.639263, lon.=33.828213, Alt.=165.802856m. Speed=0.648000m/h.</desc>
<speed>0.180000</speed>
</trkpt>
<trkpt lat="44.639271" lon="33.828220">
<ele>165.838013</ele>
<time>2011-10-10T12:32:38Z</time>
<desc>lat.=44.639271, lon.=33.828220, Alt.=165.838013m. Speed=0.540000m/h.</desc>
<speed>0.150000</speed>
</trkpt>
<trkpt lat="44.639271" lon="33.828220">
<ele>165.873169</ele>
<time>2011-10-10T12:32:43Z</time>
<desc>lat.=44.639271, lon.=33.828220, Alt.=165.873169m. Speed=0.216000m/h.</desc>
<speed>0.060000</speed>
</trkpt>
<trkpt lat="44.639267" lon="33.828224">
<ele>165.908325</ele>
<time>2011-10-10T12:32:48Z</time>
<desc>lat.=44.639267, lon.=33.828224, Alt.=165.908325m. Speed=0.288000m/h.</desc>
<speed>0.080000</speed>
</trkpt>
<trkpt lat="44.639263" lon="33.828224">
<ele>165.947388</ele>
<time>2011-10-10T12:32:53Z</time>
<desc>lat.=44.639263, lon.=33.828224, Alt.=165.947388m. Speed=0.468000m/h.</desc>
<speed>0.130000</speed>
</trkpt>
<trkpt lat="44.639259" lon="33.828217">
<ele>165.990356</ele>
<time>2011-10-10T12:32:58Z</time>
<desc>lat.=44.639259, lon.=33.828217, Alt.=165.990356m. Speed=0.792000m/h.</desc>
<speed>0.220000</speed>
</trkpt>
<trkpt lat="44.639252" lon="33.828205">
<ele>166.029419</ele>
<time>2011-10-10T12:33:03Z</time>
<desc>lat.=44.639252, lon.=33.828205, Alt.=166.029419m. Speed=1.080000m/h.</desc>
<speed>0.300000</speed>
</trkpt>
<trkpt lat="44.639233" lon="33.828186">
<ele>165.966919</ele>
<time>2011-10-10T12:33:08Z</time>
<desc>lat.=44.639233, lon.=33.828186, Alt.=165.966919m. Speed=1.296000m/h.</desc>
<speed>0.360000</speed>
</trkpt>
<trkpt lat="44.639221" lon="33.828190">
<ele>165.923950</ele>
<time>2011-10-10T12:33:13Z</time>
<desc>lat.=44.639221, lon.=33.828190, Alt.=165.923950m. Speed=1.080000m/h.</desc>
<speed>0.300000</speed>
</trkpt>
<trkpt lat="44.639210" lon="33.828197">
<ele>165.892700</ele>
<time>2011-10-10T12:33:18Z</time>
<desc>lat.=44.639210, lon.=33.828197, Alt.=165.892700m. Speed=0.972000m/h.</desc>
<speed>0.270000</speed>
</trkpt>
<trkpt lat="44.639202" lon="33.828190">
<ele>165.935669</ele>
<time>2011-10-10T12:33:23Z</time>
<desc>lat.=44.639202, lon.=33.828190, Alt.=165.935669m. Speed=0.720000m/h.</desc>
<speed>0.200000</speed>
</trkpt>
<trkpt lat="44.639194" lon="33.828186">
<ele>165.978638</ele>
<time>2011-10-10T12:33:28Z</time>
<desc>lat.=44.639194, lon.=33.828186, Alt.=165.978638m. Speed=0.576000m/h.</desc>
<speed>0.160000</speed>
</trkpt>
<trkpt lat="44.639183" lon="33.828186">
<ele>166.021606</ele>
<time>2011-10-10T12:33:33Z</time>
<desc>lat.=44.639183, lon.=33.828186, Alt.=166.021606m. Speed=0.828000m/h.</desc>
<speed>0.230000</speed>
</trkpt>
<trkpt lat="44.639175" lon="33.828190">
<ele>166.064575</ele>
<time>2011-10-10T12:33:38Z</time>
<desc>lat.=44.639175, lon.=33.828190, Alt.=166.064575m. Speed=0.864000m/h.</desc>
<speed>0.240000</speed>
</trkpt>
<trkpt lat="44.639164" lon="33.828190">
<ele>166.111450</ele>
<time>2011-10-10T12:33:43Z</time>
<desc>lat.=44.639164, lon.=33.828190, Alt.=166.111450m. Speed=0.792000m/h.</desc>
<speed>0.220000</speed>
</trkpt>
<trkpt lat="44.639153" lon="33.828194">
<ele>166.158325</ele>
<time>2011-10-10T12:33:48Z</time>
<desc>lat.=44.639153, lon.=33.828194, Alt.=166.158325m. Speed=0.648000m/h.</desc>
<speed>0.180000</speed>
</trkpt>
<trkpt lat="44.639145" lon="33.828209">
<ele>166.177856</ele>
<time>2011-10-10T12:33:53Z</time>
<desc>lat.=44.639145, lon.=33.828209, Alt.=166.177856m. Speed=0.792000m/h.</desc>
<speed>0.220000</speed>
</trkpt>
<trkpt lat="44.639137" lon="33.828220">
<ele>166.220825</ele>
<time>2011-10-10T12:33:58Z</time>
<desc>lat.=44.639137, lon.=33.828220, Alt.=166.220825m. Speed=0.972000m/h.</desc>
<speed>0.270000</speed>
</trkpt>
<trkpt lat="44.639145" lon="33.828243">
<ele>166.216919</ele>
<time>2011-10-10T12:34:03Z</time>
<desc>lat.=44.639145, lon.=33.828243, Alt.=166.216919m. Speed=0.864000m/h.</desc>
<speed>0.240000</speed>
</trkpt>
<trkpt lat="44.639149" lon="33.828259">
<ele>166.224731</ele>
<time>2011-10-10T12:34:08Z</time>
<desc>lat.=44.639149, lon.=33.828259, Alt.=166.224731m. Speed=0.900000m/h.</desc>
<speed>0.250000</speed>
</trkpt>
<trkpt lat="44.639149" lon="33.828270">
<ele>166.267700</ele>
<time>2011-10-10T12:34:13Z</time>
<desc>lat.=44.639149, lon.=33.828270, Alt.=166.267700m. Speed=0.468000m/h.</desc>
<speed>0.130000</speed>
</trkpt>
<trkpt lat="44.639153" lon="33.828278">
<ele>166.306763</ele>
<time>2011-10-10T12:34:18Z</time>
<desc>lat.=44.639153, lon.=33.828278, Alt.=166.306763m. Speed=0.504000m/h.</desc>
<speed>0.140000</speed>
</trkpt>
<trkpt lat="44.639160" lon="33.828281">
<ele>166.349731</ele>
<time>2011-10-10T12:34:23Z</time>
<desc>lat.=44.639160, lon.=33.828281, Alt.=166.349731m. Speed=0.792000m/h.</desc>
<speed>0.220000</speed>
</trkpt>
<trkpt lat="44.639172" lon="33.828278">
<ele>166.388794</ele>
<time>2011-10-10T12:34:28Z</time>
<desc>lat.=44.639172, lon.=33.828278, Alt.=166.388794m. Speed=0.720000m/h.</desc>
<speed>0.200000</speed>
</trkpt>
<trkpt lat="44.639179" lon="33.828274">
<ele>166.427856</ele>
<time>2011-10-10T12:34:33Z</time>
<desc>lat.=44.639179, lon.=33.828274, Alt.=166.427856m. Speed=0.540000m/h.</desc>
<speed>0.150000</speed>
</trkpt>
<trkpt lat="44.639187" lon="33.828270">
<ele>166.463013</ele>
<time>2011-10-10T12:34:38Z</time>
<desc>lat.=44.639187, lon.=33.828270, Alt.=166.463013m. Speed=0.720000m/h.</desc>
<speed>0.200000</speed>
</trkpt>
<trkpt lat="44.639198" lon="33.828270">
<ele>166.505981</ele>
<time>2011-10-10T12:34:43Z</time>
<desc>lat.=44.639198, lon.=33.828270, Alt.=166.505981m. Speed=0.900000m/h.</desc>
<speed>0.250000</speed>
</trkpt>
<trkpt lat="44.639210" lon="33.828270">
<ele>166.545044</ele>
<time>2011-10-10T12:34:48Z</time>
<desc>lat.=44.639210, lon.=33.828270, Alt.=166.545044m. Speed=0.972000m/h.</desc>
<speed>0.270000</speed>
</trkpt>
<trkpt lat="44.639221" lon="33.828274">
<ele>166.584106</ele>
<time>2011-10-10T12:34:53Z</time>
<desc>lat.=44.639221, lon.=33.828274, Alt.=166.584106m. Speed=0.720000m/h.</desc>
<speed>0.200000</speed>
</trkpt>
<trkpt lat="44.639225" lon="33.828281">
<ele>166.619263</ele>
<time>2011-10-10T12:34:58Z</time>
<desc>lat.=44.639225, lon.=33.828281, Alt.=166.619263m. Speed=0.756000m/h.</desc>
<speed>0.210000</speed>
</trkpt>
<trkpt lat="44.639225" lon="33.828297">
<ele>166.658325</ele>
<time>2011-10-10T12:35:03Z</time>
<desc>lat.=44.639225, lon.=33.828297, Alt.=166.658325m. Speed=0.612000m/h.</desc>
<speed>0.170000</speed>
</trkpt>
<trkpt lat="44.639221" lon="33.828308">
<ele>166.697388</ele>
<time>2011-10-10T12:35:08Z</time>
<desc>lat.=44.639221, lon.=33.828308, Alt.=166.697388m. Speed=0.612000m/h.</desc>
<speed>0.170000</speed>
</trkpt>
<trkpt lat="44.639217" lon="33.828320">
<ele>166.732544</ele>
<time>2011-10-10T12:35:13Z</time>
<desc>lat.=44.639217, lon.=33.828320, Alt.=166.732544m. Speed=0.720000m/h.</desc>
<speed>0.200000</speed>
</trkpt>
<trkpt lat="44.639214" lon="33.828331">
<ele>166.767700</ele>
<time>2011-10-10T12:35:18Z</time>
<desc>lat.=44.639214, lon.=33.828331, Alt.=166.767700m. Speed=0.720000m/h.</desc>
<speed>0.200000</speed>
</trkpt>
<trkpt lat="44.639210" lon="33.828339">
<ele>166.798950</ele>
<time>2011-10-10T12:35:23Z</time>
<desc>lat.=44.639210, lon.=33.828339, Alt.=166.798950m. Speed=0.468000m/h.</desc>
<speed>0.130000</speed>
</trkpt>
<trkpt lat="44.639206" lon="33.828346">
<ele>166.830200</ele>
<time>2011-10-10T12:35:28Z</time>
<desc>lat.=44.639206, lon.=33.828346, Alt.=166.830200m. Speed=0.612000m/h.</desc>
<speed>0.170000</speed>
</trkpt>
<trkpt lat="44.639206" lon="33.828354">
<ele>166.857544</ele>
<time>2011-10-10T12:35:33Z</time>
<desc>lat.=44.639206, lon.=33.828354, Alt.=166.857544m. Speed=0.468000m/h.</desc>
<speed>0.130000</speed>
</trkpt>
<trkpt lat="44.639236" lon="33.828327">
<ele>166.857544</ele>
<time>2011-10-10T12:35:38Z</time>
<desc>lat.=44.639236, lon.=33.828327, Alt.=166.857544m. Speed=1.332000m/h.</desc>
<speed>0.370000</speed>
</trkpt>
<trkpt lat="44.639290" lon="33.828289">
<ele>166.728638</ele>
<time>2011-10-10T12:35:43Z</time>
<desc>lat.=44.639290, lon.=33.828289, Alt.=166.728638m. Speed=1.332000m/h.</desc>
<speed>0.370000</speed>
</trkpt>
<trkpt lat="44.639317" lon="33.828293">
<ele>166.986450</ele>
<time>2011-10-10T12:35:48Z</time>
<desc>lat.=44.639317, lon.=33.828293, Alt.=166.986450m. Speed=1.260000m/h.</desc>
<speed>0.350000</speed>
</trkpt>
<trkpt lat="44.639362" lon="33.828331">
<ele>166.798950</ele>
<time>2011-10-10T12:35:53Z</time>
<desc>lat.=44.639362, lon.=33.828331, Alt.=166.798950m. Speed=1.296000m/h.</desc>
<speed>0.360000</speed>
</trkpt>
<trkpt lat="44.639267" lon="33.828289">
<ele>166.572388</ele>
<time>2011-10-10T12:35:58Z</time>
<desc>lat.=44.639267, lon.=33.828289, Alt.=166.572388m. Speed=0.144000m/h.</desc>
<speed>0.040000</speed>
</trkpt>
<trkpt lat="44.639271" lon="33.828289">
<ele>166.400513</ele>
<time>2011-10-10T12:36:03Z</time>
<desc>lat.=44.639271, lon.=33.828289, Alt.=166.400513m. Speed=0.144000m/h.</desc>
<speed>0.040000</speed>
</trkpt>
<trkpt lat="44.639263" lon="33.828281">
<ele>166.302856</ele>
<time>2011-10-10T12:36:08Z</time>
<desc>lat.=44.639263, lon.=33.828281, Alt.=166.302856m. Speed=2.808000m/h.</desc>
<speed>0.780000</speed>
</trkpt>
<trkpt lat="44.639294" lon="33.828247">
<ele>166.310669</ele>
<time>2011-10-10T12:36:13Z</time>
<desc>lat.=44.639294, lon.=33.828247, Alt.=166.310669m. Speed=1.152000m/h.</desc>
<speed>0.320000</speed>
</trkpt>
<trkpt lat="44.639271" lon="33.828236">
<ele>164.345825</ele>
<time>2011-10-10T12:36:18Z</time>
<desc>lat.=44.639271, lon.=33.828236, Alt.=164.345825m. Speed=1.332000m/h.</desc>
<speed>0.370000</speed>
</trkpt>
<trkpt lat="44.639248" lon="33.828236">
<ele>164.216919</ele>
<time>2011-10-10T12:36:23Z</time>
<desc>lat.=44.639248, lon.=33.828236, Alt.=164.216919m. Speed=1.116000m/h.</desc>
<speed>0.310000</speed>
</trkpt>
<trkpt lat="44.639229" lon="33.828232">
<ele>164.154419</ele>
<time>2011-10-10T12:36:28Z</time>
<desc>lat.=44.639229, lon.=33.828232, Alt.=164.154419m. Speed=1.044000m/h.</desc>
<speed>0.290000</speed>
</trkpt>
<trkpt lat="44.639217" lon="33.828228">
<ele>164.220825</ele>
<time>2011-10-10T12:36:33Z</time>
<desc>lat.=44.639217, lon.=33.828228, Alt.=164.220825m. Speed=0.972000m/h.</desc>
<speed>0.270000</speed>
</trkpt>
<trkpt lat="44.639210" lon="33.828224">
<ele>164.365356</ele>
<time>2011-10-10T12:36:38Z</time>
<desc>lat.=44.639210, lon.=33.828224, Alt.=164.365356m. Speed=0.756000m/h.</desc>
<speed>0.210000</speed>
</trkpt>
<trkpt lat="44.639202" lon="33.828220">
<ele>164.459106</ele>
<time>2011-10-10T12:36:43Z</time>
<desc>lat.=44.639202, lon.=33.828220, Alt.=164.459106m. Speed=0.612000m/h.</desc>
<speed>0.170000</speed>
</trkpt>
<trkpt lat="44.639194" lon="33.828220">
<ele>164.548950</ele>
<time>2011-10-10T12:36:48Z</time>
<desc>lat.=44.639194, lon.=33.828220, Alt.=164.548950m. Speed=0.540000m/h.</desc>
<speed>0.150000</speed>
</trkpt>
<trkpt lat="44.639187" lon="33.828217">
<ele>164.638794</ele>
<time>2011-10-10T12:36:53Z</time>
<desc>lat.=44.639187, lon.=33.828217, Alt.=164.638794m. Speed=0.396000m/h.</desc>
<speed>0.110000</speed>
</trkpt>
<trkpt lat="44.639183" lon="33.828217">
<ele>164.728638</ele>
<time>2011-10-10T12:36:58Z</time>
<desc>lat.=44.639183, lon.=33.828217, Alt.=164.728638m. Speed=0.468000m/h.</desc>
<speed>0.130000</speed>
</trkpt>
<trkpt lat="44.639179" lon="33.828217">
<ele>164.818481</ele>
<time>2011-10-10T12:37:03Z</time>
<desc>lat.=44.639179, lon.=33.828217, Alt.=164.818481m. Speed=0.144000m/h.</desc>
<speed>0.040000</speed>
</trkpt>
<trkpt lat="44.639179" lon="33.828217">
<ele>164.904419</ele>
<time>2011-10-10T12:37:08Z</time>
<desc>lat.=44.639179, lon.=33.828217, Alt.=164.904419m. Speed=0.072000m/h.</desc>
<speed>0.020000</speed>
</trkpt>
<trkpt lat="44.639179" lon="33.828213">
<ele>164.990356</ele>
<time>2011-10-10T12:37:13Z</time>
<desc>lat.=44.639179, lon.=33.828213, Alt.=164.990356m. Speed=0.144000m/h.</desc>
<speed>0.040000</speed>
</trkpt>
<trkpt lat="44.639179" lon="33.828213">
<ele>164.990356</ele>
<time>2011-10-10T12:37:18Z</time>
<desc>lat.=44.639179, lon.=33.828213, Alt.=164.990356m. Speed=0.072000m/h.</desc>
<speed>0.020000</speed>
</trkpt>
<trkpt lat="44.639179" lon="33.828213">
<ele>164.990356</ele>
<time>2011-10-10T12:37:23Z</time>
<desc>lat.=44.639179, lon.=33.828213, Alt.=164.990356m. Speed=0.000000m/h.</desc>
<speed>0.000000</speed>
</trkpt>
<trkpt lat="44.639179" lon="33.828213">
<ele>164.990356</ele>
<time>2011-10-10T12:37:28Z</time>
<desc>lat.=44.639179, lon.=33.828213, Alt.=164.990356m. Speed=0.108000m/h.</desc>
<speed>0.030000</speed>
</trkpt>
<trkpt lat="44.639183" lon="33.828213">
<ele>164.986450</ele>
<time>2011-10-10T12:37:33Z</time>
<desc>lat.=44.639183, lon.=33.828213, Alt.=164.986450m. Speed=0.180000m/h.</desc>
<speed>0.050000</speed>
</trkpt>
<trkpt lat="44.639187" lon="33.828213">
<ele>164.974731</ele>
<time>2011-10-10T12:37:38Z</time>
<desc>lat.=44.639187, lon.=33.828213, Alt.=164.974731m. Speed=0.396000m/h.</desc>
<speed>0.110000</speed>
</trkpt>
<trkpt lat="44.639191" lon="33.828217">
<ele>164.963013</ele>
<time>2011-10-10T12:37:43Z</time>
<desc>lat.=44.639191, lon.=33.828217, Alt.=164.963013m. Speed=0.504000m/h.</desc>
<speed>0.140000</speed>
</trkpt>
<trkpt lat="44.639198" lon="33.828217">
<ele>164.947388</ele>
<time>2011-10-10T12:37:48Z</time>
<desc>lat.=44.639198, lon.=33.828217, Alt.=164.947388m. Speed=0.504000m/h.</desc>
<speed>0.140000</speed>
</trkpt>
<trkpt lat="44.639206" lon="33.828217">
<ele>164.931763</ele>
<time>2011-10-10T12:37:53Z</time>
<desc>lat.=44.639206, lon.=33.828217, Alt.=164.931763m. Speed=0.504000m/h.</desc>
<speed>0.140000</speed>
</trkpt>
<trkpt lat="44.639214" lon="33.828213">
<ele>164.916138</ele>
<time>2011-10-10T12:37:58Z</time>
<desc>lat.=44.639214, lon.=33.828213, Alt.=164.916138m. Speed=0.540000m/h.</desc>
<speed>0.150000</speed>
</trkpt>
<trkpt lat="44.639217" lon="33.828209">
<ele>164.896606</ele>
<time>2011-10-10T12:38:03Z</time>
<desc>lat.=44.639217, lon.=33.828209, Alt.=164.896606m. Speed=0.540000m/h.</desc>
<speed>0.150000</speed>
</trkpt>
<trkpt lat="44.639225" lon="33.828205">
<ele>164.873169</ele>
<time>2011-10-10T12:38:08Z</time>
<desc>lat.=44.639225, lon.=33.828205, Alt.=164.873169m. Speed=0.504000m/h.</desc>
<speed>0.140000</speed>
</trkpt>
<trkpt lat="44.639233" lon="33.828205">
<ele>164.849731</ele>
<time>2011-10-10T12:38:13Z</time>
<desc>lat.=44.639233, lon.=33.828205, Alt.=164.849731m. Speed=0.504000m/h.</desc>
<speed>0.140000</speed>
</trkpt>
<trkpt lat="44.639236" lon="33.828201">
<ele>164.822388</ele>
<time>2011-10-10T12:38:18Z</time>
<desc>lat.=44.639236, lon.=33.828201, Alt.=164.822388m. Speed=0.612000m/h.</desc>
<speed>0.170000</speed>
</trkpt>
<trkpt lat="44.639244" lon="33.828194">
<ele>164.795044</ele>
<time>2011-10-10T12:38:23Z</time>
<desc>lat.=44.639244, lon.=33.828194, Alt.=164.795044m. Speed=0.792000m/h.</desc>
<speed>0.220000</speed>
</trkpt>
<trkpt lat="44.639252" lon="33.828182">
<ele>164.755981</ele>
<time>2011-10-10T12:38:28Z</time>
<desc>lat.=44.639252, lon.=33.828182, Alt.=164.755981m. Speed=0.720000m/h.</desc>
<speed>0.200000</speed>
</trkpt>
<trkpt lat="44.639259" lon="33.828175">
<ele>164.713013</ele>
<time>2011-10-10T12:38:33Z</time>
<desc>lat.=44.639259, lon.=33.828175, Alt.=164.713013m. Speed=0.612000m/h.</desc>
<speed>0.170000</speed>
</trkpt>
<trkpt lat="44.639263" lon="33.828171">
<ele>164.670044</ele>
<time>2011-10-10T12:38:38Z</time>
<desc>lat.=44.639263, lon.=33.828171, Alt.=164.670044m. Speed=0.504000m/h.</desc>
<speed>0.140000</speed>
</trkpt>
<trkpt lat="44.639271" lon="33.828167">
<ele>164.615356</ele>
<time>2011-10-10T12:38:43Z</time>
<desc>lat.=44.639271, lon.=33.828167, Alt.=164.615356m. Speed=0.576000m/h.</desc>
<speed>0.160000</speed>
</trkpt>
<trkpt lat="44.639278" lon="33.828163">
<ele>164.556763</ele>
<time>2011-10-10T12:38:48Z</time>
<desc>lat.=44.639278, lon.=33.828163, Alt.=164.556763m. Speed=0.828000m/h.</desc>
<speed>0.230000</speed>
</trkpt>
<trkpt lat="44.639294" lon="33.828152">
<ele>164.361450</ele>
<time>2011-10-10T12:38:53Z</time>
<desc>lat.=44.639294, lon.=33.828152, Alt.=164.361450m. Speed=1.116000m/h.</desc>
<speed>0.310000</speed>
</trkpt>
<trkpt lat="44.639317" lon="33.828121">
<ele>163.666138</ele>
<time>2011-10-10T12:38:58Z</time>
<desc>lat.=44.639317, lon.=33.828121, Alt.=163.666138m. Speed=1.152000m/h.</desc>
<speed>0.320000</speed>
</trkpt>
<trkpt lat="44.639317" lon="33.828114">
<ele>163.158325</ele>
<time>2011-10-10T12:39:03Z</time>
<desc>lat.=44.639317, lon.=33.828114, Alt.=163.158325m. Speed=0.756000m/h.</desc>
<speed>0.210000</speed>
</trkpt>
<trkpt lat="44.639320" lon="33.828117">
<ele>163.005981</ele>
<time>2011-10-10T12:39:08Z</time>
<desc>lat.=44.639320, lon.=33.828117, Alt.=163.005981m. Speed=0.360000m/h.</desc>
<speed>0.100000</speed>
</trkpt>
<trkpt lat="44.639324" lon="33.828117">
<ele>162.912231</ele>
<time>2011-10-10T12:39:13Z</time>
<desc>lat.=44.639324, lon.=33.828117, Alt.=162.912231m. Speed=0.216000m/h.</desc>
<speed>0.060000</speed>
</trkpt>
<trkpt lat="44.639324" lon="33.828117">
<ele>162.814575</ele>
<time>2011-10-10T12:39:18Z</time>
<desc>lat.=44.639324, lon.=33.828117, Alt.=162.814575m. Speed=0.108000m/h.</desc>
<speed>0.030000</speed>
</trkpt>
<trkpt lat="44.639320" lon="33.828121">
<ele>162.716919</ele>
<time>2011-10-10T12:39:23Z</time>
<desc>lat.=44.639320, lon.=33.828121, Alt.=162.716919m. Speed=0.180000m/h.</desc>
<speed>0.050000</speed>
</trkpt>
<trkpt lat="44.639320" lon="33.828121">
<ele>162.713013</ele>
<time>2011-10-10T12:39:28Z</time>
<desc>lat.=44.639320, lon.=33.828121, Alt.=162.713013m. Speed=0.036000m/h.</desc>
<speed>0.010000</speed>
</trkpt>
<trkpt lat="44.639320" lon="33.828121">
<ele>162.705200</ele>
<time>2011-10-10T12:39:33Z</time>
<desc>lat.=44.639320, lon.=33.828121, Alt.=162.705200m. Speed=0.108000m/h.</desc>
<speed>0.030000</speed>
</trkpt>
<trkpt lat="44.639317" lon="33.828121">
<ele>162.701294</ele>
<time>2011-10-10T12:39:38Z</time>
<desc>lat.=44.639317, lon.=33.828121, Alt.=162.701294m. Speed=0.036000m/h.</desc>
<speed>0.010000</speed>
</trkpt>
<trkpt lat="44.639317" lon="33.828121">
<ele>162.701294</ele>
<time>2011-10-10T12:39:43Z</time>
<desc>lat.=44.639317, lon.=33.828121, Alt.=162.701294m. Speed=0.036000m/h.</desc>
<speed>0.010000</speed>
</trkpt>
<trkpt lat="44.639317" lon="33.828121">
<ele>162.701294</ele>
<time>2011-10-10T12:39:48Z</time>
<desc>lat.=44.639317, lon.=33.828121, Alt.=162.701294m. Speed=0.036000m/h.</desc>
<speed>0.010000</speed>
</trkpt>
<trkpt lat="44.639317" lon="33.828121">
<ele>162.701294</ele>
<time>2011-10-10T12:39:53Z</time>
<desc>lat.=44.639317, lon.=33.828121, Alt.=162.701294m. Speed=0.036000m/h.</desc>
<speed>0.010000</speed>
</trkpt>
<trkpt lat="44.639317" lon="33.828121">
<ele>162.701294</ele>
<time>2011-10-10T12:39:58Z</time>
<desc>lat.=44.639317, lon.=33.828121, Alt.=162.701294m. Speed=0.036000m/h.</desc>
<speed>0.010000</speed>
</trkpt>
<trkpt lat="44.639317" lon="33.828121">
<ele>162.701294</ele>
<time>2011-10-10T12:40:03Z</time>
<desc>lat.=44.639317, lon.=33.828121, Alt.=162.701294m. Speed=0.000000m/h.</desc>
<speed>0.000000</speed>
</trkpt>
<trkpt lat="44.639317" lon="33.828121">
<ele>162.701294</ele>
<time>2011-10-10T12:40:08Z</time>
<desc>lat.=44.639317, lon.=33.828121, Alt.=162.701294m. Speed=0.072000m/h.</desc>
<speed>0.020000</speed>
</trkpt>
<trkpt lat="44.639313" lon="33.828121">
<ele>162.693481</ele>
<time>2011-10-10T12:40:13Z</time>
<desc>lat.=44.639313, lon.=33.828121, Alt.=162.693481m. Speed=0.216000m/h.</desc>
<speed>0.060000</speed>
</trkpt>
<trkpt lat="44.639313" lon="33.828129">
<ele>162.681763</ele>
<time>2011-10-10T12:40:18Z</time>
<desc>lat.=44.639313, lon.=33.828129, Alt.=162.681763m. Speed=0.396000m/h.</desc>
<speed>0.110000</speed>
</trkpt>
<trkpt lat="44.639309" lon="33.828133">
<ele>162.666138</ele>
<time>2011-10-10T12:40:23Z</time>
<desc>lat.=44.639309, lon.=33.828133, Alt.=162.666138m. Speed=0.576000m/h.</desc>
<speed>0.160000</speed>
</trkpt>
<trkpt lat="44.639301" lon="33.828140">
<ele>162.642700</ele>
<time>2011-10-10T12:40:28Z</time>
<desc>lat.=44.639301, lon.=33.828140, Alt.=162.642700m. Speed=0.648000m/h.</desc>
<speed>0.180000</speed>
</trkpt>
<trkpt lat="44.639297" lon="33.828152">
<ele>162.611450</ele>
<time>2011-10-10T12:40:33Z</time>
<desc>lat.=44.639297, lon.=33.828152, Alt.=162.611450m. Speed=0.756000m/h.</desc>
<speed>0.210000</speed>
</trkpt>
<trkpt lat="44.639290" lon="33.828163">
<ele>162.568481</ele>
<time>2011-10-10T12:40:38Z</time>
<desc>lat.=44.639290, lon.=33.828163, Alt.=162.568481m. Speed=0.792000m/h.</desc>
<speed>0.220000</speed>
</trkpt>
<trkpt lat="44.639286" lon="33.828178">
<ele>162.509888</ele>
<time>2011-10-10T12:40:43Z</time>
<desc>lat.=44.639286, lon.=33.828178, Alt.=162.509888m. Speed=0.684000m/h.</desc>
<speed>0.190000</speed>
</trkpt>
<trkpt lat="44.639286" lon="33.828186">
<ele>162.431763</ele>
<time>2011-10-10T12:40:48Z</time>
<desc>lat.=44.639286, lon.=33.828186, Alt.=162.431763m. Speed=0.468000m/h.</desc>
<speed>0.130000</speed>
</trkpt>
<trkpt lat="44.639286" lon="33.828194">
<ele>162.334106</ele>
<time>2011-10-10T12:40:53Z</time>
<desc>lat.=44.639286, lon.=33.828194, Alt.=162.334106m. Speed=0.324000m/h.</desc>
<speed>0.090000</speed>
</trkpt>
<trkpt lat="44.639282" lon="33.828201">
<ele>162.213013</ele>
<time>2011-10-10T12:40:58Z</time>
<desc>lat.=44.639282, lon.=33.828201, Alt.=162.213013m. Speed=0.324000m/h.</desc>
<speed>0.090000</speed>
</trkpt>
<trkpt lat="44.639282" lon="33.828205">
<ele>162.068481</ele>
<time>2011-10-10T12:41:03Z</time>
<desc>lat.=44.639282, lon.=33.828205, Alt.=162.068481m. Speed=0.396000m/h.</desc>
<speed>0.110000</speed>
</trkpt>
<trkpt lat="44.639282" lon="33.828209">
<ele>161.888794</ele>
<time>2011-10-10T12:41:08Z</time>
<desc>lat.=44.639282, lon.=33.828209, Alt.=161.888794m. Speed=0.180000m/h.</desc>
<speed>0.050000</speed>
</trkpt>
<trkpt lat="44.639278" lon="33.828213">
<ele>161.662231</ele>
<time>2011-10-10T12:41:13Z</time>
<desc>lat.=44.639278, lon.=33.828213, Alt.=161.662231m. Speed=0.108000m/h.</desc>
<speed>0.030000</speed>
</trkpt>
<trkpt lat="44.639278" lon="33.828213">
<ele>161.400513</ele>
<time>2011-10-10T12:41:18Z</time>
<desc>lat.=44.639278, lon.=33.828213, Alt.=161.400513m. Speed=0.108000m/h.</desc>
<speed>0.030000</speed>
</trkpt>
<trkpt lat="44.639278" lon="33.828209">
<ele>161.322388</ele>
<time>2011-10-10T12:41:23Z</time>
<desc>lat.=44.639278, lon.=33.828209, Alt.=161.322388m. Speed=0.036000m/h.</desc>
<speed>0.010000</speed>
</trkpt>
<trkpt lat="44.639278" lon="33.828209">
<ele>161.302856</ele>
<time>2011-10-10T12:41:28Z</time>
<desc>lat.=44.639278, lon.=33.828209, Alt.=161.302856m. Speed=0.072000m/h.</desc>
<speed>0.020000</speed>
</trkpt>
<trkpt lat="44.639278" lon="33.828209">
<ele>161.295044</ele>
<time>2011-10-10T12:41:33Z</time>
<desc>lat.=44.639278, lon.=33.828209, Alt.=161.295044m. Speed=0.036000m/h.</desc>
<speed>0.010000</speed>
</trkpt>
<trkpt lat="44.639278" lon="33.828209">
<ele>161.228638</ele>
<time>2011-10-10T12:41:38Z</time>
<desc>lat.=44.639278, lon.=33.828209, Alt.=161.228638m. Speed=0.036000m/h.</desc>
<speed>0.010000</speed>
</trkpt>
<trkpt lat="44.639278" lon="33.828209">
<ele>161.213013</ele>
<time>2011-10-10T12:41:43Z</time>
<desc>lat.=44.639278, lon.=33.828209, Alt.=161.213013m. Speed=0.036000m/h.</desc>
<speed>0.010000</speed>
</trkpt>
<trkpt lat="44.639278" lon="33.828209">
<ele>161.205200</ele>
<time>2011-10-10T12:41:48Z</time>
<desc>lat.=44.639278, lon.=33.828209, Alt.=161.205200m. Speed=0.000000m/h.</desc>
<speed>0.000000</speed>
</trkpt>
<trkpt lat="44.639278" lon="33.828209">
<ele>161.189575</ele>
<time>2011-10-10T12:41:53Z</time>
<desc>lat.=44.639278, lon.=33.828209, Alt.=161.189575m. Speed=0.000000m/h.</desc>
<speed>0.000000</speed>
</trkpt>
<trkpt lat="44.639278" lon="33.828205">
<ele>161.166138</ele>
<time>2011-10-10T12:41:58Z</time>
<desc>lat.=44.639278, lon.=33.828205, Alt.=161.166138m. Speed=0.036000m/h.</desc>
<speed>0.010000</speed>
</trkpt>
<trkpt lat="44.639278" lon="33.828205">
<ele>161.127075</ele>
<time>2011-10-10T12:42:03Z</time>
<desc>lat.=44.639278, lon.=33.828205, Alt.=161.127075m. Speed=0.000000m/h.</desc>
<speed>0.000000</speed>
</trkpt>
<trkpt lat="44.639278" lon="33.828205">
<ele>161.080200</ele>
<time>2011-10-10T12:42:08Z</time>
<desc>lat.=44.639278, lon.=33.828205, Alt.=161.080200m. Speed=0.000000m/h.</desc>
<speed>0.000000</speed>
</trkpt>
<trkpt lat="44.639278" lon="33.828205">
<ele>161.052856</ele>
<time>2011-10-10T12:42:13Z</time>
<desc>lat.=44.639278, lon.=33.828205, Alt.=161.052856m. Speed=0.036000m/h.</desc>
<speed>0.010000</speed>
</trkpt>
<trkpt lat="44.639278" lon="33.828205">
<ele>161.013794</ele>
<time>2011-10-10T12:42:18Z</time>
<desc>lat.=44.639278, lon.=33.828205, Alt.=161.013794m. Speed=0.036000m/h.</desc>
<speed>0.010000</speed>
</trkpt>
<trkpt lat="44.639278" lon="33.828205">
<ele>160.966919</ele>
<time>2011-10-10T12:42:23Z</time>
<desc>lat.=44.639278, lon.=33.828205, Alt.=160.966919m. Speed=0.036000m/h.</desc>
<speed>0.010000</speed>
</trkpt>
<trkpt lat="44.639278" lon="33.828205">
<ele>160.912231</ele>
<time>2011-10-10T12:42:28Z</time>
<desc>lat.=44.639278, lon.=33.828205, Alt.=160.912231m. Speed=0.000000m/h.</desc>
<speed>0.000000</speed>
</trkpt>
<trkpt lat="44.639278" lon="33.828205">
<ele>160.873169</ele>
<time>2011-10-10T12:42:33Z</time>
<desc>lat.=44.639278, lon.=33.828205, Alt.=160.873169m. Speed=0.036000m/h.</desc>
<speed>0.010000</speed>
</trkpt>
<trkpt lat="44.639278" lon="33.828205">
<ele>160.806763</ele>
<time>2011-10-10T12:42:38Z</time>
<desc>lat.=44.639278, lon.=33.828205, Alt.=160.806763m. Speed=0.036000m/h.</desc>
<speed>0.010000</speed>
</trkpt>
<trkpt lat="44.639275" lon="33.828201">
<ele>160.791138</ele>
<time>2011-10-10T12:42:43Z</time>
<desc>lat.=44.639275, lon.=33.828201, Alt.=160.791138m. Speed=0.108000m/h.</desc>
<speed>0.030000</speed>
</trkpt>
<trkpt lat="44.639275" lon="33.828201">
<ele>160.752075</ele>
<time>2011-10-10T12:42:48Z</time>
<desc>lat.=44.639275, lon.=33.828201, Alt.=160.752075m. Speed=0.036000m/h.</desc>
<speed>0.010000</speed>
</trkpt>
<trkpt lat="44.639275" lon="33.828201">
<ele>160.701294</ele>
<time>2011-10-10T12:42:53Z</time>
<desc>lat.=44.639275, lon.=33.828201, Alt.=160.701294m. Speed=0.036000m/h.</desc>
<speed>0.010000</speed>
</trkpt>
<trkpt lat="44.639275" lon="33.828201">
<ele>160.673950</ele>
<time>2011-10-10T12:42:58Z</time>
<desc>lat.=44.639275, lon.=33.828201, Alt.=160.673950m. Speed=0.144000m/h.</desc>
<speed>0.040000</speed>
</trkpt>
<trkpt lat="44.639275" lon="33.828201">
<ele>160.630981</ele>
<time>2011-10-10T12:43:03Z</time>
<desc>lat.=44.639275, lon.=33.828201, Alt.=160.630981m. Speed=0.144000m/h.</desc>
<speed>0.040000</speed>
</trkpt>
<trkpt lat="44.639275" lon="33.828197">
<ele>160.584106</ele>
<time>2011-10-10T12:43:08Z</time>
<desc>lat.=44.639275, lon.=33.828197, Alt.=160.584106m. Speed=0.072000m/h.</desc>
<speed>0.020000</speed>
</trkpt>
<trkpt lat="44.639275" lon="33.828197">
<ele>160.521606</ele>
<time>2011-10-10T12:43:13Z</time>
<desc>lat.=44.639275, lon.=33.828197, Alt.=160.521606m. Speed=0.036000m/h.</desc>
<speed>0.010000</speed>
</trkpt>
<trkpt lat="44.639275" lon="33.828197">
<ele>160.470825</ele>
<time>2011-10-10T12:43:18Z</time>
<desc>lat.=44.639275, lon.=33.828197, Alt.=160.470825m. Speed=0.000000m/h.</desc>
<speed>0.000000</speed>
</trkpt>
<trkpt lat="44.639275" lon="33.828197">
<ele>160.427856</ele>
<time>2011-10-10T12:43:23Z</time>
<desc>lat.=44.639275, lon.=33.828197, Alt.=160.427856m. Speed=0.036000m/h.</desc>
<speed>0.010000</speed>
</trkpt>
<trkpt lat="44.639275" lon="33.828197">
<ele>160.377075</ele>
<time>2011-10-10T12:43:28Z</time>
<desc>lat.=44.639275, lon.=33.828197, Alt.=160.377075m. Speed=0.036000m/h.</desc>
<speed>0.010000</speed>
</trkpt>
<trkpt lat="44.639275" lon="33.828197">
<ele>160.306763</ele>
<time>2011-10-10T12:43:33Z</time>
<desc>lat.=44.639275, lon.=33.828197, Alt.=160.306763m. Speed=0.036000m/h.</desc>
<speed>0.010000</speed>
</trkpt>
<trkpt lat="44.639275" lon="33.828197">
<ele>160.216919</ele>
<time>2011-10-10T12:43:38Z</time>
<desc>lat.=44.639275, lon.=33.828197, Alt.=160.216919m. Speed=0.036000m/h.</desc>
<speed>0.010000</speed>
</trkpt>
<trkpt lat="44.639275" lon="33.828197">
<ele>160.127075</ele>
<time>2011-10-10T12:43:43Z</time>
<desc>lat.=44.639275, lon.=33.828197, Alt.=160.127075m. Speed=0.000000m/h.</desc>
<speed>0.000000</speed>
</trkpt>
<trkpt lat="44.639275" lon="33.828197">
<ele>160.068481</ele>
<time>2011-10-10T12:43:48Z</time>
<desc>lat.=44.639275, lon.=33.828197, Alt.=160.068481m. Speed=0.036000m/h.</desc>
<speed>0.010000</speed>
</trkpt>
<trkpt lat="44.639275" lon="33.828194">
<ele>160.041138</ele>
<time>2011-10-10T12:43:53Z</time>
<desc>lat.=44.639275, lon.=33.828194, Alt.=160.041138m. Speed=0.000000m/h.</desc>
<speed>0.000000</speed>
</trkpt>
<trkpt lat="44.639275" lon="33.828194">
<ele>160.002075</ele>
<time>2011-10-10T12:43:58Z</time>
<desc>lat.=44.639275, lon.=33.828194, Alt.=160.002075m. Speed=0.036000m/h.</desc>
<speed>0.010000</speed>
</trkpt>
<trkpt lat="44.639275" lon="33.828194">
<ele>159.966919</ele>
<time>2011-10-10T12:44:03Z</time>
<desc>lat.=44.639275, lon.=33.828194, Alt.=159.966919m. Speed=0.036000m/h.</desc>
<speed>0.010000</speed>
</trkpt>
<trkpt lat="44.639275" lon="33.828194">
<ele>159.931763</ele>
<time>2011-10-10T12:44:08Z</time>
<desc>lat.=44.639275, lon.=33.828194, Alt.=159.931763m. Speed=0.036000m/h.</desc>
<speed>0.010000</speed>
</trkpt>
<trkpt lat="44.639275" lon="33.828194">
<ele>159.908325</ele>
<time>2011-10-10T12:44:13Z</time>
<desc>lat.=44.639275, lon.=33.828194, Alt.=159.908325m. Speed=0.000000m/h.</desc>
<speed>0.000000</speed>
</trkpt>
<trkpt lat="44.639275" lon="33.828194">
<ele>159.877075</ele>
<time>2011-10-10T12:44:18Z</time>
<desc>lat.=44.639275, lon.=33.828194, Alt.=159.877075m. Speed=0.036000m/h.</desc>
<speed>0.010000</speed>
</trkpt>
<trkpt lat="44.639275" lon="33.828194">
<ele>159.861450</ele>
<time>2011-10-10T12:44:23Z</time>
<desc>lat.=44.639275, lon.=33.828194, Alt.=159.861450m. Speed=0.036000m/h.</desc>
<speed>0.010000</speed>
</trkpt>
<trkpt lat="44.639275" lon="33.828194">
<ele>159.857544</ele>
<time>2011-10-10T12:44:28Z</time>
<desc>lat.=44.639275, lon.=33.828194, Alt.=159.857544m. Speed=0.036000m/h.</desc>
<speed>0.010000</speed>
</trkpt>
<trkpt lat="44.639275" lon="33.828190">
<ele>159.841919</ele>
<time>2011-10-10T12:44:33Z</time>
<desc>lat.=44.639275, lon.=33.828190, Alt.=159.841919m. Speed=0.072000m/h.</desc>
<speed>0.020000</speed>
</trkpt>
<trkpt lat="44.639275" lon="33.828190">
<ele>159.818481</ele>
<time>2011-10-10T12:44:38Z</time>
<desc>lat.=44.639275, lon.=33.828190, Alt.=159.818481m. Speed=0.036000m/h.</desc>
<speed>0.010000</speed>
</trkpt>
<trkpt lat="44.639275" lon="33.828190">
<ele>159.806763</ele>
<time>2011-10-10T12:44:43Z</time>
<desc>lat.=44.639275, lon.=33.828190, Alt.=159.806763m. Speed=0.072000m/h.</desc>
<speed>0.020000</speed>
</trkpt>
<trkpt lat="44.639275" lon="33.828190">
<ele>159.791138</ele>
<time>2011-10-10T12:44:48Z</time>
<desc>lat.=44.639275, lon.=33.828190, Alt.=159.791138m. Speed=0.036000m/h.</desc>
<speed>0.010000</speed>
</trkpt>
<trkpt lat="44.639275" lon="33.828190">
<ele>159.779419</ele>
<time>2011-10-10T12:44:53Z</time>
<desc>lat.=44.639275, lon.=33.828190, Alt.=159.779419m. Speed=0.108000m/h.</desc>
<speed>0.030000</speed>
</trkpt>
<trkpt lat="44.639275" lon="33.828186">
<ele>159.759888</ele>
<time>2011-10-10T12:44:58Z</time>
<desc>lat.=44.639275, lon.=33.828186, Alt.=159.759888m. Speed=0.036000m/h.</desc>
<speed>0.010000</speed>
</trkpt>
<trkpt lat="44.639275" lon="33.828186">
<ele>159.713013</ele>
<time>2011-10-10T12:45:03Z</time>
<desc>lat.=44.639275, lon.=33.828186, Alt.=159.713013m. Speed=0.108000m/h.</desc>
<speed>0.030000</speed>
</trkpt>
<trkpt lat="44.639278" lon="33.828186">
<ele>159.673950</ele>
<time>2011-10-10T12:45:08Z</time>
<desc>lat.=44.639278, lon.=33.828186, Alt.=159.673950m. Speed=0.036000m/h.</desc>
<speed>0.010000</speed>
</trkpt>
<trkpt lat="44.639278" lon="33.828186">
<ele>159.650513</ele>
<time>2011-10-10T12:45:13Z</time>
<desc>lat.=44.639278, lon.=33.828186, Alt.=159.650513m. Speed=0.036000m/h.</desc>
<speed>0.010000</speed>
</trkpt>
<trkpt lat="44.639278" lon="33.828186">
<ele>159.623169</ele>
<time>2011-10-10T12:45:18Z</time>
<desc>lat.=44.639278, lon.=33.828186, Alt.=159.623169m. Speed=0.072000m/h.</desc>
<speed>0.020000</speed>
</trkpt>
<trkpt lat="44.639275" lon="33.828190">
<ele>159.595825</ele>
<time>2011-10-10T12:45:23Z</time>
<desc>lat.=44.639275, lon.=33.828190, Alt.=159.595825m. Speed=1.332000m/h.</desc>
<speed>0.370000</speed>
</trkpt>
<trkpt lat="44.639297" lon="33.828236">
<ele>158.748169</ele>
<time>2011-10-10T12:45:28Z</time>
<desc>lat.=44.639297, lon.=33.828236, Alt.=158.748169m. Speed=2.484000m/h.</desc>
<speed>0.690000</speed>
</trkpt>
<trkpt lat="44.639301" lon="33.828220">
<ele>158.119263</ele>
<time>2011-10-10T12:45:33Z</time>
<desc>lat.=44.639301, lon.=33.828220, Alt.=158.119263m. Speed=0.540000m/h.</desc>
<speed>0.150000</speed>
</trkpt>
<trkpt lat="44.639328" lon="33.828293">
<ele>155.869263</ele>
<time>2011-10-10T12:45:38Z</time>
<desc>lat.=44.639328, lon.=33.828293, Alt.=155.869263m. Speed=2.088000m/h.</desc>
<speed>0.580000</speed>
</trkpt>
<trkpt lat="44.639339" lon="33.828266">
<ele>155.009888</ele>
<time>2011-10-10T12:45:43Z</time>
<desc>lat.=44.639339, lon.=33.828266, Alt.=155.009888m. Speed=1.944000m/h.</desc>
<speed>0.540000</speed>
</trkpt>
<trkpt lat="44.639347" lon="33.828293">
<ele>154.447388</ele>
<time>2011-10-10T12:45:48Z</time>
<desc>lat.=44.639347, lon.=33.828293, Alt.=154.447388m. Speed=1.116000m/h.</desc>
<speed>0.310000</speed>
</trkpt>
<trkpt lat="44.639351" lon="33.828300">
<ele>153.455200</ele>
<time>2011-10-10T12:45:53Z</time>
<desc>lat.=44.639351, lon.=33.828300, Alt.=153.455200m. Speed=0.216000m/h.</desc>
<speed>0.060000</speed>
</trkpt>
<trkpt lat="44.639286" lon="33.828278">
<ele>151.869263</ele>
<time>2011-10-10T12:45:58Z</time>
<desc>lat.=44.639286, lon.=33.828278, Alt.=151.869263m. Speed=2.268000m/h.</desc>
<speed>0.630000</speed>
</trkpt>
<trkpt lat="44.639248" lon="33.828259">
<ele>149.775513</ele>
<time>2011-10-10T12:46:03Z</time>
<desc>lat.=44.639248, lon.=33.828259, Alt.=149.775513m. Speed=0.108000m/h.</desc>
<speed>0.030000</speed>
</trkpt>
<trkpt lat="44.639248" lon="33.828255">
<ele>149.814575</ele>
<time>2011-10-10T12:46:08Z</time>
<desc>lat.=44.639248, lon.=33.828255, Alt.=149.814575m. Speed=0.360000m/h.</desc>
<speed>0.100000</speed>
</trkpt>
<trkpt lat="44.639252" lon="33.828255">
<ele>149.880981</ele>
<time>2011-10-10T12:46:13Z</time>
<desc>lat.=44.639252, lon.=33.828255, Alt.=149.880981m. Speed=0.180000m/h.</desc>
<speed>0.050000</speed>
</trkpt>
<trkpt lat="44.639252" lon="33.828255">
<ele>149.861450</ele>
<time>2011-10-10T12:46:18Z</time>
<desc>lat.=44.639252, lon.=33.828255, Alt.=149.861450m. Speed=0.036000m/h.</desc>
<speed>0.010000</speed>
</trkpt>
<trkpt lat="44.639248" lon="33.828255">
<ele>149.877075</ele>
<time>2011-10-10T12:46:23Z</time>
<desc>lat.=44.639248, lon.=33.828255, Alt.=149.877075m. Speed=0.072000m/h.</desc>
<speed>0.020000</speed>
</trkpt>
<trkpt lat="44.639248" lon="33.828251">
<ele>149.884888</ele>
<time>2011-10-10T12:46:28Z</time>
<desc>lat.=44.639248, lon.=33.828251, Alt.=149.884888m. Speed=0.360000m/h.</desc>
<speed>0.100000</speed>
</trkpt>
<trkpt lat="44.639248" lon="33.828251">
<ele>149.880981</ele>
<time>2011-10-10T12:46:33Z</time>
<desc>lat.=44.639248, lon.=33.828251, Alt.=149.880981m. Speed=0.144000m/h.</desc>
<speed>0.040000</speed>
</trkpt>
<trkpt lat="44.639248" lon="33.828251">
<ele>149.865356</ele>
<time>2011-10-10T12:46:38Z</time>
<desc>lat.=44.639248, lon.=33.828251, Alt.=149.865356m. Speed=0.468000m/h.</desc>
<speed>0.130000</speed>
</trkpt>
<trkpt lat="44.639248" lon="33.828251">
<ele>149.873169</ele>
<time>2011-10-10T12:46:43Z</time>
<desc>lat.=44.639248, lon.=33.828251, Alt.=149.873169m. Speed=0.036000m/h.</desc>
<speed>0.010000</speed>
</trkpt>
<trkpt lat="44.639248" lon="33.828251">
<ele>149.873169</ele>
<time>2011-10-10T12:46:48Z</time>
<desc>lat.=44.639248, lon.=33.828251, Alt.=149.873169m. Speed=0.036000m/h.</desc>
<speed>0.010000</speed>
</trkpt>
<trkpt lat="44.639248" lon="33.828251">
<ele>149.873169</ele>
<time>2011-10-10T12:46:53Z</time>
<desc>lat.=44.639248, lon.=33.828251, Alt.=149.873169m. Speed=0.036000m/h.</desc>
<speed>0.010000</speed>
</trkpt>
<trkpt lat="44.639248" lon="33.828251">
<ele>149.873169</ele>
<time>2011-10-10T12:46:58Z</time>
<desc>lat.=44.639248, lon.=33.828251, Alt.=149.873169m. Speed=0.108000m/h.</desc>
<speed>0.030000</speed>
</trkpt>
<trkpt lat="44.639248" lon="33.828251">
<ele>150.111450</ele>
<time>2011-10-10T12:47:03Z</time>
<desc>lat.=44.639248, lon.=33.828251, Alt.=150.111450m. Speed=0.432000m/h.</desc>
<speed>0.120000</speed>
</trkpt>
<trkpt lat="44.639248" lon="33.828239">
<ele>150.830200</ele>
<time>2011-10-10T12:47:08Z</time>
<desc>lat.=44.639248, lon.=33.828239, Alt.=150.830200m. Speed=0.000000m/h.</desc>
<speed>0.000000</speed>
</trkpt>
<trkpt lat="44.639248" lon="33.828239">
<ele>150.838013</ele>
<time>2011-10-10T12:47:13Z</time>
<desc>lat.=44.639248, lon.=33.828239, Alt.=150.838013m. Speed=0.324000m/h.</desc>
<speed>0.090000</speed>
</trkpt>
<trkpt lat="44.639248" lon="33.828239">
<ele>150.849731</ele>
<time>2011-10-10T12:47:18Z</time>
<desc>lat.=44.639248, lon.=33.828239, Alt.=150.849731m. Speed=0.000000m/h.</desc>
<speed>0.000000</speed>
</trkpt>
<trkpt lat="44.639248" lon="33.828239">
<ele>150.849731</ele>
<time>2011-10-10T12:47:23Z</time>
<desc>lat.=44.639248, lon.=33.828239, Alt.=150.849731m. Speed=0.144000m/h.</desc>
<speed>0.040000</speed>
</trkpt>
<trkpt lat="44.639248" lon="33.828228">
<ele>150.923950</ele>
<time>2011-10-10T12:47:28Z</time>
<desc>lat.=44.639248, lon.=33.828228, Alt.=150.923950m. Speed=1.044000m/h.</desc>
<speed>0.290000</speed>
</trkpt>
<trkpt lat="44.639244" lon="33.828217">
<ele>151.084106</ele>
<time>2011-10-10T12:47:33Z</time>
<desc>lat.=44.639244, lon.=33.828217, Alt.=151.084106m. Speed=0.396000m/h.</desc>
<speed>0.110000</speed>
</trkpt>
<trkpt lat="44.639244" lon="33.828209">
<ele>151.279419</ele>
<time>2011-10-10T12:47:38Z</time>
<desc>lat.=44.639244, lon.=33.828209, Alt.=151.279419m. Speed=0.252000m/h.</desc>
<speed>0.070000</speed>
</trkpt>
<trkpt lat="44.639244" lon="33.828205">
<ele>151.509888</ele>
<time>2011-10-10T12:47:43Z</time>
<desc>lat.=44.639244, lon.=33.828205, Alt.=151.509888m. Speed=0.324000m/h.</desc>
<speed>0.090000</speed>
</trkpt>
<trkpt lat="44.639248" lon="33.828197">
<ele>151.771606</ele>
<time>2011-10-10T12:47:48Z</time>
<desc>lat.=44.639248, lon.=33.828197, Alt.=151.771606m. Speed=0.360000m/h.</desc>
<speed>0.100000</speed>
</trkpt>
<trkpt lat="44.639244" lon="33.828190">
<ele>151.974731</ele>
<time>2011-10-10T12:47:53Z</time>
<desc>lat.=44.639244, lon.=33.828190, Alt.=151.974731m. Speed=0.288000m/h.</desc>
<speed>0.080000</speed>
</trkpt>
<trkpt lat="44.639244" lon="33.828186">
<ele>152.154419</ele>
<time>2011-10-10T12:47:58Z</time>
<desc>lat.=44.639244, lon.=33.828186, Alt.=152.154419m. Speed=0.252000m/h.</desc>
<speed>0.070000</speed>
</trkpt>
<trkpt lat="44.639244" lon="33.828182">
<ele>152.373169</ele>
<time>2011-10-10T12:48:03Z</time>
<desc>lat.=44.639244, lon.=33.828182, Alt.=152.373169m. Speed=0.288000m/h.</desc>
<speed>0.080000</speed>
</trkpt>
<trkpt lat="44.639240" lon="33.828175">
<ele>152.588013</ele>
<time>2011-10-10T12:48:08Z</time>
<desc>lat.=44.639240, lon.=33.828175, Alt.=152.588013m. Speed=0.288000m/h.</desc>
<speed>0.080000</speed>
</trkpt>
<trkpt lat="44.639240" lon="33.828171">
<ele>152.779419</ele>
<time>2011-10-10T12:48:13Z</time>
<desc>lat.=44.639240, lon.=33.828171, Alt.=152.779419m. Speed=0.216000m/h.</desc>
<speed>0.060000</speed>
</trkpt>
<trkpt lat="44.639240" lon="33.828167">
<ele>152.955200</ele>
<time>2011-10-10T12:48:18Z</time>
<desc>lat.=44.639240, lon.=33.828167, Alt.=152.955200m. Speed=0.144000m/h.</desc>
<speed>0.040000</speed>
</trkpt>
<trkpt lat="44.639240" lon="33.828163">
<ele>153.099731</ele>
<time>2011-10-10T12:48:23Z</time>
<desc>lat.=44.639240, lon.=33.828163, Alt.=153.099731m. Speed=0.036000m/h.</desc>
<speed>0.010000</speed>
</trkpt>
<trkpt lat="44.639244" lon="33.828167">
<ele>153.267700</ele>
<time>2011-10-10T12:48:28Z</time>
<desc>lat.=44.639244, lon.=33.828167, Alt.=153.267700m. Speed=2.556000m/h.</desc>
<speed>0.710000</speed>
</trkpt>
<trkpt lat="44.639256" lon="33.828167">
<ele>153.318481</ele>
<time>2011-10-10T12:48:33Z</time>
<desc>lat.=44.639256, lon.=33.828167, Alt.=153.318481m. Speed=0.360000m/h.</desc>
<speed>0.100000</speed>
</trkpt>
<trkpt lat="44.639259" lon="33.828167">
<ele>153.228638</ele>
<time>2011-10-10T12:48:38Z</time>
<desc>lat.=44.639259, lon.=33.828167, Alt.=153.228638m. Speed=0.036000m/h.</desc>
<speed>0.010000</speed>
</trkpt>
<trkpt lat="44.639259" lon="33.828171">
<ele>153.236450</ele>
<time>2011-10-10T12:48:43Z</time>
<desc>lat.=44.639259, lon.=33.828171, Alt.=153.236450m. Speed=0.108000m/h.</desc>
<speed>0.030000</speed>
</trkpt>
<trkpt lat="44.639259" lon="33.828167">
<ele>153.283325</ele>
<time>2011-10-10T12:48:48Z</time>
<desc>lat.=44.639259, lon.=33.828167, Alt.=153.283325m. Speed=0.216000m/h.</desc>
<speed>0.060000</speed>
</trkpt>
<trkpt lat="44.639259" lon="33.828167">
<ele>153.310669</ele>
<time>2011-10-10T12:48:53Z</time>
<desc>lat.=44.639259, lon.=33.828167, Alt.=153.310669m. Speed=0.000000m/h.</desc>
<speed>0.000000</speed>
</trkpt>
<trkpt lat="44.639259" lon="33.828167">
<ele>153.291138</ele>
<time>2011-10-10T12:48:58Z</time>
<desc>lat.=44.639259, lon.=33.828167, Alt.=153.291138m. Speed=0.000000m/h.</desc>
<speed>0.000000</speed>
</trkpt>
<trkpt lat="44.639259" lon="33.828167">
<ele>153.275513</ele>
<time>2011-10-10T12:49:03Z</time>
<desc>lat.=44.639259, lon.=33.828167, Alt.=153.275513m. Speed=0.180000m/h.</desc>
<speed>0.050000</speed>
</trkpt>
<trkpt lat="44.639259" lon="33.828167">
<ele>153.244263</ele>
<time>2011-10-10T12:49:08Z</time>
<desc>lat.=44.639259, lon.=33.828167, Alt.=153.244263m. Speed=0.000000m/h.</desc>
<speed>0.000000</speed>
</trkpt>
<trkpt lat="44.639259" lon="33.828171">
<ele>153.240356</ele>
<time>2011-10-10T12:49:13Z</time>
<desc>lat.=44.639259, lon.=33.828171, Alt.=153.240356m. Speed=0.000000m/h.</desc>
<speed>0.000000</speed>
</trkpt>
<trkpt lat="44.639259" lon="33.828171">
<ele>153.213013</ele>
<time>2011-10-10T12:49:18Z</time>
<desc>lat.=44.639259, lon.=33.828171, Alt.=153.213013m. Speed=0.036000m/h.</desc>
<speed>0.010000</speed>
</trkpt>
<trkpt lat="44.639259" lon="33.828171">
<ele>153.205200</ele>
<time>2011-10-10T12:49:23Z</time>
<desc>lat.=44.639259, lon.=33.828171, Alt.=153.205200m. Speed=0.216000m/h.</desc>
<speed>0.060000</speed>
</trkpt>
<trkpt lat="44.639259" lon="33.828171">
<ele>153.201294</ele>
<time>2011-10-10T12:49:28Z</time>
<desc>lat.=44.639259, lon.=33.828171, Alt.=153.201294m. Speed=0.072000m/h.</desc>
<speed>0.020000</speed>
</trkpt>
<trkpt lat="44.639259" lon="33.828171">
<ele>153.189575</ele>
<time>2011-10-10T12:49:33Z</time>
<desc>lat.=44.639259, lon.=33.828171, Alt.=153.189575m. Speed=0.036000m/h.</desc>
<speed>0.010000</speed>
</trkpt>
<trkpt lat="44.639259" lon="33.828171">
<ele>153.177856</ele>
<time>2011-10-10T12:49:38Z</time>
<desc>lat.=44.639259, lon.=33.828171, Alt.=153.177856m. Speed=0.000000m/h.</desc>
<speed>0.000000</speed>
</trkpt>
<trkpt lat="44.639259" lon="33.828171">
<ele>153.138794</ele>
<time>2011-10-10T12:49:43Z</time>
<desc>lat.=44.639259, lon.=33.828171, Alt.=153.138794m. Speed=0.036000m/h.</desc>
<speed>0.010000</speed>
</trkpt>
<trkpt lat="44.639259" lon="33.828175">
<ele>153.115356</ele>
<time>2011-10-10T12:49:48Z</time>
<desc>lat.=44.639259, lon.=33.828175, Alt.=153.115356m. Speed=0.108000m/h.</desc>
<speed>0.030000</speed>
</trkpt>
<trkpt lat="44.639259" lon="33.828175">
<ele>153.107544</ele>
<time>2011-10-10T12:49:53Z</time>
<desc>lat.=44.639259, lon.=33.828175, Alt.=153.107544m. Speed=0.036000m/h.</desc>
<speed>0.010000</speed>
</trkpt>
<trkpt lat="44.639259" lon="33.828175">
<ele>153.107544</ele>
<time>2011-10-10T12:49:58Z</time>
<desc>lat.=44.639259, lon.=33.828175, Alt.=153.107544m. Speed=0.000000m/h.</desc>
<speed>0.000000</speed>
</trkpt>
<trkpt lat="44.639259" lon="33.828175">
<ele>153.084106</ele>
<time>2011-10-10T12:50:03Z</time>
<desc>lat.=44.639259, lon.=33.828175, Alt.=153.084106m. Speed=0.000000m/h.</desc>
<speed>0.000000</speed>
</trkpt>
<trkpt lat="44.639263" lon="33.828175">
<ele>153.080200</ele>
<time>2011-10-10T12:50:08Z</time>
<desc>lat.=44.639263, lon.=33.828175, Alt.=153.080200m. Speed=0.036000m/h.</desc>
<speed>0.010000</speed>
</trkpt>
<trkpt lat="44.639263" lon="33.828175">
<ele>153.056763</ele>
<time>2011-10-10T12:50:13Z</time>
<desc>lat.=44.639263, lon.=33.828175, Alt.=153.056763m. Speed=0.000000m/h.</desc>
<speed>0.000000</speed>
</trkpt>
<trkpt lat="44.639263" lon="33.828175">
<ele>153.048950</ele>
<time>2011-10-10T12:50:18Z</time>
<desc>lat.=44.639263, lon.=33.828175, Alt.=153.048950m. Speed=0.036000m/h.</desc>
<speed>0.010000</speed>
</trkpt>
<trkpt lat="44.639263" lon="33.828175">
<ele>153.052856</ele>
<time>2011-10-10T12:50:23Z</time>
<desc>lat.=44.639263, lon.=33.828175, Alt.=153.052856m. Speed=0.108000m/h.</desc>
<speed>0.030000</speed>
</trkpt>
<trkpt lat="44.639263" lon="33.828175">
<ele>153.041138</ele>
<time>2011-10-10T12:50:28Z</time>
<desc>lat.=44.639263, lon.=33.828175, Alt.=153.041138m. Speed=0.072000m/h.</desc>
<speed>0.020000</speed>
</trkpt>
<trkpt lat="44.639263" lon="33.828175">
<ele>153.041138</ele>
<time>2011-10-10T12:50:33Z</time>
<desc>lat.=44.639263, lon.=33.828175, Alt.=153.041138m. Speed=0.036000m/h.</desc>
<speed>0.010000</speed>
</trkpt>
<trkpt lat="44.639263" lon="33.828175">
<ele>153.033325</ele>
<time>2011-10-10T12:50:38Z</time>
<desc>lat.=44.639263, lon.=33.828175, Alt.=153.033325m. Speed=0.000000m/h.</desc>
<speed>0.000000</speed>
</trkpt>
<trkpt lat="44.639263" lon="33.828175">
<ele>153.017700</ele>
<time>2011-10-10T12:50:43Z</time>
<desc>lat.=44.639263, lon.=33.828175, Alt.=153.017700m. Speed=0.036000m/h.</desc>
<speed>0.010000</speed>
</trkpt>
<trkpt lat="44.639263" lon="33.828175">
<ele>153.009888</ele>
<time>2011-10-10T12:50:48Z</time>
<desc>lat.=44.639263, lon.=33.828175, Alt.=153.009888m. Speed=0.000000m/h.</desc>
<speed>0.000000</speed>
</trkpt>
<trkpt lat="44.639263" lon="33.828178">
<ele>153.002075</ele>
<time>2011-10-10T12:50:53Z</time>
<desc>lat.=44.639263, lon.=33.828178, Alt.=153.002075m. Speed=0.072000m/h.</desc>
<speed>0.020000</speed>
</trkpt>
<trkpt lat="44.639263" lon="33.828178">
<ele>152.986450</ele>
<time>2011-10-10T12:50:58Z</time>
<desc>lat.=44.639263, lon.=33.828178, Alt.=152.986450m. Speed=0.072000m/h.</desc>
<speed>0.020000</speed>
</trkpt>
<trkpt lat="44.639263" lon="33.828178">
<ele>152.974731</ele>
<time>2011-10-10T12:51:03Z</time>
<desc>lat.=44.639263, lon.=33.828178, Alt.=152.974731m. Speed=0.072000m/h.</desc>
<speed>0.020000</speed>
</trkpt>
<trkpt lat="44.639263" lon="33.828178">
<ele>152.955200</ele>
<time>2011-10-10T12:51:08Z</time>
<desc>lat.=44.639263, lon.=33.828178, Alt.=152.955200m. Speed=0.072000m/h.</desc>
<speed>0.020000</speed>
</trkpt>
<trkpt lat="44.639263" lon="33.828178">
<ele>152.943481</ele>
<time>2011-10-10T12:51:13Z</time>
<desc>lat.=44.639263, lon.=33.828178, Alt.=152.943481m. Speed=0.000000m/h.</desc>
<speed>0.000000</speed>
</trkpt>
<trkpt lat="44.639263" lon="33.828178">
<ele>152.923950</ele>
<time>2011-10-10T12:51:18Z</time>
<desc>lat.=44.639263, lon.=33.828178, Alt.=152.923950m. Speed=0.108000m/h.</desc>
<speed>0.030000</speed>
</trkpt>
<trkpt lat="44.639263" lon="33.828178">
<ele>152.900513</ele>
<time>2011-10-10T12:51:23Z</time>
<desc>lat.=44.639263, lon.=33.828178, Alt.=152.900513m. Speed=0.000000m/h.</desc>
<speed>0.000000</speed>
</trkpt>
<trkpt lat="44.639263" lon="33.828182">
<ele>152.877075</ele>
<time>2011-10-10T12:51:28Z</time>
<desc>lat.=44.639263, lon.=33.828182, Alt.=152.877075m. Speed=0.108000m/h.</desc>
<speed>0.030000</speed>
</trkpt>
<trkpt lat="44.639263" lon="33.828182">
<ele>152.857544</ele>
<time>2011-10-10T12:51:33Z</time>
<desc>lat.=44.639263, lon.=33.828182, Alt.=152.857544m. Speed=0.252000m/h.</desc>
<speed>0.070000</speed>
</trkpt>
<trkpt lat="44.639263" lon="33.828182">
<ele>152.818481</ele>
<time>2011-10-10T12:51:38Z</time>
<desc>lat.=44.639263, lon.=33.828182, Alt.=152.818481m. Speed=0.072000m/h.</desc>
<speed>0.020000</speed>
</trkpt>
<trkpt lat="44.639267" lon="33.828178">
<ele>152.798950</ele>
<time>2011-10-10T12:51:43Z</time>
<desc>lat.=44.639267, lon.=33.828178, Alt.=152.798950m. Speed=0.108000m/h.</desc>
<speed>0.030000</speed>
</trkpt>
<trkpt lat="44.639267" lon="33.828178">
<ele>152.775513</ele>
<time>2011-10-10T12:51:48Z</time>
<desc>lat.=44.639267, lon.=33.828178, Alt.=152.775513m. Speed=0.108000m/h.</desc>
<speed>0.030000</speed>
</trkpt>
<trkpt lat="44.639267" lon="33.828182">
<ele>152.748169</ele>
<time>2011-10-10T12:51:53Z</time>
<desc>lat.=44.639267, lon.=33.828182, Alt.=152.748169m. Speed=0.000000m/h.</desc>
<speed>0.000000</speed>
</trkpt>
<trkpt lat="44.639267" lon="33.828178">
<ele>152.744263</ele>
<time>2011-10-10T12:51:58Z</time>
<desc>lat.=44.639267, lon.=33.828178, Alt.=152.744263m. Speed=0.144000m/h.</desc>
<speed>0.040000</speed>
</trkpt>
<trkpt lat="44.639267" lon="33.828178">
<ele>152.736450</ele>
<time>2011-10-10T12:52:03Z</time>
<desc>lat.=44.639267, lon.=33.828178, Alt.=152.736450m. Speed=0.036000m/h.</desc>
<speed>0.010000</speed>
</trkpt>
<trkpt lat="44.639267" lon="33.828178">
<ele>152.744263</ele>
<time>2011-10-10T12:52:08Z</time>
<desc>lat.=44.639267, lon.=33.828178, Alt.=152.744263m. Speed=0.216000m/h.</desc>
<speed>0.060000</speed>
</trkpt>
<trkpt lat="44.639267" lon="33.828178">
<ele>152.752075</ele>
<time>2011-10-10T12:52:13Z</time>
<desc>lat.=44.639267, lon.=33.828178, Alt.=152.752075m. Speed=0.252000m/h.</desc>
<speed>0.070000</speed>
</trkpt>
<trkpt lat="44.639267" lon="33.828178">
<ele>152.775513</ele>
<time>2011-10-10T12:52:18Z</time>
<desc>lat.=44.639267, lon.=33.828178, Alt.=152.775513m. Speed=0.000000m/h.</desc>
<speed>0.000000</speed>
</trkpt>
<trkpt lat="44.639267" lon="33.828178">
<ele>152.787231</ele>
<time>2011-10-10T12:52:23Z</time>
<desc>lat.=44.639267, lon.=33.828178, Alt.=152.787231m. Speed=0.216000m/h.</desc>
<speed>0.060000</speed>
</trkpt>
<trkpt lat="44.639263" lon="33.828178">
<ele>152.783325</ele>
<time>2011-10-10T12:52:28Z</time>
<desc>lat.=44.639263, lon.=33.828178, Alt.=152.783325m. Speed=0.000000m/h.</desc>
<speed>0.000000</speed>
</trkpt>
<trkpt lat="44.639263" lon="33.828178">
<ele>152.779419</ele>
<time>2011-10-10T12:52:33Z</time>
<desc>lat.=44.639263, lon.=33.828178, Alt.=152.779419m. Speed=0.036000m/h.</desc>
<speed>0.010000</speed>
</trkpt>
<trkpt lat="44.639263" lon="33.828178">
<ele>152.779419</ele>
<time>2011-10-10T12:52:38Z</time>
<desc>lat.=44.639263, lon.=33.828178, Alt.=152.779419m. Speed=0.360000m/h.</desc>
<speed>0.100000</speed>
</trkpt>
<trkpt lat="44.639263" lon="33.828178">
<ele>152.771606</ele>
<time>2011-10-10T12:52:43Z</time>
<desc>lat.=44.639263, lon.=33.828178, Alt.=152.771606m. Speed=0.000000m/h.</desc>
<speed>0.000000</speed>
</trkpt>
<trkpt lat="44.639267" lon="33.828178">
<ele>152.763794</ele>
<time>2011-10-10T12:52:48Z</time>
<desc>lat.=44.639267, lon.=33.828178, Alt.=152.763794m. Speed=0.000000m/h.</desc>
<speed>0.000000</speed>
</trkpt>
<trkpt lat="44.639267" lon="33.828178">
<ele>152.759888</ele>
<time>2011-10-10T12:52:53Z</time>
<desc>lat.=44.639267, lon.=33.828178, Alt.=152.759888m. Speed=0.756000m/h.</desc>
<speed>0.210000</speed>
</trkpt>
<trkpt lat="44.639267" lon="33.828178">
<ele>152.748169</ele>
<time>2011-10-10T12:52:58Z</time>
<desc>lat.=44.639267, lon.=33.828178, Alt.=152.748169m. Speed=0.072000m/h.</desc>
<speed>0.020000</speed>
</trkpt>
<trkpt lat="44.639267" lon="33.828178">
<ele>152.740356</ele>
<time>2011-10-10T12:53:03Z</time>
<desc>lat.=44.639267, lon.=33.828178, Alt.=152.740356m. Speed=0.072000m/h.</desc>
<speed>0.020000</speed>
</trkpt>
<trkpt lat="44.639267" lon="33.828178">
<ele>152.740356</ele>
<time>2011-10-10T12:53:08Z</time>
<desc>lat.=44.639267, lon.=33.828178, Alt.=152.740356m. Speed=0.000000m/h.</desc>
<speed>0.000000</speed>
</trkpt>
<trkpt lat="44.639267" lon="33.828178">
<ele>152.705200</ele>
<time>2011-10-10T12:53:13Z</time>
<desc>lat.=44.639267, lon.=33.828178, Alt.=152.705200m. Speed=0.216000m/h.</desc>
<speed>0.060000</speed>
</trkpt>
<trkpt lat="44.639267" lon="33.828178">
<ele>152.677856</ele>
<time>2011-10-10T12:53:18Z</time>
<desc>lat.=44.639267, lon.=33.828178, Alt.=152.677856m. Speed=0.072000m/h.</desc>
<speed>0.020000</speed>
</trkpt>
<trkpt lat="44.639267" lon="33.828182">
<ele>152.658325</ele>
<time>2011-10-10T12:53:23Z</time>
<desc>lat.=44.639267, lon.=33.828182, Alt.=152.658325m. Speed=0.000000m/h.</desc>
<speed>0.000000</speed>
</trkpt>
<trkpt lat="44.639267" lon="33.828217">
<ele>151.494263</ele>
<time>2011-10-10T12:53:28Z</time>
<desc>lat.=44.639267, lon.=33.828217, Alt.=151.494263m. Speed=2.844000m/h.</desc>
<speed>0.790000</speed>
</trkpt>
<trkpt lat="44.639286" lon="33.828259">
<ele>149.037231</ele>
<time>2011-10-10T12:53:33Z</time>
<desc>lat.=44.639286, lon.=33.828259, Alt.=149.037231m. Speed=0.072000m/h.</desc>
<speed>0.020000</speed>
</trkpt>
<trkpt lat="44.639290" lon="33.828281">
<ele>147.662231</ele>
<time>2011-10-10T12:53:38Z</time>
<desc>lat.=44.639290, lon.=33.828281, Alt.=147.662231m. Speed=0.108000m/h.</desc>
<speed>0.030000</speed>
</trkpt>
<trkpt lat="44.639305" lon="33.828304">
<ele>146.869263</ele>
<time>2011-10-10T12:53:43Z</time>
<desc>lat.=44.639305, lon.=33.828304, Alt.=146.869263m. Speed=0.252000m/h.</desc>
<speed>0.070000</speed>
</trkpt>
<trkpt lat="44.639328" lon="33.828327">
<ele>146.103638</ele>
<time>2011-10-10T12:53:48Z</time>
<desc>lat.=44.639328, lon.=33.828327, Alt.=146.103638m. Speed=1.584000m/h.</desc>
<speed>0.440000</speed>
</trkpt>
<trkpt lat="44.639317" lon="33.828335">
<ele>145.314575</ele>
<time>2011-10-10T12:53:53Z</time>
<desc>lat.=44.639317, lon.=33.828335, Alt.=145.314575m. Speed=0.468000m/h.</desc>
<speed>0.130000</speed>
</trkpt>
<trkpt lat="44.639328" lon="33.828339">
<ele>144.685669</ele>
<time>2011-10-10T12:53:58Z</time>
<desc>lat.=44.639328, lon.=33.828339, Alt.=144.685669m. Speed=0.432000m/h.</desc>
<speed>0.120000</speed>
</trkpt>
<trkpt lat="44.639332" lon="33.828339">
<ele>144.517700</ele>
<time>2011-10-10T12:54:03Z</time>
<desc>lat.=44.639332, lon.=33.828339, Alt.=144.517700m. Speed=0.180000m/h.</desc>
<speed>0.050000</speed>
</trkpt>
<trkpt lat="44.639339" lon="33.828339">
<ele>144.463013</ele>
<time>2011-10-10T12:54:08Z</time>
<desc>lat.=44.639339, lon.=33.828339, Alt.=144.463013m. Speed=0.288000m/h.</desc>
<speed>0.080000</speed>
</trkpt>
<trkpt lat="44.639343" lon="33.828342">
<ele>144.404419</ele>
<time>2011-10-10T12:54:13Z</time>
<desc>lat.=44.639343, lon.=33.828342, Alt.=144.404419m. Speed=0.072000m/h.</desc>
<speed>0.020000</speed>
</trkpt>
<trkpt lat="44.639343" lon="33.828339">
<ele>144.275513</ele>
<time>2011-10-10T12:54:18Z</time>
<desc>lat.=44.639343, lon.=33.828339, Alt.=144.275513m. Speed=0.504000m/h.</desc>
<speed>0.140000</speed>
</trkpt>
<trkpt lat="44.639347" lon="33.828323">
<ele>143.822388</ele>
<time>2011-10-10T12:54:23Z</time>
<desc>lat.=44.639347, lon.=33.828323, Alt.=143.822388m. Speed=2.988000m/h.</desc>
<speed>0.830000</speed>
</trkpt>
<trkpt lat="44.639408" lon="33.828297">
<ele>142.900513</ele>
<time>2011-10-10T12:54:28Z</time>
<desc>lat.=44.639408, lon.=33.828297, Alt.=142.900513m. Speed=6.156000m/h.</desc>
<speed>1.710000</speed>
</trkpt>
<trkpt lat="44.639545" lon="33.828342">
<ele>140.841919</ele>
<time>2011-10-10T12:54:33Z</time>
<desc>lat.=44.639545, lon.=33.828342, Alt.=140.841919m. Speed=16.920000m/h.</desc>
<speed>4.700000</speed>
</trkpt>
<trkpt lat="44.639740" lon="33.828468">
<ele>139.232544</ele>
<time>2011-10-10T12:54:38Z</time>
<desc>lat.=44.639740, lon.=33.828468, Alt.=139.232544m. Speed=20.052000m/h.</desc>
<speed>5.570000</speed>
</trkpt>
<trkpt lat="44.639954" lon="33.828613">
<ele>138.697388</ele>
<time>2011-10-10T12:54:43Z</time>
<desc>lat.=44.639954, lon.=33.828613, Alt.=138.697388m. Speed=19.548000m/h.</desc>
<speed>5.430000</speed>
</trkpt>
<trkpt lat="44.640099" lon="33.828720">
<ele>137.099731</ele>
<time>2011-10-10T12:54:48Z</time>
<desc>lat.=44.640099, lon.=33.828720, Alt.=137.099731m. Speed=8.712000m/h.</desc>
<speed>2.420000</speed>
</trkpt>
<trkpt lat="44.640167" lon="33.828773">
<ele>137.041138</ele>
<time>2011-10-10T12:54:53Z</time>
<desc>lat.=44.640167, lon.=33.828773, Alt.=137.041138m. Speed=4.968000m/h.</desc>
<speed>1.380000</speed>
</trkpt>
<trkpt lat="44.640163" lon="33.828762">
<ele>137.228638</ele>
<time>2011-10-10T12:54:58Z</time>
<desc>lat.=44.640163, lon.=33.828762, Alt.=137.228638m. Speed=0.612000m/h.</desc>
<speed>0.170000</speed>
</trkpt>
<trkpt lat="44.640171" lon="33.828793">
<ele>137.537231</ele>
<time>2011-10-10T12:55:03Z</time>
<desc>lat.=44.640171, lon.=33.828793, Alt.=137.537231m. Speed=7.452000m/h.</desc>
<speed>2.070000</speed>
</trkpt>
<trkpt lat="44.640194" lon="33.829002">
<ele>138.560669</ele>
<time>2011-10-10T12:55:08Z</time>
<desc>lat.=44.640194, lon.=33.829002, Alt.=138.560669m. Speed=17.136000m/h.</desc>
<speed>4.760000</speed>
</trkpt>
<trkpt lat="44.640209" lon="33.829178">
<ele>139.826294</ele>
<time>2011-10-10T12:55:13Z</time>
<desc>lat.=44.640209, lon.=33.829178, Alt.=139.826294m. Speed=9.504000m/h.</desc>
<speed>2.640000</speed>
</trkpt>
<trkpt lat="44.640186" lon="33.829315">
<ele>141.994263</ele>
<time>2011-10-10T12:55:18Z</time>
<desc>lat.=44.640186, lon.=33.829315, Alt.=141.994263m. Speed=7.056000m/h.</desc>
<speed>1.960000</speed>
</trkpt>
<trkpt lat="44.640144" lon="33.829536">
<ele>146.588013</ele>
<time>2011-10-10T12:55:23Z</time>
<desc>lat.=44.640144, lon.=33.829536, Alt.=146.588013m. Speed=13.896000m/h.</desc>
<speed>3.860000</speed>
</trkpt>
<trkpt lat="44.640007" lon="33.829872">
<ele>147.177856</ele>
<time>2011-10-10T12:55:28Z</time>
<desc>lat.=44.640007, lon.=33.829872, Alt.=147.177856m. Speed=21.204000m/h.</desc>
<speed>5.890000</speed>
</trkpt>
<trkpt lat="44.639900" lon="33.830185">
<ele>148.478638</ele>
<time>2011-10-10T12:55:33Z</time>
<desc>lat.=44.639900, lon.=33.830185, Alt.=148.478638m. Speed=18.396000m/h.</desc>
<speed>5.110000</speed>
</trkpt>
<trkpt lat="44.639854" lon="33.830544">
<ele>149.599731</ele>
<time>2011-10-10T12:55:38Z</time>
<desc>lat.=44.639854, lon.=33.830544, Alt.=149.599731m. Speed=19.980000m/h.</desc>
<speed>5.550000</speed>
</trkpt>
<trkpt lat="44.639858" lon="33.830875">
<ele>150.966919</ele>
<time>2011-10-10T12:55:43Z</time>
<desc>lat.=44.639858, lon.=33.830875, Alt.=150.966919m. Speed=20.771999m/h.</desc>
<speed>5.770000</speed>
</trkpt>
<trkpt lat="44.639896" lon="33.831238">
<ele>153.232544</ele>
<time>2011-10-10T12:55:48Z</time>
<desc>lat.=44.639896, lon.=33.831238, Alt.=153.232544m. Speed=20.520000m/h.</desc>
<speed>5.700000</speed>
</trkpt>
<trkpt lat="44.639950" lon="33.831520">
<ele>155.365356</ele>
<time>2011-10-10T12:55:53Z</time>
<desc>lat.=44.639950, lon.=33.831520, Alt.=155.365356m. Speed=19.691999m/h.</desc>
<speed>5.470000</speed>
</trkpt>
<trkpt lat="44.640064" lon="33.831917">
<ele>153.713013</ele>
<time>2011-10-10T12:55:58Z</time>
<desc>lat.=44.640064, lon.=33.831917, Alt.=153.713013m. Speed=24.299999m/h.</desc>
<speed>6.750000</speed>
</trkpt>
<trkpt lat="44.640182" lon="33.832222">
<ele>152.697388</ele>
<time>2011-10-10T12:56:03Z</time>
<desc>lat.=44.640182, lon.=33.832222, Alt.=152.697388m. Speed=15.804000m/h.</desc>
<speed>4.390000</speed>
</trkpt>
<trkpt lat="44.640301" lon="33.832542">
<ele>151.318481</ele>
<time>2011-10-10T12:56:08Z</time>
<desc>lat.=44.640301, lon.=33.832542, Alt.=151.318481m. Speed=16.020000m/h.</desc>
<speed>4.450000</speed>
</trkpt>
<trkpt lat="44.640381" lon="33.832756">
<ele>152.041138</ele>
<time>2011-10-10T12:56:13Z</time>
<desc>lat.=44.640381, lon.=33.832756, Alt.=152.041138m. Speed=10.728000m/h.</desc>
<speed>2.980000</speed>
</trkpt>
<trkpt lat="44.640484" lon="33.832985">
<ele>153.580200</ele>
<time>2011-10-10T12:56:18Z</time>
<desc>lat.=44.640484, lon.=33.832985, Alt.=153.580200m. Speed=13.752000m/h.</desc>
<speed>3.820000</speed>
</trkpt>
<trkpt lat="44.640606" lon="33.833233">
<ele>155.545044</ele>
<time>2011-10-10T12:56:23Z</time>
<desc>lat.=44.640606, lon.=33.833233, Alt.=155.545044m. Speed=13.932000m/h.</desc>
<speed>3.870000</speed>
</trkpt>
<trkpt lat="44.640717" lon="33.833515">
<ele>157.158325</ele>
<time>2011-10-10T12:56:28Z</time>
<desc>lat.=44.640717, lon.=33.833515, Alt.=157.158325m. Speed=18.612000m/h.</desc>
<speed>5.170000</speed>
</trkpt>
<trkpt lat="44.640816" lon="33.833717">
<ele>161.267700</ele>
<time>2011-10-10T12:56:33Z</time>
<desc>lat.=44.640816, lon.=33.833717, Alt.=161.267700m. Speed=10.584000m/h.</desc>
<speed>2.940000</speed>
</trkpt>
<trkpt lat="44.640903" lon="33.833832">
<ele>161.720825</ele>
<time>2011-10-10T12:56:38Z</time>
<desc>lat.=44.640903, lon.=33.833832, Alt.=161.720825m. Speed=4.752000m/h.</desc>
<speed>1.320000</speed>
</trkpt>
<trkpt lat="44.640984" lon="33.833900">
<ele>160.048950</ele>
<time>2011-10-10T12:56:43Z</time>
<desc>lat.=44.640984, lon.=33.833900, Alt.=160.048950m. Speed=4.860000m/h.</desc>
<speed>1.350000</speed>
</trkpt>
<trkpt lat="44.641048" lon="33.833897">
<ele>158.943481</ele>
<time>2011-10-10T12:56:48Z</time>
<desc>lat.=44.641048, lon.=33.833897, Alt.=158.943481m. Speed=5.292000m/h.</desc>
<speed>1.470000</speed>
</trkpt>
<trkpt lat="44.641121" lon="33.833775">
<ele>157.396606</ele>
<time>2011-10-10T12:56:53Z</time>
<desc>lat.=44.641121, lon.=33.833775, Alt.=157.396606m. Speed=12.816000m/h.</desc>
<speed>3.560000</speed>
</trkpt>
<trkpt lat="44.641197" lon="33.833565">
<ele>157.736450</ele>
<time>2011-10-10T12:56:58Z</time>
<desc>lat.=44.641197, lon.=33.833565, Alt.=157.736450m. Speed=14.076000m/h.</desc>
<speed>3.910000</speed>
</trkpt>
<trkpt lat="44.641273" lon="33.833363">
<ele>157.611450</ele>
<time>2011-10-10T12:57:03Z</time>
<desc>lat.=44.641273, lon.=33.833363, Alt.=157.611450m. Speed=13.104000m/h.</desc>
<speed>3.640000</speed>
</trkpt>
<trkpt lat="44.641331" lon="33.833168">
<ele>156.752075</ele>
<time>2011-10-10T12:57:08Z</time>
<desc>lat.=44.641331, lon.=33.833168, Alt.=156.752075m. Speed=13.032000m/h.</desc>
<speed>3.620000</speed>
</trkpt>
<trkpt lat="44.641392" lon="33.832981">
<ele>157.564575</ele>
<time>2011-10-10T12:57:13Z</time>
<desc>lat.=44.641392, lon.=33.832981, Alt.=157.564575m. Speed=11.016000m/h.</desc>
<speed>3.060000</speed>
</trkpt>
<trkpt lat="44.641430" lon="33.832832">
<ele>156.990356</ele>
<time>2011-10-10T12:57:18Z</time>
<desc>lat.=44.641430, lon.=33.832832, Alt.=156.990356m. Speed=9.324000m/h.</desc>
<speed>2.590000</speed>
</trkpt>
<trkpt lat="44.641468" lon="33.832657">
<ele>155.798950</ele>
<time>2011-10-10T12:57:23Z</time>
<desc>lat.=44.641468, lon.=33.832657, Alt.=155.798950m. Speed=12.492000m/h.</desc>
<speed>3.470000</speed>
</trkpt>
<trkpt lat="44.641529" lon="33.832512">
<ele>155.775513</ele>
<time>2011-10-10T12:57:28Z</time>
<desc>lat.=44.641529, lon.=33.832512, Alt.=155.775513m. Speed=4.392000m/h.</desc>
<speed>1.220000</speed>
</trkpt>
<trkpt lat="44.641590" lon="33.832455">
<ele>155.209106</ele>
<time>2011-10-10T12:57:33Z</time>
<desc>lat.=44.641590, lon.=33.832455, Alt.=155.209106m. Speed=1.764000m/h.</desc>
<speed>0.490000</speed>
</trkpt>
<trkpt lat="44.641655" lon="33.832512">
<ele>150.736450</ele>
<time>2011-10-10T12:57:38Z</time>
<desc>lat.=44.641655, lon.=33.832512, Alt.=150.736450m. Speed=0.828000m/h.</desc>
<speed>0.230000</speed>
</trkpt>
<trkpt lat="44.641712" lon="33.832565">
<ele>146.447388</ele>
<time>2011-10-10T12:57:43Z</time>
<desc>lat.=44.641712, lon.=33.832565, Alt.=146.447388m. Speed=0.648000m/h.</desc>
<speed>0.180000</speed>
</trkpt>
<trkpt lat="44.641743" lon="33.832573">
<ele>144.545044</ele>
<time>2011-10-10T12:57:48Z</time>
<desc>lat.=44.641743, lon.=33.832573, Alt.=144.545044m. Speed=0.504000m/h.</desc>
<speed>0.140000</speed>
</trkpt>
<trkpt lat="44.641769" lon="33.832577">
<ele>142.966919</ele>
<time>2011-10-10T12:57:53Z</time>
<desc>lat.=44.641769, lon.=33.832577, Alt.=142.966919m. Speed=0.396000m/h.</desc>
<speed>0.110000</speed>
</trkpt>
<trkpt lat="44.641788" lon="33.832577">
<ele>141.279419</ele>
<time>2011-10-10T12:57:58Z</time>
<desc>lat.=44.641788, lon.=33.832577, Alt.=141.279419m. Speed=0.288000m/h.</desc>
<speed>0.080000</speed>
</trkpt>
<trkpt lat="44.641800" lon="33.832581">
<ele>140.080200</ele>
<time>2011-10-10T12:58:03Z</time>
<desc>lat.=44.641800, lon.=33.832581, Alt.=140.080200m. Speed=0.144000m/h.</desc>
<speed>0.040000</speed>
</trkpt>
<trkpt lat="44.641804" lon="33.832581">
<ele>138.662231</ele>
<time>2011-10-10T12:58:08Z</time>
<desc>lat.=44.641804, lon.=33.832581, Alt.=138.662231m. Speed=0.000000m/h.</desc>
<speed>0.000000</speed>
</trkpt>
<trkpt lat="44.641811" lon="33.832577">
<ele>137.068481</ele>
<time>2011-10-10T12:58:13Z</time>
<desc>lat.=44.641811, lon.=33.832577, Alt.=137.068481m. Speed=0.036000m/h.</desc>
<speed>0.010000</speed>
</trkpt>
<trkpt lat="44.641819" lon="33.832573">
<ele>135.423950</ele>
<time>2011-10-10T12:58:18Z</time>
<desc>lat.=44.641819, lon.=33.832573, Alt.=135.423950m. Speed=0.432000m/h.</desc>
<speed>0.120000</speed>
</trkpt>
<trkpt lat="44.641827" lon="33.832569">
<ele>134.177856</ele>
<time>2011-10-10T12:58:23Z</time>
<desc>lat.=44.641827, lon.=33.832569, Alt.=134.177856m. Speed=0.324000m/h.</desc>
<speed>0.090000</speed>
</trkpt>
<trkpt lat="44.641838" lon="33.832561">
<ele>132.970825</ele>
<time>2011-10-10T12:58:28Z</time>
<desc>lat.=44.641838, lon.=33.832561, Alt.=132.970825m. Speed=0.324000m/h.</desc>
<speed>0.090000</speed>
</trkpt>
<trkpt lat="44.641842" lon="33.832565">
<ele>132.052856</ele>
<time>2011-10-10T12:58:33Z</time>
<desc>lat.=44.641842, lon.=33.832565, Alt.=132.052856m. Speed=0.036000m/h.</desc>
<speed>0.010000</speed>
</trkpt>
<trkpt lat="44.641846" lon="33.832565">
<ele>131.310669</ele>
<time>2011-10-10T12:58:38Z</time>
<desc>lat.=44.641846, lon.=33.832565, Alt.=131.310669m. Speed=0.072000m/h.</desc>
<speed>0.020000</speed>
</trkpt>
<trkpt lat="44.641850" lon="33.832558">
<ele>130.545044</ele>
<time>2011-10-10T12:58:43Z</time>
<desc>lat.=44.641850, lon.=33.832558, Alt.=130.545044m. Speed=0.252000m/h.</desc>
<speed>0.070000</speed>
</trkpt>
<trkpt lat="44.641842" lon="33.832569">
<ele>130.685669</ele>
<time>2011-10-10T12:58:48Z</time>
<desc>lat.=44.641842, lon.=33.832569, Alt.=130.685669m. Speed=0.072000m/h.</desc>
<speed>0.020000</speed>
</trkpt>
<trkpt lat="44.641834" lon="33.832577">
<ele>130.146606</ele>
<time>2011-10-10T12:58:53Z</time>
<desc>lat.=44.641834, lon.=33.832577, Alt.=130.146606m. Speed=0.252000m/h.</desc>
<speed>0.070000</speed>
</trkpt>
<trkpt lat="44.641823" lon="33.832592">
<ele>129.931763</ele>
<time>2011-10-10T12:58:58Z</time>
<desc>lat.=44.641823, lon.=33.832592, Alt.=129.931763m. Speed=0.180000m/h.</desc>
<speed>0.050000</speed>
</trkpt>
<trkpt lat="44.641823" lon="33.832600">
<ele>129.826294</ele>
<time>2011-10-10T12:59:03Z</time>
<desc>lat.=44.641823, lon.=33.832600, Alt.=129.826294m. Speed=0.144000m/h.</desc>
<speed>0.040000</speed>
</trkpt>
<trkpt lat="44.641823" lon="33.832596">
<ele>129.666138</ele>
<time>2011-10-10T12:59:08Z</time>
<desc>lat.=44.641823, lon.=33.832596, Alt.=129.666138m. Speed=0.036000m/h.</desc>
<speed>0.010000</speed>
</trkpt>
<trkpt lat="44.641827" lon="33.832600">
<ele>129.666138</ele>
<time>2011-10-10T12:59:13Z</time>
<desc>lat.=44.641827, lon.=33.832600, Alt.=129.666138m. Speed=0.036000m/h.</desc>
<speed>0.010000</speed>
</trkpt>
<trkpt lat="44.641823" lon="33.832603">
<ele>130.037231</ele>
<time>2011-10-10T12:59:18Z</time>
<desc>lat.=44.641823, lon.=33.832603, Alt.=130.037231m. Speed=0.036000m/h.</desc>
<speed>0.010000</speed>
</trkpt>
<trkpt lat="44.641823" lon="33.832607">
<ele>129.896606</ele>
<time>2011-10-10T12:59:23Z</time>
<desc>lat.=44.641823, lon.=33.832607, Alt.=129.896606m. Speed=0.036000m/h.</desc>
<speed>0.010000</speed>
</trkpt>
<trkpt lat="44.641827" lon="33.832603">
<ele>129.369263</ele>
<time>2011-10-10T12:59:28Z</time>
<desc>lat.=44.641827, lon.=33.832603, Alt.=129.369263m. Speed=0.108000m/h.</desc>
<speed>0.030000</speed>
</trkpt>
<trkpt lat="44.641823" lon="33.832607">
<ele>129.154419</ele>
<time>2011-10-10T12:59:33Z</time>
<desc>lat.=44.641823, lon.=33.832607, Alt.=129.154419m. Speed=0.288000m/h.</desc>
<speed>0.080000</speed>
</trkpt>
<trkpt lat="44.641815" lon="33.832611">
<ele>128.994263</ele>
<time>2011-10-10T12:59:38Z</time>
<desc>lat.=44.641815, lon.=33.832611, Alt.=128.994263m. Speed=0.216000m/h.</desc>
<speed>0.060000</speed>
</trkpt>
<trkpt lat="44.641811" lon="33.832611">
<ele>128.529419</ele>
<time>2011-10-10T12:59:43Z</time>
<desc>lat.=44.641811, lon.=33.832611, Alt.=128.529419m. Speed=0.000000m/h.</desc>
<speed>0.000000</speed>
</trkpt>
<trkpt lat="44.641819" lon="33.832603">
<ele>128.240356</ele>
<time>2011-10-10T12:59:48Z</time>
<desc>lat.=44.641819, lon.=33.832603, Alt.=128.240356m. Speed=0.252000m/h.</desc>
<speed>0.070000</speed>
</trkpt>
<trkpt lat="44.641830" lon="33.832588">
<ele>127.563538</ele>
<time>2011-10-10T12:59:53Z</time>
<desc>lat.=44.641830, lon.=33.832588, Alt.=127.563538m. Speed=0.252000m/h.</desc>
<speed>0.070000</speed>
</trkpt>
<trkpt lat="44.641842" lon="33.832584">
<ele>127.434631</ele>
<time>2011-10-10T12:59:58Z</time>
<desc>lat.=44.641842, lon.=33.832584, Alt.=127.434631m. Speed=0.000000m/h.</desc>
<speed>0.000000</speed>
</trkpt>
<trkpt lat="44.641850" lon="33.832577">
<ele>126.891663</ele>
<time>2011-10-10T13:00:03Z</time>
<desc>lat.=44.641850, lon.=33.832577, Alt.=126.891663m. Speed=0.108000m/h.</desc>
<speed>0.030000</speed>
</trkpt>
<trkpt lat="44.641861" lon="33.832569">
<ele>126.551819</ele>
<time>2011-10-10T13:00:08Z</time>
<desc>lat.=44.641861, lon.=33.832569, Alt.=126.551819m. Speed=0.108000m/h.</desc>
<speed>0.030000</speed>
</trkpt>
<trkpt lat="44.641872" lon="33.832565">
<ele>126.393616</ele>
<time>2011-10-10T13:00:13Z</time>
<desc>lat.=44.641872, lon.=33.832565, Alt.=126.393616m. Speed=0.000000m/h.</desc>
<speed>0.000000</speed>
</trkpt>
<trkpt lat="44.641861" lon="33.832569">
<ele>126.419006</ele>
<time>2011-10-10T13:00:18Z</time>
<desc>lat.=44.641861, lon.=33.832569, Alt.=126.419006m. Speed=0.288000m/h.</desc>
<speed>0.080000</speed>
</trkpt>
<trkpt lat="44.641834" lon="33.832592">
<ele>126.475647</ele>
<time>2011-10-10T13:00:23Z</time>
<desc>lat.=44.641834, lon.=33.832592, Alt.=126.475647m. Speed=0.684000m/h.</desc>
<speed>0.190000</speed>
</trkpt>
<trkpt lat="44.641827" lon="33.832603">
<ele>126.436584</ele>
<time>2011-10-10T13:00:28Z</time>
<desc>lat.=44.641827, lon.=33.832603, Alt.=126.436584m. Speed=0.216000m/h.</desc>
<speed>0.060000</speed>
</trkpt>
<trkpt lat="44.641823" lon="33.832623">
<ele>126.038147</ele>
<time>2011-10-10T13:00:33Z</time>
<desc>lat.=44.641823, lon.=33.832623, Alt.=126.038147m. Speed=0.180000m/h.</desc>
<speed>0.050000</speed>
</trkpt>
<trkpt lat="44.641827" lon="33.832619">
<ele>126.540100</ele>
<time>2011-10-10T13:00:38Z</time>
<desc>lat.=44.641827, lon.=33.832619, Alt.=126.540100m. Speed=1.440000m/h.</desc>
<speed>0.400000</speed>
</trkpt>
<trkpt lat="44.641865" lon="33.832596">
<ele>125.989319</ele>
<time>2011-10-10T13:00:43Z</time>
<desc>lat.=44.641865, lon.=33.832596, Alt.=125.989319m. Speed=0.504000m/h.</desc>
<speed>0.140000</speed>
</trkpt>
<trkpt lat="44.641872" lon="33.832623">
<ele>127.102600</ele>
<time>2011-10-10T13:00:48Z</time>
<desc>lat.=44.641872, lon.=33.832623, Alt.=127.102600m. Speed=0.072000m/h.</desc>
<speed>0.020000</speed>
</trkpt>
<trkpt lat="44.641876" lon="33.832638">
<ele>128.177856</ele>
<time>2011-10-10T13:00:53Z</time>
<desc>lat.=44.641876, lon.=33.832638, Alt.=128.177856m. Speed=0.000000m/h.</desc>
<speed>0.000000</speed>
</trkpt>
<trkpt lat="44.641880" lon="33.832642">
<ele>129.982544</ele>
<time>2011-10-10T13:00:58Z</time>
<desc>lat.=44.641880, lon.=33.832642, Alt.=129.982544m. Speed=0.504000m/h.</desc>
<speed>0.140000</speed>
</trkpt>
<trkpt lat="44.641872" lon="33.832687">
<ele>133.142700</ele>
<time>2011-10-10T13:01:03Z</time>
<desc>lat.=44.641872, lon.=33.832687, Alt.=133.142700m. Speed=4.068000m/h.</desc>
<speed>1.130000</speed>
</trkpt>
<trkpt lat="44.641834" lon="33.832775">
<ele>136.287231</ele>
<time>2011-10-10T13:01:08Z</time>
<desc>lat.=44.641834, lon.=33.832775, Alt.=136.287231m. Speed=6.840000m/h.</desc>
<speed>1.900000</speed>
</trkpt>
<trkpt lat="44.641781" lon="33.832840">
<ele>140.865356</ele>
<time>2011-10-10T13:01:13Z</time>
<desc>lat.=44.641781, lon.=33.832840, Alt.=140.865356m. Speed=4.428000m/h.</desc>
<speed>1.230000</speed>
</trkpt>
<trkpt lat="44.641716" lon="33.832886">
<ele>144.966919</ele>
<time>2011-10-10T13:01:18Z</time>
<desc>lat.=44.641716, lon.=33.832886, Alt.=144.966919m. Speed=5.148000m/h.</desc>
<speed>1.430000</speed>
</trkpt>
<trkpt lat="44.641644" lon="33.832981">
<ele>147.213013</ele>
<time>2011-10-10T13:01:23Z</time>
<desc>lat.=44.641644, lon.=33.832981, Alt.=147.213013m. Speed=11.772000m/h.</desc>
<speed>3.270000</speed>
</trkpt>
<trkpt lat="44.641552" lon="33.833103">
<ele>151.306763</ele>
<time>2011-10-10T13:01:28Z</time>
<desc>lat.=44.641552, lon.=33.833103, Alt.=151.306763m. Speed=4.428000m/h.</desc>
<speed>1.230000</speed>
</trkpt>
<trkpt lat="44.641521" lon="33.833195">
<ele>152.841919</ele>
<time>2011-10-10T13:01:33Z</time>
<desc>lat.=44.641521, lon.=33.833195, Alt.=152.841919m. Speed=2.844000m/h.</desc>
<speed>0.790000</speed>
</trkpt>
<trkpt lat="44.641510" lon="33.833195">
<ele>154.787231</ele>
<time>2011-10-10T13:01:38Z</time>
<desc>lat.=44.641510, lon.=33.833195, Alt.=154.787231m. Speed=1.908000m/h.</desc>
<speed>0.530000</speed>
</trkpt>
<trkpt lat="44.641464" lon="33.833221">
<ele>156.724731</ele>
<time>2011-10-10T13:01:43Z</time>
<desc>lat.=44.641464, lon.=33.833221, Alt.=156.724731m. Speed=3.096000m/h.</desc>
<speed>0.860000</speed>
</trkpt>
<trkpt lat="44.641460" lon="33.833176">
<ele>157.705200</ele>
<time>2011-10-10T13:01:48Z</time>
<desc>lat.=44.641460, lon.=33.833176, Alt.=157.705200m. Speed=6.552000m/h.</desc>
<speed>1.820000</speed>
</trkpt>
<trkpt lat="44.641533" lon="33.833248">
<ele>150.330200</ele>
<time>2011-10-10T13:01:53Z</time>
<desc>lat.=44.641533, lon.=33.833248, Alt.=150.330200m. Speed=3.312000m/h.</desc>
<speed>0.920000</speed>
</trkpt>
<trkpt lat="44.641560" lon="33.833290">
<ele>146.013794</ele>
<time>2011-10-10T13:01:58Z</time>
<desc>lat.=44.641560, lon.=33.833290, Alt.=146.013794m. Speed=0.504000m/h.</desc>
<speed>0.140000</speed>
</trkpt>
<trkpt lat="44.641590" lon="33.833328">
<ele>141.033325</ele>
<time>2011-10-10T13:02:03Z</time>
<desc>lat.=44.641590, lon.=33.833328, Alt.=141.033325m. Speed=0.144000m/h.</desc>
<speed>0.040000</speed>
</trkpt>
<trkpt lat="44.641613" lon="33.833324">
<ele>138.838013</ele>
<time>2011-10-10T13:02:08Z</time>
<desc>lat.=44.641613, lon.=33.833324, Alt.=138.838013m. Speed=0.072000m/h.</desc>
<speed>0.020000</speed>
</trkpt>
<trkpt lat="44.641624" lon="33.833313">
<ele>137.326294</ele>
<time>2011-10-10T13:02:13Z</time>
<desc>lat.=44.641624, lon.=33.833313, Alt.=137.326294m. Speed=0.000000m/h.</desc>
<speed>0.000000</speed>
</trkpt>
<trkpt lat="44.641640" lon="33.833305">
<ele>135.955200</ele>
<time>2011-10-10T13:02:18Z</time>
<desc>lat.=44.641640, lon.=33.833305, Alt.=135.955200m. Speed=0.072000m/h.</desc>
<speed>0.020000</speed>
</trkpt>
<trkpt lat="44.641647" lon="33.833290">
<ele>134.525513</ele>
<time>2011-10-10T13:02:23Z</time>
<desc>lat.=44.641647, lon.=33.833290, Alt.=134.525513m. Speed=0.108000m/h.</desc>
<speed>0.030000</speed>
</trkpt>
<trkpt lat="44.641647" lon="33.833286">
<ele>133.865356</ele>
<time>2011-10-10T13:02:28Z</time>
<desc>lat.=44.641647, lon.=33.833286, Alt.=133.865356m. Speed=0.036000m/h.</desc>
<speed>0.010000</speed>
</trkpt>
<trkpt lat="44.641636" lon="33.833290">
<ele>132.775513</ele>
<time>2011-10-10T13:02:33Z</time>
<desc>lat.=44.641636, lon.=33.833290, Alt.=132.775513m. Speed=0.288000m/h.</desc>
<speed>0.080000</speed>
</trkpt>
<trkpt lat="44.641636" lon="33.833286">
<ele>131.943481</ele>
<time>2011-10-10T13:02:38Z</time>
<desc>lat.=44.641636, lon.=33.833286, Alt.=131.943481m. Speed=0.000000m/h.</desc>
<speed>0.000000</speed>
</trkpt>
<trkpt lat="44.641636" lon="33.833279">
<ele>131.005981</ele>
<time>2011-10-10T13:02:43Z</time>
<desc>lat.=44.641636, lon.=33.833279, Alt.=131.005981m. Speed=0.000000m/h.</desc>
<speed>0.000000</speed>
</trkpt>
<trkpt lat="44.641632" lon="33.833282">
<ele>130.650513</ele>
<time>2011-10-10T13:02:48Z</time>
<desc>lat.=44.641632, lon.=33.833282, Alt.=130.650513m. Speed=0.072000m/h.</desc>
<speed>0.020000</speed>
</trkpt>
<trkpt lat="44.641632" lon="33.833282">
<ele>130.091919</ele>
<time>2011-10-10T13:02:53Z</time>
<desc>lat.=44.641632, lon.=33.833282, Alt.=130.091919m. Speed=0.000000m/h.</desc>
<speed>0.000000</speed>
</trkpt>
<trkpt lat="44.641636" lon="33.833282">
<ele>130.005981</ele>
<time>2011-10-10T13:02:58Z</time>
<desc>lat.=44.641636, lon.=33.833282, Alt.=130.005981m. Speed=0.072000m/h.</desc>
<speed>0.020000</speed>
</trkpt>
<trkpt lat="44.641640" lon="33.833275">
<ele>129.584106</ele>
<time>2011-10-10T13:03:03Z</time>
<desc>lat.=44.641640, lon.=33.833275, Alt.=129.584106m. Speed=0.000000m/h.</desc>
<speed>0.000000</speed>
</trkpt>
<trkpt lat="44.641651" lon="33.833241">
<ele>128.545044</ele>
<time>2011-10-10T13:03:08Z</time>
<desc>lat.=44.641651, lon.=33.833241, Alt.=128.545044m. Speed=3.132000m/h.</desc>
<speed>0.870000</speed>
</trkpt>
<trkpt lat="44.641670" lon="33.833073">
<ele>127.483459</ele>
<time>2011-10-10T13:03:13Z</time>
<desc>lat.=44.641670, lon.=33.833073, Alt.=127.483459m. Speed=17.172001m/h.</desc>
<speed>4.770000</speed>
</trkpt>
<trkpt lat="44.641743" lon="33.832790">
<ele>125.559631</ele>
<time>2011-10-10T13:03:18Z</time>
<desc>lat.=44.641743, lon.=33.832790, Alt.=125.559631m. Speed=15.588000m/h.</desc>
<speed>4.330000</speed>
</trkpt>
<trkpt lat="44.641777" lon="33.832588">
<ele>124.655334</ele>
<time>2011-10-10T13:03:23Z</time>
<desc>lat.=44.641777, lon.=33.832588, Alt.=124.655334m. Speed=5.220000m/h.</desc>
<speed>1.450000</speed>
</trkpt>
<trkpt lat="44.641808" lon="33.832489">
<ele>124.172913</ele>
<time>2011-10-10T13:03:28Z</time>
<desc>lat.=44.641808, lon.=33.832489, Alt.=124.172913m. Speed=4.752000m/h.</desc>
<speed>1.320000</speed>
</trkpt>
<trkpt lat="44.641815" lon="33.832333">
<ele>124.079163</ele>
<time>2011-10-10T13:03:33Z</time>
<desc>lat.=44.641815, lon.=33.832333, Alt.=124.079163m. Speed=10.728000m/h.</desc>
<speed>2.980000</speed>
</trkpt>
<trkpt lat="44.641907" lon="33.831894">
<ele>124.926819</ele>
<time>2011-10-10T13:03:38Z</time>
<desc>lat.=44.641907, lon.=33.831894, Alt.=124.926819m. Speed=29.736000m/h.</desc>
<speed>8.260000</speed>
</trkpt>
<trkpt lat="44.641983" lon="33.831371">
<ele>125.856506</ele>
<time>2011-10-10T13:03:43Z</time>
<desc>lat.=44.641983, lon.=33.831371, Alt.=125.856506m. Speed=23.796000m/h.</desc>
<speed>6.610000</speed>
</trkpt>
<trkpt lat="44.642097" lon="33.831070">
<ele>127.561584</ele>
<time>2011-10-10T13:03:48Z</time>
<desc>lat.=44.642097, lon.=33.831070, Alt.=127.561584m. Speed=11.556000m/h.</desc>
<speed>3.210000</speed>
</trkpt>
<trkpt lat="44.642220" lon="33.830833">
<ele>127.510803</ele>
<time>2011-10-10T13:03:53Z</time>
<desc>lat.=44.642220, lon.=33.830833, Alt.=127.510803m. Speed=17.604000m/h.</desc>
<speed>4.890000</speed>
</trkpt>
<trkpt lat="44.642345" lon="33.830666">
<ele>129.076294</ele>
<time>2011-10-10T13:03:58Z</time>
<desc>lat.=44.642345, lon.=33.830666, Alt.=129.076294m. Speed=13.716000m/h.</desc>
<speed>3.810000</speed>
</trkpt>
<trkpt lat="44.642471" lon="33.830471">
<ele>130.095825</ele>
<time>2011-10-10T13:04:03Z</time>
<desc>lat.=44.642471, lon.=33.830471, Alt.=130.095825m. Speed=10.908000m/h.</desc>
<speed>3.030000</speed>
</trkpt>
<trkpt lat="44.642643" lon="33.830269">
<ele>130.478638</ele>
<time>2011-10-10T13:04:08Z</time>
<desc>lat.=44.642643, lon.=33.830269, Alt.=130.478638m. Speed=15.768000m/h.</desc>
<speed>4.380000</speed>
</trkpt>
<trkpt lat="44.642799" lon="33.830032">
<ele>130.505981</ele>
<time>2011-10-10T13:04:13Z</time>
<desc>lat.=44.642799, lon.=33.830032, Alt.=130.505981m. Speed=14.760000m/h.</desc>
<speed>4.100000</speed>
</trkpt>
<trkpt lat="44.642944" lon="33.829830">
<ele>129.287231</ele>
<time>2011-10-10T13:04:18Z</time>
<desc>lat.=44.642944, lon.=33.829830, Alt.=129.287231m. Speed=10.368000m/h.</desc>
<speed>2.880000</speed>
</trkpt>
<trkpt lat="44.643017" lon="33.829746">
<ele>128.900513</ele>
<time>2011-10-10T13:04:23Z</time>
<desc>lat.=44.643017, lon.=33.829746, Alt.=128.900513m. Speed=4.212000m/h.</desc>
<speed>1.170000</speed>
</trkpt>
<trkpt lat="44.643017" lon="33.829754">
<ele>128.416138</ele>
<time>2011-10-10T13:04:28Z</time>
<desc>lat.=44.643017, lon.=33.829754, Alt.=128.416138m. Speed=8.460000m/h.</desc>
<speed>2.350000</speed>
</trkpt>
<trkpt lat="44.642952" lon="33.829861">
<ele>129.228638</ele>
<time>2011-10-10T13:04:33Z</time>
<desc>lat.=44.642952, lon.=33.829861, Alt.=129.228638m. Speed=10.296000m/h.</desc>
<speed>2.860000</speed>
</trkpt>
<trkpt lat="44.642876" lon="33.830040">
<ele>129.904419</ele>
<time>2011-10-10T13:04:38Z</time>
<desc>lat.=44.642876, lon.=33.830040, Alt.=129.904419m. Speed=12.240000m/h.</desc>
<speed>3.400000</speed>
</trkpt>
<trkpt lat="44.642757" lon="33.830204">
<ele>130.064575</ele>
<time>2011-10-10T13:04:43Z</time>
<desc>lat.=44.642757, lon.=33.830204, Alt.=130.064575m. Speed=16.164000m/h.</desc>
<speed>4.490000</speed>
</trkpt>
<trkpt lat="44.642616" lon="33.830433">
<ele>129.451294</ele>
<time>2011-10-10T13:04:48Z</time>
<desc>lat.=44.642616, lon.=33.830433, Alt.=129.451294m. Speed=13.356000m/h.</desc>
<speed>3.710000</speed>
</trkpt>
<trkpt lat="44.642456" lon="33.830692">
<ele>128.310669</ele>
<time>2011-10-10T13:04:53Z</time>
<desc>lat.=44.642456, lon.=33.830692, Alt.=128.310669m. Speed=23.940001m/h.</desc>
<speed>6.650000</speed>
</trkpt>
<trkpt lat="44.642307" lon="33.830921">
<ele>126.049866</ele>
<time>2011-10-10T13:04:58Z</time>
<desc>lat.=44.642307, lon.=33.830921, Alt.=126.049866m. Speed=12.312000m/h.</desc>
<speed>3.420000</speed>
</trkpt>
<trkpt lat="44.642235" lon="33.831093">
<ele>125.950256</ele>
<time>2011-10-10T13:05:03Z</time>
<desc>lat.=44.642235, lon.=33.831093, Alt.=125.950256m. Speed=5.112000m/h.</desc>
<speed>1.420000</speed>
</trkpt>
<trkpt lat="44.642189" lon="33.831154">
<ele>125.077209</ele>
<time>2011-10-10T13:05:08Z</time>
<desc>lat.=44.642189, lon.=33.831154, Alt.=125.077209m. Speed=6.192000m/h.</desc>
<speed>1.720000</speed>
</trkpt>
<trkpt lat="44.642090" lon="33.831196">
<ele>122.799866</ele>
<time>2011-10-10T13:05:13Z</time>
<desc>lat.=44.642090, lon.=33.831196, Alt.=122.799866m. Speed=3.960000m/h.</desc>
<speed>1.100000</speed>
</trkpt>
<trkpt lat="44.642078" lon="33.831280">
<ele>123.491272</ele>
<time>2011-10-10T13:05:18Z</time>
<desc>lat.=44.642078, lon.=33.831280, Alt.=123.491272m. Speed=10.620000m/h.</desc>
<speed>2.950000</speed>
</trkpt>
<trkpt lat="44.642090" lon="33.831650">
<ele>124.782288</ele>
<time>2011-10-10T13:05:23Z</time>
<desc>lat.=44.642090, lon.=33.831650, Alt.=124.782288m. Speed=25.884001m/h.</desc>
<speed>7.190000</speed>
</trkpt>
<trkpt lat="44.642147" lon="33.832188">
<ele>126.887756</ele>
<time>2011-10-10T13:05:28Z</time>
<desc>lat.=44.642147, lon.=33.832188, Alt.=126.887756m. Speed=30.059999m/h.</desc>
<speed>8.350000</speed>
</trkpt>
<trkpt lat="44.642002" lon="33.832542">
<ele>127.567444</ele>
<time>2011-10-10T13:05:33Z</time>
<desc>lat.=44.642002, lon.=33.832542, Alt.=127.567444m. Speed=27.648001m/h.</desc>
<speed>7.680000</speed>
</trkpt>
<trkpt lat="44.641891" lon="33.832962">
<ele>127.831116</ele>
<time>2011-10-10T13:05:38Z</time>
<desc>lat.=44.641891, lon.=33.832962, Alt.=127.831116m. Speed=20.736000m/h.</desc>
<speed>5.760000</speed>
</trkpt>
<trkpt lat="44.641830" lon="33.833111">
<ele>126.555725</ele>
<time>2011-10-10T13:05:43Z</time>
<desc>lat.=44.641830, lon.=33.833111, Alt.=126.555725m. Speed=0.684000m/h.</desc>
<speed>0.190000</speed>
</trkpt>
<trkpt lat="44.641823" lon="33.833115">
<ele>125.956116</ele>
<time>2011-10-10T13:05:48Z</time>
<desc>lat.=44.641823, lon.=33.833115, Alt.=125.956116m. Speed=0.576000m/h.</desc>
<speed>0.160000</speed>
</trkpt>
<trkpt lat="44.641811" lon="33.833092">
<ele>125.299866</ele>
<time>2011-10-10T13:05:53Z</time>
<desc>lat.=44.641811, lon.=33.833092, Alt.=125.299866m. Speed=0.720000m/h.</desc>
<speed>0.200000</speed>
</trkpt>
<trkpt lat="44.641808" lon="33.833096">
<ele>124.692444</ele>
<time>2011-10-10T13:05:58Z</time>
<desc>lat.=44.641808, lon.=33.833096, Alt.=124.692444m. Speed=0.468000m/h.</desc>
<speed>0.130000</speed>
</trkpt>
<trkpt lat="44.641792" lon="33.833084">
<ele>124.424866</ele>
<time>2011-10-10T13:06:03Z</time>
<desc>lat.=44.641792, lon.=33.833084, Alt.=124.424866m. Speed=0.684000m/h.</desc>
<speed>0.190000</speed>
</trkpt>
<trkpt lat="44.641781" lon="33.833069">
<ele>124.122131</ele>
<time>2011-10-10T13:06:08Z</time>
<desc>lat.=44.641781, lon.=33.833069, Alt.=124.122131m. Speed=0.720000m/h.</desc>
<speed>0.200000</speed>
</trkpt>
<trkpt lat="44.641788" lon="33.833092">
<ele>123.419006</ele>
<time>2011-10-10T13:06:13Z</time>
<desc>lat.=44.641788, lon.=33.833092, Alt.=123.419006m. Speed=0.576000m/h.</desc>
<speed>0.160000</speed>
</trkpt>
<trkpt lat="44.641788" lon="33.833096">
<ele>123.311584</ele>
<time>2011-10-10T13:06:18Z</time>
<desc>lat.=44.641788, lon.=33.833096, Alt.=123.311584m. Speed=0.324000m/h.</desc>
<speed>0.090000</speed>
</trkpt>
<trkpt lat="44.641788" lon="33.833096">
<ele>123.268616</ele>
<time>2011-10-10T13:06:23Z</time>
<desc>lat.=44.641788, lon.=33.833096, Alt.=123.268616m. Speed=0.720000m/h.</desc>
<speed>0.200000</speed>
</trkpt>
<trkpt lat="44.641792" lon="33.833096">
<ele>123.192444</ele>
<time>2011-10-10T13:06:28Z</time>
<desc>lat.=44.641792, lon.=33.833096, Alt.=123.192444m. Speed=0.108000m/h.</desc>
<speed>0.030000</speed>
</trkpt>
<trkpt lat="44.641796" lon="33.833099">
<ele>123.151428</ele>
<time>2011-10-10T13:06:33Z</time>
<desc>lat.=44.641796, lon.=33.833099, Alt.=123.151428m. Speed=0.360000m/h.</desc>
<speed>0.100000</speed>
</trkpt>
<trkpt lat="44.641792" lon="33.833103">
<ele>123.085022</ele>
<time>2011-10-10T13:06:38Z</time>
<desc>lat.=44.641792, lon.=33.833103, Alt.=123.085022m. Speed=0.252000m/h.</desc>
<speed>0.070000</speed>
</trkpt>
<trkpt lat="44.641785" lon="33.833099">
<ele>123.001038</ele>
<time>2011-10-10T13:06:43Z</time>
<desc>lat.=44.641785, lon.=33.833099, Alt.=123.001038m. Speed=1.944000m/h.</desc>
<speed>0.540000</speed>
</trkpt>
<trkpt lat="44.641766" lon="33.833092">
<ele>122.995178</ele>
<time>2011-10-10T13:06:48Z</time>
<desc>lat.=44.641766, lon.=33.833092, Alt.=122.995178m. Speed=1.512000m/h.</desc>
<speed>0.420000</speed>
</trkpt>
<trkpt lat="44.641750" lon="33.833080">
<ele>122.924866</ele>
<time>2011-10-10T13:06:53Z</time>
<desc>lat.=44.641750, lon.=33.833080, Alt.=122.924866m. Speed=0.648000m/h.</desc>
<speed>0.180000</speed>
</trkpt>
<trkpt lat="44.641743" lon="33.833080">
<ele>122.782288</ele>
<time>2011-10-10T13:06:58Z</time>
<desc>lat.=44.641743, lon.=33.833080, Alt.=122.782288m. Speed=0.216000m/h.</desc>
<speed>0.060000</speed>
</trkpt>
<trkpt lat="44.641739" lon="33.833080">
<ele>122.645569</ele>
<time>2011-10-10T13:07:03Z</time>
<desc>lat.=44.641739, lon.=33.833080, Alt.=122.645569m. Speed=0.036000m/h.</desc>
<speed>0.010000</speed>
</trkpt>
<trkpt lat="44.641739" lon="33.833084">
<ele>122.573303</ele>
<time>2011-10-10T13:07:08Z</time>
<desc>lat.=44.641739, lon.=33.833084, Alt.=122.573303m. Speed=0.000000m/h.</desc>
<speed>0.000000</speed>
</trkpt>
<trkpt lat="44.641747" lon="33.833088">
<ele>122.504944</ele>
<time>2011-10-10T13:07:13Z</time>
<desc>lat.=44.641747, lon.=33.833088, Alt.=122.504944m. Speed=0.864000m/h.</desc>
<speed>0.240000</speed>
</trkpt>
<trkpt lat="44.641716" lon="33.833080">
<ele>122.213928</ele>
<time>2011-10-10T13:07:18Z</time>
<desc>lat.=44.641716, lon.=33.833080, Alt.=122.213928m. Speed=5.220000m/h.</desc>
<speed>1.450000</speed>
</trkpt>
<trkpt lat="44.641701" lon="33.833092">
<ele>121.196350</ele>
<time>2011-10-10T13:07:23Z</time>
<desc>lat.=44.641701, lon.=33.833092, Alt.=121.196350m. Speed=1.512000m/h.</desc>
<speed>0.420000</speed>
</trkpt>
<trkpt lat="44.641701" lon="33.833099">
<ele>120.356506</ele>
<time>2011-10-10T13:07:28Z</time>
<desc>lat.=44.641701, lon.=33.833099, Alt.=120.356506m. Speed=1.656000m/h.</desc>
<speed>0.460000</speed>
</trkpt>
<trkpt lat="44.641716" lon="33.833103">
<ele>120.272522</ele>
<time>2011-10-10T13:07:33Z</time>
<desc>lat.=44.641716, lon.=33.833103, Alt.=120.272522m. Speed=1.188000m/h.</desc>
<speed>0.330000</speed>
</trkpt>
<trkpt lat="44.641739" lon="33.833126">
<ele>119.973694</ele>
<time>2011-10-10T13:07:38Z</time>
<desc>lat.=44.641739, lon.=33.833126, Alt.=119.973694m. Speed=0.396000m/h.</desc>
<speed>0.110000</speed>
</trkpt>
<trkpt lat="44.641739" lon="33.833145">
<ele>119.641663</ele>
<time>2011-10-10T13:07:43Z</time>
<desc>lat.=44.641739, lon.=33.833145, Alt.=119.641663m. Speed=2.160000m/h.</desc>
<speed>0.600000</speed>
</trkpt>
<trkpt lat="44.641708" lon="33.833248">
<ele>120.649475</ele>
<time>2011-10-10T13:07:48Z</time>
<desc>lat.=44.641708, lon.=33.833248, Alt.=120.649475m. Speed=10.152000m/h.</desc>
<speed>2.820000</speed>
</trkpt>
<trkpt lat="44.641651" lon="33.833424">
<ele>121.469788</ele>
<time>2011-10-10T13:07:53Z</time>
<desc>lat.=44.641651, lon.=33.833424, Alt.=121.469788m. Speed=10.008000m/h.</desc>
<speed>2.780000</speed>
</trkpt>
<trkpt lat="44.641628" lon="33.833660">
<ele>123.106506</ele>
<time>2011-10-10T13:07:58Z</time>
<desc>lat.=44.641628, lon.=33.833660, Alt.=123.106506m. Speed=16.955999m/h.</desc>
<speed>4.710000</speed>
</trkpt>
<trkpt lat="44.641655" lon="33.833866">
<ele>124.725647</ele>
<time>2011-10-10T13:08:03Z</time>
<desc>lat.=44.641655, lon.=33.833866, Alt.=124.725647m. Speed=5.184000m/h.</desc>
<speed>1.440000</speed>
</trkpt>
<trkpt lat="44.641598" lon="33.833748">
<ele>124.221741</ele>
<time>2011-10-10T13:08:08Z</time>
<desc>lat.=44.641598, lon.=33.833748, Alt.=124.221741m. Speed=8.316000m/h.</desc>
<speed>2.310000</speed>
</trkpt>
<trkpt lat="44.641602" lon="33.833607">
<ele>125.446350</ele>
<time>2011-10-10T13:08:13Z</time>
<desc>lat.=44.641602, lon.=33.833607, Alt.=125.446350m. Speed=9.396000m/h.</desc>
<speed>2.610000</speed>
</trkpt>
<trkpt lat="44.641609" lon="33.833401">
<ele>125.885803</ele>
<time>2011-10-10T13:08:18Z</time>
<desc>lat.=44.641609, lon.=33.833401, Alt.=125.885803m. Speed=14.004000m/h.</desc>
<speed>3.890000</speed>
</trkpt>
<trkpt lat="44.641659" lon="33.833248">
<ele>124.786194</ele>
<time>2011-10-10T13:08:23Z</time>
<desc>lat.=44.641659, lon.=33.833248, Alt.=124.786194m. Speed=2.592000m/h.</desc>
<speed>0.720000</speed>
</trkpt>
<trkpt lat="44.641659" lon="33.833248">
<ele>125.051819</ele>
<time>2011-10-10T13:08:28Z</time>
<desc>lat.=44.641659, lon.=33.833248, Alt.=125.051819m. Speed=0.072000m/h.</desc>
<speed>0.020000</speed>
</trkpt>
<trkpt lat="44.641659" lon="33.833248">
<ele>125.022522</ele>
<time>2011-10-10T13:08:33Z</time>
<desc>lat.=44.641659, lon.=33.833248, Alt.=125.022522m. Speed=0.144000m/h.</desc>
<speed>0.040000</speed>
</trkpt>
<trkpt lat="44.641655" lon="33.833248">
<ele>125.016663</ele>
<time>2011-10-10T13:08:38Z</time>
<desc>lat.=44.641655, lon.=33.833248, Alt.=125.016663m. Speed=0.180000m/h.</desc>
<speed>0.050000</speed>
</trkpt>
<trkpt lat="44.641655" lon="33.833248">
<ele>125.004944</ele>
<time>2011-10-10T13:08:43Z</time>
<desc>lat.=44.641655, lon.=33.833248, Alt.=125.004944m. Speed=0.252000m/h.</desc>
<speed>0.070000</speed>
</trkpt>
<trkpt lat="44.641655" lon="33.833248">
<ele>124.995178</ele>
<time>2011-10-10T13:08:48Z</time>
<desc>lat.=44.641655, lon.=33.833248, Alt.=124.995178m. Speed=0.036000m/h.</desc>
<speed>0.010000</speed>
</trkpt>
<trkpt lat="44.641659" lon="33.833248">
<ele>125.002991</ele>
<time>2011-10-10T13:08:53Z</time>
<desc>lat.=44.641659, lon.=33.833248, Alt.=125.002991m. Speed=0.144000m/h.</desc>
<speed>0.040000</speed>
</trkpt>
<trkpt lat="44.641659" lon="33.833248">
<ele>125.006897</ele>
<time>2011-10-10T13:08:58Z</time>
<desc>lat.=44.641659, lon.=33.833248, Alt.=125.006897m. Speed=0.036000m/h.</desc>
<speed>0.010000</speed>
</trkpt>
<trkpt lat="44.641659" lon="33.833248">
<ele>125.012756</ele>
<time>2011-10-10T13:09:03Z</time>
<desc>lat.=44.641659, lon.=33.833248, Alt.=125.012756m. Speed=0.108000m/h.</desc>
<speed>0.030000</speed>
</trkpt>
<trkpt lat="44.641659" lon="33.833244">
<ele>124.997131</ele>
<time>2011-10-10T13:09:08Z</time>
<desc>lat.=44.641659, lon.=33.833244, Alt.=124.997131m. Speed=0.540000m/h.</desc>
<speed>0.150000</speed>
</trkpt>
<trkpt lat="44.641659" lon="33.833244">
<ele>124.979553</ele>
<time>2011-10-10T13:09:13Z</time>
<desc>lat.=44.641659, lon.=33.833244, Alt.=124.979553m. Speed=0.144000m/h.</desc>
<speed>0.040000</speed>
</trkpt>
<trkpt lat="44.641659" lon="33.833244">
<ele>124.975647</ele>
<time>2011-10-10T13:09:18Z</time>
<desc>lat.=44.641659, lon.=33.833244, Alt.=124.975647m. Speed=0.864000m/h.</desc>
<speed>0.240000</speed>
</trkpt>
<trkpt lat="44.641659" lon="33.833244">
<ele>124.969788</ele>
<time>2011-10-10T13:09:23Z</time>
<desc>lat.=44.641659, lon.=33.833244, Alt.=124.969788m. Speed=0.144000m/h.</desc>
<speed>0.040000</speed>
</trkpt>
<trkpt lat="44.641659" lon="33.833244">
<ele>124.971741</ele>
<time>2011-10-10T13:09:28Z</time>
<desc>lat.=44.641659, lon.=33.833244, Alt.=124.971741m. Speed=0.144000m/h.</desc>
<speed>0.040000</speed>
</trkpt>
<trkpt lat="44.641659" lon="33.833244">
<ele>124.973694</ele>
<time>2011-10-10T13:09:33Z</time>
<desc>lat.=44.641659, lon.=33.833244, Alt.=124.973694m. Speed=0.036000m/h.</desc>
<speed>0.010000</speed>
</trkpt>
<trkpt lat="44.641659" lon="33.833244">
<ele>124.971741</ele>
<time>2011-10-10T13:09:38Z</time>
<desc>lat.=44.641659, lon.=33.833244, Alt.=124.971741m. Speed=0.180000m/h.</desc>
<speed>0.050000</speed>
</trkpt>
<trkpt lat="44.641659" lon="33.833244">
<ele>124.965881</ele>
<time>2011-10-10T13:09:43Z</time>
<desc>lat.=44.641659, lon.=33.833244, Alt.=124.965881m. Speed=0.000000m/h.</desc>
<speed>0.000000</speed>
</trkpt>
<trkpt lat="44.641663" lon="33.833244">
<ele>124.958069</ele>
<time>2011-10-10T13:09:48Z</time>
<desc>lat.=44.641663, lon.=33.833244, Alt.=124.958069m. Speed=0.324000m/h.</desc>
<speed>0.090000</speed>
</trkpt>
<trkpt lat="44.641663" lon="33.833244">
<ele>124.948303</ele>
<time>2011-10-10T13:09:53Z</time>
<desc>lat.=44.641663, lon.=33.833244, Alt.=124.948303m. Speed=0.000000m/h.</desc>
<speed>0.000000</speed>
</trkpt>
<trkpt lat="44.641663" lon="33.833244">
<ele>124.944397</ele>
<time>2011-10-10T13:09:58Z</time>
<desc>lat.=44.641663, lon.=33.833244, Alt.=124.944397m. Speed=0.072000m/h.</desc>
<speed>0.020000</speed>
</trkpt>
<trkpt lat="44.641663" lon="33.833244">
<ele>124.942444</ele>
<time>2011-10-10T13:10:03Z</time>
<desc>lat.=44.641663, lon.=33.833244, Alt.=124.942444m. Speed=0.036000m/h.</desc>
<speed>0.010000</speed>
</trkpt>
<trkpt lat="44.641663" lon="33.833244">
<ele>124.934631</ele>
<time>2011-10-10T13:10:08Z</time>
<desc>lat.=44.641663, lon.=33.833244, Alt.=124.934631m. Speed=0.252000m/h.</desc>
<speed>0.070000</speed>
</trkpt>
<trkpt lat="44.641663" lon="33.833244">
<ele>124.928772</ele>
<time>2011-10-10T13:10:13Z</time>
<desc>lat.=44.641663, lon.=33.833244, Alt.=124.928772m. Speed=0.036000m/h.</desc>
<speed>0.010000</speed>
</trkpt>
<trkpt lat="44.641663" lon="33.833244">
<ele>124.913147</ele>
<time>2011-10-10T13:10:18Z</time>
<desc>lat.=44.641663, lon.=33.833244, Alt.=124.913147m. Speed=0.036000m/h.</desc>
<speed>0.010000</speed>
</trkpt>
<trkpt lat="44.641659" lon="33.833244">
<ele>124.883850</ele>
<time>2011-10-10T13:10:23Z</time>
<desc>lat.=44.641659, lon.=33.833244, Alt.=124.883850m. Speed=0.936000m/h.</desc>
<speed>0.260000</speed>
</trkpt>
<trkpt lat="44.641655" lon="33.833256">
<ele>124.754944</ele>
<time>2011-10-10T13:10:28Z</time>
<desc>lat.=44.641655, lon.=33.833256, Alt.=124.754944m. Speed=0.864000m/h.</desc>
<speed>0.240000</speed>
</trkpt>
<trkpt lat="44.641651" lon="33.833263">
<ele>124.754944</ele>
<time>2011-10-10T13:10:33Z</time>
<desc>lat.=44.641651, lon.=33.833263, Alt.=124.754944m. Speed=0.324000m/h.</desc>
<speed>0.090000</speed>
</trkpt>
<trkpt lat="44.641647" lon="33.833271">
<ele>124.835022</ele>
<time>2011-10-10T13:10:38Z</time>
<desc>lat.=44.641647, lon.=33.833271, Alt.=124.835022m. Speed=0.612000m/h.</desc>
<speed>0.170000</speed>
</trkpt>
<trkpt lat="44.641659" lon="33.833267">
<ele>124.815491</ele>
<time>2011-10-10T13:10:43Z</time>
<desc>lat.=44.641659, lon.=33.833267, Alt.=124.815491m. Speed=2.340000m/h.</desc>
<speed>0.650000</speed>
</trkpt>
<trkpt lat="44.641647" lon="33.833252">
<ele>124.411194</ele>
<time>2011-10-10T13:10:48Z</time>
<desc>lat.=44.641647, lon.=33.833252, Alt.=124.411194m. Speed=1.188000m/h.</desc>
<speed>0.330000</speed>
</trkpt>
<trkpt lat="44.641644" lon="33.833237">
<ele>124.243225</ele>
<time>2011-10-10T13:10:53Z</time>
<desc>lat.=44.641644, lon.=33.833237, Alt.=124.243225m. Speed=1.692000m/h.</desc>
<speed>0.470000</speed>
</trkpt>
<trkpt lat="44.641644" lon="33.833237">
<ele>124.044006</ele>
<time>2011-10-10T13:10:58Z</time>
<desc>lat.=44.641644, lon.=33.833237, Alt.=124.044006m. Speed=2.700000m/h.</desc>
<speed>0.750000</speed>
</trkpt>
<trkpt lat="44.641647" lon="33.833248">
<ele>124.139709</ele>
<time>2011-10-10T13:11:03Z</time>
<desc>lat.=44.641647, lon.=33.833248, Alt.=124.139709m. Speed=0.972000m/h.</desc>
<speed>0.270000</speed>
</trkpt>
<trkpt lat="44.641644" lon="33.833241">
<ele>124.333069</ele>
<time>2011-10-10T13:11:08Z</time>
<desc>lat.=44.641644, lon.=33.833241, Alt.=124.333069m. Speed=0.504000m/h.</desc>
<speed>0.140000</speed>
</trkpt>
<trkpt lat="44.641651" lon="33.833241">
<ele>124.405334</ele>
<time>2011-10-10T13:11:13Z</time>
<desc>lat.=44.641651, lon.=33.833241, Alt.=124.405334m. Speed=0.612000m/h.</desc>
<speed>0.170000</speed>
</trkpt>
<trkpt lat="44.641655" lon="33.833244">
<ele>124.417053</ele>
<time>2011-10-10T13:11:18Z</time>
<desc>lat.=44.641655, lon.=33.833244, Alt.=124.417053m. Speed=0.108000m/h.</desc>
<speed>0.030000</speed>
</trkpt>
<trkpt lat="44.641655" lon="33.833241">
<ele>124.465881</ele>
<time>2011-10-10T13:11:23Z</time>
<desc>lat.=44.641655, lon.=33.833241, Alt.=124.465881m. Speed=0.216000m/h.</desc>
<speed>0.060000</speed>
</trkpt>
<trkpt lat="44.641666" lon="33.833229">
<ele>124.577209</ele>
<time>2011-10-10T13:11:28Z</time>
<desc>lat.=44.641666, lon.=33.833229, Alt.=124.577209m. Speed=0.108000m/h.</desc>
<speed>0.030000</speed>
</trkpt>
<trkpt lat="44.641666" lon="33.833225">
<ele>124.751038</ele>
<time>2011-10-10T13:11:33Z</time>
<desc>lat.=44.641666, lon.=33.833225, Alt.=124.751038m. Speed=0.180000m/h.</desc>
<speed>0.050000</speed>
</trkpt>
<trkpt lat="44.641670" lon="33.833225">
<ele>124.901428</ele>
<time>2011-10-10T13:11:38Z</time>
<desc>lat.=44.641670, lon.=33.833225, Alt.=124.901428m. Speed=0.324000m/h.</desc>
<speed>0.090000</speed>
</trkpt>
<trkpt lat="44.641666" lon="33.833218">
<ele>125.079163</ele>
<time>2011-10-10T13:11:43Z</time>
<desc>lat.=44.641666, lon.=33.833218, Alt.=125.079163m. Speed=0.648000m/h.</desc>
<speed>0.180000</speed>
</trkpt>
<trkpt lat="44.641666" lon="33.833199">
<ele>125.557678</ele>
<time>2011-10-10T13:11:48Z</time>
<desc>lat.=44.641666, lon.=33.833199, Alt.=125.557678m. Speed=0.180000m/h.</desc>
<speed>0.050000</speed>
</trkpt>
<trkpt lat="44.641682" lon="33.833164">
<ele>126.020569</ele>
<time>2011-10-10T13:11:53Z</time>
<desc>lat.=44.641682, lon.=33.833164, Alt.=126.020569m. Speed=0.108000m/h.</desc>
<speed>0.030000</speed>
</trkpt>
<trkpt lat="44.641693" lon="33.833122">
<ele>126.684631</ele>
<time>2011-10-10T13:11:58Z</time>
<desc>lat.=44.641693, lon.=33.833122, Alt.=126.684631m. Speed=0.072000m/h.</desc>
<speed>0.020000</speed>
</trkpt>
<trkpt lat="44.641712" lon="33.833115">
<ele>126.836975</ele>
<time>2011-10-10T13:12:03Z</time>
<desc>lat.=44.641712, lon.=33.833115, Alt.=126.836975m. Speed=0.000000m/h.</desc>
<speed>0.000000</speed>
</trkpt>
<trkpt lat="44.641724" lon="33.833111">
<ele>126.545959</ele>
<time>2011-10-10T13:12:08Z</time>
<desc>lat.=44.641724, lon.=33.833111, Alt.=126.545959m. Speed=0.000000m/h.</desc>
<speed>0.000000</speed>
</trkpt>
<trkpt lat="44.641735" lon="33.833111">
<ele>126.715881</ele>
<time>2011-10-10T13:12:13Z</time>
<desc>lat.=44.641735, lon.=33.833111, Alt.=126.715881m. Speed=0.000000m/h.</desc>
<speed>0.000000</speed>
</trkpt>
<trkpt lat="44.641739" lon="33.833103">
<ele>126.688538</ele>
<time>2011-10-10T13:12:18Z</time>
<desc>lat.=44.641739, lon.=33.833103, Alt.=126.688538m. Speed=0.000000m/h.</desc>
<speed>0.000000</speed>
</trkpt>
<trkpt lat="44.641743" lon="33.833107">
<ele>126.719788</ele>
<time>2011-10-10T13:12:23Z</time>
<desc>lat.=44.641743, lon.=33.833107, Alt.=126.719788m. Speed=0.000000m/h.</desc>
<speed>0.000000</speed>
</trkpt>
<trkpt lat="44.641743" lon="33.833103">
<ele>126.792053</ele>
<time>2011-10-10T13:12:28Z</time>
<desc>lat.=44.641743, lon.=33.833103, Alt.=126.792053m. Speed=0.036000m/h.</desc>
<speed>0.010000</speed>
</trkpt>
<trkpt lat="44.641739" lon="33.833099">
<ele>126.928772</ele>
<time>2011-10-10T13:12:33Z</time>
<desc>lat.=44.641739, lon.=33.833099, Alt.=126.928772m. Speed=0.036000m/h.</desc>
<speed>0.010000</speed>
</trkpt>
<trkpt lat="44.641739" lon="33.833099">
<ele>126.936584</ele>
<time>2011-10-10T13:12:38Z</time>
<desc>lat.=44.641739, lon.=33.833099, Alt.=126.936584m. Speed=0.036000m/h.</desc>
<speed>0.010000</speed>
</trkpt>
<trkpt lat="44.641739" lon="33.833099">
<ele>126.940491</ele>
<time>2011-10-10T13:12:43Z</time>
<desc>lat.=44.641739, lon.=33.833099, Alt.=126.940491m. Speed=0.324000m/h.</desc>
<speed>0.090000</speed>
</trkpt>
<trkpt lat="44.641735" lon="33.833103">
<ele>126.934631</ele>
<time>2011-10-10T13:12:48Z</time>
<desc>lat.=44.641735, lon.=33.833103, Alt.=126.934631m. Speed=0.252000m/h.</desc>
<speed>0.070000</speed>
</trkpt>
<trkpt lat="44.641735" lon="33.833107">
<ele>126.926819</ele>
<time>2011-10-10T13:12:53Z</time>
<desc>lat.=44.641735, lon.=33.833107, Alt.=126.926819m. Speed=0.324000m/h.</desc>
<speed>0.090000</speed>
</trkpt>
<trkpt lat="44.641735" lon="33.833111">
<ele>126.913147</ele>
<time>2011-10-10T13:12:58Z</time>
<desc>lat.=44.641735, lon.=33.833111, Alt.=126.913147m. Speed=0.180000m/h.</desc>
<speed>0.050000</speed>
</trkpt>
<trkpt lat="44.641735" lon="33.833115">
<ele>126.891663</ele>
<time>2011-10-10T13:13:03Z</time>
<desc>lat.=44.641735, lon.=33.833115, Alt.=126.891663m. Speed=0.180000m/h.</desc>
<speed>0.050000</speed>
</trkpt>
<trkpt lat="44.641735" lon="33.833115">
<ele>126.876038</ele>
<time>2011-10-10T13:13:08Z</time>
<desc>lat.=44.641735, lon.=33.833115, Alt.=126.876038m. Speed=0.108000m/h.</desc>
<speed>0.030000</speed>
</trkpt>
<trkpt lat="44.641735" lon="33.833118">
<ele>126.848694</ele>
<time>2011-10-10T13:13:13Z</time>
<desc>lat.=44.641735, lon.=33.833118, Alt.=126.848694m. Speed=0.072000m/h.</desc>
<speed>0.020000</speed>
</trkpt>
<trkpt lat="44.641739" lon="33.833118">
<ele>126.862366</ele>
<time>2011-10-10T13:13:18Z</time>
<desc>lat.=44.641739, lon.=33.833118, Alt.=126.862366m. Speed=0.108000m/h.</desc>
<speed>0.030000</speed>
</trkpt>
<trkpt lat="44.641735" lon="33.833118">
<ele>126.887756</ele>
<time>2011-10-10T13:13:23Z</time>
<desc>lat.=44.641735, lon.=33.833118, Alt.=126.887756m. Speed=0.072000m/h.</desc>
<speed>0.020000</speed>
</trkpt>
<trkpt lat="44.641735" lon="33.833118">
<ele>126.928772</ele>
<time>2011-10-10T13:13:28Z</time>
<desc>lat.=44.641735, lon.=33.833118, Alt.=126.928772m. Speed=0.108000m/h.</desc>
<speed>0.030000</speed>
</trkpt>
<trkpt lat="44.641739" lon="33.833118">
<ele>126.989319</ele>
<time>2011-10-10T13:13:33Z</time>
<desc>lat.=44.641739, lon.=33.833118, Alt.=126.989319m. Speed=0.036000m/h.</desc>
<speed>0.010000</speed>
</trkpt>
<trkpt lat="44.641739" lon="33.833118">
<ele>127.002991</ele>
<time>2011-10-10T13:13:38Z</time>
<desc>lat.=44.641739, lon.=33.833118, Alt.=127.002991m. Speed=0.000000m/h.</desc>
<speed>0.000000</speed>
</trkpt>
<trkpt lat="44.641739" lon="33.833118">
<ele>127.018616</ele>
<time>2011-10-10T13:13:43Z</time>
<desc>lat.=44.641739, lon.=33.833118, Alt.=127.018616m. Speed=0.000000m/h.</desc>
<speed>0.000000</speed>
</trkpt>
<trkpt lat="44.641739" lon="33.833118">
<ele>127.024475</ele>
<time>2011-10-10T13:13:48Z</time>
<desc>lat.=44.641739, lon.=33.833118, Alt.=127.024475m. Speed=0.036000m/h.</desc>
<speed>0.010000</speed>
</trkpt>
<trkpt lat="44.641739" lon="33.833118">
<ele>127.028381</ele>
<time>2011-10-10T13:13:53Z</time>
<desc>lat.=44.641739, lon.=33.833118, Alt.=127.028381m. Speed=0.000000m/h.</desc>
<speed>0.000000</speed>
</trkpt>
<trkpt lat="44.641739" lon="33.833118">
<ele>127.032288</ele>
<time>2011-10-10T13:13:58Z</time>
<desc>lat.=44.641739, lon.=33.833118, Alt.=127.032288m. Speed=0.000000m/h.</desc>
<speed>0.000000</speed>
</trkpt>
<trkpt lat="44.641739" lon="33.833118">
<ele>127.067444</ele>
<time>2011-10-10T13:14:03Z</time>
<desc>lat.=44.641739, lon.=33.833118, Alt.=127.067444m. Speed=0.864000m/h.</desc>
<speed>0.240000</speed>
</trkpt>
<trkpt lat="44.641735" lon="33.833107">
<ele>127.208069</ele>
<time>2011-10-10T13:14:08Z</time>
<desc>lat.=44.641735, lon.=33.833107, Alt.=127.208069m. Speed=0.504000m/h.</desc>
<speed>0.140000</speed>
</trkpt>
<trkpt lat="44.641731" lon="33.833099">
<ele>127.381897</ele>
<time>2011-10-10T13:14:13Z</time>
<desc>lat.=44.641731, lon.=33.833099, Alt.=127.381897m. Speed=0.468000m/h.</desc>
<speed>0.130000</speed>
</trkpt>
<trkpt lat="44.641727" lon="33.833096">
<ele>127.536194</ele>
<time>2011-10-10T13:14:18Z</time>
<desc>lat.=44.641727, lon.=33.833096, Alt.=127.536194m. Speed=0.036000m/h.</desc>
<speed>0.010000</speed>
</trkpt>
<trkpt lat="44.641731" lon="33.833096">
<ele>127.653381</ele>
<time>2011-10-10T13:14:23Z</time>
<desc>lat.=44.641731, lon.=33.833096, Alt.=127.653381m. Speed=0.144000m/h.</desc>
<speed>0.040000</speed>
</trkpt>
<trkpt lat="44.641731" lon="33.833096">
<ele>127.733459</ele>
<time>2011-10-10T13:14:28Z</time>
<desc>lat.=44.641731, lon.=33.833096, Alt.=127.733459m. Speed=0.000000m/h.</desc>
<speed>0.000000</speed>
</trkpt>
<trkpt lat="44.641731" lon="33.833096">
<ele>127.731506</ele>
<time>2011-10-10T13:14:33Z</time>
<desc>lat.=44.641731, lon.=33.833096, Alt.=127.731506m. Speed=0.036000m/h.</desc>
<speed>0.010000</speed>
</trkpt>
<trkpt lat="44.641731" lon="33.833096">
<ele>127.727600</ele>
<time>2011-10-10T13:14:38Z</time>
<desc>lat.=44.641731, lon.=33.833096, Alt.=127.727600m. Speed=0.000000m/h.</desc>
<speed>0.000000</speed>
</trkpt>
<trkpt lat="44.641731" lon="33.833096">
<ele>127.727600</ele>
<time>2011-10-10T13:14:43Z</time>
<desc>lat.=44.641731, lon.=33.833096, Alt.=127.727600m. Speed=0.036000m/h.</desc>
<speed>0.010000</speed>
</trkpt>
<trkpt lat="44.641731" lon="33.833096">
<ele>127.731506</ele>
<time>2011-10-10T13:14:48Z</time>
<desc>lat.=44.641731, lon.=33.833096, Alt.=127.731506m. Speed=0.036000m/h.</desc>
<speed>0.010000</speed>
</trkpt>
<trkpt lat="44.641731" lon="33.833096">
<ele>127.731506</ele>
<time>2011-10-10T13:14:53Z</time>
<desc>lat.=44.641731, lon.=33.833096, Alt.=127.731506m. Speed=0.000000m/h.</desc>
<speed>0.000000</speed>
</trkpt>
<trkpt lat="44.641731" lon="33.833096">
<ele>127.733459</ele>
<time>2011-10-10T13:14:58Z</time>
<desc>lat.=44.641731, lon.=33.833096, Alt.=127.733459m. Speed=0.000000m/h.</desc>
<speed>0.000000</speed>
</trkpt>
<trkpt lat="44.641731" lon="33.833096">
<ele>127.735413</ele>
<time>2011-10-10T13:15:03Z</time>
<desc>lat.=44.641731, lon.=33.833096, Alt.=127.735413m. Speed=0.036000m/h.</desc>
<speed>0.010000</speed>
</trkpt>
<trkpt lat="44.641731" lon="33.833096">
<ele>127.741272</ele>
<time>2011-10-10T13:15:08Z</time>
<desc>lat.=44.641731, lon.=33.833096, Alt.=127.741272m. Speed=0.072000m/h.</desc>
<speed>0.020000</speed>
</trkpt>
<trkpt lat="44.641731" lon="33.833096">
<ele>127.749084</ele>
<time>2011-10-10T13:15:13Z</time>
<desc>lat.=44.641731, lon.=33.833096, Alt.=127.749084m. Speed=0.000000m/h.</desc>
<speed>0.000000</speed>
</trkpt>
<trkpt lat="44.641731" lon="33.833096">
<ele>127.754944</ele>
<time>2011-10-10T13:15:18Z</time>
<desc>lat.=44.641731, lon.=33.833096, Alt.=127.754944m. Speed=0.000000m/h.</desc>
<speed>0.000000</speed>
</trkpt>
<trkpt lat="44.641731" lon="33.833096">
<ele>127.758850</ele>
<time>2011-10-10T13:15:23Z</time>
<desc>lat.=44.641731, lon.=33.833096, Alt.=127.758850m. Speed=0.108000m/h.</desc>
<speed>0.030000</speed>
</trkpt>
<trkpt lat="44.641739" lon="33.833084">
<ele>127.844788</ele>
<time>2011-10-10T13:15:28Z</time>
<desc>lat.=44.641739, lon.=33.833084, Alt.=127.844788m. Speed=4.896000m/h.</desc>
<speed>1.360000</speed>
</trkpt>
<trkpt lat="44.641777" lon="33.832890">
<ele>128.935669</ele>
<time>2011-10-10T13:15:33Z</time>
<desc>lat.=44.641777, lon.=33.832890, Alt.=128.935669m. Speed=19.944000m/h.</desc>
<speed>5.540000</speed>
</trkpt>
<trkpt lat="44.641876" lon="33.832478">
<ele>129.795044</ele>
<time>2011-10-10T13:15:38Z</time>
<desc>lat.=44.641876, lon.=33.832478, Alt.=129.795044m. Speed=25.524000m/h.</desc>
<speed>7.090000</speed>
</trkpt>
<trkpt lat="44.641983" lon="33.832043">
<ele>129.400513</ele>
<time>2011-10-10T13:15:43Z</time>
<desc>lat.=44.641983, lon.=33.832043, Alt.=129.400513m. Speed=28.368000m/h.</desc>
<speed>7.880000</speed>
</trkpt>
<trkpt lat="44.642006" lon="33.831516">
<ele>128.900513</ele>
<time>2011-10-10T13:15:48Z</time>
<desc>lat.=44.642006, lon.=33.831516, Alt.=128.900513m. Speed=32.688000m/h.</desc>
<speed>9.080000</speed>
</trkpt>
<trkpt lat="44.642086" lon="33.830910">
<ele>128.877075</ele>
<time>2011-10-10T13:15:53Z</time>
<desc>lat.=44.642086, lon.=33.830910, Alt.=128.877075m. Speed=31.356001m/h.</desc>
<speed>8.710000</speed>
</trkpt>
<trkpt lat="44.642231" lon="33.830372">
<ele>127.442444</ele>
<time>2011-10-10T13:15:58Z</time>
<desc>lat.=44.642231, lon.=33.830372, Alt.=127.442444m. Speed=33.192001m/h.</desc>
<speed>9.220000</speed>
</trkpt>
<trkpt lat="44.642471" lon="33.829876">
<ele>127.711975</ele>
<time>2011-10-10T13:16:03Z</time>
<desc>lat.=44.642471, lon.=33.829876, Alt.=127.711975m. Speed=32.363998m/h.</desc>
<speed>8.990000</speed>
</trkpt>
<trkpt lat="44.642727" lon="33.829472">
<ele>128.326294</ele>
<time>2011-10-10T13:16:08Z</time>
<desc>lat.=44.642727, lon.=33.829472, Alt.=128.326294m. Speed=29.052000m/h.</desc>
<speed>8.070000</speed>
</trkpt>
<trkpt lat="44.642971" lon="33.829075">
<ele>129.197388</ele>
<time>2011-10-10T13:16:13Z</time>
<desc>lat.=44.642971, lon.=33.829075, Alt.=129.197388m. Speed=28.332001m/h.</desc>
<speed>7.870000</speed>
</trkpt>
<trkpt lat="44.643166" lon="33.828667">
<ele>129.572388</ele>
<time>2011-10-10T13:16:18Z</time>
<desc>lat.=44.643166, lon.=33.828667, Alt.=129.572388m. Speed=25.667999m/h.</desc>
<speed>7.130000</speed>
</trkpt>
<trkpt lat="44.643295" lon="33.828342">
<ele>129.982544</ele>
<time>2011-10-10T13:16:23Z</time>
<desc>lat.=44.643295, lon.=33.828342, Alt.=129.982544m. Speed=17.243999m/h.</desc>
<speed>4.790000</speed>
</trkpt>
<trkpt lat="44.643391" lon="33.828140">
<ele>129.423950</ele>
<time>2011-10-10T13:16:28Z</time>
<desc>lat.=44.643391, lon.=33.828140, Alt.=129.423950m. Speed=12.816000m/h.</desc>
<speed>3.560000</speed>
</trkpt>
<trkpt lat="44.643501" lon="33.827957">
<ele>129.041138</ele>
<time>2011-10-10T13:16:33Z</time>
<desc>lat.=44.643501, lon.=33.827957, Alt.=129.041138m. Speed=11.412000m/h.</desc>
<speed>3.170000</speed>
</trkpt>
<trkpt lat="44.643539" lon="33.827911">
<ele>129.513794</ele>
<time>2011-10-10T13:16:38Z</time>
<desc>lat.=44.643539, lon.=33.827911, Alt.=129.513794m. Speed=0.468000m/h.</desc>
<speed>0.130000</speed>
</trkpt>
<trkpt lat="44.643539" lon="33.827915">
<ele>129.502075</ele>
<time>2011-10-10T13:16:43Z</time>
<desc>lat.=44.643539, lon.=33.827915, Alt.=129.502075m. Speed=0.036000m/h.</desc>
<speed>0.010000</speed>
</trkpt>
<trkpt lat="44.643539" lon="33.827915">
<ele>129.412231</ele>
<time>2011-10-10T13:16:48Z</time>
<desc>lat.=44.643539, lon.=33.827915, Alt.=129.412231m. Speed=0.252000m/h.</desc>
<speed>0.070000</speed>
</trkpt>
<trkpt lat="44.643539" lon="33.827915">
<ele>129.349731</ele>
<time>2011-10-10T13:16:53Z</time>
<desc>lat.=44.643539, lon.=33.827915, Alt.=129.349731m. Speed=0.036000m/h.</desc>
<speed>0.010000</speed>
</trkpt>
<trkpt lat="44.643539" lon="33.827915">
<ele>129.302856</ele>
<time>2011-10-10T13:16:58Z</time>
<desc>lat.=44.643539, lon.=33.827915, Alt.=129.302856m. Speed=0.072000m/h.</desc>
<speed>0.020000</speed>
</trkpt>
<trkpt lat="44.643539" lon="33.827915">
<ele>129.275513</ele>
<time>2011-10-10T13:17:03Z</time>
<desc>lat.=44.643539, lon.=33.827915, Alt.=129.275513m. Speed=0.072000m/h.</desc>
<speed>0.020000</speed>
</trkpt>
<trkpt lat="44.643539" lon="33.827911">
<ele>129.216919</ele>
<time>2011-10-10T13:17:08Z</time>
<desc>lat.=44.643539, lon.=33.827911, Alt.=129.216919m. Speed=0.036000m/h.</desc>
<speed>0.010000</speed>
</trkpt>
<trkpt lat="44.643539" lon="33.827911">
<ele>129.197388</ele>
<time>2011-10-10T13:17:13Z</time>
<desc>lat.=44.643539, lon.=33.827911, Alt.=129.197388m. Speed=0.036000m/h.</desc>
<speed>0.010000</speed>
</trkpt>
<trkpt lat="44.643539" lon="33.827911">
<ele>129.193481</ele>
<time>2011-10-10T13:17:18Z</time>
<desc>lat.=44.643539, lon.=33.827911, Alt.=129.193481m. Speed=0.036000m/h.</desc>
<speed>0.010000</speed>
</trkpt>
<trkpt lat="44.643539" lon="33.827911">
<ele>129.193481</ele>
<time>2011-10-10T13:17:23Z</time>
<desc>lat.=44.643539, lon.=33.827911, Alt.=129.193481m. Speed=0.000000m/h.</desc>
<speed>0.000000</speed>
</trkpt>
<trkpt lat="44.643539" lon="33.827911">
<ele>129.189575</ele>
<time>2011-10-10T13:17:28Z</time>
<desc>lat.=44.643539, lon.=33.827911, Alt.=129.189575m. Speed=0.072000m/h.</desc>
<speed>0.020000</speed>
</trkpt>
<trkpt lat="44.643539" lon="33.827911">
<ele>129.189575</ele>
<time>2011-10-10T13:17:33Z</time>
<desc>lat.=44.643539, lon.=33.827911, Alt.=129.189575m. Speed=0.000000m/h.</desc>
<speed>0.000000</speed>
</trkpt>
<trkpt lat="44.643539" lon="33.827911">
<ele>129.189575</ele>
<time>2011-10-10T13:17:38Z</time>
<desc>lat.=44.643539, lon.=33.827911, Alt.=129.189575m. Speed=0.036000m/h.</desc>
<speed>0.010000</speed>
</trkpt>
<trkpt lat="44.643539" lon="33.827911">
<ele>129.173950</ele>
<time>2011-10-10T13:17:43Z</time>
<desc>lat.=44.643539, lon.=33.827911, Alt.=129.173950m. Speed=0.000000m/h.</desc>
<speed>0.000000</speed>
</trkpt>
<trkpt lat="44.643539" lon="33.827915">
<ele>129.173950</ele>
<time>2011-10-10T13:17:48Z</time>
<desc>lat.=44.643539, lon.=33.827915, Alt.=129.173950m. Speed=0.000000m/h.</desc>
<speed>0.000000</speed>
</trkpt>
<trkpt lat="44.643539" lon="33.827915">
<ele>129.170044</ele>
<time>2011-10-10T13:17:53Z</time>
<desc>lat.=44.643539, lon.=33.827915, Alt.=129.170044m. Speed=0.036000m/h.</desc>
<speed>0.010000</speed>
</trkpt>
<trkpt lat="44.643539" lon="33.827915">
<ele>129.181763</ele>
<time>2011-10-10T13:17:58Z</time>
<desc>lat.=44.643539, lon.=33.827915, Alt.=129.181763m. Speed=0.036000m/h.</desc>
<speed>0.010000</speed>
</trkpt>
<trkpt lat="44.643539" lon="33.827915">
<ele>129.205200</ele>
<time>2011-10-10T13:18:03Z</time>
<desc>lat.=44.643539, lon.=33.827915, Alt.=129.205200m. Speed=0.072000m/h.</desc>
<speed>0.020000</speed>
</trkpt>
<trkpt lat="44.643539" lon="33.827915">
<ele>129.244263</ele>
<time>2011-10-10T13:18:08Z</time>
<desc>lat.=44.643539, lon.=33.827915, Alt.=129.244263m. Speed=0.108000m/h.</desc>
<speed>0.030000</speed>
</trkpt>
<trkpt lat="44.643539" lon="33.827915">
<ele>129.283325</ele>
<time>2011-10-10T13:18:13Z</time>
<desc>lat.=44.643539, lon.=33.827915, Alt.=129.283325m. Speed=0.072000m/h.</desc>
<speed>0.020000</speed>
</trkpt>
<trkpt lat="44.643536" lon="33.827915">
<ele>129.310669</ele>
<time>2011-10-10T13:18:18Z</time>
<desc>lat.=44.643536, lon.=33.827915, Alt.=129.310669m. Speed=0.072000m/h.</desc>
<speed>0.020000</speed>
</trkpt>
<trkpt lat="44.643536" lon="33.827915">
<ele>129.310669</ele>
<time>2011-10-10T13:18:23Z</time>
<desc>lat.=44.643536, lon.=33.827915, Alt.=129.310669m. Speed=0.036000m/h.</desc>
<speed>0.010000</speed>
</trkpt>
<trkpt lat="44.643536" lon="33.827915">
<ele>129.306763</ele>
<time>2011-10-10T13:18:28Z</time>
<desc>lat.=44.643536, lon.=33.827915, Alt.=129.306763m. Speed=0.072000m/h.</desc>
<speed>0.020000</speed>
</trkpt>
<trkpt lat="44.643536" lon="33.827915">
<ele>129.318481</ele>
<time>2011-10-10T13:18:33Z</time>
<desc>lat.=44.643536, lon.=33.827915, Alt.=129.318481m. Speed=0.108000m/h.</desc>
<speed>0.030000</speed>
</trkpt>
<trkpt lat="44.643536" lon="33.827915">
<ele>129.318481</ele>
<time>2011-10-10T13:18:38Z</time>
<desc>lat.=44.643536, lon.=33.827915, Alt.=129.318481m. Speed=0.036000m/h.</desc>
<speed>0.010000</speed>
</trkpt>
<trkpt lat="44.643536" lon="33.827915">
<ele>129.341919</ele>
<time>2011-10-10T13:18:43Z</time>
<desc>lat.=44.643536, lon.=33.827915, Alt.=129.341919m. Speed=0.000000m/h.</desc>
<speed>0.000000</speed>
</trkpt>
<trkpt lat="44.643536" lon="33.827915">
<ele>129.361450</ele>
<time>2011-10-10T13:18:48Z</time>
<desc>lat.=44.643536, lon.=33.827915, Alt.=129.361450m. Speed=0.036000m/h.</desc>
<speed>0.010000</speed>
</trkpt>
<trkpt lat="44.643536" lon="33.827915">
<ele>129.349731</ele>
<time>2011-10-10T13:18:53Z</time>
<desc>lat.=44.643536, lon.=33.827915, Alt.=129.349731m. Speed=0.072000m/h.</desc>
<speed>0.020000</speed>
</trkpt>
<trkpt lat="44.643536" lon="33.827915">
<ele>129.341919</ele>
<time>2011-10-10T13:18:58Z</time>
<desc>lat.=44.643536, lon.=33.827915, Alt.=129.341919m. Speed=0.000000m/h.</desc>
<speed>0.000000</speed>
</trkpt>
<trkpt lat="44.643536" lon="33.827915">
<ele>129.318481</ele>
<time>2011-10-10T13:19:03Z</time>
<desc>lat.=44.643536, lon.=33.827915, Alt.=129.318481m. Speed=0.072000m/h.</desc>
<speed>0.020000</speed>
</trkpt>
<trkpt lat="44.643536" lon="33.827915">
<ele>129.322388</ele>
<time>2011-10-10T13:19:08Z</time>
<desc>lat.=44.643536, lon.=33.827915, Alt.=129.322388m. Speed=0.108000m/h.</desc>
<speed>0.030000</speed>
</trkpt>
<trkpt lat="44.643536" lon="33.827915">
<ele>129.322388</ele>
<time>2011-10-10T13:19:13Z</time>
<desc>lat.=44.643536, lon.=33.827915, Alt.=129.322388m. Speed=0.036000m/h.</desc>
<speed>0.010000</speed>
</trkpt>
<trkpt lat="44.643536" lon="33.827915">
<ele>129.318481</ele>
<time>2011-10-10T13:19:18Z</time>
<desc>lat.=44.643536, lon.=33.827915, Alt.=129.318481m. Speed=0.000000m/h.</desc>
<speed>0.000000</speed>
</trkpt>
<trkpt lat="44.643536" lon="33.827915">
<ele>129.318481</ele>
<time>2011-10-10T13:19:23Z</time>
<desc>lat.=44.643536, lon.=33.827915, Alt.=129.318481m. Speed=0.072000m/h.</desc>
<speed>0.020000</speed>
</trkpt>
<trkpt lat="44.643536" lon="33.827915">
<ele>129.314575</ele>
<time>2011-10-10T13:19:28Z</time>
<desc>lat.=44.643536, lon.=33.827915, Alt.=129.314575m. Speed=0.108000m/h.</desc>
<speed>0.030000</speed>
</trkpt>
<trkpt lat="44.643536" lon="33.827915">
<ele>129.310669</ele>
<time>2011-10-10T13:19:33Z</time>
<desc>lat.=44.643536, lon.=33.827915, Alt.=129.310669m. Speed=0.036000m/h.</desc>
<speed>0.010000</speed>
</trkpt>
<trkpt lat="44.643536" lon="33.827915">
<ele>129.302856</ele>
<time>2011-10-10T13:19:38Z</time>
<desc>lat.=44.643536, lon.=33.827915, Alt.=129.302856m. Speed=0.036000m/h.</desc>
<speed>0.010000</speed>
</trkpt>
<trkpt lat="44.643536" lon="33.827915">
<ele>129.306763</ele>
<time>2011-10-10T13:19:43Z</time>
<desc>lat.=44.643536, lon.=33.827915, Alt.=129.306763m. Speed=0.108000m/h.</desc>
<speed>0.030000</speed>
</trkpt>
<trkpt lat="44.643536" lon="33.827915">
<ele>129.306763</ele>
<time>2011-10-10T13:19:48Z</time>
<desc>lat.=44.643536, lon.=33.827915, Alt.=129.306763m. Speed=0.216000m/h.</desc>
<speed>0.060000</speed>
</trkpt>
<trkpt lat="44.643532" lon="33.827915">
<ele>129.310669</ele>
<time>2011-10-10T13:19:53Z</time>
<desc>lat.=44.643532, lon.=33.827915, Alt.=129.310669m. Speed=0.036000m/h.</desc>
<speed>0.010000</speed>
</trkpt>
<trkpt lat="44.643536" lon="33.827915">
<ele>129.314575</ele>
<time>2011-10-10T13:19:58Z</time>
<desc>lat.=44.643536, lon.=33.827915, Alt.=129.314575m. Speed=0.144000m/h.</desc>
<speed>0.040000</speed>
</trkpt>
<trkpt lat="44.643536" lon="33.827915">
<ele>129.322388</ele>
<time>2011-10-10T13:20:03Z</time>
<desc>lat.=44.643536, lon.=33.827915, Alt.=129.322388m. Speed=0.108000m/h.</desc>
<speed>0.030000</speed>
</trkpt>
<trkpt lat="44.643539" lon="33.827915">
<ele>129.330200</ele>
<time>2011-10-10T13:20:08Z</time>
<desc>lat.=44.643539, lon.=33.827915, Alt.=129.330200m. Speed=0.180000m/h.</desc>
<speed>0.050000</speed>
</trkpt>
<trkpt lat="44.643539" lon="33.827915">
<ele>129.330200</ele>
<time>2011-10-10T13:20:13Z</time>
<desc>lat.=44.643539, lon.=33.827915, Alt.=129.330200m. Speed=0.036000m/h.</desc>
<speed>0.010000</speed>
</trkpt>
<trkpt lat="44.643539" lon="33.827915">
<ele>129.326294</ele>
<time>2011-10-10T13:20:18Z</time>
<desc>lat.=44.643539, lon.=33.827915, Alt.=129.326294m. Speed=0.000000m/h.</desc>
<speed>0.000000</speed>
</trkpt>
<trkpt lat="44.643539" lon="33.827915">
<ele>129.326294</ele>
<time>2011-10-10T13:20:23Z</time>
<desc>lat.=44.643539, lon.=33.827915, Alt.=129.326294m. Speed=0.072000m/h.</desc>
<speed>0.020000</speed>
</trkpt>
<trkpt lat="44.643539" lon="33.827915">
<ele>129.326294</ele>
<time>2011-10-10T13:20:28Z</time>
<desc>lat.=44.643539, lon.=33.827915, Alt.=129.326294m. Speed=0.000000m/h.</desc>
<speed>0.000000</speed>
</trkpt>
<trkpt lat="44.643539" lon="33.827915">
<ele>129.326294</ele>
<time>2011-10-10T13:20:33Z</time>
<desc>lat.=44.643539, lon.=33.827915, Alt.=129.326294m. Speed=0.072000m/h.</desc>
<speed>0.020000</speed>
</trkpt>
<trkpt lat="44.643539" lon="33.827915">
<ele>129.334106</ele>
<time>2011-10-10T13:20:38Z</time>
<desc>lat.=44.643539, lon.=33.827915, Alt.=129.334106m. Speed=0.036000m/h.</desc>
<speed>0.010000</speed>
</trkpt>
<trkpt lat="44.643539" lon="33.827919">
<ele>129.334106</ele>
<time>2011-10-10T13:20:43Z</time>
<desc>lat.=44.643539, lon.=33.827919, Alt.=129.334106m. Speed=0.036000m/h.</desc>
<speed>0.010000</speed>
</trkpt>
<trkpt lat="44.643539" lon="33.827919">
<ele>129.338013</ele>
<time>2011-10-10T13:20:48Z</time>
<desc>lat.=44.643539, lon.=33.827919, Alt.=129.338013m. Speed=0.000000m/h.</desc>
<speed>0.000000</speed>
</trkpt>
<trkpt lat="44.643539" lon="33.827919">
<ele>129.341919</ele>
<time>2011-10-10T13:20:53Z</time>
<desc>lat.=44.643539, lon.=33.827919, Alt.=129.341919m. Speed=0.000000m/h.</desc>
<speed>0.000000</speed>
</trkpt>
<trkpt lat="44.643539" lon="33.827919">
<ele>129.345825</ele>
<time>2011-10-10T13:20:58Z</time>
<desc>lat.=44.643539, lon.=33.827919, Alt.=129.345825m. Speed=0.036000m/h.</desc>
<speed>0.010000</speed>
</trkpt>
<trkpt lat="44.643539" lon="33.827919">
<ele>129.341919</ele>
<time>2011-10-10T13:21:03Z</time>
<desc>lat.=44.643539, lon.=33.827919, Alt.=129.341919m. Speed=0.036000m/h.</desc>
<speed>0.010000</speed>
</trkpt>
<trkpt lat="44.643539" lon="33.827919">
<ele>129.341919</ele>
<time>2011-10-10T13:21:08Z</time>
<desc>lat.=44.643539, lon.=33.827919, Alt.=129.341919m. Speed=0.072000m/h.</desc>
<speed>0.020000</speed>
</trkpt>
<trkpt lat="44.643539" lon="33.827919">
<ele>129.349731</ele>
<time>2011-10-10T13:21:13Z</time>
<desc>lat.=44.643539, lon.=33.827919, Alt.=129.349731m. Speed=0.000000m/h.</desc>
<speed>0.000000</speed>
</trkpt>
<trkpt lat="44.643539" lon="33.827919">
<ele>129.357544</ele>
<time>2011-10-10T13:21:18Z</time>
<desc>lat.=44.643539, lon.=33.827919, Alt.=129.357544m. Speed=0.036000m/h.</desc>
<speed>0.010000</speed>
</trkpt>
<trkpt lat="44.643539" lon="33.827919">
<ele>129.361450</ele>
<time>2011-10-10T13:21:23Z</time>
<desc>lat.=44.643539, lon.=33.827919, Alt.=129.361450m. Speed=0.036000m/h.</desc>
<speed>0.010000</speed>
</trkpt>
<trkpt lat="44.643539" lon="33.827919">
<ele>129.369263</ele>
<time>2011-10-10T13:21:28Z</time>
<desc>lat.=44.643539, lon.=33.827919, Alt.=129.369263m. Speed=0.072000m/h.</desc>
<speed>0.020000</speed>
</trkpt>
<trkpt lat="44.643539" lon="33.827919">
<ele>129.353638</ele>
<time>2011-10-10T13:21:33Z</time>
<desc>lat.=44.643539, lon.=33.827919, Alt.=129.353638m. Speed=0.000000m/h.</desc>
<speed>0.000000</speed>
</trkpt>
<trkpt lat="44.643539" lon="33.827919">
<ele>129.357544</ele>
<time>2011-10-10T13:21:38Z</time>
<desc>lat.=44.643539, lon.=33.827919, Alt.=129.357544m. Speed=0.072000m/h.</desc>
<speed>0.020000</speed>
</trkpt>
<trkpt lat="44.643539" lon="33.827919">
<ele>129.361450</ele>
<time>2011-10-10T13:21:43Z</time>
<desc>lat.=44.643539, lon.=33.827919, Alt.=129.361450m. Speed=0.036000m/h.</desc>
<speed>0.010000</speed>
</trkpt>
<trkpt lat="44.643539" lon="33.827919">
<ele>129.369263</ele>
<time>2011-10-10T13:21:48Z</time>
<desc>lat.=44.643539, lon.=33.827919, Alt.=129.369263m. Speed=0.000000m/h.</desc>
<speed>0.000000</speed>
</trkpt>
<trkpt lat="44.643539" lon="33.827919">
<ele>129.369263</ele>
<time>2011-10-10T13:21:53Z</time>
<desc>lat.=44.643539, lon.=33.827919, Alt.=129.369263m. Speed=0.000000m/h.</desc>
<speed>0.000000</speed>
</trkpt>
<trkpt lat="44.643539" lon="33.827919">
<ele>129.361450</ele>
<time>2011-10-10T13:21:58Z</time>
<desc>lat.=44.643539, lon.=33.827919, Alt.=129.361450m. Speed=0.000000m/h.</desc>
<speed>0.000000</speed>
</trkpt>
<trkpt lat="44.643539" lon="33.827919">
<ele>129.365356</ele>
<time>2011-10-10T13:22:03Z</time>
<desc>lat.=44.643539, lon.=33.827919, Alt.=129.365356m. Speed=0.000000m/h.</desc>
<speed>0.000000</speed>
</trkpt>
<trkpt lat="44.643539" lon="33.827919">
<ele>129.369263</ele>
<time>2011-10-10T13:22:08Z</time>
<desc>lat.=44.643539, lon.=33.827919, Alt.=129.369263m. Speed=0.000000m/h.</desc>
<speed>0.000000</speed>
</trkpt>
<trkpt lat="44.643539" lon="33.827919">
<ele>129.388794</ele>
<time>2011-10-10T13:22:13Z</time>
<desc>lat.=44.643539, lon.=33.827919, Alt.=129.388794m. Speed=0.036000m/h.</desc>
<speed>0.010000</speed>
</trkpt>
<trkpt lat="44.643539" lon="33.827919">
<ele>129.392700</ele>
<time>2011-10-10T13:22:18Z</time>
<desc>lat.=44.643539, lon.=33.827919, Alt.=129.392700m. Speed=0.000000m/h.</desc>
<speed>0.000000</speed>
</trkpt>
<trkpt lat="44.643539" lon="33.827919">
<ele>129.400513</ele>
<time>2011-10-10T13:22:23Z</time>
<desc>lat.=44.643539, lon.=33.827919, Alt.=129.400513m. Speed=0.000000m/h.</desc>
<speed>0.000000</speed>
</trkpt>
<trkpt lat="44.643539" lon="33.827919">
<ele>129.400513</ele>
<time>2011-10-10T13:22:28Z</time>
<desc>lat.=44.643539, lon.=33.827919, Alt.=129.400513m. Speed=0.000000m/h.</desc>
<speed>0.000000</speed>
</trkpt>
<trkpt lat="44.643539" lon="33.827919">
<ele>129.392700</ele>
<time>2011-10-10T13:22:33Z</time>
<desc>lat.=44.643539, lon.=33.827919, Alt.=129.392700m. Speed=0.036000m/h.</desc>
<speed>0.010000</speed>
</trkpt>
<trkpt lat="44.643539" lon="33.827919">
<ele>129.392700</ele>
<time>2011-10-10T13:22:38Z</time>
<desc>lat.=44.643539, lon.=33.827919, Alt.=129.392700m. Speed=0.036000m/h.</desc>
<speed>0.010000</speed>
</trkpt>
<trkpt lat="44.643539" lon="33.827919">
<ele>129.384888</ele>
<time>2011-10-10T13:22:43Z</time>
<desc>lat.=44.643539, lon.=33.827919, Alt.=129.384888m. Speed=0.000000m/h.</desc>
<speed>0.000000</speed>
</trkpt>
<trkpt lat="44.643539" lon="33.827919">
<ele>129.380981</ele>
<time>2011-10-10T13:22:48Z</time>
<desc>lat.=44.643539, lon.=33.827919, Alt.=129.380981m. Speed=0.000000m/h.</desc>
<speed>0.000000</speed>
</trkpt>
<trkpt lat="44.643539" lon="33.827919">
<ele>129.388794</ele>
<time>2011-10-10T13:22:53Z</time>
<desc>lat.=44.643539, lon.=33.827919, Alt.=129.388794m. Speed=0.036000m/h.</desc>
<speed>0.010000</speed>
</trkpt>
<trkpt lat="44.643539" lon="33.827919">
<ele>129.388794</ele>
<time>2011-10-10T13:22:58Z</time>
<desc>lat.=44.643539, lon.=33.827919, Alt.=129.388794m. Speed=0.036000m/h.</desc>
<speed>0.010000</speed>
</trkpt>
<trkpt lat="44.643536" lon="33.827919">
<ele>129.392700</ele>
<time>2011-10-10T13:23:03Z</time>
<desc>lat.=44.643536, lon.=33.827919, Alt.=129.392700m. Speed=0.000000m/h.</desc>
<speed>0.000000</speed>
</trkpt>
<trkpt lat="44.643536" lon="33.827919">
<ele>129.388794</ele>
<time>2011-10-10T13:23:08Z</time>
<desc>lat.=44.643536, lon.=33.827919, Alt.=129.388794m. Speed=0.000000m/h.</desc>
<speed>0.000000</speed>
</trkpt>
<trkpt lat="44.643536" lon="33.827919">
<ele>129.380981</ele>
<time>2011-10-10T13:23:13Z</time>
<desc>lat.=44.643536, lon.=33.827919, Alt.=129.380981m. Speed=0.000000m/h.</desc>
<speed>0.000000</speed>
</trkpt>
<trkpt lat="44.643536" lon="33.827919">
<ele>129.373169</ele>
<time>2011-10-10T13:23:18Z</time>
<desc>lat.=44.643536, lon.=33.827919, Alt.=129.373169m. Speed=0.000000m/h.</desc>
<speed>0.000000</speed>
</trkpt>
<trkpt lat="44.643536" lon="33.827919">
<ele>129.365356</ele>
<time>2011-10-10T13:23:23Z</time>
<desc>lat.=44.643536, lon.=33.827919, Alt.=129.365356m. Speed=0.036000m/h.</desc>
<speed>0.010000</speed>
</trkpt>
<trkpt lat="44.643536" lon="33.827919">
<ele>129.361450</ele>
<time>2011-10-10T13:23:28Z</time>
<desc>lat.=44.643536, lon.=33.827919, Alt.=129.361450m. Speed=0.000000m/h.</desc>
<speed>0.000000</speed>
</trkpt>
<trkpt lat="44.643536" lon="33.827919">
<ele>129.353638</ele>
<time>2011-10-10T13:23:33Z</time>
<desc>lat.=44.643536, lon.=33.827919, Alt.=129.353638m. Speed=0.000000m/h.</desc>
<speed>0.000000</speed>
</trkpt>
<trkpt lat="44.643536" lon="33.827919">
<ele>129.349731</ele>
<time>2011-10-10T13:23:38Z</time>
<desc>lat.=44.643536, lon.=33.827919, Alt.=129.349731m. Speed=0.000000m/h.</desc>
<speed>0.000000</speed>
</trkpt>
<trkpt lat="44.643536" lon="33.827919">
<ele>129.341919</ele>
<time>2011-10-10T13:23:43Z</time>
<desc>lat.=44.643536, lon.=33.827919, Alt.=129.341919m. Speed=0.036000m/h.</desc>
<speed>0.010000</speed>
</trkpt>
<trkpt lat="44.643536" lon="33.827919">
<ele>129.330200</ele>
<time>2011-10-10T13:23:48Z</time>
<desc>lat.=44.643536, lon.=33.827919, Alt.=129.330200m. Speed=0.072000m/h.</desc>
<speed>0.020000</speed>
</trkpt>
<trkpt lat="44.643536" lon="33.827919">
<ele>129.322388</ele>
<time>2011-10-10T13:23:53Z</time>
<desc>lat.=44.643536, lon.=33.827919, Alt.=129.322388m. Speed=0.036000m/h.</desc>
<speed>0.010000</speed>
</trkpt>
<trkpt lat="44.643536" lon="33.827919">
<ele>129.322388</ele>
<time>2011-10-10T13:23:58Z</time>
<desc>lat.=44.643536, lon.=33.827919, Alt.=129.322388m. Speed=0.000000m/h.</desc>
<speed>0.000000</speed>
</trkpt>
<trkpt lat="44.643536" lon="33.827919">
<ele>129.318481</ele>
<time>2011-10-10T13:24:03Z</time>
<desc>lat.=44.643536, lon.=33.827919, Alt.=129.318481m. Speed=0.000000m/h.</desc>
<speed>0.000000</speed>
</trkpt>
<trkpt lat="44.643536" lon="33.827919">
<ele>129.314575</ele>
<time>2011-10-10T13:24:08Z</time>
<desc>lat.=44.643536, lon.=33.827919, Alt.=129.314575m. Speed=0.072000m/h.</desc>
<speed>0.020000</speed>
</trkpt>
<trkpt lat="44.643536" lon="33.827919">
<ele>129.318481</ele>
<time>2011-10-10T13:24:13Z</time>
<desc>lat.=44.643536, lon.=33.827919, Alt.=129.318481m. Speed=0.000000m/h.</desc>
<speed>0.000000</speed>
</trkpt>
<trkpt lat="44.643536" lon="33.827919">
<ele>129.318481</ele>
<time>2011-10-10T13:24:18Z</time>
<desc>lat.=44.643536, lon.=33.827919, Alt.=129.318481m. Speed=0.000000m/h.</desc>
<speed>0.000000</speed>
</trkpt>
<trkpt lat="44.643536" lon="33.827919">
<ele>129.318481</ele>
<time>2011-10-10T13:24:23Z</time>
<desc>lat.=44.643536, lon.=33.827919, Alt.=129.318481m. Speed=0.000000m/h.</desc>
<speed>0.000000</speed>
</trkpt>
<trkpt lat="44.643536" lon="33.827919">
<ele>129.322388</ele>
<time>2011-10-10T13:24:28Z</time>
<desc>lat.=44.643536, lon.=33.827919, Alt.=129.322388m. Speed=0.000000m/h.</desc>
<speed>0.000000</speed>
</trkpt>
<trkpt lat="44.643536" lon="33.827919">
<ele>129.326294</ele>
<time>2011-10-10T13:24:33Z</time>
<desc>lat.=44.643536, lon.=33.827919, Alt.=129.326294m. Speed=0.036000m/h.</desc>
<speed>0.010000</speed>
</trkpt>
<trkpt lat="44.643536" lon="33.827919">
<ele>129.326294</ele>
<time>2011-10-10T13:24:38Z</time>
<desc>lat.=44.643536, lon.=33.827919, Alt.=129.326294m. Speed=0.000000m/h.</desc>
<speed>0.000000</speed>
</trkpt>
<trkpt lat="44.643536" lon="33.827919">
<ele>129.322388</ele>
<time>2011-10-10T13:24:43Z</time>
<desc>lat.=44.643536, lon.=33.827919, Alt.=129.322388m. Speed=0.504000m/h.</desc>
<speed>0.140000</speed>
</trkpt>
<trkpt lat="44.643536" lon="33.827919">
<ele>129.283325</ele>
<time>2011-10-10T13:24:48Z</time>
<desc>lat.=44.643536, lon.=33.827919, Alt.=129.283325m. Speed=0.000000m/h.</desc>
<speed>0.000000</speed>
</trkpt>
<trkpt lat="44.643536" lon="33.827919">
<ele>129.283325</ele>
<time>2011-10-10T13:24:53Z</time>
<desc>lat.=44.643536, lon.=33.827919, Alt.=129.283325m. Speed=0.036000m/h.</desc>
<speed>0.010000</speed>
</trkpt>
<trkpt lat="44.643536" lon="33.827919">
<ele>129.287231</ele>
<time>2011-10-10T13:24:58Z</time>
<desc>lat.=44.643536, lon.=33.827919, Alt.=129.287231m. Speed=0.000000m/h.</desc>
<speed>0.000000</speed>
</trkpt>
<trkpt lat="44.643536" lon="33.827915">
<ele>129.287231</ele>
<time>2011-10-10T13:25:03Z</time>
<desc>lat.=44.643536, lon.=33.827915, Alt.=129.287231m. Speed=0.108000m/h.</desc>
<speed>0.030000</speed>
</trkpt>
<trkpt lat="44.643536" lon="33.827915">
<ele>129.287231</ele>
<time>2011-10-10T13:25:08Z</time>
<desc>lat.=44.643536, lon.=33.827915, Alt.=129.287231m. Speed=0.000000m/h.</desc>
<speed>0.000000</speed>
</trkpt>
<trkpt lat="44.643536" lon="33.827915">
<ele>129.287231</ele>
<time>2011-10-10T13:25:13Z</time>
<desc>lat.=44.643536, lon.=33.827915, Alt.=129.287231m. Speed=0.072000m/h.</desc>
<speed>0.020000</speed>
</trkpt>
<trkpt lat="44.643536" lon="33.827915">
<ele>129.295044</ele>
<time>2011-10-10T13:25:18Z</time>
<desc>lat.=44.643536, lon.=33.827915, Alt.=129.295044m. Speed=0.180000m/h.</desc>
<speed>0.050000</speed>
</trkpt>
<trkpt lat="44.643536" lon="33.827915">
<ele>129.287231</ele>
<time>2011-10-10T13:25:23Z</time>
<desc>lat.=44.643536, lon.=33.827915, Alt.=129.287231m. Speed=0.180000m/h.</desc>
<speed>0.050000</speed>
</trkpt>
<trkpt lat="44.643536" lon="33.827915">
<ele>129.291138</ele>
<time>2011-10-10T13:25:28Z</time>
<desc>lat.=44.643536, lon.=33.827915, Alt.=129.291138m. Speed=0.036000m/h.</desc>
<speed>0.010000</speed>
</trkpt>
<trkpt lat="44.643536" lon="33.827915">
<ele>129.291138</ele>
<time>2011-10-10T13:25:33Z</time>
<desc>lat.=44.643536, lon.=33.827915, Alt.=129.291138m. Speed=0.000000m/h.</desc>
<speed>0.000000</speed>
</trkpt>
<trkpt lat="44.643536" lon="33.827915">
<ele>129.279419</ele>
<time>2011-10-10T13:25:38Z</time>
<desc>lat.=44.643536, lon.=33.827915, Alt.=129.279419m. Speed=0.000000m/h.</desc>
<speed>0.000000</speed>
</trkpt>
<trkpt lat="44.643536" lon="33.827915">
<ele>129.267700</ele>
<time>2011-10-10T13:25:43Z</time>
<desc>lat.=44.643536, lon.=33.827915, Alt.=129.267700m. Speed=0.000000m/h.</desc>
<speed>0.000000</speed>
</trkpt>
<trkpt lat="44.643536" lon="33.827915">
<ele>129.259888</ele>
<time>2011-10-10T13:25:48Z</time>
<desc>lat.=44.643536, lon.=33.827915, Alt.=129.259888m. Speed=0.036000m/h.</desc>
<speed>0.010000</speed>
</trkpt>
<trkpt lat="44.643536" lon="33.827915">
<ele>129.252075</ele>
<time>2011-10-10T13:25:53Z</time>
<desc>lat.=44.643536, lon.=33.827915, Alt.=129.252075m. Speed=0.036000m/h.</desc>
<speed>0.010000</speed>
</trkpt>
<trkpt lat="44.643536" lon="33.827915">
<ele>129.252075</ele>
<time>2011-10-10T13:25:58Z</time>
<desc>lat.=44.643536, lon.=33.827915, Alt.=129.252075m. Speed=0.000000m/h.</desc>
<speed>0.000000</speed>
</trkpt>
<trkpt lat="44.643536" lon="33.827915">
<ele>129.240356</ele>
<time>2011-10-10T13:26:03Z</time>
<desc>lat.=44.643536, lon.=33.827915, Alt.=129.240356m. Speed=0.000000m/h.</desc>
<speed>0.000000</speed>
</trkpt>
<trkpt lat="44.643536" lon="33.827915">
<ele>129.244263</ele>
<time>2011-10-10T13:26:08Z</time>
<desc>lat.=44.643536, lon.=33.827915, Alt.=129.244263m. Speed=0.000000m/h.</desc>
<speed>0.000000</speed>
</trkpt>
<trkpt lat="44.643536" lon="33.827915">
<ele>129.244263</ele>
<time>2011-10-10T13:26:13Z</time>
<desc>lat.=44.643536, lon.=33.827915, Alt.=129.244263m. Speed=0.000000m/h.</desc>
<speed>0.000000</speed>
</trkpt>
<trkpt lat="44.643536" lon="33.827915">
<ele>129.252075</ele>
<time>2011-10-10T13:26:18Z</time>
<desc>lat.=44.643536, lon.=33.827915, Alt.=129.252075m. Speed=0.000000m/h.</desc>
<speed>0.000000</speed>
</trkpt>
<trkpt lat="44.643536" lon="33.827915">
<ele>129.267700</ele>
<time>2011-10-10T13:26:23Z</time>
<desc>lat.=44.643536, lon.=33.827915, Alt.=129.267700m. Speed=0.036000m/h.</desc>
<speed>0.010000</speed>
</trkpt>
<trkpt lat="44.643536" lon="33.827915">
<ele>129.279419</ele>
<time>2011-10-10T13:26:28Z</time>
<desc>lat.=44.643536, lon.=33.827915, Alt.=129.279419m. Speed=0.036000m/h.</desc>
<speed>0.010000</speed>
</trkpt>
<trkpt lat="44.643536" lon="33.827915">
<ele>129.287231</ele>
<time>2011-10-10T13:26:33Z</time>
<desc>lat.=44.643536, lon.=33.827915, Alt.=129.287231m. Speed=0.000000m/h.</desc>
<speed>0.000000</speed>
</trkpt>
<trkpt lat="44.643536" lon="33.827915">
<ele>129.287231</ele>
<time>2011-10-10T13:26:38Z</time>
<desc>lat.=44.643536, lon.=33.827915, Alt.=129.287231m. Speed=0.000000m/h.</desc>
<speed>0.000000</speed>
</trkpt>
<trkpt lat="44.643536" lon="33.827915">
<ele>129.291138</ele>
<time>2011-10-10T13:26:43Z</time>
<desc>lat.=44.643536, lon.=33.827915, Alt.=129.291138m. Speed=0.072000m/h.</desc>
<speed>0.020000</speed>
</trkpt>
<trkpt lat="44.643536" lon="33.827915">
<ele>129.291138</ele>
<time>2011-10-10T13:26:48Z</time>
<desc>lat.=44.643536, lon.=33.827915, Alt.=129.291138m. Speed=0.036000m/h.</desc>
<speed>0.010000</speed>
</trkpt>
<trkpt lat="44.643536" lon="33.827915">
<ele>129.291138</ele>
<time>2011-10-10T13:26:53Z</time>
<desc>lat.=44.643536, lon.=33.827915, Alt.=129.291138m. Speed=0.036000m/h.</desc>
<speed>0.010000</speed>
</trkpt>
<trkpt lat="44.643536" lon="33.827915">
<ele>129.291138</ele>
<time>2011-10-10T13:26:58Z</time>
<desc>lat.=44.643536, lon.=33.827915, Alt.=129.291138m. Speed=0.072000m/h.</desc>
<speed>0.020000</speed>
</trkpt>
<trkpt lat="44.643536" lon="33.827915">
<ele>129.287231</ele>
<time>2011-10-10T13:27:03Z</time>
<desc>lat.=44.643536, lon.=33.827915, Alt.=129.287231m. Speed=0.000000m/h.</desc>
<speed>0.000000</speed>
</trkpt>
<trkpt lat="44.643536" lon="33.827915">
<ele>129.291138</ele>
<time>2011-10-10T13:27:08Z</time>
<desc>lat.=44.643536, lon.=33.827915, Alt.=129.291138m. Speed=0.324000m/h.</desc>
<speed>0.090000</speed>
</trkpt>
<trkpt lat="44.643543" lon="33.827904">
<ele>130.084106</ele>
<time>2011-10-10T13:27:13Z</time>
<desc>lat.=44.643543, lon.=33.827904, Alt.=130.084106m. Speed=2.088000m/h.</desc>
<speed>0.580000</speed>
</trkpt>
<trkpt lat="44.643589" lon="33.827789">
<ele>129.896606</ele>
<time>2011-10-10T13:27:18Z</time>
<desc>lat.=44.643589, lon.=33.827789, Alt.=129.896606m. Speed=13.644000m/h.</desc>
<speed>3.790000</speed>
</trkpt>
<trkpt lat="44.643608" lon="33.827518">
<ele>129.693481</ele>
<time>2011-10-10T13:27:23Z</time>
<desc>lat.=44.643608, lon.=33.827518, Alt.=129.693481m. Speed=17.784000m/h.</desc>
<speed>4.940000</speed>
</trkpt>
<trkpt lat="44.643654" lon="33.827206">
<ele>130.244263</ele>
<time>2011-10-10T13:27:28Z</time>
<desc>lat.=44.643654, lon.=33.827206, Alt.=130.244263m. Speed=20.591999m/h.</desc>
<speed>5.720000</speed>
</trkpt>
<trkpt lat="44.643723" lon="33.826824">
<ele>129.994263</ele>
<time>2011-10-10T13:27:33Z</time>
<desc>lat.=44.643723, lon.=33.826824, Alt.=129.994263m. Speed=24.191999m/h.</desc>
<speed>6.720000</speed>
</trkpt>
<trkpt lat="44.643787" lon="33.826378">
<ele>129.029419</ele>
<time>2011-10-10T13:27:38Z</time>
<desc>lat.=44.643787, lon.=33.826378, Alt.=129.029419m. Speed=27.540001m/h.</desc>
<speed>7.650000</speed>
</trkpt>
<trkpt lat="44.643883" lon="33.825924">
<ele>128.416138</ele>
<time>2011-10-10T13:27:43Z</time>
<desc>lat.=44.643883, lon.=33.825924, Alt.=128.416138m. Speed=24.408001m/h.</desc>
<speed>6.780000</speed>
</trkpt>
<trkpt lat="44.644009" lon="33.825554">
<ele>128.193481</ele>
<time>2011-10-10T13:27:48Z</time>
<desc>lat.=44.644009, lon.=33.825554, Alt.=128.193481m. Speed=24.228001m/h.</desc>
<speed>6.730000</speed>
</trkpt>
<trkpt lat="44.644180" lon="33.825172">
<ele>127.596741</ele>
<time>2011-10-10T13:27:53Z</time>
<desc>lat.=44.644180, lon.=33.825172, Alt.=127.596741m. Speed=26.424000m/h.</desc>
<speed>7.340000</speed>
</trkpt>
<trkpt lat="44.644367" lon="33.824799">
<ele>127.618225</ele>
<time>2011-10-10T13:27:58Z</time>
<desc>lat.=44.644367, lon.=33.824799, Alt.=127.618225m. Speed=25.379999m/h.</desc>
<speed>7.050000</speed>
</trkpt>
<trkpt lat="44.644543" lon="33.824448">
<ele>127.948303</ele>
<time>2011-10-10T13:28:03Z</time>
<desc>lat.=44.644543, lon.=33.824448, Alt.=127.948303m. Speed=23.760000m/h.</desc>
<speed>6.600000</speed>
</trkpt>
<trkpt lat="44.644707" lon="33.824146">
<ele>129.213013</ele>
<time>2011-10-10T13:28:08Z</time>
<desc>lat.=44.644707, lon.=33.824146, Alt.=129.213013m. Speed=20.520000m/h.</desc>
<speed>5.700000</speed>
</trkpt>
<trkpt lat="44.644894" lon="33.823921">
<ele>130.849731</ele>
<time>2011-10-10T13:28:13Z</time>
<desc>lat.=44.644894, lon.=33.823921, Alt.=130.849731m. Speed=20.124001m/h.</desc>
<speed>5.590000</speed>
</trkpt>
<trkpt lat="44.645100" lon="33.823738">
<ele>132.611450</ele>
<time>2011-10-10T13:28:18Z</time>
<desc>lat.=44.645100, lon.=33.823738, Alt.=132.611450m. Speed=18.864000m/h.</desc>
<speed>5.240000</speed>
</trkpt>
<trkpt lat="44.645294" lon="33.823532">
<ele>133.931763</ele>
<time>2011-10-10T13:28:23Z</time>
<desc>lat.=44.645294, lon.=33.823532, Alt.=133.931763m. Speed=20.664000m/h.</desc>
<speed>5.740000</speed>
</trkpt>
<trkpt lat="44.645496" lon="33.823257">
<ele>132.752075</ele>
<time>2011-10-10T13:28:28Z</time>
<desc>lat.=44.645496, lon.=33.823257, Alt.=132.752075m. Speed=23.364000m/h.</desc>
<speed>6.490000</speed>
</trkpt>
<trkpt lat="44.645718" lon="33.822926">
<ele>132.287231</ele>
<time>2011-10-10T13:28:33Z</time>
<desc>lat.=44.645718, lon.=33.822926, Alt.=132.287231m. Speed=24.695999m/h.</desc>
<speed>6.860000</speed>
</trkpt>
<trkpt lat="44.645931" lon="33.822586">
<ele>130.658325</ele>
<time>2011-10-10T13:28:38Z</time>
<desc>lat.=44.645931, lon.=33.822586, Alt.=130.658325m. Speed=28.332001m/h.</desc>
<speed>7.870000</speed>
</trkpt>
<trkpt lat="44.646198" lon="33.822189">
<ele>128.642700</ele>
<time>2011-10-10T13:28:43Z</time>
<desc>lat.=44.646198, lon.=33.822189, Alt.=128.642700m. Speed=32.400002m/h.</desc>
<speed>9.000000</speed>
</trkpt>
<trkpt lat="44.646515" lon="33.821835">
<ele>127.844788</ele>
<time>2011-10-10T13:28:48Z</time>
<desc>lat.=44.646515, lon.=33.821835, Alt.=127.844788m. Speed=31.356001m/h.</desc>
<speed>8.710000</speed>
</trkpt>
<trkpt lat="44.646816" lon="33.821541">
<ele>127.297913</ele>
<time>2011-10-10T13:28:53Z</time>
<desc>lat.=44.646816, lon.=33.821541, Alt.=127.297913m. Speed=26.964001m/h.</desc>
<speed>7.490000</speed>
</trkpt>
<trkpt lat="44.647045" lon="33.821209">
<ele>126.557678</ele>
<time>2011-10-10T13:28:58Z</time>
<desc>lat.=44.647045, lon.=33.821209, Alt.=126.557678m. Speed=25.164000m/h.</desc>
<speed>6.990000</speed>
</trkpt>
<trkpt lat="44.647232" lon="33.820808">
<ele>125.877991</ele>
<time>2011-10-10T13:29:03Z</time>
<desc>lat.=44.647232, lon.=33.820808, Alt.=125.877991m. Speed=27.576000m/h.</desc>
<speed>7.660000</speed>
</trkpt>
<trkpt lat="44.647427" lon="33.820408">
<ele>126.014709</ele>
<time>2011-10-10T13:29:08Z</time>
<desc>lat.=44.647427, lon.=33.820408, Alt.=126.014709m. Speed=25.271999m/h.</desc>
<speed>7.020000</speed>
</trkpt>
<trkpt lat="44.647560" lon="33.820034">
<ele>126.719788</ele>
<time>2011-10-10T13:29:13Z</time>
<desc>lat.=44.647560, lon.=33.820034, Alt.=126.719788m. Speed=22.823999m/h.</desc>
<speed>6.340000</speed>
</trkpt>
<trkpt lat="44.647663" lon="33.819656">
<ele>126.829163</ele>
<time>2011-10-10T13:29:18Z</time>
<desc>lat.=44.647663, lon.=33.819656, Alt.=126.829163m. Speed=22.068001m/h.</desc>
<speed>6.130000</speed>
</trkpt>
<trkpt lat="44.647736" lon="33.819294">
<ele>127.592834</ele>
<time>2011-10-10T13:29:23Z</time>
<desc>lat.=44.647736, lon.=33.819294, Alt.=127.592834m. Speed=21.059999m/h.</desc>
<speed>5.850000</speed>
</trkpt>
<trkpt lat="44.647827" lon="33.818954">
<ele>128.779419</ele>
<time>2011-10-10T13:29:28Z</time>
<desc>lat.=44.647827, lon.=33.818954, Alt.=128.779419m. Speed=20.879999m/h.</desc>
<speed>5.800000</speed>
</trkpt>
<trkpt lat="44.647949" lon="33.818619">
<ele>130.123169</ele>
<time>2011-10-10T13:29:33Z</time>
<desc>lat.=44.647949, lon.=33.818619, Alt.=130.123169m. Speed=21.420000m/h.</desc>
<speed>5.950000</speed>
</trkpt>
<trkpt lat="44.648071" lon="33.818302">
<ele>130.369263</ele>
<time>2011-10-10T13:29:38Z</time>
<desc>lat.=44.648071, lon.=33.818302, Alt.=130.369263m. Speed=21.240000m/h.</desc>
<speed>5.900000</speed>
</trkpt>
<trkpt lat="44.648247" lon="33.818005">
<ele>130.025513</ele>
<time>2011-10-10T13:29:43Z</time>
<desc>lat.=44.648247, lon.=33.818005, Alt.=130.025513m. Speed=22.823999m/h.</desc>
<speed>6.340000</speed>
</trkpt>
<trkpt lat="44.648468" lon="33.817692">
<ele>130.283325</ele>
<time>2011-10-10T13:29:48Z</time>
<desc>lat.=44.648468, lon.=33.817692, Alt.=130.283325m. Speed=26.459999m/h.</desc>
<speed>7.350000</speed>
</trkpt>
<trkpt lat="44.648685" lon="33.817368">
<ele>131.197388</ele>
<time>2011-10-10T13:29:53Z</time>
<desc>lat.=44.648685, lon.=33.817368, Alt.=131.197388m. Speed=22.284000m/h.</desc>
<speed>6.190000</speed>
</trkpt>
<trkpt lat="44.648846" lon="33.817116">
<ele>132.084106</ele>
<time>2011-10-10T13:29:58Z</time>
<desc>lat.=44.648846, lon.=33.817116, Alt.=132.084106m. Speed=21.851999m/h.</desc>
<speed>6.070000</speed>
</trkpt>
<trkpt lat="44.649044" lon="33.816837">
<ele>132.021606</ele>
<time>2011-10-10T13:30:03Z</time>
<desc>lat.=44.649044, lon.=33.816837, Alt.=132.021606m. Speed=23.148001m/h.</desc>
<speed>6.430000</speed>
</trkpt>
<trkpt lat="44.649261" lon="33.816525">
<ele>131.439575</ele>
<time>2011-10-10T13:30:08Z</time>
<desc>lat.=44.649261, lon.=33.816525, Alt.=131.439575m. Speed=25.056000m/h.</desc>
<speed>6.960000</speed>
</trkpt>
<trkpt lat="44.649513" lon="33.816219">
<ele>131.420044</ele>
<time>2011-10-10T13:30:13Z</time>
<desc>lat.=44.649513, lon.=33.816219, Alt.=131.420044m. Speed=29.016001m/h.</desc>
<speed>8.060000</speed>
</trkpt>
<trkpt lat="44.649796" lon="33.815884">
<ele>129.939575</ele>
<time>2011-10-10T13:30:18Z</time>
<desc>lat.=44.649796, lon.=33.815884, Alt.=129.939575m. Speed=29.771999m/h.</desc>
<speed>8.270000</speed>
</trkpt>
<trkpt lat="44.650082" lon="33.815495">
<ele>128.580200</ele>
<time>2011-10-10T13:30:23Z</time>
<desc>lat.=44.650082, lon.=33.815495, Alt.=128.580200m. Speed=31.392000m/h.</desc>
<speed>8.720000</speed>
</trkpt>
<trkpt lat="44.650417" lon="33.815117">
<ele>126.247131</ele>
<time>2011-10-10T13:30:28Z</time>
<desc>lat.=44.650417, lon.=33.815117, Alt.=126.247131m. Speed=31.823999m/h.</desc>
<speed>8.840000</speed>
</trkpt>
<trkpt lat="44.650734" lon="33.814789">
<ele>126.118225</ele>
<time>2011-10-10T13:30:33Z</time>
<desc>lat.=44.650734, lon.=33.814789, Alt.=126.118225m. Speed=29.988001m/h.</desc>
<speed>8.330000</speed>
</trkpt>
<trkpt lat="44.651024" lon="33.814465">
<ele>125.770569</ele>
<time>2011-10-10T13:30:38Z</time>
<desc>lat.=44.651024, lon.=33.814465, Alt.=125.770569m. Speed=28.296000m/h.</desc>
<speed>7.860000</speed>
</trkpt>
<trkpt lat="44.651287" lon="33.814152">
<ele>123.368225</ele>
<time>2011-10-10T13:30:43Z</time>
<desc>lat.=44.651287, lon.=33.814152, Alt.=123.368225m. Speed=28.152000m/h.</desc>
<speed>7.820000</speed>
</trkpt>
<trkpt lat="44.651562" lon="33.813862">
<ele>123.563538</ele>
<time>2011-10-10T13:30:48Z</time>
<desc>lat.=44.651562, lon.=33.813862, Alt.=123.563538m. Speed=26.927999m/h.</desc>
<speed>7.480000</speed>
</trkpt>
<trkpt lat="44.651844" lon="33.813599">
<ele>123.432678</ele>
<time>2011-10-10T13:30:53Z</time>
<desc>lat.=44.651844, lon.=33.813599, Alt.=123.432678m. Speed=25.452000m/h.</desc>
<speed>7.070000</speed>
</trkpt>
<trkpt lat="44.652050" lon="33.813232">
<ele>122.012756</ele>
<time>2011-10-10T13:30:58Z</time>
<desc>lat.=44.652050, lon.=33.813232, Alt.=122.012756m. Speed=28.799999m/h.</desc>
<speed>8.000000</speed>
</trkpt>
<trkpt lat="44.652271" lon="33.812798">
<ele>120.745178</ele>
<time>2011-10-10T13:31:03Z</time>
<desc>lat.=44.652271, lon.=33.812798, Alt.=120.745178m. Speed=31.247999m/h.</desc>
<speed>8.680000</speed>
</trkpt>
<trkpt lat="44.652485" lon="33.812309">
<ele>118.950256</ele>
<time>2011-10-10T13:31:08Z</time>
<desc>lat.=44.652485, lon.=33.812309, Alt.=118.950256m. Speed=32.976002m/h.</desc>
<speed>9.160000</speed>
</trkpt>
<trkpt lat="44.652695" lon="33.811798">
<ele>117.692444</ele>
<time>2011-10-10T13:31:13Z</time>
<desc>lat.=44.652695, lon.=33.811798, Alt.=117.692444m. Speed=32.363998m/h.</desc>
<speed>8.990000</speed>
</trkpt>
<trkpt lat="44.652924" lon="33.811337">
<ele>117.729553</ele>
<time>2011-10-10T13:31:18Z</time>
<desc>lat.=44.652924, lon.=33.811337, Alt.=117.729553m. Speed=31.716000m/h.</desc>
<speed>8.810000</speed>
</trkpt>
<trkpt lat="44.653126" lon="33.810936">
<ele>118.153381</ele>
<time>2011-10-10T13:31:23Z</time>
<desc>lat.=44.653126, lon.=33.810936, Alt.=118.153381m. Speed=23.940001m/h.</desc>
<speed>6.650000</speed>
</trkpt>
<trkpt lat="44.653297" lon="33.810600">
<ele>119.581116</ele>
<time>2011-10-10T13:31:28Z</time>
<desc>lat.=44.653297, lon.=33.810600, Alt.=119.581116m. Speed=23.327999m/h.</desc>
<speed>6.480000</speed>
</trkpt>
<trkpt lat="44.653450" lon="33.810291">
<ele>122.635803</ele>
<time>2011-10-10T13:31:33Z</time>
<desc>lat.=44.653450, lon.=33.810291, Alt.=122.635803m. Speed=21.204000m/h.</desc>
<speed>5.890000</speed>
</trkpt>
<trkpt lat="44.653564" lon="33.809998">
<ele>125.364319</ele>
<time>2011-10-10T13:31:38Z</time>
<desc>lat.=44.653564, lon.=33.809998, Alt.=125.364319m. Speed=19.511999m/h.</desc>
<speed>5.420000</speed>
</trkpt>
<trkpt lat="44.653698" lon="33.809650">
<ele>124.272522</ele>
<time>2011-10-10T13:31:43Z</time>
<desc>lat.=44.653698, lon.=33.809650, Alt.=124.272522m. Speed=21.420000m/h.</desc>
<speed>5.950000</speed>
</trkpt>
<trkpt lat="44.653820" lon="33.809265">
<ele>123.235413</ele>
<time>2011-10-10T13:31:48Z</time>
<desc>lat.=44.653820, lon.=33.809265, Alt.=123.235413m. Speed=25.164000m/h.</desc>
<speed>6.990000</speed>
</trkpt>
<trkpt lat="44.654011" lon="33.808880">
<ele>122.401428</ele>
<time>2011-10-10T13:31:53Z</time>
<desc>lat.=44.654011, lon.=33.808880, Alt.=122.401428m. Speed=26.280001m/h.</desc>
<speed>7.300000</speed>
</trkpt>
<trkpt lat="44.654224" lon="33.808548">
<ele>122.002991</ele>
<time>2011-10-10T13:31:58Z</time>
<desc>lat.=44.654224, lon.=33.808548, Alt.=122.002991m. Speed=24.768000m/h.</desc>
<speed>6.880000</speed>
</trkpt>
<trkpt lat="44.654430" lon="33.808151">
<ele>121.407288</ele>
<time>2011-10-10T13:32:03Z</time>
<desc>lat.=44.654430, lon.=33.808151, Alt.=121.407288m. Speed=26.208000m/h.</desc>
<speed>7.280000</speed>
</trkpt>
<trkpt lat="44.654636" lon="33.807762">
<ele>120.321350</ele>
<time>2011-10-10T13:32:08Z</time>
<desc>lat.=44.654636, lon.=33.807762, Alt.=120.321350m. Speed=28.296000m/h.</desc>
<speed>7.860000</speed>
</trkpt>
<trkpt lat="44.654888" lon="33.807411">
<ele>118.385803</ele>
<time>2011-10-10T13:32:13Z</time>
<desc>lat.=44.654888, lon.=33.807411, Alt.=118.385803m. Speed=25.848000m/h.</desc>
<speed>7.180000</speed>
</trkpt>
<trkpt lat="44.655098" lon="33.807056">
<ele>117.213928</ele>
<time>2011-10-10T13:32:18Z</time>
<desc>lat.=44.655098, lon.=33.807056, Alt.=117.213928m. Speed=26.063999m/h.</desc>
<speed>7.240000</speed>
</trkpt>
<trkpt lat="44.655273" lon="33.806675">
<ele>116.948303</ele>
<time>2011-10-10T13:32:23Z</time>
<desc>lat.=44.655273, lon.=33.806675, Alt.=116.948303m. Speed=24.732000m/h.</desc>
<speed>6.870000</speed>
</trkpt>
<trkpt lat="44.655487" lon="33.806320">
<ele>116.583069</ele>
<time>2011-10-10T13:32:28Z</time>
<desc>lat.=44.655487, lon.=33.806320, Alt.=116.583069m. Speed=25.955999m/h.</desc>
<speed>7.210000</speed>
</trkpt>
<trkpt lat="44.655716" lon="33.805996">
<ele>115.551819</ele>
<time>2011-10-10T13:32:33Z</time>
<desc>lat.=44.655716, lon.=33.805996, Alt.=115.551819m. Speed=25.416000m/h.</desc>
<speed>7.060000</speed>
</trkpt>
<trkpt lat="44.655960" lon="33.805637">
<ele>114.518616</ele>
<time>2011-10-10T13:32:38Z</time>
<desc>lat.=44.655960, lon.=33.805637, Alt.=114.518616m. Speed=27.431999m/h.</desc>
<speed>7.620000</speed>
</trkpt>
<trkpt lat="44.656193" lon="33.805248">
<ele>113.602600</ele>
<time>2011-10-10T13:32:43Z</time>
<desc>lat.=44.656193, lon.=33.805248, Alt.=113.602600m. Speed=26.604000m/h.</desc>
<speed>7.390000</speed>
</trkpt>
<trkpt lat="44.656384" lon="33.804848">
<ele>111.727600</ele>
<time>2011-10-10T13:32:48Z</time>
<desc>lat.=44.656384, lon.=33.804848, Alt.=111.727600m. Speed=25.308001m/h.</desc>
<speed>7.030000</speed>
</trkpt>
<trkpt lat="44.656521" lon="33.804447">
<ele>110.467834</ele>
<time>2011-10-10T13:32:53Z</time>
<desc>lat.=44.656521, lon.=33.804447, Alt.=110.467834m. Speed=24.875999m/h.</desc>
<speed>6.910000</speed>
</trkpt>
<trkpt lat="44.656643" lon="33.804047">
<ele>109.569397</ele>
<time>2011-10-10T13:32:58Z</time>
<desc>lat.=44.656643, lon.=33.804047, Alt.=109.569397m. Speed=24.444000m/h.</desc>
<speed>6.790000</speed>
</trkpt>
<trkpt lat="44.656788" lon="33.803753">
<ele>109.920959</ele>
<time>2011-10-10T13:33:03Z</time>
<desc>lat.=44.656788, lon.=33.803753, Alt.=109.920959m. Speed=13.644000m/h.</desc>
<speed>3.790000</speed>
</trkpt>
<trkpt lat="44.656803" lon="33.803688">
<ele>109.467834</ele>
<time>2011-10-10T13:33:08Z</time>
<desc>lat.=44.656803, lon.=33.803688, Alt.=109.467834m. Speed=0.432000m/h.</desc>
<speed>0.120000</speed>
</trkpt>
<trkpt lat="44.656803" lon="33.803688">
<ele>109.274475</ele>
<time>2011-10-10T13:33:13Z</time>
<desc>lat.=44.656803, lon.=33.803688, Alt.=109.274475m. Speed=0.144000m/h.</desc>
<speed>0.040000</speed>
</trkpt>
<trkpt lat="44.656803" lon="33.803688">
<ele>109.251038</ele>
<time>2011-10-10T13:33:18Z</time>
<desc>lat.=44.656803, lon.=33.803688, Alt.=109.251038m. Speed=0.072000m/h.</desc>
<speed>0.020000</speed>
</trkpt>
<trkpt lat="44.656799" lon="33.803688">
<ele>109.303772</ele>
<time>2011-10-10T13:33:23Z</time>
<desc>lat.=44.656799, lon.=33.803688, Alt.=109.303772m. Speed=0.180000m/h.</desc>
<speed>0.050000</speed>
</trkpt>
<trkpt lat="44.656799" lon="33.803692">
<ele>109.395569</ele>
<time>2011-10-10T13:33:28Z</time>
<desc>lat.=44.656799, lon.=33.803692, Alt.=109.395569m. Speed=0.036000m/h.</desc>
<speed>0.010000</speed>
</trkpt>
<trkpt lat="44.656803" lon="33.803684">
<ele>109.383850</ele>
<time>2011-10-10T13:33:33Z</time>
<desc>lat.=44.656803, lon.=33.803684, Alt.=109.383850m. Speed=0.216000m/h.</desc>
<speed>0.060000</speed>
</trkpt>
<trkpt lat="44.656803" lon="33.803684">
<ele>109.381897</ele>
<time>2011-10-10T13:33:38Z</time>
<desc>lat.=44.656803, lon.=33.803684, Alt.=109.381897m. Speed=0.252000m/h.</desc>
<speed>0.070000</speed>
</trkpt>
<trkpt lat="44.656799" lon="33.803684">
<ele>109.405334</ele>
<time>2011-10-10T13:33:43Z</time>
<desc>lat.=44.656799, lon.=33.803684, Alt.=109.405334m. Speed=0.144000m/h.</desc>
<speed>0.040000</speed>
</trkpt>
<trkpt lat="44.656799" lon="33.803688">
<ele>109.417053</ele>
<time>2011-10-10T13:33:48Z</time>
<desc>lat.=44.656799, lon.=33.803688, Alt.=109.417053m. Speed=0.144000m/h.</desc>
<speed>0.040000</speed>
</trkpt>
<trkpt lat="44.656799" lon="33.803688">
<ele>109.419006</ele>
<time>2011-10-10T13:33:53Z</time>
<desc>lat.=44.656799, lon.=33.803688, Alt.=109.419006m. Speed=0.000000m/h.</desc>
<speed>0.000000</speed>
</trkpt>
<trkpt lat="44.656799" lon="33.803688">
<ele>109.422913</ele>
<time>2011-10-10T13:33:58Z</time>
<desc>lat.=44.656799, lon.=33.803688, Alt.=109.422913m. Speed=0.000000m/h.</desc>
<speed>0.000000</speed>
</trkpt>
<trkpt lat="44.656799" lon="33.803688">
<ele>109.428772</ele>
<time>2011-10-10T13:34:03Z</time>
<desc>lat.=44.656799, lon.=33.803688, Alt.=109.428772m. Speed=0.036000m/h.</desc>
<speed>0.010000</speed>
</trkpt>
<trkpt lat="44.656799" lon="33.803688">
<ele>109.438538</ele>
<time>2011-10-10T13:34:08Z</time>
<desc>lat.=44.656799, lon.=33.803688, Alt.=109.438538m. Speed=0.072000m/h.</desc>
<speed>0.020000</speed>
</trkpt>
<trkpt lat="44.656799" lon="33.803688">
<ele>109.442444</ele>
<time>2011-10-10T13:34:13Z</time>
<desc>lat.=44.656799, lon.=33.803688, Alt.=109.442444m. Speed=0.036000m/h.</desc>
<speed>0.010000</speed>
</trkpt>
<trkpt lat="44.656799" lon="33.803684">
<ele>109.444397</ele>
<time>2011-10-10T13:34:18Z</time>
<desc>lat.=44.656799, lon.=33.803684, Alt.=109.444397m. Speed=0.000000m/h.</desc>
<speed>0.000000</speed>
</trkpt>
<trkpt lat="44.656799" lon="33.803684">
<ele>109.460022</ele>
<time>2011-10-10T13:34:23Z</time>
<desc>lat.=44.656799, lon.=33.803684, Alt.=109.460022m. Speed=0.072000m/h.</desc>
<speed>0.020000</speed>
</trkpt>
<trkpt lat="44.656799" lon="33.803684">
<ele>109.467834</ele>
<time>2011-10-10T13:34:28Z</time>
<desc>lat.=44.656799, lon.=33.803684, Alt.=109.467834m. Speed=0.036000m/h.</desc>
<speed>0.010000</speed>
</trkpt>
<trkpt lat="44.656799" lon="33.803684">
<ele>109.460022</ele>
<time>2011-10-10T13:34:33Z</time>
<desc>lat.=44.656799, lon.=33.803684, Alt.=109.460022m. Speed=0.000000m/h.</desc>
<speed>0.000000</speed>
</trkpt>
<trkpt lat="44.656799" lon="33.803684">
<ele>109.450256</ele>
<time>2011-10-10T13:34:38Z</time>
<desc>lat.=44.656799, lon.=33.803684, Alt.=109.450256m. Speed=0.036000m/h.</desc>
<speed>0.010000</speed>
</trkpt>
<trkpt lat="44.656799" lon="33.803684">
<ele>109.448303</ele>
<time>2011-10-10T13:34:43Z</time>
<desc>lat.=44.656799, lon.=33.803684, Alt.=109.448303m. Speed=0.000000m/h.</desc>
<speed>0.000000</speed>
</trkpt>
<trkpt lat="44.656799" lon="33.803684">
<ele>109.450256</ele>
<time>2011-10-10T13:34:48Z</time>
<desc>lat.=44.656799, lon.=33.803684, Alt.=109.450256m. Speed=0.036000m/h.</desc>
<speed>0.010000</speed>
</trkpt>
<trkpt lat="44.656799" lon="33.803684">
<ele>109.461975</ele>
<time>2011-10-10T13:34:53Z</time>
<desc>lat.=44.656799, lon.=33.803684, Alt.=109.461975m. Speed=0.036000m/h.</desc>
<speed>0.010000</speed>
</trkpt>
<trkpt lat="44.656799" lon="33.803684">
<ele>109.401428</ele>
<time>2011-10-10T13:34:58Z</time>
<desc>lat.=44.656799, lon.=33.803684, Alt.=109.401428m. Speed=0.324000m/h.</desc>
<speed>0.090000</speed>
</trkpt>
<trkpt lat="44.656799" lon="33.803684">
<ele>109.389709</ele>
<time>2011-10-10T13:35:03Z</time>
<desc>lat.=44.656799, lon.=33.803684, Alt.=109.389709m. Speed=0.072000m/h.</desc>
<speed>0.020000</speed>
</trkpt>
<trkpt lat="44.656799" lon="33.803684">
<ele>109.413147</ele>
<time>2011-10-10T13:35:08Z</time>
<desc>lat.=44.656799, lon.=33.803684, Alt.=109.413147m. Speed=0.000000m/h.</desc>
<speed>0.000000</speed>
</trkpt>
<trkpt lat="44.656799" lon="33.803684">
<ele>109.409241</ele>
<time>2011-10-10T13:35:13Z</time>
<desc>lat.=44.656799, lon.=33.803684, Alt.=109.409241m. Speed=0.000000m/h.</desc>
<speed>0.000000</speed>
</trkpt>
<trkpt lat="44.656799" lon="33.803684">
<ele>109.393616</ele>
<time>2011-10-10T13:35:18Z</time>
<desc>lat.=44.656799, lon.=33.803684, Alt.=109.393616m. Speed=0.000000m/h.</desc>
<speed>0.000000</speed>
</trkpt>
<trkpt lat="44.656807" lon="33.803650">
<ele>109.731506</ele>
<time>2011-10-10T13:35:23Z</time>
<desc>lat.=44.656807, lon.=33.803650, Alt.=109.731506m. Speed=10.980000m/h.</desc>
<speed>3.050000</speed>
</trkpt>
<trkpt lat="44.656887" lon="33.803421">
<ele>110.780334</ele>
<time>2011-10-10T13:35:28Z</time>
<desc>lat.=44.656887, lon.=33.803421, Alt.=110.780334m. Speed=13.932000m/h.</desc>
<speed>3.870000</speed>
</trkpt>
<trkpt lat="44.656986" lon="33.803143">
<ele>109.893616</ele>
<time>2011-10-10T13:35:33Z</time>
<desc>lat.=44.656986, lon.=33.803143, Alt.=109.893616m. Speed=18.252001m/h.</desc>
<speed>5.070000</speed>
</trkpt>
<trkpt lat="44.657116" lon="33.802845">
<ele>109.559631</ele>
<time>2011-10-10T13:35:38Z</time>
<desc>lat.=44.657116, lon.=33.802845, Alt.=109.559631m. Speed=20.916000m/h.</desc>
<speed>5.810000</speed>
</trkpt>
<trkpt lat="44.657326" lon="33.802601">
<ele>109.627991</ele>
<time>2011-10-10T13:35:43Z</time>
<desc>lat.=44.657326, lon.=33.802601, Alt.=109.627991m. Speed=21.384001m/h.</desc>
<speed>5.940000</speed>
</trkpt>
<trkpt lat="44.657562" lon="33.802441">
<ele>110.264709</ele>
<time>2011-10-10T13:35:48Z</time>
<desc>lat.=44.657562, lon.=33.802441, Alt.=110.264709m. Speed=19.584000m/h.</desc>
<speed>5.440000</speed>
</trkpt>
<trkpt lat="44.657784" lon="33.802307">
<ele>111.170959</ele>
<time>2011-10-10T13:35:53Z</time>
<desc>lat.=44.657784, lon.=33.802307, Alt.=111.170959m. Speed=19.728001m/h.</desc>
<speed>5.480000</speed>
</trkpt>
<trkpt lat="44.658005" lon="33.802155">
<ele>111.524475</ele>
<time>2011-10-10T13:35:58Z</time>
<desc>lat.=44.658005, lon.=33.802155, Alt.=111.524475m. Speed=18.684000m/h.</desc>
<speed>5.190000</speed>
</trkpt>
<trkpt lat="44.658222" lon="33.801975">
<ele>111.586975</ele>
<time>2011-10-10T13:36:03Z</time>
<desc>lat.=44.658222, lon.=33.801975, Alt.=111.586975m. Speed=20.483999m/h.</desc>
<speed>5.690000</speed>
</trkpt>
<trkpt lat="44.658447" lon="33.801743">
<ele>111.602600</ele>
<time>2011-10-10T13:36:08Z</time>
<desc>lat.=44.658447, lon.=33.801743, Alt.=111.602600m. Speed=22.032000m/h.</desc>
<speed>6.120000</speed>
</trkpt>
<trkpt lat="44.658653" lon="33.801495">
<ele>112.165100</ele>
<time>2011-10-10T13:36:13Z</time>
<desc>lat.=44.658653, lon.=33.801495, Alt.=112.165100m. Speed=20.268000m/h.</desc>
<speed>5.630000</speed>
</trkpt>
<trkpt lat="44.658813" lon="33.801224">
<ele>112.133850</ele>
<time>2011-10-10T13:36:18Z</time>
<desc>lat.=44.658813, lon.=33.801224, Alt.=112.133850m. Speed=19.799999m/h.</desc>
<speed>5.500000</speed>
</trkpt>
<trkpt lat="44.658958" lon="33.800922">
<ele>112.069397</ele>
<time>2011-10-10T13:36:23Z</time>
<desc>lat.=44.658958, lon.=33.800922, Alt.=112.069397m. Speed=21.024000m/h.</desc>
<speed>5.840000</speed>
</trkpt>
<trkpt lat="44.659115" lon="33.800625">
<ele>111.710022</ele>
<time>2011-10-10T13:36:28Z</time>
<desc>lat.=44.659115, lon.=33.800625, Alt.=111.710022m. Speed=20.124001m/h.</desc>
<speed>5.590000</speed>
</trkpt>
<trkpt lat="44.659283" lon="33.800339">
<ele>111.372131</ele>
<time>2011-10-10T13:36:33Z</time>
<desc>lat.=44.659283, lon.=33.800339, Alt.=111.372131m. Speed=21.528000m/h.</desc>
<speed>5.980000</speed>
</trkpt>
<trkpt lat="44.659462" lon="33.800041">
<ele>111.176819</ele>
<time>2011-10-10T13:36:38Z</time>
<desc>lat.=44.659462, lon.=33.800041, Alt.=111.176819m. Speed=21.743999m/h.</desc>
<speed>6.040000</speed>
</trkpt>
<trkpt lat="44.659634" lon="33.799759">
<ele>110.786194</ele>
<time>2011-10-10T13:36:43Z</time>
<desc>lat.=44.659634, lon.=33.799759, Alt.=110.786194m. Speed=21.240000m/h.</desc>
<speed>5.900000</speed>
</trkpt>
<trkpt lat="44.659809" lon="33.799454">
<ele>110.370178</ele>
<time>2011-10-10T13:36:48Z</time>
<desc>lat.=44.659809, lon.=33.799454, Alt.=110.370178m. Speed=22.464001m/h.</desc>
<speed>6.240000</speed>
</trkpt>
<trkpt lat="44.659966" lon="33.799141">
<ele>110.352600</ele>
<time>2011-10-10T13:36:53Z</time>
<desc>lat.=44.659966, lon.=33.799141, Alt.=110.352600m. Speed=20.483999m/h.</desc>
<speed>5.690000</speed>
</trkpt>
<trkpt lat="44.660084" lon="33.798832">
<ele>110.973694</ele>
<time>2011-10-10T13:36:58Z</time>
<desc>lat.=44.660084, lon.=33.798832, Alt.=110.973694m. Speed=19.980000m/h.</desc>
<speed>5.550000</speed>
</trkpt>
<trkpt lat="44.660206" lon="33.798523">
<ele>111.547913</ele>
<time>2011-10-10T13:37:03Z</time>
<desc>lat.=44.660206, lon.=33.798523, Alt.=111.547913m. Speed=19.944000m/h.</desc>
<speed>5.540000</speed>
</trkpt>
<trkpt lat="44.660343" lon="33.798214">
<ele>111.766663</ele>
<time>2011-10-10T13:37:08Z</time>
<desc>lat.=44.660343, lon.=33.798214, Alt.=111.766663m. Speed=20.808001m/h.</desc>
<speed>5.780000</speed>
</trkpt>
<trkpt lat="44.660480" lon="33.797894">
<ele>111.551819</ele>
<time>2011-10-10T13:37:13Z</time>
<desc>lat.=44.660480, lon.=33.797894, Alt.=111.551819m. Speed=21.204000m/h.</desc>
<speed>5.890000</speed>
</trkpt>
<trkpt lat="44.660633" lon="33.797588">
<ele>111.049866</ele>
<time>2011-10-10T13:37:18Z</time>
<desc>lat.=44.660633, lon.=33.797588, Alt.=111.049866m. Speed=20.808001m/h.</desc>
<speed>5.780000</speed>
</trkpt>
<trkpt lat="44.660763" lon="33.797291">
<ele>111.053772</ele>
<time>2011-10-10T13:37:23Z</time>
<desc>lat.=44.660763, lon.=33.797291, Alt.=111.053772m. Speed=18.827999m/h.</desc>
<speed>5.230000</speed>
</trkpt>
<trkpt lat="44.660892" lon="33.797028">
<ele>110.840881</ele>
<time>2011-10-10T13:37:28Z</time>
<desc>lat.=44.660892, lon.=33.797028, Alt.=110.840881m. Speed=17.964001m/h.</desc>
<speed>4.990000</speed>
</trkpt>
<trkpt lat="44.661022" lon="33.796764">
<ele>111.014709</ele>
<time>2011-10-10T13:37:33Z</time>
<desc>lat.=44.661022, lon.=33.796764, Alt.=111.014709m. Speed=17.856001m/h.</desc>
<speed>4.960000</speed>
</trkpt>
<trkpt lat="44.661140" lon="33.796497">
<ele>111.469788</ele>
<time>2011-10-10T13:37:38Z</time>
<desc>lat.=44.661140, lon.=33.796497, Alt.=111.469788m. Speed=18.900000m/h.</desc>
<speed>5.250000</speed>
</trkpt>
<trkpt lat="44.661198" lon="33.796169">
<ele>111.262756</ele>
<time>2011-10-10T13:37:43Z</time>
<desc>lat.=44.661198, lon.=33.796169, Alt.=111.262756m. Speed=17.459999m/h.</desc>
<speed>4.850000</speed>
</trkpt>
<trkpt lat="44.661209" lon="33.795879">
<ele>110.055725</ele>
<time>2011-10-10T13:37:48Z</time>
<desc>lat.=44.661209, lon.=33.795879, Alt.=110.055725m. Speed=16.524000m/h.</desc>
<speed>4.590000</speed>
</trkpt>
<trkpt lat="44.661198" lon="33.795547">
<ele>109.452209</ele>
<time>2011-10-10T13:37:53Z</time>
<desc>lat.=44.661198, lon.=33.795547, Alt.=109.452209m. Speed=21.743999m/h.</desc>
<speed>6.040000</speed>
</trkpt>
<trkpt lat="44.661201" lon="33.795155">
<ele>109.700256</ele>
<time>2011-10-10T13:37:58Z</time>
<desc>lat.=44.661201, lon.=33.795155, Alt.=109.700256m. Speed=23.976000m/h.</desc>
<speed>6.660000</speed>
</trkpt>
<trkpt lat="44.661228" lon="33.794716">
<ele>110.409241</ele>
<time>2011-10-10T13:38:03Z</time>
<desc>lat.=44.661228, lon.=33.794716, Alt.=110.409241m. Speed=25.128000m/h.</desc>
<speed>6.980000</speed>
</trkpt>
<trkpt lat="44.661270" lon="33.794296">
<ele>111.139709</ele>
<time>2011-10-10T13:38:08Z</time>
<desc>lat.=44.661270, lon.=33.794296, Alt.=111.139709m. Speed=24.624001m/h.</desc>
<speed>6.840000</speed>
</trkpt>
<trkpt lat="44.661339" lon="33.793850">
<ele>110.258850</ele>
<time>2011-10-10T13:38:13Z</time>
<desc>lat.=44.661339, lon.=33.793850, Alt.=110.258850m. Speed=26.280001m/h.</desc>
<speed>7.300000</speed>
</trkpt>
<trkpt lat="44.661407" lon="33.793381">
<ele>109.549866</ele>
<time>2011-10-10T13:38:18Z</time>
<desc>lat.=44.661407, lon.=33.793381, Alt.=109.549866m. Speed=27.035999m/h.</desc>
<speed>7.510000</speed>
</trkpt>
<trkpt lat="44.661488" lon="33.792881">
<ele>108.024475</ele>
<time>2011-10-10T13:38:23Z</time>
<desc>lat.=44.661488, lon.=33.792881, Alt.=108.024475m. Speed=29.340000m/h.</desc>
<speed>8.150000</speed>
</trkpt>
<trkpt lat="44.661575" lon="33.792377">
<ele>105.961975</ele>
<time>2011-10-10T13:38:28Z</time>
<desc>lat.=44.661575, lon.=33.792377, Alt.=105.961975m. Speed=28.764000m/h.</desc>
<speed>7.990000</speed>
</trkpt>
<trkpt lat="44.661671" lon="33.791878">
<ele>104.960022</ele>
<time>2011-10-10T13:38:33Z</time>
<desc>lat.=44.661671, lon.=33.791878, Alt.=104.960022m. Speed=30.780001m/h.</desc>
<speed>8.550000</speed>
</trkpt>
<trkpt lat="44.661777" lon="33.791351">
<ele>103.897522</ele>
<time>2011-10-10T13:38:38Z</time>
<desc>lat.=44.661777, lon.=33.791351, Alt.=103.897522m. Speed=30.096001m/h.</desc>
<speed>8.360000</speed>
</trkpt>
<trkpt lat="44.661873" lon="33.790848">
<ele>102.395569</ele>
<time>2011-10-10T13:38:43Z</time>
<desc>lat.=44.661873, lon.=33.790848, Alt.=102.395569m. Speed=30.384001m/h.</desc>
<speed>8.440000</speed>
</trkpt>
<trkpt lat="44.661961" lon="33.790321">
<ele>101.643616</ele>
<time>2011-10-10T13:38:48Z</time>
<desc>lat.=44.661961, lon.=33.790321, Alt.=101.643616m. Speed=31.104000m/h.</desc>
<speed>8.640000</speed>
</trkpt>
<trkpt lat="44.662025" lon="33.789783">
<ele>100.719788</ele>
<time>2011-10-10T13:38:53Z</time>
<desc>lat.=44.662025, lon.=33.789783, Alt.=100.719788m. Speed=30.996000m/h.</desc>
<speed>8.610000</speed>
</trkpt>
<trkpt lat="44.662086" lon="33.789257">
<ele>99.907288</ele>
<time>2011-10-10T13:38:58Z</time>
<desc>lat.=44.662086, lon.=33.789257, Alt.=99.907288m. Speed=28.980000m/h.</desc>
<speed>8.050000</speed>
</trkpt>
<trkpt lat="44.662170" lon="33.788784">
<ele>99.075256</ele>
<time>2011-10-10T13:39:03Z</time>
<desc>lat.=44.662170, lon.=33.788784, Alt.=99.075256m. Speed=28.548000m/h.</desc>
<speed>7.930000</speed>
</trkpt>
<trkpt lat="44.662251" lon="33.788273">
<ele>96.899475</ele>
<time>2011-10-10T13:39:08Z</time>
<desc>lat.=44.662251, lon.=33.788273, Alt.=96.899475m. Speed=31.032000m/h.</desc>
<speed>8.620000</speed>
</trkpt>
<trkpt lat="44.662308" lon="33.787720">
<ele>96.430725</ele>
<time>2011-10-10T13:39:13Z</time>
<desc>lat.=44.662308, lon.=33.787720, Alt.=96.430725m. Speed=31.896000m/h.</desc>
<speed>8.860000</speed>
</trkpt>
<trkpt lat="44.662312" lon="33.787189">
<ele>97.924866</ele>
<time>2011-10-10T13:39:18Z</time>
<desc>lat.=44.662312, lon.=33.787189, Alt.=97.924866m. Speed=29.736000m/h.</desc>
<speed>8.260000</speed>
</trkpt>
<trkpt lat="44.662292" lon="33.786705">
<ele>98.838928</ele>
<time>2011-10-10T13:39:23Z</time>
<desc>lat.=44.662292, lon.=33.786705, Alt.=98.838928m. Speed=27.504000m/h.</desc>
<speed>7.640000</speed>
</trkpt>
<trkpt lat="44.662312" lon="33.786236">
<ele>99.458069</ele>
<time>2011-10-10T13:39:28Z</time>
<desc>lat.=44.662312, lon.=33.786236, Alt.=99.458069m. Speed=27.648001m/h.</desc>
<speed>7.680000</speed>
</trkpt>
<trkpt lat="44.662357" lon="33.785763">
<ele>99.237366</ele>
<time>2011-10-10T13:39:33Z</time>
<desc>lat.=44.662357, lon.=33.785763, Alt.=99.237366m. Speed=27.072001m/h.</desc>
<speed>7.520000</speed>
</trkpt>
<trkpt lat="44.662411" lon="33.785294">
<ele>98.919006</ele>
<time>2011-10-10T13:39:38Z</time>
<desc>lat.=44.662411, lon.=33.785294, Alt.=98.919006m. Speed=27.792000m/h.</desc>
<speed>7.720000</speed>
</trkpt>
<trkpt lat="44.662460" lon="33.784809">
<ele>98.946350</ele>
<time>2011-10-10T13:39:43Z</time>
<desc>lat.=44.662460, lon.=33.784809, Alt.=98.946350m. Speed=27.756001m/h.</desc>
<speed>7.710000</speed>
</trkpt>
<trkpt lat="44.662518" lon="33.784340">
<ele>98.571350</ele>
<time>2011-10-10T13:39:48Z</time>
<desc>lat.=44.662518, lon.=33.784340, Alt.=98.571350m. Speed=27.000000m/h.</desc>
<speed>7.500000</speed>
</trkpt>
<trkpt lat="44.662579" lon="33.783894">
<ele>98.594788</ele>
<time>2011-10-10T13:39:53Z</time>
<desc>lat.=44.662579, lon.=33.783894, Alt.=98.594788m. Speed=25.091999m/h.</desc>
<speed>6.970000</speed>
</trkpt>
<trkpt lat="44.662651" lon="33.783451">
<ele>97.745178</ele>
<time>2011-10-10T13:39:58Z</time>
<desc>lat.=44.662651, lon.=33.783451, Alt.=97.745178m. Speed=26.100000m/h.</desc>
<speed>7.250000</speed>
</trkpt>
<trkpt lat="44.662697" lon="33.783012">
<ele>97.532288</ele>
<time>2011-10-10T13:40:03Z</time>
<desc>lat.=44.662697, lon.=33.783012, Alt.=97.532288m. Speed=25.452000m/h.</desc>
<speed>7.070000</speed>
</trkpt>
<trkpt lat="44.662632" lon="33.782516">
<ele>94.856506</ele>
<time>2011-10-10T13:40:08Z</time>
<desc>lat.=44.662632, lon.=33.782516, Alt.=94.856506m. Speed=36.251999m/h.</desc>
<speed>10.070000</speed>
</trkpt>
<trkpt lat="44.662415" lon="33.781780">
<ele>86.452209</ele>
<time>2011-10-10T13:40:13Z</time>
<desc>lat.=44.662415, lon.=33.781780, Alt.=86.452209m. Speed=50.327999m/h.</desc>
<speed>13.980000</speed>
</trkpt>
<trkpt lat="44.662045" lon="33.781044">
<ele>81.307678</ele>
<time>2011-10-10T13:40:18Z</time>
<desc>lat.=44.662045, lon.=33.781044, Alt.=81.307678m. Speed=49.787998m/h.</desc>
<speed>13.829999</speed>
</trkpt>
<trkpt lat="44.661503" lon="33.780628">
<ele>81.274475</ele>
<time>2011-10-10T13:40:23Z</time>
<desc>lat.=44.661503, lon.=33.780628, Alt.=81.274475m. Speed=50.327999m/h.</desc>
<speed>13.980000</speed>
</trkpt>
<trkpt lat="44.660912" lon="33.780487">
<ele>83.823303</ele>
<time>2011-10-10T13:40:28Z</time>
<desc>lat.=44.660912, lon.=33.780487, Alt.=83.823303m. Speed=45.108002m/h.</desc>
<speed>12.530000</speed>
</trkpt>
<trkpt lat="44.660374" lon="33.780338">
<ele>85.079163</ele>
<time>2011-10-10T13:40:33Z</time>
<desc>lat.=44.660374, lon.=33.780338, Alt.=85.079163m. Speed=39.419998m/h.</desc>
<speed>10.949999</speed>
</trkpt>
<trkpt lat="44.659908" lon="33.780231">
<ele>86.833069</ele>
<time>2011-10-10T13:40:38Z</time>
<desc>lat.=44.659908, lon.=33.780231, Alt.=86.833069m. Speed=30.924000m/h.</desc>
<speed>8.590000</speed>
</trkpt>
<trkpt lat="44.659569" lon="33.780167">
<ele>87.489319</ele>
<time>2011-10-10T13:40:43Z</time>
<desc>lat.=44.659569, lon.=33.780167, Alt.=87.489319m. Speed=22.500000m/h.</desc>
<speed>6.250000</speed>
</trkpt>
<trkpt lat="44.659363" lon="33.780121">
<ele>87.522522</ele>
<time>2011-10-10T13:40:48Z</time>
<desc>lat.=44.659363, lon.=33.780121, Alt.=87.522522m. Speed=16.740000m/h.</desc>
<speed>4.650000</speed>
</trkpt>
<trkpt lat="44.659184" lon="33.780079">
<ele>88.069397</ele>
<time>2011-10-10T13:40:53Z</time>
<desc>lat.=44.659184, lon.=33.780079, Alt.=88.069397m. Speed=11.880000m/h.</desc>
<speed>3.300000</speed>
</trkpt>
<trkpt lat="44.659073" lon="33.780083">
<ele>89.161194</ele>
<time>2011-10-10T13:40:58Z</time>
<desc>lat.=44.659073, lon.=33.780083, Alt.=89.161194m. Speed=8.640000m/h.</desc>
<speed>2.400000</speed>
</trkpt>
<trkpt lat="44.659031" lon="33.780136">
<ele>89.393616</ele>
<time>2011-10-10T13:41:03Z</time>
<desc>lat.=44.659031, lon.=33.780136, Alt.=89.393616m. Speed=5.904000m/h.</desc>
<speed>1.640000</speed>
</trkpt>
<trkpt lat="44.659027" lon="33.780167">
<ele>88.786194</ele>
<time>2011-10-10T13:41:08Z</time>
<desc>lat.=44.659027, lon.=33.780167, Alt.=88.786194m. Speed=1.368000m/h.</desc>
<speed>0.380000</speed>
</trkpt>
<trkpt lat="44.659027" lon="33.780178">
<ele>89.252991</ele>
<time>2011-10-10T13:41:13Z</time>
<desc>lat.=44.659027, lon.=33.780178, Alt.=89.252991m. Speed=0.180000m/h.</desc>
<speed>0.050000</speed>
</trkpt>
<trkpt lat="44.659027" lon="33.780178">
<ele>89.489319</ele>
<time>2011-10-10T13:41:18Z</time>
<desc>lat.=44.659027, lon.=33.780178, Alt.=89.489319m. Speed=0.180000m/h.</desc>
<speed>0.050000</speed>
</trkpt>
<trkpt lat="44.659031" lon="33.780182">
<ele>89.594788</ele>
<time>2011-10-10T13:41:23Z</time>
<desc>lat.=44.659031, lon.=33.780182, Alt.=89.594788m. Speed=0.108000m/h.</desc>
<speed>0.030000</speed>
</trkpt>
<trkpt lat="44.659031" lon="33.780182">
<ele>89.624084</ele>
<time>2011-10-10T13:41:28Z</time>
<desc>lat.=44.659031, lon.=33.780182, Alt.=89.624084m. Speed=0.036000m/h.</desc>
<speed>0.010000</speed>
</trkpt>
<trkpt lat="44.659027" lon="33.780182">
<ele>89.620178</ele>
<time>2011-10-10T13:41:33Z</time>
<desc>lat.=44.659027, lon.=33.780182, Alt.=89.620178m. Speed=0.036000m/h.</desc>
<speed>0.010000</speed>
</trkpt>
<trkpt lat="44.659031" lon="33.780182">
<ele>89.641663</ele>
<time>2011-10-10T13:41:38Z</time>
<desc>lat.=44.659031, lon.=33.780182, Alt.=89.641663m. Speed=3.348000m/h.</desc>
<speed>0.930000</speed>
</trkpt>
<trkpt lat="44.659050" lon="33.780178">
<ele>89.413147</ele>
<time>2011-10-10T13:41:43Z</time>
<desc>lat.=44.659050, lon.=33.780178, Alt.=89.413147m. Speed=0.792000m/h.</desc>
<speed>0.220000</speed>
</trkpt>
<trkpt lat="44.659039" lon="33.780205">
<ele>90.210022</ele>
<time>2011-10-10T13:41:48Z</time>
<desc>lat.=44.659039, lon.=33.780205, Alt.=90.210022m. Speed=4.320000m/h.</desc>
<speed>1.200000</speed>
</trkpt>
<trkpt lat="44.659023" lon="33.780254">
<ele>90.319397</ele>
<time>2011-10-10T13:41:53Z</time>
<desc>lat.=44.659023, lon.=33.780254, Alt.=90.319397m. Speed=4.212000m/h.</desc>
<speed>1.170000</speed>
</trkpt>
<trkpt lat="44.658966" lon="33.780304">
<ele>91.653381</ele>
<time>2011-10-10T13:41:58Z</time>
<desc>lat.=44.658966, lon.=33.780304, Alt.=91.653381m. Speed=5.508000m/h.</desc>
<speed>1.530000</speed>
</trkpt>
<trkpt lat="44.658909" lon="33.780323">
<ele>94.129944</ele>
<time>2011-10-10T13:42:03Z</time>
<desc>lat.=44.658909, lon.=33.780323, Alt.=94.129944m. Speed=3.672000m/h.</desc>
<speed>1.020000</speed>
</trkpt>
<trkpt lat="44.658848" lon="33.780354">
<ele>95.098694</ele>
<time>2011-10-10T13:42:08Z</time>
<desc>lat.=44.658848, lon.=33.780354, Alt.=95.098694m. Speed=5.544000m/h.</desc>
<speed>1.540000</speed>
</trkpt>
<trkpt lat="44.658794" lon="33.780365">
<ele>96.008850</ele>
<time>2011-10-10T13:42:13Z</time>
<desc>lat.=44.658794, lon.=33.780365, Alt.=96.008850m. Speed=2.304000m/h.</desc>
<speed>0.640000</speed>
</trkpt>
<trkpt lat="44.658783" lon="33.780334">
<ele>95.792053</ele>
<time>2011-10-10T13:42:18Z</time>
<desc>lat.=44.658783, lon.=33.780334, Alt.=95.792053m. Speed=0.936000m/h.</desc>
<speed>0.260000</speed>
</trkpt>
<trkpt lat="44.658779" lon="33.780338">
<ele>95.920959</ele>
<time>2011-10-10T13:42:23Z</time>
<desc>lat.=44.658779, lon.=33.780338, Alt.=95.920959m. Speed=0.288000m/h.</desc>
<speed>0.080000</speed>
</trkpt>
<trkpt lat="44.658764" lon="33.780338">
<ele>96.075256</ele>
<time>2011-10-10T13:42:28Z</time>
<desc>lat.=44.658764, lon.=33.780338, Alt.=96.075256m. Speed=0.180000m/h.</desc>
<speed>0.050000</speed>
</trkpt>
<trkpt lat="44.658752" lon="33.780323">
<ele>96.836975</ele>
<time>2011-10-10T13:42:33Z</time>
<desc>lat.=44.658752, lon.=33.780323, Alt.=96.836975m. Speed=0.432000m/h.</desc>
<speed>0.120000</speed>
</trkpt>
<trkpt lat="44.658752" lon="33.780327">
<ele>97.002991</ele>
<time>2011-10-10T13:42:38Z</time>
<desc>lat.=44.658752, lon.=33.780327, Alt.=97.002991m. Speed=0.144000m/h.</desc>
<speed>0.040000</speed>
</trkpt>
<trkpt lat="44.658749" lon="33.780334">
<ele>96.819397</ele>
<time>2011-10-10T13:42:43Z</time>
<desc>lat.=44.658749, lon.=33.780334, Alt.=96.819397m. Speed=3.564000m/h.</desc>
<speed>0.990000</speed>
</trkpt>
<trkpt lat="44.658699" lon="33.780399">
<ele>97.057678</ele>
<time>2011-10-10T13:42:48Z</time>
<desc>lat.=44.658699, lon.=33.780399, Alt.=97.057678m. Speed=4.788000m/h.</desc>
<speed>1.330000</speed>
</trkpt>
<trkpt lat="44.658661" lon="33.780457">
<ele>97.950256</ele>
<time>2011-10-10T13:42:53Z</time>
<desc>lat.=44.658661, lon.=33.780457, Alt.=97.950256m. Speed=4.248000m/h.</desc>
<speed>1.180000</speed>
</trkpt>
<trkpt lat="44.658623" lon="33.780502">
<ele>98.542053</ele>
<time>2011-10-10T13:42:58Z</time>
<desc>lat.=44.658623, lon.=33.780502, Alt.=98.542053m. Speed=3.996000m/h.</desc>
<speed>1.110000</speed>
</trkpt>
<trkpt lat="44.658577" lon="33.780537">
<ele>99.526428</ele>
<time>2011-10-10T13:43:03Z</time>
<desc>lat.=44.658577, lon.=33.780537, Alt.=99.526428m. Speed=4.320000m/h.</desc>
<speed>1.200000</speed>
</trkpt>
<trkpt lat="44.658524" lon="33.780579">
<ele>101.210022</ele>
<time>2011-10-10T13:43:08Z</time>
<desc>lat.=44.658524, lon.=33.780579, Alt.=101.210022m. Speed=4.968000m/h.</desc>
<speed>1.380000</speed>
</trkpt>
<trkpt lat="44.658489" lon="33.780636">
<ele>102.172913</ele>
<time>2011-10-10T13:43:13Z</time>
<desc>lat.=44.658489, lon.=33.780636, Alt.=102.172913m. Speed=3.600000m/h.</desc>
<speed>1.000000</speed>
</trkpt>
<trkpt lat="44.658466" lon="33.780682">
<ele>101.567444</ele>
<time>2011-10-10T13:43:18Z</time>
<desc>lat.=44.658466, lon.=33.780682, Alt.=101.567444m. Speed=2.628000m/h.</desc>
<speed>0.730000</speed>
</trkpt>
<trkpt lat="44.658451" lon="33.780743">
<ele>101.083069</ele>
<time>2011-10-10T13:43:23Z</time>
<desc>lat.=44.658451, lon.=33.780743, Alt.=101.083069m. Speed=4.032000m/h.</desc>
<speed>1.120000</speed>
</trkpt>
<trkpt lat="44.658424" lon="33.780788">
<ele>101.237366</ele>
<time>2011-10-10T13:43:28Z</time>
<desc>lat.=44.658424, lon.=33.780788, Alt.=101.237366m. Speed=4.032000m/h.</desc>
<speed>1.120000</speed>
</trkpt>
<trkpt lat="44.658401" lon="33.780884">
<ele>102.081116</ele>
<time>2011-10-10T13:43:33Z</time>
<desc>lat.=44.658401, lon.=33.780884, Alt.=102.081116m. Speed=4.752000m/h.</desc>
<speed>1.320000</speed>
</trkpt>
<trkpt lat="44.658367" lon="33.780952">
<ele>103.202209</ele>
<time>2011-10-10T13:43:38Z</time>
<desc>lat.=44.658367, lon.=33.780952, Alt.=103.202209m. Speed=4.572000m/h.</desc>
<speed>1.270000</speed>
</trkpt>
<trkpt lat="44.658321" lon="33.781010">
<ele>104.157288</ele>
<time>2011-10-10T13:43:43Z</time>
<desc>lat.=44.658321, lon.=33.781010, Alt.=104.157288m. Speed=4.428000m/h.</desc>
<speed>1.230000</speed>
</trkpt>
<trkpt lat="44.658283" lon="33.781059">
<ele>104.794006</ele>
<time>2011-10-10T13:43:48Z</time>
<desc>lat.=44.658283, lon.=33.781059, Alt.=104.794006m. Speed=3.276000m/h.</desc>
<speed>0.910000</speed>
</trkpt>
<trkpt lat="44.658253" lon="33.781090">
<ele>106.170959</ele>
<time>2011-10-10T13:43:53Z</time>
<desc>lat.=44.658253, lon.=33.781090, Alt.=106.170959m. Speed=3.348000m/h.</desc>
<speed>0.930000</speed>
</trkpt>
<trkpt lat="44.658226" lon="33.781128">
<ele>108.034241</ele>
<time>2011-10-10T13:43:58Z</time>
<desc>lat.=44.658226, lon.=33.781128, Alt.=108.034241m. Speed=3.744000m/h.</desc>
<speed>1.040000</speed>
</trkpt>
<trkpt lat="44.658199" lon="33.781178">
<ele>109.098694</ele>
<time>2011-10-10T13:44:03Z</time>
<desc>lat.=44.658199, lon.=33.781178, Alt.=109.098694m. Speed=2.556000m/h.</desc>
<speed>0.710000</speed>
</trkpt>
<trkpt lat="44.658180" lon="33.781197">
<ele>109.946350</ele>
<time>2011-10-10T13:44:08Z</time>
<desc>lat.=44.658180, lon.=33.781197, Alt.=109.946350m. Speed=0.828000m/h.</desc>
<speed>0.230000</speed>
</trkpt>
<trkpt lat="44.658184" lon="33.781197">
<ele>109.887756</ele>
<time>2011-10-10T13:44:13Z</time>
<desc>lat.=44.658184, lon.=33.781197, Alt.=109.887756m. Speed=0.432000m/h.</desc>
<speed>0.120000</speed>
</trkpt>
<trkpt lat="44.658184" lon="33.781216">
<ele>110.030334</ele>
<time>2011-10-10T13:44:18Z</time>
<desc>lat.=44.658184, lon.=33.781216, Alt.=110.030334m. Speed=3.456000m/h.</desc>
<speed>0.960000</speed>
</trkpt>
<trkpt lat="44.658192" lon="33.781231">
<ele>111.840881</ele>
<time>2011-10-10T13:44:23Z</time>
<desc>lat.=44.658192, lon.=33.781231, Alt.=111.840881m. Speed=4.500000m/h.</desc>
<speed>1.250000</speed>
</trkpt>
<trkpt lat="44.658253" lon="33.781231">
<ele>113.155334</ele>
<time>2011-10-10T13:44:28Z</time>
<desc>lat.=44.658253, lon.=33.781231, Alt.=113.155334m. Speed=3.168000m/h.</desc>
<speed>0.880000</speed>
</trkpt>
<trkpt lat="44.658276" lon="33.781219">
<ele>113.161194</ele>
<time>2011-10-10T13:44:33Z</time>
<desc>lat.=44.658276, lon.=33.781219, Alt.=113.161194m. Speed=2.664000m/h.</desc>
<speed>0.740000</speed>
</trkpt>
<trkpt lat="44.658276" lon="33.781239">
<ele>113.092834</ele>
<time>2011-10-10T13:44:38Z</time>
<desc>lat.=44.658276, lon.=33.781239, Alt.=113.092834m. Speed=1.008000m/h.</desc>
<speed>0.280000</speed>
</trkpt>
<trkpt lat="44.658276" lon="33.781223">
<ele>113.483459</ele>
<time>2011-10-10T13:44:43Z</time>
<desc>lat.=44.658276, lon.=33.781223, Alt.=113.483459m. Speed=2.340000m/h.</desc>
<speed>0.650000</speed>
</trkpt>
<trkpt lat="44.658314" lon="33.781231">
<ele>113.772522</ele>
<time>2011-10-10T13:44:48Z</time>
<desc>lat.=44.658314, lon.=33.781231, Alt.=113.772522m. Speed=4.176000m/h.</desc>
<speed>1.160000</speed>
</trkpt>
<trkpt lat="44.658310" lon="33.781254">
<ele>114.325256</ele>
<time>2011-10-10T13:44:53Z</time>
<desc>lat.=44.658310, lon.=33.781254, Alt.=114.325256m. Speed=3.672000m/h.</desc>
<speed>1.020000</speed>
</trkpt>
<trkpt lat="44.658295" lon="33.781277">
<ele>114.463928</ele>
<time>2011-10-10T13:44:58Z</time>
<desc>lat.=44.658295, lon.=33.781277, Alt.=114.463928m. Speed=0.900000m/h.</desc>
<speed>0.250000</speed>
</trkpt>
<trkpt lat="44.658298" lon="33.781296">
<ele>114.534241</ele>
<time>2011-10-10T13:45:03Z</time>
<desc>lat.=44.658298, lon.=33.781296, Alt.=114.534241m. Speed=1.476000m/h.</desc>
<speed>0.410000</speed>
</trkpt>
<trkpt lat="44.658306" lon="33.781292">
<ele>114.233459</ele>
<time>2011-10-10T13:45:08Z</time>
<desc>lat.=44.658306, lon.=33.781292, Alt.=114.233459m. Speed=1.944000m/h.</desc>
<speed>0.540000</speed>
</trkpt>
<trkpt lat="44.658302" lon="33.781288">
<ele>114.223694</ele>
<time>2011-10-10T13:45:13Z</time>
<desc>lat.=44.658302, lon.=33.781288, Alt.=114.223694m. Speed=1.512000m/h.</desc>
<speed>0.420000</speed>
</trkpt>
<trkpt lat="44.658302" lon="33.781284">
<ele>114.784241</ele>
<time>2011-10-10T13:45:18Z</time>
<desc>lat.=44.658302, lon.=33.781284, Alt.=114.784241m. Speed=1.404000m/h.</desc>
<speed>0.390000</speed>
</trkpt>
<trkpt lat="44.658310" lon="33.781269">
<ele>114.844788</ele>
<time>2011-10-10T13:45:23Z</time>
<desc>lat.=44.658310, lon.=33.781269, Alt.=114.844788m. Speed=0.864000m/h.</desc>
<speed>0.240000</speed>
</trkpt>
<trkpt lat="44.658302" lon="33.781265">
<ele>114.182678</ele>
<time>2011-10-10T13:45:28Z</time>
<desc>lat.=44.658302, lon.=33.781265, Alt.=114.182678m. Speed=2.988000m/h.</desc>
<speed>0.830000</speed>
</trkpt>
<trkpt lat="44.658298" lon="33.781281">
<ele>114.159241</ele>
<time>2011-10-10T13:45:33Z</time>
<desc>lat.=44.658298, lon.=33.781281, Alt.=114.159241m. Speed=1.296000m/h.</desc>
<speed>0.360000</speed>
</trkpt>
<trkpt lat="44.658310" lon="33.781311">
<ele>114.483459</ele>
<time>2011-10-10T13:45:38Z</time>
<desc>lat.=44.658310, lon.=33.781311, Alt.=114.483459m. Speed=2.520000m/h.</desc>
<speed>0.700000</speed>
</trkpt>
<trkpt lat="44.658314" lon="33.781330">
<ele>114.594788</ele>
<time>2011-10-10T13:45:43Z</time>
<desc>lat.=44.658314, lon.=33.781330, Alt.=114.594788m. Speed=0.072000m/h.</desc>
<speed>0.020000</speed>
</trkpt>
<trkpt lat="44.658314" lon="33.781322">
<ele>114.465881</ele>
<time>2011-10-10T13:45:48Z</time>
<desc>lat.=44.658314, lon.=33.781322, Alt.=114.465881m. Speed=0.072000m/h.</desc>
<speed>0.020000</speed>
</trkpt>
<trkpt lat="44.658314" lon="33.781322">
<ele>114.407288</ele>
<time>2011-10-10T13:45:53Z</time>
<desc>lat.=44.658314, lon.=33.781322, Alt.=114.407288m. Speed=0.216000m/h.</desc>
<speed>0.060000</speed>
</trkpt>
<trkpt lat="44.658314" lon="33.781326">
<ele>114.377991</ele>
<time>2011-10-10T13:45:58Z</time>
<desc>lat.=44.658314, lon.=33.781326, Alt.=114.377991m. Speed=0.324000m/h.</desc>
<speed>0.090000</speed>
</trkpt>
<trkpt lat="44.658310" lon="33.781319">
<ele>114.327209</ele>
<time>2011-10-10T13:46:03Z</time>
<desc>lat.=44.658310, lon.=33.781319, Alt.=114.327209m. Speed=0.828000m/h.</desc>
<speed>0.230000</speed>
</trkpt>
<trkpt lat="44.658295" lon="33.781307">
<ele>114.196350</ele>
<time>2011-10-10T13:46:08Z</time>
<desc>lat.=44.658295, lon.=33.781307, Alt.=114.196350m. Speed=0.756000m/h.</desc>
<speed>0.210000</speed>
</trkpt>
<trkpt lat="44.658268" lon="33.781296">
<ele>113.795959</ele>
<time>2011-10-10T13:46:13Z</time>
<desc>lat.=44.658268, lon.=33.781296, Alt.=113.795959m. Speed=3.420000m/h.</desc>
<speed>0.950000</speed>
</trkpt>
<trkpt lat="44.658264" lon="33.781284">
<ele>113.571350</ele>
<time>2011-10-10T13:46:18Z</time>
<desc>lat.=44.658264, lon.=33.781284, Alt.=113.571350m. Speed=0.036000m/h.</desc>
<speed>0.010000</speed>
</trkpt>
<trkpt lat="44.658257" lon="33.781281">
<ele>113.161194</ele>
<time>2011-10-10T13:46:23Z</time>
<desc>lat.=44.658257, lon.=33.781281, Alt.=113.161194m. Speed=0.252000m/h.</desc>
<speed>0.070000</speed>
</trkpt>
<trkpt lat="44.658245" lon="33.781269">
<ele>112.749084</ele>
<time>2011-10-10T13:46:28Z</time>
<desc>lat.=44.658245, lon.=33.781269, Alt.=112.749084m. Speed=3.492000m/h.</desc>
<speed>0.970000</speed>
</trkpt>
<trkpt lat="44.658222" lon="33.781239">
<ele>111.663147</ele>
<time>2011-10-10T13:46:33Z</time>
<desc>lat.=44.658222, lon.=33.781239, Alt.=111.663147m. Speed=0.828000m/h.</desc>
<speed>0.230000</speed>
</trkpt>
<trkpt lat="44.658222" lon="33.781246">
<ele>111.510803</ele>
<time>2011-10-10T13:46:38Z</time>
<desc>lat.=44.658222, lon.=33.781246, Alt.=111.510803m. Speed=0.000000m/h.</desc>
<speed>0.000000</speed>
</trkpt>
<trkpt lat="44.658226" lon="33.781242">
<ele>111.645569</ele>
<time>2011-10-10T13:46:43Z</time>
<desc>lat.=44.658226, lon.=33.781242, Alt.=111.645569m. Speed=0.144000m/h.</desc>
<speed>0.040000</speed>
</trkpt>
<trkpt lat="44.658226" lon="33.781242">
<ele>111.622131</ele>
<time>2011-10-10T13:46:48Z</time>
<desc>lat.=44.658226, lon.=33.781242, Alt.=111.622131m. Speed=0.108000m/h.</desc>
<speed>0.030000</speed>
</trkpt>
<trkpt lat="44.658226" lon="33.781239">
<ele>111.407288</ele>
<time>2011-10-10T13:46:53Z</time>
<desc>lat.=44.658226, lon.=33.781239, Alt.=111.407288m. Speed=1.656000m/h.</desc>
<speed>0.460000</speed>
</trkpt>
<trkpt lat="44.658226" lon="33.781227">
<ele>111.282288</ele>
<time>2011-10-10T13:46:58Z</time>
<desc>lat.=44.658226, lon.=33.781227, Alt.=111.282288m. Speed=0.216000m/h.</desc>
<speed>0.060000</speed>
</trkpt>
<trkpt lat="44.658222" lon="33.781227">
<ele>111.153381</ele>
<time>2011-10-10T13:47:03Z</time>
<desc>lat.=44.658222, lon.=33.781227, Alt.=111.153381m. Speed=0.144000m/h.</desc>
<speed>0.040000</speed>
</trkpt>
<trkpt lat="44.658203" lon="33.781197">
<ele>111.180725</ele>
<time>2011-10-10T13:47:08Z</time>
<desc>lat.=44.658203, lon.=33.781197, Alt.=111.180725m. Speed=4.608000m/h.</desc>
<speed>1.280000</speed>
</trkpt>
<trkpt lat="44.658180" lon="33.781162">
<ele>111.368225</ele>
<time>2011-10-10T13:47:13Z</time>
<desc>lat.=44.658180, lon.=33.781162, Alt.=111.368225m. Speed=0.936000m/h.</desc>
<speed>0.260000</speed>
</trkpt>
<trkpt lat="44.658184" lon="33.781178">
<ele>111.053772</ele>
<time>2011-10-10T13:47:18Z</time>
<desc>lat.=44.658184, lon.=33.781178, Alt.=111.053772m. Speed=1.476000m/h.</desc>
<speed>0.410000</speed>
</trkpt>
<trkpt lat="44.658184" lon="33.781174">
<ele>110.971741</ele>
<time>2011-10-10T13:47:23Z</time>
<desc>lat.=44.658184, lon.=33.781174, Alt.=110.971741m. Speed=0.468000m/h.</desc>
<speed>0.130000</speed>
</trkpt>
<trkpt lat="44.658192" lon="33.781181">
<ele>110.446350</ele>
<time>2011-10-10T13:47:28Z</time>
<desc>lat.=44.658192, lon.=33.781181, Alt.=110.446350m. Speed=0.684000m/h.</desc>
<speed>0.190000</speed>
</trkpt>
<trkpt lat="44.658192" lon="33.781189">
<ele>109.801819</ele>
<time>2011-10-10T13:47:33Z</time>
<desc>lat.=44.658192, lon.=33.781189, Alt.=109.801819m. Speed=1.008000m/h.</desc>
<speed>0.280000</speed>
</trkpt>
<trkpt lat="44.658173" lon="33.781200">
<ele>109.766663</ele>
<time>2011-10-10T13:47:38Z</time>
<desc>lat.=44.658173, lon.=33.781200, Alt.=109.766663m. Speed=0.000000m/h.</desc>
<speed>0.000000</speed>
</trkpt>
<trkpt lat="44.658173" lon="33.781208">
<ele>109.776428</ele>
<time>2011-10-10T13:47:43Z</time>
<desc>lat.=44.658173, lon.=33.781208, Alt.=109.776428m. Speed=0.072000m/h.</desc>
<speed>0.020000</speed>
</trkpt>
<trkpt lat="44.658176" lon="33.781200">
<ele>110.120178</ele>
<time>2011-10-10T13:47:48Z</time>
<desc>lat.=44.658176, lon.=33.781200, Alt.=110.120178m. Speed=1.908000m/h.</desc>
<speed>0.530000</speed>
</trkpt>
<trkpt lat="44.658207" lon="33.781166">
<ele>109.774475</ele>
<time>2011-10-10T13:47:53Z</time>
<desc>lat.=44.658207, lon.=33.781166, Alt.=109.774475m. Speed=3.672000m/h.</desc>
<speed>1.020000</speed>
</trkpt>
<trkpt lat="44.658215" lon="33.781116">
<ele>109.268616</ele>
<time>2011-10-10T13:47:58Z</time>
<desc>lat.=44.658215, lon.=33.781116, Alt.=109.268616m. Speed=1.728000m/h.</desc>
<speed>0.480000</speed>
</trkpt>
<trkpt lat="44.658222" lon="33.781090">
<ele>108.897522</ele>
<time>2011-10-10T13:48:03Z</time>
<desc>lat.=44.658222, lon.=33.781090, Alt.=108.897522m. Speed=1.440000m/h.</desc>
<speed>0.400000</speed>
</trkpt>
<trkpt lat="44.658215" lon="33.781090">
<ele>108.821350</ele>
<time>2011-10-10T13:48:08Z</time>
<desc>lat.=44.658215, lon.=33.781090, Alt.=108.821350m. Speed=0.252000m/h.</desc>
<speed>0.070000</speed>
</trkpt>
<trkpt lat="44.658215" lon="33.781075">
<ele>108.751038</ele>
<time>2011-10-10T13:48:13Z</time>
<desc>lat.=44.658215, lon.=33.781075, Alt.=108.751038m. Speed=0.252000m/h.</desc>
<speed>0.070000</speed>
</trkpt>
<trkpt lat="44.658230" lon="33.781040">
<ele>108.428772</ele>
<time>2011-10-10T13:48:18Z</time>
<desc>lat.=44.658230, lon.=33.781040, Alt.=108.428772m. Speed=0.216000m/h.</desc>
<speed>0.060000</speed>
</trkpt>
<trkpt lat="44.658234" lon="33.781036">
<ele>108.489319</ele>
<time>2011-10-10T13:48:23Z</time>
<desc>lat.=44.658234, lon.=33.781036, Alt.=108.489319m. Speed=0.216000m/h.</desc>
<speed>0.060000</speed>
</trkpt>
<trkpt lat="44.658241" lon="33.781010">
<ele>108.086975</ele>
<time>2011-10-10T13:48:28Z</time>
<desc>lat.=44.658241, lon.=33.781010, Alt.=108.086975m. Speed=2.736000m/h.</desc>
<speed>0.760000</speed>
</trkpt>
<trkpt lat="44.658268" lon="33.780979">
<ele>107.434631</ele>
<time>2011-10-10T13:48:33Z</time>
<desc>lat.=44.658268, lon.=33.780979, Alt.=107.434631m. Speed=2.196000m/h.</desc>
<speed>0.610000</speed>
</trkpt>
<trkpt lat="44.658298" lon="33.780968">
<ele>106.268616</ele>
<time>2011-10-10T13:48:38Z</time>
<desc>lat.=44.658298, lon.=33.780968, Alt.=106.268616m. Speed=0.252000m/h.</desc>
<speed>0.070000</speed>
</trkpt>
<trkpt lat="44.658325" lon="33.780945">
<ele>105.784241</ele>
<time>2011-10-10T13:48:43Z</time>
<desc>lat.=44.658325, lon.=33.780945, Alt.=105.784241m. Speed=3.528000m/h.</desc>
<speed>0.980000</speed>
</trkpt>
<trkpt lat="44.658363" lon="33.780903">
<ele>104.782288</ele>
<time>2011-10-10T13:48:48Z</time>
<desc>lat.=44.658363, lon.=33.780903, Alt.=104.782288m. Speed=3.492000m/h.</desc>
<speed>0.970000</speed>
</trkpt>
<trkpt lat="44.658398" lon="33.780853">
<ele>104.303772</ele>
<time>2011-10-10T13:48:53Z</time>
<desc>lat.=44.658398, lon.=33.780853, Alt.=104.303772m. Speed=3.312000m/h.</desc>
<speed>0.920000</speed>
</trkpt>
<trkpt lat="44.658428" lon="33.780800">
<ele>103.145569</ele>
<time>2011-10-10T13:48:58Z</time>
<desc>lat.=44.658428, lon.=33.780800, Alt.=103.145569m. Speed=2.916000m/h.</desc>
<speed>0.810000</speed>
</trkpt>
<trkpt lat="44.658466" lon="33.780727">
<ele>101.196350</ele>
<time>2011-10-10T13:49:03Z</time>
<desc>lat.=44.658466, lon.=33.780727, Alt.=101.196350m. Speed=5.508000m/h.</desc>
<speed>1.530000</speed>
</trkpt>
<trkpt lat="44.658520" lon="33.780663">
<ele>99.876038</ele>
<time>2011-10-10T13:49:08Z</time>
<desc>lat.=44.658520, lon.=33.780663, Alt.=99.876038m. Speed=5.076000m/h.</desc>
<speed>1.410000</speed>
</trkpt>
<trkpt lat="44.658569" lon="33.780605">
<ele>98.801819</ele>
<time>2011-10-10T13:49:13Z</time>
<desc>lat.=44.658569, lon.=33.780605, Alt.=98.801819m. Speed=5.328000m/h.</desc>
<speed>1.480000</speed>
</trkpt>
<trkpt lat="44.658630" lon="33.780556">
<ele>97.811584</ele>
<time>2011-10-10T13:49:18Z</time>
<desc>lat.=44.658630, lon.=33.780556, Alt.=97.811584m. Speed=5.184000m/h.</desc>
<speed>1.440000</speed>
</trkpt>
<trkpt lat="44.658676" lon="33.780514">
<ele>97.247131</ele>
<time>2011-10-10T13:49:23Z</time>
<desc>lat.=44.658676, lon.=33.780514, Alt.=97.247131m. Speed=5.580000m/h.</desc>
<speed>1.550000</speed>
</trkpt>
<trkpt lat="44.658733" lon="33.780457">
<ele>96.799866</ele>
<time>2011-10-10T13:49:28Z</time>
<desc>lat.=44.658733, lon.=33.780457, Alt.=96.799866m. Speed=5.508000m/h.</desc>
<speed>1.530000</speed>
</trkpt>
<trkpt lat="44.658791" lon="33.780403">
<ele>95.911194</ele>
<time>2011-10-10T13:49:33Z</time>
<desc>lat.=44.658791, lon.=33.780403, Alt.=95.911194m. Speed=4.572000m/h.</desc>
<speed>1.270000</speed>
</trkpt>
<trkpt lat="44.658852" lon="33.780357">
<ele>94.950256</ele>
<time>2011-10-10T13:49:38Z</time>
<desc>lat.=44.658852, lon.=33.780357, Alt.=94.950256m. Speed=4.860000m/h.</desc>
<speed>1.350000</speed>
</trkpt>
<trkpt lat="44.658909" lon="33.780319">
<ele>93.850647</ele>
<time>2011-10-10T13:49:43Z</time>
<desc>lat.=44.658909, lon.=33.780319, Alt.=93.850647m. Speed=5.292000m/h.</desc>
<speed>1.470000</speed>
</trkpt>
<trkpt lat="44.658955" lon="33.780300">
<ele>93.436584</ele>
<time>2011-10-10T13:49:48Z</time>
<desc>lat.=44.658955, lon.=33.780300, Alt.=93.436584m. Speed=4.788000m/h.</desc>
<speed>1.330000</speed>
</trkpt>
<trkpt lat="44.659008" lon="33.780281">
<ele>92.387756</ele>
<time>2011-10-10T13:49:53Z</time>
<desc>lat.=44.659008, lon.=33.780281, Alt.=92.387756m. Speed=2.556000m/h.</desc>
<speed>0.710000</speed>
</trkpt>
<trkpt lat="44.659050" lon="33.780266">
<ele>91.268616</ele>
<time>2011-10-10T13:49:58Z</time>
<desc>lat.=44.659050, lon.=33.780266, Alt.=91.268616m. Speed=2.844000m/h.</desc>
<speed>0.790000</speed>
</trkpt>
<trkpt lat="44.659077" lon="33.780239">
<ele>90.001038</ele>
<time>2011-10-10T13:50:03Z</time>
<desc>lat.=44.659077, lon.=33.780239, Alt.=90.001038m. Speed=3.852000m/h.</desc>
<speed>1.070000</speed>
</trkpt>
<trkpt lat="44.659054" lon="33.780190">
<ele>88.440491</ele>
<time>2011-10-10T13:50:08Z</time>
<desc>lat.=44.659054, lon.=33.780190, Alt.=88.440491m. Speed=3.420000m/h.</desc>
<speed>0.950000</speed>
</trkpt>
<trkpt lat="44.659042" lon="33.780174">
<ele>88.604553</ele>
<time>2011-10-10T13:50:13Z</time>
<desc>lat.=44.659042, lon.=33.780174, Alt.=88.604553m. Speed=0.216000m/h.</desc>
<speed>0.060000</speed>
</trkpt>
<trkpt lat="44.659042" lon="33.780170">
<ele>88.536194</ele>
<time>2011-10-10T13:50:18Z</time>
<desc>lat.=44.659042, lon.=33.780170, Alt.=88.536194m. Speed=0.288000m/h.</desc>
<speed>0.080000</speed>
</trkpt>
<trkpt lat="44.659039" lon="33.780174">
<ele>88.510803</ele>
<time>2011-10-10T13:50:23Z</time>
<desc>lat.=44.659039, lon.=33.780174, Alt.=88.510803m. Speed=0.072000m/h.</desc>
<speed>0.020000</speed>
</trkpt>
<trkpt lat="44.659050" lon="33.780167">
<ele>87.846741</ele>
<time>2011-10-10T13:50:28Z</time>
<desc>lat.=44.659050, lon.=33.780167, Alt.=87.846741m. Speed=0.252000m/h.</desc>
<speed>0.070000</speed>
</trkpt>
<trkpt lat="44.659050" lon="33.780167">
<ele>87.952209</ele>
<time>2011-10-10T13:50:33Z</time>
<desc>lat.=44.659050, lon.=33.780167, Alt.=87.952209m. Speed=0.000000m/h.</desc>
<speed>0.000000</speed>
</trkpt>
<trkpt lat="44.659061" lon="33.780170">
<ele>87.557678</ele>
<time>2011-10-10T13:50:38Z</time>
<desc>lat.=44.659061, lon.=33.780170, Alt.=87.557678m. Speed=4.356000m/h.</desc>
<speed>1.210000</speed>
</trkpt>
<trkpt lat="44.659050" lon="33.780159">
<ele>85.596741</ele>
<time>2011-10-10T13:50:43Z</time>
<desc>lat.=44.659050, lon.=33.780159, Alt.=85.596741m. Speed=0.396000m/h.</desc>
<speed>0.110000</speed>
</trkpt>
<trkpt lat="44.659054" lon="33.780163">
<ele>85.850647</ele>
<time>2011-10-10T13:50:48Z</time>
<desc>lat.=44.659054, lon.=33.780163, Alt.=85.850647m. Speed=0.108000m/h.</desc>
<speed>0.030000</speed>
</trkpt>
<trkpt lat="44.659054" lon="33.780163">
<ele>86.032288</ele>
<time>2011-10-10T13:50:53Z</time>
<desc>lat.=44.659054, lon.=33.780163, Alt.=86.032288m. Speed=0.036000m/h.</desc>
<speed>0.010000</speed>
</trkpt>
<trkpt lat="44.659054" lon="33.780163">
<ele>86.075256</ele>
<time>2011-10-10T13:50:58Z</time>
<desc>lat.=44.659054, lon.=33.780163, Alt.=86.075256m. Speed=0.000000m/h.</desc>
<speed>0.000000</speed>
</trkpt>
<trkpt lat="44.659054" lon="33.780163">
<ele>86.065491</ele>
<time>2011-10-10T13:51:03Z</time>
<desc>lat.=44.659054, lon.=33.780163, Alt.=86.065491m. Speed=0.000000m/h.</desc>
<speed>0.000000</speed>
</trkpt>
<trkpt lat="44.659054" lon="33.780163">
<ele>86.053772</ele>
<time>2011-10-10T13:51:08Z</time>
<desc>lat.=44.659054, lon.=33.780163, Alt.=86.053772m. Speed=0.000000m/h.</desc>
<speed>0.000000</speed>
</trkpt>
<trkpt lat="44.659054" lon="33.780163">
<ele>86.028381</ele>
<time>2011-10-10T13:51:13Z</time>
<desc>lat.=44.659054, lon.=33.780163, Alt.=86.028381m. Speed=0.000000m/h.</desc>
<speed>0.000000</speed>
</trkpt>
<trkpt lat="44.659054" lon="33.780163">
<ele>86.016663</ele>
<time>2011-10-10T13:51:18Z</time>
<desc>lat.=44.659054, lon.=33.780163, Alt.=86.016663m. Speed=0.000000m/h.</desc>
<speed>0.000000</speed>
</trkpt>
<trkpt lat="44.659054" lon="33.780163">
<ele>86.001038</ele>
<time>2011-10-10T13:51:23Z</time>
<desc>lat.=44.659054, lon.=33.780163, Alt.=86.001038m. Speed=0.000000m/h.</desc>
<speed>0.000000</speed>
</trkpt>
<trkpt lat="44.659054" lon="33.780163">
<ele>85.995178</ele>
<time>2011-10-10T13:51:28Z</time>
<desc>lat.=44.659054, lon.=33.780163, Alt.=85.995178m. Speed=0.000000m/h.</desc>
<speed>0.000000</speed>
</trkpt>
<trkpt lat="44.659050" lon="33.780159">
<ele>85.866272</ele>
<time>2011-10-10T13:51:33Z</time>
<desc>lat.=44.659050, lon.=33.780159, Alt.=85.866272m. Speed=2.520000m/h.</desc>
<speed>0.700000</speed>
</trkpt>
<trkpt lat="44.659027" lon="33.780128">
<ele>85.565491</ele>
<time>2011-10-10T13:51:38Z</time>
<desc>lat.=44.659027, lon.=33.780128, Alt.=85.565491m. Speed=4.032000m/h.</desc>
<speed>1.120000</speed>
</trkpt>
<trkpt lat="44.658955" lon="33.780106">
<ele>84.460022</ele>
<time>2011-10-10T13:51:43Z</time>
<desc>lat.=44.658955, lon.=33.780106, Alt.=84.460022m. Speed=8.352000m/h.</desc>
<speed>2.320000</speed>
</trkpt>
<trkpt lat="44.658825" lon="33.780140">
<ele>83.012756</ele>
<time>2011-10-10T13:51:48Z</time>
<desc>lat.=44.658825, lon.=33.780140, Alt.=83.012756m. Speed=12.924000m/h.</desc>
<speed>3.590000</speed>
</trkpt>
<trkpt lat="44.658672" lon="33.780209">
<ele>82.575256</ele>
<time>2011-10-10T13:51:53Z</time>
<desc>lat.=44.658672, lon.=33.780209, Alt.=82.575256m. Speed=13.932000m/h.</desc>
<speed>3.870000</speed>
</trkpt>
<trkpt lat="44.658520" lon="33.780289">
<ele>81.811584</ele>
<time>2011-10-10T13:51:58Z</time>
<desc>lat.=44.658520, lon.=33.780289, Alt.=81.811584m. Speed=13.464000m/h.</desc>
<speed>3.740000</speed>
</trkpt>
<trkpt lat="44.658340" lon="33.780384">
<ele>81.129944</ele>
<time>2011-10-10T13:52:03Z</time>
<desc>lat.=44.658340, lon.=33.780384, Alt.=81.129944m. Speed=14.220000m/h.</desc>
<speed>3.950000</speed>
</trkpt>
<trkpt lat="44.658150" lon="33.780479">
<ele>80.936584</ele>
<time>2011-10-10T13:52:08Z</time>
<desc>lat.=44.658150, lon.=33.780479, Alt.=80.936584m. Speed=15.948000m/h.</desc>
<speed>4.430000</speed>
</trkpt>
<trkpt lat="44.657944" lon="33.780575">
<ele>80.645569</ele>
<time>2011-10-10T13:52:13Z</time>
<desc>lat.=44.657944, lon.=33.780575, Alt.=80.645569m. Speed=16.740000m/h.</desc>
<speed>4.650000</speed>
</trkpt>
<trkpt lat="44.657753" lon="33.780693">
<ele>81.278381</ele>
<time>2011-10-10T13:52:18Z</time>
<desc>lat.=44.657753, lon.=33.780693, Alt.=81.278381m. Speed=16.056000m/h.</desc>
<speed>4.460000</speed>
</trkpt>
<trkpt lat="44.657589" lon="33.780807">
<ele>81.969788</ele>
<time>2011-10-10T13:52:23Z</time>
<desc>lat.=44.657589, lon.=33.780807, Alt.=81.969788m. Speed=15.732000m/h.</desc>
<speed>4.370000</speed>
</trkpt>
<trkpt lat="44.657360" lon="33.780945">
<ele>81.405334</ele>
<time>2011-10-10T13:52:28Z</time>
<desc>lat.=44.657360, lon.=33.780945, Alt.=81.405334m. Speed=19.836000m/h.</desc>
<speed>5.510000</speed>
</trkpt>
<trkpt lat="44.657104" lon="33.781090">
<ele>80.905334</ele>
<time>2011-10-10T13:52:33Z</time>
<desc>lat.=44.657104, lon.=33.781090, Alt.=80.905334m. Speed=21.528000m/h.</desc>
<speed>5.980000</speed>
</trkpt>
<trkpt lat="44.656815" lon="33.781250">
<ele>80.155334</ele>
<time>2011-10-10T13:52:38Z</time>
<desc>lat.=44.656815, lon.=33.781250, Alt.=80.155334m. Speed=23.148001m/h.</desc>
<speed>6.430000</speed>
</trkpt>
<trkpt lat="44.656555" lon="33.781395">
<ele>79.649475</ele>
<time>2011-10-10T13:52:43Z</time>
<desc>lat.=44.656555, lon.=33.781395, Alt.=79.649475m. Speed=21.924000m/h.</desc>
<speed>6.090000</speed>
</trkpt>
<trkpt lat="44.656311" lon="33.781525">
<ele>79.307678</ele>
<time>2011-10-10T13:52:48Z</time>
<desc>lat.=44.656311, lon.=33.781525, Alt.=79.307678m. Speed=19.656000m/h.</desc>
<speed>5.460000</speed>
</trkpt>
<trkpt lat="44.656101" lon="33.781635">
<ele>80.131897</ele>
<time>2011-10-10T13:52:53Z</time>
<desc>lat.=44.656101, lon.=33.781635, Alt.=80.131897m. Speed=17.243999m/h.</desc>
<speed>4.790000</speed>
</trkpt>
<trkpt lat="44.655910" lon="33.781734">
<ele>81.305725</ele>
<time>2011-10-10T13:52:58Z</time>
<desc>lat.=44.655910, lon.=33.781734, Alt.=81.305725m. Speed=19.152000m/h.</desc>
<speed>5.320000</speed>
</trkpt>
<trkpt lat="44.655643" lon="33.781849">
<ele>80.752991</ele>
<time>2011-10-10T13:53:03Z</time>
<desc>lat.=44.655643, lon.=33.781849, Alt.=80.752991m. Speed=21.204000m/h.</desc>
<speed>5.890000</speed>
</trkpt>
<trkpt lat="44.655376" lon="33.781960">
<ele>81.432678</ele>
<time>2011-10-10T13:53:08Z</time>
<desc>lat.=44.655376, lon.=33.781960, Alt.=81.432678m. Speed=21.348000m/h.</desc>
<speed>5.930000</speed>
</trkpt>
<trkpt lat="44.655117" lon="33.782059">
<ele>81.540100</ele>
<time>2011-10-10T13:53:13Z</time>
<desc>lat.=44.655117, lon.=33.782059, Alt.=81.540100m. Speed=20.664000m/h.</desc>
<speed>5.740000</speed>
</trkpt>
<trkpt lat="44.654858" lon="33.782154">
<ele>81.874084</ele>
<time>2011-10-10T13:53:18Z</time>
<desc>lat.=44.654858, lon.=33.782154, Alt.=81.874084m. Speed=20.268000m/h.</desc>
<speed>5.630000</speed>
</trkpt>
<trkpt lat="44.654636" lon="33.782230">
<ele>81.856506</ele>
<time>2011-10-10T13:53:23Z</time>
<desc>lat.=44.654636, lon.=33.782230, Alt.=81.856506m. Speed=16.775999m/h.</desc>
<speed>4.660000</speed>
</trkpt>
<trkpt lat="44.654461" lon="33.782291">
<ele>84.096741</ele>
<time>2011-10-10T13:53:28Z</time>
<desc>lat.=44.654461, lon.=33.782291, Alt.=84.096741m. Speed=15.552000m/h.</desc>
<speed>4.320000</speed>
</trkpt>
<trkpt lat="44.654274" lon="33.782379">
<ele>85.797913</ele>
<time>2011-10-10T13:53:33Z</time>
<desc>lat.=44.654274, lon.=33.782379, Alt.=85.797913m. Speed=15.192000m/h.</desc>
<speed>4.220000</speed>
</trkpt>
<trkpt lat="44.654076" lon="33.782459">
<ele>87.434631</ele>
<time>2011-10-10T13:53:38Z</time>
<desc>lat.=44.654076, lon.=33.782459, Alt.=87.434631m. Speed=13.644000m/h.</desc>
<speed>3.790000</speed>
</trkpt>
<trkpt lat="44.653896" lon="33.782524">
<ele>87.309631</ele>
<time>2011-10-10T13:53:43Z</time>
<desc>lat.=44.653896, lon.=33.782524, Alt.=87.309631m. Speed=12.276000m/h.</desc>
<speed>3.410000</speed>
</trkpt>
<trkpt lat="44.653744" lon="33.782574">
<ele>87.643616</ele>
<time>2011-10-10T13:53:48Z</time>
<desc>lat.=44.653744, lon.=33.782574, Alt.=87.643616m. Speed=11.916000m/h.</desc>
<speed>3.310000</speed>
</trkpt>
<trkpt lat="44.653606" lon="33.782631">
<ele>87.965881</ele>
<time>2011-10-10T13:53:53Z</time>
<desc>lat.=44.653606, lon.=33.782631, Alt.=87.965881m. Speed=12.024000m/h.</desc>
<speed>3.340000</speed>
</trkpt>
<trkpt lat="44.653469" lon="33.782688">
<ele>89.022522</ele>
<time>2011-10-10T13:53:58Z</time>
<desc>lat.=44.653469, lon.=33.782688, Alt.=89.022522m. Speed=15.300000m/h.</desc>
<speed>4.250000</speed>
</trkpt>
<trkpt lat="44.653244" lon="33.782780">
<ele>89.514709</ele>
<time>2011-10-10T13:54:03Z</time>
<desc>lat.=44.653244, lon.=33.782780, Alt.=89.514709m. Speed=19.224001m/h.</desc>
<speed>5.340000</speed>
</trkpt>
<trkpt lat="44.653030" lon="33.782879">
<ele>89.016663</ele>
<time>2011-10-10T13:54:08Z</time>
<desc>lat.=44.653030, lon.=33.782879, Alt.=89.016663m. Speed=15.408000m/h.</desc>
<speed>4.280000</speed>
</trkpt>
<trkpt lat="44.652840" lon="33.782951">
<ele>89.051819</ele>
<time>2011-10-10T13:54:13Z</time>
<desc>lat.=44.652840, lon.=33.782951, Alt.=89.051819m. Speed=16.955999m/h.</desc>
<speed>4.710000</speed>
</trkpt>
<trkpt lat="44.652630" lon="33.783031">
<ele>89.741272</ele>
<time>2011-10-10T13:54:18Z</time>
<desc>lat.=44.652630, lon.=33.783031, Alt.=89.741272m. Speed=17.676001m/h.</desc>
<speed>4.910000</speed>
</trkpt>
<trkpt lat="44.652424" lon="33.783100">
<ele>90.081116</ele>
<time>2011-10-10T13:54:23Z</time>
<desc>lat.=44.652424, lon.=33.783100, Alt.=90.081116m. Speed=15.660000m/h.</desc>
<speed>4.350000</speed>
</trkpt>
<trkpt lat="44.652252" lon="33.783142">
<ele>90.647522</ele>
<time>2011-10-10T13:54:28Z</time>
<desc>lat.=44.652252, lon.=33.783142, Alt.=90.647522m. Speed=11.088000m/h.</desc>
<speed>3.080000</speed>
</trkpt>
<trkpt lat="44.652122" lon="33.783184">
<ele>91.098694</ele>
<time>2011-10-10T13:54:33Z</time>
<desc>lat.=44.652122, lon.=33.783184, Alt.=91.098694m. Speed=13.428000m/h.</desc>
<speed>3.730000</speed>
</trkpt>
<trkpt lat="44.651958" lon="33.783249">
<ele>91.241272</ele>
<time>2011-10-10T13:54:38Z</time>
<desc>lat.=44.651958, lon.=33.783249, Alt.=91.241272m. Speed=10.800000m/h.</desc>
<speed>3.000000</speed>
</trkpt>
<trkpt lat="44.651878" lon="33.783302">
<ele>91.770569</ele>
<time>2011-10-10T13:54:43Z</time>
<desc>lat.=44.651878, lon.=33.783302, Alt.=91.770569m. Speed=5.832000m/h.</desc>
<speed>1.620000</speed>
</trkpt>
<trkpt lat="44.651821" lon="33.783329">
<ele>92.077209</ele>
<time>2011-10-10T13:54:48Z</time>
<desc>lat.=44.651821, lon.=33.783329, Alt.=92.077209m. Speed=4.140000m/h.</desc>
<speed>1.150000</speed>
</trkpt>
<trkpt lat="44.651752" lon="33.783360">
<ele>92.295959</ele>
<time>2011-10-10T13:54:53Z</time>
<desc>lat.=44.651752, lon.=33.783360, Alt.=92.295959m. Speed=7.380000m/h.</desc>
<speed>2.050000</speed>
</trkpt>
<trkpt lat="44.651661" lon="33.783394">
<ele>92.129944</ele>
<time>2011-10-10T13:54:58Z</time>
<desc>lat.=44.651661, lon.=33.783394, Alt.=92.129944m. Speed=5.832000m/h.</desc>
<speed>1.620000</speed>
</trkpt>
<trkpt lat="44.651630" lon="33.783390">
<ele>91.936584</ele>
<time>2011-10-10T13:55:03Z</time>
<desc>lat.=44.651630, lon.=33.783390, Alt.=91.936584m. Speed=0.000000m/h.</desc>
<speed>0.000000</speed>
</trkpt>
<trkpt lat="44.651630" lon="33.783390">
<ele>91.924866</ele>
<time>2011-10-10T13:55:08Z</time>
<desc>lat.=44.651630, lon.=33.783390, Alt.=91.924866m. Speed=0.288000m/h.</desc>
<speed>0.080000</speed>
</trkpt>
<trkpt lat="44.651630" lon="33.783398">
<ele>91.358459</ele>
<time>2011-10-10T13:55:13Z</time>
<desc>lat.=44.651630, lon.=33.783398, Alt.=91.358459m. Speed=0.432000m/h.</desc>
<speed>0.120000</speed>
</trkpt>
<trkpt lat="44.651611" lon="33.783413">
<ele>91.444397</ele>
<time>2011-10-10T13:55:18Z</time>
<desc>lat.=44.651611, lon.=33.783413, Alt.=91.444397m. Speed=4.392000m/h.</desc>
<speed>1.220000</speed>
</trkpt>
<trkpt lat="44.651505" lon="33.783466">
<ele>92.247131</ele>
<time>2011-10-10T13:55:23Z</time>
<desc>lat.=44.651505, lon.=33.783466, Alt.=92.247131m. Speed=12.672000m/h.</desc>
<speed>3.520000</speed>
</trkpt>
<trkpt lat="44.651379" lon="33.783535">
<ele>92.294006</ele>
<time>2011-10-10T13:55:28Z</time>
<desc>lat.=44.651379, lon.=33.783535, Alt.=92.294006m. Speed=10.800000m/h.</desc>
<speed>3.000000</speed>
</trkpt>
<trkpt lat="44.651272" lon="33.783577">
<ele>92.782288</ele>
<time>2011-10-10T13:55:33Z</time>
<desc>lat.=44.651272, lon.=33.783577, Alt.=92.782288m. Speed=8.676000m/h.</desc>
<speed>2.410000</speed>
</trkpt>
<trkpt lat="44.651207" lon="33.783607">
<ele>93.456116</ele>
<time>2011-10-10T13:55:38Z</time>
<desc>lat.=44.651207, lon.=33.783607, Alt.=93.456116m. Speed=5.508000m/h.</desc>
<speed>1.530000</speed>
</trkpt>
<trkpt lat="44.651093" lon="33.783661">
<ele>93.639709</ele>
<time>2011-10-10T13:55:43Z</time>
<desc>lat.=44.651093, lon.=33.783661, Alt.=93.639709m. Speed=12.060000m/h.</desc>
<speed>3.350000</speed>
</trkpt>
<trkpt lat="44.650936" lon="33.783726">
<ele>94.524475</ele>
<time>2011-10-10T13:55:48Z</time>
<desc>lat.=44.650936, lon.=33.783726, Alt.=94.524475m. Speed=12.960000m/h.</desc>
<speed>3.600000</speed>
</trkpt>
<trkpt lat="44.650826" lon="33.783802">
<ele>97.344788</ele>
<time>2011-10-10T13:55:53Z</time>
<desc>lat.=44.650826, lon.=33.783802, Alt.=97.344788m. Speed=7.632000m/h.</desc>
<speed>2.120000</speed>
</trkpt>
<trkpt lat="44.650700" lon="33.783852">
<ele>97.676819</ele>
<time>2011-10-10T13:55:58Z</time>
<desc>lat.=44.650700, lon.=33.783852, Alt.=97.676819m. Speed=9.468000m/h.</desc>
<speed>2.630000</speed>
</trkpt>
<trkpt lat="44.650570" lon="33.783901">
<ele>97.690491</ele>
<time>2011-10-10T13:56:03Z</time>
<desc>lat.=44.650570, lon.=33.783901, Alt.=97.690491m. Speed=12.060000m/h.</desc>
<speed>3.350000</speed>
</trkpt>
<trkpt lat="44.650421" lon="33.783970">
<ele>97.749084</ele>
<time>2011-10-10T13:56:08Z</time>
<desc>lat.=44.650421, lon.=33.783970, Alt.=97.749084m. Speed=9.900000m/h.</desc>
<speed>2.750000</speed>
</trkpt>
<trkpt lat="44.650276" lon="33.784023">
<ele>97.678772</ele>
<time>2011-10-10T13:56:13Z</time>
<desc>lat.=44.650276, lon.=33.784023, Alt.=97.678772m. Speed=12.672000m/h.</desc>
<speed>3.520000</speed>
</trkpt>
<trkpt lat="44.650093" lon="33.784100">
<ele>98.417053</ele>
<time>2011-10-10T13:56:18Z</time>
<desc>lat.=44.650093, lon.=33.784100, Alt.=98.417053m. Speed=15.408000m/h.</desc>
<speed>4.280000</speed>
</trkpt>
<trkpt lat="44.649944" lon="33.784161">
<ele>99.555725</ele>
<time>2011-10-10T13:56:23Z</time>
<desc>lat.=44.649944, lon.=33.784161, Alt.=99.555725m. Speed=9.756000m/h.</desc>
<speed>2.710000</speed>
</trkpt>
<trkpt lat="44.649864" lon="33.784210">
<ele>103.008850</ele>
<time>2011-10-10T13:56:28Z</time>
<desc>lat.=44.649864, lon.=33.784210, Alt.=103.008850m. Speed=5.184000m/h.</desc>
<speed>1.440000</speed>
</trkpt>
<trkpt lat="44.649742" lon="33.784233">
<ele>102.956116</ele>
<time>2011-10-10T13:56:33Z</time>
<desc>lat.=44.649742, lon.=33.784233, Alt.=102.956116m. Speed=3.708000m/h.</desc>
<speed>1.030000</speed>
</trkpt>
<trkpt lat="44.649708" lon="33.784248">
<ele>102.895569</ele>
<time>2011-10-10T13:56:38Z</time>
<desc>lat.=44.649708, lon.=33.784248, Alt.=102.895569m. Speed=0.864000m/h.</desc>
<speed>0.240000</speed>
</trkpt>
<trkpt lat="44.649712" lon="33.784252">
<ele>103.038147</ele>
<time>2011-10-10T13:56:43Z</time>
<desc>lat.=44.649712, lon.=33.784252, Alt.=103.038147m. Speed=0.504000m/h.</desc>
<speed>0.140000</speed>
</trkpt>
<trkpt lat="44.649715" lon="33.784252">
<ele>103.124084</ele>
<time>2011-10-10T13:56:48Z</time>
<desc>lat.=44.649715, lon.=33.784252, Alt.=103.124084m. Speed=0.036000m/h.</desc>
<speed>0.010000</speed>
</trkpt>
<trkpt lat="44.649715" lon="33.784252">
<ele>103.122131</ele>
<time>2011-10-10T13:56:53Z</time>
<desc>lat.=44.649715, lon.=33.784252, Alt.=103.122131m. Speed=0.648000m/h.</desc>
<speed>0.180000</speed>
</trkpt>
<trkpt lat="44.649734" lon="33.784245">
<ele>102.971741</ele>
<time>2011-10-10T13:56:58Z</time>
<desc>lat.=44.649734, lon.=33.784245, Alt.=102.971741m. Speed=4.356000m/h.</desc>
<speed>1.210000</speed>
</trkpt>
<trkpt lat="44.649776" lon="33.784218">
<ele>104.120178</ele>
<time>2011-10-10T13:57:03Z</time>
<desc>lat.=44.649776, lon.=33.784218, Alt.=104.120178m. Speed=4.104000m/h.</desc>
<speed>1.140000</speed>
</trkpt>
<trkpt lat="44.649826" lon="33.784210">
<ele>104.772522</ele>
<time>2011-10-10T13:57:08Z</time>
<desc>lat.=44.649826, lon.=33.784210, Alt.=104.772522m. Speed=2.196000m/h.</desc>
<speed>0.610000</speed>
</trkpt>
<trkpt lat="44.649834" lon="33.784218">
<ele>105.389709</ele>
<time>2011-10-10T13:57:13Z</time>
<desc>lat.=44.649834, lon.=33.784218, Alt.=105.389709m. Speed=1.080000m/h.</desc>
<speed>0.300000</speed>
</trkpt>
<trkpt lat="44.649841" lon="33.784214">
<ele>104.702209</ele>
<time>2011-10-10T13:57:18Z</time>
<desc>lat.=44.649841, lon.=33.784214, Alt.=104.702209m. Speed=0.108000m/h.</desc>
<speed>0.030000</speed>
</trkpt>
<trkpt lat="44.649841" lon="33.784210">
<ele>104.686584</ele>
<time>2011-10-10T13:57:23Z</time>
<desc>lat.=44.649841, lon.=33.784210, Alt.=104.686584m. Speed=0.000000m/h.</desc>
<speed>0.000000</speed>
</trkpt>
<trkpt lat="44.649841" lon="33.784210">
<ele>104.627991</ele>
<time>2011-10-10T13:57:28Z</time>
<desc>lat.=44.649841, lon.=33.784210, Alt.=104.627991m. Speed=0.000000m/h.</desc>
<speed>0.000000</speed>
</trkpt>
<trkpt lat="44.649841" lon="33.784210">
<ele>104.629944</ele>
<time>2011-10-10T13:57:33Z</time>
<desc>lat.=44.649841, lon.=33.784210, Alt.=104.629944m. Speed=0.108000m/h.</desc>
<speed>0.030000</speed>
</trkpt>
<trkpt lat="44.649841" lon="33.784210">
<ele>104.639709</ele>
<time>2011-10-10T13:57:38Z</time>
<desc>lat.=44.649841, lon.=33.784210, Alt.=104.639709m. Speed=0.036000m/h.</desc>
<speed>0.010000</speed>
</trkpt>
<trkpt lat="44.649841" lon="33.784210">
<ele>104.651428</ele>
<time>2011-10-10T13:57:43Z</time>
<desc>lat.=44.649841, lon.=33.784210, Alt.=104.651428m. Speed=0.072000m/h.</desc>
<speed>0.020000</speed>
</trkpt>
<trkpt lat="44.649841" lon="33.784210">
<ele>104.661194</ele>
<time>2011-10-10T13:57:48Z</time>
<desc>lat.=44.649841, lon.=33.784210, Alt.=104.661194m. Speed=0.000000m/h.</desc>
<speed>0.000000</speed>
</trkpt>
<trkpt lat="44.649837" lon="33.784210">
<ele>104.672913</ele>
<time>2011-10-10T13:57:53Z</time>
<desc>lat.=44.649837, lon.=33.784210, Alt.=104.672913m. Speed=0.432000m/h.</desc>
<speed>0.120000</speed>
</trkpt>
<trkpt lat="44.649834" lon="33.784210">
<ele>104.702209</ele>
<time>2011-10-10T13:57:58Z</time>
<desc>lat.=44.649834, lon.=33.784210, Alt.=104.702209m. Speed=0.540000m/h.</desc>
<speed>0.150000</speed>
</trkpt>
<trkpt lat="44.649826" lon="33.784210">
<ele>104.549866</ele>
<time>2011-10-10T13:58:03Z</time>
<desc>lat.=44.649826, lon.=33.784210, Alt.=104.549866m. Speed=0.396000m/h.</desc>
<speed>0.110000</speed>
</trkpt>
<trkpt lat="44.649826" lon="33.784210">
<ele>104.309631</ele>
<time>2011-10-10T13:58:08Z</time>
<desc>lat.=44.649826, lon.=33.784210, Alt.=104.309631m. Speed=0.180000m/h.</desc>
<speed>0.050000</speed>
</trkpt>
<trkpt lat="44.649822" lon="33.784210">
<ele>104.090881</ele>
<time>2011-10-10T13:58:13Z</time>
<desc>lat.=44.649822, lon.=33.784210, Alt.=104.090881m. Speed=0.180000m/h.</desc>
<speed>0.050000</speed>
</trkpt>
<trkpt lat="44.649826" lon="33.784206">
<ele>103.965881</ele>
<time>2011-10-10T13:58:18Z</time>
<desc>lat.=44.649826, lon.=33.784206, Alt.=103.965881m. Speed=0.036000m/h.</desc>
<speed>0.010000</speed>
</trkpt>
<trkpt lat="44.649826" lon="33.784206">
<ele>103.971741</ele>
<time>2011-10-10T13:58:23Z</time>
<desc>lat.=44.649826, lon.=33.784206, Alt.=103.971741m. Speed=0.144000m/h.</desc>
<speed>0.040000</speed>
</trkpt>
<trkpt lat="44.649826" lon="33.784206">
<ele>103.985413</ele>
<time>2011-10-10T13:58:28Z</time>
<desc>lat.=44.649826, lon.=33.784206, Alt.=103.985413m. Speed=0.000000m/h.</desc>
<speed>0.000000</speed>
</trkpt>
<trkpt lat="44.649826" lon="33.784206">
<ele>104.012756</ele>
<time>2011-10-10T13:58:33Z</time>
<desc>lat.=44.649826, lon.=33.784206, Alt.=104.012756m. Speed=0.000000m/h.</desc>
<speed>0.000000</speed>
</trkpt>
<trkpt lat="44.649822" lon="33.784206">
<ele>104.038147</ele>
<time>2011-10-10T13:58:38Z</time>
<desc>lat.=44.649822, lon.=33.784206, Alt.=104.038147m. Speed=0.072000m/h.</desc>
<speed>0.020000</speed>
</trkpt>
<trkpt lat="44.649822" lon="33.784206">
<ele>104.055725</ele>
<time>2011-10-10T13:58:43Z</time>
<desc>lat.=44.649822, lon.=33.784206, Alt.=104.055725m. Speed=0.360000m/h.</desc>
<speed>0.100000</speed>
</trkpt>
<trkpt lat="44.649822" lon="33.784210">
<ele>104.065491</ele>
<time>2011-10-10T13:58:48Z</time>
<desc>lat.=44.649822, lon.=33.784210, Alt.=104.065491m. Speed=0.072000m/h.</desc>
<speed>0.020000</speed>
</trkpt>
<trkpt lat="44.649822" lon="33.784210">
<ele>104.083069</ele>
<time>2011-10-10T13:58:53Z</time>
<desc>lat.=44.649822, lon.=33.784210, Alt.=104.083069m. Speed=0.000000m/h.</desc>
<speed>0.000000</speed>
</trkpt>
<trkpt lat="44.649822" lon="33.784210">
<ele>104.086975</ele>
<time>2011-10-10T13:58:58Z</time>
<desc>lat.=44.649822, lon.=33.784210, Alt.=104.086975m. Speed=0.000000m/h.</desc>
<speed>0.000000</speed>
</trkpt>
<trkpt lat="44.649818" lon="33.784237">
<ele>104.217834</ele>
<time>2011-10-10T13:59:03Z</time>
<desc>lat.=44.649818, lon.=33.784237, Alt.=104.217834m. Speed=3.996000m/h.</desc>
<speed>1.110000</speed>
</trkpt>
<trkpt lat="44.649750" lon="33.784313">
<ele>104.917053</ele>
<time>2011-10-10T13:59:08Z</time>
<desc>lat.=44.649750, lon.=33.784313, Alt.=104.917053m. Speed=7.128000m/h.</desc>
<speed>1.980000</speed>
</trkpt>
<trkpt lat="44.649677" lon="33.784321">
<ele>105.061584</ele>
<time>2011-10-10T13:59:13Z</time>
<desc>lat.=44.649677, lon.=33.784321, Alt.=105.061584m. Speed=0.072000m/h.</desc>
<speed>0.020000</speed>
</trkpt>
<trkpt lat="44.649670" lon="33.784325">
<ele>105.348694</ele>
<time>2011-10-10T13:59:18Z</time>
<desc>lat.=44.649670, lon.=33.784325, Alt.=105.348694m. Speed=0.036000m/h.</desc>
<speed>0.010000</speed>
</trkpt>
<trkpt lat="44.649670" lon="33.784325">
<ele>105.426819</ele>
<time>2011-10-10T13:59:23Z</time>
<desc>lat.=44.649670, lon.=33.784325, Alt.=105.426819m. Speed=0.000000m/h.</desc>
<speed>0.000000</speed>
</trkpt>
<trkpt lat="44.649670" lon="33.784325">
<ele>105.432678</ele>
<time>2011-10-10T13:59:28Z</time>
<desc>lat.=44.649670, lon.=33.784325, Alt.=105.432678m. Speed=0.468000m/h.</desc>
<speed>0.130000</speed>
</trkpt>
<trkpt lat="44.649670" lon="33.784325">
<ele>105.522522</ele>
<time>2011-10-10T13:59:33Z</time>
<desc>lat.=44.649670, lon.=33.784325, Alt.=105.522522m. Speed=0.288000m/h.</desc>
<speed>0.080000</speed>
</trkpt>
<trkpt lat="44.649670" lon="33.784325">
<ele>105.538147</ele>
<time>2011-10-10T13:59:38Z</time>
<desc>lat.=44.649670, lon.=33.784325, Alt.=105.538147m. Speed=0.108000m/h.</desc>
<speed>0.030000</speed>
</trkpt>
<trkpt lat="44.649677" lon="33.784328">
<ele>106.256897</ele>
<time>2011-10-10T13:59:43Z</time>
<desc>lat.=44.649677, lon.=33.784328, Alt.=106.256897m. Speed=0.360000m/h.</desc>
<speed>0.100000</speed>
</trkpt>
<trkpt lat="44.649677" lon="33.784325">
<ele>106.303772</ele>
<time>2011-10-10T13:59:48Z</time>
<desc>lat.=44.649677, lon.=33.784325, Alt.=106.303772m. Speed=0.108000m/h.</desc>
<speed>0.030000</speed>
</trkpt>
<trkpt lat="44.649677" lon="33.784328">
<ele>106.272522</ele>
<time>2011-10-10T13:59:53Z</time>
<desc>lat.=44.649677, lon.=33.784328, Alt.=106.272522m. Speed=0.108000m/h.</desc>
<speed>0.030000</speed>
</trkpt>
<trkpt lat="44.649654" lon="33.784321">
<ele>106.877991</ele>
<time>2011-10-10T13:59:58Z</time>
<desc>lat.=44.649654, lon.=33.784321, Alt.=106.877991m. Speed=0.144000m/h.</desc>
<speed>0.040000</speed>
</trkpt>
<trkpt lat="44.649635" lon="33.784340">
<ele>106.665100</ele>
<time>2011-10-10T14:00:03Z</time>
<desc>lat.=44.649635, lon.=33.784340, Alt.=106.665100m. Speed=0.468000m/h.</desc>
<speed>0.130000</speed>
</trkpt>
<trkpt lat="44.649635" lon="33.784340">
<ele>106.715881</ele>
<time>2011-10-10T14:00:08Z</time>
<desc>lat.=44.649635, lon.=33.784340, Alt.=106.715881m. Speed=0.144000m/h.</desc>
<speed>0.040000</speed>
</trkpt>
<trkpt lat="44.649635" lon="33.784336">
<ele>106.741272</ele>
<time>2011-10-10T14:00:13Z</time>
<desc>lat.=44.649635, lon.=33.784336, Alt.=106.741272m. Speed=0.180000m/h.</desc>
<speed>0.050000</speed>
</trkpt>
<trkpt lat="44.649635" lon="33.784336">
<ele>106.739319</ele>
<time>2011-10-10T14:00:18Z</time>
<desc>lat.=44.649635, lon.=33.784336, Alt.=106.739319m. Speed=0.216000m/h.</desc>
<speed>0.060000</speed>
</trkpt>
<trkpt lat="44.649635" lon="33.784336">
<ele>106.739319</ele>
<time>2011-10-10T14:00:23Z</time>
<desc>lat.=44.649635, lon.=33.784336, Alt.=106.739319m. Speed=0.324000m/h.</desc>
<speed>0.090000</speed>
</trkpt>
<trkpt lat="44.649635" lon="33.784340">
<ele>106.749084</ele>
<time>2011-10-10T14:00:28Z</time>
<desc>lat.=44.649635, lon.=33.784340, Alt.=106.749084m. Speed=0.108000m/h.</desc>
<speed>0.030000</speed>
</trkpt>
<trkpt lat="44.649628" lon="33.784317">
<ele>106.577209</ele>
<time>2011-10-10T14:00:33Z</time>
<desc>lat.=44.649628, lon.=33.784317, Alt.=106.577209m. Speed=0.252000m/h.</desc>
<speed>0.070000</speed>
</trkpt>
<trkpt lat="44.649624" lon="33.784302">
<ele>106.657288</ele>
<time>2011-10-10T14:00:38Z</time>
<desc>lat.=44.649624, lon.=33.784302, Alt.=106.657288m. Speed=0.144000m/h.</desc>
<speed>0.040000</speed>
</trkpt>
<trkpt lat="44.649597" lon="33.784271">
<ele>107.024475</ele>
<time>2011-10-10T14:00:43Z</time>
<desc>lat.=44.649597, lon.=33.784271, Alt.=107.024475m. Speed=10.476000m/h.</desc>
<speed>2.910000</speed>
</trkpt>
<trkpt lat="44.649479" lon="33.784290">
<ele>107.749084</ele>
<time>2011-10-10T14:00:48Z</time>
<desc>lat.=44.649479, lon.=33.784290, Alt.=107.749084m. Speed=13.500000m/h.</desc>
<speed>3.750000</speed>
</trkpt>
<trkpt lat="44.649342" lon="33.784344">
<ele>109.290100</ele>
<time>2011-10-10T14:00:53Z</time>
<desc>lat.=44.649342, lon.=33.784344, Alt.=109.290100m. Speed=10.800000m/h.</desc>
<speed>3.000000</speed>
</trkpt>
<trkpt lat="44.649189" lon="33.784386">
<ele>108.969788</ele>
<time>2011-10-10T14:00:58Z</time>
<desc>lat.=44.649189, lon.=33.784386, Alt.=108.969788m. Speed=12.060000m/h.</desc>
<speed>3.350000</speed>
</trkpt>
<trkpt lat="44.649033" lon="33.784424">
<ele>106.909241</ele>
<time>2011-10-10T14:01:03Z</time>
<desc>lat.=44.649033, lon.=33.784424, Alt.=106.909241m. Speed=10.512000m/h.</desc>
<speed>2.920000</speed>
</trkpt>
<trkpt lat="44.648918" lon="33.784439">
<ele>105.229553</ele>
<time>2011-10-10T14:01:08Z</time>
<desc>lat.=44.648918, lon.=33.784439, Alt.=105.229553m. Speed=8.532000m/h.</desc>
<speed>2.370000</speed>
</trkpt>
<trkpt lat="44.648754" lon="33.784485">
<ele>103.823303</ele>
<time>2011-10-10T14:01:13Z</time>
<desc>lat.=44.648754, lon.=33.784485, Alt.=103.823303m. Speed=16.955999m/h.</desc>
<speed>4.710000</speed>
</trkpt>
<trkpt lat="44.648529" lon="33.784573">
<ele>102.999084</ele>
<time>2011-10-10T14:01:18Z</time>
<desc>lat.=44.648529, lon.=33.784573, Alt.=102.999084m. Speed=17.351999m/h.</desc>
<speed>4.820000</speed>
</trkpt>
<trkpt lat="44.648296" lon="33.784653">
<ele>102.842834</ele>
<time>2011-10-10T14:01:23Z</time>
<desc>lat.=44.648296, lon.=33.784653, Alt.=102.842834m. Speed=18.431999m/h.</desc>
<speed>5.120000</speed>
</trkpt>
<trkpt lat="44.648067" lon="33.784729">
<ele>102.827209</ele>
<time>2011-10-10T14:01:28Z</time>
<desc>lat.=44.648067, lon.=33.784729, Alt.=102.827209m. Speed=18.323999m/h.</desc>
<speed>5.090000</speed>
</trkpt>
<trkpt lat="44.647861" lon="33.784813">
<ele>103.997131</ele>
<time>2011-10-10T14:01:33Z</time>
<desc>lat.=44.647861, lon.=33.784813, Alt.=103.997131m. Speed=16.236000m/h.</desc>
<speed>4.510000</speed>
</trkpt>
<trkpt lat="44.647659" lon="33.784870">
<ele>104.428772</ele>
<time>2011-10-10T14:01:38Z</time>
<desc>lat.=44.647659, lon.=33.784870, Alt.=104.428772m. Speed=15.948000m/h.</desc>
<speed>4.430000</speed>
</trkpt>
<trkpt lat="44.647449" lon="33.784939">
<ele>104.280334</ele>
<time>2011-10-10T14:01:43Z</time>
<desc>lat.=44.647449, lon.=33.784939, Alt.=104.280334m. Speed=18.143999m/h.</desc>
<speed>5.040000</speed>
</trkpt>
<trkpt lat="44.647251" lon="33.785011">
<ele>103.907288</ele>
<time>2011-10-10T14:01:48Z</time>
<desc>lat.=44.647251, lon.=33.785011, Alt.=103.907288m. Speed=16.812000m/h.</desc>
<speed>4.670000</speed>
</trkpt>
<trkpt lat="44.647011" lon="33.785072">
<ele>103.487366</ele>
<time>2011-10-10T14:01:53Z</time>
<desc>lat.=44.647011, lon.=33.785072, Alt.=103.487366m. Speed=20.375999m/h.</desc>
<speed>5.660000</speed>
</trkpt>
<trkpt lat="44.646748" lon="33.785126">
<ele>103.081116</ele>
<time>2011-10-10T14:01:58Z</time>
<desc>lat.=44.646748, lon.=33.785126, Alt.=103.081116m. Speed=19.691999m/h.</desc>
<speed>5.470000</speed>
</trkpt>
<trkpt lat="44.646484" lon="33.785133">
<ele>103.004944</ele>
<time>2011-10-10T14:02:03Z</time>
<desc>lat.=44.646484, lon.=33.785133, Alt.=103.004944m. Speed=20.736000m/h.</desc>
<speed>5.760000</speed>
</trkpt>
<trkpt lat="44.646217" lon="33.785141">
<ele>103.020569</ele>
<time>2011-10-10T14:02:08Z</time>
<desc>lat.=44.646217, lon.=33.785141, Alt.=103.020569m. Speed=19.836000m/h.</desc>
<speed>5.510000</speed>
</trkpt>
<trkpt lat="44.645954" lon="33.785141">
<ele>103.211975</ele>
<time>2011-10-10T14:02:13Z</time>
<desc>lat.=44.645954, lon.=33.785141, Alt.=103.211975m. Speed=20.700001m/h.</desc>
<speed>5.750000</speed>
</trkpt>
<trkpt lat="44.645706" lon="33.785145">
<ele>103.219788</ele>
<time>2011-10-10T14:02:18Z</time>
<desc>lat.=44.645706, lon.=33.785145, Alt.=103.219788m. Speed=20.556000m/h.</desc>
<speed>5.710000</speed>
</trkpt>
<trkpt lat="44.645432" lon="33.785164">
<ele>103.508850</ele>
<time>2011-10-10T14:02:23Z</time>
<desc>lat.=44.645432, lon.=33.785164, Alt.=103.508850m. Speed=22.572001m/h.</desc>
<speed>6.270000</speed>
</trkpt>
<trkpt lat="44.645180" lon="33.785172">
<ele>104.502991</ele>
<time>2011-10-10T14:02:28Z</time>
<desc>lat.=44.645180, lon.=33.785172, Alt.=104.502991m. Speed=19.188000m/h.</desc>
<speed>5.330000</speed>
</trkpt>
<trkpt lat="44.644951" lon="33.785198">
<ele>105.145569</ele>
<time>2011-10-10T14:02:33Z</time>
<desc>lat.=44.644951, lon.=33.785198, Alt.=105.145569m. Speed=15.984000m/h.</desc>
<speed>4.440000</speed>
</trkpt>
<trkpt lat="44.644745" lon="33.785233">
<ele>105.333069</ele>
<time>2011-10-10T14:02:38Z</time>
<desc>lat.=44.644745, lon.=33.785233, Alt.=105.333069m. Speed=15.300000m/h.</desc>
<speed>4.250000</speed>
</trkpt>
<trkpt lat="44.644573" lon="33.785275">
<ele>105.895569</ele>
<time>2011-10-10T14:02:43Z</time>
<desc>lat.=44.644573, lon.=33.785275, Alt.=105.895569m. Speed=12.996000m/h.</desc>
<speed>3.610000</speed>
</trkpt>
<trkpt lat="44.644413" lon="33.785320">
<ele>106.422913</ele>
<time>2011-10-10T14:02:48Z</time>
<desc>lat.=44.644413, lon.=33.785320, Alt.=106.422913m. Speed=10.512000m/h.</desc>
<speed>2.920000</speed>
</trkpt>
<trkpt lat="44.644329" lon="33.785343">
<ele>106.184631</ele>
<time>2011-10-10T14:02:53Z</time>
<desc>lat.=44.644329, lon.=33.785343, Alt.=106.184631m. Speed=6.768000m/h.</desc>
<speed>1.880000</speed>
</trkpt>
<trkpt lat="44.644245" lon="33.785320">
<ele>106.522522</ele>
<time>2011-10-10T14:02:58Z</time>
<desc>lat.=44.644245, lon.=33.785320, Alt.=106.522522m. Speed=7.920000m/h.</desc>
<speed>2.200000</speed>
</trkpt>
<trkpt lat="44.644154" lon="33.785271">
<ele>106.452209</ele>
<time>2011-10-10T14:03:03Z</time>
<desc>lat.=44.644154, lon.=33.785271, Alt.=106.452209m. Speed=7.056000m/h.</desc>
<speed>1.960000</speed>
</trkpt>
<trkpt lat="44.644051" lon="33.785252">
<ele>106.758850</ele>
<time>2011-10-10T14:03:08Z</time>
<desc>lat.=44.644051, lon.=33.785252, Alt.=106.758850m. Speed=10.440000m/h.</desc>
<speed>2.900000</speed>
</trkpt>
<trkpt lat="44.643883" lon="33.785202">
<ele>106.817444</ele>
<time>2011-10-10T14:03:13Z</time>
<desc>lat.=44.643883, lon.=33.785202, Alt.=106.817444m. Speed=15.912000m/h.</desc>
<speed>4.420000</speed>
</trkpt>
<trkpt lat="44.643665" lon="33.785038">
<ele>105.985413</ele>
<time>2011-10-10T14:03:18Z</time>
<desc>lat.=44.643665, lon.=33.785038, Alt.=105.985413m. Speed=21.780001m/h.</desc>
<speed>6.050000</speed>
</trkpt>
<trkpt lat="44.643459" lon="33.784763">
<ele>105.446350</ele>
<time>2011-10-10T14:03:23Z</time>
<desc>lat.=44.643459, lon.=33.784763, Alt.=105.446350m. Speed=22.212000m/h.</desc>
<speed>6.170000</speed>
</trkpt>
<trkpt lat="44.643242" lon="33.784492">
<ele>104.452209</ele>
<time>2011-10-10T14:03:28Z</time>
<desc>lat.=44.643242, lon.=33.784492, Alt.=104.452209m. Speed=22.716000m/h.</desc>
<speed>6.310000</speed>
</trkpt>
<trkpt lat="44.643059" lon="33.784256">
<ele>104.719788</ele>
<time>2011-10-10T14:03:33Z</time>
<desc>lat.=44.643059, lon.=33.784256, Alt.=104.719788m. Speed=17.784000m/h.</desc>
<speed>4.940000</speed>
</trkpt>
<trkpt lat="44.642906" lon="33.784050">
<ele>105.167053</ele>
<time>2011-10-10T14:03:38Z</time>
<desc>lat.=44.642906, lon.=33.784050, Alt.=105.167053m. Speed=16.920000m/h.</desc>
<speed>4.700000</speed>
</trkpt>
<trkpt lat="44.642784" lon="33.783836">
<ele>106.008850</ele>
<time>2011-10-10T14:03:43Z</time>
<desc>lat.=44.642784, lon.=33.783836, Alt.=106.008850m. Speed=14.940000m/h.</desc>
<speed>4.150000</speed>
</trkpt>
<trkpt lat="44.642761" lon="33.783726">
<ele>106.504944</ele>
<time>2011-10-10T14:03:48Z</time>
<desc>lat.=44.642761, lon.=33.783726, Alt.=106.504944m. Speed=0.432000m/h.</desc>
<speed>0.120000</speed>
</trkpt>
<trkpt lat="44.642761" lon="33.783722">
<ele>106.669006</ele>
<time>2011-10-10T14:03:53Z</time>
<desc>lat.=44.642761, lon.=33.783722, Alt.=106.669006m. Speed=0.036000m/h.</desc>
<speed>0.010000</speed>
</trkpt>
<trkpt lat="44.642761" lon="33.783722">
<ele>106.629944</ele>
<time>2011-10-10T14:03:58Z</time>
<desc>lat.=44.642761, lon.=33.783722, Alt.=106.629944m. Speed=0.000000m/h.</desc>
<speed>0.000000</speed>
</trkpt>
<trkpt lat="44.642761" lon="33.783722">
<ele>106.598694</ele>
<time>2011-10-10T14:04:03Z</time>
<desc>lat.=44.642761, lon.=33.783722, Alt.=106.598694m. Speed=0.036000m/h.</desc>
<speed>0.010000</speed>
</trkpt>
<trkpt lat="44.642761" lon="33.783722">
<ele>106.563538</ele>
<time>2011-10-10T14:04:08Z</time>
<desc>lat.=44.642761, lon.=33.783722, Alt.=106.563538m. Speed=0.216000m/h.</desc>
<speed>0.060000</speed>
</trkpt>
<trkpt lat="44.642757" lon="33.783726">
<ele>106.534241</ele>
<time>2011-10-10T14:04:13Z</time>
<desc>lat.=44.642757, lon.=33.783726, Alt.=106.534241m. Speed=0.288000m/h.</desc>
<speed>0.080000</speed>
</trkpt>
<trkpt lat="44.642757" lon="33.783733">
<ele>106.565491</ele>
<time>2011-10-10T14:04:18Z</time>
<desc>lat.=44.642757, lon.=33.783733, Alt.=106.565491m. Speed=0.648000m/h.</desc>
<speed>0.180000</speed>
</trkpt>
<trkpt lat="44.642757" lon="33.783737">
<ele>106.686584</ele>
<time>2011-10-10T14:04:23Z</time>
<desc>lat.=44.642757, lon.=33.783737, Alt.=106.686584m. Speed=2.196000m/h.</desc>
<speed>0.610000</speed>
</trkpt>
<trkpt lat="44.642757" lon="33.783596">
<ele>107.829163</ele>
<time>2011-10-10T14:04:28Z</time>
<desc>lat.=44.642757, lon.=33.783596, Alt.=107.829163m. Speed=13.536000m/h.</desc>
<speed>3.760000</speed>
</trkpt>
<trkpt lat="44.642776" lon="33.783314">
<ele>108.389709</ele>
<time>2011-10-10T14:04:33Z</time>
<desc>lat.=44.642776, lon.=33.783314, Alt.=108.389709m. Speed=18.216000m/h.</desc>
<speed>5.060000</speed>
</trkpt>
<trkpt lat="44.642799" lon="33.782990">
<ele>109.389709</ele>
<time>2011-10-10T14:04:38Z</time>
<desc>lat.=44.642799, lon.=33.782990, Alt.=109.389709m. Speed=18.756001m/h.</desc>
<speed>5.210000</speed>
</trkpt>
<trkpt lat="44.642841" lon="33.782619">
<ele>109.243225</ele>
<time>2011-10-10T14:04:43Z</time>
<desc>lat.=44.642841, lon.=33.782619, Alt.=109.243225m. Speed=21.528000m/h.</desc>
<speed>5.980000</speed>
</trkpt>
<trkpt lat="44.642876" lon="33.782215">
<ele>108.971741</ele>
<time>2011-10-10T14:04:48Z</time>
<desc>lat.=44.642876, lon.=33.782215, Alt.=108.971741m. Speed=23.364000m/h.</desc>
<speed>6.490000</speed>
</trkpt>
<trkpt lat="44.642887" lon="33.781784">
<ele>108.143616</ele>
<time>2011-10-10T14:04:53Z</time>
<desc>lat.=44.642887, lon.=33.781784, Alt.=108.143616m. Speed=24.587999m/h.</desc>
<speed>6.830000</speed>
</trkpt>
<trkpt lat="44.642944" lon="33.781376">
<ele>106.858459</ele>
<time>2011-10-10T14:04:58Z</time>
<desc>lat.=44.642944, lon.=33.781376, Alt.=106.858459m. Speed=18.792000m/h.</desc>
<speed>5.220000</speed>
</trkpt>
<trkpt lat="44.643047" lon="33.781128">
<ele>107.006897</ele>
<time>2011-10-10T14:05:03Z</time>
<desc>lat.=44.643047, lon.=33.781128, Alt.=107.006897m. Speed=15.624000m/h.</desc>
<speed>4.340000</speed>
</trkpt>
<trkpt lat="44.643093" lon="33.780903">
<ele>107.659241</ele>
<time>2011-10-10T14:05:08Z</time>
<desc>lat.=44.643093, lon.=33.780903, Alt.=107.659241m. Speed=9.108000m/h.</desc>
<speed>2.530000</speed>
</trkpt>
<trkpt lat="44.643063" lon="33.780746">
<ele>108.979553</ele>
<time>2011-10-10T14:05:13Z</time>
<desc>lat.=44.643063, lon.=33.780746, Alt.=108.979553m. Speed=9.360000m/h.</desc>
<speed>2.600000</speed>
</trkpt>
<trkpt lat="44.642963" lon="33.780632">
<ele>109.877991</ele>
<time>2011-10-10T14:05:18Z</time>
<desc>lat.=44.642963, lon.=33.780632, Alt.=109.877991m. Speed=11.304000m/h.</desc>
<speed>3.140000</speed>
</trkpt>
<trkpt lat="44.642826" lon="33.780594">
<ele>110.719788</ele>
<time>2011-10-10T14:05:23Z</time>
<desc>lat.=44.642826, lon.=33.780594, Alt.=110.719788m. Speed=11.196000m/h.</desc>
<speed>3.110000</speed>
</trkpt>
<trkpt lat="44.642685" lon="33.780567">
<ele>111.919006</ele>
<time>2011-10-10T14:05:28Z</time>
<desc>lat.=44.642685, lon.=33.780567, Alt.=111.919006m. Speed=11.376000m/h.</desc>
<speed>3.160000</speed>
</trkpt>
<trkpt lat="44.642548" lon="33.780525">
<ele>112.817444</ele>
<time>2011-10-10T14:05:33Z</time>
<desc>lat.=44.642548, lon.=33.780525, Alt.=112.817444m. Speed=8.352000m/h.</desc>
<speed>2.320000</speed>
</trkpt>
<trkpt lat="44.642426" lon="33.780499">
<ele>113.379944</ele>
<time>2011-10-10T14:05:38Z</time>
<desc>lat.=44.642426, lon.=33.780499, Alt.=113.379944m. Speed=10.260000m/h.</desc>
<speed>2.850000</speed>
</trkpt>
<trkpt lat="44.642273" lon="33.780468">
<ele>114.151428</ele>
<time>2011-10-10T14:05:43Z</time>
<desc>lat.=44.642273, lon.=33.780468, Alt.=114.151428m. Speed=12.168000m/h.</desc>
<speed>3.380000</speed>
</trkpt>
<trkpt lat="44.642109" lon="33.780453">
<ele>114.762756</ele>
<time>2011-10-10T14:05:48Z</time>
<desc>lat.=44.642109, lon.=33.780453, Alt.=114.762756m. Speed=12.960000m/h.</desc>
<speed>3.600000</speed>
</trkpt>
<trkpt lat="44.641949" lon="33.780415">
<ele>115.180725</ele>
<time>2011-10-10T14:05:53Z</time>
<desc>lat.=44.641949, lon.=33.780415, Alt.=115.180725m. Speed=11.844000m/h.</desc>
<speed>3.290000</speed>
</trkpt>
<trkpt lat="44.641785" lon="33.780380">
<ele>115.590881</ele>
<time>2011-10-10T14:05:58Z</time>
<desc>lat.=44.641785, lon.=33.780380, Alt.=115.590881m. Speed=14.436000m/h.</desc>
<speed>4.010000</speed>
</trkpt>
<trkpt lat="44.641624" lon="33.780354">
<ele>116.139709</ele>
<time>2011-10-10T14:06:03Z</time>
<desc>lat.=44.641624, lon.=33.780354, Alt.=116.139709m. Speed=13.464000m/h.</desc>
<speed>3.740000</speed>
</trkpt>
<trkpt lat="44.641453" lon="33.780334">
<ele>116.077209</ele>
<time>2011-10-10T14:06:08Z</time>
<desc>lat.=44.641453, lon.=33.780334, Alt.=116.077209m. Speed=14.400000m/h.</desc>
<speed>4.000000</speed>
</trkpt>
<trkpt lat="44.641270" lon="33.780342">
<ele>116.514709</ele>
<time>2011-10-10T14:06:13Z</time>
<desc>lat.=44.641270, lon.=33.780342, Alt.=116.514709m. Speed=14.112000m/h.</desc>
<speed>3.920000</speed>
</trkpt>
<trkpt lat="44.641087" lon="33.780357">
<ele>116.397522</ele>
<time>2011-10-10T14:06:18Z</time>
<desc>lat.=44.641087, lon.=33.780357, Alt.=116.397522m. Speed=14.436000m/h.</desc>
<speed>4.010000</speed>
</trkpt>
<trkpt lat="44.640900" lon="33.780373">
<ele>116.551819</ele>
<time>2011-10-10T14:06:23Z</time>
<desc>lat.=44.640900, lon.=33.780373, Alt.=116.551819m. Speed=14.832000m/h.</desc>
<speed>4.120000</speed>
</trkpt>
<trkpt lat="44.640713" lon="33.780357">
<ele>116.786194</ele>
<time>2011-10-10T14:06:28Z</time>
<desc>lat.=44.640713, lon.=33.780357, Alt.=116.786194m. Speed=15.228000m/h.</desc>
<speed>4.230000</speed>
</trkpt>
<trkpt lat="44.640541" lon="33.780277">
<ele>117.235413</ele>
<time>2011-10-10T14:06:33Z</time>
<desc>lat.=44.640541, lon.=33.780277, Alt.=117.235413m. Speed=14.724000m/h.</desc>
<speed>4.090000</speed>
</trkpt>
<trkpt lat="44.640381" lon="33.780148">
<ele>117.952209</ele>
<time>2011-10-10T14:06:38Z</time>
<desc>lat.=44.640381, lon.=33.780148, Alt.=117.952209m. Speed=15.516000m/h.</desc>
<speed>4.310000</speed>
</trkpt>
<trkpt lat="44.640213" lon="33.779999">
<ele>118.604553</ele>
<time>2011-10-10T14:06:43Z</time>
<desc>lat.=44.640213, lon.=33.779999, Alt.=118.604553m. Speed=15.228000m/h.</desc>
<speed>4.230000</speed>
</trkpt>
<trkpt lat="44.640049" lon="33.779858">
<ele>118.710022</ele>
<time>2011-10-10T14:06:48Z</time>
<desc>lat.=44.640049, lon.=33.779858, Alt.=118.710022m. Speed=15.660000m/h.</desc>
<speed>4.350000</speed>
</trkpt>
<trkpt lat="44.639870" lon="33.779732">
<ele>119.215881</ele>
<time>2011-10-10T14:06:53Z</time>
<desc>lat.=44.639870, lon.=33.779732, Alt.=119.215881m. Speed=14.868000m/h.</desc>
<speed>4.130000</speed>
</trkpt>
<trkpt lat="44.639683" lon="33.779636">
<ele>119.815491</ele>
<time>2011-10-10T14:06:58Z</time>
<desc>lat.=44.639683, lon.=33.779636, Alt.=119.815491m. Speed=15.840000m/h.</desc>
<speed>4.400000</speed>
</trkpt>
<trkpt lat="44.639538" lon="33.779564">
<ele>120.745178</ele>
<time>2011-10-10T14:07:03Z</time>
<desc>lat.=44.639538, lon.=33.779564, Alt.=120.745178m. Speed=9.756000m/h.</desc>
<speed>2.710000</speed>
</trkpt>
<trkpt lat="44.639408" lon="33.779503">
<ele>121.581116</ele>
<time>2011-10-10T14:07:08Z</time>
<desc>lat.=44.639408, lon.=33.779503, Alt.=121.581116m. Speed=11.952000m/h.</desc>
<speed>3.320000</speed>
</trkpt>
<trkpt lat="44.639271" lon="33.779430">
<ele>121.983459</ele>
<time>2011-10-10T14:07:13Z</time>
<desc>lat.=44.639271, lon.=33.779430, Alt.=121.983459m. Speed=12.744000m/h.</desc>
<speed>3.540000</speed>
</trkpt>
<trkpt lat="44.639111" lon="33.779320">
<ele>122.887756</ele>
<time>2011-10-10T14:07:18Z</time>
<desc>lat.=44.639111, lon.=33.779320, Alt.=122.887756m. Speed=15.840000m/h.</desc>
<speed>4.400000</speed>
</trkpt>
<trkpt lat="44.638943" lon="33.779179">
<ele>123.489319</ele>
<time>2011-10-10T14:07:23Z</time>
<desc>lat.=44.638943, lon.=33.779179, Alt.=123.489319m. Speed=15.984000m/h.</desc>
<speed>4.440000</speed>
</trkpt>
<trkpt lat="44.638760" lon="33.779026">
<ele>124.258850</ele>
<time>2011-10-10T14:07:28Z</time>
<desc>lat.=44.638760, lon.=33.779026, Alt.=124.258850m. Speed=17.676001m/h.</desc>
<speed>4.910000</speed>
</trkpt>
<trkpt lat="44.638584" lon="33.778862">
<ele>124.596741</ele>
<time>2011-10-10T14:07:33Z</time>
<desc>lat.=44.638584, lon.=33.778862, Alt.=124.596741m. Speed=16.236000m/h.</desc>
<speed>4.510000</speed>
</trkpt>
<trkpt lat="44.638416" lon="33.778671">
<ele>125.141663</ele>
<time>2011-10-10T14:07:38Z</time>
<desc>lat.=44.638416, lon.=33.778671, Alt.=125.141663m. Speed=16.667999m/h.</desc>
<speed>4.630000</speed>
</trkpt>
<trkpt lat="44.638256" lon="33.778503">
<ele>124.967834</ele>
<time>2011-10-10T14:07:43Z</time>
<desc>lat.=44.638256, lon.=33.778503, Alt.=124.967834m. Speed=15.804000m/h.</desc>
<speed>4.390000</speed>
</trkpt>
<trkpt lat="44.638084" lon="33.778320">
<ele>124.905334</ele>
<time>2011-10-10T14:07:48Z</time>
<desc>lat.=44.638084, lon.=33.778320, Alt.=124.905334m. Speed=18.216000m/h.</desc>
<speed>5.060000</speed>
</trkpt>
<trkpt lat="44.637917" lon="33.778141">
<ele>125.219788</ele>
<time>2011-10-10T14:07:53Z</time>
<desc>lat.=44.637917, lon.=33.778141, Alt.=125.219788m. Speed=15.768000m/h.</desc>
<speed>4.380000</speed>
</trkpt>
<trkpt lat="44.637760" lon="33.777969">
<ele>125.188538</ele>
<time>2011-10-10T14:07:58Z</time>
<desc>lat.=44.637760, lon.=33.777969, Alt.=125.188538m. Speed=16.704000m/h.</desc>
<speed>4.640000</speed>
</trkpt>
<trkpt lat="44.637585" lon="33.777775">
<ele>125.331116</ele>
<time>2011-10-10T14:08:03Z</time>
<desc>lat.=44.637585, lon.=33.777775, Alt.=125.331116m. Speed=18.035999m/h.</desc>
<speed>5.010000</speed>
</trkpt>
<trkpt lat="44.637402" lon="33.777569">
<ele>125.795959</ele>
<time>2011-10-10T14:08:08Z</time>
<desc>lat.=44.637402, lon.=33.777569, Alt.=125.795959m. Speed=19.007999m/h.</desc>
<speed>5.280000</speed>
</trkpt>
<trkpt lat="44.637218" lon="33.777370">
<ele>125.942444</ele>
<time>2011-10-10T14:08:13Z</time>
<desc>lat.=44.637218, lon.=33.777370, Alt.=125.942444m. Speed=18.323999m/h.</desc>
<speed>5.090000</speed>
</trkpt>
<trkpt lat="44.637020" lon="33.777149">
<ele>125.920959</ele>
<time>2011-10-10T14:08:18Z</time>
<desc>lat.=44.637020, lon.=33.777149, Alt.=125.920959m. Speed=22.464001m/h.</desc>
<speed>6.240000</speed>
</trkpt>
<trkpt lat="44.636795" lon="33.776920">
<ele>125.874084</ele>
<time>2011-10-10T14:08:23Z</time>
<desc>lat.=44.636795, lon.=33.776920, Alt.=125.874084m. Speed=20.988001m/h.</desc>
<speed>5.830000</speed>
</trkpt>
<trkpt lat="44.636589" lon="33.776714">
<ele>126.022522</ele>
<time>2011-10-10T14:08:28Z</time>
<desc>lat.=44.636589, lon.=33.776714, Alt.=126.022522m. Speed=20.375999m/h.</desc>
<speed>5.660000</speed>
</trkpt>
<trkpt lat="44.636379" lon="33.776482">
<ele>125.790100</ele>
<time>2011-10-10T14:08:33Z</time>
<desc>lat.=44.636379, lon.=33.776482, Alt.=125.790100m. Speed=21.600000m/h.</desc>
<speed>6.000000</speed>
</trkpt>
<trkpt lat="44.636196" lon="33.776211">
<ele>126.489319</ele>
<time>2011-10-10T14:08:38Z</time>
<desc>lat.=44.636196, lon.=33.776211, Alt.=126.489319m. Speed=20.700001m/h.</desc>
<speed>5.750000</speed>
</trkpt>
<trkpt lat="44.636028" lon="33.775932">
<ele>127.081116</ele>
<time>2011-10-10T14:08:43Z</time>
<desc>lat.=44.636028, lon.=33.775932, Alt.=127.081116m. Speed=21.455999m/h.</desc>
<speed>5.960000</speed>
</trkpt>
<trkpt lat="44.635857" lon="33.775627">
<ele>127.602600</ele>
<time>2011-10-10T14:08:48Z</time>
<desc>lat.=44.635857, lon.=33.775627, Alt.=127.602600m. Speed=22.212000m/h.</desc>
<speed>6.170000</speed>
</trkpt>
<trkpt lat="44.635708" lon="33.775337">
<ele>128.220825</ele>
<time>2011-10-10T14:08:53Z</time>
<desc>lat.=44.635708, lon.=33.775337, Alt.=128.220825m. Speed=18.180000m/h.</desc>
<speed>5.050000</speed>
</trkpt>
<trkpt lat="44.635582" lon="33.775093">
<ele>128.486450</ele>
<time>2011-10-10T14:08:58Z</time>
<desc>lat.=44.635582, lon.=33.775093, Alt.=128.486450m. Speed=17.243999m/h.</desc>
<speed>4.790000</speed>
</trkpt>
<trkpt lat="44.635471" lon="33.774826">
<ele>129.052856</ele>
<time>2011-10-10T14:09:03Z</time>
<desc>lat.=44.635471, lon.=33.774826, Alt.=129.052856m. Speed=17.747999m/h.</desc>
<speed>4.930000</speed>
</trkpt>
<trkpt lat="44.635387" lon="33.774578">
<ele>130.072388</ele>
<time>2011-10-10T14:09:08Z</time>
<desc>lat.=44.635387, lon.=33.774578, Alt.=130.072388m. Speed=15.732000m/h.</desc>
<speed>4.370000</speed>
</trkpt>
<trkpt lat="44.635330" lon="33.774277">
<ele>130.420044</ele>
<time>2011-10-10T14:09:13Z</time>
<desc>lat.=44.635330, lon.=33.774277, Alt.=130.420044m. Speed=17.604000m/h.</desc>
<speed>4.890000</speed>
</trkpt>
<trkpt lat="44.635292" lon="33.773987">
<ele>130.646606</ele>
<time>2011-10-10T14:09:18Z</time>
<desc>lat.=44.635292, lon.=33.773987, Alt.=130.646606m. Speed=17.856001m/h.</desc>
<speed>4.960000</speed>
</trkpt>
<trkpt lat="44.635262" lon="33.773693">
<ele>131.818481</ele>
<time>2011-10-10T14:09:23Z</time>
<desc>lat.=44.635262, lon.=33.773693, Alt.=131.818481m. Speed=14.472000m/h.</desc>
<speed>4.020000</speed>
</trkpt>
<trkpt lat="44.635242" lon="33.773510">
<ele>132.982544</ele>
<time>2011-10-10T14:09:28Z</time>
<desc>lat.=44.635242, lon.=33.773510, Alt.=132.982544m. Speed=9.900000m/h.</desc>
<speed>2.750000</speed>
</trkpt>
<trkpt lat="44.635227" lon="33.773323">
<ele>134.177856</ele>
<time>2011-10-10T14:09:33Z</time>
<desc>lat.=44.635227, lon.=33.773323, Alt.=134.177856m. Speed=10.836000m/h.</desc>
<speed>3.010000</speed>
</trkpt>
<trkpt lat="44.635223" lon="33.773129">
<ele>134.630981</ele>
<time>2011-10-10T14:09:38Z</time>
<desc>lat.=44.635223, lon.=33.773129, Alt.=134.630981m. Speed=11.628000m/h.</desc>
<speed>3.230000</speed>
</trkpt>
<trkpt lat="44.635208" lon="33.772926">
<ele>135.025513</ele>
<time>2011-10-10T14:09:43Z</time>
<desc>lat.=44.635208, lon.=33.772926, Alt.=135.025513m. Speed=11.376000m/h.</desc>
<speed>3.160000</speed>
</trkpt>
<trkpt lat="44.635197" lon="33.772743">
<ele>135.298950</ele>
<time>2011-10-10T14:09:48Z</time>
<desc>lat.=44.635197, lon.=33.772743, Alt.=135.298950m. Speed=10.800000m/h.</desc>
<speed>3.000000</speed>
</trkpt>
<trkpt lat="44.635197" lon="33.772537">
<ele>135.470825</ele>
<time>2011-10-10T14:09:53Z</time>
<desc>lat.=44.635197, lon.=33.772537, Alt.=135.470825m. Speed=11.952000m/h.</desc>
<speed>3.320000</speed>
</trkpt>
<trkpt lat="44.635201" lon="33.772373">
<ele>135.662231</ele>
<time>2011-10-10T14:09:58Z</time>
<desc>lat.=44.635201, lon.=33.772373, Alt.=135.662231m. Speed=7.524000m/h.</desc>
<speed>2.090000</speed>
</trkpt>
<trkpt lat="44.635189" lon="33.772232">
<ele>136.162231</ele>
<time>2011-10-10T14:10:03Z</time>
<desc>lat.=44.635189, lon.=33.772232, Alt.=136.162231m. Speed=9.108000m/h.</desc>
<speed>2.530000</speed>
</trkpt>
<trkpt lat="44.635201" lon="33.772156">
<ele>136.170044</ele>
<time>2011-10-10T14:10:08Z</time>
<desc>lat.=44.635201, lon.=33.772156, Alt.=136.170044m. Speed=0.072000m/h.</desc>
<speed>0.020000</speed>
</trkpt>
<trkpt lat="44.635201" lon="33.772152">
<ele>136.248169</ele>
<time>2011-10-10T14:10:13Z</time>
<desc>lat.=44.635201, lon.=33.772152, Alt.=136.248169m. Speed=0.000000m/h.</desc>
<speed>0.000000</speed>
</trkpt>
<trkpt lat="44.635201" lon="33.772152">
<ele>136.283325</ele>
<time>2011-10-10T14:10:18Z</time>
<desc>lat.=44.635201, lon.=33.772152, Alt.=136.283325m. Speed=0.036000m/h.</desc>
<speed>0.010000</speed>
</trkpt>
<trkpt lat="44.635201" lon="33.772156">
<ele>136.310669</ele>
<time>2011-10-10T14:10:23Z</time>
<desc>lat.=44.635201, lon.=33.772156, Alt.=136.310669m. Speed=0.000000m/h.</desc>
<speed>0.000000</speed>
</trkpt>
<trkpt lat="44.635201" lon="33.772156">
<ele>136.338013</ele>
<time>2011-10-10T14:10:28Z</time>
<desc>lat.=44.635201, lon.=33.772156, Alt.=136.338013m. Speed=0.072000m/h.</desc>
<speed>0.020000</speed>
</trkpt>
<trkpt lat="44.635201" lon="33.772156">
<ele>136.322388</ele>
<time>2011-10-10T14:10:33Z</time>
<desc>lat.=44.635201, lon.=33.772156, Alt.=136.322388m. Speed=0.108000m/h.</desc>
<speed>0.030000</speed>
</trkpt>
<trkpt lat="44.635201" lon="33.772156">
<ele>136.361450</ele>
<time>2011-10-10T14:10:38Z</time>
<desc>lat.=44.635201, lon.=33.772156, Alt.=136.361450m. Speed=0.108000m/h.</desc>
<speed>0.030000</speed>
</trkpt>
<trkpt lat="44.635201" lon="33.772156">
<ele>136.341919</ele>
<time>2011-10-10T14:10:43Z</time>
<desc>lat.=44.635201, lon.=33.772156, Alt.=136.341919m. Speed=0.072000m/h.</desc>
<speed>0.020000</speed>
</trkpt>
<trkpt lat="44.635201" lon="33.772156">
<ele>136.357544</ele>
<time>2011-10-10T14:10:48Z</time>
<desc>lat.=44.635201, lon.=33.772156, Alt.=136.357544m. Speed=2.916000m/h.</desc>
<speed>0.810000</speed>
</trkpt>
<trkpt lat="44.635204" lon="33.771950">
<ele>136.822388</ele>
<time>2011-10-10T14:10:53Z</time>
<desc>lat.=44.635204, lon.=33.771950, Alt.=136.822388m. Speed=18.000000m/h.</desc>
<speed>5.000000</speed>
</trkpt>
<trkpt lat="44.635193" lon="33.771645">
<ele>136.791138</ele>
<time>2011-10-10T14:10:58Z</time>
<desc>lat.=44.635193, lon.=33.771645, Alt.=136.791138m. Speed=16.200001m/h.</desc>
<speed>4.500000</speed>
</trkpt>
<trkpt lat="44.635201" lon="33.771313">
<ele>137.392700</ele>
<time>2011-10-10T14:11:03Z</time>
<desc>lat.=44.635201, lon.=33.771313, Alt.=137.392700m. Speed=20.628000m/h.</desc>
<speed>5.730000</speed>
</trkpt>
<trkpt lat="44.635235" lon="33.770947">
<ele>137.990356</ele>
<time>2011-10-10T14:11:08Z</time>
<desc>lat.=44.635235, lon.=33.770947, Alt.=137.990356m. Speed=19.799999m/h.</desc>
<speed>5.500000</speed>
</trkpt>
<trkpt lat="44.635281" lon="33.770599">
<ele>138.662231</ele>
<time>2011-10-10T14:11:13Z</time>
<desc>lat.=44.635281, lon.=33.770599, Alt.=138.662231m. Speed=20.087999m/h.</desc>
<speed>5.580000</speed>
</trkpt>
<trkpt lat="44.635300" lon="33.770248">
<ele>139.037231</ele>
<time>2011-10-10T14:11:18Z</time>
<desc>lat.=44.635300, lon.=33.770248, Alt.=139.037231m. Speed=20.304001m/h.</desc>
<speed>5.640000</speed>
</trkpt>
<trkpt lat="44.635281" lon="33.769897">
<ele>139.670044</ele>
<time>2011-10-10T14:11:23Z</time>
<desc>lat.=44.635281, lon.=33.769897, Alt.=139.670044m. Speed=20.016001m/h.</desc>
<speed>5.560000</speed>
</trkpt>
<trkpt lat="44.635223" lon="33.769569">
<ele>140.197388</ele>
<time>2011-10-10T14:11:28Z</time>
<desc>lat.=44.635223, lon.=33.769569, Alt.=140.197388m. Speed=19.152000m/h.</desc>
<speed>5.320000</speed>
</trkpt>
<trkpt lat="44.635151" lon="33.769245">
<ele>140.959106</ele>
<time>2011-10-10T14:11:33Z</time>
<desc>lat.=44.635151, lon.=33.769245, Alt.=140.959106m. Speed=18.972000m/h.</desc>
<speed>5.270000</speed>
</trkpt>
<trkpt lat="44.635071" lon="33.768940">
<ele>141.806763</ele>
<time>2011-10-10T14:11:38Z</time>
<desc>lat.=44.635071, lon.=33.768940, Alt.=141.806763m. Speed=19.224001m/h.</desc>
<speed>5.340000</speed>
</trkpt>
<trkpt lat="44.634972" lon="33.768673">
<ele>142.447388</ele>
<time>2011-10-10T14:11:43Z</time>
<desc>lat.=44.634972, lon.=33.768673, Alt.=142.447388m. Speed=17.856001m/h.</desc>
<speed>4.960000</speed>
</trkpt>
<trkpt lat="44.634842" lon="33.768410">
<ele>142.822388</ele>
<time>2011-10-10T14:11:48Z</time>
<desc>lat.=44.634842, lon.=33.768410, Alt.=142.822388m. Speed=17.208000m/h.</desc>
<speed>4.780000</speed>
</trkpt>
<trkpt lat="44.634727" lon="33.768135">
<ele>143.037231</ele>
<time>2011-10-10T14:11:53Z</time>
<desc>lat.=44.634727, lon.=33.768135, Alt.=143.037231m. Speed=22.176001m/h.</desc>
<speed>6.160000</speed>
</trkpt>
<trkpt lat="44.634544" lon="33.767845">
<ele>143.248169</ele>
<time>2011-10-10T14:11:58Z</time>
<desc>lat.=44.634544, lon.=33.767845, Alt.=143.248169m. Speed=23.507999m/h.</desc>
<speed>6.530000</speed>
</trkpt>
<trkpt lat="44.634426" lon="33.767544">
<ele>143.939575</ele>
<time>2011-10-10T14:12:03Z</time>
<desc>lat.=44.634426, lon.=33.767544, Alt.=143.939575m. Speed=16.524000m/h.</desc>
<speed>4.590000</speed>
</trkpt>
<trkpt lat="44.634350" lon="33.767235">
<ele>144.302856</ele>
<time>2011-10-10T14:12:08Z</time>
<desc>lat.=44.634350, lon.=33.767235, Alt.=144.302856m. Speed=19.728001m/h.</desc>
<speed>5.480000</speed>
</trkpt>
<trkpt lat="44.634254" lon="33.766941">
<ele>144.673950</ele>
<time>2011-10-10T14:12:13Z</time>
<desc>lat.=44.634254, lon.=33.766941, Alt.=144.673950m. Speed=17.927999m/h.</desc>
<speed>4.980000</speed>
</trkpt>
<trkpt lat="44.634155" lon="33.766651">
<ele>145.349731</ele>
<time>2011-10-10T14:12:18Z</time>
<desc>lat.=44.634155, lon.=33.766651, Alt.=145.349731m. Speed=18.468000m/h.</desc>
<speed>5.130000</speed>
</trkpt>
<trkpt lat="44.634048" lon="33.766376">
<ele>146.185669</ele>
<time>2011-10-10T14:12:23Z</time>
<desc>lat.=44.634048, lon.=33.766376, Alt.=146.185669m. Speed=16.667999m/h.</desc>
<speed>4.630000</speed>
</trkpt>
<trkpt lat="44.633915" lon="33.766125">
<ele>146.748169</ele>
<time>2011-10-10T14:12:28Z</time>
<desc>lat.=44.633915, lon.=33.766125, Alt.=146.748169m. Speed=17.964001m/h.</desc>
<speed>4.990000</speed>
</trkpt>
<trkpt lat="44.633762" lon="33.765900">
<ele>147.654419</ele>
<time>2011-10-10T14:12:33Z</time>
<desc>lat.=44.633762, lon.=33.765900, Alt.=147.654419m. Speed=17.639999m/h.</desc>
<speed>4.900000</speed>
</trkpt>
<trkpt lat="44.633610" lon="33.765709">
<ele>148.396606</ele>
<time>2011-10-10T14:12:38Z</time>
<desc>lat.=44.633610, lon.=33.765709, Alt.=148.396606m. Speed=15.012000m/h.</desc>
<speed>4.170000</speed>
</trkpt>
<trkpt lat="44.633511" lon="33.765541">
<ele>149.873169</ele>
<time>2011-10-10T14:12:43Z</time>
<desc>lat.=44.633511, lon.=33.765541, Alt.=149.873169m. Speed=13.464000m/h.</desc>
<speed>3.740000</speed>
</trkpt>
<trkpt lat="44.633430" lon="33.765373">
<ele>151.541138</ele>
<time>2011-10-10T14:12:48Z</time>
<desc>lat.=44.633430, lon.=33.765373, Alt.=151.541138m. Speed=12.456000m/h.</desc>
<speed>3.460000</speed>
</trkpt>
<trkpt lat="44.633385" lon="33.765179">
<ele>151.978638</ele>
<time>2011-10-10T14:12:53Z</time>
<desc>lat.=44.633385, lon.=33.765179, Alt.=151.978638m. Speed=12.060000m/h.</desc>
<speed>3.350000</speed>
</trkpt>
<trkpt lat="44.633354" lon="33.764984">
<ele>152.662231</ele>
<time>2011-10-10T14:12:58Z</time>
<desc>lat.=44.633354, lon.=33.764984, Alt.=152.662231m. Speed=11.232000m/h.</desc>
<speed>3.120000</speed>
</trkpt>
<trkpt lat="44.633335" lon="33.764774">
<ele>153.232544</ele>
<time>2011-10-10T14:13:03Z</time>
<desc>lat.=44.633335, lon.=33.764774, Alt.=153.232544m. Speed=12.456000m/h.</desc>
<speed>3.460000</speed>
</trkpt>
<trkpt lat="44.633354" lon="33.764545">
<ele>153.486450</ele>
<time>2011-10-10T14:13:08Z</time>
<desc>lat.=44.633354, lon.=33.764545, Alt.=153.486450m. Speed=15.588000m/h.</desc>
<speed>4.330000</speed>
</trkpt>
<trkpt lat="44.633438" lon="33.764271">
<ele>153.802856</ele>
<time>2011-10-10T14:13:13Z</time>
<desc>lat.=44.633438, lon.=33.764271, Alt.=153.802856m. Speed=17.856001m/h.</desc>
<speed>4.960000</speed>
</trkpt>
<trkpt lat="44.633556" lon="33.763992">
<ele>153.666138</ele>
<time>2011-10-10T14:13:18Z</time>
<desc>lat.=44.633556, lon.=33.763992, Alt.=153.666138m. Speed=16.848000m/h.</desc>
<speed>4.680000</speed>
</trkpt>
<trkpt lat="44.633671" lon="33.763760">
<ele>154.072388</ele>
<time>2011-10-10T14:13:23Z</time>
<desc>lat.=44.633671, lon.=33.763760, Alt.=154.072388m. Speed=16.128000m/h.</desc>
<speed>4.480000</speed>
</trkpt>
<trkpt lat="44.633751" lon="33.763481">
<ele>154.052856</ele>
<time>2011-10-10T14:13:28Z</time>
<desc>lat.=44.633751, lon.=33.763481, Alt.=154.052856m. Speed=16.775999m/h.</desc>
<speed>4.660000</speed>
</trkpt>
<trkpt lat="44.633797" lon="33.763191">
<ele>154.123169</ele>
<time>2011-10-10T14:13:33Z</time>
<desc>lat.=44.633797, lon.=33.763191, Alt.=154.123169m. Speed=15.876000m/h.</desc>
<speed>4.410000</speed>
</trkpt>
<trkpt lat="44.633801" lon="33.762890">
<ele>153.755981</ele>
<time>2011-10-10T14:13:38Z</time>
<desc>lat.=44.633801, lon.=33.762890, Alt.=153.755981m. Speed=15.084000m/h.</desc>
<speed>4.190000</speed>
</trkpt>
<trkpt lat="44.633759" lon="33.762627">
<ele>153.689575</ele>
<time>2011-10-10T14:13:43Z</time>
<desc>lat.=44.633759, lon.=33.762627, Alt.=153.689575m. Speed=16.091999m/h.</desc>
<speed>4.470000</speed>
</trkpt>
<trkpt lat="44.633675" lon="33.762344">
<ele>153.029419</ele>
<time>2011-10-10T14:13:48Z</time>
<desc>lat.=44.633675, lon.=33.762344, Alt.=153.029419m. Speed=16.308001m/h.</desc>
<speed>4.530000</speed>
</trkpt>
<trkpt lat="44.633614" lon="33.762089">
<ele>153.150513</ele>
<time>2011-10-10T14:13:53Z</time>
<desc>lat.=44.633614, lon.=33.762089, Alt.=153.150513m. Speed=15.876000m/h.</desc>
<speed>4.410000</speed>
</trkpt>
<trkpt lat="44.633564" lon="33.761829">
<ele>153.838013</ele>
<time>2011-10-10T14:13:58Z</time>
<desc>lat.=44.633564, lon.=33.761829, Alt.=153.838013m. Speed=13.536000m/h.</desc>
<speed>3.760000</speed>
</trkpt>
<trkpt lat="44.633495" lon="33.761578">
<ele>154.443481</ele>
<time>2011-10-10T14:14:03Z</time>
<desc>lat.=44.633495, lon.=33.761578, Alt.=154.443481m. Speed=16.524000m/h.</desc>
<speed>4.590000</speed>
</trkpt>
<trkpt lat="44.633392" lon="33.761356">
<ele>154.892700</ele>
<time>2011-10-10T14:14:08Z</time>
<desc>lat.=44.633392, lon.=33.761356, Alt.=154.892700m. Speed=14.508000m/h.</desc>
<speed>4.030000</speed>
</trkpt>
<trkpt lat="44.633278" lon="33.761166">
<ele>155.009888</ele>
<time>2011-10-10T14:14:13Z</time>
<desc>lat.=44.633278, lon.=33.761166, Alt.=155.009888m. Speed=16.056000m/h.</desc>
<speed>4.460000</speed>
</trkpt>
<trkpt lat="44.633144" lon="33.760979">
<ele>155.076294</ele>
<time>2011-10-10T14:14:18Z</time>
<desc>lat.=44.633144, lon.=33.760979, Alt.=155.076294m. Speed=14.472000m/h.</desc>
<speed>4.020000</speed>
</trkpt>
<trkpt lat="44.633045" lon="33.760799">
<ele>155.017700</ele>
<time>2011-10-10T14:14:23Z</time>
<desc>lat.=44.633045, lon.=33.760799, Alt.=155.017700m. Speed=11.880000m/h.</desc>
<speed>3.300000</speed>
</trkpt>
<trkpt lat="44.632942" lon="33.760616">
<ele>155.591919</ele>
<time>2011-10-10T14:14:28Z</time>
<desc>lat.=44.632942, lon.=33.760616, Alt.=155.591919m. Speed=13.680000m/h.</desc>
<speed>3.800000</speed>
</trkpt>
<trkpt lat="44.632843" lon="33.760441">
<ele>155.982544</ele>
<time>2011-10-10T14:14:33Z</time>
<desc>lat.=44.632843, lon.=33.760441, Alt.=155.982544m. Speed=10.908000m/h.</desc>
<speed>3.030000</speed>
</trkpt>
<trkpt lat="44.632763" lon="33.760288">
<ele>156.591919</ele>
<time>2011-10-10T14:14:38Z</time>
<desc>lat.=44.632763, lon.=33.760288, Alt.=156.591919m. Speed=10.800000m/h.</desc>
<speed>3.000000</speed>
</trkpt>
<trkpt lat="44.632683" lon="33.760124">
<ele>157.216919</ele>
<time>2011-10-10T14:14:43Z</time>
<desc>lat.=44.632683, lon.=33.760124, Alt.=157.216919m. Speed=12.024000m/h.</desc>
<speed>3.340000</speed>
</trkpt>
<trkpt lat="44.632591" lon="33.759941">
<ele>157.455200</ele>
<time>2011-10-10T14:14:48Z</time>
<desc>lat.=44.632591, lon.=33.759941, Alt.=157.455200m. Speed=12.924000m/h.</desc>
<speed>3.590000</speed>
</trkpt>
<trkpt lat="44.632484" lon="33.759785">
<ele>157.322388</ele>
<time>2011-10-10T14:14:53Z</time>
<desc>lat.=44.632484, lon.=33.759785, Alt.=157.322388m. Speed=13.356000m/h.</desc>
<speed>3.710000</speed>
</trkpt>
<trkpt lat="44.632370" lon="33.759602">
<ele>157.357544</ele>
<time>2011-10-10T14:14:58Z</time>
<desc>lat.=44.632370, lon.=33.759602, Alt.=157.357544m. Speed=13.464000m/h.</desc>
<speed>3.740000</speed>
</trkpt>
<trkpt lat="44.632240" lon="33.759399">
<ele>157.189575</ele>
<time>2011-10-10T14:15:03Z</time>
<desc>lat.=44.632240, lon.=33.759399, Alt.=157.189575m. Speed=16.596001m/h.</desc>
<speed>4.610000</speed>
</trkpt>
<trkpt lat="44.632114" lon="33.759197">
<ele>157.252075</ele>
<time>2011-10-10T14:15:08Z</time>
<desc>lat.=44.632114, lon.=33.759197, Alt.=157.252075m. Speed=15.912000m/h.</desc>
<speed>4.420000</speed>
</trkpt>
<trkpt lat="44.632000" lon="33.758999">
<ele>157.154419</ele>
<time>2011-10-10T14:15:13Z</time>
<desc>lat.=44.632000, lon.=33.758999, Alt.=157.154419m. Speed=13.320000m/h.</desc>
<speed>3.700000</speed>
</trkpt>
<trkpt lat="44.631893" lon="33.758774">
<ele>157.338013</ele>
<time>2011-10-10T14:15:18Z</time>
<desc>lat.=44.631893, lon.=33.758774, Alt.=157.338013m. Speed=16.091999m/h.</desc>
<speed>4.470000</speed>
</trkpt>
<trkpt lat="44.631786" lon="33.758526">
<ele>158.037231</ele>
<time>2011-10-10T14:15:23Z</time>
<desc>lat.=44.631786, lon.=33.758526, Alt.=158.037231m. Speed=15.840000m/h.</desc>
<speed>4.400000</speed>
</trkpt>
<trkpt lat="44.631680" lon="33.758301">
<ele>158.740356</ele>
<time>2011-10-10T14:15:28Z</time>
<desc>lat.=44.631680, lon.=33.758301, Alt.=158.740356m. Speed=15.192000m/h.</desc>
<speed>4.220000</speed>
</trkpt>
<trkpt lat="44.631550" lon="33.758114">
<ele>158.880981</ele>
<time>2011-10-10T14:15:33Z</time>
<desc>lat.=44.631550, lon.=33.758114, Alt.=158.880981m. Speed=14.184000m/h.</desc>
<speed>3.940000</speed>
</trkpt>
<trkpt lat="44.631401" lon="33.757950">
<ele>158.767700</ele>
<time>2011-10-10T14:15:38Z</time>
<desc>lat.=44.631401, lon.=33.757950, Alt.=158.767700m. Speed=14.148000m/h.</desc>
<speed>3.930000</speed>
</trkpt>
<trkpt lat="44.631279" lon="33.757774">
<ele>158.916138</ele>
<time>2011-10-10T14:15:43Z</time>
<desc>lat.=44.631279, lon.=33.757774, Alt.=158.916138m. Speed=16.128000m/h.</desc>
<speed>4.480000</speed>
</trkpt>
<trkpt lat="44.631199" lon="33.757542">
<ele>159.045044</ele>
<time>2011-10-10T14:15:48Z</time>
<desc>lat.=44.631199, lon.=33.757542, Alt.=159.045044m. Speed=15.912000m/h.</desc>
<speed>4.420000</speed>
</trkpt>
<trkpt lat="44.631104" lon="33.757298">
<ele>159.709106</ele>
<time>2011-10-10T14:15:53Z</time>
<desc>lat.=44.631104, lon.=33.757298, Alt.=159.709106m. Speed=16.416000m/h.</desc>
<speed>4.560000</speed>
</trkpt>
<trkpt lat="44.630985" lon="33.757061">
<ele>160.275513</ele>
<time>2011-10-10T14:15:58Z</time>
<desc>lat.=44.630985, lon.=33.757061, Alt.=160.275513m. Speed=16.848000m/h.</desc>
<speed>4.680000</speed>
</trkpt>
<trkpt lat="44.630878" lon="33.756836">
<ele>160.877075</ele>
<time>2011-10-10T14:16:03Z</time>
<desc>lat.=44.630878, lon.=33.756836, Alt.=160.877075m. Speed=13.428000m/h.</desc>
<speed>3.730000</speed>
</trkpt>
<trkpt lat="44.630821" lon="33.756668">
<ele>160.951294</ele>
<time>2011-10-10T14:16:08Z</time>
<desc>lat.=44.630821, lon.=33.756668, Alt.=160.951294m. Speed=11.052000m/h.</desc>
<speed>3.070000</speed>
</trkpt>
<trkpt lat="44.630783" lon="33.756458">
<ele>161.767700</ele>
<time>2011-10-10T14:16:13Z</time>
<desc>lat.=44.630783, lon.=33.756458, Alt.=161.767700m. Speed=13.824000m/h.</desc>
<speed>3.840000</speed>
</trkpt>
<trkpt lat="44.630730" lon="33.756222">
<ele>162.513794</ele>
<time>2011-10-10T14:16:18Z</time>
<desc>lat.=44.630730, lon.=33.756222, Alt.=162.513794m. Speed=14.436000m/h.</desc>
<speed>4.010000</speed>
</trkpt>
<trkpt lat="44.630650" lon="33.755993">
<ele>163.338013</ele>
<time>2011-10-10T14:16:23Z</time>
<desc>lat.=44.630650, lon.=33.755993, Alt.=163.338013m. Speed=12.708000m/h.</desc>
<speed>3.530000</speed>
</trkpt>
<trkpt lat="44.630581" lon="33.755810">
<ele>164.279419</ele>
<time>2011-10-10T14:16:28Z</time>
<desc>lat.=44.630581, lon.=33.755810, Alt.=164.279419m. Speed=12.420000m/h.</desc>
<speed>3.450000</speed>
</trkpt>
<trkpt lat="44.630489" lon="33.755623">
<ele>165.076294</ele>
<time>2011-10-10T14:16:33Z</time>
<desc>lat.=44.630489, lon.=33.755623, Alt.=165.076294m. Speed=13.068000m/h.</desc>
<speed>3.630000</speed>
</trkpt>
<trkpt lat="44.630394" lon="33.755432">
<ele>165.838013</ele>
<time>2011-10-10T14:16:38Z</time>
<desc>lat.=44.630394, lon.=33.755432, Alt.=165.838013m. Speed=13.536000m/h.</desc>
<speed>3.760000</speed>
</trkpt>
<trkpt lat="44.630287" lon="33.755249">
<ele>166.755981</ele>
<time>2011-10-10T14:16:43Z</time>
<desc>lat.=44.630287, lon.=33.755249, Alt.=166.755981m. Speed=12.528000m/h.</desc>
<speed>3.480000</speed>
</trkpt>
<trkpt lat="44.630173" lon="33.755089">
<ele>167.138794</ele>
<time>2011-10-10T14:16:48Z</time>
<desc>lat.=44.630173, lon.=33.755089, Alt.=167.138794m. Speed=13.176000m/h.</desc>
<speed>3.660000</speed>
</trkpt>
<trkpt lat="44.630089" lon="33.754974">
<ele>167.552856</ele>
<time>2011-10-10T14:16:53Z</time>
<desc>lat.=44.630089, lon.=33.754974, Alt.=167.552856m. Speed=7.416000m/h.</desc>
<speed>2.060000</speed>
</trkpt>
<trkpt lat="44.630001" lon="33.754856">
<ele>167.646606</ele>
<time>2011-10-10T14:16:58Z</time>
<desc>lat.=44.630001, lon.=33.754856, Alt.=167.646606m. Speed=11.304000m/h.</desc>
<speed>3.140000</speed>
</trkpt>
<trkpt lat="44.629894" lon="33.754726">
<ele>167.693481</ele>
<time>2011-10-10T14:17:03Z</time>
<desc>lat.=44.629894, lon.=33.754726, Alt.=167.693481m. Speed=10.620000m/h.</desc>
<speed>2.950000</speed>
</trkpt>
<trkpt lat="44.629795" lon="33.754581">
<ele>166.888794</ele>
<time>2011-10-10T14:17:08Z</time>
<desc>lat.=44.629795, lon.=33.754581, Alt.=166.888794m. Speed=11.952000m/h.</desc>
<speed>3.320000</speed>
</trkpt>
<trkpt lat="44.629677" lon="33.754436">
<ele>166.662231</ele>
<time>2011-10-10T14:17:13Z</time>
<desc>lat.=44.629677, lon.=33.754436, Alt.=166.662231m. Speed=12.600000m/h.</desc>
<speed>3.500000</speed>
</trkpt>
<trkpt lat="44.629559" lon="33.754288">
<ele>166.693481</ele>
<time>2011-10-10T14:17:18Z</time>
<desc>lat.=44.629559, lon.=33.754288, Alt.=166.693481m. Speed=14.112000m/h.</desc>
<speed>3.920000</speed>
</trkpt>
<trkpt lat="44.629436" lon="33.754131">
<ele>167.072388</ele>
<time>2011-10-10T14:17:23Z</time>
<desc>lat.=44.629436, lon.=33.754131, Alt.=167.072388m. Speed=12.636000m/h.</desc>
<speed>3.510000</speed>
</trkpt>
<trkpt lat="44.629337" lon="33.753998">
<ele>167.767700</ele>
<time>2011-10-10T14:17:28Z</time>
<desc>lat.=44.629337, lon.=33.753998, Alt.=167.767700m. Speed=9.108000m/h.</desc>
<speed>2.530000</speed>
</trkpt>
<trkpt lat="44.629265" lon="33.753914">
<ele>167.916138</ele>
<time>2011-10-10T14:17:33Z</time>
<desc>lat.=44.629265, lon.=33.753914, Alt.=167.916138m. Speed=8.640000m/h.</desc>
<speed>2.400000</speed>
</trkpt>
<trkpt lat="44.629189" lon="33.753799">
<ele>168.287231</ele>
<time>2011-10-10T14:17:38Z</time>
<desc>lat.=44.629189, lon.=33.753799, Alt.=168.287231m. Speed=8.388000m/h.</desc>
<speed>2.330000</speed>
</trkpt>
<trkpt lat="44.629082" lon="33.753674">
<ele>168.115356</ele>
<time>2011-10-10T14:17:43Z</time>
<desc>lat.=44.629082, lon.=33.753674, Alt.=168.115356m. Speed=13.284000m/h.</desc>
<speed>3.690000</speed>
</trkpt>
<trkpt lat="44.628960" lon="33.753513">
<ele>168.373169</ele>
<time>2011-10-10T14:17:48Z</time>
<desc>lat.=44.628960, lon.=33.753513, Alt.=168.373169m. Speed=13.428000m/h.</desc>
<speed>3.730000</speed>
</trkpt>
<trkpt lat="44.628834" lon="33.753357">
<ele>168.834106</ele>
<time>2011-10-10T14:17:53Z</time>
<desc>lat.=44.628834, lon.=33.753357, Alt.=168.834106m. Speed=13.500000m/h.</desc>
<speed>3.750000</speed>
</trkpt>
<trkpt lat="44.628716" lon="33.753197">
<ele>168.771606</ele>
<time>2011-10-10T14:17:58Z</time>
<desc>lat.=44.628716, lon.=33.753197, Alt.=168.771606m. Speed=12.564000m/h.</desc>
<speed>3.490000</speed>
</trkpt>
<trkpt lat="44.628582" lon="33.753052">
<ele>168.670044</ele>
<time>2011-10-10T14:18:03Z</time>
<desc>lat.=44.628582, lon.=33.753052, Alt.=168.670044m. Speed=14.076000m/h.</desc>
<speed>3.910000</speed>
</trkpt>
<trkpt lat="44.628475" lon="33.752918">
<ele>169.072388</ele>
<time>2011-10-10T14:18:08Z</time>
<desc>lat.=44.628475, lon.=33.752918, Alt.=169.072388m. Speed=9.396000m/h.</desc>
<speed>2.610000</speed>
</trkpt>
<trkpt lat="44.628391" lon="33.752800">
<ele>169.658325</ele>
<time>2011-10-10T14:18:13Z</time>
<desc>lat.=44.628391, lon.=33.752800, Alt.=169.658325m. Speed=10.404000m/h.</desc>
<speed>2.890000</speed>
</trkpt>
<trkpt lat="44.628300" lon="33.752689">
<ele>170.240356</ele>
<time>2011-10-10T14:18:18Z</time>
<desc>lat.=44.628300, lon.=33.752689, Alt.=170.240356m. Speed=8.856000m/h.</desc>
<speed>2.460000</speed>
</trkpt>
<trkpt lat="44.628250" lon="33.752586">
<ele>170.556763</ele>
<time>2011-10-10T14:18:23Z</time>
<desc>lat.=44.628250, lon.=33.752586, Alt.=170.556763m. Speed=7.488000m/h.</desc>
<speed>2.080000</speed>
</trkpt>
<trkpt lat="44.628181" lon="33.752464">
<ele>171.013794</ele>
<time>2011-10-10T14:18:28Z</time>
<desc>lat.=44.628181, lon.=33.752464, Alt.=171.013794m. Speed=10.044000m/h.</desc>
<speed>2.790000</speed>
</trkpt>
<trkpt lat="44.628098" lon="33.752323">
<ele>172.068481</ele>
<time>2011-10-10T14:18:33Z</time>
<desc>lat.=44.628098, lon.=33.752323, Alt.=172.068481m. Speed=9.756000m/h.</desc>
<speed>2.710000</speed>
</trkpt>
<trkpt lat="44.628029" lon="33.752178">
<ele>173.130981</ele>
<time>2011-10-10T14:18:38Z</time>
<desc>lat.=44.628029, lon.=33.752178, Alt.=173.130981m. Speed=9.612000m/h.</desc>
<speed>2.670000</speed>
</trkpt>
<trkpt lat="44.627975" lon="33.752041">
<ele>174.638794</ele>
<time>2011-10-10T14:18:43Z</time>
<desc>lat.=44.627975, lon.=33.752041, Alt.=174.638794m. Speed=9.072000m/h.</desc>
<speed>2.520000</speed>
</trkpt>
<trkpt lat="44.627922" lon="33.751915">
<ele>176.033325</ele>
<time>2011-10-10T14:18:48Z</time>
<desc>lat.=44.627922, lon.=33.751915, Alt.=176.033325m. Speed=8.028000m/h.</desc>
<speed>2.230000</speed>
</trkpt>
<trkpt lat="44.627888" lon="33.751789">
<ele>177.435669</ele>
<time>2011-10-10T14:18:53Z</time>
<desc>lat.=44.627888, lon.=33.751789, Alt.=177.435669m. Speed=8.532000m/h.</desc>
<speed>2.370000</speed>
</trkpt>
<trkpt lat="44.627827" lon="33.751663">
<ele>178.927856</ele>
<time>2011-10-10T14:18:58Z</time>
<desc>lat.=44.627827, lon.=33.751663, Alt.=178.927856m. Speed=8.244000m/h.</desc>
<speed>2.290000</speed>
</trkpt>
<trkpt lat="44.627769" lon="33.751541">
<ele>180.134888</ele>
<time>2011-10-10T14:19:03Z</time>
<desc>lat.=44.627769, lon.=33.751541, Alt.=180.134888m. Speed=7.344000m/h.</desc>
<speed>2.040000</speed>
</trkpt>
<trkpt lat="44.627716" lon="33.751442">
<ele>180.650513</ele>
<time>2011-10-10T14:19:08Z</time>
<desc>lat.=44.627716, lon.=33.751442, Alt.=180.650513m. Speed=6.660000m/h.</desc>
<speed>1.850000</speed>
</trkpt>
<trkpt lat="44.627647" lon="33.751316">
<ele>181.654419</ele>
<time>2011-10-10T14:19:13Z</time>
<desc>lat.=44.627647, lon.=33.751316, Alt.=181.654419m. Speed=7.596000m/h.</desc>
<speed>2.110000</speed>
</trkpt>
<trkpt lat="44.627598" lon="33.751251">
<ele>181.916138</ele>
<time>2011-10-10T14:19:18Z</time>
<desc>lat.=44.627598, lon.=33.751251, Alt.=181.916138m. Speed=5.148000m/h.</desc>
<speed>1.430000</speed>
</trkpt>
<trkpt lat="44.627548" lon="33.751209">
<ele>181.959106</ele>
<time>2011-10-10T14:19:23Z</time>
<desc>lat.=44.627548, lon.=33.751209, Alt.=181.959106m. Speed=3.132000m/h.</desc>
<speed>0.870000</speed>
</trkpt>
<trkpt lat="44.627541" lon="33.751202">
<ele>181.920044</ele>
<time>2011-10-10T14:19:28Z</time>
<desc>lat.=44.627541, lon.=33.751202, Alt.=181.920044m. Speed=0.540000m/h.</desc>
<speed>0.150000</speed>
</trkpt>
<trkpt lat="44.627541" lon="33.751198">
<ele>181.802856</ele>
<time>2011-10-10T14:19:33Z</time>
<desc>lat.=44.627541, lon.=33.751198, Alt.=181.802856m. Speed=0.072000m/h.</desc>
<speed>0.020000</speed>
</trkpt>
<trkpt lat="44.627537" lon="33.751198">
<ele>181.798950</ele>
<time>2011-10-10T14:19:38Z</time>
<desc>lat.=44.627537, lon.=33.751198, Alt.=181.798950m. Speed=0.000000m/h.</desc>
<speed>0.000000</speed>
</trkpt>
<trkpt lat="44.627537" lon="33.751202">
<ele>181.802856</ele>
<time>2011-10-10T14:19:43Z</time>
<desc>lat.=44.627537, lon.=33.751202, Alt.=181.802856m. Speed=0.036000m/h.</desc>
<speed>0.010000</speed>
</trkpt>
<trkpt lat="44.627537" lon="33.751202">
<ele>181.845825</ele>
<time>2011-10-10T14:19:48Z</time>
<desc>lat.=44.627537, lon.=33.751202, Alt.=181.845825m. Speed=0.108000m/h.</desc>
<speed>0.030000</speed>
</trkpt>
<trkpt lat="44.627537" lon="33.751202">
<ele>181.853638</ele>
<time>2011-10-10T14:19:53Z</time>
<desc>lat.=44.627537, lon.=33.751202, Alt.=181.853638m. Speed=0.072000m/h.</desc>
<speed>0.020000</speed>
</trkpt>
<trkpt lat="44.627541" lon="33.751202">
<ele>181.884888</ele>
<time>2011-10-10T14:19:58Z</time>
<desc>lat.=44.627541, lon.=33.751202, Alt.=181.884888m. Speed=0.720000m/h.</desc>
<speed>0.200000</speed>
</trkpt>
<trkpt lat="44.627541" lon="33.751205">
<ele>181.896606</ele>
<time>2011-10-10T14:20:03Z</time>
<desc>lat.=44.627541, lon.=33.751205, Alt.=181.896606m. Speed=0.000000m/h.</desc>
<speed>0.000000</speed>
</trkpt>
<trkpt lat="44.627541" lon="33.751202">
<ele>181.884888</ele>
<time>2011-10-10T14:20:08Z</time>
<desc>lat.=44.627541, lon.=33.751202, Alt.=181.884888m. Speed=0.036000m/h.</desc>
<speed>0.010000</speed>
</trkpt>
<trkpt lat="44.627533" lon="33.751186">
<ele>182.080200</ele>
<time>2011-10-10T14:20:13Z</time>
<desc>lat.=44.627533, lon.=33.751186, Alt.=182.080200m. Speed=4.140000m/h.</desc>
<speed>1.150000</speed>
</trkpt>
<trkpt lat="44.627499" lon="33.751102">
<ele>181.838013</ele>
<time>2011-10-10T14:20:18Z</time>
<desc>lat.=44.627499, lon.=33.751102, Alt.=181.838013m. Speed=5.400000m/h.</desc>
<speed>1.500000</speed>
</trkpt>
<trkpt lat="44.627438" lon="33.751015">
<ele>181.841919</ele>
<time>2011-10-10T14:20:23Z</time>
<desc>lat.=44.627438, lon.=33.751015, Alt.=181.841919m. Speed=6.048000m/h.</desc>
<speed>1.680000</speed>
</trkpt>
<trkpt lat="44.627422" lon="33.750973">
<ele>181.849731</ele>
<time>2011-10-10T14:20:28Z</time>
<desc>lat.=44.627422, lon.=33.750973, Alt.=181.849731m. Speed=3.024000m/h.</desc>
<speed>0.840000</speed>
</trkpt>
<trkpt lat="44.627415" lon="33.750942">
<ele>181.595825</ele>
<time>2011-10-10T14:20:33Z</time>
<desc>lat.=44.627415, lon.=33.750942, Alt.=181.595825m. Speed=0.396000m/h.</desc>
<speed>0.110000</speed>
</trkpt>
<trkpt lat="44.627419" lon="33.750938">
<ele>181.740356</ele>
<time>2011-10-10T14:20:38Z</time>
<desc>lat.=44.627419, lon.=33.750938, Alt.=181.740356m. Speed=0.036000m/h.</desc>
<speed>0.010000</speed>
</trkpt>
<trkpt lat="44.627396" lon="33.750877">
<ele>181.572388</ele>
<time>2011-10-10T14:20:43Z</time>
<desc>lat.=44.627396, lon.=33.750877, Alt.=181.572388m. Speed=7.632000m/h.</desc>
<speed>2.120000</speed>
</trkpt>
<trkpt lat="44.627316" lon="33.750729">
<ele>180.068481</ele>
<time>2011-10-10T14:20:48Z</time>
<desc>lat.=44.627316, lon.=33.750729, Alt.=180.068481m. Speed=15.192000m/h.</desc>
<speed>4.220000</speed>
</trkpt>
<trkpt lat="44.627178" lon="33.750462">
<ele>178.107544</ele>
<time>2011-10-10T14:20:53Z</time>
<desc>lat.=44.627178, lon.=33.750462, Alt.=178.107544m. Speed=21.563999m/h.</desc>
<speed>5.990000</speed>
</trkpt>
<trkpt lat="44.627010" lon="33.750126">
<ele>176.873169</ele>
<time>2011-10-10T14:20:58Z</time>
<desc>lat.=44.627010, lon.=33.750126, Alt.=176.873169m. Speed=23.076000m/h.</desc>
<speed>6.410000</speed>
</trkpt>
<trkpt lat="44.626850" lon="33.749813">
<ele>177.005981</ele>
<time>2011-10-10T14:21:03Z</time>
<desc>lat.=44.626850, lon.=33.749813, Alt.=177.005981m. Speed=18.864000m/h.</desc>
<speed>5.240000</speed>
</trkpt>
<trkpt lat="44.626724" lon="33.749596">
<ele>177.935669</ele>
<time>2011-10-10T14:21:08Z</time>
<desc>lat.=44.626724, lon.=33.749596, Alt.=177.935669m. Speed=13.248000m/h.</desc>
<speed>3.680000</speed>
</trkpt>
<trkpt lat="44.626648" lon="33.749458">
<ele>178.931763</ele>
<time>2011-10-10T14:21:13Z</time>
<desc>lat.=44.626648, lon.=33.749458, Alt.=178.931763m. Speed=7.200000m/h.</desc>
<speed>2.000000</speed>
</trkpt>
<trkpt lat="44.626617" lon="33.749397">
<ele>178.810669</ele>
<time>2011-10-10T14:21:18Z</time>
<desc>lat.=44.626617, lon.=33.749397, Alt.=178.810669m. Speed=0.324000m/h.</desc>
<speed>0.090000</speed>
</trkpt>
<trkpt lat="44.626614" lon="33.749409">
<ele>178.810669</ele>
<time>2011-10-10T14:21:23Z</time>
<desc>lat.=44.626614, lon.=33.749409, Alt.=178.810669m. Speed=0.000000m/h.</desc>
<speed>0.000000</speed>
</trkpt>
<trkpt lat="44.626614" lon="33.749409">
<ele>178.798950</ele>
<time>2011-10-10T14:21:28Z</time>
<desc>lat.=44.626614, lon.=33.749409, Alt.=178.798950m. Speed=0.000000m/h.</desc>
<speed>0.000000</speed>
</trkpt>
<trkpt lat="44.626614" lon="33.749409">
<ele>178.810669</ele>
<time>2011-10-10T14:21:33Z</time>
<desc>lat.=44.626614, lon.=33.749409, Alt.=178.810669m. Speed=0.036000m/h.</desc>
<speed>0.010000</speed>
</trkpt>
<trkpt lat="44.626614" lon="33.749409">
<ele>178.822388</ele>
<time>2011-10-10T14:21:38Z</time>
<desc>lat.=44.626614, lon.=33.749409, Alt.=178.822388m. Speed=0.000000m/h.</desc>
<speed>0.000000</speed>
</trkpt>
<trkpt lat="44.626614" lon="33.749409">
<ele>178.822388</ele>
<time>2011-10-10T14:21:43Z</time>
<desc>lat.=44.626614, lon.=33.749409, Alt.=178.822388m. Speed=0.036000m/h.</desc>
<speed>0.010000</speed>
</trkpt>
<trkpt lat="44.626617" lon="33.749409">
<ele>178.912231</ele>
<time>2011-10-10T14:21:48Z</time>
<desc>lat.=44.626617, lon.=33.749409, Alt.=178.912231m. Speed=0.288000m/h.</desc>
<speed>0.080000</speed>
</trkpt>
<trkpt lat="44.626617" lon="33.749409">
<ele>178.982544</ele>
<time>2011-10-10T14:21:53Z</time>
<desc>lat.=44.626617, lon.=33.749409, Alt.=178.982544m. Speed=0.072000m/h.</desc>
<speed>0.020000</speed>
</trkpt>
<trkpt lat="44.626617" lon="33.749409">
<ele>178.974731</ele>
<time>2011-10-10T14:21:58Z</time>
<desc>lat.=44.626617, lon.=33.749409, Alt.=178.974731m. Speed=0.036000m/h.</desc>
<speed>0.010000</speed>
</trkpt>
<trkpt lat="44.626617" lon="33.749409">
<ele>178.970825</ele>
<time>2011-10-10T14:22:03Z</time>
<desc>lat.=44.626617, lon.=33.749409, Alt.=178.970825m. Speed=0.000000m/h.</desc>
<speed>0.000000</speed>
</trkpt>
<trkpt lat="44.626617" lon="33.749409">
<ele>178.966919</ele>
<time>2011-10-10T14:22:08Z</time>
<desc>lat.=44.626617, lon.=33.749409, Alt.=178.966919m. Speed=0.216000m/h.</desc>
<speed>0.060000</speed>
</trkpt>
<trkpt lat="44.626598" lon="33.749336">
<ele>178.666138</ele>
<time>2011-10-10T14:22:13Z</time>
<desc>lat.=44.626598, lon.=33.749336, Alt.=178.666138m. Speed=7.704000m/h.</desc>
<speed>2.140000</speed>
</trkpt>
<trkpt lat="44.626541" lon="33.749138">
<ele>177.220825</ele>
<time>2011-10-10T14:22:18Z</time>
<desc>lat.=44.626541, lon.=33.749138, Alt.=177.220825m. Speed=16.704000m/h.</desc>
<speed>4.640000</speed>
</trkpt>
<trkpt lat="44.626438" lon="33.748806">
<ele>174.478638</ele>
<time>2011-10-10T14:22:23Z</time>
<desc>lat.=44.626438, lon.=33.748806, Alt.=174.478638m. Speed=25.200001m/h.</desc>
<speed>7.000000</speed>
</trkpt>
<trkpt lat="44.626236" lon="33.748360">
<ele>170.861450</ele>
<time>2011-10-10T14:22:28Z</time>
<desc>lat.=44.626236, lon.=33.748360, Alt.=170.861450m. Speed=33.119999m/h.</desc>
<speed>9.200000</speed>
</trkpt>
<trkpt lat="44.625977" lon="33.747887">
<ele>167.884888</ele>
<time>2011-10-10T14:22:33Z</time>
<desc>lat.=44.625977, lon.=33.747887, Alt.=167.884888m. Speed=33.335999m/h.</desc>
<speed>9.260000</speed>
</trkpt>
<trkpt lat="44.625725" lon="33.747467">
<ele>166.005981</ele>
<time>2011-10-10T14:22:38Z</time>
<desc>lat.=44.625725, lon.=33.747467, Alt.=166.005981m. Speed=30.024000m/h.</desc>
<speed>8.340000</speed>
</trkpt>
<trkpt lat="44.625500" lon="33.747063">
<ele>164.584106</ele>
<time>2011-10-10T14:22:43Z</time>
<desc>lat.=44.625500, lon.=33.747063, Alt.=164.584106m. Speed=28.188000m/h.</desc>
<speed>7.830000</speed>
</trkpt>
<trkpt lat="44.625301" lon="33.746693">
<ele>164.502075</ele>
<time>2011-10-10T14:22:48Z</time>
<desc>lat.=44.625301, lon.=33.746693, Alt.=164.502075m. Speed=24.768000m/h.</desc>
<speed>6.880000</speed>
</trkpt>
<trkpt lat="44.625134" lon="33.746353">
<ele>163.701294</ele>
<time>2011-10-10T14:22:53Z</time>
<desc>lat.=44.625134, lon.=33.746353, Alt.=163.701294m. Speed=21.528000m/h.</desc>
<speed>5.980000</speed>
</trkpt>
<trkpt lat="44.624962" lon="33.746124">
<ele>163.045044</ele>
<time>2011-10-10T14:22:58Z</time>
<desc>lat.=44.624962, lon.=33.746124, Alt.=163.045044m. Speed=17.063999m/h.</desc>
<speed>4.740000</speed>
</trkpt>
<trkpt lat="44.624825" lon="33.745953">
<ele>162.931763</ele>
<time>2011-10-10T14:23:03Z</time>
<desc>lat.=44.624825, lon.=33.745953, Alt.=162.931763m. Speed=10.944000m/h.</desc>
<speed>3.040000</speed>
</trkpt>
<trkpt lat="44.624756" lon="33.745827">
<ele>163.576294</ele>
<time>2011-10-10T14:23:08Z</time>
<desc>lat.=44.624756, lon.=33.745827, Alt.=163.576294m. Speed=11.916000m/h.</desc>
<speed>3.310000</speed>
</trkpt>
<trkpt lat="44.624683" lon="33.745647">
<ele>163.435669</ele>
<time>2011-10-10T14:23:13Z</time>
<desc>lat.=44.624683, lon.=33.745647, Alt.=163.435669m. Speed=12.780000m/h.</desc>
<speed>3.550000</speed>
</trkpt>
<trkpt lat="44.624672" lon="33.745472">
<ele>163.959106</ele>
<time>2011-10-10T14:23:18Z</time>
<desc>lat.=44.624672, lon.=33.745472, Alt.=163.959106m. Speed=8.352000m/h.</desc>
<speed>2.320000</speed>
</trkpt>
<trkpt lat="44.624672" lon="33.745296">
<ele>164.013794</ele>
<time>2011-10-10T14:23:23Z</time>
<desc>lat.=44.624672, lon.=33.745296, Alt.=164.013794m. Speed=10.692000m/h.</desc>
<speed>2.970000</speed>
</trkpt>
<trkpt lat="44.624691" lon="33.745068">
<ele>165.650513</ele>
<time>2011-10-10T14:23:28Z</time>
<desc>lat.=44.624691, lon.=33.745068, Alt.=165.650513m. Speed=13.644000m/h.</desc>
<speed>3.790000</speed>
</trkpt>
<trkpt lat="44.624676" lon="33.744881">
<ele>165.599731</ele>
<time>2011-10-10T14:23:33Z</time>
<desc>lat.=44.624676, lon.=33.744881, Alt.=165.599731m. Speed=11.520000m/h.</desc>
<speed>3.200000</speed>
</trkpt>
<trkpt lat="44.624638" lon="33.744694">
<ele>165.248169</ele>
<time>2011-10-10T14:23:38Z</time>
<desc>lat.=44.624638, lon.=33.744694, Alt.=165.248169m. Speed=9.324000m/h.</desc>
<speed>2.590000</speed>
</trkpt>
<trkpt lat="44.624611" lon="33.744511">
<ele>164.548950</ele>
<time>2011-10-10T14:23:43Z</time>
<desc>lat.=44.624611, lon.=33.744511, Alt.=164.548950m. Speed=11.664000m/h.</desc>
<speed>3.240000</speed>
</trkpt>
<trkpt lat="44.624561" lon="33.744301">
<ele>164.123169</ele>
<time>2011-10-10T14:23:48Z</time>
<desc>lat.=44.624561, lon.=33.744301, Alt.=164.123169m. Speed=13.176000m/h.</desc>
<speed>3.660000</speed>
</trkpt>
<trkpt lat="44.624462" lon="33.744095">
<ele>164.295044</ele>
<time>2011-10-10T14:23:53Z</time>
<desc>lat.=44.624462, lon.=33.744095, Alt.=164.295044m. Speed=14.004000m/h.</desc>
<speed>3.890000</speed>
</trkpt>
<trkpt lat="44.624382" lon="33.743889">
<ele>166.236450</ele>
<time>2011-10-10T14:23:58Z</time>
<desc>lat.=44.624382, lon.=33.743889, Alt.=166.236450m. Speed=12.708000m/h.</desc>
<speed>3.530000</speed>
</trkpt>
<trkpt lat="44.624325" lon="33.743706">
<ele>165.779419</ele>
<time>2011-10-10T14:24:03Z</time>
<desc>lat.=44.624325, lon.=33.743706, Alt.=165.779419m. Speed=10.548000m/h.</desc>
<speed>2.930000</speed>
</trkpt>
<trkpt lat="44.624283" lon="33.743546">
<ele>165.568481</ele>
<time>2011-10-10T14:24:08Z</time>
<desc>lat.=44.624283, lon.=33.743546, Alt.=165.568481m. Speed=9.828000m/h.</desc>
<speed>2.730000</speed>
</trkpt>
<trkpt lat="44.624268" lon="33.743343">
<ele>165.220825</ele>
<time>2011-10-10T14:24:13Z</time>
<desc>lat.=44.624268, lon.=33.743343, Alt.=165.220825m. Speed=13.392000m/h.</desc>
<speed>3.720000</speed>
</trkpt>
<trkpt lat="44.624256" lon="33.743114">
<ele>165.076294</ele>
<time>2011-10-10T14:24:18Z</time>
<desc>lat.=44.624256, lon.=33.743114, Alt.=165.076294m. Speed=13.248000m/h.</desc>
<speed>3.680000</speed>
</trkpt>
<trkpt lat="44.624233" lon="33.742889">
<ele>164.759888</ele>
<time>2011-10-10T14:24:23Z</time>
<desc>lat.=44.624233, lon.=33.742889, Alt.=164.759888m. Speed=12.564000m/h.</desc>
<speed>3.490000</speed>
</trkpt>
<trkpt lat="44.624214" lon="33.742668">
<ele>164.306763</ele>
<time>2011-10-10T14:24:28Z</time>
<desc>lat.=44.624214, lon.=33.742668, Alt.=164.306763m. Speed=12.744000m/h.</desc>
<speed>3.540000</speed>
</trkpt>
<trkpt lat="44.624195" lon="33.742451">
<ele>163.931763</ele>
<time>2011-10-10T14:24:33Z</time>
<desc>lat.=44.624195, lon.=33.742451, Alt.=163.931763m. Speed=12.240000m/h.</desc>
<speed>3.400000</speed>
</trkpt>
<trkpt lat="44.624176" lon="33.742279">
<ele>164.490356</ele>
<time>2011-10-10T14:24:38Z</time>
<desc>lat.=44.624176, lon.=33.742279, Alt.=164.490356m. Speed=7.848000m/h.</desc>
<speed>2.180000</speed>
</trkpt>
<trkpt lat="44.624161" lon="33.742146">
<ele>165.232544</ele>
<time>2011-10-10T14:24:43Z</time>
<desc>lat.=44.624161, lon.=33.742146, Alt.=165.232544m. Speed=9.936000m/h.</desc>
<speed>2.760000</speed>
</trkpt>
<trkpt lat="44.624134" lon="33.741943">
<ele>165.533325</ele>
<time>2011-10-10T14:24:48Z</time>
<desc>lat.=44.624134, lon.=33.741943, Alt.=165.533325m. Speed=13.212000m/h.</desc>
<speed>3.670000</speed>
</trkpt>
<trkpt lat="44.624115" lon="33.741760">
<ele>165.873169</ele>
<time>2011-10-10T14:24:53Z</time>
<desc>lat.=44.624115, lon.=33.741760, Alt.=165.873169m. Speed=8.676000m/h.</desc>
<speed>2.410000</speed>
</trkpt>
<trkpt lat="44.624104" lon="33.741600">
<ele>165.459106</ele>
<time>2011-10-10T14:24:58Z</time>
<desc>lat.=44.624104, lon.=33.741600, Alt.=165.459106m. Speed=10.728000m/h.</desc>
<speed>2.980000</speed>
</trkpt>
<trkpt lat="44.624088" lon="33.741386">
<ele>164.978638</ele>
<time>2011-10-10T14:25:03Z</time>
<desc>lat.=44.624088, lon.=33.741386, Alt.=164.978638m. Speed=13.248000m/h.</desc>
<speed>3.680000</speed>
</trkpt>
<trkpt lat="44.624062" lon="33.741116">
<ele>163.982544</ele>
<time>2011-10-10T14:25:08Z</time>
<desc>lat.=44.624062, lon.=33.741116, Alt.=163.982544m. Speed=16.848000m/h.</desc>
<speed>4.680000</speed>
</trkpt>
<trkpt lat="44.623997" lon="33.740837">
<ele>163.545044</ele>
<time>2011-10-10T14:25:13Z</time>
<desc>lat.=44.623997, lon.=33.740837, Alt.=163.545044m. Speed=14.976000m/h.</desc>
<speed>4.160000</speed>
</trkpt>
<trkpt lat="44.623932" lon="33.740688">
<ele>164.111450</ele>
<time>2011-10-10T14:25:18Z</time>
<desc>lat.=44.623932, lon.=33.740688, Alt.=164.111450m. Speed=8.604000m/h.</desc>
<speed>2.390000</speed>
</trkpt>
<trkpt lat="44.623894" lon="33.740589">
<ele>164.572388</ele>
<time>2011-10-10T14:25:23Z</time>
<desc>lat.=44.623894, lon.=33.740589, Alt.=164.572388m. Speed=7.416000m/h.</desc>
<speed>2.060000</speed>
</trkpt>
<trkpt lat="44.623829" lon="33.740517">
<ele>165.283325</ele>
<time>2011-10-10T14:25:28Z</time>
<desc>lat.=44.623829, lon.=33.740517, Alt.=165.283325m. Speed=3.672000m/h.</desc>
<speed>1.020000</speed>
</trkpt>
<trkpt lat="44.623787" lon="33.740482">
<ele>164.939575</ele>
<time>2011-10-10T14:25:33Z</time>
<desc>lat.=44.623787, lon.=33.740482, Alt.=164.939575m. Speed=4.680000m/h.</desc>
<speed>1.300000</speed>
</trkpt>
<trkpt lat="44.623745" lon="33.740433">
<ele>164.666138</ele>
<time>2011-10-10T14:25:38Z</time>
<desc>lat.=44.623745, lon.=33.740433, Alt.=164.666138m. Speed=5.220000m/h.</desc>
<speed>1.450000</speed>
</trkpt>
<trkpt lat="44.623726" lon="33.740402">
<ele>164.377075</ele>
<time>2011-10-10T14:25:43Z</time>
<desc>lat.=44.623726, lon.=33.740402, Alt.=164.377075m. Speed=0.864000m/h.</desc>
<speed>0.240000</speed>
</trkpt>
<trkpt lat="44.623722" lon="33.740395">
<ele>164.255981</ele>
<time>2011-10-10T14:25:48Z</time>
<desc>lat.=44.623722, lon.=33.740395, Alt.=164.255981m. Speed=0.036000m/h.</desc>
<speed>0.010000</speed>
</trkpt>
<trkpt lat="44.623722" lon="33.740395">
<ele>164.205200</ele>
<time>2011-10-10T14:25:53Z</time>
<desc>lat.=44.623722, lon.=33.740395, Alt.=164.205200m. Speed=0.036000m/h.</desc>
<speed>0.010000</speed>
</trkpt>
<trkpt lat="44.623722" lon="33.740395">
<ele>164.185669</ele>
<time>2011-10-10T14:25:58Z</time>
<desc>lat.=44.623722, lon.=33.740395, Alt.=164.185669m. Speed=0.072000m/h.</desc>
<speed>0.020000</speed>
</trkpt>
<trkpt lat="44.623722" lon="33.740395">
<ele>164.197388</ele>
<time>2011-10-10T14:26:03Z</time>
<desc>lat.=44.623722, lon.=33.740395, Alt.=164.197388m. Speed=0.072000m/h.</desc>
<speed>0.020000</speed>
</trkpt>
<trkpt lat="44.623722" lon="33.740395">
<ele>164.193481</ele>
<time>2011-10-10T14:26:08Z</time>
<desc>lat.=44.623722, lon.=33.740395, Alt.=164.193481m. Speed=1.152000m/h.</desc>
<speed>0.320000</speed>
</trkpt>
<trkpt lat="44.623661" lon="33.740379">
<ele>164.302856</ele>
<time>2011-10-10T14:26:13Z</time>
<desc>lat.=44.623661, lon.=33.740379, Alt.=164.302856m. Speed=8.244000m/h.</desc>
<speed>2.290000</speed>
</trkpt>
<trkpt lat="44.623547" lon="33.740295">
<ele>164.107544</ele>
<time>2011-10-10T14:26:18Z</time>
<desc>lat.=44.623547, lon.=33.740295, Alt.=164.107544m. Speed=11.196000m/h.</desc>
<speed>3.110000</speed>
</trkpt>
<trkpt lat="44.623417" lon="33.740215">
<ele>164.740356</ele>
<time>2011-10-10T14:26:23Z</time>
<desc>lat.=44.623417, lon.=33.740215, Alt.=164.740356m. Speed=10.692000m/h.</desc>
<speed>2.970000</speed>
</trkpt>
<trkpt lat="44.623283" lon="33.740116">
<ele>164.259888</ele>
<time>2011-10-10T14:26:28Z</time>
<desc>lat.=44.623283, lon.=33.740116, Alt.=164.259888m. Speed=13.572000m/h.</desc>
<speed>3.770000</speed>
</trkpt>
<trkpt lat="44.623165" lon="33.740032">
<ele>164.521606</ele>
<time>2011-10-10T14:26:33Z</time>
<desc>lat.=44.623165, lon.=33.740032, Alt.=164.521606m. Speed=6.804000m/h.</desc>
<speed>1.890000</speed>
</trkpt>
<trkpt lat="44.623066" lon="33.739971">
<ele>165.134888</ele>
<time>2011-10-10T14:26:38Z</time>
<desc>lat.=44.623066, lon.=33.739971, Alt.=165.134888m. Speed=11.124000m/h.</desc>
<speed>3.090000</speed>
</trkpt>
<trkpt lat="44.622925" lon="33.739872">
<ele>164.912231</ele>
<time>2011-10-10T14:26:43Z</time>
<desc>lat.=44.622925, lon.=33.739872, Alt.=164.912231m. Speed=13.752000m/h.</desc>
<speed>3.820000</speed>
</trkpt>
<trkpt lat="44.622765" lon="33.739784">
<ele>165.002075</ele>
<time>2011-10-10T14:26:48Z</time>
<desc>lat.=44.622765, lon.=33.739784, Alt.=165.002075m. Speed=13.680000m/h.</desc>
<speed>3.800000</speed>
</trkpt>
<trkpt lat="44.622620" lon="33.739674">
<ele>165.431763</ele>
<time>2011-10-10T14:26:53Z</time>
<desc>lat.=44.622620, lon.=33.739674, Alt.=165.431763m. Speed=14.148000m/h.</desc>
<speed>3.930000</speed>
</trkpt>
<trkpt lat="44.622475" lon="33.739544">
<ele>165.935669</ele>
<time>2011-10-10T14:26:58Z</time>
<desc>lat.=44.622475, lon.=33.739544, Alt.=165.935669m. Speed=14.940000m/h.</desc>
<speed>4.150000</speed>
</trkpt>
<trkpt lat="44.622334" lon="33.739403">
<ele>166.088013</ele>
<time>2011-10-10T14:27:03Z</time>
<desc>lat.=44.622334, lon.=33.739403, Alt.=166.088013m. Speed=14.040000m/h.</desc>
<speed>3.900000</speed>
</trkpt>
<trkpt lat="44.622185" lon="33.739254">
<ele>166.033325</ele>
<time>2011-10-10T14:27:08Z</time>
<desc>lat.=44.622185, lon.=33.739254, Alt.=166.033325m. Speed=14.832000m/h.</desc>
<speed>4.120000</speed>
</trkpt>
<trkpt lat="44.622051" lon="33.739098">
<ele>166.482544</ele>
<time>2011-10-10T14:27:13Z</time>
<desc>lat.=44.622051, lon.=33.739098, Alt.=166.482544m. Speed=14.868000m/h.</desc>
<speed>4.130000</speed>
</trkpt>
<trkpt lat="44.621914" lon="33.738949">
<ele>166.736450</ele>
<time>2011-10-10T14:27:18Z</time>
<desc>lat.=44.621914, lon.=33.738949, Alt.=166.736450m. Speed=13.896000m/h.</desc>
<speed>3.860000</speed>
</trkpt>
<trkpt lat="44.621780" lon="33.738819">
<ele>166.923950</ele>
<time>2011-10-10T14:27:23Z</time>
<desc>lat.=44.621780, lon.=33.738819, Alt.=166.923950m. Speed=12.744000m/h.</desc>
<speed>3.540000</speed>
</trkpt>
<trkpt lat="44.621662" lon="33.738708">
<ele>167.255981</ele>
<time>2011-10-10T14:27:28Z</time>
<desc>lat.=44.621662, lon.=33.738708, Alt.=167.255981m. Speed=10.404000m/h.</desc>
<speed>2.890000</speed>
</trkpt>
<trkpt lat="44.621552" lon="33.738583">
<ele>167.240356</ele>
<time>2011-10-10T14:27:33Z</time>
<desc>lat.=44.621552, lon.=33.738583, Alt.=167.240356m. Speed=12.852000m/h.</desc>
<speed>3.570000</speed>
</trkpt>
<trkpt lat="44.621452" lon="33.738415">
<ele>167.420044</ele>
<time>2011-10-10T14:27:38Z</time>
<desc>lat.=44.621452, lon.=33.738415, Alt.=167.420044m. Speed=12.312000m/h.</desc>
<speed>3.420000</speed>
</trkpt>
<trkpt lat="44.621368" lon="33.738255">
<ele>167.107544</ele>
<time>2011-10-10T14:27:43Z</time>
<desc>lat.=44.621368, lon.=33.738255, Alt.=167.107544m. Speed=12.168000m/h.</desc>
<speed>3.380000</speed>
</trkpt>
<trkpt lat="44.621284" lon="33.738087">
<ele>167.392700</ele>
<time>2011-10-10T14:27:48Z</time>
<desc>lat.=44.621284, lon.=33.738087, Alt.=167.392700m. Speed=12.168000m/h.</desc>
<speed>3.380000</speed>
</trkpt>
<trkpt lat="44.621197" lon="33.737904">
<ele>167.939575</ele>
<time>2011-10-10T14:27:53Z</time>
<desc>lat.=44.621197, lon.=33.737904, Alt.=167.939575m. Speed=11.736000m/h.</desc>
<speed>3.260000</speed>
</trkpt>
<trkpt lat="44.621117" lon="33.737732">
<ele>168.345825</ele>
<time>2011-10-10T14:27:58Z</time>
<desc>lat.=44.621117, lon.=33.737732, Alt.=168.345825m. Speed=10.116000m/h.</desc>
<speed>2.810000</speed>
</trkpt>
<trkpt lat="44.621086" lon="33.737617">
<ele>167.650513</ele>
<time>2011-10-10T14:28:03Z</time>
<desc>lat.=44.621086, lon.=33.737617, Alt.=167.650513m. Speed=4.788000m/h.</desc>
<speed>1.330000</speed>
</trkpt>
<trkpt lat="44.621078" lon="33.737606">
<ele>166.127075</ele>
<time>2011-10-10T14:28:08Z</time>
<desc>lat.=44.621078, lon.=33.737606, Alt.=166.127075m. Speed=0.036000m/h.</desc>
<speed>0.010000</speed>
</trkpt>
<trkpt lat="44.621075" lon="33.737606">
<ele>166.080200</ele>
<time>2011-10-10T14:28:13Z</time>
<desc>lat.=44.621075, lon.=33.737606, Alt.=166.080200m. Speed=0.000000m/h.</desc>
<speed>0.000000</speed>
</trkpt>
<trkpt lat="44.621075" lon="33.737606">
<ele>166.021606</ele>
<time>2011-10-10T14:28:18Z</time>
<desc>lat.=44.621075, lon.=33.737606, Alt.=166.021606m. Speed=0.036000m/h.</desc>
<speed>0.010000</speed>
</trkpt>
<trkpt lat="44.621075" lon="33.737606">
<ele>165.990356</ele>
<time>2011-10-10T14:28:23Z</time>
<desc>lat.=44.621075, lon.=33.737606, Alt.=165.990356m. Speed=0.036000m/h.</desc>
<speed>0.010000</speed>
</trkpt>
<trkpt lat="44.621075" lon="33.737606">
<ele>165.986450</ele>
<time>2011-10-10T14:28:28Z</time>
<desc>lat.=44.621075, lon.=33.737606, Alt.=165.986450m. Speed=0.468000m/h.</desc>
<speed>0.130000</speed>
</trkpt>
<trkpt lat="44.621075" lon="33.737591">
<ele>166.013794</ele>
<time>2011-10-10T14:28:33Z</time>
<desc>lat.=44.621075, lon.=33.737591, Alt.=166.013794m. Speed=4.320000m/h.</desc>
<speed>1.200000</speed>
</trkpt>
<trkpt lat="44.621021" lon="33.737549">
<ele>164.486450</ele>
<time>2011-10-10T14:28:38Z</time>
<desc>lat.=44.621021, lon.=33.737549, Alt.=164.486450m. Speed=5.400000m/h.</desc>
<speed>1.500000</speed>
</trkpt>
<trkpt lat="44.620956" lon="33.737572">
<ele>165.150513</ele>
<time>2011-10-10T14:28:43Z</time>
<desc>lat.=44.620956, lon.=33.737572, Alt.=165.150513m. Speed=6.480000m/h.</desc>
<speed>1.800000</speed>
</trkpt>
<trkpt lat="44.620892" lon="33.737587">
<ele>165.158325</ele>
<time>2011-10-10T14:28:48Z</time>
<desc>lat.=44.620892, lon.=33.737587, Alt.=165.158325m. Speed=5.292000m/h.</desc>
<speed>1.470000</speed>
</trkpt>
<trkpt lat="44.620831" lon="33.737576">
<ele>164.877075</ele>
<time>2011-10-10T14:28:53Z</time>
<desc>lat.=44.620831, lon.=33.737576, Alt.=164.877075m. Speed=6.552000m/h.</desc>
<speed>1.820000</speed>
</trkpt>
<trkpt lat="44.620735" lon="33.737595">
<ele>165.865356</ele>
<time>2011-10-10T14:28:58Z</time>
<desc>lat.=44.620735, lon.=33.737595, Alt.=165.865356m. Speed=8.712000m/h.</desc>
<speed>2.420000</speed>
</trkpt>
<trkpt lat="44.620613" lon="33.737530">
<ele>166.236450</ele>
<time>2011-10-10T14:29:03Z</time>
<desc>lat.=44.620613, lon.=33.737530, Alt.=166.236450m. Speed=11.880000m/h.</desc>
<speed>3.300000</speed>
</trkpt>
<trkpt lat="44.620457" lon="33.737476">
<ele>166.783325</ele>
<time>2011-10-10T14:29:08Z</time>
<desc>lat.=44.620457, lon.=33.737476, Alt.=166.783325m. Speed=13.536000m/h.</desc>
<speed>3.760000</speed>
</trkpt>
<trkpt lat="44.620262" lon="33.737461">
<ele>166.970825</ele>
<time>2011-10-10T14:29:13Z</time>
<desc>lat.=44.620262, lon.=33.737461, Alt.=166.970825m. Speed=17.639999m/h.</desc>
<speed>4.900000</speed>
</trkpt>
<trkpt lat="44.620037" lon="33.737434">
<ele>167.189575</ele>
<time>2011-10-10T14:29:18Z</time>
<desc>lat.=44.620037, lon.=33.737434, Alt.=167.189575m. Speed=18.504000m/h.</desc>
<speed>5.140000</speed>
</trkpt>
<trkpt lat="44.619797" lon="33.737423">
<ele>167.748169</ele>
<time>2011-10-10T14:29:23Z</time>
<desc>lat.=44.619797, lon.=33.737423, Alt.=167.748169m. Speed=18.576000m/h.</desc>
<speed>5.160000</speed>
</trkpt>
<trkpt lat="44.619568" lon="33.737404">
<ele>167.978638</ele>
<time>2011-10-10T14:29:28Z</time>
<desc>lat.=44.619568, lon.=33.737404, Alt.=167.978638m. Speed=17.388000m/h.</desc>
<speed>4.830000</speed>
</trkpt>
<trkpt lat="44.619343" lon="33.737408">
<ele>169.052856</ele>
<time>2011-10-10T14:29:33Z</time>
<desc>lat.=44.619343, lon.=33.737408, Alt.=169.052856m. Speed=19.476000m/h.</desc>
<speed>5.410000</speed>
</trkpt>
<trkpt lat="44.619106" lon="33.737427">
<ele>169.959106</ele>
<time>2011-10-10T14:29:38Z</time>
<desc>lat.=44.619106, lon.=33.737427, Alt.=169.959106m. Speed=16.775999m/h.</desc>
<speed>4.660000</speed>
</trkpt>
<trkpt lat="44.618893" lon="33.737438">
<ele>170.744263</ele>
<time>2011-10-10T14:29:43Z</time>
<desc>lat.=44.618893, lon.=33.737438, Alt.=170.744263m. Speed=17.784000m/h.</desc>
<speed>4.940000</speed>
</trkpt>
<trkpt lat="44.618683" lon="33.737461">
<ele>171.341919</ele>
<time>2011-10-10T14:29:48Z</time>
<desc>lat.=44.618683, lon.=33.737461, Alt.=171.341919m. Speed=16.416000m/h.</desc>
<speed>4.560000</speed>
</trkpt>
<trkpt lat="44.618465" lon="33.737492">
<ele>171.912231</ele>
<time>2011-10-10T14:29:53Z</time>
<desc>lat.=44.618465, lon.=33.737492, Alt.=171.912231m. Speed=17.028000m/h.</desc>
<speed>4.730000</speed>
</trkpt>
<trkpt lat="44.618263" lon="33.737511">
<ele>172.599731</ele>
<time>2011-10-10T14:29:58Z</time>
<desc>lat.=44.618263, lon.=33.737511, Alt.=172.599731m. Speed=15.624000m/h.</desc>
<speed>4.340000</speed>
</trkpt>
<trkpt lat="44.618073" lon="33.737530">
<ele>173.849731</ele>
<time>2011-10-10T14:30:03Z</time>
<desc>lat.=44.618073, lon.=33.737530, Alt.=173.849731m. Speed=14.220000m/h.</desc>
<speed>3.950000</speed>
</trkpt>
<trkpt lat="44.617889" lon="33.737595">
<ele>174.681763</ele>
<time>2011-10-10T14:30:08Z</time>
<desc>lat.=44.617889, lon.=33.737595, Alt.=174.681763m. Speed=14.256000m/h.</desc>
<speed>3.960000</speed>
</trkpt>
<trkpt lat="44.617748" lon="33.737682">
<ele>175.041138</ele>
<time>2011-10-10T14:30:13Z</time>
<desc>lat.=44.617748, lon.=33.737682, Alt.=175.041138m. Speed=10.692000m/h.</desc>
<speed>2.970000</speed>
</trkpt>
<trkpt lat="44.617641" lon="33.737728">
<ele>175.416138</ele>
<time>2011-10-10T14:30:18Z</time>
<desc>lat.=44.617641, lon.=33.737728, Alt.=175.416138m. Speed=9.648000m/h.</desc>
<speed>2.680000</speed>
</trkpt>
<trkpt lat="44.617519" lon="33.737789">
<ele>175.818481</ele>
<time>2011-10-10T14:30:23Z</time>
<desc>lat.=44.617519, lon.=33.737789, Alt.=175.818481m. Speed=10.440000m/h.</desc>
<speed>2.900000</speed>
</trkpt>
<trkpt lat="44.617386" lon="33.737827">
<ele>176.236450</ele>
<time>2011-10-10T14:30:28Z</time>
<desc>lat.=44.617386, lon.=33.737827, Alt.=176.236450m. Speed=11.412000m/h.</desc>
<speed>3.170000</speed>
</trkpt>
<trkpt lat="44.617237" lon="33.737846">
<ele>176.388794</ele>
<time>2011-10-10T14:30:33Z</time>
<desc>lat.=44.617237, lon.=33.737846, Alt.=176.388794m. Speed=11.556000m/h.</desc>
<speed>3.210000</speed>
</trkpt>
<trkpt lat="44.617123" lon="33.737858">
<ele>176.291138</ele>
<time>2011-10-10T14:30:38Z</time>
<desc>lat.=44.617123, lon.=33.737858, Alt.=176.291138m. Speed=8.604000m/h.</desc>
<speed>2.390000</speed>
</trkpt>
<trkpt lat="44.616993" lon="33.737881">
<ele>176.009888</ele>
<time>2011-10-10T14:30:43Z</time>
<desc>lat.=44.616993, lon.=33.737881, Alt.=176.009888m. Speed=11.844000m/h.</desc>
<speed>3.290000</speed>
</trkpt>
<trkpt lat="44.616867" lon="33.737892">
<ele>176.994263</ele>
<time>2011-10-10T14:30:48Z</time>
<desc>lat.=44.616867, lon.=33.737892, Alt.=176.994263m. Speed=8.964000m/h.</desc>
<speed>2.490000</speed>
</trkpt>
<trkpt lat="44.616768" lon="33.737907">
<ele>176.935669</ele>
<time>2011-10-10T14:30:53Z</time>
<desc>lat.=44.616768, lon.=33.737907, Alt.=176.935669m. Speed=9.612000m/h.</desc>
<speed>2.670000</speed>
</trkpt>
<trkpt lat="44.616638" lon="33.737881">
<ele>177.435669</ele>
<time>2011-10-10T14:30:58Z</time>
<desc>lat.=44.616638, lon.=33.737881, Alt.=177.435669m. Speed=10.872000m/h.</desc>
<speed>3.020000</speed>
</trkpt>
<trkpt lat="44.616531" lon="33.737831">
<ele>178.326294</ele>
<time>2011-10-10T14:31:03Z</time>
<desc>lat.=44.616531, lon.=33.737831, Alt.=178.326294m. Speed=5.904000m/h.</desc>
<speed>1.640000</speed>
</trkpt>
<trkpt lat="44.616524" lon="33.737816">
<ele>178.416138</ele>
<time>2011-10-10T14:31:08Z</time>
<desc>lat.=44.616524, lon.=33.737816, Alt.=178.416138m. Speed=0.288000m/h.</desc>
<speed>0.080000</speed>
</trkpt>
<trkpt lat="44.616524" lon="33.737816">
<ele>178.416138</ele>
<time>2011-10-10T14:31:13Z</time>
<desc>lat.=44.616524, lon.=33.737816, Alt.=178.416138m. Speed=0.072000m/h.</desc>
<speed>0.020000</speed>
</trkpt>
<trkpt lat="44.616524" lon="33.737816">
<ele>178.416138</ele>
<time>2011-10-10T14:31:18Z</time>
<desc>lat.=44.616524, lon.=33.737816, Alt.=178.416138m. Speed=0.000000m/h.</desc>
<speed>0.000000</speed>
</trkpt>
<trkpt lat="44.616524" lon="33.737816">
<ele>178.396606</ele>
<time>2011-10-10T14:31:23Z</time>
<desc>lat.=44.616524, lon.=33.737816, Alt.=178.396606m. Speed=0.072000m/h.</desc>
<speed>0.020000</speed>
</trkpt>
<trkpt lat="44.616524" lon="33.737816">
<ele>178.416138</ele>
<time>2011-10-10T14:31:28Z</time>
<desc>lat.=44.616524, lon.=33.737816, Alt.=178.416138m. Speed=0.072000m/h.</desc>
<speed>0.020000</speed>
</trkpt>
<trkpt lat="44.616524" lon="33.737812">
<ele>178.420044</ele>
<time>2011-10-10T14:31:33Z</time>
<desc>lat.=44.616524, lon.=33.737812, Alt.=178.420044m. Speed=0.000000m/h.</desc>
<speed>0.000000</speed>
</trkpt>
<trkpt lat="44.616520" lon="33.737812">
<ele>178.400513</ele>
<time>2011-10-10T14:31:38Z</time>
<desc>lat.=44.616520, lon.=33.737812, Alt.=178.400513m. Speed=0.360000m/h.</desc>
<speed>0.100000</speed>
</trkpt>
<trkpt lat="44.616520" lon="33.737812">
<ele>178.330200</ele>
<time>2011-10-10T14:31:43Z</time>
<desc>lat.=44.616520, lon.=33.737812, Alt.=178.330200m. Speed=0.036000m/h.</desc>
<speed>0.010000</speed>
</trkpt>
<trkpt lat="44.616520" lon="33.737812">
<ele>178.322388</ele>
<time>2011-10-10T14:31:48Z</time>
<desc>lat.=44.616520, lon.=33.737812, Alt.=178.322388m. Speed=0.000000m/h.</desc>
<speed>0.000000</speed>
</trkpt>
<trkpt lat="44.616520" lon="33.737812">
<ele>178.326294</ele>
<time>2011-10-10T14:31:53Z</time>
<desc>lat.=44.616520, lon.=33.737812, Alt.=178.326294m. Speed=0.036000m/h.</desc>
<speed>0.010000</speed>
</trkpt>
<trkpt lat="44.616520" lon="33.737812">
<ele>178.330200</ele>
<time>2011-10-10T14:31:58Z</time>
<desc>lat.=44.616520, lon.=33.737812, Alt.=178.330200m. Speed=0.000000m/h.</desc>
<speed>0.000000</speed>
</trkpt>
<trkpt lat="44.616520" lon="33.737816">
<ele>178.365356</ele>
<time>2011-10-10T14:32:03Z</time>
<desc>lat.=44.616520, lon.=33.737816, Alt.=178.365356m. Speed=0.432000m/h.</desc>
<speed>0.120000</speed>
</trkpt>
<trkpt lat="44.616520" lon="33.737816">
<ele>178.365356</ele>
<time>2011-10-10T14:32:08Z</time>
<desc>lat.=44.616520, lon.=33.737816, Alt.=178.365356m. Speed=0.540000m/h.</desc>
<speed>0.150000</speed>
</trkpt>
<trkpt lat="44.616512" lon="33.737808">
<ele>178.353638</ele>
<time>2011-10-10T14:32:13Z</time>
<desc>lat.=44.616512, lon.=33.737808, Alt.=178.353638m. Speed=1.692000m/h.</desc>
<speed>0.470000</speed>
</trkpt>
<trkpt lat="44.616505" lon="33.737801">
<ele>178.584106</ele>
<time>2011-10-10T14:32:18Z</time>
<desc>lat.=44.616505, lon.=33.737801, Alt.=178.584106m. Speed=2.304000m/h.</desc>
<speed>0.640000</speed>
</trkpt>
<trkpt lat="44.616474" lon="33.737823">
<ele>178.033325</ele>
<time>2011-10-10T14:32:23Z</time>
<desc>lat.=44.616474, lon.=33.737823, Alt.=178.033325m. Speed=1.548000m/h.</desc>
<speed>0.430000</speed>
</trkpt>
<trkpt lat="44.616478" lon="33.737827">
<ele>177.263794</ele>
<time>2011-10-10T14:32:28Z</time>
<desc>lat.=44.616478, lon.=33.737827, Alt.=177.263794m. Speed=0.000000m/h.</desc>
<speed>0.000000</speed>
</trkpt>
<trkpt lat="44.616474" lon="33.737831">
<ele>177.267700</ele>
<time>2011-10-10T14:32:33Z</time>
<desc>lat.=44.616474, lon.=33.737831, Alt.=177.267700m. Speed=2.376000m/h.</desc>
<speed>0.660000</speed>
</trkpt>
<trkpt lat="44.616451" lon="33.737831">
<ele>176.763794</ele>
<time>2011-10-10T14:32:38Z</time>
<desc>lat.=44.616451, lon.=33.737831, Alt.=176.763794m. Speed=0.972000m/h.</desc>
<speed>0.270000</speed>
</trkpt>
<trkpt lat="44.616451" lon="33.737827">
<ele>176.361450</ele>
<time>2011-10-10T14:32:43Z</time>
<desc>lat.=44.616451, lon.=33.737827, Alt.=176.361450m. Speed=0.144000m/h.</desc>
<speed>0.040000</speed>
</trkpt>
<trkpt lat="44.616432" lon="33.737831">
<ele>175.892700</ele>
<time>2011-10-10T14:32:48Z</time>
<desc>lat.=44.616432, lon.=33.737831, Alt.=175.892700m. Speed=3.348000m/h.</desc>
<speed>0.930000</speed>
</trkpt>
<trkpt lat="44.616409" lon="33.737877">
<ele>175.505981</ele>
<time>2011-10-10T14:32:53Z</time>
<desc>lat.=44.616409, lon.=33.737877, Alt.=175.505981m. Speed=4.536000m/h.</desc>
<speed>1.260000</speed>
</trkpt>
<trkpt lat="44.616383" lon="33.737957">
<ele>175.986450</ele>
<time>2011-10-10T14:32:58Z</time>
<desc>lat.=44.616383, lon.=33.737957, Alt.=175.986450m. Speed=4.212000m/h.</desc>
<speed>1.170000</speed>
</trkpt>
<trkpt lat="44.616367" lon="33.738007">
<ele>178.791138</ele>
<time>2011-10-10T14:33:03Z</time>
<desc>lat.=44.616367, lon.=33.738007, Alt.=178.791138m. Speed=1.404000m/h.</desc>
<speed>0.390000</speed>
</trkpt>
<trkpt lat="44.616360" lon="33.737999">
<ele>178.388794</ele>
<time>2011-10-10T14:33:08Z</time>
<desc>lat.=44.616360, lon.=33.737999, Alt.=178.388794m. Speed=0.036000m/h.</desc>
<speed>0.010000</speed>
</trkpt>
<trkpt lat="44.616360" lon="33.738003">
<ele>178.392700</ele>
<time>2011-10-10T14:33:13Z</time>
<desc>lat.=44.616360, lon.=33.738003, Alt.=178.392700m. Speed=0.000000m/h.</desc>
<speed>0.000000</speed>
</trkpt>
<trkpt lat="44.616360" lon="33.738003">
<ele>178.420044</ele>
<time>2011-10-10T14:33:18Z</time>
<desc>lat.=44.616360, lon.=33.738003, Alt.=178.420044m. Speed=0.000000m/h.</desc>
<speed>0.000000</speed>
</trkpt>
<trkpt lat="44.616360" lon="33.738003">
<ele>178.439575</ele>
<time>2011-10-10T14:33:23Z</time>
<desc>lat.=44.616360, lon.=33.738003, Alt.=178.439575m. Speed=0.000000m/h.</desc>
<speed>0.000000</speed>
</trkpt>
<trkpt lat="44.616360" lon="33.738003">
<ele>178.423950</ele>
<time>2011-10-10T14:33:28Z</time>
<desc>lat.=44.616360, lon.=33.738003, Alt.=178.423950m. Speed=0.108000m/h.</desc>
<speed>0.030000</speed>
</trkpt>
<trkpt lat="44.616360" lon="33.738041">
<ele>178.392700</ele>
<time>2011-10-10T14:33:33Z</time>
<desc>lat.=44.616360, lon.=33.738041, Alt.=178.392700m. Speed=1.764000m/h.</desc>
<speed>0.490000</speed>
</trkpt>
<trkpt lat="44.616344" lon="33.738060">
<ele>178.005981</ele>
<time>2011-10-10T14:33:38Z</time>
<desc>lat.=44.616344, lon.=33.738060, Alt.=178.005981m. Speed=1.116000m/h.</desc>
<speed>0.310000</speed>
</trkpt>
<trkpt lat="44.616348" lon="33.738064">
<ele>177.884888</ele>
<time>2011-10-10T14:33:43Z</time>
<desc>lat.=44.616348, lon.=33.738064, Alt.=177.884888m. Speed=0.504000m/h.</desc>
<speed>0.140000</speed>
</trkpt>
<trkpt lat="44.616348" lon="33.738064">
<ele>177.873169</ele>
<time>2011-10-10T14:33:48Z</time>
<desc>lat.=44.616348, lon.=33.738064, Alt.=177.873169m. Speed=0.072000m/h.</desc>
<speed>0.020000</speed>
</trkpt>
<trkpt lat="44.616348" lon="33.738064">
<ele>177.943481</ele>
<time>2011-10-10T14:33:53Z</time>
<desc>lat.=44.616348, lon.=33.738064, Alt.=177.943481m. Speed=0.612000m/h.</desc>
<speed>0.170000</speed>
</trkpt>
<trkpt lat="44.616344" lon="33.738068">
<ele>177.939575</ele>
<time>2011-10-10T14:33:58Z</time>
<desc>lat.=44.616344, lon.=33.738068, Alt.=177.939575m. Speed=1.296000m/h.</desc>
<speed>0.360000</speed>
</trkpt>
<trkpt lat="44.616344" lon="33.738071">
<ele>178.005981</ele>
<time>2011-10-10T14:34:03Z</time>
<desc>lat.=44.616344, lon.=33.738071, Alt.=178.005981m. Speed=0.396000m/h.</desc>
<speed>0.110000</speed>
</trkpt>
<trkpt lat="44.616344" lon="33.738079">
<ele>177.841919</ele>
<time>2011-10-10T14:34:08Z</time>
<desc>lat.=44.616344, lon.=33.738079, Alt.=177.841919m. Speed=0.360000m/h.</desc>
<speed>0.100000</speed>
</trkpt>
<trkpt lat="44.616341" lon="33.738079">
<ele>177.400513</ele>
<time>2011-10-10T14:34:13Z</time>
<desc>lat.=44.616341, lon.=33.738079, Alt.=177.400513m. Speed=1.080000m/h.</desc>
<speed>0.300000</speed>
</trkpt>
<trkpt lat="44.616341" lon="33.738056">
<ele>176.474731</ele>
<time>2011-10-10T14:34:18Z</time>
<desc>lat.=44.616341, lon.=33.738056, Alt.=176.474731m. Speed=0.216000m/h.</desc>
<speed>0.060000</speed>
</trkpt>
<trkpt lat="44.616341" lon="33.738056">
<ele>176.291138</ele>
<time>2011-10-10T14:34:23Z</time>
<desc>lat.=44.616341, lon.=33.738056, Alt.=176.291138m. Speed=0.504000m/h.</desc>
<speed>0.140000</speed>
</trkpt>
<trkpt lat="44.616341" lon="33.738056">
<ele>176.041138</ele>
<time>2011-10-10T14:34:28Z</time>
<desc>lat.=44.616341, lon.=33.738056, Alt.=176.041138m. Speed=0.216000m/h.</desc>
<speed>0.060000</speed>
</trkpt>
<trkpt lat="44.616344" lon="33.738056">
<ele>175.959106</ele>
<time>2011-10-10T14:34:33Z</time>
<desc>lat.=44.616344, lon.=33.738056, Alt.=175.959106m. Speed=0.792000m/h.</desc>
<speed>0.220000</speed>
</trkpt>
<trkpt lat="44.616348" lon="33.738056">
<ele>175.853638</ele>
<time>2011-10-10T14:34:38Z</time>
<desc>lat.=44.616348, lon.=33.738056, Alt.=175.853638m. Speed=0.036000m/h.</desc>
<speed>0.010000</speed>
</trkpt>
<trkpt lat="44.616352" lon="33.738056">
<ele>175.681763</ele>
<time>2011-10-10T14:34:43Z</time>
<desc>lat.=44.616352, lon.=33.738056, Alt.=175.681763m. Speed=0.072000m/h.</desc>
<speed>0.020000</speed>
</trkpt>
<trkpt lat="44.616352" lon="33.738056">
<ele>175.681763</ele>
<time>2011-10-10T14:34:48Z</time>
<desc>lat.=44.616352, lon.=33.738056, Alt.=175.681763m. Speed=0.468000m/h.</desc>
<speed>0.130000</speed>
</trkpt>
<trkpt lat="44.616356" lon="33.738056">
<ele>175.724731</ele>
<time>2011-10-10T14:34:53Z</time>
<desc>lat.=44.616356, lon.=33.738056, Alt.=175.724731m. Speed=0.252000m/h.</desc>
<speed>0.070000</speed>
</trkpt>
<trkpt lat="44.616356" lon="33.738052">
<ele>175.865356</ele>
<time>2011-10-10T14:34:58Z</time>
<desc>lat.=44.616356, lon.=33.738052, Alt.=175.865356m. Speed=0.036000m/h.</desc>
<speed>0.010000</speed>
</trkpt>
<trkpt lat="44.616356" lon="33.738052">
<ele>175.865356</ele>
<time>2011-10-10T14:35:03Z</time>
<desc>lat.=44.616356, lon.=33.738052, Alt.=175.865356m. Speed=0.432000m/h.</desc>
<speed>0.120000</speed>
</trkpt>
<trkpt lat="44.616356" lon="33.738052">
<ele>175.865356</ele>
<time>2011-10-10T14:35:08Z</time>
<desc>lat.=44.616356, lon.=33.738052, Alt.=175.865356m. Speed=0.396000m/h.</desc>
<speed>0.110000</speed>
</trkpt>
<trkpt lat="44.616356" lon="33.738052">
<ele>175.857544</ele>
<time>2011-10-10T14:35:13Z</time>
<desc>lat.=44.616356, lon.=33.738052, Alt.=175.857544m. Speed=0.396000m/h.</desc>
<speed>0.110000</speed>
</trkpt>
<trkpt lat="44.616356" lon="33.738052">
<ele>175.853638</ele>
<time>2011-10-10T14:35:18Z</time>
<desc>lat.=44.616356, lon.=33.738052, Alt.=175.853638m. Speed=0.432000m/h.</desc>
<speed>0.120000</speed>
</trkpt>
<trkpt lat="44.616356" lon="33.738052">
<ele>175.849731</ele>
<time>2011-10-10T14:35:23Z</time>
<desc>lat.=44.616356, lon.=33.738052, Alt.=175.849731m. Speed=0.036000m/h.</desc>
<speed>0.010000</speed>
</trkpt>
<trkpt lat="44.616371" lon="33.738026">
<ele>175.666138</ele>
<time>2011-10-10T14:35:28Z</time>
<desc>lat.=44.616371, lon.=33.738026, Alt.=175.666138m. Speed=3.780000m/h.</desc>
<speed>1.050000</speed>
</trkpt>
<trkpt lat="44.616413" lon="33.737949">
<ele>175.920044</ele>
<time>2011-10-10T14:35:33Z</time>
<desc>lat.=44.616413, lon.=33.737949, Alt.=175.920044m. Speed=2.736000m/h.</desc>
<speed>0.760000</speed>
</trkpt>
<trkpt lat="44.616394" lon="33.737881">
<ele>177.236450</ele>
<time>2011-10-10T14:35:38Z</time>
<desc>lat.=44.616394, lon.=33.737881, Alt.=177.236450m. Speed=2.016000m/h.</desc>
<speed>0.560000</speed>
</trkpt>
<trkpt lat="44.616386" lon="33.737839">
<ele>176.470825</ele>
<time>2011-10-10T14:35:43Z</time>
<desc>lat.=44.616386, lon.=33.737839, Alt.=176.470825m. Speed=0.000000m/h.</desc>
<speed>0.000000</speed>
</trkpt>
<trkpt lat="44.616386" lon="33.737839">
<ele>176.478638</ele>
<time>2011-10-10T14:35:48Z</time>
<desc>lat.=44.616386, lon.=33.737839, Alt.=176.478638m. Speed=0.036000m/h.</desc>
<speed>0.010000</speed>
</trkpt>
<trkpt lat="44.616386" lon="33.737846">
<ele>176.466919</ele>
<time>2011-10-10T14:35:53Z</time>
<desc>lat.=44.616386, lon.=33.737846, Alt.=176.466919m. Speed=1.188000m/h.</desc>
<speed>0.330000</speed>
</trkpt>
<trkpt lat="44.616436" lon="33.737816">
<ele>176.939575</ele>
<time>2011-10-10T14:35:58Z</time>
<desc>lat.=44.616436, lon.=33.737816, Alt.=176.939575m. Speed=3.708000m/h.</desc>
<speed>1.030000</speed>
</trkpt>
<trkpt lat="44.616451" lon="33.737808">
<ele>177.763794</ele>
<time>2011-10-10T14:36:03Z</time>
<desc>lat.=44.616451, lon.=33.737808, Alt.=177.763794m. Speed=3.636000m/h.</desc>
<speed>1.010000</speed>
</trkpt>
<trkpt lat="44.616455" lon="33.737797">
<ele>178.275513</ele>
<time>2011-10-10T14:36:08Z</time>
<desc>lat.=44.616455, lon.=33.737797, Alt.=178.275513m. Speed=0.612000m/h.</desc>
<speed>0.170000</speed>
</trkpt>
<trkpt lat="44.616459" lon="33.737797">
<ele>178.705200</ele>
<time>2011-10-10T14:36:13Z</time>
<desc>lat.=44.616459, lon.=33.737797, Alt.=178.705200m. Speed=0.000000m/h.</desc>
<speed>0.000000</speed>
</trkpt>
<trkpt lat="44.616447" lon="33.737797">
<ele>178.627075</ele>
<time>2011-10-10T14:36:18Z</time>
<desc>lat.=44.616447, lon.=33.737797, Alt.=178.627075m. Speed=0.288000m/h.</desc>
<speed>0.080000</speed>
</trkpt>
<trkpt lat="44.616436" lon="33.737808">
<ele>178.326294</ele>
<time>2011-10-10T14:36:23Z</time>
<desc>lat.=44.616436, lon.=33.737808, Alt.=178.326294m. Speed=0.864000m/h.</desc>
<speed>0.240000</speed>
</trkpt>
<trkpt lat="44.616398" lon="33.737804">
<ele>178.060669</ele>
<time>2011-10-10T14:36:28Z</time>
<desc>lat.=44.616398, lon.=33.737804, Alt.=178.060669m. Speed=4.608000m/h.</desc>
<speed>1.280000</speed>
</trkpt>
<trkpt lat="44.616325" lon="33.737804">
<ele>176.681763</ele>
<time>2011-10-10T14:36:33Z</time>
<desc>lat.=44.616325, lon.=33.737804, Alt.=176.681763m. Speed=5.400000m/h.</desc>
<speed>1.500000</speed>
</trkpt>
<trkpt lat="44.616280" lon="33.737774">
<ele>175.404419</ele>
<time>2011-10-10T14:36:38Z</time>
<desc>lat.=44.616280, lon.=33.737774, Alt.=175.404419m. Speed=4.680000m/h.</desc>
<speed>1.300000</speed>
</trkpt>
<trkpt lat="44.616238" lon="33.737732">
<ele>174.892700</ele>
<time>2011-10-10T14:36:43Z</time>
<desc>lat.=44.616238, lon.=33.737732, Alt.=174.892700m. Speed=3.924000m/h.</desc>
<speed>1.090000</speed>
</trkpt>
<trkpt lat="44.616184" lon="33.737705">
<ele>174.138794</ele>
<time>2011-10-10T14:36:48Z</time>
<desc>lat.=44.616184, lon.=33.737705, Alt.=174.138794m. Speed=5.184000m/h.</desc>
<speed>1.440000</speed>
</trkpt>
<trkpt lat="44.616161" lon="33.737629">
<ele>174.330200</ele>
<time>2011-10-10T14:36:53Z</time>
<desc>lat.=44.616161, lon.=33.737629, Alt.=174.330200m. Speed=4.392000m/h.</desc>
<speed>1.220000</speed>
</trkpt>
<trkpt lat="44.616116" lon="33.737572">
<ele>173.455200</ele>
<time>2011-10-10T14:36:58Z</time>
<desc>lat.=44.616116, lon.=33.737572, Alt.=173.455200m. Speed=4.356000m/h.</desc>
<speed>1.210000</speed>
</trkpt>
<trkpt lat="44.616058" lon="33.737541">
<ele>174.166138</ele>
<time>2011-10-10T14:37:03Z</time>
<desc>lat.=44.616058, lon.=33.737541, Alt.=174.166138m. Speed=4.464000m/h.</desc>
<speed>1.240000</speed>
</trkpt>
<trkpt lat="44.616009" lon="33.737511">
<ele>175.197388</ele>
<time>2011-10-10T14:37:08Z</time>
<desc>lat.=44.616009, lon.=33.737511, Alt.=175.197388m. Speed=4.284000m/h.</desc>
<speed>1.190000</speed>
</trkpt>
<trkpt lat="44.615974" lon="33.737461">
<ele>176.302856</ele>
<time>2011-10-10T14:37:13Z</time>
<desc>lat.=44.615974, lon.=33.737461, Alt.=176.302856m. Speed=4.104000m/h.</desc>
<speed>1.140000</speed>
</trkpt>
<trkpt lat="44.615936" lon="33.737408">
<ele>176.752075</ele>
<time>2011-10-10T14:37:18Z</time>
<desc>lat.=44.615936, lon.=33.737408, Alt.=176.752075m. Speed=3.996000m/h.</desc>
<speed>1.110000</speed>
</trkpt>
<trkpt lat="44.615891" lon="33.737370">
<ele>177.334106</ele>
<time>2011-10-10T14:37:23Z</time>
<desc>lat.=44.615891, lon.=33.737370, Alt.=177.334106m. Speed=4.212000m/h.</desc>
<speed>1.170000</speed>
</trkpt>
<trkpt lat="44.615856" lon="33.737335">
<ele>177.916138</ele>
<time>2011-10-10T14:37:28Z</time>
<desc>lat.=44.615856, lon.=33.737335, Alt.=177.916138m. Speed=4.032000m/h.</desc>
<speed>1.120000</speed>
</trkpt>
<trkpt lat="44.615818" lon="33.737309">
<ele>179.482544</ele>
<time>2011-10-10T14:37:33Z</time>
<desc>lat.=44.615818, lon.=33.737309, Alt.=179.482544m. Speed=4.608000m/h.</desc>
<speed>1.280000</speed>
</trkpt>
<trkpt lat="44.615788" lon="33.737270">
<ele>180.463013</ele>
<time>2011-10-10T14:37:38Z</time>
<desc>lat.=44.615788, lon.=33.737270, Alt.=180.463013m. Speed=4.320000m/h.</desc>
<speed>1.200000</speed>
</trkpt>
<trkpt lat="44.615746" lon="33.737206">
<ele>181.404419</ele>
<time>2011-10-10T14:37:43Z</time>
<desc>lat.=44.615746, lon.=33.737206, Alt.=181.404419m. Speed=4.680000m/h.</desc>
<speed>1.300000</speed>
</trkpt>
<trkpt lat="44.615707" lon="33.737160">
<ele>181.966919</ele>
<time>2011-10-10T14:37:48Z</time>
<desc>lat.=44.615707, lon.=33.737160, Alt.=181.966919m. Speed=4.536000m/h.</desc>
<speed>1.260000</speed>
</trkpt>
<trkpt lat="44.615650" lon="33.737137">
<ele>182.142700</ele>
<time>2011-10-10T14:37:53Z</time>
<desc>lat.=44.615650, lon.=33.737137, Alt.=182.142700m. Speed=5.292000m/h.</desc>
<speed>1.470000</speed>
</trkpt>
<trkpt lat="44.615631" lon="33.737133">
<ele>183.451294</ele>
<time>2011-10-10T14:37:58Z</time>
<desc>lat.=44.615631, lon.=33.737133, Alt.=183.451294m. Speed=3.456000m/h.</desc>
<speed>0.960000</speed>
</trkpt>
<trkpt lat="44.615551" lon="33.737095">
<ele>183.451294</ele>
<time>2011-10-10T14:38:03Z</time>
<desc>lat.=44.615551, lon.=33.737095, Alt.=183.451294m. Speed=7.704000m/h.</desc>
<speed>2.140000</speed>
</trkpt>
<trkpt lat="44.615475" lon="33.737053">
<ele>182.966919</ele>
<time>2011-10-10T14:38:08Z</time>
<desc>lat.=44.615475, lon.=33.737053, Alt.=182.966919m. Speed=5.724000m/h.</desc>
<speed>1.590000</speed>
</trkpt>
<trkpt lat="44.615417" lon="33.737041">
<ele>182.986450</ele>
<time>2011-10-10T14:38:13Z</time>
<desc>lat.=44.615417, lon.=33.737041, Alt.=182.986450m. Speed=5.652000m/h.</desc>
<speed>1.570000</speed>
</trkpt>
<trkpt lat="44.615345" lon="33.737019">
<ele>183.111450</ele>
<time>2011-10-10T14:38:18Z</time>
<desc>lat.=44.615345, lon.=33.737019, Alt.=183.111450m. Speed=4.824000m/h.</desc>
<speed>1.340000</speed>
</trkpt>
<trkpt lat="44.615303" lon="33.736954">
<ele>183.783325</ele>
<time>2011-10-10T14:38:23Z</time>
<desc>lat.=44.615303, lon.=33.736954, Alt.=183.783325m. Speed=5.364000m/h.</desc>
<speed>1.490000</speed>
</trkpt>
<trkpt lat="44.615257" lon="33.736893">
<ele>184.201294</ele>
<time>2011-10-10T14:38:28Z</time>
<desc>lat.=44.615257, lon.=33.736893, Alt.=184.201294m. Speed=5.040000m/h.</desc>
<speed>1.400000</speed>
</trkpt>
<trkpt lat="44.615204" lon="33.736851">
<ele>184.232544</ele>
<time>2011-10-10T14:38:33Z</time>
<desc>lat.=44.615204, lon.=33.736851, Alt.=184.232544m. Speed=5.112000m/h.</desc>
<speed>1.420000</speed>
</trkpt>
<trkpt lat="44.615154" lon="33.736832">
<ele>184.560669</ele>
<time>2011-10-10T14:38:38Z</time>
<desc>lat.=44.615154, lon.=33.736832, Alt.=184.560669m. Speed=2.160000m/h.</desc>
<speed>0.600000</speed>
</trkpt>
<trkpt lat="44.615150" lon="33.736786">
<ele>184.259888</ele>
<time>2011-10-10T14:38:43Z</time>
<desc>lat.=44.615150, lon.=33.736786, Alt.=184.259888m. Speed=4.644000m/h.</desc>
<speed>1.290000</speed>
</trkpt>
<trkpt lat="44.615078" lon="33.736732">
<ele>183.357544</ele>
<time>2011-10-10T14:38:48Z</time>
<desc>lat.=44.615078, lon.=33.736732, Alt.=183.357544m. Speed=6.516000m/h.</desc>
<speed>1.810000</speed>
</trkpt>
<trkpt lat="44.614994" lon="33.736725">
<ele>183.005981</ele>
<time>2011-10-10T14:38:53Z</time>
<desc>lat.=44.614994, lon.=33.736725, Alt.=183.005981m. Speed=5.760000m/h.</desc>
<speed>1.600000</speed>
</trkpt>
<trkpt lat="44.614910" lon="33.736767">
<ele>182.959106</ele>
<time>2011-10-10T14:38:58Z</time>
<desc>lat.=44.614910, lon.=33.736767, Alt.=182.959106m. Speed=4.860000m/h.</desc>
<speed>1.350000</speed>
</trkpt>
<trkpt lat="44.614849" lon="33.736824">
<ele>182.916138</ele>
<time>2011-10-10T14:39:03Z</time>
<desc>lat.=44.614849, lon.=33.736824, Alt.=182.916138m. Speed=5.472000m/h.</desc>
<speed>1.520000</speed>
</trkpt>
<trkpt lat="44.614811" lon="33.736866">
<ele>183.779419</ele>
<time>2011-10-10T14:39:08Z</time>
<desc>lat.=44.614811, lon.=33.736866, Alt.=183.779419m. Speed=3.384000m/h.</desc>
<speed>0.940000</speed>
</trkpt>
<trkpt lat="44.614765" lon="33.736897">
<ele>183.451294</ele>
<time>2011-10-10T14:39:13Z</time>
<desc>lat.=44.614765, lon.=33.736897, Alt.=183.451294m. Speed=5.832000m/h.</desc>
<speed>1.620000</speed>
</trkpt>
<trkpt lat="44.614704" lon="33.736935">
<ele>183.525513</ele>
<time>2011-10-10T14:39:18Z</time>
<desc>lat.=44.614704, lon.=33.736935, Alt.=183.525513m. Speed=5.580000m/h.</desc>
<speed>1.550000</speed>
</trkpt>
<trkpt lat="44.614635" lon="33.737019">
<ele>184.373169</ele>
<time>2011-10-10T14:39:23Z</time>
<desc>lat.=44.614635, lon.=33.737019, Alt.=184.373169m. Speed=6.336000m/h.</desc>
<speed>1.760000</speed>
</trkpt>
<trkpt lat="44.614624" lon="33.737041">
<ele>184.798950</ele>
<time>2011-10-10T14:39:28Z</time>
<desc>lat.=44.614624, lon.=33.737041, Alt.=184.798950m. Speed=0.972000m/h.</desc>
<speed>0.270000</speed>
</trkpt>
<trkpt lat="44.614635" lon="33.737030">
<ele>185.279419</ele>
<time>2011-10-10T14:39:33Z</time>
<desc>lat.=44.614635, lon.=33.737030, Alt.=185.279419m. Speed=4.248000m/h.</desc>
<speed>1.180000</speed>
</trkpt>
<trkpt lat="44.614643" lon="33.737057">
<ele>184.482544</ele>
<time>2011-10-10T14:39:38Z</time>
<desc>lat.=44.614643, lon.=33.737057, Alt.=184.482544m. Speed=2.124000m/h.</desc>
<speed>0.590000</speed>
</trkpt>
<trkpt lat="44.614594" lon="33.737083">
<ele>184.552856</ele>
<time>2011-10-10T14:39:43Z</time>
<desc>lat.=44.614594, lon.=33.737083, Alt.=184.552856m. Speed=4.428000m/h.</desc>
<speed>1.230000</speed>
</trkpt>
<trkpt lat="44.614590" lon="33.737083">
<ele>185.138794</ele>
<time>2011-10-10T14:39:48Z</time>
<desc>lat.=44.614590, lon.=33.737083, Alt.=185.138794m. Speed=1.584000m/h.</desc>
<speed>0.440000</speed>
</trkpt>
<trkpt lat="44.614613" lon="33.737053">
<ele>185.845825</ele>
<time>2011-10-10T14:39:53Z</time>
<desc>lat.=44.614613, lon.=33.737053, Alt.=185.845825m. Speed=3.060000m/h.</desc>
<speed>0.850000</speed>
</trkpt>
<trkpt lat="44.614651" lon="33.736988">
<ele>186.271606</ele>
<time>2011-10-10T14:39:58Z</time>
<desc>lat.=44.614651, lon.=33.736988, Alt.=186.271606m. Speed=4.392000m/h.</desc>
<speed>1.220000</speed>
</trkpt>
<trkpt lat="44.614700" lon="33.736980">
<ele>186.912231</ele>
<time>2011-10-10T14:40:03Z</time>
<desc>lat.=44.614700, lon.=33.736980, Alt.=186.912231m. Speed=2.484000m/h.</desc>
<speed>0.690000</speed>
</trkpt>
<trkpt lat="44.614799" lon="33.736931">
<ele>187.951294</ele>
<time>2011-10-10T14:40:08Z</time>
<desc>lat.=44.614799, lon.=33.736931, Alt.=187.951294m. Speed=3.924000m/h.</desc>
<speed>1.090000</speed>
</trkpt>
<trkpt lat="44.614853" lon="33.736908">
<ele>188.615356</ele>
<time>2011-10-10T14:40:13Z</time>
<desc>lat.=44.614853, lon.=33.736908, Alt.=188.615356m. Speed=3.420000m/h.</desc>
<speed>0.950000</speed>
</trkpt>
</trkseg>
</trk>
</gpx>